﻿<?xml version="1.0" encoding="UTF-8" standalone="no" ?>
<gpx xmlns="http://www.topografix.com/GPX/1/1" creator="CompeGPS" version="1.1" xmlns:xsi="http://www.w3.org/2001/XMLSchema-instance" xsi:schemaLocation="http://www.topografix.com/GPX/1/1 http://www.topografix.com/GPX/1/1/gpx.xsd">
  <metadata>
    <link href="http://www.compegps.com">
      <text>CompeGPS TEAM, SL</text>
    </link>
    <time>2010-07-06T18:28:08Z</time>
    <bounds maxlat="42.718186" maxlon="0.796405" minlat="42.582630" minlon="0.521758"/>
  </metadata>
  <trk>
    <name>TRAKS_VUELTA_ANETO</name>
    <trkseg>
      <trkpt lat="42.603805" lon="0.521908">
        <ele>1137.0</ele>
        <time>2010-07-02T10:23:08Z</time>
      </trkpt>
      <trkpt lat="42.604100" lon="0.521825">
        <ele>1136.3</ele>
        <time>2010-07-02T10:23:08Z</time>
      </trkpt>
      <trkpt lat="42.604328" lon="0.521809">
        <ele>1135.7</ele>
        <time>2010-07-02T10:23:08Z</time>
      </trkpt>
      <trkpt lat="42.604725" lon="0.521857">
        <ele>1135.3</ele>
        <time>2010-07-02T10:23:08Z</time>
      </trkpt>
      <trkpt lat="42.604944" lon="0.521870">
        <ele>1136.1</ele>
        <time>2010-07-02T10:23:08Z</time>
      </trkpt>
      <trkpt lat="42.605226" lon="0.521944">
        <ele>1136.8</ele>
        <time>2010-07-02T10:23:08Z</time>
      </trkpt>
      <trkpt lat="42.605978" lon="0.522252">
        <ele>1138.3</ele>
        <time>2010-07-02T10:23:08Z</time>
      </trkpt>
      <trkpt lat="42.606493" lon="0.522402">
        <ele>1139.1</ele>
        <time>2010-07-02T10:23:08Z</time>
      </trkpt>
      <trkpt lat="42.606921" lon="0.522545">
        <ele>1139.7</ele>
        <time>2010-07-02T10:23:08Z</time>
      </trkpt>
      <trkpt lat="42.607166" lon="0.522674">
        <ele>1140.8</ele>
        <time>2010-07-02T10:23:08Z</time>
      </trkpt>
      <trkpt lat="42.607352" lon="0.522812">
        <ele>1141.9</ele>
        <time>2010-07-02T10:23:08Z</time>
      </trkpt>
      <trkpt lat="42.607521" lon="0.522947">
        <ele>1142.7</ele>
        <time>2010-07-02T10:23:08Z</time>
      </trkpt>
      <trkpt lat="42.607618" lon="0.522958">
        <ele>1142.9</ele>
        <time>2010-07-02T10:23:08Z</time>
      </trkpt>
      <trkpt lat="42.607754" lon="0.522952">
        <ele>1143.1</ele>
        <time>2010-07-02T10:23:08Z</time>
      </trkpt>
      <trkpt lat="42.607859" lon="0.522966">
        <ele>1143.3</ele>
        <time>2010-07-02T10:23:08Z</time>
      </trkpt>
      <trkpt lat="42.607955" lon="0.523005">
        <ele>1144.0</ele>
        <time>2010-07-02T10:23:08Z</time>
      </trkpt>
      <trkpt lat="42.608082" lon="0.523075">
        <ele>1145.4</ele>
        <time>2010-07-02T10:23:08Z</time>
      </trkpt>
      <trkpt lat="42.608419" lon="0.523249">
        <ele>1148.9</ele>
        <time>2010-07-02T10:23:08Z</time>
      </trkpt>
      <trkpt lat="42.608667" lon="0.523424">
        <ele>1151.6</ele>
        <time>2010-07-02T10:23:08Z</time>
      </trkpt>
      <trkpt lat="42.608885" lon="0.523540">
        <ele>1152.2</ele>
        <time>2010-07-02T10:23:08Z</time>
      </trkpt>
      <trkpt lat="42.609024" lon="0.523662">
        <ele>1151.8</ele>
        <time>2010-07-02T10:23:08Z</time>
      </trkpt>
      <trkpt lat="42.609203" lon="0.523801">
        <ele>1151.2</ele>
        <time>2010-07-02T10:23:08Z</time>
      </trkpt>
      <trkpt lat="42.609487" lon="0.524085">
        <ele>1149.8</ele>
        <time>2010-07-02T10:23:08Z</time>
      </trkpt>
      <trkpt lat="42.609969" lon="0.524648">
        <ele>1150.9</ele>
        <time>2010-07-02T10:23:08Z</time>
      </trkpt>
      <trkpt lat="42.610260" lon="0.524995">
        <ele>1154.2</ele>
        <time>2010-07-02T10:23:08Z</time>
      </trkpt>
      <trkpt lat="42.610572" lon="0.525356">
        <ele>1156.3</ele>
        <time>2010-07-02T10:23:08Z</time>
      </trkpt>
      <trkpt lat="42.610827" lon="0.525581">
        <ele>1157.2</ele>
        <time>2010-07-02T10:23:08Z</time>
      </trkpt>
      <trkpt lat="42.611920" lon="0.526383">
        <ele>1160.6</ele>
        <time>2010-07-02T10:23:08Z</time>
      </trkpt>
      <trkpt lat="42.612602" lon="0.526850">
        <ele>1162.9</ele>
        <time>2010-07-02T10:23:08Z</time>
      </trkpt>
      <trkpt lat="42.613002" lon="0.527165">
        <ele>1164.7</ele>
        <time>2010-07-02T10:23:08Z</time>
      </trkpt>
      <trkpt lat="42.613560" lon="0.527594">
        <ele>1166.4</ele>
        <time>2010-07-02T10:23:08Z</time>
      </trkpt>
      <trkpt lat="42.613774" lon="0.527763">
        <ele>1166.3</ele>
        <time>2010-07-02T10:23:08Z</time>
      </trkpt>
      <trkpt lat="42.613823" lon="0.527853">
        <ele>1166.7</ele>
        <time>2010-07-02T10:23:08Z</time>
      </trkpt>
      <trkpt lat="42.613840" lon="0.527917">
        <ele>1167.0</ele>
        <time>2010-07-02T10:23:08Z</time>
      </trkpt>
      <trkpt lat="42.613850" lon="0.528023">
        <ele>1168.2</ele>
        <time>2010-07-02T10:23:08Z</time>
      </trkpt>
      <trkpt lat="42.613830" lon="0.528183">
        <ele>1170.0</ele>
        <time>2010-07-02T10:23:08Z</time>
      </trkpt>
      <trkpt lat="42.613820" lon="0.528326">
        <ele>1171.6</ele>
        <time>2010-07-02T10:23:08Z</time>
      </trkpt>
      <trkpt lat="42.613817" lon="0.528429">
        <ele>1172.8</ele>
        <time>2010-07-02T10:23:08Z</time>
      </trkpt>
      <trkpt lat="42.613869" lon="0.528669">
        <ele>1175.1</ele>
        <time>2010-07-02T10:23:08Z</time>
      </trkpt>
      <trkpt lat="42.614033" lon="0.529298">
        <ele>1180.7</ele>
        <time>2010-07-02T10:23:08Z</time>
      </trkpt>
      <trkpt lat="42.614509" lon="0.530957">
        <ele>1180.3</ele>
        <time>2010-07-02T10:23:08Z</time>
      </trkpt>
      <trkpt lat="42.614764" lon="0.531838">
        <ele>1177.6</ele>
        <time>2010-07-02T10:23:08Z</time>
      </trkpt>
      <trkpt lat="42.614953" lon="0.532545">
        <ele>1177.7</ele>
        <time>2010-07-02T10:23:08Z</time>
      </trkpt>
      <trkpt lat="42.615176" lon="0.533258">
        <ele>1180.7</ele>
        <time>2010-07-02T10:23:08Z</time>
      </trkpt>
      <trkpt lat="42.615355" lon="0.533776">
        <ele>1183.8</ele>
        <time>2010-07-02T10:23:08Z</time>
      </trkpt>
      <trkpt lat="42.615469" lon="0.533967">
        <ele>1184.5</ele>
        <time>2010-07-02T10:23:08Z</time>
      </trkpt>
      <trkpt lat="42.615567" lon="0.534113">
        <ele>1185.3</ele>
        <time>2010-07-02T10:23:08Z</time>
      </trkpt>
      <trkpt lat="42.615704" lon="0.534264">
        <ele>1185.9</ele>
        <time>2010-07-02T10:23:08Z</time>
      </trkpt>
      <trkpt lat="42.615869" lon="0.534374">
        <ele>1186.1</ele>
        <time>2010-07-02T10:23:08Z</time>
      </trkpt>
      <trkpt lat="42.616126" lon="0.534474">
        <ele>1185.9</ele>
        <time>2010-07-02T10:23:08Z</time>
      </trkpt>
      <trkpt lat="42.616305" lon="0.534535">
        <ele>1185.8</ele>
        <time>2010-07-02T10:23:08Z</time>
      </trkpt>
      <trkpt lat="42.616546" lon="0.534596">
        <ele>1186.2</ele>
        <time>2010-07-02T10:23:08Z</time>
      </trkpt>
      <trkpt lat="42.616823" lon="0.534696">
        <ele>1187.6</ele>
        <time>2010-07-02T10:23:08Z</time>
      </trkpt>
      <trkpt lat="42.617122" lon="0.534805">
        <ele>1189.0</ele>
        <time>2010-07-02T10:23:08Z</time>
      </trkpt>
      <trkpt lat="42.617401" lon="0.534968">
        <ele>1191.1</ele>
        <time>2010-07-02T10:23:08Z</time>
      </trkpt>
      <trkpt lat="42.617821" lon="0.535310">
        <ele>1190.9</ele>
        <time>2010-07-02T10:23:08Z</time>
      </trkpt>
      <trkpt lat="42.618191" lon="0.535686">
        <ele>1193.1</ele>
        <time>2010-07-02T10:23:08Z</time>
      </trkpt>
      <trkpt lat="42.618606" lon="0.536210">
        <ele>1192.2</ele>
        <time>2010-07-02T10:23:08Z</time>
      </trkpt>
      <trkpt lat="42.618843" lon="0.536450">
        <ele>1191.6</ele>
        <time>2010-07-02T10:23:08Z</time>
      </trkpt>
      <trkpt lat="42.619100" lon="0.536692">
        <ele>1194.2</ele>
        <time>2010-07-02T10:23:08Z</time>
      </trkpt>
      <trkpt lat="42.619479" lon="0.536993">
        <ele>1195.2</ele>
        <time>2010-07-02T10:23:08Z</time>
      </trkpt>
      <trkpt lat="42.619775" lon="0.537209">
        <ele>1197.2</ele>
        <time>2010-07-02T10:23:08Z</time>
      </trkpt>
      <trkpt lat="42.620022" lon="0.537337">
        <ele>1199.6</ele>
        <time>2010-07-02T10:23:08Z</time>
      </trkpt>
      <trkpt lat="42.620249" lon="0.537421">
        <ele>1201.3</ele>
        <time>2010-07-02T10:23:08Z</time>
      </trkpt>
      <trkpt lat="42.620432" lon="0.537513">
        <ele>1202.6</ele>
        <time>2010-07-02T10:23:08Z</time>
      </trkpt>
      <trkpt lat="42.620650" lon="0.537580">
        <ele>1204.2</ele>
        <time>2010-07-02T10:23:08Z</time>
      </trkpt>
      <trkpt lat="42.621193" lon="0.537747">
        <ele>1205.1</ele>
        <time>2010-07-02T10:23:08Z</time>
      </trkpt>
      <trkpt lat="42.621535" lon="0.537860">
        <ele>1204.6</ele>
        <time>2010-07-02T10:23:08Z</time>
      </trkpt>
      <trkpt lat="42.621639" lon="0.537897">
        <ele>1204.3</ele>
        <time>2010-07-02T10:23:08Z</time>
      </trkpt>
      <trkpt lat="42.621726" lon="0.537960">
        <ele>1204.6</ele>
        <time>2010-07-02T10:23:08Z</time>
      </trkpt>
      <trkpt lat="42.621820" lon="0.538073">
        <ele>1205.9</ele>
        <time>2010-07-02T10:23:08Z</time>
      </trkpt>
      <trkpt lat="42.621893" lon="0.538222">
        <ele>1207.4</ele>
        <time>2010-07-02T10:23:08Z</time>
      </trkpt>
      <trkpt lat="42.621956" lon="0.538402">
        <ele>1209.0</ele>
        <time>2010-07-02T10:23:08Z</time>
      </trkpt>
      <trkpt lat="42.622030" lon="0.538677">
        <ele>1211.3</ele>
        <time>2010-07-02T10:23:08Z</time>
      </trkpt>
      <trkpt lat="42.622099" lon="0.538904">
        <ele>1213.5</ele>
        <time>2010-07-02T10:23:08Z</time>
      </trkpt>
      <trkpt lat="42.622155" lon="0.539007">
        <ele>1214.5</ele>
        <time>2010-07-02T10:23:08Z</time>
      </trkpt>
      <trkpt lat="42.622224" lon="0.539153">
        <ele>1215.6</ele>
        <time>2010-07-02T10:23:08Z</time>
      </trkpt>
      <trkpt lat="42.622263" lon="0.539273">
        <ele>1216.5</ele>
        <time>2010-07-02T10:23:08Z</time>
      </trkpt>
      <trkpt lat="42.622305" lon="0.539494">
        <ele>1218.0</ele>
        <time>2010-07-02T10:23:08Z</time>
      </trkpt>
      <trkpt lat="42.622308" lon="0.539723">
        <ele>1219.5</ele>
        <time>2010-07-02T10:23:08Z</time>
      </trkpt>
      <trkpt lat="42.622307" lon="0.539861">
        <ele>1220.3</ele>
        <time>2010-07-02T10:23:08Z</time>
      </trkpt>
      <trkpt lat="42.622320" lon="0.539986">
        <ele>1220.9</ele>
        <time>2010-07-02T10:23:08Z</time>
      </trkpt>
      <trkpt lat="42.622362" lon="0.540205">
        <ele>1221.8</ele>
        <time>2010-07-02T10:23:08Z</time>
      </trkpt>
      <trkpt lat="42.622437" lon="0.540452">
        <ele>1222.5</ele>
        <time>2010-07-02T10:23:08Z</time>
      </trkpt>
      <trkpt lat="42.622519" lon="0.540646">
        <ele>1223.3</ele>
        <time>2010-07-02T10:23:08Z</time>
      </trkpt>
      <trkpt lat="42.622641" lon="0.540831">
        <ele>1223.6</ele>
        <time>2010-07-02T10:23:08Z</time>
      </trkpt>
      <trkpt lat="42.622730" lon="0.540940">
        <ele>1223.6</ele>
        <time>2010-07-02T10:23:08Z</time>
      </trkpt>
      <trkpt lat="42.622766" lon="0.541016">
        <ele>1223.8</ele>
        <time>2010-07-02T10:23:08Z</time>
      </trkpt>
      <trkpt lat="42.622791" lon="0.541080">
        <ele>1224.0</ele>
        <time>2010-07-02T10:23:08Z</time>
      </trkpt>
      <trkpt lat="42.622810" lon="0.541210">
        <ele>1224.9</ele>
        <time>2010-07-02T10:23:08Z</time>
      </trkpt>
      <trkpt lat="42.622825" lon="0.541395">
        <ele>1225.8</ele>
        <time>2010-07-02T10:23:08Z</time>
      </trkpt>
      <trkpt lat="42.622861" lon="0.541595">
        <ele>1226.4</ele>
        <time>2010-07-02T10:23:08Z</time>
      </trkpt>
      <trkpt lat="42.622912" lon="0.541894">
        <ele>1227.2</ele>
        <time>2010-07-02T10:23:08Z</time>
      </trkpt>
      <trkpt lat="42.622949" lon="0.542039">
        <ele>1227.6</ele>
        <time>2010-07-02T10:23:08Z</time>
      </trkpt>
      <trkpt lat="42.623009" lon="0.542183">
        <ele>1228.1</ele>
        <time>2010-07-02T10:23:08Z</time>
      </trkpt>
      <trkpt lat="42.623089" lon="0.542343">
        <ele>1228.7</ele>
        <time>2010-07-02T10:23:08Z</time>
      </trkpt>
      <trkpt lat="42.623252" lon="0.542584">
        <ele>1228.8</ele>
        <time>2010-07-02T10:23:08Z</time>
      </trkpt>
      <trkpt lat="42.623490" lon="0.542898">
        <ele>1228.0</ele>
        <time>2010-07-02T10:23:08Z</time>
      </trkpt>
      <trkpt lat="42.623594" lon="0.543027">
        <ele>1228.2</ele>
        <time>2010-07-02T10:23:08Z</time>
      </trkpt>
      <trkpt lat="42.623744" lon="0.543195">
        <ele>1228.4</ele>
        <time>2010-07-02T10:23:08Z</time>
      </trkpt>
      <trkpt lat="42.624047" lon="0.543454">
        <ele>1231.7</ele>
        <time>2010-07-02T10:23:08Z</time>
      </trkpt>
      <trkpt lat="42.624274" lon="0.543679">
        <ele>1232.3</ele>
        <time>2010-07-02T10:23:08Z</time>
      </trkpt>
      <trkpt lat="42.624350" lon="0.543825">
        <ele>1232.6</ele>
        <time>2010-07-02T10:23:08Z</time>
      </trkpt>
      <trkpt lat="42.624540" lon="0.544079">
        <ele>1232.9</ele>
        <time>2010-07-02T10:23:08Z</time>
      </trkpt>
      <trkpt lat="42.624955" lon="0.544716">
        <ele>1240.4</ele>
        <time>2010-07-02T10:23:08Z</time>
      </trkpt>
      <trkpt lat="42.625061" lon="0.544833">
        <ele>1242.2</ele>
        <time>2010-07-02T10:23:08Z</time>
      </trkpt>
      <trkpt lat="42.625201" lon="0.545039">
        <ele>1243.9</ele>
        <time>2010-07-02T10:23:08Z</time>
      </trkpt>
      <trkpt lat="42.625240" lon="0.545131">
        <ele>1244.3</ele>
        <time>2010-07-02T10:23:08Z</time>
      </trkpt>
      <trkpt lat="42.625270" lon="0.545213">
        <ele>1244.5</ele>
        <time>2010-07-02T10:23:08Z</time>
      </trkpt>
      <trkpt lat="42.625416" lon="0.545390">
        <ele>1244.0</ele>
        <time>2010-07-02T10:23:08Z</time>
      </trkpt>
      <trkpt lat="42.625530" lon="0.545560">
        <ele>1249.1</ele>
        <time>2010-07-02T10:23:08Z</time>
      </trkpt>
      <trkpt lat="42.625734" lon="0.545836">
        <ele>1255.1</ele>
        <time>2010-07-02T10:23:08Z</time>
      </trkpt>
      <trkpt lat="42.625859" lon="0.546033">
        <ele>1256.8</ele>
        <time>2010-07-02T10:23:08Z</time>
      </trkpt>
      <trkpt lat="42.625905" lon="0.546153">
        <ele>1257.5</ele>
        <time>2010-07-02T10:23:08Z</time>
      </trkpt>
      <trkpt lat="42.625915" lon="0.546274">
        <ele>1259.0</ele>
        <time>2010-07-02T10:23:08Z</time>
      </trkpt>
      <trkpt lat="42.625928" lon="0.546427">
        <ele>1261.9</ele>
        <time>2010-07-02T10:23:08Z</time>
      </trkpt>
      <trkpt lat="42.625969" lon="0.546618">
        <ele>1264.7</ele>
        <time>2010-07-02T10:23:08Z</time>
      </trkpt>
      <trkpt lat="42.626000" lon="0.546697">
        <ele>1265.4</ele>
        <time>2010-07-02T10:23:08Z</time>
      </trkpt>
      <trkpt lat="42.626043" lon="0.546799">
        <ele>1266.1</ele>
        <time>2010-07-02T10:23:08Z</time>
      </trkpt>
      <trkpt lat="42.626079" lon="0.546891">
        <ele>1266.7</ele>
        <time>2010-07-02T10:23:08Z</time>
      </trkpt>
      <trkpt lat="42.626109" lon="0.546977">
        <ele>1267.2</ele>
        <time>2010-07-02T10:23:08Z</time>
      </trkpt>
      <trkpt lat="42.626114" lon="0.547055">
        <ele>1268.5</ele>
        <time>2010-07-02T10:23:08Z</time>
      </trkpt>
      <trkpt lat="42.626125" lon="0.547151">
        <ele>1269.8</ele>
        <time>2010-07-02T10:23:08Z</time>
      </trkpt>
      <trkpt lat="42.626141" lon="0.547270">
        <ele>1271.2</ele>
        <time>2010-07-02T10:23:08Z</time>
      </trkpt>
      <trkpt lat="42.626159" lon="0.547347">
        <ele>1271.8</ele>
        <time>2010-07-02T10:23:08Z</time>
      </trkpt>
      <trkpt lat="42.626186" lon="0.547405">
        <ele>1271.8</ele>
        <time>2010-07-02T10:23:08Z</time>
      </trkpt>
      <trkpt lat="42.626240" lon="0.547454">
        <ele>1270.6</ele>
        <time>2010-07-02T10:23:08Z</time>
      </trkpt>
      <trkpt lat="42.626296" lon="0.547468">
        <ele>1270.0</ele>
        <time>2010-07-02T10:23:08Z</time>
      </trkpt>
      <trkpt lat="42.626365" lon="0.547446">
        <ele>1268.9</ele>
        <time>2010-07-02T10:23:08Z</time>
      </trkpt>
      <trkpt lat="42.626427" lon="0.547366">
        <ele>1267.0</ele>
        <time>2010-07-02T10:23:08Z</time>
      </trkpt>
      <trkpt lat="42.626462" lon="0.547335">
        <ele>1266.2</ele>
        <time>2010-07-02T10:23:08Z</time>
      </trkpt>
      <trkpt lat="42.626501" lon="0.547336">
        <ele>1265.9</ele>
        <time>2010-07-02T10:23:08Z</time>
      </trkpt>
      <trkpt lat="42.626528" lon="0.547385">
        <ele>1266.3</ele>
        <time>2010-07-02T10:23:08Z</time>
      </trkpt>
      <trkpt lat="42.626553" lon="0.547556">
        <ele>1268.5</ele>
        <time>2010-07-02T10:23:08Z</time>
      </trkpt>
      <trkpt lat="42.626578" lon="0.547693">
        <ele>1270.1</ele>
        <time>2010-07-02T10:23:08Z</time>
      </trkpt>
      <trkpt lat="42.626595" lon="0.547827">
        <ele>1271.8</ele>
        <time>2010-07-02T10:23:08Z</time>
      </trkpt>
      <trkpt lat="42.626615" lon="0.547907">
        <ele>1272.6</ele>
        <time>2010-07-02T10:23:08Z</time>
      </trkpt>
      <trkpt lat="42.626644" lon="0.547984">
        <ele>1273.1</ele>
        <time>2010-07-02T10:23:08Z</time>
      </trkpt>
      <trkpt lat="42.626694" lon="0.548053">
        <ele>1273.2</ele>
        <time>2010-07-02T10:23:08Z</time>
      </trkpt>
      <trkpt lat="42.626809" lon="0.548126">
        <ele>1272.4</ele>
        <time>2010-07-02T10:23:08Z</time>
      </trkpt>
      <trkpt lat="42.626951" lon="0.548185">
        <ele>1271.1</ele>
        <time>2010-07-02T10:23:08Z</time>
      </trkpt>
      <trkpt lat="42.627087" lon="0.548191">
        <ele>1269.3</ele>
        <time>2010-07-02T10:23:08Z</time>
      </trkpt>
      <trkpt lat="42.627289" lon="0.548204">
        <ele>1267.5</ele>
        <time>2010-07-02T10:23:08Z</time>
      </trkpt>
      <trkpt lat="42.627365" lon="0.548214">
        <ele>1266.8</ele>
        <time>2010-07-02T10:23:08Z</time>
      </trkpt>
      <trkpt lat="42.627437" lon="0.548239">
        <ele>1266.4</ele>
        <time>2010-07-02T10:23:08Z</time>
      </trkpt>
      <trkpt lat="42.627512" lon="0.548284">
        <ele>1266.1</ele>
        <time>2010-07-02T10:23:08Z</time>
      </trkpt>
      <trkpt lat="42.627581" lon="0.548334">
        <ele>1265.9</ele>
        <time>2010-07-02T10:23:08Z</time>
      </trkpt>
      <trkpt lat="42.627670" lon="0.548448">
        <ele>1266.1</ele>
        <time>2010-07-02T10:23:08Z</time>
      </trkpt>
      <trkpt lat="42.627754" lon="0.548511">
        <ele>1265.8</ele>
        <time>2010-07-02T10:23:08Z</time>
      </trkpt>
      <trkpt lat="42.627890" lon="0.548597">
        <ele>1265.0</ele>
        <time>2010-07-02T10:23:08Z</time>
      </trkpt>
      <trkpt lat="42.628058" lon="0.548627">
        <ele>1264.6</ele>
        <time>2010-07-02T10:23:08Z</time>
      </trkpt>
      <trkpt lat="42.628147" lon="0.548679">
        <ele>1264.6</ele>
        <time>2010-07-02T10:23:08Z</time>
      </trkpt>
      <trkpt lat="42.628292" lon="0.548717">
        <ele>1264.1</ele>
        <time>2010-07-02T10:23:08Z</time>
      </trkpt>
      <trkpt lat="42.628417" lon="0.548769">
        <ele>1263.9</ele>
        <time>2010-07-02T10:23:08Z</time>
      </trkpt>
      <trkpt lat="42.628493" lon="0.548837">
        <ele>1264.6</ele>
        <time>2010-07-02T10:23:08Z</time>
      </trkpt>
      <trkpt lat="42.628562" lon="0.548933">
        <ele>1265.8</ele>
        <time>2010-07-02T10:23:08Z</time>
      </trkpt>
      <trkpt lat="42.628623" lon="0.548988">
        <ele>1266.5</ele>
        <time>2010-07-02T10:23:08Z</time>
      </trkpt>
      <trkpt lat="42.628727" lon="0.549032">
        <ele>1266.8</ele>
        <time>2010-07-02T10:23:08Z</time>
      </trkpt>
      <trkpt lat="42.628823" lon="0.549028">
        <ele>1267.5</ele>
        <time>2010-07-02T10:23:08Z</time>
      </trkpt>
      <trkpt lat="42.628911" lon="0.549004">
        <ele>1268.0</ele>
        <time>2010-07-02T10:23:08Z</time>
      </trkpt>
      <trkpt lat="42.628992" lon="0.548976">
        <ele>1268.5</ele>
        <time>2010-07-02T10:23:08Z</time>
      </trkpt>
      <trkpt lat="42.629108" lon="0.548891">
        <ele>1268.7</ele>
        <time>2010-07-02T10:23:08Z</time>
      </trkpt>
      <trkpt lat="42.629320" lon="0.548789">
        <ele>1270.0</ele>
        <time>2010-07-02T10:23:08Z</time>
      </trkpt>
      <trkpt lat="42.629397" lon="0.548754">
        <ele>1270.6</ele>
        <time>2010-07-02T10:23:08Z</time>
      </trkpt>
      <trkpt lat="42.629501" lon="0.548724">
        <ele>1272.6</ele>
        <time>2010-07-02T10:23:08Z</time>
      </trkpt>
      <trkpt lat="42.629594" lon="0.548707">
        <ele>1274.5</ele>
        <time>2010-07-02T10:23:08Z</time>
      </trkpt>
      <trkpt lat="42.629739" lon="0.548713">
        <ele>1277.7</ele>
        <time>2010-07-02T10:23:08Z</time>
      </trkpt>
      <trkpt lat="42.629882" lon="0.548732">
        <ele>1280.4</ele>
        <time>2010-07-02T10:23:08Z</time>
      </trkpt>
      <trkpt lat="42.630016" lon="0.548794">
        <ele>1282.8</ele>
        <time>2010-07-02T10:23:08Z</time>
      </trkpt>
      <trkpt lat="42.630067" lon="0.548835">
        <ele>1283.8</ele>
        <time>2010-07-02T10:23:08Z</time>
      </trkpt>
      <trkpt lat="42.630109" lon="0.548902">
        <ele>1284.4</ele>
        <time>2010-07-02T10:23:08Z</time>
      </trkpt>
      <trkpt lat="42.630137" lon="0.548993">
        <ele>1284.5</ele>
        <time>2010-07-02T10:23:08Z</time>
      </trkpt>
      <trkpt lat="42.630161" lon="0.549079">
        <ele>1284.4</ele>
        <time>2010-07-02T10:23:08Z</time>
      </trkpt>
      <trkpt lat="42.630164" lon="0.549150">
        <ele>1284.1</ele>
        <time>2010-07-02T10:23:08Z</time>
      </trkpt>
      <trkpt lat="42.630171" lon="0.549505">
        <ele>1282.1</ele>
        <time>2010-07-02T10:23:08Z</time>
      </trkpt>
      <trkpt lat="42.630181" lon="0.549780">
        <ele>1284.9</ele>
        <time>2010-07-02T10:23:08Z</time>
      </trkpt>
      <trkpt lat="42.630195" lon="0.550073">
        <ele>1289.5</ele>
        <time>2010-07-02T10:23:08Z</time>
      </trkpt>
      <trkpt lat="42.630208" lon="0.550295">
        <ele>1292.6</ele>
        <time>2010-07-02T10:23:08Z</time>
      </trkpt>
      <trkpt lat="42.630220" lon="0.550450">
        <ele>1295.0</ele>
        <time>2010-07-02T10:23:08Z</time>
      </trkpt>
      <trkpt lat="42.630244" lon="0.550592">
        <ele>1298.0</ele>
        <time>2010-07-02T10:23:08Z</time>
      </trkpt>
      <trkpt lat="42.630279" lon="0.550732">
        <ele>1300.2</ele>
        <time>2010-07-02T10:23:08Z</time>
      </trkpt>
      <trkpt lat="42.630362" lon="0.550984">
        <ele>1302.7</ele>
        <time>2010-07-02T10:23:08Z</time>
      </trkpt>
      <trkpt lat="42.630424" lon="0.551174">
        <ele>1304.2</ele>
        <time>2010-07-02T10:23:08Z</time>
      </trkpt>
      <trkpt lat="42.630472" lon="0.551284">
        <ele>1306.5</ele>
        <time>2010-07-02T10:23:08Z</time>
      </trkpt>
      <trkpt lat="42.630567" lon="0.551475">
        <ele>1312.1</ele>
        <time>2010-07-02T10:23:08Z</time>
      </trkpt>
      <trkpt lat="42.630657" lon="0.551614">
        <ele>1313.9</ele>
        <time>2010-07-02T10:23:08Z</time>
      </trkpt>
      <trkpt lat="42.630703" lon="0.551704">
        <ele>1314.8</ele>
        <time>2010-07-02T10:23:08Z</time>
      </trkpt>
      <trkpt lat="42.630738" lon="0.551767">
        <ele>1315.0</ele>
        <time>2010-07-02T10:23:08Z</time>
      </trkpt>
      <trkpt lat="42.630767" lon="0.551867">
        <ele>1316.2</ele>
        <time>2010-07-02T10:23:08Z</time>
      </trkpt>
      <trkpt lat="42.630781" lon="0.551985">
        <ele>1318.6</ele>
        <time>2010-07-02T10:23:08Z</time>
      </trkpt>
      <trkpt lat="42.630789" lon="0.552178">
        <ele>1321.4</ele>
        <time>2010-07-02T10:23:08Z</time>
      </trkpt>
      <trkpt lat="42.630788" lon="0.552292">
        <ele>1322.2</ele>
        <time>2010-07-02T10:23:08Z</time>
      </trkpt>
      <trkpt lat="42.630775" lon="0.552488">
        <ele>1324.5</ele>
        <time>2010-07-02T10:23:08Z</time>
      </trkpt>
      <trkpt lat="42.630757" lon="0.552599">
        <ele>1326.6</ele>
        <time>2010-07-02T10:23:08Z</time>
      </trkpt>
      <trkpt lat="42.630750" lon="0.552732">
        <ele>1328.1</ele>
        <time>2010-07-02T10:23:08Z</time>
      </trkpt>
      <trkpt lat="42.630759" lon="0.552908">
        <ele>1328.7</ele>
        <time>2010-07-02T10:23:08Z</time>
      </trkpt>
      <trkpt lat="42.630788" lon="0.553099">
        <ele>1325.6</ele>
        <time>2010-07-02T10:23:08Z</time>
      </trkpt>
      <trkpt lat="42.630874" lon="0.553440">
        <ele>1318.5</ele>
        <time>2010-07-02T10:23:08Z</time>
      </trkpt>
      <trkpt lat="42.630957" lon="0.553620">
        <ele>1313.0</ele>
        <time>2010-07-02T10:23:08Z</time>
      </trkpt>
      <trkpt lat="42.631048" lon="0.553745">
        <ele>1307.6</ele>
        <time>2010-07-02T10:23:08Z</time>
      </trkpt>
      <trkpt lat="42.631161" lon="0.553878">
        <ele>1303.7</ele>
        <time>2010-07-02T10:23:08Z</time>
      </trkpt>
      <trkpt lat="42.631224" lon="0.553901">
        <ele>1300.8</ele>
        <time>2010-07-02T10:23:08Z</time>
      </trkpt>
      <trkpt lat="42.631309" lon="0.553909">
        <ele>1298.8</ele>
        <time>2010-07-02T10:23:08Z</time>
      </trkpt>
      <trkpt lat="42.631368" lon="0.553914">
        <ele>1298.1</ele>
        <time>2010-07-02T10:23:08Z</time>
      </trkpt>
      <trkpt lat="42.631403" lon="0.553912">
        <ele>1297.6</ele>
        <time>2010-07-02T10:23:08Z</time>
      </trkpt>
      <trkpt lat="42.631431" lon="0.553930">
        <ele>1297.6</ele>
        <time>2010-07-02T10:23:08Z</time>
      </trkpt>
      <trkpt lat="42.631465" lon="0.553960">
        <ele>1297.7</ele>
        <time>2010-07-02T10:23:08Z</time>
      </trkpt>
      <trkpt lat="42.631475" lon="0.554015">
        <ele>1298.7</ele>
        <time>2010-07-02T10:23:08Z</time>
      </trkpt>
      <trkpt lat="42.631478" lon="0.554134">
        <ele>1301.0</ele>
        <time>2010-07-02T10:23:08Z</time>
      </trkpt>
      <trkpt lat="42.631474" lon="0.554196">
        <ele>1302.3</ele>
        <time>2010-07-02T10:23:08Z</time>
      </trkpt>
      <trkpt lat="42.631463" lon="0.554311">
        <ele>1304.9</ele>
        <time>2010-07-02T10:23:08Z</time>
      </trkpt>
      <trkpt lat="42.631435" lon="0.554459">
        <ele>1308.4</ele>
        <time>2010-07-02T10:23:08Z</time>
      </trkpt>
      <trkpt lat="42.631434" lon="0.554721">
        <ele>1315.5</ele>
        <time>2010-07-02T10:23:08Z</time>
      </trkpt>
      <trkpt lat="42.631442" lon="0.554943">
        <ele>1322.6</ele>
        <time>2010-07-02T10:23:08Z</time>
      </trkpt>
      <trkpt lat="42.631456" lon="0.555121">
        <ele>1328.0</ele>
        <time>2010-07-02T10:23:08Z</time>
      </trkpt>
      <trkpt lat="42.631488" lon="0.555274">
        <ele>1331.9</ele>
        <time>2010-07-02T10:23:08Z</time>
      </trkpt>
      <trkpt lat="42.631566" lon="0.555504">
        <ele>1335.1</ele>
        <time>2010-07-02T10:23:08Z</time>
      </trkpt>
      <trkpt lat="42.631740" lon="0.555931">
        <ele>1335.8</ele>
        <time>2010-07-02T10:23:08Z</time>
      </trkpt>
      <trkpt lat="42.631832" lon="0.556125">
        <ele>1335.3</ele>
        <time>2010-07-02T10:23:08Z</time>
      </trkpt>
      <trkpt lat="42.632036" lon="0.556410">
        <ele>1332.9</ele>
        <time>2010-07-02T10:23:08Z</time>
      </trkpt>
      <trkpt lat="42.632287" lon="0.556735">
        <ele>1333.9</ele>
        <time>2010-07-02T10:23:08Z</time>
      </trkpt>
      <trkpt lat="42.632451" lon="0.556921">
        <ele>1333.7</ele>
        <time>2010-07-02T10:23:08Z</time>
      </trkpt>
      <trkpt lat="42.632507" lon="0.556965">
        <ele>1333.2</ele>
        <time>2010-07-02T10:23:08Z</time>
      </trkpt>
      <trkpt lat="42.632516" lon="0.557008">
        <ele>1333.9</ele>
        <time>2010-07-02T10:23:08Z</time>
      </trkpt>
      <trkpt lat="42.632514" lon="0.557079">
        <ele>1335.5</ele>
        <time>2010-07-02T10:23:08Z</time>
      </trkpt>
      <trkpt lat="42.632476" lon="0.557122">
        <ele>1337.9</ele>
        <time>2010-07-02T10:23:08Z</time>
      </trkpt>
      <trkpt lat="42.632412" lon="0.557143">
        <ele>1340.2</ele>
        <time>2010-07-02T10:23:08Z</time>
      </trkpt>
      <trkpt lat="42.632341" lon="0.557130">
        <ele>1341.8</ele>
        <time>2010-07-02T10:23:08Z</time>
      </trkpt>
      <trkpt lat="42.632311" lon="0.557101">
        <ele>1341.9</ele>
        <time>2010-07-02T10:23:08Z</time>
      </trkpt>
      <trkpt lat="42.632243" lon="0.557012">
        <ele>1341.7</ele>
        <time>2010-07-02T10:23:08Z</time>
      </trkpt>
      <trkpt lat="42.632166" lon="0.556887">
        <ele>1340.8</ele>
        <time>2010-07-02T10:23:08Z</time>
      </trkpt>
      <trkpt lat="42.632072" lon="0.556750">
        <ele>1340.0</ele>
        <time>2010-07-02T10:23:08Z</time>
      </trkpt>
      <trkpt lat="42.632030" lon="0.556697">
        <ele>1340.3</ele>
        <time>2010-07-02T10:23:08Z</time>
      </trkpt>
      <trkpt lat="42.631968" lon="0.556649">
        <ele>1341.5</ele>
        <time>2010-07-02T10:23:08Z</time>
      </trkpt>
      <trkpt lat="42.631867" lon="0.556607">
        <ele>1344.4</ele>
        <time>2010-07-02T10:23:08Z</time>
      </trkpt>
      <trkpt lat="42.631714" lon="0.556556">
        <ele>1349.1</ele>
        <time>2010-07-02T10:23:08Z</time>
      </trkpt>
      <trkpt lat="42.631572" lon="0.556467">
        <ele>1352.7</ele>
        <time>2010-07-02T10:23:08Z</time>
      </trkpt>
      <trkpt lat="42.631402" lon="0.556290">
        <ele>1355.7</ele>
        <time>2010-07-02T10:23:08Z</time>
      </trkpt>
      <trkpt lat="42.631334" lon="0.556227">
        <ele>1357.1</ele>
        <time>2010-07-02T10:23:08Z</time>
      </trkpt>
      <trkpt lat="42.631277" lon="0.556213">
        <ele>1359.2</ele>
        <time>2010-07-02T10:23:08Z</time>
      </trkpt>
      <trkpt lat="42.631226" lon="0.556226">
        <ele>1361.1</ele>
        <time>2010-07-02T10:23:08Z</time>
      </trkpt>
      <trkpt lat="42.631208" lon="0.556268">
        <ele>1362.3</ele>
        <time>2010-07-02T10:23:08Z</time>
      </trkpt>
      <trkpt lat="42.631191" lon="0.556329">
        <ele>1364.0</ele>
        <time>2010-07-02T10:23:08Z</time>
      </trkpt>
      <trkpt lat="42.631195" lon="0.556418">
        <ele>1365.7</ele>
        <time>2010-07-02T10:23:08Z</time>
      </trkpt>
      <trkpt lat="42.631224" lon="0.556525">
        <ele>1367.2</ele>
        <time>2010-07-02T10:23:08Z</time>
      </trkpt>
      <trkpt lat="42.631321" lon="0.556638">
        <ele>1366.2</ele>
        <time>2010-07-02T10:23:08Z</time>
      </trkpt>
      <trkpt lat="42.631436" lon="0.556791">
        <ele>1365.0</ele>
        <time>2010-07-02T10:23:08Z</time>
      </trkpt>
      <trkpt lat="42.631519" lon="0.556939">
        <ele>1365.2</ele>
        <time>2010-07-02T10:23:08Z</time>
      </trkpt>
      <trkpt lat="42.631595" lon="0.557083">
        <ele>1365.6</ele>
        <time>2010-07-02T10:23:08Z</time>
      </trkpt>
      <trkpt lat="42.631617" lon="0.557172">
        <ele>1366.1</ele>
        <time>2010-07-02T10:23:08Z</time>
      </trkpt>
      <trkpt lat="42.631629" lon="0.557359">
        <ele>1368.5</ele>
        <time>2010-07-02T10:23:08Z</time>
      </trkpt>
      <trkpt lat="42.631638" lon="0.557455">
        <ele>1369.7</ele>
        <time>2010-07-02T10:23:08Z</time>
      </trkpt>
      <trkpt lat="42.631669" lon="0.557606">
        <ele>1371.1</ele>
        <time>2010-07-02T10:23:08Z</time>
      </trkpt>
      <trkpt lat="42.631718" lon="0.557769">
        <ele>1372.3</ele>
        <time>2010-07-02T10:23:08Z</time>
      </trkpt>
      <trkpt lat="42.631734" lon="0.557878">
        <ele>1373.6</ele>
        <time>2010-07-02T10:23:08Z</time>
      </trkpt>
      <trkpt lat="42.631733" lon="0.557988">
        <ele>1375.0</ele>
        <time>2010-07-02T10:23:08Z</time>
      </trkpt>
      <trkpt lat="42.631726" lon="0.558064">
        <ele>1375.9</ele>
        <time>2010-07-02T10:23:08Z</time>
      </trkpt>
      <trkpt lat="42.631663" lon="0.558390">
        <ele>1380.9</ele>
        <time>2010-07-02T10:23:08Z</time>
      </trkpt>
      <trkpt lat="42.631628" lon="0.558568">
        <ele>1383.8</ele>
        <time>2010-07-02T10:23:08Z</time>
      </trkpt>
      <trkpt lat="42.631568" lon="0.558779">
        <ele>1387.6</ele>
        <time>2010-07-02T10:23:08Z</time>
      </trkpt>
      <trkpt lat="42.631500" lon="0.559006">
        <ele>1391.0</ele>
        <time>2010-07-02T10:23:08Z</time>
      </trkpt>
      <trkpt lat="42.631470" lon="0.559177">
        <ele>1392.9</ele>
        <time>2010-07-02T10:23:08Z</time>
      </trkpt>
      <trkpt lat="42.631421" lon="0.559392">
        <ele>1395.9</ele>
        <time>2010-07-02T10:23:08Z</time>
      </trkpt>
      <trkpt lat="42.631351" lon="0.559563">
        <ele>1399.3</ele>
        <time>2010-07-02T10:23:08Z</time>
      </trkpt>
      <trkpt lat="42.631345" lon="0.559661">
        <ele>1399.8</ele>
        <time>2010-07-02T10:23:08Z</time>
      </trkpt>
      <trkpt lat="42.631334" lon="0.559760">
        <ele>1400.3</ele>
        <time>2010-07-02T10:23:08Z</time>
      </trkpt>
      <trkpt lat="42.631348" lon="0.559897">
        <ele>1400.0</ele>
        <time>2010-07-02T10:23:08Z</time>
      </trkpt>
      <trkpt lat="42.631366" lon="0.560073">
        <ele>1399.8</ele>
        <time>2010-07-02T10:23:08Z</time>
      </trkpt>
      <trkpt lat="42.631388" lon="0.560160">
        <ele>1399.3</ele>
        <time>2010-07-02T10:23:08Z</time>
      </trkpt>
      <trkpt lat="42.631408" lon="0.560237">
        <ele>1399.0</ele>
        <time>2010-07-02T10:23:08Z</time>
      </trkpt>
      <trkpt lat="42.631422" lon="0.560335">
        <ele>1398.9</ele>
        <time>2010-07-02T10:23:08Z</time>
      </trkpt>
      <trkpt lat="42.631436" lon="0.560451">
        <ele>1399.2</ele>
        <time>2010-07-02T10:23:08Z</time>
      </trkpt>
      <trkpt lat="42.631462" lon="0.560531">
        <ele>1399.8</ele>
        <time>2010-07-02T10:23:08Z</time>
      </trkpt>
      <trkpt lat="42.631536" lon="0.560583">
        <ele>1398.9</ele>
        <time>2010-07-02T10:23:08Z</time>
      </trkpt>
      <trkpt lat="42.631686" lon="0.560639">
        <ele>1396.5</ele>
        <time>2010-07-02T10:23:08Z</time>
      </trkpt>
      <trkpt lat="42.632057" lon="0.560810">
        <ele>1391.6</ele>
        <time>2010-07-02T10:23:08Z</time>
      </trkpt>
      <trkpt lat="42.632118" lon="0.560828">
        <ele>1391.9</ele>
        <time>2010-07-02T10:23:08Z</time>
      </trkpt>
      <trkpt lat="42.632190" lon="0.560842">
        <ele>1393.1</ele>
        <time>2010-07-02T10:23:08Z</time>
      </trkpt>
      <trkpt lat="42.632261" lon="0.560834">
        <ele>1394.0</ele>
        <time>2010-07-02T10:23:08Z</time>
      </trkpt>
      <trkpt lat="42.632348" lon="0.560803">
        <ele>1394.7</ele>
        <time>2010-07-02T10:23:08Z</time>
      </trkpt>
      <trkpt lat="42.632430" lon="0.560761">
        <ele>1395.2</ele>
        <time>2010-07-02T10:23:08Z</time>
      </trkpt>
      <trkpt lat="42.632612" lon="0.560625">
        <ele>1396.2</ele>
        <time>2010-07-02T10:23:08Z</time>
      </trkpt>
      <trkpt lat="42.632924" lon="0.560398">
        <ele>1398.6</ele>
        <time>2010-07-02T10:23:08Z</time>
      </trkpt>
      <trkpt lat="42.633128" lon="0.560234">
        <ele>1394.9</ele>
        <time>2010-07-02T10:23:08Z</time>
      </trkpt>
      <trkpt lat="42.633318" lon="0.560057">
        <ele>1391.6</ele>
        <time>2010-07-02T10:23:08Z</time>
      </trkpt>
      <trkpt lat="42.633418" lon="0.559995">
        <ele>1390.6</ele>
        <time>2010-07-02T10:23:08Z</time>
      </trkpt>
      <trkpt lat="42.633531" lon="0.559970">
        <ele>1390.2</ele>
        <time>2010-07-02T10:23:08Z</time>
      </trkpt>
      <trkpt lat="42.633612" lon="0.559986">
        <ele>1390.4</ele>
        <time>2010-07-02T10:23:08Z</time>
      </trkpt>
      <trkpt lat="42.633659" lon="0.560014">
        <ele>1390.7</ele>
        <time>2010-07-02T10:23:08Z</time>
      </trkpt>
      <trkpt lat="42.633702" lon="0.560076">
        <ele>1391.4</ele>
        <time>2010-07-02T10:23:08Z</time>
      </trkpt>
      <trkpt lat="42.633905" lon="0.560378">
        <ele>1390.3</ele>
        <time>2010-07-02T10:23:08Z</time>
      </trkpt>
      <trkpt lat="42.633968" lon="0.560455">
        <ele>1389.3</ele>
        <time>2010-07-02T10:23:08Z</time>
      </trkpt>
      <trkpt lat="42.634090" lon="0.560547">
        <ele>1386.9</ele>
        <time>2010-07-02T10:23:08Z</time>
      </trkpt>
      <trkpt lat="42.634300" lon="0.560683">
        <ele>1383.1</ele>
        <time>2010-07-02T10:23:08Z</time>
      </trkpt>
      <trkpt lat="42.634401" lon="0.560755">
        <ele>1381.6</ele>
        <time>2010-07-02T10:23:08Z</time>
      </trkpt>
      <trkpt lat="42.634437" lon="0.560770">
        <ele>1381.0</ele>
        <time>2010-07-02T10:23:08Z</time>
      </trkpt>
      <trkpt lat="42.634554" lon="0.560767">
        <ele>1378.2</ele>
        <time>2010-07-02T10:23:08Z</time>
      </trkpt>
      <trkpt lat="42.634928" lon="0.560771">
        <ele>1372.6</ele>
        <time>2010-07-02T10:23:08Z</time>
      </trkpt>
      <trkpt lat="42.635018" lon="0.560770">
        <ele>1371.3</ele>
        <time>2010-07-02T10:23:08Z</time>
      </trkpt>
      <trkpt lat="42.635155" lon="0.560781">
        <ele>1369.6</ele>
        <time>2010-07-02T10:23:08Z</time>
      </trkpt>
      <trkpt lat="42.635245" lon="0.560779">
        <ele>1368.3</ele>
        <time>2010-07-02T10:23:08Z</time>
      </trkpt>
      <trkpt lat="42.635347" lon="0.560801">
        <ele>1367.3</ele>
        <time>2010-07-02T10:23:08Z</time>
      </trkpt>
      <trkpt lat="42.635596" lon="0.560881">
        <ele>1368.2</ele>
        <time>2010-07-02T10:23:08Z</time>
      </trkpt>
      <trkpt lat="42.635801" lon="0.560936">
        <ele>1369.6</ele>
        <time>2010-07-02T10:23:08Z</time>
      </trkpt>
      <trkpt lat="42.635988" lon="0.560997">
        <ele>1371.3</ele>
        <time>2010-07-02T10:23:08Z</time>
      </trkpt>
      <trkpt lat="42.636235" lon="0.561149">
        <ele>1375.4</ele>
        <time>2010-07-02T10:23:08Z</time>
      </trkpt>
      <trkpt lat="42.636321" lon="0.561211">
        <ele>1376.1</ele>
        <time>2010-07-02T10:23:08Z</time>
      </trkpt>
      <trkpt lat="42.636488" lon="0.561332">
        <ele>1379.2</ele>
        <time>2010-07-02T10:23:08Z</time>
      </trkpt>
      <trkpt lat="42.636607" lon="0.561415">
        <ele>1381.2</ele>
        <time>2010-07-02T10:23:08Z</time>
      </trkpt>
      <trkpt lat="42.636823" lon="0.561651">
        <ele>1386.7</ele>
        <time>2010-07-02T10:23:08Z</time>
      </trkpt>
      <trkpt lat="42.636905" lon="0.561737">
        <ele>1387.7</ele>
        <time>2010-07-02T10:23:08Z</time>
      </trkpt>
      <trkpt lat="42.636976" lon="0.561799">
        <ele>1387.7</ele>
        <time>2010-07-02T10:23:08Z</time>
      </trkpt>
      <trkpt lat="42.637162" lon="0.561922">
        <ele>1386.3</ele>
        <time>2010-07-02T10:23:08Z</time>
      </trkpt>
      <trkpt lat="42.637252" lon="0.561965">
        <ele>1385.6</ele>
        <time>2010-07-02T10:23:08Z</time>
      </trkpt>
      <trkpt lat="42.637314" lon="0.561966">
        <ele>1384.2</ele>
        <time>2010-07-02T10:23:08Z</time>
      </trkpt>
      <trkpt lat="42.637352" lon="0.561960">
        <ele>1383.2</ele>
        <time>2010-07-02T10:23:08Z</time>
      </trkpt>
      <trkpt lat="42.637402" lon="0.561934">
        <ele>1381.5</ele>
        <time>2010-07-02T10:23:08Z</time>
      </trkpt>
      <trkpt lat="42.637520" lon="0.561871">
        <ele>1377.6</ele>
        <time>2010-07-02T10:23:08Z</time>
      </trkpt>
      <trkpt lat="42.637574" lon="0.561848">
        <ele>1376.1</ele>
        <time>2010-07-02T10:23:08Z</time>
      </trkpt>
      <trkpt lat="42.637643" lon="0.561846">
        <ele>1374.7</ele>
        <time>2010-07-02T10:23:08Z</time>
      </trkpt>
      <trkpt lat="42.637712" lon="0.561880">
        <ele>1373.9</ele>
        <time>2010-07-02T10:23:08Z</time>
      </trkpt>
      <trkpt lat="42.637762" lon="0.561922">
        <ele>1373.5</ele>
        <time>2010-07-02T10:23:08Z</time>
      </trkpt>
      <trkpt lat="42.637813" lon="0.561991">
        <ele>1373.4</ele>
        <time>2010-07-02T10:23:08Z</time>
      </trkpt>
      <trkpt lat="42.637834" lon="0.562090">
        <ele>1374.3</ele>
        <time>2010-07-02T10:23:08Z</time>
      </trkpt>
      <trkpt lat="42.637840" lon="0.562218">
        <ele>1378.5</ele>
        <time>2010-07-02T10:23:08Z</time>
      </trkpt>
      <trkpt lat="42.637846" lon="0.562405">
        <ele>1384.6</ele>
        <time>2010-07-02T10:23:08Z</time>
      </trkpt>
      <trkpt lat="42.637864" lon="0.562548">
        <ele>1388.6</ele>
        <time>2010-07-02T10:23:08Z</time>
      </trkpt>
      <trkpt lat="42.637898" lon="0.562694">
        <ele>1391.4</ele>
        <time>2010-07-02T10:23:08Z</time>
      </trkpt>
      <trkpt lat="42.637947" lon="0.562794">
        <ele>1393.8</ele>
        <time>2010-07-02T10:23:08Z</time>
      </trkpt>
      <trkpt lat="42.637988" lon="0.562829">
        <ele>1393.4</ele>
        <time>2010-07-02T10:23:08Z</time>
      </trkpt>
      <trkpt lat="42.638049" lon="0.562867">
        <ele>1392.2</ele>
        <time>2010-07-02T10:23:08Z</time>
      </trkpt>
      <trkpt lat="42.638148" lon="0.562864">
        <ele>1389.6</ele>
        <time>2010-07-02T10:23:08Z</time>
      </trkpt>
      <trkpt lat="42.638226" lon="0.562854">
        <ele>1387.4</ele>
        <time>2010-07-02T10:23:08Z</time>
      </trkpt>
      <trkpt lat="42.638253" lon="0.562841">
        <ele>1386.4</ele>
        <time>2010-07-02T10:23:08Z</time>
      </trkpt>
      <trkpt lat="42.638334" lon="0.562779">
        <ele>1383.2</ele>
        <time>2010-07-02T10:23:08Z</time>
      </trkpt>
      <trkpt lat="42.638458" lon="0.562658">
        <ele>1378.2</ele>
        <time>2010-07-02T10:23:08Z</time>
      </trkpt>
      <trkpt lat="42.638538" lon="0.562612">
        <ele>1375.8</ele>
        <time>2010-07-02T10:23:08Z</time>
      </trkpt>
      <trkpt lat="42.638591" lon="0.562608">
        <ele>1374.7</ele>
        <time>2010-07-02T10:23:08Z</time>
      </trkpt>
      <trkpt lat="42.638718" lon="0.562667">
        <ele>1373.0</ele>
        <time>2010-07-02T10:23:08Z</time>
      </trkpt>
      <trkpt lat="42.638761" lon="0.562696">
        <ele>1372.8</ele>
        <time>2010-07-02T10:23:08Z</time>
      </trkpt>
      <trkpt lat="42.638892" lon="0.562956">
        <ele>1377.5</ele>
        <time>2010-07-02T10:23:08Z</time>
      </trkpt>
      <trkpt lat="42.638967" lon="0.563066">
        <ele>1379.5</ele>
        <time>2010-07-02T10:23:08Z</time>
      </trkpt>
      <trkpt lat="42.639062" lon="0.563245">
        <ele>1382.2</ele>
        <time>2010-07-02T10:23:08Z</time>
      </trkpt>
      <trkpt lat="42.639100" lon="0.563341">
        <ele>1383.4</ele>
        <time>2010-07-02T10:23:08Z</time>
      </trkpt>
      <trkpt lat="42.639112" lon="0.563408">
        <ele>1384.0</ele>
        <time>2010-07-02T10:23:08Z</time>
      </trkpt>
      <trkpt lat="42.639118" lon="0.563458">
        <ele>1384.4</ele>
        <time>2010-07-02T10:23:08Z</time>
      </trkpt>
      <trkpt lat="42.639094" lon="0.563536">
        <ele>1384.6</ele>
        <time>2010-07-02T10:23:08Z</time>
      </trkpt>
      <trkpt lat="42.639059" lon="0.563713">
        <ele>1385.5</ele>
        <time>2010-07-02T10:23:08Z</time>
      </trkpt>
      <trkpt lat="42.639040" lon="0.563790">
        <ele>1386.0</ele>
        <time>2010-07-02T10:23:08Z</time>
      </trkpt>
      <trkpt lat="42.639032" lon="0.563941">
        <ele>1388.1</ele>
        <time>2010-07-02T10:23:08Z</time>
      </trkpt>
      <trkpt lat="42.638969" lon="0.564228">
        <ele>1391.7</ele>
        <time>2010-07-02T10:23:08Z</time>
      </trkpt>
      <trkpt lat="42.638877" lon="0.564502">
        <ele>1395.7</ele>
        <time>2010-07-02T10:23:08Z</time>
      </trkpt>
      <trkpt lat="42.638684" lon="0.564820">
        <ele>1401.9</ele>
        <time>2010-07-02T10:23:08Z</time>
      </trkpt>
      <trkpt lat="42.638539" lon="0.565168">
        <ele>1409.7</ele>
        <time>2010-07-02T10:23:08Z</time>
      </trkpt>
      <trkpt lat="42.638489" lon="0.565282">
        <ele>1412.5</ele>
        <time>2010-07-02T10:23:08Z</time>
      </trkpt>
      <trkpt lat="42.638403" lon="0.565386">
        <ele>1415.4</ele>
        <time>2010-07-02T10:23:08Z</time>
      </trkpt>
      <trkpt lat="42.638315" lon="0.565487">
        <ele>1418.5</ele>
        <time>2010-07-02T10:23:08Z</time>
      </trkpt>
      <trkpt lat="42.638261" lon="0.565593">
        <ele>1422.1</ele>
        <time>2010-07-02T10:23:08Z</time>
      </trkpt>
      <trkpt lat="42.638258" lon="0.565799">
        <ele>1428.3</ele>
        <time>2010-07-02T10:23:08Z</time>
      </trkpt>
      <trkpt lat="42.638278" lon="0.566115">
        <ele>1437.0</ele>
        <time>2010-07-02T10:23:08Z</time>
      </trkpt>
      <trkpt lat="42.638352" lon="0.566505">
        <ele>1443.5</ele>
        <time>2010-07-02T10:23:08Z</time>
      </trkpt>
      <trkpt lat="42.638480" lon="0.566853">
        <ele>1445.9</ele>
        <time>2010-07-02T10:23:08Z</time>
      </trkpt>
      <trkpt lat="42.638660" lon="0.567189">
        <ele>1446.8</ele>
        <time>2010-07-02T10:23:08Z</time>
      </trkpt>
      <trkpt lat="42.638828" lon="0.567460">
        <ele>1449.2</ele>
        <time>2010-07-02T10:23:08Z</time>
      </trkpt>
      <trkpt lat="42.638961" lon="0.567602">
        <ele>1447.7</ele>
        <time>2010-07-02T10:23:08Z</time>
      </trkpt>
      <trkpt lat="42.639080" lon="0.567796">
        <ele>1448.4</ele>
        <time>2010-07-02T10:23:08Z</time>
      </trkpt>
      <trkpt lat="42.639250" lon="0.568160">
        <ele>1450.9</ele>
        <time>2010-07-02T10:23:08Z</time>
      </trkpt>
      <trkpt lat="42.639616" lon="0.568730">
        <ele>1452.6</ele>
        <time>2010-07-02T10:23:08Z</time>
      </trkpt>
      <trkpt lat="42.639788" lon="0.568954">
        <ele>1455.4</ele>
        <time>2010-07-02T10:23:08Z</time>
      </trkpt>
      <trkpt lat="42.640099" lon="0.569324">
        <ele>1459.0</ele>
        <time>2010-07-02T10:23:08Z</time>
      </trkpt>
      <trkpt lat="42.639781" lon="0.569351">
        <ele>1466.9</ele>
        <time>2010-07-02T10:23:08Z</time>
      </trkpt>
      <trkpt lat="42.639611" lon="0.569397">
        <ele>1472.0</ele>
        <time>2010-07-02T10:23:08Z</time>
      </trkpt>
      <trkpt lat="42.639480" lon="0.569456">
        <ele>1478.5</ele>
        <time>2010-07-02T10:23:08Z</time>
      </trkpt>
      <trkpt lat="42.639393" lon="0.569496">
        <ele>1483.1</ele>
        <time>2010-07-02T10:23:08Z</time>
      </trkpt>
      <trkpt lat="42.639283" lon="0.569500">
        <ele>1487.6</ele>
        <time>2010-07-02T10:23:08Z</time>
      </trkpt>
      <trkpt lat="42.639182" lon="0.569475">
        <ele>1491.0</ele>
        <time>2010-07-02T10:23:08Z</time>
      </trkpt>
      <trkpt lat="42.639070" lon="0.569468">
        <ele>1495.3</ele>
        <time>2010-07-02T10:23:08Z</time>
      </trkpt>
      <trkpt lat="42.638878" lon="0.569436">
        <ele>1502.1</ele>
        <time>2010-07-02T10:23:08Z</time>
      </trkpt>
      <trkpt lat="42.638635" lon="0.569424">
        <ele>1509.0</ele>
        <time>2010-07-02T10:23:08Z</time>
      </trkpt>
      <trkpt lat="42.638425" lon="0.569429">
        <ele>1512.7</ele>
        <time>2010-07-02T10:23:08Z</time>
      </trkpt>
      <trkpt lat="42.638207" lon="0.569549">
        <ele>1519.3</ele>
        <time>2010-07-02T10:23:08Z</time>
      </trkpt>
      <trkpt lat="42.638041" lon="0.569653">
        <ele>1525.1</ele>
        <time>2010-07-02T10:23:08Z</time>
      </trkpt>
      <trkpt lat="42.637584" lon="0.569926">
        <ele>1541.7</ele>
        <time>2010-07-02T10:23:08Z</time>
      </trkpt>
      <trkpt lat="42.637353" lon="0.570076">
        <ele>1551.8</ele>
        <time>2010-07-02T10:23:08Z</time>
      </trkpt>
      <trkpt lat="42.637230" lon="0.570138">
        <ele>1556.9</ele>
        <time>2010-07-02T10:23:08Z</time>
      </trkpt>
      <trkpt lat="42.637100" lon="0.570172">
        <ele>1561.1</ele>
        <time>2010-07-02T10:23:08Z</time>
      </trkpt>
      <trkpt lat="42.636869" lon="0.570188">
        <ele>1561.8</ele>
        <time>2010-07-02T10:23:08Z</time>
      </trkpt>
      <trkpt lat="42.636699" lon="0.570209">
        <ele>1562.5</ele>
        <time>2010-07-02T10:23:08Z</time>
      </trkpt>
      <trkpt lat="42.636595" lon="0.570192">
        <ele>1561.5</ele>
        <time>2010-07-02T10:23:08Z</time>
      </trkpt>
      <trkpt lat="42.636515" lon="0.570191">
        <ele>1561.3</ele>
        <time>2010-07-02T10:23:08Z</time>
      </trkpt>
      <trkpt lat="42.636413" lon="0.570159">
        <ele>1559.6</ele>
        <time>2010-07-02T10:23:08Z</time>
      </trkpt>
      <trkpt lat="42.636303" lon="0.570120">
        <ele>1557.5</ele>
        <time>2010-07-02T10:23:08Z</time>
      </trkpt>
      <trkpt lat="42.636198" lon="0.570078">
        <ele>1553.6</ele>
        <time>2010-07-02T10:23:08Z</time>
      </trkpt>
      <trkpt lat="42.636089" lon="0.570082">
        <ele>1550.2</ele>
        <time>2010-07-02T10:23:08Z</time>
      </trkpt>
      <trkpt lat="42.635963" lon="0.570134">
        <ele>1549.1</ele>
        <time>2010-07-02T10:23:08Z</time>
      </trkpt>
      <trkpt lat="42.635874" lon="0.570209">
        <ele>1550.9</ele>
        <time>2010-07-02T10:23:08Z</time>
      </trkpt>
      <trkpt lat="42.635661" lon="0.570455">
        <ele>1560.5</ele>
        <time>2010-07-02T10:23:08Z</time>
      </trkpt>
      <trkpt lat="42.635596" lon="0.570519">
        <ele>1562.4</ele>
        <time>2010-07-02T10:23:08Z</time>
      </trkpt>
      <trkpt lat="42.635436" lon="0.570648">
        <ele>1565.6</ele>
        <time>2010-07-02T10:23:08Z</time>
      </trkpt>
      <trkpt lat="42.635357" lon="0.570687">
        <ele>1565.3</ele>
        <time>2010-07-02T10:23:08Z</time>
      </trkpt>
      <trkpt lat="42.635275" lon="0.570708">
        <ele>1563.8</ele>
        <time>2010-07-02T10:23:08Z</time>
      </trkpt>
      <trkpt lat="42.635188" lon="0.570729">
        <ele>1562.2</ele>
        <time>2010-07-02T10:23:08Z</time>
      </trkpt>
      <trkpt lat="42.635140" lon="0.570735">
        <ele>1561.0</ele>
        <time>2010-07-02T10:23:08Z</time>
      </trkpt>
      <trkpt lat="42.635098" lon="0.570747">
        <ele>1560.4</ele>
        <time>2010-07-02T10:23:08Z</time>
      </trkpt>
      <trkpt lat="42.635040" lon="0.570768">
        <ele>1559.7</ele>
        <time>2010-07-02T10:23:08Z</time>
      </trkpt>
      <trkpt lat="42.634977" lon="0.570810">
        <ele>1560.4</ele>
        <time>2010-07-02T10:23:08Z</time>
      </trkpt>
      <trkpt lat="42.634914" lon="0.570859">
        <ele>1561.5</ele>
        <time>2010-07-02T10:23:08Z</time>
      </trkpt>
      <trkpt lat="42.634851" lon="0.570916">
        <ele>1563.3</ele>
        <time>2010-07-02T10:23:08Z</time>
      </trkpt>
      <trkpt lat="42.634778" lon="0.570958">
        <ele>1564.0</ele>
        <time>2010-07-02T10:23:08Z</time>
      </trkpt>
      <trkpt lat="42.634656" lon="0.570977">
        <ele>1562.0</ele>
        <time>2010-07-02T10:23:08Z</time>
      </trkpt>
      <trkpt lat="42.634621" lon="0.570971">
        <ele>1560.6</ele>
        <time>2010-07-02T10:23:08Z</time>
      </trkpt>
      <trkpt lat="42.634559" lon="0.570941">
        <ele>1555.6</ele>
        <time>2010-07-02T10:23:08Z</time>
      </trkpt>
      <trkpt lat="42.634516" lon="0.570914">
        <ele>1550.4</ele>
        <time>2010-07-02T10:23:08Z</time>
      </trkpt>
      <trkpt lat="42.634491" lon="0.570894">
        <ele>1547.2</ele>
        <time>2010-07-02T10:23:08Z</time>
      </trkpt>
      <trkpt lat="42.634447" lon="0.570798">
        <ele>1537.8</ele>
        <time>2010-07-02T10:23:08Z</time>
      </trkpt>
      <trkpt lat="42.634396" lon="0.570670">
        <ele>1526.6</ele>
        <time>2010-07-02T10:23:08Z</time>
      </trkpt>
      <trkpt lat="42.634379" lon="0.570606">
        <ele>1521.6</ele>
        <time>2010-07-02T10:23:08Z</time>
      </trkpt>
      <trkpt lat="42.634357" lon="0.570564">
        <ele>1517.8</ele>
        <time>2010-07-02T10:23:08Z</time>
      </trkpt>
      <trkpt lat="42.634325" lon="0.570554">
        <ele>1515.4</ele>
        <time>2010-07-02T10:23:08Z</time>
      </trkpt>
      <trkpt lat="42.634280" lon="0.570563">
        <ele>1513.2</ele>
        <time>2010-07-02T10:23:08Z</time>
      </trkpt>
      <trkpt lat="42.634225" lon="0.570626">
        <ele>1513.2</ele>
        <time>2010-07-02T10:23:08Z</time>
      </trkpt>
      <trkpt lat="42.634095" lon="0.570772">
        <ele>1511.6</ele>
        <time>2010-07-02T10:23:08Z</time>
      </trkpt>
      <trkpt lat="42.633958" lon="0.570979">
        <ele>1509.7</ele>
        <time>2010-07-02T10:23:08Z</time>
      </trkpt>
      <trkpt lat="42.633909" lon="0.571169">
        <ele>1512.3</ele>
        <time>2010-07-02T10:23:08Z</time>
      </trkpt>
      <trkpt lat="42.633899" lon="0.571320">
        <ele>1518.8</ele>
        <time>2010-07-02T10:23:08Z</time>
      </trkpt>
      <trkpt lat="42.633854" lon="0.571470">
        <ele>1524.7</ele>
        <time>2010-07-02T10:23:08Z</time>
      </trkpt>
      <trkpt lat="42.633816" lon="0.571561">
        <ele>1527.6</ele>
        <time>2010-07-02T10:23:08Z</time>
      </trkpt>
      <trkpt lat="42.633823" lon="0.571640">
        <ele>1533.6</ele>
        <time>2010-07-02T10:23:08Z</time>
      </trkpt>
      <trkpt lat="42.633849" lon="0.571693">
        <ele>1539.2</ele>
        <time>2010-07-02T10:23:08Z</time>
      </trkpt>
      <trkpt lat="42.633903" lon="0.571861">
        <ele>1554.5</ele>
        <time>2010-07-02T10:23:08Z</time>
      </trkpt>
      <trkpt lat="42.633909" lon="0.571918">
        <ele>1558.7</ele>
        <time>2010-07-02T10:23:08Z</time>
      </trkpt>
      <trkpt lat="42.633914" lon="0.572019">
        <ele>1565.6</ele>
        <time>2010-07-02T10:23:08Z</time>
      </trkpt>
      <trkpt lat="42.633913" lon="0.572105">
        <ele>1570.4</ele>
        <time>2010-07-02T10:23:08Z</time>
      </trkpt>
      <trkpt lat="42.633902" lon="0.572228">
        <ele>1573.5</ele>
        <time>2010-07-02T10:23:08Z</time>
      </trkpt>
      <trkpt lat="42.633894" lon="0.572315">
        <ele>1575.5</ele>
        <time>2010-07-02T10:23:08Z</time>
      </trkpt>
      <trkpt lat="42.633917" lon="0.572401">
        <ele>1579.5</ele>
        <time>2010-07-02T10:23:08Z</time>
      </trkpt>
      <trkpt lat="42.634000" lon="0.572462">
        <ele>1586.5</ele>
        <time>2010-07-02T10:23:08Z</time>
      </trkpt>
      <trkpt lat="42.634060" lon="0.572525">
        <ele>1591.8</ele>
        <time>2010-07-02T10:23:08Z</time>
      </trkpt>
      <trkpt lat="42.634096" lon="0.572585">
        <ele>1595.6</ele>
        <time>2010-07-02T10:23:08Z</time>
      </trkpt>
      <trkpt lat="42.634108" lon="0.572638">
        <ele>1597.8</ele>
        <time>2010-07-02T10:23:08Z</time>
      </trkpt>
      <trkpt lat="42.634100" lon="0.572754">
        <ele>1600.4</ele>
        <time>2010-07-02T10:23:08Z</time>
      </trkpt>
      <trkpt lat="42.634063" lon="0.572889">
        <ele>1602.1</ele>
        <time>2010-07-02T10:23:08Z</time>
      </trkpt>
      <trkpt lat="42.633974" lon="0.573116">
        <ele>1606.0</ele>
        <time>2010-07-02T10:23:08Z</time>
      </trkpt>
      <trkpt lat="42.633891" lon="0.573306">
        <ele>1609.5</ele>
        <time>2010-07-02T10:23:08Z</time>
      </trkpt>
      <trkpt lat="42.633828" lon="0.573370">
        <ele>1609.2</ele>
        <time>2010-07-02T10:23:08Z</time>
      </trkpt>
      <trkpt lat="42.633786" lon="0.573393">
        <ele>1608.2</ele>
        <time>2010-07-02T10:23:08Z</time>
      </trkpt>
      <trkpt lat="42.633381" lon="0.573467">
        <ele>1605.4</ele>
        <time>2010-07-02T10:23:08Z</time>
      </trkpt>
      <trkpt lat="42.633264" lon="0.573478">
        <ele>1604.8</ele>
        <time>2010-07-02T10:23:08Z</time>
      </trkpt>
      <trkpt lat="42.633206" lon="0.573491">
        <ele>1605.1</ele>
        <time>2010-07-02T10:23:08Z</time>
      </trkpt>
      <trkpt lat="42.633163" lon="0.573489">
        <ele>1604.5</ele>
        <time>2010-07-02T10:23:08Z</time>
      </trkpt>
      <trkpt lat="42.633100" lon="0.573434">
        <ele>1599.5</ele>
        <time>2010-07-02T10:23:08Z</time>
      </trkpt>
      <trkpt lat="42.633021" lon="0.573311">
        <ele>1588.2</ele>
        <time>2010-07-02T10:23:08Z</time>
      </trkpt>
      <trkpt lat="42.632960" lon="0.573223">
        <ele>1579.4</ele>
        <time>2010-07-02T10:23:08Z</time>
      </trkpt>
      <trkpt lat="42.632877" lon="0.573165">
        <ele>1573.0</ele>
        <time>2010-07-02T10:23:08Z</time>
      </trkpt>
      <trkpt lat="42.632781" lon="0.573169">
        <ele>1573.2</ele>
        <time>2010-07-02T10:23:08Z</time>
      </trkpt>
      <trkpt lat="42.632686" lon="0.573205">
        <ele>1576.3</ele>
        <time>2010-07-02T10:23:08Z</time>
      </trkpt>
      <trkpt lat="42.632570" lon="0.573394">
        <ele>1593.6</ele>
        <time>2010-07-02T10:23:08Z</time>
      </trkpt>
      <trkpt lat="42.632503" lon="0.573497">
        <ele>1603.3</ele>
        <time>2010-07-02T10:23:08Z</time>
      </trkpt>
      <trkpt lat="42.632424" lon="0.573551">
        <ele>1608.5</ele>
        <time>2010-07-02T10:23:08Z</time>
      </trkpt>
      <trkpt lat="42.632047" lon="0.573569">
        <ele>1609.5</ele>
        <time>2010-07-02T10:23:08Z</time>
      </trkpt>
      <trkpt lat="42.631810" lon="0.573578">
        <ele>1598.8</ele>
        <time>2010-07-02T10:23:08Z</time>
      </trkpt>
      <trkpt lat="42.631710" lon="0.573596">
        <ele>1595.3</ele>
        <time>2010-07-02T10:23:08Z</time>
      </trkpt>
      <trkpt lat="42.631604" lon="0.573658">
        <ele>1594.4</ele>
        <time>2010-07-02T10:23:08Z</time>
      </trkpt>
      <trkpt lat="42.631534" lon="0.573722">
        <ele>1594.9</ele>
        <time>2010-07-02T10:23:08Z</time>
      </trkpt>
      <trkpt lat="42.631500" lon="0.573745">
        <ele>1594.4</ele>
        <time>2010-07-02T10:23:08Z</time>
      </trkpt>
      <trkpt lat="42.631463" lon="0.573765">
        <ele>1593.1</ele>
        <time>2010-07-02T10:23:08Z</time>
      </trkpt>
      <trkpt lat="42.631413" lon="0.573785">
        <ele>1591.0</ele>
        <time>2010-07-02T10:23:08Z</time>
      </trkpt>
      <trkpt lat="42.631384" lon="0.573786">
        <ele>1589.4</ele>
        <time>2010-07-02T10:23:08Z</time>
      </trkpt>
      <trkpt lat="42.631343" lon="0.573773">
        <ele>1586.5</ele>
        <time>2010-07-02T10:23:08Z</time>
      </trkpt>
      <trkpt lat="42.631292" lon="0.573739">
        <ele>1581.9</ele>
        <time>2010-07-02T10:23:08Z</time>
      </trkpt>
      <trkpt lat="42.631232" lon="0.573683">
        <ele>1576.4</ele>
        <time>2010-07-02T10:23:08Z</time>
      </trkpt>
      <trkpt lat="42.631151" lon="0.573625">
        <ele>1572.2</ele>
        <time>2010-07-02T10:23:08Z</time>
      </trkpt>
      <trkpt lat="42.631050" lon="0.573604">
        <ele>1569.8</ele>
        <time>2010-07-02T10:23:08Z</time>
      </trkpt>
      <trkpt lat="42.630938" lon="0.573619">
        <ele>1568.6</ele>
        <time>2010-07-02T10:23:08Z</time>
      </trkpt>
      <trkpt lat="42.630874" lon="0.573733">
        <ele>1570.5</ele>
        <time>2010-07-02T10:23:08Z</time>
      </trkpt>
      <trkpt lat="42.630869" lon="0.573881">
        <ele>1575.3</ele>
        <time>2010-07-02T10:23:08Z</time>
      </trkpt>
      <trkpt lat="42.630898" lon="0.574086">
        <ele>1583.2</ele>
        <time>2010-07-02T10:23:08Z</time>
      </trkpt>
      <trkpt lat="42.630972" lon="0.574349">
        <ele>1595.2</ele>
        <time>2010-07-02T10:23:08Z</time>
      </trkpt>
      <trkpt lat="42.631089" lon="0.574803">
        <ele>1613.6</ele>
        <time>2010-07-02T10:23:08Z</time>
      </trkpt>
      <trkpt lat="42.631192" lon="0.575166">
        <ele>1625.6</ele>
        <time>2010-07-02T10:23:08Z</time>
      </trkpt>
      <trkpt lat="42.631224" lon="0.575413">
        <ele>1631.9</ele>
        <time>2010-07-02T10:23:08Z</time>
      </trkpt>
      <trkpt lat="42.631223" lon="0.575489">
        <ele>1634.2</ele>
        <time>2010-07-02T10:23:08Z</time>
      </trkpt>
      <trkpt lat="42.631190" lon="0.575566">
        <ele>1635.4</ele>
        <time>2010-07-02T10:23:08Z</time>
      </trkpt>
      <trkpt lat="42.631091" lon="0.575660">
        <ele>1635.3</ele>
        <time>2010-07-02T10:23:08Z</time>
      </trkpt>
      <trkpt lat="42.631079" lon="0.575733">
        <ele>1637.5</ele>
        <time>2010-07-02T10:23:08Z</time>
      </trkpt>
      <trkpt lat="42.631088" lon="0.575913">
        <ele>1644.0</ele>
        <time>2010-07-02T10:23:08Z</time>
      </trkpt>
      <trkpt lat="42.631082" lon="0.576104">
        <ele>1650.5</ele>
        <time>2010-07-02T10:23:08Z</time>
      </trkpt>
      <trkpt lat="42.631072" lon="0.576162">
        <ele>1652.3</ele>
        <time>2010-07-02T10:23:08Z</time>
      </trkpt>
      <trkpt lat="42.631000" lon="0.576298">
        <ele>1656.6</ele>
        <time>2010-07-02T10:23:08Z</time>
      </trkpt>
      <trkpt lat="42.630871" lon="0.576490">
        <ele>1663.6</ele>
        <time>2010-07-02T10:23:08Z</time>
      </trkpt>
      <trkpt lat="42.630733" lon="0.576629">
        <ele>1668.1</ele>
        <time>2010-07-02T10:23:08Z</time>
      </trkpt>
      <trkpt lat="42.630644" lon="0.576676">
        <ele>1669.1</ele>
        <time>2010-07-02T10:23:08Z</time>
      </trkpt>
      <trkpt lat="42.630556" lon="0.576686">
        <ele>1668.3</ele>
        <time>2010-07-02T10:23:08Z</time>
      </trkpt>
      <trkpt lat="42.630500" lon="0.576663">
        <ele>1666.5</ele>
        <time>2010-07-02T10:23:08Z</time>
      </trkpt>
      <trkpt lat="42.630410" lon="0.576580">
        <ele>1661.3</ele>
        <time>2010-07-02T10:23:08Z</time>
      </trkpt>
      <trkpt lat="42.630367" lon="0.576550">
        <ele>1658.7</ele>
        <time>2010-07-02T10:23:08Z</time>
      </trkpt>
      <trkpt lat="42.630314" lon="0.576555">
        <ele>1657.5</ele>
        <time>2010-07-02T10:23:08Z</time>
      </trkpt>
      <trkpt lat="42.630235" lon="0.576598">
        <ele>1657.3</ele>
        <time>2010-07-02T10:23:08Z</time>
      </trkpt>
      <trkpt lat="42.630153" lon="0.576605">
        <ele>1655.4</ele>
        <time>2010-07-02T10:23:08Z</time>
      </trkpt>
      <trkpt lat="42.629869" lon="0.576626">
        <ele>1648.6</ele>
        <time>2010-07-02T10:23:08Z</time>
      </trkpt>
      <trkpt lat="42.629701" lon="0.576619">
        <ele>1643.7</ele>
        <time>2010-07-02T10:23:08Z</time>
      </trkpt>
      <trkpt lat="42.629579" lon="0.576652">
        <ele>1641.7</ele>
        <time>2010-07-02T10:23:08Z</time>
      </trkpt>
      <trkpt lat="42.629514" lon="0.576723">
        <ele>1641.7</ele>
        <time>2010-07-02T10:23:08Z</time>
      </trkpt>
      <trkpt lat="42.629458" lon="0.576729">
        <ele>1639.4</ele>
        <time>2010-07-02T10:23:08Z</time>
      </trkpt>
      <trkpt lat="42.629397" lon="0.576735">
        <ele>1636.9</ele>
        <time>2010-07-02T10:23:08Z</time>
      </trkpt>
      <trkpt lat="42.629327" lon="0.576792">
        <ele>1635.6</ele>
        <time>2010-07-02T10:23:08Z</time>
      </trkpt>
      <trkpt lat="42.629262" lon="0.576888">
        <ele>1635.8</ele>
        <time>2010-07-02T10:23:08Z</time>
      </trkpt>
      <trkpt lat="42.629229" lon="0.576986">
        <ele>1637.3</ele>
        <time>2010-07-02T10:23:08Z</time>
      </trkpt>
      <trkpt lat="42.629218" lon="0.577080">
        <ele>1639.8</ele>
        <time>2010-07-02T10:23:08Z</time>
      </trkpt>
      <trkpt lat="42.629220" lon="0.577142">
        <ele>1641.4</ele>
        <time>2010-07-02T10:23:08Z</time>
      </trkpt>
      <trkpt lat="42.629254" lon="0.577288">
        <ele>1646.9</ele>
        <time>2010-07-02T10:23:08Z</time>
      </trkpt>
      <trkpt lat="42.629299" lon="0.577394">
        <ele>1651.9</ele>
        <time>2010-07-02T10:23:08Z</time>
      </trkpt>
      <trkpt lat="42.629340" lon="0.577454">
        <ele>1655.6</ele>
        <time>2010-07-02T10:23:08Z</time>
      </trkpt>
      <trkpt lat="42.629353" lon="0.577518">
        <ele>1657.8</ele>
        <time>2010-07-02T10:23:08Z</time>
      </trkpt>
      <trkpt lat="42.629354" lon="0.577576">
        <ele>1659.2</ele>
        <time>2010-07-02T10:23:08Z</time>
      </trkpt>
      <trkpt lat="42.629366" lon="0.577630">
        <ele>1661.1</ele>
        <time>2010-07-02T10:23:08Z</time>
      </trkpt>
      <trkpt lat="42.629383" lon="0.577698">
        <ele>1663.7</ele>
        <time>2010-07-02T10:23:08Z</time>
      </trkpt>
      <trkpt lat="42.629422" lon="0.577804">
        <ele>1668.2</ele>
        <time>2010-07-02T10:23:08Z</time>
      </trkpt>
      <trkpt lat="42.629472" lon="0.577885">
        <ele>1672.7</ele>
        <time>2010-07-02T10:23:08Z</time>
      </trkpt>
      <trkpt lat="42.629513" lon="0.577941">
        <ele>1676.0</ele>
        <time>2010-07-02T10:23:08Z</time>
      </trkpt>
      <trkpt lat="42.629546" lon="0.578250">
        <ele>1683.5</ele>
        <time>2010-07-02T10:23:08Z</time>
      </trkpt>
      <trkpt lat="42.629536" lon="0.578412">
        <ele>1686.2</ele>
        <time>2010-07-02T10:23:08Z</time>
      </trkpt>
      <trkpt lat="42.629513" lon="0.578586">
        <ele>1688.9</ele>
        <time>2010-07-02T10:23:08Z</time>
      </trkpt>
      <trkpt lat="42.629453" lon="0.578859">
        <ele>1694.0</ele>
        <time>2010-07-02T10:23:08Z</time>
      </trkpt>
      <trkpt lat="42.629396" lon="0.578947">
        <ele>1695.6</ele>
        <time>2010-07-02T10:23:08Z</time>
      </trkpt>
      <trkpt lat="42.629333" lon="0.578972">
        <ele>1694.9</ele>
        <time>2010-07-02T10:23:08Z</time>
      </trkpt>
      <trkpt lat="42.629264" lon="0.578974">
        <ele>1693.4</ele>
        <time>2010-07-02T10:23:08Z</time>
      </trkpt>
      <trkpt lat="42.629146" lon="0.578936">
        <ele>1689.3</ele>
        <time>2010-07-02T10:23:08Z</time>
      </trkpt>
      <trkpt lat="42.629061" lon="0.578935">
        <ele>1687.3</ele>
        <time>2010-07-02T10:23:08Z</time>
      </trkpt>
      <trkpt lat="42.628960" lon="0.578950">
        <ele>1685.5</ele>
        <time>2010-07-02T10:23:08Z</time>
      </trkpt>
      <trkpt lat="42.628907" lon="0.578995">
        <ele>1686.1</ele>
        <time>2010-07-02T10:23:08Z</time>
      </trkpt>
      <trkpt lat="42.628839" lon="0.579034">
        <ele>1686.2</ele>
        <time>2010-07-02T10:23:08Z</time>
      </trkpt>
      <trkpt lat="42.628786" lon="0.579029">
        <ele>1684.8</ele>
        <time>2010-07-02T10:23:08Z</time>
      </trkpt>
      <trkpt lat="42.628748" lon="0.579019">
        <ele>1683.6</ele>
        <time>2010-07-02T10:23:08Z</time>
      </trkpt>
      <trkpt lat="42.628678" lon="0.578968">
        <ele>1677.9</ele>
        <time>2010-07-02T10:23:08Z</time>
      </trkpt>
      <trkpt lat="42.628618" lon="0.578891">
        <ele>1671.5</ele>
        <time>2010-07-02T10:23:08Z</time>
      </trkpt>
      <trkpt lat="42.628556" lon="0.578836">
        <ele>1665.9</ele>
        <time>2010-07-02T10:23:08Z</time>
      </trkpt>
      <trkpt lat="42.628531" lon="0.578826">
        <ele>1664.2</ele>
        <time>2010-07-02T10:23:08Z</time>
      </trkpt>
      <trkpt lat="42.628460" lon="0.578840">
        <ele>1661.2</ele>
        <time>2010-07-02T10:23:08Z</time>
      </trkpt>
      <trkpt lat="42.628244" lon="0.579061">
        <ele>1661.1</ele>
        <time>2010-07-02T10:23:08Z</time>
      </trkpt>
      <trkpt lat="42.628046" lon="0.579263">
        <ele>1662.0</ele>
        <time>2010-07-02T10:23:08Z</time>
      </trkpt>
      <trkpt lat="42.627992" lon="0.579355">
        <ele>1664.3</ele>
        <time>2010-07-02T10:23:08Z</time>
      </trkpt>
      <trkpt lat="42.627951" lon="0.579454">
        <ele>1667.7</ele>
        <time>2010-07-02T10:23:08Z</time>
      </trkpt>
      <trkpt lat="42.627924" lon="0.579552">
        <ele>1671.7</ele>
        <time>2010-07-02T10:23:08Z</time>
      </trkpt>
      <trkpt lat="42.627878" lon="0.579886">
        <ele>1684.1</ele>
        <time>2010-07-02T10:23:08Z</time>
      </trkpt>
      <trkpt lat="42.627841" lon="0.580013">
        <ele>1688.2</ele>
        <time>2010-07-02T10:23:08Z</time>
      </trkpt>
      <trkpt lat="42.627790" lon="0.580120">
        <ele>1691.1</ele>
        <time>2010-07-02T10:23:08Z</time>
      </trkpt>
      <trkpt lat="42.627663" lon="0.580297">
        <ele>1695.0</ele>
        <time>2010-07-02T10:23:08Z</time>
      </trkpt>
      <trkpt lat="42.627456" lon="0.580446">
        <ele>1695.3</ele>
        <time>2010-07-02T10:23:08Z</time>
      </trkpt>
      <trkpt lat="42.627300" lon="0.580517">
        <ele>1693.5</ele>
        <time>2010-07-02T10:23:08Z</time>
      </trkpt>
      <trkpt lat="42.627217" lon="0.580574">
        <ele>1693.0</ele>
        <time>2010-07-02T10:23:08Z</time>
      </trkpt>
      <trkpt lat="42.627072" lon="0.580681">
        <ele>1691.8</ele>
        <time>2010-07-02T10:23:08Z</time>
      </trkpt>
      <trkpt lat="42.626945" lon="0.580833">
        <ele>1690.2</ele>
        <time>2010-07-02T10:23:08Z</time>
      </trkpt>
      <trkpt lat="42.626796" lon="0.581052">
        <ele>1688.7</ele>
        <time>2010-07-02T10:23:08Z</time>
      </trkpt>
      <trkpt lat="42.626667" lon="0.581276">
        <ele>1687.6</ele>
        <time>2010-07-02T10:23:08Z</time>
      </trkpt>
      <trkpt lat="42.626542" lon="0.581498">
        <ele>1685.4</ele>
        <time>2010-07-02T10:23:08Z</time>
      </trkpt>
      <trkpt lat="42.626478" lon="0.581641">
        <ele>1684.7</ele>
        <time>2010-07-02T10:23:08Z</time>
      </trkpt>
      <trkpt lat="42.626436" lon="0.581801">
        <ele>1685.4</ele>
        <time>2010-07-02T10:23:08Z</time>
      </trkpt>
      <trkpt lat="42.626397" lon="0.582073">
        <ele>1688.1</ele>
        <time>2010-07-02T10:23:08Z</time>
      </trkpt>
      <trkpt lat="42.626367" lon="0.582319">
        <ele>1691.5</ele>
        <time>2010-07-02T10:23:08Z</time>
      </trkpt>
      <trkpt lat="42.626312" lon="0.582605">
        <ele>1694.3</ele>
        <time>2010-07-02T10:23:08Z</time>
      </trkpt>
      <trkpt lat="42.626263" lon="0.582820">
        <ele>1695.8</ele>
        <time>2010-07-02T10:23:08Z</time>
      </trkpt>
      <trkpt lat="42.626228" lon="0.582911">
        <ele>1696.1</ele>
        <time>2010-07-02T10:23:08Z</time>
      </trkpt>
      <trkpt lat="42.626159" lon="0.583044">
        <ele>1696.7</ele>
        <time>2010-07-02T10:23:08Z</time>
      </trkpt>
      <trkpt lat="42.626053" lon="0.583199">
        <ele>1695.9</ele>
        <time>2010-07-02T10:23:08Z</time>
      </trkpt>
      <trkpt lat="42.626007" lon="0.583291">
        <ele>1696.0</ele>
        <time>2010-07-02T10:23:08Z</time>
      </trkpt>
      <trkpt lat="42.625985" lon="0.583357">
        <ele>1696.4</ele>
        <time>2010-07-02T10:23:08Z</time>
      </trkpt>
      <trkpt lat="42.625944" lon="0.583567">
        <ele>1698.9</ele>
        <time>2010-07-02T10:23:08Z</time>
      </trkpt>
      <trkpt lat="42.625956" lon="0.583744">
        <ele>1703.0</ele>
        <time>2010-07-02T10:23:08Z</time>
      </trkpt>
      <trkpt lat="42.625987" lon="0.583854">
        <ele>1707.1</ele>
        <time>2010-07-02T10:23:08Z</time>
      </trkpt>
      <trkpt lat="42.626043" lon="0.584097">
        <ele>1715.4</ele>
        <time>2010-07-02T10:23:08Z</time>
      </trkpt>
      <trkpt lat="42.626045" lon="0.584169">
        <ele>1717.1</ele>
        <time>2010-07-02T10:23:08Z</time>
      </trkpt>
      <trkpt lat="42.626035" lon="0.584216">
        <ele>1717.6</ele>
        <time>2010-07-02T10:23:08Z</time>
      </trkpt>
      <trkpt lat="42.626020" lon="0.584253">
        <ele>1717.7</ele>
        <time>2010-07-02T10:23:08Z</time>
      </trkpt>
      <trkpt lat="42.625978" lon="0.584301">
        <ele>1716.7</ele>
        <time>2010-07-02T10:23:08Z</time>
      </trkpt>
      <trkpt lat="42.625862" lon="0.584363">
        <ele>1712.1</ele>
        <time>2010-07-02T10:23:08Z</time>
      </trkpt>
      <trkpt lat="42.625781" lon="0.584410">
        <ele>1709.0</ele>
        <time>2010-07-02T10:23:08Z</time>
      </trkpt>
      <trkpt lat="42.625666" lon="0.584519">
        <ele>1705.5</ele>
        <time>2010-07-02T10:23:08Z</time>
      </trkpt>
      <trkpt lat="42.625563" lon="0.584699">
        <ele>1706.3</ele>
        <time>2010-07-02T10:23:08Z</time>
      </trkpt>
      <trkpt lat="42.625439" lon="0.584985">
        <ele>1712.0</ele>
        <time>2010-07-02T10:23:08Z</time>
      </trkpt>
      <trkpt lat="42.625358" lon="0.585161">
        <ele>1716.1</ele>
        <time>2010-07-02T10:23:08Z</time>
      </trkpt>
      <trkpt lat="42.625259" lon="0.585273">
        <ele>1716.3</ele>
        <time>2010-07-02T10:23:08Z</time>
      </trkpt>
      <trkpt lat="42.625088" lon="0.585384">
        <ele>1712.3</ele>
        <time>2010-07-02T10:23:08Z</time>
      </trkpt>
      <trkpt lat="42.625010" lon="0.585466">
        <ele>1711.2</ele>
        <time>2010-07-02T10:23:08Z</time>
      </trkpt>
      <trkpt lat="42.624908" lon="0.585672">
        <ele>1713.4</ele>
        <time>2010-07-02T10:23:08Z</time>
      </trkpt>
      <trkpt lat="42.624763" lon="0.585995">
        <ele>1717.0</ele>
        <time>2010-07-02T10:23:08Z</time>
      </trkpt>
      <trkpt lat="42.624628" lon="0.586288">
        <ele>1719.9</ele>
        <time>2010-07-02T10:23:08Z</time>
      </trkpt>
      <trkpt lat="42.624521" lon="0.586516">
        <ele>1724.3</ele>
        <time>2010-07-02T10:23:08Z</time>
      </trkpt>
      <trkpt lat="42.624439" lon="0.586656">
        <ele>1726.3</ele>
        <time>2010-07-02T10:23:08Z</time>
      </trkpt>
      <trkpt lat="42.624348" lon="0.586749">
        <ele>1725.8</ele>
        <time>2010-07-02T10:23:08Z</time>
      </trkpt>
      <trkpt lat="42.624235" lon="0.586830">
        <ele>1723.4</ele>
        <time>2010-07-02T10:23:08Z</time>
      </trkpt>
      <trkpt lat="42.624163" lon="0.586919">
        <ele>1722.7</ele>
        <time>2010-07-02T10:23:08Z</time>
      </trkpt>
      <trkpt lat="42.624050" lon="0.587121">
        <ele>1723.0</ele>
        <time>2010-07-02T10:23:08Z</time>
      </trkpt>
      <trkpt lat="42.624007" lon="0.587238">
        <ele>1725.7</ele>
        <time>2010-07-02T10:23:08Z</time>
      </trkpt>
      <trkpt lat="42.623912" lon="0.587404">
        <ele>1727.7</ele>
        <time>2010-07-02T10:23:08Z</time>
      </trkpt>
      <trkpt lat="42.623861" lon="0.587511">
        <ele>1729.6</ele>
        <time>2010-07-02T10:23:08Z</time>
      </trkpt>
      <trkpt lat="42.623820" lon="0.587570">
        <ele>1730.0</ele>
        <time>2010-07-02T10:23:08Z</time>
      </trkpt>
      <trkpt lat="42.623611" lon="0.587783">
        <ele>1730.7</ele>
        <time>2010-07-02T10:23:08Z</time>
      </trkpt>
      <trkpt lat="42.623464" lon="0.587976">
        <ele>1732.0</ele>
        <time>2010-07-02T10:23:08Z</time>
      </trkpt>
      <trkpt lat="42.623338" lon="0.588187">
        <ele>1734.4</ele>
        <time>2010-07-02T10:23:08Z</time>
      </trkpt>
      <trkpt lat="42.623245" lon="0.588349">
        <ele>1735.9</ele>
        <time>2010-07-02T10:23:08Z</time>
      </trkpt>
      <trkpt lat="42.623165" lon="0.588561">
        <ele>1739.2</ele>
        <time>2010-07-02T10:23:08Z</time>
      </trkpt>
      <trkpt lat="42.623045" lon="0.588940">
        <ele>1745.1</ele>
        <time>2010-07-02T10:23:08Z</time>
      </trkpt>
      <trkpt lat="42.623019" lon="0.589089">
        <ele>1748.6</ele>
        <time>2010-07-02T10:23:08Z</time>
      </trkpt>
      <trkpt lat="42.622982" lon="0.589357">
        <ele>1755.5</ele>
        <time>2010-07-02T10:23:08Z</time>
      </trkpt>
      <trkpt lat="42.622943" lon="0.589546">
        <ele>1760.0</ele>
        <time>2010-07-02T10:23:08Z</time>
      </trkpt>
      <trkpt lat="42.622918" lon="0.589608">
        <ele>1760.8</ele>
        <time>2010-07-02T10:23:08Z</time>
      </trkpt>
      <trkpt lat="42.622862" lon="0.589700">
        <ele>1761.1</ele>
        <time>2010-07-02T10:23:08Z</time>
      </trkpt>
      <trkpt lat="42.622767" lon="0.589743">
        <ele>1758.6</ele>
        <time>2010-07-02T10:23:08Z</time>
      </trkpt>
      <trkpt lat="42.622650" lon="0.589759">
        <ele>1754.5</ele>
        <time>2010-07-02T10:23:08Z</time>
      </trkpt>
      <trkpt lat="42.622599" lon="0.589725">
        <ele>1751.6</ele>
        <time>2010-07-02T10:23:08Z</time>
      </trkpt>
      <trkpt lat="42.622518" lon="0.589670">
        <ele>1747.0</ele>
        <time>2010-07-02T10:23:08Z</time>
      </trkpt>
      <trkpt lat="42.622423" lon="0.589602">
        <ele>1741.5</ele>
        <time>2010-07-02T10:23:08Z</time>
      </trkpt>
      <trkpt lat="42.622333" lon="0.589598">
        <ele>1738.0</ele>
        <time>2010-07-02T10:23:08Z</time>
      </trkpt>
      <trkpt lat="42.622269" lon="0.589640">
        <ele>1736.6</ele>
        <time>2010-07-02T10:23:08Z</time>
      </trkpt>
      <trkpt lat="42.622245" lon="0.589753">
        <ele>1738.6</ele>
        <time>2010-07-02T10:23:08Z</time>
      </trkpt>
      <trkpt lat="42.622274" lon="0.590217">
        <ele>1751.6</ele>
        <time>2010-07-02T10:23:08Z</time>
      </trkpt>
      <trkpt lat="42.622272" lon="0.590642">
        <ele>1761.5</ele>
        <time>2010-07-02T10:23:08Z</time>
      </trkpt>
      <trkpt lat="42.622234" lon="0.591007">
        <ele>1767.7</ele>
        <time>2010-07-02T10:23:08Z</time>
      </trkpt>
      <trkpt lat="42.622113" lon="0.591455">
        <ele>1770.9</ele>
        <time>2010-07-02T10:23:08Z</time>
      </trkpt>
      <trkpt lat="42.621946" lon="0.591959">
        <ele>1773.3</ele>
        <time>2010-07-02T10:23:08Z</time>
      </trkpt>
      <trkpt lat="42.621844" lon="0.592164">
        <ele>1774.4</ele>
        <time>2010-07-02T10:23:08Z</time>
      </trkpt>
      <trkpt lat="42.621725" lon="0.592356">
        <ele>1776.0</ele>
        <time>2010-07-02T10:23:08Z</time>
      </trkpt>
      <trkpt lat="42.621570" lon="0.592568">
        <ele>1776.9</ele>
        <time>2010-07-02T10:23:08Z</time>
      </trkpt>
      <trkpt lat="42.621471" lon="0.592658">
        <ele>1776.2</ele>
        <time>2010-07-02T10:23:08Z</time>
      </trkpt>
      <trkpt lat="42.621349" lon="0.592702">
        <ele>1773.3</ele>
        <time>2010-07-02T10:23:08Z</time>
      </trkpt>
      <trkpt lat="42.621305" lon="0.592754">
        <ele>1773.2</ele>
        <time>2010-07-02T10:23:08Z</time>
      </trkpt>
      <trkpt lat="42.621251" lon="0.592850">
        <ele>1774.1</ele>
        <time>2010-07-02T10:23:08Z</time>
      </trkpt>
      <trkpt lat="42.621235" lon="0.592970">
        <ele>1777.0</ele>
        <time>2010-07-02T10:23:08Z</time>
      </trkpt>
      <trkpt lat="42.621238" lon="0.593117">
        <ele>1780.7</ele>
        <time>2010-07-02T10:23:08Z</time>
      </trkpt>
      <trkpt lat="42.621210" lon="0.593284">
        <ele>1784.1</ele>
        <time>2010-07-02T10:23:08Z</time>
      </trkpt>
      <trkpt lat="42.621138" lon="0.593420">
        <ele>1785.2</ele>
        <time>2010-07-02T10:23:08Z</time>
      </trkpt>
      <trkpt lat="42.620987" lon="0.593574">
        <ele>1783.7</ele>
        <time>2010-07-02T10:23:08Z</time>
      </trkpt>
      <trkpt lat="42.620856" lon="0.593680">
        <ele>1781.4</ele>
        <time>2010-07-02T10:23:08Z</time>
      </trkpt>
      <trkpt lat="42.620766" lon="0.593791">
        <ele>1780.5</ele>
        <time>2010-07-02T10:23:08Z</time>
      </trkpt>
      <trkpt lat="42.620629" lon="0.594006">
        <ele>1779.7</ele>
        <time>2010-07-02T10:23:08Z</time>
      </trkpt>
      <trkpt lat="42.620519" lon="0.594229">
        <ele>1779.5</ele>
        <time>2010-07-02T10:23:08Z</time>
      </trkpt>
      <trkpt lat="42.620464" lon="0.594361">
        <ele>1779.4</ele>
        <time>2010-07-02T10:23:08Z</time>
      </trkpt>
      <trkpt lat="42.620437" lon="0.594485">
        <ele>1780.3</ele>
        <time>2010-07-02T10:23:08Z</time>
      </trkpt>
      <trkpt lat="42.620418" lon="0.594579">
        <ele>1781.0</ele>
        <time>2010-07-02T10:23:08Z</time>
      </trkpt>
      <trkpt lat="42.620417" lon="0.594680">
        <ele>1783.2</ele>
        <time>2010-07-02T10:23:08Z</time>
      </trkpt>
      <trkpt lat="42.620468" lon="0.594822">
        <ele>1788.8</ele>
        <time>2010-07-02T10:23:08Z</time>
      </trkpt>
      <trkpt lat="42.620480" lon="0.595034">
        <ele>1794.2</ele>
        <time>2010-07-02T10:23:08Z</time>
      </trkpt>
      <trkpt lat="42.620480" lon="0.595161">
        <ele>1797.0</ele>
        <time>2010-07-02T10:23:08Z</time>
      </trkpt>
      <trkpt lat="42.620440" lon="0.595368">
        <ele>1799.9</ele>
        <time>2010-07-02T10:23:08Z</time>
      </trkpt>
      <trkpt lat="42.620323" lon="0.595631">
        <ele>1800.5</ele>
        <time>2010-07-02T10:23:08Z</time>
      </trkpt>
      <trkpt lat="42.620249" lon="0.595786">
        <ele>1800.9</ele>
        <time>2010-07-02T10:23:08Z</time>
      </trkpt>
      <trkpt lat="42.620161" lon="0.596063">
        <ele>1802.3</ele>
        <time>2010-07-02T10:23:08Z</time>
      </trkpt>
      <trkpt lat="42.620087" lon="0.596426">
        <ele>1806.2</ele>
        <time>2010-07-02T10:23:08Z</time>
      </trkpt>
      <trkpt lat="42.619895" lon="0.597435">
        <ele>1819.2</ele>
        <time>2010-07-02T10:23:08Z</time>
      </trkpt>
      <trkpt lat="42.619793" lon="0.598015">
        <ele>1822.8</ele>
        <time>2010-07-02T10:23:08Z</time>
      </trkpt>
      <trkpt lat="42.619702" lon="0.598509">
        <ele>1824.6</ele>
        <time>2010-07-02T10:23:08Z</time>
      </trkpt>
      <trkpt lat="42.619656" lon="0.598734">
        <ele>1824.7</ele>
        <time>2010-07-02T10:23:08Z</time>
      </trkpt>
      <trkpt lat="42.619624" lon="0.598843">
        <ele>1824.9</ele>
        <time>2010-07-02T10:23:08Z</time>
      </trkpt>
      <trkpt lat="42.619586" lon="0.598946">
        <ele>1824.9</ele>
        <time>2010-07-02T10:23:08Z</time>
      </trkpt>
      <trkpt lat="42.619521" lon="0.599035">
        <ele>1826.8</ele>
        <time>2010-07-02T10:23:08Z</time>
      </trkpt>
      <trkpt lat="42.619446" lon="0.599117">
        <ele>1828.6</ele>
        <time>2010-07-02T10:23:08Z</time>
      </trkpt>
      <trkpt lat="42.619262" lon="0.599232">
        <ele>1831.2</ele>
        <time>2010-07-02T10:23:08Z</time>
      </trkpt>
      <trkpt lat="42.619038" lon="0.599359">
        <ele>1833.2</ele>
        <time>2010-07-02T10:23:08Z</time>
      </trkpt>
      <trkpt lat="42.618968" lon="0.599423">
        <ele>1833.7</ele>
        <time>2010-07-02T10:23:08Z</time>
      </trkpt>
      <trkpt lat="42.618861" lon="0.599521">
        <ele>1834.0</ele>
        <time>2010-07-02T10:23:08Z</time>
      </trkpt>
      <trkpt lat="42.618747" lon="0.599655">
        <ele>1834.7</ele>
        <time>2010-07-02T10:23:08Z</time>
      </trkpt>
      <trkpt lat="42.618693" lon="0.599762">
        <ele>1836.9</ele>
        <time>2010-07-02T10:23:08Z</time>
      </trkpt>
      <trkpt lat="42.618671" lon="0.599882">
        <ele>1838.2</ele>
        <time>2010-07-02T10:23:08Z</time>
      </trkpt>
      <trkpt lat="42.618654" lon="0.600034">
        <ele>1839.6</ele>
        <time>2010-07-02T10:23:08Z</time>
      </trkpt>
      <trkpt lat="42.618674" lon="0.600379">
        <ele>1841.6</ele>
        <time>2010-07-02T10:23:08Z</time>
      </trkpt>
      <trkpt lat="42.618671" lon="0.600505">
        <ele>1842.7</ele>
        <time>2010-07-02T10:23:08Z</time>
      </trkpt>
      <trkpt lat="42.618658" lon="0.600617">
        <ele>1843.8</ele>
        <time>2010-07-02T10:23:08Z</time>
      </trkpt>
      <trkpt lat="42.618633" lon="0.600712">
        <ele>1844.8</ele>
        <time>2010-07-02T10:23:08Z</time>
      </trkpt>
      <trkpt lat="42.618582" lon="0.600822">
        <ele>1845.8</ele>
        <time>2010-07-02T10:23:08Z</time>
      </trkpt>
      <trkpt lat="42.618518" lon="0.600929">
        <ele>1846.6</ele>
        <time>2010-07-02T10:23:08Z</time>
      </trkpt>
      <trkpt lat="42.618403" lon="0.601052">
        <ele>1847.2</ele>
        <time>2010-07-02T10:23:08Z</time>
      </trkpt>
      <trkpt lat="42.618262" lon="0.601173">
        <ele>1847.0</ele>
        <time>2010-07-02T10:23:08Z</time>
      </trkpt>
      <trkpt lat="42.618160" lon="0.601267">
        <ele>1846.5</ele>
        <time>2010-07-02T10:23:08Z</time>
      </trkpt>
      <trkpt lat="42.618064" lon="0.601386">
        <ele>1846.2</ele>
        <time>2010-07-02T10:23:08Z</time>
      </trkpt>
      <trkpt lat="42.617995" lon="0.601518">
        <ele>1845.7</ele>
        <time>2010-07-02T10:23:08Z</time>
      </trkpt>
      <trkpt lat="42.617911" lon="0.601791">
        <ele>1844.4</ele>
        <time>2010-07-02T10:23:08Z</time>
      </trkpt>
      <trkpt lat="42.617858" lon="0.602060">
        <ele>1844.6</ele>
        <time>2010-07-02T10:23:08Z</time>
      </trkpt>
      <trkpt lat="42.617819" lon="0.602256">
        <ele>1847.9</ele>
        <time>2010-07-02T10:23:08Z</time>
      </trkpt>
      <trkpt lat="42.617775" lon="0.602427">
        <ele>1850.8</ele>
        <time>2010-07-02T10:23:08Z</time>
      </trkpt>
      <trkpt lat="42.617716" lon="0.602534">
        <ele>1852.5</ele>
        <time>2010-07-02T10:23:08Z</time>
      </trkpt>
      <trkpt lat="42.617614" lon="0.602632">
        <ele>1853.6</ele>
        <time>2010-07-02T10:23:08Z</time>
      </trkpt>
      <trkpt lat="42.617462" lon="0.602735">
        <ele>1854.0</ele>
        <time>2010-07-02T10:23:08Z</time>
      </trkpt>
      <trkpt lat="42.617296" lon="0.602806">
        <ele>1853.5</ele>
        <time>2010-07-02T10:23:08Z</time>
      </trkpt>
      <trkpt lat="42.617170" lon="0.602890">
        <ele>1852.8</ele>
        <time>2010-07-02T10:23:08Z</time>
      </trkpt>
      <trkpt lat="42.617086" lon="0.602965">
        <ele>1853.0</ele>
        <time>2010-07-02T10:23:08Z</time>
      </trkpt>
      <trkpt lat="42.616963" lon="0.603154">
        <ele>1858.5</ele>
        <time>2010-07-02T10:23:08Z</time>
      </trkpt>
      <trkpt lat="42.616843" lon="0.603418">
        <ele>1863.0</ele>
        <time>2010-07-02T10:23:08Z</time>
      </trkpt>
      <trkpt lat="42.616723" lon="0.603664">
        <ele>1865.0</ele>
        <time>2010-07-02T10:23:08Z</time>
      </trkpt>
      <trkpt lat="42.616613" lon="0.603848">
        <ele>1866.2</ele>
        <time>2010-07-02T10:23:08Z</time>
      </trkpt>
      <trkpt lat="42.616532" lon="0.603952">
        <ele>1867.2</ele>
        <time>2010-07-02T10:23:08Z</time>
      </trkpt>
      <trkpt lat="42.616412" lon="0.604040">
        <ele>1867.5</ele>
        <time>2010-07-02T10:23:08Z</time>
      </trkpt>
      <trkpt lat="42.616279" lon="0.604048">
        <ele>1866.5</ele>
        <time>2010-07-02T10:23:08Z</time>
      </trkpt>
      <trkpt lat="42.616066" lon="0.604053">
        <ele>1868.7</ele>
        <time>2010-07-02T10:23:08Z</time>
      </trkpt>
      <trkpt lat="42.615971" lon="0.604074">
        <ele>1870.0</ele>
        <time>2010-07-02T10:23:08Z</time>
      </trkpt>
      <trkpt lat="42.615844" lon="0.604133">
        <ele>1871.6</ele>
        <time>2010-07-02T10:23:08Z</time>
      </trkpt>
      <trkpt lat="42.615741" lon="0.604188">
        <ele>1872.5</ele>
        <time>2010-07-02T10:23:08Z</time>
      </trkpt>
      <trkpt lat="42.615656" lon="0.604303">
        <ele>1872.6</ele>
        <time>2010-07-02T10:23:08Z</time>
      </trkpt>
      <trkpt lat="42.615597" lon="0.604409">
        <ele>1872.1</ele>
        <time>2010-07-02T10:23:08Z</time>
      </trkpt>
      <trkpt lat="42.615555" lon="0.604555">
        <ele>1870.9</ele>
        <time>2010-07-02T10:23:08Z</time>
      </trkpt>
      <trkpt lat="42.615542" lon="0.604685">
        <ele>1871.6</ele>
        <time>2010-07-02T10:23:08Z</time>
      </trkpt>
      <trkpt lat="42.615548" lon="0.604851">
        <ele>1873.3</ele>
        <time>2010-07-02T10:23:08Z</time>
      </trkpt>
      <trkpt lat="42.615591" lon="0.605022">
        <ele>1875.0</ele>
        <time>2010-07-02T10:23:08Z</time>
      </trkpt>
      <trkpt lat="42.615617" lon="0.605234">
        <ele>1877.0</ele>
        <time>2010-07-02T10:23:08Z</time>
      </trkpt>
      <trkpt lat="42.615618" lon="0.605388">
        <ele>1878.5</ele>
        <time>2010-07-02T10:23:08Z</time>
      </trkpt>
      <trkpt lat="42.615614" lon="0.605490">
        <ele>1879.6</ele>
        <time>2010-07-02T10:23:08Z</time>
      </trkpt>
      <trkpt lat="42.615588" lon="0.605638">
        <ele>1881.3</ele>
        <time>2010-07-02T10:23:08Z</time>
      </trkpt>
      <trkpt lat="42.615538" lon="0.605770">
        <ele>1882.7</ele>
        <time>2010-07-02T10:23:08Z</time>
      </trkpt>
      <trkpt lat="42.615479" lon="0.605887">
        <ele>1883.7</ele>
        <time>2010-07-02T10:23:08Z</time>
      </trkpt>
      <trkpt lat="42.615389" lon="0.606017">
        <ele>1884.9</ele>
        <time>2010-07-02T10:23:08Z</time>
      </trkpt>
      <trkpt lat="42.615250" lon="0.606127">
        <ele>1886.1</ele>
        <time>2010-07-02T10:23:08Z</time>
      </trkpt>
      <trkpt lat="42.615028" lon="0.606305">
        <ele>1887.3</ele>
        <time>2010-07-02T10:23:08Z</time>
      </trkpt>
      <trkpt lat="42.614687" lon="0.606545">
        <ele>1890.0</ele>
        <time>2010-07-02T10:23:08Z</time>
      </trkpt>
      <trkpt lat="42.614595" lon="0.606620">
        <ele>1890.9</ele>
        <time>2010-07-02T10:23:08Z</time>
      </trkpt>
      <trkpt lat="42.614475" lon="0.606719">
        <ele>1895.2</ele>
        <time>2010-07-02T10:23:08Z</time>
      </trkpt>
      <trkpt lat="42.614430" lon="0.606767">
        <ele>1896.7</ele>
        <time>2010-07-02T10:23:08Z</time>
      </trkpt>
      <trkpt lat="42.614347" lon="0.606871">
        <ele>1898.8</ele>
        <time>2010-07-02T10:23:08Z</time>
      </trkpt>
      <trkpt lat="42.614255" lon="0.607026">
        <ele>1900.0</ele>
        <time>2010-07-02T10:23:08Z</time>
      </trkpt>
      <trkpt lat="42.614164" lon="0.607274">
        <ele>1901.1</ele>
        <time>2010-07-02T10:23:08Z</time>
      </trkpt>
      <trkpt lat="42.614067" lon="0.607570">
        <ele>1900.9</ele>
        <time>2010-07-02T10:23:08Z</time>
      </trkpt>
      <trkpt lat="42.613988" lon="0.607753">
        <ele>1899.4</ele>
        <time>2010-07-02T10:23:08Z</time>
      </trkpt>
      <trkpt lat="42.613894" lon="0.607944">
        <ele>1896.8</ele>
        <time>2010-07-02T10:23:08Z</time>
      </trkpt>
      <trkpt lat="42.613692" lon="0.608218">
        <ele>1898.2</ele>
        <time>2010-07-02T10:23:08Z</time>
      </trkpt>
      <trkpt lat="42.613492" lon="0.608489">
        <ele>1905.1</ele>
        <time>2010-07-02T10:23:08Z</time>
      </trkpt>
      <trkpt lat="42.613400" lon="0.608658">
        <ele>1906.5</ele>
        <time>2010-07-02T10:23:08Z</time>
      </trkpt>
      <trkpt lat="42.613365" lon="0.608894">
        <ele>1907.3</ele>
        <time>2010-07-02T10:23:08Z</time>
      </trkpt>
      <trkpt lat="42.613339" lon="0.609169">
        <ele>1908.5</ele>
        <time>2010-07-02T10:23:08Z</time>
      </trkpt>
      <trkpt lat="42.613287" lon="0.609336">
        <ele>1908.8</ele>
        <time>2010-07-02T10:23:08Z</time>
      </trkpt>
      <trkpt lat="42.613184" lon="0.609661">
        <ele>1908.1</ele>
        <time>2010-07-02T10:23:08Z</time>
      </trkpt>
      <trkpt lat="42.613122" lon="0.609868">
        <ele>1907.7</ele>
        <time>2010-07-02T10:23:08Z</time>
      </trkpt>
      <trkpt lat="42.613080" lon="0.610144">
        <ele>1907.7</ele>
        <time>2010-07-02T10:23:08Z</time>
      </trkpt>
      <trkpt lat="42.613060" lon="0.610321">
        <ele>1907.7</ele>
        <time>2010-07-02T10:23:08Z</time>
      </trkpt>
      <trkpt lat="42.613050" lon="0.610606">
        <ele>1908.7</ele>
        <time>2010-07-02T10:23:08Z</time>
      </trkpt>
      <trkpt lat="42.613048" lon="0.610902">
        <ele>1910.3</ele>
        <time>2010-07-02T10:23:08Z</time>
      </trkpt>
      <trkpt lat="42.613000" lon="0.611177">
        <ele>1910.6</ele>
        <time>2010-07-02T10:23:08Z</time>
      </trkpt>
      <trkpt lat="42.612934" lon="0.611551">
        <ele>1912.7</ele>
        <time>2010-07-02T10:23:08Z</time>
      </trkpt>
      <trkpt lat="42.612877" lon="0.611762">
        <ele>1914.5</ele>
        <time>2010-07-02T10:23:08Z</time>
      </trkpt>
      <trkpt lat="42.612794" lon="0.611985">
        <ele>1916.3</ele>
        <time>2010-07-02T10:23:08Z</time>
      </trkpt>
      <trkpt lat="42.612628" lon="0.612438">
        <ele>1919.9</ele>
        <time>2010-07-02T10:23:08Z</time>
      </trkpt>
      <trkpt lat="42.612458" lon="0.612834">
        <ele>1922.1</ele>
        <time>2010-07-02T10:23:08Z</time>
      </trkpt>
      <trkpt lat="42.612301" lon="0.613221">
        <ele>1922.7</ele>
        <time>2010-07-02T10:23:08Z</time>
      </trkpt>
      <trkpt lat="42.612202" lon="0.613445">
        <ele>1922.7</ele>
        <time>2010-07-02T10:23:08Z</time>
      </trkpt>
      <trkpt lat="42.612157" lon="0.613602">
        <ele>1923.1</ele>
        <time>2010-07-02T10:23:08Z</time>
      </trkpt>
      <trkpt lat="42.612142" lon="0.613797">
        <ele>1924.3</ele>
        <time>2010-07-02T10:23:08Z</time>
      </trkpt>
      <trkpt lat="42.612128" lon="0.614003">
        <ele>1926.6</ele>
        <time>2010-07-02T10:23:08Z</time>
      </trkpt>
      <trkpt lat="42.612129" lon="0.614406">
        <ele>1931.4</ele>
        <time>2010-07-02T10:23:08Z</time>
      </trkpt>
      <trkpt lat="42.612141" lon="0.614769">
        <ele>1935.2</ele>
        <time>2010-07-02T10:23:08Z</time>
      </trkpt>
      <trkpt lat="42.612146" lon="0.615111">
        <ele>1938.1</ele>
        <time>2010-07-02T10:23:08Z</time>
      </trkpt>
      <trkpt lat="42.612146" lon="0.615382">
        <ele>1940.4</ele>
        <time>2010-07-02T10:23:08Z</time>
      </trkpt>
      <trkpt lat="42.612145" lon="0.615573">
        <ele>1941.3</ele>
        <time>2010-07-02T10:23:08Z</time>
      </trkpt>
      <trkpt lat="42.612131" lon="0.615692">
        <ele>1941.6</ele>
        <time>2010-07-02T10:23:08Z</time>
      </trkpt>
      <trkpt lat="42.612110" lon="0.615808">
        <ele>1941.7</ele>
        <time>2010-07-02T10:23:08Z</time>
      </trkpt>
      <trkpt lat="42.612083" lon="0.615924">
        <ele>1941.8</ele>
        <time>2010-07-02T10:23:08Z</time>
      </trkpt>
      <trkpt lat="42.612023" lon="0.616107">
        <ele>1943.8</ele>
        <time>2010-07-02T10:23:08Z</time>
      </trkpt>
      <trkpt lat="42.611949" lon="0.616283">
        <ele>1946.0</ele>
        <time>2010-07-02T10:23:08Z</time>
      </trkpt>
      <trkpt lat="42.611786" lon="0.616635">
        <ele>1949.8</ele>
        <time>2010-07-02T10:23:08Z</time>
      </trkpt>
      <trkpt lat="42.611392" lon="0.617507">
        <ele>1953.0</ele>
        <time>2010-07-02T10:23:08Z</time>
      </trkpt>
      <trkpt lat="42.611324" lon="0.617704">
        <ele>1952.3</ele>
        <time>2010-07-02T10:23:08Z</time>
      </trkpt>
      <trkpt lat="42.611301" lon="0.617838">
        <ele>1951.6</ele>
        <time>2010-07-02T10:23:08Z</time>
      </trkpt>
      <trkpt lat="42.611294" lon="0.618159">
        <ele>1951.6</ele>
        <time>2010-07-02T10:23:08Z</time>
      </trkpt>
      <trkpt lat="42.611329" lon="0.618561">
        <ele>1952.6</ele>
        <time>2010-07-02T10:23:08Z</time>
      </trkpt>
      <trkpt lat="42.611351" lon="0.618842">
        <ele>1953.3</ele>
        <time>2010-07-02T10:23:08Z</time>
      </trkpt>
      <trkpt lat="42.611341" lon="0.619015">
        <ele>1953.4</ele>
        <time>2010-07-02T10:23:08Z</time>
      </trkpt>
      <trkpt lat="42.611295" lon="0.619128">
        <ele>1953.0</ele>
        <time>2010-07-02T10:23:08Z</time>
      </trkpt>
      <trkpt lat="42.611179" lon="0.619417">
        <ele>1953.7</ele>
        <time>2010-07-02T10:23:08Z</time>
      </trkpt>
      <trkpt lat="42.611045" lon="0.619732">
        <ele>1955.6</ele>
        <time>2010-07-02T10:23:08Z</time>
      </trkpt>
      <trkpt lat="42.610842" lon="0.620208">
        <ele>1957.5</ele>
        <time>2010-07-02T10:23:08Z</time>
      </trkpt>
      <trkpt lat="42.610694" lon="0.620538">
        <ele>1957.7</ele>
        <time>2010-07-02T10:23:08Z</time>
      </trkpt>
      <trkpt lat="42.610481" lon="0.621025">
        <ele>1957.4</ele>
        <time>2010-07-02T10:23:08Z</time>
      </trkpt>
      <trkpt lat="42.610357" lon="0.621358">
        <ele>1958.5</ele>
        <time>2010-07-02T10:23:08Z</time>
      </trkpt>
      <trkpt lat="42.610284" lon="0.621778">
        <ele>1959.4</ele>
        <time>2010-07-02T10:23:08Z</time>
      </trkpt>
      <trkpt lat="42.610183" lon="0.622197">
        <ele>1960.4</ele>
        <time>2010-07-02T10:23:08Z</time>
      </trkpt>
      <trkpt lat="42.610158" lon="0.622518">
        <ele>1961.6</ele>
        <time>2010-07-02T10:23:08Z</time>
      </trkpt>
      <trkpt lat="42.610147" lon="0.622749">
        <ele>1962.2</ele>
        <time>2010-07-02T10:23:08Z</time>
      </trkpt>
      <trkpt lat="42.610160" lon="0.623019">
        <ele>1963.3</ele>
        <time>2010-07-02T10:23:08Z</time>
      </trkpt>
      <trkpt lat="42.610174" lon="0.623411">
        <ele>1965.7</ele>
        <time>2010-07-02T10:23:08Z</time>
      </trkpt>
      <trkpt lat="42.610196" lon="0.623713">
        <ele>1967.6</ele>
        <time>2010-07-02T10:23:08Z</time>
      </trkpt>
      <trkpt lat="42.610229" lon="0.624173">
        <ele>1970.0</ele>
        <time>2010-07-02T10:23:08Z</time>
      </trkpt>
      <trkpt lat="42.610267" lon="0.624715">
        <ele>1973.3</ele>
        <time>2010-07-02T10:23:08Z</time>
      </trkpt>
      <trkpt lat="42.610276" lon="0.625017">
        <ele>1976.0</ele>
        <time>2010-07-02T10:23:08Z</time>
      </trkpt>
      <trkpt lat="42.610299" lon="0.625351">
        <ele>1978.9</ele>
        <time>2010-07-02T10:23:08Z</time>
      </trkpt>
      <trkpt lat="42.610315" lon="0.625481">
        <ele>1980.0</ele>
        <time>2010-07-02T10:23:08Z</time>
      </trkpt>
      <trkpt lat="42.610390" lon="0.625618">
        <ele>1981.3</ele>
        <time>2010-07-02T10:23:08Z</time>
      </trkpt>
      <trkpt lat="42.610469" lon="0.625741">
        <ele>1982.6</ele>
        <time>2010-07-02T10:23:08Z</time>
      </trkpt>
      <trkpt lat="42.610534" lon="0.625894">
        <ele>1984.3</ele>
        <time>2010-07-02T10:23:08Z</time>
      </trkpt>
      <trkpt lat="42.610624" lon="0.626117">
        <ele>1986.5</ele>
        <time>2010-07-02T10:23:08Z</time>
      </trkpt>
      <trkpt lat="42.610637" lon="0.626225">
        <ele>1987.5</ele>
        <time>2010-07-02T10:23:08Z</time>
      </trkpt>
      <trkpt lat="42.610607" lon="0.626327">
        <ele>1988.7</ele>
        <time>2010-07-02T10:23:08Z</time>
      </trkpt>
      <trkpt lat="42.610568" lon="0.626372">
        <ele>1989.3</ele>
        <time>2010-07-02T10:23:08Z</time>
      </trkpt>
      <trkpt lat="42.610478" lon="0.626422">
        <ele>1990.0</ele>
        <time>2010-07-02T10:23:08Z</time>
      </trkpt>
      <trkpt lat="42.610401" lon="0.626425">
        <ele>1990.1</ele>
        <time>2010-07-02T10:23:08Z</time>
      </trkpt>
      <trkpt lat="42.610323" lon="0.626388">
        <ele>1989.9</ele>
        <time>2010-07-02T10:23:08Z</time>
      </trkpt>
      <trkpt lat="42.610253" lon="0.626355">
        <ele>1989.7</ele>
        <time>2010-07-02T10:23:08Z</time>
      </trkpt>
      <trkpt lat="42.610173" lon="0.626343">
        <ele>1989.8</ele>
        <time>2010-07-02T10:23:08Z</time>
      </trkpt>
      <trkpt lat="42.610088" lon="0.626357">
        <ele>1990.2</ele>
        <time>2010-07-02T10:23:08Z</time>
      </trkpt>
      <trkpt lat="42.610039" lon="0.626392">
        <ele>1990.8</ele>
        <time>2010-07-02T10:23:08Z</time>
      </trkpt>
      <trkpt lat="42.609978" lon="0.626527">
        <ele>1992.7</ele>
        <time>2010-07-02T10:23:08Z</time>
      </trkpt>
      <trkpt lat="42.609948" lon="0.626633">
        <ele>1994.2</ele>
        <time>2010-07-02T10:23:08Z</time>
      </trkpt>
      <trkpt lat="42.609972" lon="0.626902">
        <ele>1997.7</ele>
        <time>2010-07-02T10:23:08Z</time>
      </trkpt>
      <trkpt lat="42.609979" lon="0.627118">
        <ele>2000.6</ele>
        <time>2010-07-02T10:23:08Z</time>
      </trkpt>
      <trkpt lat="42.609966" lon="0.627234">
        <ele>2002.5</ele>
        <time>2010-07-02T10:23:08Z</time>
      </trkpt>
      <trkpt lat="42.609903" lon="0.627290">
        <ele>2003.5</ele>
        <time>2010-07-02T10:23:08Z</time>
      </trkpt>
      <trkpt lat="42.609804" lon="0.627409">
        <ele>2005.5</ele>
        <time>2010-07-02T10:23:08Z</time>
      </trkpt>
      <trkpt lat="42.609720" lon="0.627560">
        <ele>2007.6</ele>
        <time>2010-07-02T10:23:08Z</time>
      </trkpt>
      <trkpt lat="42.609668" lon="0.627638">
        <ele>2008.7</ele>
        <time>2010-07-02T10:23:08Z</time>
      </trkpt>
      <trkpt lat="42.609482" lon="0.627760">
        <ele>2010.5</ele>
        <time>2010-07-02T10:23:08Z</time>
      </trkpt>
      <trkpt lat="42.609339" lon="0.627802">
        <ele>2011.4</ele>
        <time>2010-07-02T10:23:08Z</time>
      </trkpt>
      <trkpt lat="42.609318" lon="0.627846">
        <ele>2011.9</ele>
        <time>2010-07-02T10:23:08Z</time>
      </trkpt>
      <trkpt lat="42.609283" lon="0.627941">
        <ele>2013.0</ele>
        <time>2010-07-02T10:23:08Z</time>
      </trkpt>
      <trkpt lat="42.609279" lon="0.628020">
        <ele>2013.9</ele>
        <time>2010-07-02T10:23:08Z</time>
      </trkpt>
      <trkpt lat="42.609282" lon="0.628121">
        <ele>2015.0</ele>
        <time>2010-07-02T10:23:08Z</time>
      </trkpt>
      <trkpt lat="42.609267" lon="0.628211">
        <ele>2016.0</ele>
        <time>2010-07-02T10:23:08Z</time>
      </trkpt>
      <trkpt lat="42.609245" lon="0.628295">
        <ele>2017.0</ele>
        <time>2010-07-02T10:23:08Z</time>
      </trkpt>
      <trkpt lat="42.609200" lon="0.628416">
        <ele>2018.4</ele>
        <time>2010-07-02T10:23:08Z</time>
      </trkpt>
      <trkpt lat="42.609152" lon="0.628536">
        <ele>2019.7</ele>
        <time>2010-07-02T10:23:08Z</time>
      </trkpt>
      <trkpt lat="42.609125" lon="0.628638">
        <ele>2020.8</ele>
        <time>2010-07-02T10:23:08Z</time>
      </trkpt>
      <trkpt lat="42.609105" lon="0.628826">
        <ele>2023.2</ele>
        <time>2010-07-02T10:23:08Z</time>
      </trkpt>
      <trkpt lat="42.609070" lon="0.628957">
        <ele>2025.1</ele>
        <time>2010-07-02T10:23:08Z</time>
      </trkpt>
      <trkpt lat="42.609047" lon="0.629001">
        <ele>2025.7</ele>
        <time>2010-07-02T10:23:08Z</time>
      </trkpt>
      <trkpt lat="42.608997" lon="0.629054">
        <ele>2026.3</ele>
        <time>2010-07-02T10:23:08Z</time>
      </trkpt>
      <trkpt lat="42.608939" lon="0.629078">
        <ele>2026.5</ele>
        <time>2010-07-02T10:23:08Z</time>
      </trkpt>
      <trkpt lat="42.608903" lon="0.629104">
        <ele>2026.7</ele>
        <time>2010-07-02T10:23:08Z</time>
      </trkpt>
      <trkpt lat="42.608815" lon="0.629230">
        <ele>2028.0</ele>
        <time>2010-07-02T10:23:08Z</time>
      </trkpt>
      <trkpt lat="42.608612" lon="0.629591">
        <ele>2035.4</ele>
        <time>2010-07-02T10:23:08Z</time>
      </trkpt>
      <trkpt lat="42.608503" lon="0.629847">
        <ele>2039.9</ele>
        <time>2010-07-02T10:23:08Z</time>
      </trkpt>
      <trkpt lat="42.608409" lon="0.630059">
        <ele>2043.3</ele>
        <time>2010-07-02T10:23:08Z</time>
      </trkpt>
      <trkpt lat="42.608372" lon="0.630183">
        <ele>2044.9</ele>
        <time>2010-07-02T10:23:08Z</time>
      </trkpt>
      <trkpt lat="42.608350" lon="0.630300">
        <ele>2046.0</ele>
        <time>2010-07-02T10:23:08Z</time>
      </trkpt>
      <trkpt lat="42.608320" lon="0.630401">
        <ele>2047.1</ele>
        <time>2010-07-02T10:23:08Z</time>
      </trkpt>
      <trkpt lat="42.608214" lon="0.630550">
        <ele>2051.0</ele>
        <time>2010-07-02T10:23:08Z</time>
      </trkpt>
      <trkpt lat="42.608096" lon="0.630756">
        <ele>2055.5</ele>
        <time>2010-07-02T10:23:08Z</time>
      </trkpt>
      <trkpt lat="42.607858" lon="0.631197">
        <ele>2064.5</ele>
        <time>2010-07-02T10:23:08Z</time>
      </trkpt>
      <trkpt lat="42.607797" lon="0.631470">
        <ele>2069.0</ele>
        <time>2010-07-02T10:23:08Z</time>
      </trkpt>
      <trkpt lat="42.607744" lon="0.631738">
        <ele>2073.0</ele>
        <time>2010-07-02T10:23:08Z</time>
      </trkpt>
      <trkpt lat="42.607678" lon="0.631906">
        <ele>2076.2</ele>
        <time>2010-07-02T10:23:08Z</time>
      </trkpt>
      <trkpt lat="42.607615" lon="0.632064">
        <ele>2079.2</ele>
        <time>2010-07-02T10:23:08Z</time>
      </trkpt>
      <trkpt lat="42.607606" lon="0.632158">
        <ele>2080.1</ele>
        <time>2010-07-02T10:23:08Z</time>
      </trkpt>
      <trkpt lat="42.607599" lon="0.632324">
        <ele>2081.3</ele>
        <time>2010-07-02T10:23:08Z</time>
      </trkpt>
      <trkpt lat="42.607603" lon="0.632511">
        <ele>2082.5</ele>
        <time>2010-07-02T10:23:08Z</time>
      </trkpt>
      <trkpt lat="42.607603" lon="0.632648">
        <ele>2083.4</ele>
        <time>2010-07-02T10:23:08Z</time>
      </trkpt>
      <trkpt lat="42.607571" lon="0.632768">
        <ele>2084.9</ele>
        <time>2010-07-02T10:23:08Z</time>
      </trkpt>
      <trkpt lat="42.607495" lon="0.632969">
        <ele>2088.0</ele>
        <time>2010-07-02T10:23:08Z</time>
      </trkpt>
      <trkpt lat="42.607438" lon="0.633180">
        <ele>2091.0</ele>
        <time>2010-07-02T10:23:08Z</time>
      </trkpt>
      <trkpt lat="42.607387" lon="0.633398">
        <ele>2093.8</ele>
        <time>2010-07-02T10:23:08Z</time>
      </trkpt>
      <trkpt lat="42.607389" lon="0.633729">
        <ele>2096.3</ele>
        <time>2010-07-02T10:23:08Z</time>
      </trkpt>
      <trkpt lat="42.607374" lon="0.634043">
        <ele>2096.5</ele>
        <time>2010-07-02T10:23:08Z</time>
      </trkpt>
      <trkpt lat="42.607350" lon="0.634311">
        <ele>2096.4</ele>
        <time>2010-07-02T10:23:08Z</time>
      </trkpt>
      <trkpt lat="42.607315" lon="0.634683">
        <ele>2097.1</ele>
        <time>2010-07-02T10:23:08Z</time>
      </trkpt>
      <trkpt lat="42.607298" lon="0.634748">
        <ele>2097.8</ele>
        <time>2010-07-02T10:23:08Z</time>
      </trkpt>
      <trkpt lat="42.607204" lon="0.634968">
        <ele>2099.8</ele>
        <time>2010-07-02T10:23:08Z</time>
      </trkpt>
      <trkpt lat="42.607051" lon="0.635287">
        <ele>2102.9</ele>
        <time>2010-07-02T10:23:08Z</time>
      </trkpt>
      <trkpt lat="42.607012" lon="0.635447">
        <ele>2105.0</ele>
        <time>2010-07-02T10:23:08Z</time>
      </trkpt>
      <trkpt lat="42.606911" lon="0.635736">
        <ele>2109.4</ele>
        <time>2010-07-02T10:23:08Z</time>
      </trkpt>
      <trkpt lat="42.606785" lon="0.636079">
        <ele>2114.4</ele>
        <time>2010-07-02T10:23:08Z</time>
      </trkpt>
      <trkpt lat="42.606632" lon="0.636370">
        <ele>2119.5</ele>
        <time>2010-07-02T10:23:08Z</time>
      </trkpt>
      <trkpt lat="42.606601" lon="0.636453">
        <ele>2120.5</ele>
        <time>2010-07-02T10:23:08Z</time>
      </trkpt>
      <trkpt lat="42.606618" lon="0.636759">
        <ele>2121.9</ele>
        <time>2010-07-02T10:23:08Z</time>
      </trkpt>
      <trkpt lat="42.606634" lon="0.637133">
        <ele>2124.0</ele>
        <time>2010-07-02T10:23:08Z</time>
      </trkpt>
      <trkpt lat="42.606610" lon="0.637372">
        <ele>2125.6</ele>
        <time>2010-07-02T10:23:08Z</time>
      </trkpt>
      <trkpt lat="42.606604" lon="0.637765">
        <ele>2128.1</ele>
        <time>2010-07-02T10:23:08Z</time>
      </trkpt>
      <trkpt lat="42.606608" lon="0.638053">
        <ele>2130.3</ele>
        <time>2010-07-02T10:23:08Z</time>
      </trkpt>
      <trkpt lat="42.606636" lon="0.638383">
        <ele>2133.5</ele>
        <time>2010-07-02T10:23:08Z</time>
      </trkpt>
      <trkpt lat="42.606711" lon="0.638697">
        <ele>2136.4</ele>
        <time>2010-07-02T10:23:08Z</time>
      </trkpt>
      <trkpt lat="42.606824" lon="0.639006">
        <ele>2138.9</ele>
        <time>2010-07-02T10:23:08Z</time>
      </trkpt>
      <trkpt lat="42.606901" lon="0.639137">
        <ele>2139.7</ele>
        <time>2010-07-02T10:23:08Z</time>
      </trkpt>
      <trkpt lat="42.607013" lon="0.639237">
        <ele>2139.9</ele>
        <time>2010-07-02T10:23:08Z</time>
      </trkpt>
      <trkpt lat="42.607092" lon="0.639338">
        <ele>2140.4</ele>
        <time>2010-07-02T10:23:08Z</time>
      </trkpt>
      <trkpt lat="42.607123" lon="0.639420">
        <ele>2141.7</ele>
        <time>2010-07-02T10:23:08Z</time>
      </trkpt>
      <trkpt lat="42.607135" lon="0.639618">
        <ele>2143.3</ele>
        <time>2010-07-02T10:23:08Z</time>
      </trkpt>
      <trkpt lat="42.607140" lon="0.639751">
        <ele>2144.5</ele>
        <time>2010-07-02T10:23:08Z</time>
      </trkpt>
      <trkpt lat="42.607178" lon="0.639879">
        <ele>2146.3</ele>
        <time>2010-07-02T10:23:08Z</time>
      </trkpt>
      <trkpt lat="42.607219" lon="0.639968">
        <ele>2147.8</ele>
        <time>2010-07-02T10:23:08Z</time>
      </trkpt>
      <trkpt lat="42.607286" lon="0.640127">
        <ele>2150.2</ele>
        <time>2010-07-02T10:23:08Z</time>
      </trkpt>
      <trkpt lat="42.607359" lon="0.640276">
        <ele>2152.6</ele>
        <time>2010-07-02T10:23:08Z</time>
      </trkpt>
      <trkpt lat="42.607411" lon="0.640367">
        <ele>2154.2</ele>
        <time>2010-07-02T10:23:08Z</time>
      </trkpt>
      <trkpt lat="42.607448" lon="0.640373">
        <ele>2154.8</ele>
        <time>2010-07-02T10:23:08Z</time>
      </trkpt>
      <trkpt lat="42.607491" lon="0.640368">
        <ele>2155.5</ele>
        <time>2010-07-02T10:23:08Z</time>
      </trkpt>
      <trkpt lat="42.607549" lon="0.640330">
        <ele>2156.3</ele>
        <time>2010-07-02T10:23:08Z</time>
      </trkpt>
      <trkpt lat="42.607606" lon="0.640273">
        <ele>2156.9</ele>
        <time>2010-07-02T10:23:08Z</time>
      </trkpt>
      <trkpt lat="42.607637" lon="0.640215">
        <ele>2157.1</ele>
        <time>2010-07-02T10:23:08Z</time>
      </trkpt>
      <trkpt lat="42.607668" lon="0.640174">
        <ele>2157.4</ele>
        <time>2010-07-02T10:23:08Z</time>
      </trkpt>
      <trkpt lat="42.607702" lon="0.640173">
        <ele>2158.0</ele>
        <time>2010-07-02T10:23:08Z</time>
      </trkpt>
      <trkpt lat="42.607764" lon="0.640181">
        <ele>2159.1</ele>
        <time>2010-07-02T10:23:08Z</time>
      </trkpt>
      <trkpt lat="42.607796" lon="0.640212">
        <ele>2159.9</ele>
        <time>2010-07-02T10:23:08Z</time>
      </trkpt>
      <trkpt lat="42.607824" lon="0.640262">
        <ele>2160.6</ele>
        <time>2010-07-02T10:23:08Z</time>
      </trkpt>
      <trkpt lat="42.607863" lon="0.640361">
        <ele>2161.8</ele>
        <time>2010-07-02T10:23:08Z</time>
      </trkpt>
      <trkpt lat="42.607887" lon="0.640461">
        <ele>2162.9</ele>
        <time>2010-07-02T10:23:08Z</time>
      </trkpt>
      <trkpt lat="42.607905" lon="0.640554">
        <ele>2164.1</ele>
        <time>2010-07-02T10:23:08Z</time>
      </trkpt>
      <trkpt lat="42.607934" lon="0.640683">
        <ele>2166.0</ele>
        <time>2010-07-02T10:23:08Z</time>
      </trkpt>
      <trkpt lat="42.607958" lon="0.640818">
        <ele>2167.9</ele>
        <time>2010-07-02T10:23:08Z</time>
      </trkpt>
      <trkpt lat="42.607975" lon="0.640879">
        <ele>2168.9</ele>
        <time>2010-07-02T10:23:08Z</time>
      </trkpt>
      <trkpt lat="42.607992" lon="0.640918">
        <ele>2169.6</ele>
        <time>2010-07-02T10:23:08Z</time>
      </trkpt>
      <trkpt lat="42.608036" lon="0.640971">
        <ele>2171.1</ele>
        <time>2010-07-02T10:23:08Z</time>
      </trkpt>
      <trkpt lat="42.608057" lon="0.640981">
        <ele>2171.7</ele>
        <time>2010-07-02T10:23:08Z</time>
      </trkpt>
      <trkpt lat="42.608084" lon="0.640994">
        <ele>2172.5</ele>
        <time>2010-07-02T10:23:08Z</time>
      </trkpt>
      <trkpt lat="42.608117" lon="0.641032">
        <ele>2173.5</ele>
        <time>2010-07-02T10:23:08Z</time>
      </trkpt>
      <trkpt lat="42.608144" lon="0.641057">
        <ele>2174.3</ele>
        <time>2010-07-02T10:23:08Z</time>
      </trkpt>
      <trkpt lat="42.608170" lon="0.641063">
        <ele>2174.9</ele>
        <time>2010-07-02T10:23:08Z</time>
      </trkpt>
      <trkpt lat="42.608203" lon="0.641076">
        <ele>2175.7</ele>
        <time>2010-07-02T10:23:08Z</time>
      </trkpt>
      <trkpt lat="42.608257" lon="0.641110">
        <ele>2177.1</ele>
        <time>2010-07-02T10:23:08Z</time>
      </trkpt>
      <trkpt lat="42.608294" lon="0.641134">
        <ele>2178.1</ele>
        <time>2010-07-02T10:23:08Z</time>
      </trkpt>
      <trkpt lat="42.608313" lon="0.641155">
        <ele>2178.6</ele>
        <time>2010-07-02T10:23:08Z</time>
      </trkpt>
      <trkpt lat="42.608338" lon="0.641197">
        <ele>2179.4</ele>
        <time>2010-07-02T10:23:08Z</time>
      </trkpt>
      <trkpt lat="42.608371" lon="0.641242">
        <ele>2180.2</ele>
        <time>2010-07-02T10:23:08Z</time>
      </trkpt>
      <trkpt lat="42.608409" lon="0.641266">
        <ele>2181.2</ele>
        <time>2010-07-02T10:23:08Z</time>
      </trkpt>
      <trkpt lat="42.608444" lon="0.641279">
        <ele>2182.0</ele>
        <time>2010-07-02T10:23:08Z</time>
      </trkpt>
      <trkpt lat="42.608497" lon="0.641302">
        <ele>2183.3</ele>
        <time>2010-07-02T10:23:08Z</time>
      </trkpt>
      <trkpt lat="42.608511" lon="0.641324">
        <ele>2183.7</ele>
        <time>2010-07-02T10:23:08Z</time>
      </trkpt>
      <trkpt lat="42.608533" lon="0.641366">
        <ele>2184.5</ele>
        <time>2010-07-02T10:23:08Z</time>
      </trkpt>
      <trkpt lat="42.608553" lon="0.641419">
        <ele>2185.4</ele>
        <time>2010-07-02T10:23:08Z</time>
      </trkpt>
      <trkpt lat="42.608571" lon="0.641494">
        <ele>2186.3</ele>
        <time>2010-07-02T10:23:08Z</time>
      </trkpt>
      <trkpt lat="42.608580" lon="0.641566">
        <ele>2187.1</ele>
        <time>2010-07-02T10:23:08Z</time>
      </trkpt>
      <trkpt lat="42.608581" lon="0.641631">
        <ele>2187.7</ele>
        <time>2010-07-02T10:23:08Z</time>
      </trkpt>
      <trkpt lat="42.608591" lon="0.641688">
        <ele>2188.3</ele>
        <time>2010-07-02T10:23:08Z</time>
      </trkpt>
      <trkpt lat="42.608616" lon="0.641759">
        <ele>2189.4</ele>
        <time>2010-07-02T10:23:08Z</time>
      </trkpt>
      <trkpt lat="42.608635" lon="0.641791">
        <ele>2190.1</ele>
        <time>2010-07-02T10:23:08Z</time>
      </trkpt>
      <trkpt lat="42.608703" lon="0.641828">
        <ele>2191.8</ele>
        <time>2010-07-02T10:23:08Z</time>
      </trkpt>
      <trkpt lat="42.608749" lon="0.641869">
        <ele>2193.2</ele>
        <time>2010-07-02T10:23:08Z</time>
      </trkpt>
      <trkpt lat="42.608737" lon="0.641942">
        <ele>2193.5</ele>
        <time>2010-07-02T10:23:08Z</time>
      </trkpt>
      <trkpt lat="42.608712" lon="0.642054">
        <ele>2194.0</ele>
        <time>2010-07-02T10:23:08Z</time>
      </trkpt>
      <trkpt lat="42.608665" lon="0.642222">
        <ele>2194.6</ele>
        <time>2010-07-02T10:23:08Z</time>
      </trkpt>
      <trkpt lat="42.608632" lon="0.642281">
        <ele>2194.6</ele>
        <time>2010-07-02T10:23:08Z</time>
      </trkpt>
      <trkpt lat="42.608545" lon="0.642345">
        <ele>2193.7</ele>
        <time>2010-07-02T10:23:08Z</time>
      </trkpt>
      <trkpt lat="42.608467" lon="0.642399">
        <ele>2192.9</ele>
        <time>2010-07-02T10:23:08Z</time>
      </trkpt>
      <trkpt lat="42.608436" lon="0.642436">
        <ele>2192.9</ele>
        <time>2010-07-02T10:23:08Z</time>
      </trkpt>
      <trkpt lat="42.608410" lon="0.642480">
        <ele>2193.0</ele>
        <time>2010-07-02T10:23:08Z</time>
      </trkpt>
      <trkpt lat="42.608388" lon="0.642593">
        <ele>2194.2</ele>
        <time>2010-07-02T10:23:08Z</time>
      </trkpt>
      <trkpt lat="42.608388" lon="0.642722">
        <ele>2196.0</ele>
        <time>2010-07-02T10:23:08Z</time>
      </trkpt>
      <trkpt lat="42.608390" lon="0.642801">
        <ele>2197.1</ele>
        <time>2010-07-02T10:23:08Z</time>
      </trkpt>
      <trkpt lat="42.608378" lon="0.642878">
        <ele>2198.0</ele>
        <time>2010-07-02T10:23:08Z</time>
      </trkpt>
      <trkpt lat="42.608330" lon="0.642988">
        <ele>2199.7</ele>
        <time>2010-07-02T10:23:08Z</time>
      </trkpt>
      <trkpt lat="42.608226" lon="0.643132">
        <ele>2202.1</ele>
        <time>2010-07-02T10:23:08Z</time>
      </trkpt>
      <trkpt lat="42.608167" lon="0.643203">
        <ele>2203.3</ele>
        <time>2010-07-02T10:23:08Z</time>
      </trkpt>
      <trkpt lat="42.608138" lon="0.643341">
        <ele>2206.5</ele>
        <time>2010-07-02T10:23:08Z</time>
      </trkpt>
      <trkpt lat="42.608137" lon="0.643431">
        <ele>2208.9</ele>
        <time>2010-07-02T10:23:08Z</time>
      </trkpt>
      <trkpt lat="42.608138" lon="0.643477">
        <ele>2210.1</ele>
        <time>2010-07-02T10:23:08Z</time>
      </trkpt>
      <trkpt lat="42.608094" lon="0.643555">
        <ele>2211.8</ele>
        <time>2010-07-02T10:23:08Z</time>
      </trkpt>
      <trkpt lat="42.607982" lon="0.643678">
        <ele>2214.4</ele>
        <time>2010-07-02T10:23:08Z</time>
      </trkpt>
      <trkpt lat="42.607944" lon="0.643766">
        <ele>2216.5</ele>
        <time>2010-07-02T10:23:08Z</time>
      </trkpt>
      <trkpt lat="42.607954" lon="0.643981">
        <ele>2221.6</ele>
        <time>2010-07-02T10:23:08Z</time>
      </trkpt>
      <trkpt lat="42.607984" lon="0.644135">
        <ele>2225.1</ele>
        <time>2010-07-02T10:23:08Z</time>
      </trkpt>
      <trkpt lat="42.607973" lon="0.644272">
        <ele>2228.3</ele>
        <time>2010-07-02T10:23:08Z</time>
      </trkpt>
      <trkpt lat="42.607941" lon="0.644375">
        <ele>2230.8</ele>
        <time>2010-07-02T10:23:08Z</time>
      </trkpt>
      <trkpt lat="42.607899" lon="0.644427">
        <ele>2232.2</ele>
        <time>2010-07-02T10:23:08Z</time>
      </trkpt>
      <trkpt lat="42.607881" lon="0.644474">
        <ele>2233.3</ele>
        <time>2010-07-02T10:23:08Z</time>
      </trkpt>
      <trkpt lat="42.607867" lon="0.644536">
        <ele>2234.8</ele>
        <time>2010-07-02T10:23:08Z</time>
      </trkpt>
      <trkpt lat="42.607852" lon="0.644616">
        <ele>2236.7</ele>
        <time>2010-07-02T10:23:08Z</time>
      </trkpt>
      <trkpt lat="42.607852" lon="0.644706">
        <ele>2238.7</ele>
        <time>2010-07-02T10:23:08Z</time>
      </trkpt>
      <trkpt lat="42.607838" lon="0.644804">
        <ele>2241.0</ele>
        <time>2010-07-02T10:23:08Z</time>
      </trkpt>
      <trkpt lat="42.607825" lon="0.644941">
        <ele>2244.2</ele>
        <time>2010-07-02T10:23:08Z</time>
      </trkpt>
      <trkpt lat="42.607826" lon="0.645027">
        <ele>2246.2</ele>
        <time>2010-07-02T10:23:08Z</time>
      </trkpt>
      <trkpt lat="42.607818" lon="0.645114">
        <ele>2248.3</ele>
        <time>2010-07-02T10:23:08Z</time>
      </trkpt>
      <trkpt lat="42.607800" lon="0.645183">
        <ele>2250.0</ele>
        <time>2010-07-02T10:23:08Z</time>
      </trkpt>
      <trkpt lat="42.607786" lon="0.645241">
        <ele>2251.5</ele>
        <time>2010-07-02T10:23:08Z</time>
      </trkpt>
      <trkpt lat="42.607750" lon="0.645336">
        <ele>2254.2</ele>
        <time>2010-07-02T10:23:08Z</time>
      </trkpt>
      <trkpt lat="42.607708" lon="0.645482">
        <ele>2258.1</ele>
        <time>2010-07-02T10:23:08Z</time>
      </trkpt>
      <trkpt lat="42.607680" lon="0.645569">
        <ele>2260.4</ele>
        <time>2010-07-02T10:23:08Z</time>
      </trkpt>
      <trkpt lat="42.607643" lon="0.645665">
        <ele>2263.2</ele>
        <time>2010-07-02T10:23:08Z</time>
      </trkpt>
      <trkpt lat="42.607605" lon="0.645763">
        <ele>2266.1</ele>
        <time>2010-07-02T10:23:08Z</time>
      </trkpt>
      <trkpt lat="42.607566" lon="0.645822">
        <ele>2268.2</ele>
        <time>2010-07-02T10:23:08Z</time>
      </trkpt>
      <trkpt lat="42.607551" lon="0.645866">
        <ele>2269.5</ele>
        <time>2010-07-02T10:23:08Z</time>
      </trkpt>
      <trkpt lat="42.607531" lon="0.645928">
        <ele>2271.4</ele>
        <time>2010-07-02T10:23:08Z</time>
      </trkpt>
      <trkpt lat="42.607494" lon="0.645966">
        <ele>2273.1</ele>
        <time>2010-07-02T10:23:08Z</time>
      </trkpt>
      <trkpt lat="42.607469" lon="0.646006">
        <ele>2274.7</ele>
        <time>2010-07-02T10:23:08Z</time>
      </trkpt>
      <trkpt lat="42.607467" lon="0.646035">
        <ele>2275.5</ele>
        <time>2010-07-02T10:23:08Z</time>
      </trkpt>
      <trkpt lat="42.607463" lon="0.646132">
        <ele>2278.0</ele>
        <time>2010-07-02T10:23:08Z</time>
      </trkpt>
      <trkpt lat="42.607441" lon="0.646198">
        <ele>2280.2</ele>
        <time>2010-07-02T10:23:08Z</time>
      </trkpt>
      <trkpt lat="42.607424" lon="0.646274">
        <ele>2282.4</ele>
        <time>2010-07-02T10:23:08Z</time>
      </trkpt>
      <trkpt lat="42.607407" lon="0.646380">
        <ele>2284.5</ele>
        <time>2010-07-02T10:23:08Z</time>
      </trkpt>
      <trkpt lat="42.607404" lon="0.646459">
        <ele>2285.8</ele>
        <time>2010-07-02T10:23:08Z</time>
      </trkpt>
      <trkpt lat="42.607407" lon="0.646632">
        <ele>2288.5</ele>
        <time>2010-07-02T10:23:08Z</time>
      </trkpt>
      <trkpt lat="42.607403" lon="0.646686">
        <ele>2289.4</ele>
        <time>2010-07-02T10:23:08Z</time>
      </trkpt>
      <trkpt lat="42.607382" lon="0.646701">
        <ele>2290.4</ele>
        <time>2010-07-02T10:23:08Z</time>
      </trkpt>
      <trkpt lat="42.607329" lon="0.646714">
        <ele>2292.3</ele>
        <time>2010-07-02T10:23:08Z</time>
      </trkpt>
      <trkpt lat="42.607298" lon="0.646769">
        <ele>2294.3</ele>
        <time>2010-07-02T10:23:08Z</time>
      </trkpt>
      <trkpt lat="42.607270" lon="0.646817">
        <ele>2296.1</ele>
        <time>2010-07-02T10:23:08Z</time>
      </trkpt>
      <trkpt lat="42.607226" lon="0.646876">
        <ele>2298.7</ele>
        <time>2010-07-02T10:23:08Z</time>
      </trkpt>
      <trkpt lat="42.607162" lon="0.647001">
        <ele>2303.4</ele>
        <time>2010-07-02T10:23:08Z</time>
      </trkpt>
      <trkpt lat="42.607139" lon="0.647081">
        <ele>2305.8</ele>
        <time>2010-07-02T10:23:08Z</time>
      </trkpt>
      <trkpt lat="42.607120" lon="0.647143">
        <ele>2307.1</ele>
        <time>2010-07-02T10:23:08Z</time>
      </trkpt>
      <trkpt lat="42.607099" lon="0.647176">
        <ele>2308.2</ele>
        <time>2010-07-02T10:23:08Z</time>
      </trkpt>
      <trkpt lat="42.607057" lon="0.647228">
        <ele>2310.0</ele>
        <time>2010-07-02T10:23:08Z</time>
      </trkpt>
      <trkpt lat="42.607032" lon="0.647287">
        <ele>2311.3</ele>
        <time>2010-07-02T10:23:08Z</time>
      </trkpt>
      <trkpt lat="42.606970" lon="0.647365">
        <ele>2314.0</ele>
        <time>2010-07-02T10:23:08Z</time>
      </trkpt>
      <trkpt lat="42.606900" lon="0.647360">
        <ele>2316.2</ele>
        <time>2010-07-02T10:23:08Z</time>
      </trkpt>
      <trkpt lat="42.606856" lon="0.647384">
        <ele>2317.8</ele>
        <time>2010-07-02T10:23:08Z</time>
      </trkpt>
      <trkpt lat="42.606826" lon="0.647479">
        <ele>2319.6</ele>
        <time>2010-07-02T10:23:08Z</time>
      </trkpt>
      <trkpt lat="42.606758" lon="0.647535">
        <ele>2322.4</ele>
        <time>2010-07-02T10:23:08Z</time>
      </trkpt>
      <trkpt lat="42.606712" lon="0.647656">
        <ele>2325.0</ele>
        <time>2010-07-02T10:23:08Z</time>
      </trkpt>
      <trkpt lat="42.606650" lon="0.647744">
        <ele>2327.9</ele>
        <time>2010-07-02T10:23:08Z</time>
      </trkpt>
      <trkpt lat="42.606564" lon="0.647816">
        <ele>2331.5</ele>
        <time>2010-07-02T10:23:08Z</time>
      </trkpt>
      <trkpt lat="42.606499" lon="0.647902">
        <ele>2334.5</ele>
        <time>2010-07-02T10:23:08Z</time>
      </trkpt>
      <trkpt lat="42.606414" lon="0.648020">
        <ele>2337.9</ele>
        <time>2010-07-02T10:23:08Z</time>
      </trkpt>
      <trkpt lat="42.606392" lon="0.648021">
        <ele>2338.6</ele>
        <time>2010-07-02T10:23:08Z</time>
      </trkpt>
      <trkpt lat="42.606321" lon="0.648020">
        <ele>2341.0</ele>
        <time>2010-07-02T10:23:08Z</time>
      </trkpt>
      <trkpt lat="42.606267" lon="0.648022">
        <ele>2342.8</ele>
        <time>2010-07-02T10:23:08Z</time>
      </trkpt>
      <trkpt lat="42.606217" lon="0.648038">
        <ele>2344.5</ele>
        <time>2010-07-02T10:23:08Z</time>
      </trkpt>
      <trkpt lat="42.606183" lon="0.648072">
        <ele>2345.7</ele>
        <time>2010-07-02T10:23:08Z</time>
      </trkpt>
      <trkpt lat="42.606147" lon="0.648116">
        <ele>2347.0</ele>
        <time>2010-07-02T10:23:08Z</time>
      </trkpt>
      <trkpt lat="42.606113" lon="0.648154">
        <ele>2348.2</ele>
        <time>2010-07-02T10:23:08Z</time>
      </trkpt>
      <trkpt lat="42.606087" lon="0.648173">
        <ele>2349.1</ele>
        <time>2010-07-02T10:23:08Z</time>
      </trkpt>
      <trkpt lat="42.606034" lon="0.648185">
        <ele>2350.7</ele>
        <time>2010-07-02T10:23:08Z</time>
      </trkpt>
      <trkpt lat="42.606008" lon="0.648223">
        <ele>2351.6</ele>
        <time>2010-07-02T10:23:08Z</time>
      </trkpt>
      <trkpt lat="42.606006" lon="0.648230">
        <ele>2351.6</ele>
        <time>2010-07-02T10:23:08Z</time>
      </trkpt>
      <trkpt lat="42.605985" lon="0.648285">
        <ele>2352.3</ele>
        <time>2010-07-02T10:23:08Z</time>
      </trkpt>
      <trkpt lat="42.605962" lon="0.648311">
        <ele>2353.0</ele>
        <time>2010-07-02T10:23:08Z</time>
      </trkpt>
      <trkpt lat="42.605933" lon="0.648326">
        <ele>2353.8</ele>
        <time>2010-07-02T10:23:08Z</time>
      </trkpt>
      <trkpt lat="42.605904" lon="0.648363">
        <ele>2354.6</ele>
        <time>2010-07-02T10:23:08Z</time>
      </trkpt>
      <trkpt lat="42.605889" lon="0.648396">
        <ele>2355.0</ele>
        <time>2010-07-02T10:23:08Z</time>
      </trkpt>
      <trkpt lat="42.605875" lon="0.648469">
        <ele>2355.4</ele>
        <time>2010-07-02T10:23:08Z</time>
      </trkpt>
      <trkpt lat="42.605861" lon="0.648567">
        <ele>2355.6</ele>
        <time>2010-07-02T10:23:08Z</time>
      </trkpt>
      <trkpt lat="42.605851" lon="0.648610">
        <ele>2355.8</ele>
        <time>2010-07-02T10:23:08Z</time>
      </trkpt>
      <trkpt lat="42.605812" lon="0.648648">
        <ele>2356.7</ele>
        <time>2010-07-02T10:23:08Z</time>
      </trkpt>
      <trkpt lat="42.605786" lon="0.648677">
        <ele>2357.3</ele>
        <time>2010-07-02T10:23:08Z</time>
      </trkpt>
      <trkpt lat="42.605763" lon="0.648736">
        <ele>2357.7</ele>
        <time>2010-07-02T10:23:08Z</time>
      </trkpt>
      <trkpt lat="42.605741" lon="0.648831">
        <ele>2358.5</ele>
        <time>2010-07-02T10:23:08Z</time>
      </trkpt>
      <trkpt lat="42.605732" lon="0.648910">
        <ele>2358.9</ele>
        <time>2010-07-02T10:23:08Z</time>
      </trkpt>
      <trkpt lat="42.605726" lon="0.649004">
        <ele>2359.4</ele>
        <time>2010-07-02T10:23:08Z</time>
      </trkpt>
      <trkpt lat="42.605739" lon="0.649122">
        <ele>2359.4</ele>
        <time>2010-07-02T10:23:08Z</time>
      </trkpt>
      <trkpt lat="42.605745" lon="0.649270">
        <ele>2359.7</ele>
        <time>2010-07-02T10:23:08Z</time>
      </trkpt>
      <trkpt lat="42.605750" lon="0.649378">
        <ele>2360.0</ele>
        <time>2010-07-02T10:23:08Z</time>
      </trkpt>
      <trkpt lat="42.605760" lon="0.649507">
        <ele>2360.1</ele>
        <time>2010-07-02T10:23:08Z</time>
      </trkpt>
      <trkpt lat="42.605760" lon="0.649626">
        <ele>2361.1</ele>
        <time>2010-07-02T10:23:08Z</time>
      </trkpt>
      <trkpt lat="42.605739" lon="0.649742">
        <ele>2363.7</ele>
        <time>2010-07-02T10:23:08Z</time>
      </trkpt>
      <trkpt lat="42.605717" lon="0.649847">
        <ele>2366.0</ele>
        <time>2010-07-02T10:23:08Z</time>
      </trkpt>
      <trkpt lat="42.605680" lon="0.650004">
        <ele>2369.6</ele>
        <time>2010-07-02T10:23:08Z</time>
      </trkpt>
      <trkpt lat="42.605655" lon="0.650091">
        <ele>2371.6</ele>
        <time>2010-07-02T10:23:08Z</time>
      </trkpt>
      <trkpt lat="42.605628" lon="0.650207">
        <ele>2374.2</ele>
        <time>2010-07-02T10:23:08Z</time>
      </trkpt>
      <trkpt lat="42.605615" lon="0.650319">
        <ele>2376.3</ele>
        <time>2010-07-02T10:23:08Z</time>
      </trkpt>
      <trkpt lat="42.605609" lon="0.650449">
        <ele>2378.7</ele>
        <time>2010-07-02T10:23:08Z</time>
      </trkpt>
      <trkpt lat="42.605592" lon="0.650518">
        <ele>2380.5</ele>
        <time>2010-07-02T10:23:08Z</time>
      </trkpt>
      <trkpt lat="42.605579" lon="0.650548">
        <ele>2381.3</ele>
        <time>2010-07-02T10:23:08Z</time>
      </trkpt>
      <trkpt lat="42.605544" lon="0.650621">
        <ele>2383.4</ele>
        <time>2010-07-02T10:23:08Z</time>
      </trkpt>
      <trkpt lat="42.605516" lon="0.650701">
        <ele>2385.4</ele>
        <time>2010-07-02T10:23:08Z</time>
      </trkpt>
      <trkpt lat="42.605501" lon="0.650767">
        <ele>2386.9</ele>
        <time>2010-07-02T10:23:08Z</time>
      </trkpt>
      <trkpt lat="42.605481" lon="0.650930">
        <ele>2390.3</ele>
        <time>2010-07-02T10:23:08Z</time>
      </trkpt>
      <trkpt lat="42.605480" lon="0.651005">
        <ele>2391.7</ele>
        <time>2010-07-02T10:23:08Z</time>
      </trkpt>
      <trkpt lat="42.605495" lon="0.651077">
        <ele>2392.9</ele>
        <time>2010-07-02T10:23:08Z</time>
      </trkpt>
      <trkpt lat="42.605522" lon="0.651140">
        <ele>2393.8</ele>
        <time>2010-07-02T10:23:08Z</time>
      </trkpt>
      <trkpt lat="42.605529" lon="0.651198">
        <ele>2394.8</ele>
        <time>2010-07-02T10:23:08Z</time>
      </trkpt>
      <trkpt lat="42.605514" lon="0.651267">
        <ele>2396.4</ele>
        <time>2010-07-02T10:23:08Z</time>
      </trkpt>
      <trkpt lat="42.605470" lon="0.651333">
        <ele>2398.7</ele>
        <time>2010-07-02T10:23:08Z</time>
      </trkpt>
      <trkpt lat="42.605407" lon="0.651347">
        <ele>2400.0</ele>
        <time>2010-07-02T10:23:08Z</time>
      </trkpt>
      <trkpt lat="42.605363" lon="0.651402">
        <ele>2403.4</ele>
        <time>2010-07-02T10:23:08Z</time>
      </trkpt>
      <trkpt lat="42.605353" lon="0.651424">
        <ele>2404.4</ele>
        <time>2010-07-02T10:23:08Z</time>
      </trkpt>
      <trkpt lat="42.605336" lon="0.651497">
        <ele>2407.1</ele>
        <time>2010-07-02T10:23:08Z</time>
      </trkpt>
      <trkpt lat="42.605327" lon="0.651595">
        <ele>2410.1</ele>
        <time>2010-07-02T10:23:08Z</time>
      </trkpt>
      <trkpt lat="42.605277" lon="0.651759">
        <ele>2416.6</ele>
        <time>2010-07-02T10:23:08Z</time>
      </trkpt>
      <trkpt lat="42.605275" lon="0.651924">
        <ele>2421.1</ele>
        <time>2010-07-02T10:23:08Z</time>
      </trkpt>
      <trkpt lat="42.605270" lon="0.652043">
        <ele>2424.5</ele>
        <time>2010-07-02T10:23:08Z</time>
      </trkpt>
      <trkpt lat="42.605269" lon="0.652133">
        <ele>2426.4</ele>
        <time>2010-07-02T10:23:08Z</time>
      </trkpt>
      <trkpt lat="42.605223" lon="0.652351">
        <ele>2432.0</ele>
        <time>2010-07-02T10:23:08Z</time>
      </trkpt>
      <trkpt lat="42.605161" lon="0.652707">
        <ele>2440.4</ele>
        <time>2010-07-02T10:23:08Z</time>
      </trkpt>
      <trkpt lat="42.605125" lon="0.652906">
        <ele>2445.1</ele>
        <time>2010-07-02T10:23:08Z</time>
      </trkpt>
      <trkpt lat="42.605030" lon="0.653187">
        <ele>2450.0</ele>
        <time>2010-07-02T10:23:08Z</time>
      </trkpt>
      <trkpt lat="42.604978" lon="0.653524">
        <ele>2452.7</ele>
        <time>2010-07-02T10:23:08Z</time>
      </trkpt>
      <trkpt lat="42.604925" lon="0.653778">
        <ele>2454.6</ele>
        <time>2010-07-02T10:23:08Z</time>
      </trkpt>
      <trkpt lat="42.604901" lon="0.654186">
        <ele>2453.2</ele>
        <time>2010-07-02T10:23:08Z</time>
      </trkpt>
      <trkpt lat="42.604929" lon="0.654642">
        <ele>2450.5</ele>
        <time>2010-07-02T10:23:08Z</time>
      </trkpt>
      <trkpt lat="42.604975" lon="0.654828">
        <ele>2449.0</ele>
        <time>2010-07-02T10:23:08Z</time>
      </trkpt>
      <trkpt lat="42.604969" lon="0.654929">
        <ele>2448.5</ele>
        <time>2010-07-02T10:23:08Z</time>
      </trkpt>
      <trkpt lat="42.604973" lon="0.655084">
        <ele>2447.6</ele>
        <time>2010-07-02T10:23:08Z</time>
      </trkpt>
      <trkpt lat="42.604971" lon="0.655239">
        <ele>2446.8</ele>
        <time>2010-07-02T10:23:08Z</time>
      </trkpt>
      <trkpt lat="42.604959" lon="0.655311">
        <ele>2446.6</ele>
        <time>2010-07-02T10:23:08Z</time>
      </trkpt>
      <trkpt lat="42.604938" lon="0.655492">
        <ele>2445.7</ele>
        <time>2010-07-02T10:23:08Z</time>
      </trkpt>
      <trkpt lat="42.604918" lon="0.655770">
        <ele>2443.7</ele>
        <time>2010-07-02T10:23:08Z</time>
      </trkpt>
      <trkpt lat="42.604920" lon="0.655900">
        <ele>2442.6</ele>
        <time>2010-07-02T10:23:08Z</time>
      </trkpt>
      <trkpt lat="42.604930" lon="0.655982">
        <ele>2441.9</ele>
        <time>2010-07-02T10:23:08Z</time>
      </trkpt>
      <trkpt lat="42.604938" lon="0.656137">
        <ele>2440.6</ele>
        <time>2010-07-02T10:23:08Z</time>
      </trkpt>
      <trkpt lat="42.604941" lon="0.656277">
        <ele>2439.6</ele>
        <time>2010-07-02T10:23:08Z</time>
      </trkpt>
      <trkpt lat="42.604937" lon="0.656346">
        <ele>2439.2</ele>
        <time>2010-07-02T10:23:08Z</time>
      </trkpt>
      <trkpt lat="42.604939" lon="0.656418">
        <ele>2438.9</ele>
        <time>2010-07-02T10:23:08Z</time>
      </trkpt>
      <trkpt lat="42.604986" lon="0.656510">
        <ele>2438.2</ele>
        <time>2010-07-02T10:23:08Z</time>
      </trkpt>
      <trkpt lat="42.605094" lon="0.656585">
        <ele>2437.2</ele>
        <time>2010-07-02T10:23:08Z</time>
      </trkpt>
      <trkpt lat="42.605174" lon="0.656618">
        <ele>2436.6</ele>
        <time>2010-07-02T10:23:08Z</time>
      </trkpt>
      <trkpt lat="42.605324" lon="0.656663">
        <ele>2435.5</ele>
        <time>2010-07-02T10:23:08Z</time>
      </trkpt>
      <trkpt lat="42.605385" lon="0.656660">
        <ele>2435.2</ele>
        <time>2010-07-02T10:23:08Z</time>
      </trkpt>
      <trkpt lat="42.605543" lon="0.656820">
        <ele>2437.0</ele>
        <time>2010-07-02T10:23:08Z</time>
      </trkpt>
      <trkpt lat="42.605783" lon="0.657092">
        <ele>2441.6</ele>
        <time>2010-07-02T10:23:08Z</time>
      </trkpt>
      <trkpt lat="42.605826" lon="0.657145">
        <ele>2442.5</ele>
        <time>2010-07-02T10:23:08Z</time>
      </trkpt>
      <trkpt lat="42.605866" lon="0.657280">
        <ele>2442.6</ele>
        <time>2010-07-02T10:23:08Z</time>
      </trkpt>
      <trkpt lat="42.605928" lon="0.657714">
        <ele>2441.2</ele>
        <time>2010-07-02T10:23:08Z</time>
      </trkpt>
      <trkpt lat="42.605931" lon="0.657980">
        <ele>2440.0</ele>
        <time>2010-07-02T10:23:08Z</time>
      </trkpt>
      <trkpt lat="42.605949" lon="0.658062">
        <ele>2440.5</ele>
        <time>2010-07-02T10:23:08Z</time>
      </trkpt>
      <trkpt lat="42.606016" lon="0.658207">
        <ele>2442.3</ele>
        <time>2010-07-02T10:23:08Z</time>
      </trkpt>
      <trkpt lat="42.606026" lon="0.658308">
        <ele>2442.8</ele>
        <time>2010-07-02T10:23:08Z</time>
      </trkpt>
      <trkpt lat="42.606020" lon="0.658567">
        <ele>2443.4</ele>
        <time>2010-07-02T10:23:08Z</time>
      </trkpt>
      <trkpt lat="42.606006" lon="0.658907">
        <ele>2444.0</ele>
        <time>2010-07-02T10:23:08Z</time>
      </trkpt>
      <trkpt lat="42.605986" lon="0.658987">
        <ele>2443.7</ele>
        <time>2010-07-02T10:23:08Z</time>
      </trkpt>
      <trkpt lat="42.605970" lon="0.659077">
        <ele>2443.5</ele>
        <time>2010-07-02T10:23:08Z</time>
      </trkpt>
      <trkpt lat="42.605931" lon="0.659154">
        <ele>2442.7</ele>
        <time>2010-07-02T10:23:08Z</time>
      </trkpt>
      <trkpt lat="42.605864" lon="0.659348">
        <ele>2441.6</ele>
        <time>2010-07-02T10:23:08Z</time>
      </trkpt>
      <trkpt lat="42.605716" lon="0.659670">
        <ele>2439.4</ele>
        <time>2010-07-02T10:23:08Z</time>
      </trkpt>
      <trkpt lat="42.605682" lon="0.659704">
        <ele>2438.9</ele>
        <time>2010-07-02T10:23:08Z</time>
      </trkpt>
      <trkpt lat="42.605584" lon="0.659736">
        <ele>2436.9</ele>
        <time>2010-07-02T10:23:08Z</time>
      </trkpt>
      <trkpt lat="42.605516" lon="0.659793">
        <ele>2436.0</ele>
        <time>2010-07-02T10:23:08Z</time>
      </trkpt>
      <trkpt lat="42.605450" lon="0.659958">
        <ele>2436.6</ele>
        <time>2010-07-02T10:23:08Z</time>
      </trkpt>
      <trkpt lat="42.605415" lon="0.660081">
        <ele>2437.6</ele>
        <time>2010-07-02T10:23:08Z</time>
      </trkpt>
      <trkpt lat="42.605419" lon="0.660359">
        <ele>2441.3</ele>
        <time>2010-07-02T10:23:08Z</time>
      </trkpt>
      <trkpt lat="42.605420" lon="0.660549">
        <ele>2443.8</ele>
        <time>2010-07-02T10:23:08Z</time>
      </trkpt>
      <trkpt lat="42.605414" lon="0.660643">
        <ele>2445.0</ele>
        <time>2010-07-02T10:23:08Z</time>
      </trkpt>
      <trkpt lat="42.605377" lon="0.660684">
        <ele>2445.7</ele>
        <time>2010-07-02T10:23:08Z</time>
      </trkpt>
      <trkpt lat="42.605316" lon="0.660697">
        <ele>2446.0</ele>
        <time>2010-07-02T10:23:08Z</time>
      </trkpt>
      <trkpt lat="42.605293" lon="0.660716">
        <ele>2446.3</ele>
        <time>2010-07-02T10:23:08Z</time>
      </trkpt>
      <trkpt lat="42.605237" lon="0.660862">
        <ele>2448.3</ele>
        <time>2010-07-02T10:23:08Z</time>
      </trkpt>
      <trkpt lat="42.605185" lon="0.661059">
        <ele>2450.7</ele>
        <time>2010-07-02T10:23:08Z</time>
      </trkpt>
      <trkpt lat="42.605153" lon="0.661284">
        <ele>2453.5</ele>
        <time>2010-07-02T10:23:08Z</time>
      </trkpt>
      <trkpt lat="42.605145" lon="0.661572">
        <ele>2458.1</ele>
        <time>2010-07-02T10:23:08Z</time>
      </trkpt>
      <trkpt lat="42.605128" lon="0.661760">
        <ele>2460.9</ele>
        <time>2010-07-02T10:23:08Z</time>
      </trkpt>
      <trkpt lat="42.605121" lon="0.661958">
        <ele>2463.8</ele>
        <time>2010-07-02T10:23:08Z</time>
      </trkpt>
      <trkpt lat="42.605110" lon="0.662045">
        <ele>2465.0</ele>
        <time>2010-07-02T10:23:08Z</time>
      </trkpt>
      <trkpt lat="42.605109" lon="0.662160">
        <ele>2465.9</ele>
        <time>2010-07-02T10:23:08Z</time>
      </trkpt>
      <trkpt lat="42.605128" lon="0.662282">
        <ele>2466.7</ele>
        <time>2010-07-02T10:23:08Z</time>
      </trkpt>
      <trkpt lat="42.605129" lon="0.662351">
        <ele>2467.1</ele>
        <time>2010-07-02T10:23:08Z</time>
      </trkpt>
      <trkpt lat="42.605118" lon="0.662459">
        <ele>2467.4</ele>
        <time>2010-07-02T10:23:08Z</time>
      </trkpt>
      <trkpt lat="42.605087" lon="0.662644">
        <ele>2468.1</ele>
        <time>2010-07-02T10:23:08Z</time>
      </trkpt>
      <trkpt lat="42.605066" lon="0.662767">
        <ele>2468.5</ele>
        <time>2010-07-02T10:23:08Z</time>
      </trkpt>
      <trkpt lat="42.605066" lon="0.662911">
        <ele>2469.3</ele>
        <time>2010-07-02T10:23:08Z</time>
      </trkpt>
      <trkpt lat="42.605022" lon="0.663068">
        <ele>2470.0</ele>
        <time>2010-07-02T10:23:08Z</time>
      </trkpt>
      <trkpt lat="42.604999" lon="0.663141">
        <ele>2470.3</ele>
        <time>2010-07-02T10:23:08Z</time>
      </trkpt>
      <trkpt lat="42.604924" lon="0.663226">
        <ele>2470.8</ele>
        <time>2010-07-02T10:23:08Z</time>
      </trkpt>
      <trkpt lat="42.604882" lon="0.663286">
        <ele>2471.3</ele>
        <time>2010-07-02T10:23:08Z</time>
      </trkpt>
      <trkpt lat="42.604884" lon="0.663649">
        <ele>2474.1</ele>
        <time>2010-07-02T10:23:08Z</time>
      </trkpt>
      <trkpt lat="42.604924" lon="0.664019">
        <ele>2477.0</ele>
        <time>2010-07-02T10:23:08Z</time>
      </trkpt>
      <trkpt lat="42.604978" lon="0.664446">
        <ele>2479.5</ele>
        <time>2010-07-02T10:23:08Z</time>
      </trkpt>
      <trkpt lat="42.605004" lon="0.664556">
        <ele>2479.7</ele>
        <time>2010-07-02T10:23:08Z</time>
      </trkpt>
      <trkpt lat="42.605035" lon="0.664649">
        <ele>2480.3</ele>
        <time>2010-07-02T10:23:08Z</time>
      </trkpt>
      <trkpt lat="42.605068" lon="0.664687">
        <ele>2480.0</ele>
        <time>2010-07-02T10:23:08Z</time>
      </trkpt>
      <trkpt lat="42.605117" lon="0.664739">
        <ele>2479.3</ele>
        <time>2010-07-02T10:23:08Z</time>
      </trkpt>
      <trkpt lat="42.605143" lon="0.664828">
        <ele>2479.6</ele>
        <time>2010-07-02T10:23:08Z</time>
      </trkpt>
      <trkpt lat="42.605138" lon="0.665019">
        <ele>2482.5</ele>
        <time>2010-07-02T10:23:08Z</time>
      </trkpt>
      <trkpt lat="42.605132" lon="0.665337">
        <ele>2487.3</ele>
        <time>2010-07-02T10:23:08Z</time>
      </trkpt>
      <trkpt lat="42.605121" lon="0.665470">
        <ele>2490.0</ele>
        <time>2010-07-02T10:23:08Z</time>
      </trkpt>
      <trkpt lat="42.605144" lon="0.665660">
        <ele>2491.5</ele>
        <time>2010-07-02T10:23:08Z</time>
      </trkpt>
      <trkpt lat="42.605164" lon="0.665746">
        <ele>2491.5</ele>
        <time>2010-07-02T10:23:08Z</time>
      </trkpt>
      <trkpt lat="42.605189" lon="0.665788">
        <ele>2490.6</ele>
        <time>2010-07-02T10:23:08Z</time>
      </trkpt>
      <trkpt lat="42.605206" lon="0.665867">
        <ele>2490.8</ele>
        <time>2010-07-02T10:23:08Z</time>
      </trkpt>
      <trkpt lat="42.605212" lon="0.665997">
        <ele>2492.5</ele>
        <time>2010-07-02T10:23:08Z</time>
      </trkpt>
      <trkpt lat="42.605244" lon="0.666179">
        <ele>2493.4</ele>
        <time>2010-07-02T10:23:08Z</time>
      </trkpt>
      <trkpt lat="42.605261" lon="0.666330">
        <ele>2494.5</ele>
        <time>2010-07-02T10:23:08Z</time>
      </trkpt>
      <trkpt lat="42.605282" lon="0.666574">
        <ele>2496.5</ele>
        <time>2010-07-02T10:23:08Z</time>
      </trkpt>
      <trkpt lat="42.605271" lon="0.666844">
        <ele>2500.6</ele>
        <time>2010-07-02T10:23:08Z</time>
      </trkpt>
      <trkpt lat="42.605283" lon="0.667143">
        <ele>2504.3</ele>
        <time>2010-07-02T10:23:08Z</time>
      </trkpt>
      <trkpt lat="42.605275" lon="0.667269">
        <ele>2507.2</ele>
        <time>2010-07-02T10:23:08Z</time>
      </trkpt>
      <trkpt lat="42.605328" lon="0.667390">
        <ele>2507.3</ele>
        <time>2010-07-02T10:23:08Z</time>
      </trkpt>
      <trkpt lat="42.605383" lon="0.667507">
        <ele>2507.5</ele>
        <time>2010-07-02T10:23:08Z</time>
      </trkpt>
      <trkpt lat="42.605404" lon="0.667585">
        <ele>2508.5</ele>
        <time>2010-07-02T10:23:08Z</time>
      </trkpt>
      <trkpt lat="42.605425" lon="0.667703">
        <ele>2510.7</ele>
        <time>2010-07-02T10:23:08Z</time>
      </trkpt>
      <trkpt lat="42.605454" lon="0.667965">
        <ele>2516.4</ele>
        <time>2010-07-02T10:23:08Z</time>
      </trkpt>
      <trkpt lat="42.605464" lon="0.668224">
        <ele>2523.6</ele>
        <time>2010-07-02T10:23:08Z</time>
      </trkpt>
      <trkpt lat="42.605497" lon="0.668381">
        <ele>2527.3</ele>
        <time>2010-07-02T10:23:08Z</time>
      </trkpt>
      <trkpt lat="42.605525" lon="0.668441">
        <ele>2528.3</ele>
        <time>2010-07-02T10:23:08Z</time>
      </trkpt>
      <trkpt lat="42.605564" lon="0.668519">
        <ele>2529.6</ele>
        <time>2010-07-02T10:23:08Z</time>
      </trkpt>
      <trkpt lat="42.605601" lon="0.668637">
        <ele>2532.1</ele>
        <time>2010-07-02T10:23:08Z</time>
      </trkpt>
      <trkpt lat="42.605669" lon="0.668850">
        <ele>2535.1</ele>
        <time>2010-07-02T10:23:08Z</time>
      </trkpt>
      <trkpt lat="42.605676" lon="0.668954">
        <ele>2536.4</ele>
        <time>2010-07-02T10:23:08Z</time>
      </trkpt>
      <trkpt lat="42.605662" lon="0.669023">
        <ele>2537.7</ele>
        <time>2010-07-02T10:23:08Z</time>
      </trkpt>
      <trkpt lat="42.605624" lon="0.669104">
        <ele>2539.7</ele>
        <time>2010-07-02T10:23:08Z</time>
      </trkpt>
      <trkpt lat="42.605598" lon="0.669152">
        <ele>2540.9</ele>
        <time>2010-07-02T10:23:08Z</time>
      </trkpt>
      <trkpt lat="42.605551" lon="0.669204">
        <ele>2542.6</ele>
        <time>2010-07-02T10:23:08Z</time>
      </trkpt>
      <trkpt lat="42.605520" lon="0.669266">
        <ele>2544.0</ele>
        <time>2010-07-02T10:23:08Z</time>
      </trkpt>
      <trkpt lat="42.605503" lon="0.669332">
        <ele>2545.2</ele>
        <time>2010-07-02T10:23:08Z</time>
      </trkpt>
      <trkpt lat="42.605493" lon="0.669469">
        <ele>2547.2</ele>
        <time>2010-07-02T10:23:08Z</time>
      </trkpt>
      <trkpt lat="42.605471" lon="0.669585">
        <ele>2549.1</ele>
        <time>2010-07-02T10:23:08Z</time>
      </trkpt>
      <trkpt lat="42.605441" lon="0.669684">
        <ele>2551.5</ele>
        <time>2010-07-02T10:23:08Z</time>
      </trkpt>
      <trkpt lat="42.605384" lon="0.669776">
        <ele>2554.2</ele>
        <time>2010-07-02T10:23:08Z</time>
      </trkpt>
      <trkpt lat="42.605310" lon="0.669804">
        <ele>2555.9</ele>
        <time>2010-07-02T10:23:08Z</time>
      </trkpt>
      <trkpt lat="42.605242" lon="0.669857">
        <ele>2558.0</ele>
        <time>2010-07-02T10:23:08Z</time>
      </trkpt>
      <trkpt lat="42.605207" lon="0.669934">
        <ele>2560.0</ele>
        <time>2010-07-02T10:23:08Z</time>
      </trkpt>
      <trkpt lat="42.605174" lon="0.670018">
        <ele>2562.1</ele>
        <time>2010-07-02T10:23:08Z</time>
      </trkpt>
      <trkpt lat="42.605141" lon="0.670084">
        <ele>2563.9</ele>
        <time>2010-07-02T10:23:08Z</time>
      </trkpt>
      <trkpt lat="42.605113" lon="0.670186">
        <ele>2566.1</ele>
        <time>2010-07-02T10:23:08Z</time>
      </trkpt>
      <trkpt lat="42.605093" lon="0.670359">
        <ele>2569.6</ele>
        <time>2010-07-02T10:23:08Z</time>
      </trkpt>
      <trkpt lat="42.605087" lon="0.670579">
        <ele>2575.0</ele>
        <time>2010-07-02T10:23:08Z</time>
      </trkpt>
      <trkpt lat="42.605028" lon="0.670582">
        <ele>2575.9</ele>
        <time>2010-07-02T10:23:08Z</time>
      </trkpt>
      <trkpt lat="42.604994" lon="0.670604">
        <ele>2576.9</ele>
        <time>2010-07-02T10:23:08Z</time>
      </trkpt>
      <trkpt lat="42.604971" lon="0.670652">
        <ele>2578.5</ele>
        <time>2010-07-02T10:23:08Z</time>
      </trkpt>
      <trkpt lat="42.604959" lon="0.670717">
        <ele>2580.3</ele>
        <time>2010-07-02T10:23:08Z</time>
      </trkpt>
      <trkpt lat="42.604966" lon="0.670768">
        <ele>2581.5</ele>
        <time>2010-07-02T10:23:08Z</time>
      </trkpt>
      <trkpt lat="42.604989" lon="0.670850">
        <ele>2583.3</ele>
        <time>2010-07-02T10:23:08Z</time>
      </trkpt>
      <trkpt lat="42.604990" lon="0.670900">
        <ele>2584.6</ele>
        <time>2010-07-02T10:23:08Z</time>
      </trkpt>
      <trkpt lat="42.604945" lon="0.670945">
        <ele>2586.4</ele>
        <time>2010-07-02T10:23:08Z</time>
      </trkpt>
      <trkpt lat="42.604857" lon="0.671074">
        <ele>2590.9</ele>
        <time>2010-07-02T10:23:08Z</time>
      </trkpt>
      <trkpt lat="42.604814" lon="0.671166">
        <ele>2593.8</ele>
        <time>2010-07-02T10:23:08Z</time>
      </trkpt>
      <trkpt lat="42.604810" lon="0.671252">
        <ele>2596.1</ele>
        <time>2010-07-02T10:23:08Z</time>
      </trkpt>
      <trkpt lat="42.604812" lon="0.671360">
        <ele>2598.7</ele>
        <time>2010-07-02T10:23:08Z</time>
      </trkpt>
      <trkpt lat="42.604801" lon="0.671462">
        <ele>2601.3</ele>
        <time>2010-07-02T10:23:08Z</time>
      </trkpt>
      <trkpt lat="42.604742" lon="0.671561">
        <ele>2604.6</ele>
        <time>2010-07-02T10:23:08Z</time>
      </trkpt>
      <trkpt lat="42.604679" lon="0.671618">
        <ele>2606.9</ele>
        <time>2010-07-02T10:23:08Z</time>
      </trkpt>
      <trkpt lat="42.604630" lon="0.671699">
        <ele>2609.6</ele>
        <time>2010-07-02T10:23:08Z</time>
      </trkpt>
      <trkpt lat="42.604611" lon="0.671800">
        <ele>2612.4</ele>
        <time>2010-07-02T10:23:08Z</time>
      </trkpt>
      <trkpt lat="42.604599" lon="0.671873">
        <ele>2614.5</ele>
        <time>2010-07-02T10:23:08Z</time>
      </trkpt>
      <trkpt lat="42.604545" lon="0.671965">
        <ele>2618.2</ele>
        <time>2010-07-02T10:23:08Z</time>
      </trkpt>
      <trkpt lat="42.604360" lon="0.672152">
        <ele>2628.0</ele>
        <time>2010-07-02T10:23:08Z</time>
      </trkpt>
      <trkpt lat="42.604310" lon="0.672182">
        <ele>2630.1</ele>
        <time>2010-07-02T10:23:08Z</time>
      </trkpt>
      <trkpt lat="42.604104" lon="0.672248">
        <ele>2638.1</ele>
        <time>2010-07-02T10:23:08Z</time>
      </trkpt>
      <trkpt lat="42.603901" lon="0.672316">
        <ele>2646.4</ele>
        <time>2010-07-02T10:23:08Z</time>
      </trkpt>
      <trkpt lat="42.603763" lon="0.672358">
        <ele>2652.1</ele>
        <time>2010-07-02T10:23:08Z</time>
      </trkpt>
      <trkpt lat="42.603603" lon="0.672450">
        <ele>2660.8</ele>
        <time>2010-07-02T10:23:08Z</time>
      </trkpt>
      <trkpt lat="42.603441" lon="0.672600">
        <ele>2671.5</ele>
        <time>2010-07-02T10:23:08Z</time>
      </trkpt>
      <trkpt lat="42.603388" lon="0.672757">
        <ele>2678.1</ele>
        <time>2010-07-02T10:23:08Z</time>
      </trkpt>
      <trkpt lat="42.603358" lon="0.672999">
        <ele>2685.6</ele>
        <time>2010-07-02T10:23:08Z</time>
      </trkpt>
      <trkpt lat="42.603372" lon="0.673255">
        <ele>2690.5</ele>
        <time>2010-07-02T10:23:08Z</time>
      </trkpt>
      <trkpt lat="42.603373" lon="0.673482">
        <ele>2695.2</ele>
        <time>2010-07-02T10:23:08Z</time>
      </trkpt>
      <trkpt lat="42.603348" lon="0.673555">
        <ele>2698.3</ele>
        <time>2010-07-02T10:23:08Z</time>
      </trkpt>
      <trkpt lat="42.603257" lon="0.673626">
        <ele>2705.4</ele>
        <time>2010-07-02T10:23:08Z</time>
      </trkpt>
      <trkpt lat="42.603214" lon="0.673740">
        <ele>2710.8</ele>
        <time>2010-07-02T10:23:08Z</time>
      </trkpt>
      <trkpt lat="42.603200" lon="0.673852">
        <ele>2713.0</ele>
        <time>2010-07-02T10:23:08Z</time>
      </trkpt>
      <trkpt lat="42.603216" lon="0.673995">
        <ele>2713.4</ele>
        <time>2010-07-02T10:23:08Z</time>
      </trkpt>
      <trkpt lat="42.603226" lon="0.674103">
        <ele>2713.7</ele>
        <time>2010-07-02T10:23:08Z</time>
      </trkpt>
      <trkpt lat="42.603216" lon="0.674251">
        <ele>2715.9</ele>
        <time>2010-07-02T10:23:08Z</time>
      </trkpt>
      <trkpt lat="42.603240" lon="0.674376">
        <ele>2715.5</ele>
        <time>2010-07-02T10:23:08Z</time>
      </trkpt>
      <trkpt lat="42.603185" lon="0.674422">
        <ele>2719.7</ele>
        <time>2010-07-02T10:23:08Z</time>
      </trkpt>
      <trkpt lat="42.603090" lon="0.674465">
        <ele>2726.6</ele>
        <time>2010-07-02T10:23:08Z</time>
      </trkpt>
      <trkpt lat="42.603066" lon="0.674536">
        <ele>2729.1</ele>
        <time>2010-07-02T10:23:08Z</time>
      </trkpt>
      <trkpt lat="42.602966" lon="0.674631">
        <ele>2735.9</ele>
        <time>2010-07-02T10:23:08Z</time>
      </trkpt>
      <trkpt lat="42.602895" lon="0.674660">
        <ele>2739.1</ele>
        <time>2010-07-02T10:23:08Z</time>
      </trkpt>
      <trkpt lat="42.602817" lon="0.674796">
        <ele>2737.8</ele>
        <time>2010-07-02T10:23:08Z</time>
      </trkpt>
      <trkpt lat="42.602810" lon="0.674899">
        <ele>2735.7</ele>
        <time>2010-07-02T10:23:08Z</time>
      </trkpt>
      <trkpt lat="42.602744" lon="0.674929">
        <ele>2735.6</ele>
        <time>2010-07-02T10:23:08Z</time>
      </trkpt>
      <trkpt lat="42.602734" lon="0.675026">
        <ele>2733.4</ele>
        <time>2010-07-02T10:23:08Z</time>
      </trkpt>
      <trkpt lat="42.602685" lon="0.675042">
        <ele>2733.2</ele>
        <time>2010-07-02T10:23:08Z</time>
      </trkpt>
      <trkpt lat="42.602646" lon="0.675133">
        <ele>2730.8</ele>
        <time>2010-07-02T10:23:08Z</time>
      </trkpt>
      <trkpt lat="42.602643" lon="0.675231">
        <ele>2728.1</ele>
        <time>2010-07-02T10:23:08Z</time>
      </trkpt>
      <trkpt lat="42.602626" lon="0.675354">
        <ele>2724.6</ele>
        <time>2010-07-02T10:23:08Z</time>
      </trkpt>
      <trkpt lat="42.602619" lon="0.675365">
        <ele>2724.3</ele>
        <time>2010-07-02T10:23:08Z</time>
      </trkpt>
      <trkpt lat="42.602574" lon="0.675388">
        <ele>2723.2</ele>
        <time>2010-07-02T10:23:08Z</time>
      </trkpt>
      <trkpt lat="42.602474" lon="0.675351">
        <ele>2723.5</ele>
        <time>2010-07-02T10:23:08Z</time>
      </trkpt>
      <trkpt lat="42.602456" lon="0.675468">
        <ele>2719.3</ele>
        <time>2010-07-02T10:23:08Z</time>
      </trkpt>
      <trkpt lat="42.602405" lon="0.675578">
        <ele>2715.0</ele>
        <time>2010-07-02T10:23:08Z</time>
      </trkpt>
      <trkpt lat="42.602360" lon="0.675587">
        <ele>2714.1</ele>
        <time>2010-07-02T10:23:08Z</time>
      </trkpt>
      <trkpt lat="42.602268" lon="0.675518">
        <ele>2715.4</ele>
        <time>2010-07-02T10:23:08Z</time>
      </trkpt>
      <trkpt lat="42.602263" lon="0.675641">
        <ele>2711.0</ele>
        <time>2010-07-02T10:23:08Z</time>
      </trkpt>
      <trkpt lat="42.602231" lon="0.675726">
        <ele>2707.5</ele>
        <time>2010-07-02T10:23:08Z</time>
      </trkpt>
      <trkpt lat="42.602154" lon="0.675677">
        <ele>2708.2</ele>
        <time>2010-07-02T10:23:08Z</time>
      </trkpt>
      <trkpt lat="42.602076" lon="0.675653">
        <ele>2708.0</ele>
        <time>2010-07-02T10:23:08Z</time>
      </trkpt>
      <trkpt lat="42.602078" lon="0.675741">
        <ele>2704.8</ele>
        <time>2010-07-02T10:23:08Z</time>
      </trkpt>
      <trkpt lat="42.602035" lon="0.675855">
        <ele>2699.7</ele>
        <time>2010-07-02T10:23:08Z</time>
      </trkpt>
      <trkpt lat="42.601918" lon="0.676079">
        <ele>2689.6</ele>
        <time>2010-07-02T10:23:08Z</time>
      </trkpt>
      <trkpt lat="42.601789" lon="0.676289">
        <ele>2681.0</ele>
        <time>2010-07-02T10:23:08Z</time>
      </trkpt>
      <trkpt lat="42.601720" lon="0.676458">
        <ele>2675.3</ele>
        <time>2010-07-02T10:23:08Z</time>
      </trkpt>
      <trkpt lat="42.601730" lon="0.676687">
        <ele>2668.9</ele>
        <time>2010-07-02T10:23:08Z</time>
      </trkpt>
      <trkpt lat="42.601696" lon="0.676811">
        <ele>2665.0</ele>
        <time>2010-07-02T10:23:08Z</time>
      </trkpt>
      <trkpt lat="42.601644" lon="0.677046">
        <ele>2657.8</ele>
        <time>2010-07-02T10:23:08Z</time>
      </trkpt>
      <trkpt lat="42.601544" lon="0.677224">
        <ele>2652.3</ele>
        <time>2010-07-02T10:23:08Z</time>
      </trkpt>
      <trkpt lat="42.601456" lon="0.677353">
        <ele>2647.8</ele>
        <time>2010-07-02T10:23:08Z</time>
      </trkpt>
      <trkpt lat="42.601362" lon="0.677414">
        <ele>2644.6</ele>
        <time>2010-07-02T10:23:08Z</time>
      </trkpt>
      <trkpt lat="42.601292" lon="0.677514">
        <ele>2640.4</ele>
        <time>2010-07-02T10:23:08Z</time>
      </trkpt>
      <trkpt lat="42.601278" lon="0.677630">
        <ele>2636.5</ele>
        <time>2010-07-02T10:23:08Z</time>
      </trkpt>
      <trkpt lat="42.601229" lon="0.677712">
        <ele>2632.8</ele>
        <time>2010-07-02T10:23:08Z</time>
      </trkpt>
      <trkpt lat="42.601161" lon="0.677763">
        <ele>2629.5</ele>
        <time>2010-07-02T10:23:08Z</time>
      </trkpt>
      <trkpt lat="42.601092" lon="0.677777">
        <ele>2627.3</ele>
        <time>2010-07-02T10:23:08Z</time>
      </trkpt>
      <trkpt lat="42.601040" lon="0.677797">
        <ele>2625.4</ele>
        <time>2010-07-02T10:23:08Z</time>
      </trkpt>
      <trkpt lat="42.600964" lon="0.677879">
        <ele>2620.9</ele>
        <time>2010-07-02T10:23:08Z</time>
      </trkpt>
      <trkpt lat="42.600888" lon="0.677936">
        <ele>2617.3</ele>
        <time>2010-07-02T10:23:08Z</time>
      </trkpt>
      <trkpt lat="42.600735" lon="0.677938">
        <ele>2613.4</ele>
        <time>2010-07-02T10:23:08Z</time>
      </trkpt>
      <trkpt lat="42.600628" lon="0.677980">
        <ele>2609.4</ele>
        <time>2010-07-02T10:23:08Z</time>
      </trkpt>
      <trkpt lat="42.600577" lon="0.678099">
        <ele>2604.3</ele>
        <time>2010-07-02T10:23:08Z</time>
      </trkpt>
      <trkpt lat="42.600576" lon="0.678182">
        <ele>2601.7</ele>
        <time>2010-07-02T10:23:08Z</time>
      </trkpt>
      <trkpt lat="42.600611" lon="0.678292">
        <ele>2599.3</ele>
        <time>2010-07-02T10:23:08Z</time>
      </trkpt>
      <trkpt lat="42.600606" lon="0.678389">
        <ele>2596.1</ele>
        <time>2010-07-02T10:23:08Z</time>
      </trkpt>
      <trkpt lat="42.600540" lon="0.678453">
        <ele>2592.2</ele>
        <time>2010-07-02T10:23:08Z</time>
      </trkpt>
      <trkpt lat="42.600489" lon="0.678452">
        <ele>2590.8</ele>
        <time>2010-07-02T10:23:08Z</time>
      </trkpt>
      <trkpt lat="42.600420" lon="0.678446">
        <ele>2588.9</ele>
        <time>2010-07-02T10:23:08Z</time>
      </trkpt>
      <trkpt lat="42.600357" lon="0.678427">
        <ele>2587.4</ele>
        <time>2010-07-02T10:23:08Z</time>
      </trkpt>
      <trkpt lat="42.600351" lon="0.678467">
        <ele>2585.9</ele>
        <time>2010-07-02T10:23:08Z</time>
      </trkpt>
      <trkpt lat="42.600304" lon="0.678502">
        <ele>2583.1</ele>
        <time>2010-07-02T10:23:08Z</time>
      </trkpt>
      <trkpt lat="42.600281" lon="0.678599">
        <ele>2579.2</ele>
        <time>2010-07-02T10:23:08Z</time>
      </trkpt>
      <trkpt lat="42.600265" lon="0.678680">
        <ele>2576.0</ele>
        <time>2010-07-02T10:23:08Z</time>
      </trkpt>
      <trkpt lat="42.600227" lon="0.678793">
        <ele>2571.6</ele>
        <time>2010-07-02T10:23:08Z</time>
      </trkpt>
      <trkpt lat="42.600112" lon="0.678919">
        <ele>2565.4</ele>
        <time>2010-07-02T10:23:08Z</time>
      </trkpt>
      <trkpt lat="42.600026" lon="0.678992">
        <ele>2561.2</ele>
        <time>2010-07-02T10:23:08Z</time>
      </trkpt>
      <trkpt lat="42.599903" lon="0.679019">
        <ele>2556.6</ele>
        <time>2010-07-02T10:23:08Z</time>
      </trkpt>
      <trkpt lat="42.599804" lon="0.678940">
        <ele>2554.5</ele>
        <time>2010-07-02T10:23:08Z</time>
      </trkpt>
      <trkpt lat="42.599699" lon="0.678966">
        <ele>2550.6</ele>
        <time>2010-07-02T10:23:08Z</time>
      </trkpt>
      <trkpt lat="42.599628" lon="0.679062">
        <ele>2546.6</ele>
        <time>2010-07-02T10:23:08Z</time>
      </trkpt>
      <trkpt lat="42.599577" lon="0.679116">
        <ele>2544.1</ele>
        <time>2010-07-02T10:23:08Z</time>
      </trkpt>
      <trkpt lat="42.599516" lon="0.679147">
        <ele>2542.3</ele>
        <time>2010-07-02T10:23:08Z</time>
      </trkpt>
      <trkpt lat="42.599440" lon="0.679154">
        <ele>2540.5</ele>
        <time>2010-07-02T10:23:08Z</time>
      </trkpt>
      <trkpt lat="42.599412" lon="0.679035">
        <ele>2541.7</ele>
        <time>2010-07-02T10:23:08Z</time>
      </trkpt>
      <trkpt lat="42.599362" lon="0.678940">
        <ele>2542.1</ele>
        <time>2010-07-02T10:23:08Z</time>
      </trkpt>
      <trkpt lat="42.599275" lon="0.678947">
        <ele>2540.0</ele>
        <time>2010-07-02T10:23:08Z</time>
      </trkpt>
      <trkpt lat="42.599148" lon="0.679008">
        <ele>2536.2</ele>
        <time>2010-07-02T10:23:08Z</time>
      </trkpt>
      <trkpt lat="42.599066" lon="0.678959">
        <ele>2535.1</ele>
        <time>2010-07-02T10:23:08Z</time>
      </trkpt>
      <trkpt lat="42.599015" lon="0.678879">
        <ele>2535.1</ele>
        <time>2010-07-02T10:23:08Z</time>
      </trkpt>
      <trkpt lat="42.598976" lon="0.678817">
        <ele>2535.2</ele>
        <time>2010-07-02T10:23:08Z</time>
      </trkpt>
      <trkpt lat="42.598919" lon="0.678733">
        <ele>2535.2</ele>
        <time>2010-07-02T10:23:08Z</time>
      </trkpt>
      <trkpt lat="42.598884" lon="0.678709">
        <ele>2534.8</ele>
        <time>2010-07-02T10:23:08Z</time>
      </trkpt>
      <trkpt lat="42.598843" lon="0.678659">
        <ele>2534.8</ele>
        <time>2010-07-02T10:23:08Z</time>
      </trkpt>
      <trkpt lat="42.598802" lon="0.678622">
        <ele>2534.5</ele>
        <time>2010-07-02T10:23:08Z</time>
      </trkpt>
      <trkpt lat="42.598746" lon="0.678641">
        <ele>2532.8</ele>
        <time>2010-07-02T10:23:08Z</time>
      </trkpt>
      <trkpt lat="42.598709" lon="0.678697">
        <ele>2531.6</ele>
        <time>2010-07-02T10:23:08Z</time>
      </trkpt>
      <trkpt lat="42.598661" lon="0.678714">
        <ele>2531.0</ele>
        <time>2010-07-02T10:23:08Z</time>
      </trkpt>
      <trkpt lat="42.598611" lon="0.678692">
        <ele>2531.1</ele>
        <time>2010-07-02T10:23:08Z</time>
      </trkpt>
      <trkpt lat="42.598577" lon="0.678656">
        <ele>2531.4</ele>
        <time>2010-07-02T10:23:08Z</time>
      </trkpt>
      <trkpt lat="42.598518" lon="0.678636">
        <ele>2531.3</ele>
        <time>2010-07-02T10:23:08Z</time>
      </trkpt>
      <trkpt lat="42.598467" lon="0.678613">
        <ele>2531.3</ele>
        <time>2010-07-02T10:23:08Z</time>
      </trkpt>
      <trkpt lat="42.598416" lon="0.678590">
        <ele>2531.2</ele>
        <time>2010-07-02T10:23:08Z</time>
      </trkpt>
      <trkpt lat="42.598368" lon="0.678581">
        <ele>2531.0</ele>
        <time>2010-07-02T10:23:08Z</time>
      </trkpt>
      <trkpt lat="42.598315" lon="0.678594">
        <ele>2530.4</ele>
        <time>2010-07-02T10:23:08Z</time>
      </trkpt>
      <trkpt lat="42.598281" lon="0.678606">
        <ele>2530.0</ele>
        <time>2010-07-02T10:23:08Z</time>
      </trkpt>
      <trkpt lat="42.598233" lon="0.678611">
        <ele>2529.6</ele>
        <time>2010-07-02T10:23:08Z</time>
      </trkpt>
      <trkpt lat="42.598221" lon="0.678654">
        <ele>2529.0</ele>
        <time>2010-07-02T10:23:08Z</time>
      </trkpt>
      <trkpt lat="42.598210" lon="0.678696">
        <ele>2528.4</ele>
        <time>2010-07-02T10:23:08Z</time>
      </trkpt>
      <trkpt lat="42.598162" lon="0.678668">
        <ele>2528.4</ele>
        <time>2010-07-02T10:23:08Z</time>
      </trkpt>
      <trkpt lat="42.598141" lon="0.678679">
        <ele>2528.2</ele>
        <time>2010-07-02T10:23:08Z</time>
      </trkpt>
      <trkpt lat="42.598123" lon="0.678680">
        <ele>2528.0</ele>
        <time>2010-07-02T10:23:08Z</time>
      </trkpt>
      <trkpt lat="42.598067" lon="0.678635">
        <ele>2528.2</ele>
        <time>2010-07-02T10:23:08Z</time>
      </trkpt>
      <trkpt lat="42.598027" lon="0.678690">
        <ele>2527.3</ele>
        <time>2010-07-02T10:23:08Z</time>
      </trkpt>
      <trkpt lat="42.598016" lon="0.678768">
        <ele>2526.4</ele>
        <time>2010-07-02T10:23:08Z</time>
      </trkpt>
      <trkpt lat="42.598001" lon="0.678875">
        <ele>2525.4</ele>
        <time>2010-07-02T10:23:08Z</time>
      </trkpt>
      <trkpt lat="42.598034" lon="0.678972">
        <ele>2524.7</ele>
        <time>2010-07-02T10:23:08Z</time>
      </trkpt>
      <trkpt lat="42.598084" lon="0.679005">
        <ele>2524.6</ele>
        <time>2010-07-02T10:23:08Z</time>
      </trkpt>
      <trkpt lat="42.598118" lon="0.679127">
        <ele>2523.5</ele>
        <time>2010-07-02T10:23:08Z</time>
      </trkpt>
      <trkpt lat="42.598160" lon="0.679204">
        <ele>2522.8</ele>
        <time>2010-07-02T10:23:08Z</time>
      </trkpt>
      <trkpt lat="42.598188" lon="0.679304">
        <ele>2521.9</ele>
        <time>2010-07-02T10:23:08Z</time>
      </trkpt>
      <trkpt lat="42.598204" lon="0.679430">
        <ele>2520.6</ele>
        <time>2010-07-02T10:23:08Z</time>
      </trkpt>
      <trkpt lat="42.598182" lon="0.679528">
        <ele>2519.6</ele>
        <time>2010-07-02T10:23:08Z</time>
      </trkpt>
      <trkpt lat="42.598143" lon="0.679670">
        <ele>2516.3</ele>
        <time>2010-07-02T10:23:08Z</time>
      </trkpt>
      <trkpt lat="42.598069" lon="0.679805">
        <ele>2511.9</ele>
        <time>2010-07-02T10:23:08Z</time>
      </trkpt>
      <trkpt lat="42.598033" lon="0.679961">
        <ele>2506.9</ele>
        <time>2010-07-02T10:23:08Z</time>
      </trkpt>
      <trkpt lat="42.598040" lon="0.680115">
        <ele>2502.0</ele>
        <time>2010-07-02T10:23:08Z</time>
      </trkpt>
      <trkpt lat="42.598120" lon="0.680240">
        <ele>2498.1</ele>
        <time>2010-07-02T10:23:08Z</time>
      </trkpt>
      <trkpt lat="42.598209" lon="0.680415">
        <ele>2492.7</ele>
        <time>2010-07-02T10:23:08Z</time>
      </trkpt>
      <trkpt lat="42.598237" lon="0.680521">
        <ele>2488.4</ele>
        <time>2010-07-02T10:23:08Z</time>
      </trkpt>
      <trkpt lat="42.598234" lon="0.680588">
        <ele>2485.6</ele>
        <time>2010-07-02T10:23:08Z</time>
      </trkpt>
      <trkpt lat="42.598170" lon="0.680627">
        <ele>2483.5</ele>
        <time>2010-07-02T10:23:08Z</time>
      </trkpt>
      <trkpt lat="42.598150" lon="0.680703">
        <ele>2480.0</ele>
        <time>2010-07-02T10:23:08Z</time>
      </trkpt>
      <trkpt lat="42.598193" lon="0.680765">
        <ele>2477.7</ele>
        <time>2010-07-02T10:23:08Z</time>
      </trkpt>
      <trkpt lat="42.598225" lon="0.680791">
        <ele>2477.0</ele>
        <time>2010-07-02T10:23:08Z</time>
      </trkpt>
      <trkpt lat="42.598253" lon="0.680793">
        <ele>2477.3</ele>
        <time>2010-07-02T10:23:08Z</time>
      </trkpt>
      <trkpt lat="42.598262" lon="0.680854">
        <ele>2474.9</ele>
        <time>2010-07-02T10:23:08Z</time>
      </trkpt>
      <trkpt lat="42.598264" lon="0.680933">
        <ele>2471.7</ele>
        <time>2010-07-02T10:23:08Z</time>
      </trkpt>
      <trkpt lat="42.598234" lon="0.681035">
        <ele>2466.9</ele>
        <time>2010-07-02T10:23:08Z</time>
      </trkpt>
      <trkpt lat="42.598218" lon="0.681148">
        <ele>2461.9</ele>
        <time>2010-07-02T10:23:08Z</time>
      </trkpt>
      <trkpt lat="42.598234" lon="0.681259">
        <ele>2457.7</ele>
        <time>2010-07-02T10:23:08Z</time>
      </trkpt>
      <trkpt lat="42.598278" lon="0.681295">
        <ele>2457.6</ele>
        <time>2010-07-02T10:23:08Z</time>
      </trkpt>
      <trkpt lat="42.598329" lon="0.681360">
        <ele>2456.6</ele>
        <time>2010-07-02T10:23:08Z</time>
      </trkpt>
      <trkpt lat="42.598366" lon="0.681376">
        <ele>2457.0</ele>
        <time>2010-07-02T10:23:08Z</time>
      </trkpt>
      <trkpt lat="42.598451" lon="0.681400">
        <ele>2458.3</ele>
        <time>2010-07-02T10:23:08Z</time>
      </trkpt>
      <trkpt lat="42.598498" lon="0.681439">
        <ele>2458.0</ele>
        <time>2010-07-02T10:23:08Z</time>
      </trkpt>
      <trkpt lat="42.598519" lon="0.681505">
        <ele>2456.3</ele>
        <time>2010-07-02T10:23:08Z</time>
      </trkpt>
      <trkpt lat="42.598511" lon="0.681595">
        <ele>2452.9</ele>
        <time>2010-07-02T10:23:08Z</time>
      </trkpt>
      <trkpt lat="42.598498" lon="0.681671">
        <ele>2450.0</ele>
        <time>2010-07-02T10:23:08Z</time>
      </trkpt>
      <trkpt lat="42.598447" lon="0.681750">
        <ele>2446.0</ele>
        <time>2010-07-02T10:23:08Z</time>
      </trkpt>
      <trkpt lat="42.598383" lon="0.681792">
        <ele>2443.1</ele>
        <time>2010-07-02T10:23:08Z</time>
      </trkpt>
      <trkpt lat="42.598254" lon="0.681744">
        <ele>2441.8</ele>
        <time>2010-07-02T10:23:08Z</time>
      </trkpt>
      <trkpt lat="42.598155" lon="0.681752">
        <ele>2439.2</ele>
        <time>2010-07-02T10:23:08Z</time>
      </trkpt>
      <trkpt lat="42.598096" lon="0.681824">
        <ele>2435.5</ele>
        <time>2010-07-02T10:23:08Z</time>
      </trkpt>
      <trkpt lat="42.598083" lon="0.681988">
        <ele>2429.8</ele>
        <time>2010-07-02T10:23:08Z</time>
      </trkpt>
      <trkpt lat="42.598050" lon="0.682064">
        <ele>2426.5</ele>
        <time>2010-07-02T10:23:08Z</time>
      </trkpt>
      <trkpt lat="42.598010" lon="0.682179">
        <ele>2422.7</ele>
        <time>2010-07-02T10:23:08Z</time>
      </trkpt>
      <trkpt lat="42.597954" lon="0.682218">
        <ele>2420.6</ele>
        <time>2010-07-02T10:23:08Z</time>
      </trkpt>
      <trkpt lat="42.597894" lon="0.682058">
        <ele>2423.5</ele>
        <time>2010-07-02T10:23:08Z</time>
      </trkpt>
      <trkpt lat="42.597820" lon="0.682034">
        <ele>2423.4</ele>
        <time>2010-07-02T10:23:08Z</time>
      </trkpt>
      <trkpt lat="42.597807" lon="0.682144">
        <ele>2420.2</ele>
        <time>2010-07-02T10:23:08Z</time>
      </trkpt>
      <trkpt lat="42.597763" lon="0.682199">
        <ele>2418.5</ele>
        <time>2010-07-02T10:23:08Z</time>
      </trkpt>
      <trkpt lat="42.597708" lon="0.682233">
        <ele>2417.1</ele>
        <time>2010-07-02T10:23:08Z</time>
      </trkpt>
      <trkpt lat="42.597672" lon="0.682186">
        <ele>2417.7</ele>
        <time>2010-07-02T10:23:08Z</time>
      </trkpt>
      <trkpt lat="42.597649" lon="0.682101">
        <ele>2419.1</ele>
        <time>2010-07-02T10:23:08Z</time>
      </trkpt>
      <trkpt lat="42.597551" lon="0.682145">
        <ele>2417.0</ele>
        <time>2010-07-02T10:23:08Z</time>
      </trkpt>
      <trkpt lat="42.597403" lon="0.682042">
        <ele>2418.0</ele>
        <time>2010-07-02T10:23:08Z</time>
      </trkpt>
      <trkpt lat="42.597202" lon="0.681959">
        <ele>2419.4</ele>
        <time>2010-07-02T10:23:08Z</time>
      </trkpt>
      <trkpt lat="42.597057" lon="0.681910">
        <ele>2420.4</ele>
        <time>2010-07-02T10:23:08Z</time>
      </trkpt>
      <trkpt lat="42.596964" lon="0.681925">
        <ele>2419.5</ele>
        <time>2010-07-02T10:23:08Z</time>
      </trkpt>
      <trkpt lat="42.596920" lon="0.681955">
        <ele>2417.7</ele>
        <time>2010-07-02T10:23:08Z</time>
      </trkpt>
      <trkpt lat="42.596878" lon="0.682014">
        <ele>2414.4</ele>
        <time>2010-07-02T10:23:08Z</time>
      </trkpt>
      <trkpt lat="42.596848" lon="0.682110">
        <ele>2410.2</ele>
        <time>2010-07-02T10:23:08Z</time>
      </trkpt>
      <trkpt lat="42.596747" lon="0.682111">
        <ele>2409.6</ele>
        <time>2010-07-02T10:23:08Z</time>
      </trkpt>
      <trkpt lat="42.596642" lon="0.682088">
        <ele>2409.3</ele>
        <time>2010-07-02T10:23:08Z</time>
      </trkpt>
      <trkpt lat="42.596448" lon="0.681947">
        <ele>2416.6</ele>
        <time>2010-07-02T10:23:08Z</time>
      </trkpt>
      <trkpt lat="42.596230" lon="0.681952">
        <ele>2415.5</ele>
        <time>2010-07-02T10:23:08Z</time>
      </trkpt>
      <trkpt lat="42.596107" lon="0.681917">
        <ele>2417.1</ele>
        <time>2010-07-02T10:23:08Z</time>
      </trkpt>
      <trkpt lat="42.595999" lon="0.681978">
        <ele>2411.9</ele>
        <time>2010-07-02T10:23:08Z</time>
      </trkpt>
      <trkpt lat="42.595855" lon="0.682070">
        <ele>2403.7</ele>
        <time>2010-07-02T10:23:08Z</time>
      </trkpt>
      <trkpt lat="42.595619" lon="0.682115">
        <ele>2399.7</ele>
        <time>2010-07-02T10:23:08Z</time>
      </trkpt>
      <trkpt lat="42.595472" lon="0.682211">
        <ele>2396.7</ele>
        <time>2010-07-02T10:23:08Z</time>
      </trkpt>
      <trkpt lat="42.595338" lon="0.682328">
        <ele>2392.4</ele>
        <time>2010-07-02T10:23:08Z</time>
      </trkpt>
      <trkpt lat="42.595229" lon="0.682288">
        <ele>2389.7</ele>
        <time>2010-07-02T10:23:08Z</time>
      </trkpt>
      <trkpt lat="42.595096" lon="0.682331">
        <ele>2385.8</ele>
        <time>2010-07-02T10:23:08Z</time>
      </trkpt>
      <trkpt lat="42.594910" lon="0.682213">
        <ele>2380.6</ele>
        <time>2010-07-02T10:23:08Z</time>
      </trkpt>
      <trkpt lat="42.594665" lon="0.682199">
        <ele>2372.9</ele>
        <time>2010-07-02T10:23:08Z</time>
      </trkpt>
      <trkpt lat="42.594332" lon="0.681992">
        <ele>2365.2</ele>
        <time>2010-07-02T10:23:08Z</time>
      </trkpt>
      <trkpt lat="42.594081" lon="0.682046">
        <ele>2357.5</ele>
        <time>2010-07-02T10:23:08Z</time>
      </trkpt>
      <trkpt lat="42.593798" lon="0.682076">
        <ele>2350.2</ele>
        <time>2010-07-02T10:23:08Z</time>
      </trkpt>
      <trkpt lat="42.593570" lon="0.681930">
        <ele>2349.5</ele>
        <time>2010-07-02T10:23:08Z</time>
      </trkpt>
      <trkpt lat="42.593324" lon="0.681791">
        <ele>2347.8</ele>
        <time>2010-07-02T10:23:08Z</time>
      </trkpt>
      <trkpt lat="42.593168" lon="0.681591">
        <ele>2343.7</ele>
        <time>2010-07-02T10:23:08Z</time>
      </trkpt>
      <trkpt lat="42.593179" lon="0.681464">
        <ele>2341.7</ele>
        <time>2010-07-02T10:23:08Z</time>
      </trkpt>
      <trkpt lat="42.593066" lon="0.681281">
        <ele>2336.2</ele>
        <time>2010-07-02T10:23:08Z</time>
      </trkpt>
      <trkpt lat="42.592985" lon="0.681204">
        <ele>2333.7</ele>
        <time>2010-07-02T10:23:08Z</time>
      </trkpt>
      <trkpt lat="42.592824" lon="0.681294">
        <ele>2333.5</ele>
        <time>2010-07-02T10:23:08Z</time>
      </trkpt>
      <trkpt lat="42.592718" lon="0.681189">
        <ele>2332.6</ele>
        <time>2010-07-02T10:23:08Z</time>
      </trkpt>
      <trkpt lat="42.592618" lon="0.681237">
        <ele>2333.0</ele>
        <time>2010-07-02T10:23:08Z</time>
      </trkpt>
      <trkpt lat="42.592539" lon="0.681120">
        <ele>2332.9</ele>
        <time>2010-07-02T10:23:08Z</time>
      </trkpt>
      <trkpt lat="42.592424" lon="0.681099">
        <ele>2333.0</ele>
        <time>2010-07-02T10:23:08Z</time>
      </trkpt>
      <trkpt lat="42.592327" lon="0.681209">
        <ele>2333.9</ele>
        <time>2010-07-02T10:23:08Z</time>
      </trkpt>
      <trkpt lat="42.592215" lon="0.681183">
        <ele>2334.0</ele>
        <time>2010-07-02T10:23:08Z</time>
      </trkpt>
      <trkpt lat="42.591951" lon="0.681191">
        <ele>2333.7</ele>
        <time>2010-07-02T10:23:08Z</time>
      </trkpt>
      <trkpt lat="42.591777" lon="0.681080">
        <ele>2332.2</ele>
        <time>2010-07-02T10:23:08Z</time>
      </trkpt>
      <trkpt lat="42.591364" lon="0.680951">
        <ele>2330.7</ele>
        <time>2010-07-02T10:23:08Z</time>
      </trkpt>
      <trkpt lat="42.591225" lon="0.681044">
        <ele>2330.3</ele>
        <time>2010-07-02T10:23:08Z</time>
      </trkpt>
      <trkpt lat="42.591047" lon="0.680941">
        <ele>2333.5</ele>
        <time>2010-07-02T10:23:08Z</time>
      </trkpt>
      <trkpt lat="42.590894" lon="0.680990">
        <ele>2335.0</ele>
        <time>2010-07-02T10:23:08Z</time>
      </trkpt>
      <trkpt lat="42.590761" lon="0.681128">
        <ele>2334.2</ele>
        <time>2010-07-02T10:23:08Z</time>
      </trkpt>
      <trkpt lat="42.590623" lon="0.681263">
        <ele>2333.0</ele>
        <time>2010-07-02T10:23:08Z</time>
      </trkpt>
      <trkpt lat="42.590500" lon="0.681431">
        <ele>2335.7</ele>
        <time>2010-07-02T10:23:08Z</time>
      </trkpt>
      <trkpt lat="42.590324" lon="0.681483">
        <ele>2335.3</ele>
        <time>2010-07-02T10:23:08Z</time>
      </trkpt>
      <trkpt lat="42.590193" lon="0.681470">
        <ele>2333.3</ele>
        <time>2010-07-02T10:23:08Z</time>
      </trkpt>
      <trkpt lat="42.590076" lon="0.681460">
        <ele>2331.7</ele>
        <time>2010-07-02T10:23:08Z</time>
      </trkpt>
      <trkpt lat="42.589986" lon="0.681488">
        <ele>2330.7</ele>
        <time>2010-07-02T10:23:08Z</time>
      </trkpt>
      <trkpt lat="42.589883" lon="0.681514">
        <ele>2329.4</ele>
        <time>2010-07-02T10:23:08Z</time>
      </trkpt>
      <trkpt lat="42.589812" lon="0.681545">
        <ele>2328.6</ele>
        <time>2010-07-02T10:23:08Z</time>
      </trkpt>
      <trkpt lat="42.589759" lon="0.681572">
        <ele>2328.1</ele>
        <time>2010-07-02T10:23:08Z</time>
      </trkpt>
      <trkpt lat="42.589695" lon="0.681571">
        <ele>2327.1</ele>
        <time>2010-07-02T10:23:08Z</time>
      </trkpt>
      <trkpt lat="42.589546" lon="0.681557">
        <ele>2323.6</ele>
        <time>2010-07-02T10:23:08Z</time>
      </trkpt>
      <trkpt lat="42.589453" lon="0.681457">
        <ele>2318.3</ele>
        <time>2010-07-02T10:23:08Z</time>
      </trkpt>
      <trkpt lat="42.589409" lon="0.681369">
        <ele>2315.5</ele>
        <time>2010-07-02T10:23:08Z</time>
      </trkpt>
      <trkpt lat="42.589447" lon="0.681263">
        <ele>2316.9</ele>
        <time>2010-07-02T10:23:08Z</time>
      </trkpt>
      <trkpt lat="42.589456" lon="0.681206">
        <ele>2318.3</ele>
        <time>2010-07-02T10:23:08Z</time>
      </trkpt>
      <trkpt lat="42.589472" lon="0.681173">
        <ele>2319.9</ele>
        <time>2010-07-02T10:23:08Z</time>
      </trkpt>
      <trkpt lat="42.589484" lon="0.681140">
        <ele>2321.4</ele>
        <time>2010-07-02T10:23:08Z</time>
      </trkpt>
      <trkpt lat="42.589462" lon="0.681105">
        <ele>2321.0</ele>
        <time>2010-07-02T10:23:08Z</time>
      </trkpt>
      <trkpt lat="42.589430" lon="0.681088">
        <ele>2319.6</ele>
        <time>2010-07-02T10:23:08Z</time>
      </trkpt>
      <trkpt lat="42.589372" lon="0.681086">
        <ele>2316.3</ele>
        <time>2010-07-02T10:23:08Z</time>
      </trkpt>
      <trkpt lat="42.589318" lon="0.681088">
        <ele>2313.3</ele>
        <time>2010-07-02T10:23:08Z</time>
      </trkpt>
      <trkpt lat="42.589281" lon="0.681082">
        <ele>2311.4</ele>
        <time>2010-07-02T10:23:08Z</time>
      </trkpt>
      <trkpt lat="42.589257" lon="0.681062">
        <ele>2310.4</ele>
        <time>2010-07-02T10:23:08Z</time>
      </trkpt>
      <trkpt lat="42.589208" lon="0.681020">
        <ele>2308.5</ele>
        <time>2010-07-02T10:23:08Z</time>
      </trkpt>
      <trkpt lat="42.589188" lon="0.680960">
        <ele>2308.5</ele>
        <time>2010-07-02T10:23:08Z</time>
      </trkpt>
      <trkpt lat="42.589197" lon="0.680891">
        <ele>2310.3</ele>
        <time>2010-07-02T10:23:08Z</time>
      </trkpt>
      <trkpt lat="42.589199" lon="0.680837">
        <ele>2311.4</ele>
        <time>2010-07-02T10:23:08Z</time>
      </trkpt>
      <trkpt lat="42.589123" lon="0.680789">
        <ele>2307.7</ele>
        <time>2010-07-02T10:23:08Z</time>
      </trkpt>
      <trkpt lat="42.589000" lon="0.680744">
        <ele>2300.9</ele>
        <time>2010-07-02T10:23:08Z</time>
      </trkpt>
      <trkpt lat="42.588869" lon="0.680601">
        <ele>2294.7</ele>
        <time>2010-07-02T10:23:08Z</time>
      </trkpt>
      <trkpt lat="42.588832" lon="0.680462">
        <ele>2294.0</ele>
        <time>2010-07-02T10:23:08Z</time>
      </trkpt>
      <trkpt lat="42.588619" lon="0.680168">
        <ele>2285.3</ele>
        <time>2010-07-02T10:23:08Z</time>
      </trkpt>
      <trkpt lat="42.588522" lon="0.679890">
        <ele>2284.8</ele>
        <time>2010-07-02T10:23:08Z</time>
      </trkpt>
      <trkpt lat="42.588435" lon="0.679556">
        <ele>2286.6</ele>
        <time>2010-07-02T10:23:08Z</time>
      </trkpt>
      <trkpt lat="42.588350" lon="0.679334">
        <ele>2285.9</ele>
        <time>2010-07-02T10:23:08Z</time>
      </trkpt>
      <trkpt lat="42.588199" lon="0.679166">
        <ele>2280.9</ele>
        <time>2010-07-02T10:23:08Z</time>
      </trkpt>
      <trkpt lat="42.588011" lon="0.679076">
        <ele>2272.8</ele>
        <time>2010-07-02T10:23:08Z</time>
      </trkpt>
      <trkpt lat="42.587840" lon="0.679076">
        <ele>2265.7</ele>
        <time>2010-07-02T10:23:08Z</time>
      </trkpt>
      <trkpt lat="42.587693" lon="0.679127">
        <ele>2260.6</ele>
        <time>2010-07-02T10:23:08Z</time>
      </trkpt>
      <trkpt lat="42.587602" lon="0.679272">
        <ele>2255.4</ele>
        <time>2010-07-02T10:23:08Z</time>
      </trkpt>
      <trkpt lat="42.587571" lon="0.679421">
        <ele>2251.7</ele>
        <time>2010-07-02T10:23:08Z</time>
      </trkpt>
      <trkpt lat="42.587608" lon="0.679613">
        <ele>2249.2</ele>
        <time>2010-07-02T10:23:08Z</time>
      </trkpt>
      <trkpt lat="42.587687" lon="0.679773">
        <ele>2247.5</ele>
        <time>2010-07-02T10:23:08Z</time>
      </trkpt>
      <trkpt lat="42.587690" lon="0.679896">
        <ele>2244.3</ele>
        <time>2010-07-02T10:23:08Z</time>
      </trkpt>
      <trkpt lat="42.587663" lon="0.680141">
        <ele>2236.8</ele>
        <time>2010-07-02T10:23:08Z</time>
      </trkpt>
      <trkpt lat="42.587595" lon="0.680367">
        <ele>2228.5</ele>
        <time>2010-07-02T10:23:08Z</time>
      </trkpt>
      <trkpt lat="42.587599" lon="0.680554">
        <ele>2225.0</ele>
        <time>2010-07-02T10:23:08Z</time>
      </trkpt>
      <trkpt lat="42.587459" lon="0.680720">
        <ele>2217.3</ele>
        <time>2010-07-02T10:23:08Z</time>
      </trkpt>
      <trkpt lat="42.587464" lon="0.680951">
        <ele>2213.4</ele>
        <time>2010-07-02T10:23:08Z</time>
      </trkpt>
      <trkpt lat="42.587308" lon="0.681145">
        <ele>2203.9</ele>
        <time>2010-07-02T10:23:08Z</time>
      </trkpt>
      <trkpt lat="42.587302" lon="0.681440">
        <ele>2202.1</ele>
        <time>2010-07-02T10:23:08Z</time>
      </trkpt>
      <trkpt lat="42.587184" lon="0.681607">
        <ele>2197.4</ele>
        <time>2010-07-02T10:23:08Z</time>
      </trkpt>
      <trkpt lat="42.587196" lon="0.681797">
        <ele>2198.1</ele>
        <time>2010-07-02T10:23:08Z</time>
      </trkpt>
      <trkpt lat="42.587200" lon="0.681891">
        <ele>2198.4</ele>
        <time>2010-07-02T10:23:08Z</time>
      </trkpt>
      <trkpt lat="42.587191" lon="0.681945">
        <ele>2198.0</ele>
        <time>2010-07-02T10:23:08Z</time>
      </trkpt>
      <trkpt lat="42.587149" lon="0.681990">
        <ele>2196.1</ele>
        <time>2010-07-02T10:23:08Z</time>
      </trkpt>
      <trkpt lat="42.587068" lon="0.682032">
        <ele>2192.8</ele>
        <time>2010-07-02T10:23:08Z</time>
      </trkpt>
      <trkpt lat="42.586960" lon="0.682094">
        <ele>2191.4</ele>
        <time>2010-07-02T10:23:08Z</time>
      </trkpt>
      <trkpt lat="42.586881" lon="0.682277">
        <ele>2192.8</ele>
        <time>2010-07-02T10:23:08Z</time>
      </trkpt>
      <trkpt lat="42.586818" lon="0.682438">
        <ele>2193.4</ele>
        <time>2010-07-02T10:23:08Z</time>
      </trkpt>
      <trkpt lat="42.586728" lon="0.682618">
        <ele>2192.8</ele>
        <time>2010-07-02T10:23:08Z</time>
      </trkpt>
      <trkpt lat="42.586627" lon="0.682726">
        <ele>2190.2</ele>
        <time>2010-07-02T10:23:08Z</time>
      </trkpt>
      <trkpt lat="42.586453" lon="0.682840">
        <ele>2184.3</ele>
        <time>2010-07-02T10:23:08Z</time>
      </trkpt>
      <trkpt lat="42.586365" lon="0.682951">
        <ele>2181.2</ele>
        <time>2010-07-02T10:23:08Z</time>
      </trkpt>
      <trkpt lat="42.586209" lon="0.683148">
        <ele>2179.0</ele>
        <time>2010-07-02T10:23:08Z</time>
      </trkpt>
      <trkpt lat="42.586084" lon="0.683408">
        <ele>2181.0</ele>
        <time>2010-07-02T10:23:08Z</time>
      </trkpt>
      <trkpt lat="42.585877" lon="0.683960">
        <ele>2181.4</ele>
        <time>2010-07-02T10:23:08Z</time>
      </trkpt>
      <trkpt lat="42.585719" lon="0.684546">
        <ele>2180.4</ele>
        <time>2010-07-02T10:23:08Z</time>
      </trkpt>
      <trkpt lat="42.585617" lon="0.684899">
        <ele>2178.8</ele>
        <time>2010-07-02T10:23:08Z</time>
      </trkpt>
      <trkpt lat="42.585622" lon="0.685266">
        <ele>2181.2</ele>
        <time>2010-07-02T10:23:08Z</time>
      </trkpt>
      <trkpt lat="42.585620" lon="0.685590">
        <ele>2183.5</ele>
        <time>2010-07-02T10:23:08Z</time>
      </trkpt>
      <trkpt lat="42.585618" lon="0.686008">
        <ele>2187.0</ele>
        <time>2010-07-02T10:23:08Z</time>
      </trkpt>
      <trkpt lat="42.585610" lon="0.686408">
        <ele>2190.0</ele>
        <time>2010-07-02T10:23:08Z</time>
      </trkpt>
      <trkpt lat="42.585619" lon="0.686602">
        <ele>2192.2</ele>
        <time>2010-07-02T10:23:08Z</time>
      </trkpt>
      <trkpt lat="42.585634" lon="0.687062">
        <ele>2197.1</ele>
        <time>2010-07-02T10:23:08Z</time>
      </trkpt>
      <trkpt lat="42.585644" lon="0.687188">
        <ele>2198.0</ele>
        <time>2010-07-02T10:23:08Z</time>
      </trkpt>
      <trkpt lat="42.585721" lon="0.687262">
        <ele>2202.8</ele>
        <time>2010-07-02T10:23:08Z</time>
      </trkpt>
      <trkpt lat="42.585628" lon="0.687368">
        <ele>2197.1</ele>
        <time>2010-07-02T10:23:08Z</time>
      </trkpt>
      <trkpt lat="42.585730" lon="0.687480">
        <ele>2203.5</ele>
        <time>2010-07-02T10:23:08Z</time>
      </trkpt>
      <trkpt lat="42.585688" lon="0.687607">
        <ele>2201.0</ele>
        <time>2010-07-02T10:23:08Z</time>
      </trkpt>
      <trkpt lat="42.585705" lon="0.687675">
        <ele>2202.1</ele>
        <time>2010-07-02T10:23:08Z</time>
      </trkpt>
      <trkpt lat="42.585759" lon="0.687738">
        <ele>2205.6</ele>
        <time>2010-07-02T10:23:08Z</time>
      </trkpt>
      <trkpt lat="42.585781" lon="0.687773">
        <ele>2207.1</ele>
        <time>2010-07-02T10:23:08Z</time>
      </trkpt>
      <trkpt lat="42.585769" lon="0.687846">
        <ele>2206.4</ele>
        <time>2010-07-02T10:23:08Z</time>
      </trkpt>
      <trkpt lat="42.585625" lon="0.688197">
        <ele>2198.9</ele>
        <time>2010-07-02T10:23:08Z</time>
      </trkpt>
      <trkpt lat="42.585474" lon="0.688516">
        <ele>2191.2</ele>
        <time>2010-07-02T10:23:08Z</time>
      </trkpt>
      <trkpt lat="42.585437" lon="0.688647">
        <ele>2189.7</ele>
        <time>2010-07-02T10:23:08Z</time>
      </trkpt>
      <trkpt lat="42.585451" lon="0.688808">
        <ele>2191.3</ele>
        <time>2010-07-02T10:23:08Z</time>
      </trkpt>
      <trkpt lat="42.585507" lon="0.688964">
        <ele>2195.3</ele>
        <time>2010-07-02T10:23:08Z</time>
      </trkpt>
      <trkpt lat="42.585523" lon="0.689223">
        <ele>2197.2</ele>
        <time>2010-07-02T10:23:08Z</time>
      </trkpt>
      <trkpt lat="42.585564" lon="0.689380">
        <ele>2200.5</ele>
        <time>2010-07-02T10:23:08Z</time>
      </trkpt>
      <trkpt lat="42.585464" lon="0.689431">
        <ele>2193.8</ele>
        <time>2010-07-02T10:23:08Z</time>
      </trkpt>
      <trkpt lat="42.585340" lon="0.689626">
        <ele>2188.3</ele>
        <time>2010-07-02T10:23:08Z</time>
      </trkpt>
      <trkpt lat="42.585350" lon="0.689871">
        <ele>2186.5</ele>
        <time>2010-07-02T10:23:08Z</time>
      </trkpt>
      <trkpt lat="42.585304" lon="0.690229">
        <ele>2182.3</ele>
        <time>2010-07-02T10:23:08Z</time>
      </trkpt>
      <trkpt lat="42.585250" lon="0.690612">
        <ele>2181.9</ele>
        <time>2010-07-02T10:23:08Z</time>
      </trkpt>
      <trkpt lat="42.585233" lon="0.690948">
        <ele>2185.4</ele>
        <time>2010-07-02T10:23:08Z</time>
      </trkpt>
      <trkpt lat="42.585275" lon="0.691148">
        <ele>2189.0</ele>
        <time>2010-07-02T10:23:08Z</time>
      </trkpt>
      <trkpt lat="42.585139" lon="0.691218">
        <ele>2185.3</ele>
        <time>2010-07-02T10:23:08Z</time>
      </trkpt>
      <trkpt lat="42.585186" lon="0.691435">
        <ele>2188.3</ele>
        <time>2010-07-02T10:23:08Z</time>
      </trkpt>
      <trkpt lat="42.585068" lon="0.691595">
        <ele>2185.1</ele>
        <time>2010-07-02T10:23:08Z</time>
      </trkpt>
      <trkpt lat="42.585068" lon="0.691728">
        <ele>2185.8</ele>
        <time>2010-07-02T10:23:08Z</time>
      </trkpt>
      <trkpt lat="42.585014" lon="0.692054">
        <ele>2185.4</ele>
        <time>2010-07-02T10:23:08Z</time>
      </trkpt>
      <trkpt lat="42.584954" lon="0.692291">
        <ele>2184.8</ele>
        <time>2010-07-02T10:23:08Z</time>
      </trkpt>
      <trkpt lat="42.584850" lon="0.692528">
        <ele>2182.1</ele>
        <time>2010-07-02T10:23:08Z</time>
      </trkpt>
      <trkpt lat="42.584805" lon="0.692649">
        <ele>2180.8</ele>
        <time>2010-07-02T10:23:08Z</time>
      </trkpt>
      <trkpt lat="42.584712" lon="0.692786">
        <ele>2177.4</ele>
        <time>2010-07-02T10:23:08Z</time>
      </trkpt>
      <trkpt lat="42.584579" lon="0.693061">
        <ele>2173.0</ele>
        <time>2010-07-02T10:23:08Z</time>
      </trkpt>
      <trkpt lat="42.584526" lon="0.693207">
        <ele>2173.5</ele>
        <time>2010-07-02T10:23:08Z</time>
      </trkpt>
      <trkpt lat="42.584479" lon="0.693500">
        <ele>2174.9</ele>
        <time>2010-07-02T10:23:08Z</time>
      </trkpt>
      <trkpt lat="42.584451" lon="0.693739">
        <ele>2176.0</ele>
        <time>2010-07-02T10:23:08Z</time>
      </trkpt>
      <trkpt lat="42.584468" lon="0.694030">
        <ele>2177.8</ele>
        <time>2010-07-02T10:23:08Z</time>
      </trkpt>
      <trkpt lat="42.584461" lon="0.694239">
        <ele>2178.8</ele>
        <time>2010-07-02T10:23:08Z</time>
      </trkpt>
      <trkpt lat="42.584437" lon="0.694341">
        <ele>2178.8</ele>
        <time>2010-07-02T10:23:08Z</time>
      </trkpt>
      <trkpt lat="42.584398" lon="0.694511">
        <ele>2178.9</ele>
        <time>2010-07-02T10:23:08Z</time>
      </trkpt>
      <trkpt lat="42.584382" lon="0.694652">
        <ele>2179.6</ele>
        <time>2010-07-02T10:23:08Z</time>
      </trkpt>
      <trkpt lat="42.584360" lon="0.694880">
        <ele>2181.3</ele>
        <time>2010-07-02T10:23:08Z</time>
      </trkpt>
      <trkpt lat="42.584271" lon="0.695229">
        <ele>2182.4</ele>
        <time>2010-07-02T10:23:08Z</time>
      </trkpt>
      <trkpt lat="42.584171" lon="0.695524">
        <ele>2184.4</ele>
        <time>2010-07-02T10:23:08Z</time>
      </trkpt>
      <trkpt lat="42.584007" lon="0.695854">
        <ele>2187.3</ele>
        <time>2010-07-02T10:23:08Z</time>
      </trkpt>
      <trkpt lat="42.583876" lon="0.696081">
        <ele>2187.1</ele>
        <time>2010-07-02T10:23:08Z</time>
      </trkpt>
      <trkpt lat="42.583679" lon="0.696249">
        <ele>2186.3</ele>
        <time>2010-07-02T10:23:08Z</time>
      </trkpt>
      <trkpt lat="42.583458" lon="0.696386">
        <ele>2195.5</ele>
        <time>2010-07-02T10:23:08Z</time>
      </trkpt>
      <trkpt lat="42.583234" lon="0.696430">
        <ele>2201.0</ele>
        <time>2010-07-02T10:23:08Z</time>
      </trkpt>
      <trkpt lat="42.583092" lon="0.696404">
        <ele>2202.5</ele>
        <time>2010-07-02T10:23:08Z</time>
      </trkpt>
      <trkpt lat="42.582935" lon="0.696247">
        <ele>2199.6</ele>
        <time>2010-07-02T10:23:08Z</time>
      </trkpt>
      <trkpt lat="42.582644" lon="0.696118">
        <ele>2191.4</ele>
        <time>2010-07-02T10:23:08Z</time>
      </trkpt>
      <trkpt lat="42.582630" lon="0.696247">
        <ele>2195.4</ele>
        <time>2010-07-02T10:23:08Z</time>
      </trkpt>
      <trkpt lat="42.582762" lon="0.696406">
        <ele>2203.3</ele>
        <time>2010-07-02T10:23:08Z</time>
      </trkpt>
      <trkpt lat="42.582878" lon="0.696458">
        <ele>2206.9</ele>
        <time>2010-07-02T10:23:08Z</time>
      </trkpt>
      <trkpt lat="42.583018" lon="0.696718">
        <ele>2215.2</ele>
        <time>2010-07-02T10:23:08Z</time>
      </trkpt>
      <trkpt lat="42.583176" lon="0.696773">
        <ele>2214.7</ele>
        <time>2010-07-02T10:23:08Z</time>
      </trkpt>
      <trkpt lat="42.583620" lon="0.696618">
        <ele>2201.7</ele>
        <time>2010-07-02T10:23:08Z</time>
      </trkpt>
      <trkpt lat="42.583798" lon="0.696680">
        <ele>2204.1</ele>
        <time>2010-07-02T10:23:08Z</time>
      </trkpt>
      <trkpt lat="42.583677" lon="0.696867">
        <ele>2210.5</ele>
        <time>2010-07-02T10:23:08Z</time>
      </trkpt>
      <trkpt lat="42.583153" lon="0.697086">
        <ele>2226.7</ele>
        <time>2010-07-02T10:23:08Z</time>
      </trkpt>
      <trkpt lat="42.583266" lon="0.697262">
        <ele>2234.7</ele>
        <time>2010-07-02T10:23:08Z</time>
      </trkpt>
      <trkpt lat="42.583435" lon="0.697140">
        <ele>2225.8</ele>
        <time>2010-07-02T10:23:08Z</time>
      </trkpt>
      <trkpt lat="42.583344" lon="0.697362">
        <ele>2239.4</ele>
        <time>2010-07-02T10:23:08Z</time>
      </trkpt>
      <trkpt lat="42.583429" lon="0.697302">
        <ele>2235.1</ele>
        <time>2010-07-02T10:23:08Z</time>
      </trkpt>
      <trkpt lat="42.583543" lon="0.697249">
        <ele>2230.8</ele>
        <time>2010-07-02T10:23:08Z</time>
      </trkpt>
      <trkpt lat="42.583645" lon="0.697295">
        <ele>2236.1</ele>
        <time>2010-07-02T10:23:08Z</time>
      </trkpt>
      <trkpt lat="42.583430" lon="0.697446">
        <ele>2243.4</ele>
        <time>2010-07-02T10:23:08Z</time>
      </trkpt>
      <trkpt lat="42.583291" lon="0.697564">
        <ele>2251.1</ele>
        <time>2010-07-02T10:23:08Z</time>
      </trkpt>
      <trkpt lat="42.583355" lon="0.697651">
        <ele>2255.6</ele>
        <time>2010-07-02T10:23:08Z</time>
      </trkpt>
      <trkpt lat="42.583453" lon="0.697556">
        <ele>2249.6</ele>
        <time>2010-07-02T10:23:08Z</time>
      </trkpt>
      <trkpt lat="42.583557" lon="0.697515">
        <ele>2246.4</ele>
        <time>2010-07-02T10:23:08Z</time>
      </trkpt>
      <trkpt lat="42.583379" lon="0.697758">
        <ele>2261.5</ele>
        <time>2010-07-02T10:23:08Z</time>
      </trkpt>
      <trkpt lat="42.583499" lon="0.697706">
        <ele>2258.0</ele>
        <time>2010-07-02T10:23:08Z</time>
      </trkpt>
      <trkpt lat="42.583849" lon="0.697513">
        <ele>2248.8</ele>
        <time>2010-07-02T10:23:08Z</time>
      </trkpt>
      <trkpt lat="42.584234" lon="0.697373">
        <ele>2255.6</ele>
        <time>2010-07-02T10:23:08Z</time>
      </trkpt>
      <trkpt lat="42.584485" lon="0.697263">
        <ele>2259.0</ele>
        <time>2010-07-02T10:23:08Z</time>
      </trkpt>
      <trkpt lat="42.584807" lon="0.697147">
        <ele>2271.5</ele>
        <time>2010-07-02T10:23:08Z</time>
      </trkpt>
      <trkpt lat="42.585044" lon="0.697127">
        <ele>2287.1</ele>
        <time>2010-07-02T10:23:08Z</time>
      </trkpt>
      <trkpt lat="42.585306" lon="0.697081">
        <ele>2304.0</ele>
        <time>2010-07-02T10:23:08Z</time>
      </trkpt>
      <trkpt lat="42.585297" lon="0.697194">
        <ele>2307.3</ele>
        <time>2010-07-02T10:23:08Z</time>
      </trkpt>
      <trkpt lat="42.585140" lon="0.697372">
        <ele>2304.0</ele>
        <time>2010-07-02T10:23:08Z</time>
      </trkpt>
      <trkpt lat="42.584943" lon="0.697472">
        <ele>2296.7</ele>
        <time>2010-07-02T10:23:08Z</time>
      </trkpt>
      <trkpt lat="42.584731" lon="0.697698">
        <ele>2297.0</ele>
        <time>2010-07-02T10:23:08Z</time>
      </trkpt>
      <trkpt lat="42.584785" lon="0.697760">
        <ele>2303.0</ele>
        <time>2010-07-02T10:23:08Z</time>
      </trkpt>
      <trkpt lat="42.585067" lon="0.697644">
        <ele>2311.4</ele>
        <time>2010-07-02T10:23:08Z</time>
      </trkpt>
      <trkpt lat="42.584841" lon="0.697867">
        <ele>2311.3</ele>
        <time>2010-07-02T10:23:08Z</time>
      </trkpt>
      <trkpt lat="42.585086" lon="0.697839">
        <ele>2320.8</ele>
        <time>2010-07-02T10:23:08Z</time>
      </trkpt>
      <trkpt lat="42.584807" lon="0.698019">
        <ele>2317.8</ele>
        <time>2010-07-02T10:23:08Z</time>
      </trkpt>
      <trkpt lat="42.584917" lon="0.698122">
        <ele>2327.6</ele>
        <time>2010-07-02T10:23:08Z</time>
      </trkpt>
      <trkpt lat="42.585049" lon="0.698150">
        <ele>2334.4</ele>
        <time>2010-07-02T10:23:08Z</time>
      </trkpt>
      <trkpt lat="42.585268" lon="0.698125">
        <ele>2342.0</ele>
        <time>2010-07-02T10:23:08Z</time>
      </trkpt>
      <trkpt lat="42.585460" lon="0.698084">
        <ele>2348.0</ele>
        <time>2010-07-02T10:23:08Z</time>
      </trkpt>
      <trkpt lat="42.585589" lon="0.698030">
        <ele>2351.5</ele>
        <time>2010-07-02T10:23:08Z</time>
      </trkpt>
      <trkpt lat="42.585746" lon="0.697982">
        <ele>2356.7</ele>
        <time>2010-07-02T10:23:08Z</time>
      </trkpt>
      <trkpt lat="42.585719" lon="0.698093">
        <ele>2360.4</ele>
        <time>2010-07-02T10:23:08Z</time>
      </trkpt>
      <trkpt lat="42.585542" lon="0.698362">
        <ele>2364.8</ele>
        <time>2010-07-02T10:23:08Z</time>
      </trkpt>
      <trkpt lat="42.585335" lon="0.698616">
        <ele>2368.5</ele>
        <time>2010-07-02T10:23:08Z</time>
      </trkpt>
      <trkpt lat="42.585399" lon="0.698723">
        <ele>2376.1</ele>
        <time>2010-07-02T10:23:08Z</time>
      </trkpt>
      <trkpt lat="42.585572" lon="0.698631">
        <ele>2378.5</ele>
        <time>2010-07-02T10:23:08Z</time>
      </trkpt>
      <trkpt lat="42.585718" lon="0.698474">
        <ele>2377.3</ele>
        <time>2010-07-02T10:23:08Z</time>
      </trkpt>
      <trkpt lat="42.585797" lon="0.698554">
        <ele>2384.1</ele>
        <time>2010-07-02T10:23:08Z</time>
      </trkpt>
      <trkpt lat="42.585882" lon="0.698457">
        <ele>2383.4</ele>
        <time>2010-07-02T10:23:08Z</time>
      </trkpt>
      <trkpt lat="42.586030" lon="0.698422">
        <ele>2388.2</ele>
        <time>2010-07-02T10:23:08Z</time>
      </trkpt>
      <trkpt lat="42.586108" lon="0.698497">
        <ele>2394.4</ele>
        <time>2010-07-02T10:23:08Z</time>
      </trkpt>
      <trkpt lat="42.586236" lon="0.698375">
        <ele>2395.0</ele>
        <time>2010-07-02T10:23:08Z</time>
      </trkpt>
      <trkpt lat="42.586365" lon="0.698364">
        <ele>2399.3</ele>
        <time>2010-07-02T10:23:08Z</time>
      </trkpt>
      <trkpt lat="42.586435" lon="0.698545">
        <ele>2406.6</ele>
        <time>2010-07-02T10:23:08Z</time>
      </trkpt>
      <trkpt lat="42.586347" lon="0.698724">
        <ele>2410.2</ele>
        <time>2010-07-02T10:23:08Z</time>
      </trkpt>
      <trkpt lat="42.586380" lon="0.698986">
        <ele>2413.1</ele>
        <time>2010-07-02T10:23:08Z</time>
      </trkpt>
      <trkpt lat="42.586324" lon="0.699088">
        <ele>2414.4</ele>
        <time>2010-07-02T10:23:08Z</time>
      </trkpt>
      <trkpt lat="42.586444" lon="0.699135">
        <ele>2413.1</ele>
        <time>2010-07-02T10:23:08Z</time>
      </trkpt>
      <trkpt lat="42.586307" lon="0.699234">
        <ele>2416.3</ele>
        <time>2010-07-02T10:23:08Z</time>
      </trkpt>
      <trkpt lat="42.586382" lon="0.699350">
        <ele>2415.5</ele>
        <time>2010-07-02T10:23:08Z</time>
      </trkpt>
      <trkpt lat="42.586264" lon="0.699444">
        <ele>2420.3</ele>
        <time>2010-07-02T10:23:08Z</time>
      </trkpt>
      <trkpt lat="42.586325" lon="0.699571">
        <ele>2419.6</ele>
        <time>2010-07-02T10:23:08Z</time>
      </trkpt>
      <trkpt lat="42.586142" lon="0.699732">
        <ele>2421.2</ele>
        <time>2010-07-02T10:23:08Z</time>
      </trkpt>
      <trkpt lat="42.586213" lon="0.699831">
        <ele>2419.8</ele>
        <time>2010-07-02T10:23:08Z</time>
      </trkpt>
      <trkpt lat="42.586180" lon="0.699976">
        <ele>2418.8</ele>
        <time>2010-07-02T10:23:08Z</time>
      </trkpt>
      <trkpt lat="42.586268" lon="0.700056">
        <ele>2415.1</ele>
        <time>2010-07-02T10:23:08Z</time>
      </trkpt>
      <trkpt lat="42.586190" lon="0.700220">
        <ele>2416.2</ele>
        <time>2010-07-02T10:23:08Z</time>
      </trkpt>
      <trkpt lat="42.586304" lon="0.700134">
        <ele>2411.8</ele>
        <time>2010-07-02T10:23:08Z</time>
      </trkpt>
      <trkpt lat="42.586289" lon="0.700153">
        <ele>2412.4</ele>
        <time>2010-07-02T10:23:08Z</time>
      </trkpt>
      <trkpt lat="42.586293" lon="0.700250">
        <ele>2410.6</ele>
        <time>2010-07-02T10:23:08Z</time>
      </trkpt>
      <trkpt lat="42.586305" lon="0.700285">
        <ele>2409.3</ele>
        <time>2010-07-02T10:23:08Z</time>
      </trkpt>
      <trkpt lat="42.586359" lon="0.700316">
        <ele>2405.3</ele>
        <time>2010-07-02T10:23:08Z</time>
      </trkpt>
      <trkpt lat="42.586424" lon="0.700332">
        <ele>2400.7</ele>
        <time>2010-07-02T10:23:08Z</time>
      </trkpt>
      <trkpt lat="42.586348" lon="0.700457">
        <ele>2402.7</ele>
        <time>2010-07-02T10:23:08Z</time>
      </trkpt>
      <trkpt lat="42.586235" lon="0.700832">
        <ele>2394.9</ele>
        <time>2010-07-02T10:23:08Z</time>
      </trkpt>
      <trkpt lat="42.586367" lon="0.700682">
        <ele>2392.2</ele>
        <time>2010-07-02T10:23:08Z</time>
      </trkpt>
      <trkpt lat="42.586454" lon="0.700575">
        <ele>2390.6</ele>
        <time>2010-07-02T10:23:08Z</time>
      </trkpt>
      <trkpt lat="42.586494" lon="0.700653">
        <ele>2384.8</ele>
        <time>2010-07-02T10:23:08Z</time>
      </trkpt>
      <trkpt lat="42.586350" lon="0.701083">
        <ele>2377.0</ele>
        <time>2010-07-02T10:23:08Z</time>
      </trkpt>
      <trkpt lat="42.586316" lon="0.701272">
        <ele>2371.6</ele>
        <time>2010-07-02T10:23:08Z</time>
      </trkpt>
      <trkpt lat="42.586230" lon="0.701487">
        <ele>2368.5</ele>
        <time>2010-07-02T10:23:08Z</time>
      </trkpt>
      <trkpt lat="42.586247" lon="0.701635">
        <ele>2361.1</ele>
        <time>2010-07-02T10:23:08Z</time>
      </trkpt>
      <trkpt lat="42.586287" lon="0.701730">
        <ele>2354.7</ele>
        <time>2010-07-02T10:23:08Z</time>
      </trkpt>
      <trkpt lat="42.586357" lon="0.701583">
        <ele>2356.4</ele>
        <time>2010-07-02T10:23:08Z</time>
      </trkpt>
      <trkpt lat="42.586438" lon="0.701595">
        <ele>2351.0</ele>
        <time>2010-07-02T10:23:08Z</time>
      </trkpt>
      <trkpt lat="42.586444" lon="0.701768">
        <ele>2344.0</ele>
        <time>2010-07-02T10:23:08Z</time>
      </trkpt>
      <trkpt lat="42.586386" lon="0.701906">
        <ele>2341.9</ele>
        <time>2010-07-02T10:23:08Z</time>
      </trkpt>
      <trkpt lat="42.586465" lon="0.701896">
        <ele>2337.8</ele>
        <time>2010-07-02T10:23:08Z</time>
      </trkpt>
      <trkpt lat="42.586508" lon="0.701931">
        <ele>2334.1</ele>
        <time>2010-07-02T10:23:08Z</time>
      </trkpt>
      <trkpt lat="42.586491" lon="0.702014">
        <ele>2331.9</ele>
        <time>2010-07-02T10:23:08Z</time>
      </trkpt>
      <trkpt lat="42.586495" lon="0.702050">
        <ele>2330.3</ele>
        <time>2010-07-02T10:23:08Z</time>
      </trkpt>
      <trkpt lat="42.586544" lon="0.702110">
        <ele>2325.8</ele>
        <time>2010-07-02T10:23:08Z</time>
      </trkpt>
      <trkpt lat="42.586632" lon="0.702103">
        <ele>2321.3</ele>
        <time>2010-07-02T10:23:08Z</time>
      </trkpt>
      <trkpt lat="42.586626" lon="0.702297">
        <ele>2316.9</ele>
        <time>2010-07-02T10:23:08Z</time>
      </trkpt>
      <trkpt lat="42.586737" lon="0.702358">
        <ele>2309.9</ele>
        <time>2010-07-02T10:23:08Z</time>
      </trkpt>
      <trkpt lat="42.586865" lon="0.702487">
        <ele>2300.8</ele>
        <time>2010-07-02T10:23:08Z</time>
      </trkpt>
      <trkpt lat="42.586922" lon="0.702669">
        <ele>2294.2</ele>
        <time>2010-07-02T10:23:08Z</time>
      </trkpt>
      <trkpt lat="42.586907" lon="0.702856">
        <ele>2290.9</ele>
        <time>2010-07-02T10:23:08Z</time>
      </trkpt>
      <trkpt lat="42.586875" lon="0.702987">
        <ele>2289.7</ele>
        <time>2010-07-02T10:23:08Z</time>
      </trkpt>
      <trkpt lat="42.586800" lon="0.703128">
        <ele>2290.3</ele>
        <time>2010-07-02T10:23:08Z</time>
      </trkpt>
      <trkpt lat="42.586787" lon="0.703379">
        <ele>2286.3</ele>
        <time>2010-07-02T10:23:08Z</time>
      </trkpt>
      <trkpt lat="42.586751" lon="0.703542">
        <ele>2284.8</ele>
        <time>2010-07-02T10:23:08Z</time>
      </trkpt>
      <trkpt lat="42.586649" lon="0.703629">
        <ele>2287.5</ele>
        <time>2010-07-02T10:23:08Z</time>
      </trkpt>
      <trkpt lat="42.586555" lon="0.703703">
        <ele>2290.1</ele>
        <time>2010-07-02T10:23:08Z</time>
      </trkpt>
      <trkpt lat="42.586618" lon="0.703716">
        <ele>2287.1</ele>
        <time>2010-07-02T10:23:08Z</time>
      </trkpt>
      <trkpt lat="42.586620" lon="0.703799">
        <ele>2285.8</ele>
        <time>2010-07-02T10:23:08Z</time>
      </trkpt>
      <trkpt lat="42.586545" lon="0.703932">
        <ele>2287.1</ele>
        <time>2010-07-02T10:23:08Z</time>
      </trkpt>
      <trkpt lat="42.586447" lon="0.704010">
        <ele>2290.0</ele>
        <time>2010-07-02T10:23:08Z</time>
      </trkpt>
      <trkpt lat="42.586512" lon="0.704120">
        <ele>2285.9</ele>
        <time>2010-07-02T10:23:08Z</time>
      </trkpt>
      <trkpt lat="42.586508" lon="0.704329">
        <ele>2283.1</ele>
        <time>2010-07-02T10:23:08Z</time>
      </trkpt>
      <trkpt lat="42.586447" lon="0.704460">
        <ele>2283.4</ele>
        <time>2010-07-02T10:23:08Z</time>
      </trkpt>
      <trkpt lat="42.586490" lon="0.704611">
        <ele>2279.9</ele>
        <time>2010-07-02T10:23:08Z</time>
      </trkpt>
      <trkpt lat="42.586495" lon="0.704751">
        <ele>2278.4</ele>
        <time>2010-07-02T10:23:08Z</time>
      </trkpt>
      <trkpt lat="42.586566" lon="0.704968">
        <ele>2274.2</ele>
        <time>2010-07-02T10:23:08Z</time>
      </trkpt>
      <trkpt lat="42.586631" lon="0.705075">
        <ele>2271.4</ele>
        <time>2010-07-02T10:23:08Z</time>
      </trkpt>
      <trkpt lat="42.586555" lon="0.705199">
        <ele>2272.3</ele>
        <time>2010-07-02T10:23:08Z</time>
      </trkpt>
      <trkpt lat="42.586579" lon="0.705415">
        <ele>2269.7</ele>
        <time>2010-07-02T10:23:08Z</time>
      </trkpt>
      <trkpt lat="42.586645" lon="0.705625">
        <ele>2268.5</ele>
        <time>2010-07-02T10:23:08Z</time>
      </trkpt>
      <trkpt lat="42.586804" lon="0.705667">
        <ele>2264.5</ele>
        <time>2010-07-02T10:23:08Z</time>
      </trkpt>
      <trkpt lat="42.586897" lon="0.705848">
        <ele>2262.4</ele>
        <time>2010-07-02T10:23:08Z</time>
      </trkpt>
      <trkpt lat="42.586924" lon="0.706112">
        <ele>2262.2</ele>
        <time>2010-07-02T10:23:08Z</time>
      </trkpt>
      <trkpt lat="42.587072" lon="0.706181">
        <ele>2258.2</ele>
        <time>2010-07-02T10:23:08Z</time>
      </trkpt>
      <trkpt lat="42.587148" lon="0.706278">
        <ele>2258.0</ele>
        <time>2010-07-02T10:23:08Z</time>
      </trkpt>
      <trkpt lat="42.587179" lon="0.706610">
        <ele>2259.4</ele>
        <time>2010-07-02T10:23:08Z</time>
      </trkpt>
      <trkpt lat="42.587162" lon="0.706701">
        <ele>2259.8</ele>
        <time>2010-07-02T10:23:08Z</time>
      </trkpt>
      <trkpt lat="42.587318" lon="0.706676">
        <ele>2259.0</ele>
        <time>2010-07-02T10:23:08Z</time>
      </trkpt>
      <trkpt lat="42.587363" lon="0.706631">
        <ele>2258.7</ele>
        <time>2010-07-02T10:23:08Z</time>
      </trkpt>
      <trkpt lat="42.587444" lon="0.706686">
        <ele>2258.5</ele>
        <time>2010-07-02T10:23:08Z</time>
      </trkpt>
      <trkpt lat="42.587534" lon="0.706880">
        <ele>2258.7</ele>
        <time>2010-07-02T10:23:08Z</time>
      </trkpt>
      <trkpt lat="42.587652" lon="0.706945">
        <ele>2258.3</ele>
        <time>2010-07-02T10:23:08Z</time>
      </trkpt>
      <trkpt lat="42.587756" lon="0.707131">
        <ele>2258.0</ele>
        <time>2010-07-02T10:23:08Z</time>
      </trkpt>
      <trkpt lat="42.588013" lon="0.707320">
        <ele>2256.9</ele>
        <time>2010-07-02T10:23:08Z</time>
      </trkpt>
      <trkpt lat="42.588060" lon="0.707462">
        <ele>2256.7</ele>
        <time>2010-07-02T10:23:08Z</time>
      </trkpt>
      <trkpt lat="42.588166" lon="0.707506">
        <ele>2256.4</ele>
        <time>2010-07-02T10:23:08Z</time>
      </trkpt>
      <trkpt lat="42.588284" lon="0.707692">
        <ele>2255.7</ele>
        <time>2010-07-02T10:23:08Z</time>
      </trkpt>
      <trkpt lat="42.588348" lon="0.707919">
        <ele>2254.9</ele>
        <time>2010-07-02T10:23:08Z</time>
      </trkpt>
      <trkpt lat="42.588544" lon="0.708036">
        <ele>2254.1</ele>
        <time>2010-07-02T10:23:08Z</time>
      </trkpt>
      <trkpt lat="42.588704" lon="0.708239">
        <ele>2253.3</ele>
        <time>2010-07-02T10:23:08Z</time>
      </trkpt>
      <trkpt lat="42.588895" lon="0.708304">
        <ele>2251.9</ele>
        <time>2010-07-02T10:23:08Z</time>
      </trkpt>
      <trkpt lat="42.589048" lon="0.708405">
        <ele>2250.6</ele>
        <time>2010-07-02T10:23:08Z</time>
      </trkpt>
      <trkpt lat="42.589213" lon="0.708382">
        <ele>2249.4</ele>
        <time>2010-07-02T10:23:08Z</time>
      </trkpt>
      <trkpt lat="42.589314" lon="0.708378">
        <ele>2248.6</ele>
        <time>2010-07-02T10:23:08Z</time>
      </trkpt>
      <trkpt lat="42.589391" lon="0.708463">
        <ele>2247.9</ele>
        <time>2010-07-02T10:23:08Z</time>
      </trkpt>
      <trkpt lat="42.589388" lon="0.708671">
        <ele>2247.7</ele>
        <time>2010-07-02T10:23:08Z</time>
      </trkpt>
      <trkpt lat="42.589460" lon="0.708778">
        <ele>2247.1</ele>
        <time>2010-07-02T10:23:08Z</time>
      </trkpt>
      <trkpt lat="42.589508" lon="0.708897">
        <ele>2247.0</ele>
        <time>2010-07-02T10:23:08Z</time>
      </trkpt>
      <trkpt lat="42.589571" lon="0.708952">
        <ele>2246.6</ele>
        <time>2010-07-02T10:23:08Z</time>
      </trkpt>
      <trkpt lat="42.589579" lon="0.708974">
        <ele>2246.6</ele>
        <time>2010-07-02T10:23:08Z</time>
      </trkpt>
      <trkpt lat="42.589530" lon="0.709188">
        <ele>2247.5</ele>
        <time>2010-07-02T10:23:08Z</time>
      </trkpt>
      <trkpt lat="42.589612" lon="0.709444">
        <ele>2247.4</ele>
        <time>2010-07-02T10:23:08Z</time>
      </trkpt>
      <trkpt lat="42.589640" lon="0.709656">
        <ele>2247.1</ele>
        <time>2010-07-02T10:23:08Z</time>
      </trkpt>
      <trkpt lat="42.589652" lon="0.709990">
        <ele>2245.3</ele>
        <time>2010-07-02T10:23:08Z</time>
      </trkpt>
      <trkpt lat="42.589571" lon="0.710129">
        <ele>2245.5</ele>
        <time>2010-07-02T10:23:08Z</time>
      </trkpt>
      <trkpt lat="42.589665" lon="0.710293">
        <ele>2243.6</ele>
        <time>2010-07-02T10:23:08Z</time>
      </trkpt>
      <trkpt lat="42.589748" lon="0.710264">
        <ele>2242.7</ele>
        <time>2010-07-02T10:23:08Z</time>
      </trkpt>
      <trkpt lat="42.589791" lon="0.710443">
        <ele>2241.0</ele>
        <time>2010-07-02T10:23:08Z</time>
      </trkpt>
      <trkpt lat="42.589783" lon="0.710543">
        <ele>2240.2</ele>
        <time>2010-07-02T10:23:08Z</time>
      </trkpt>
      <trkpt lat="42.589721" lon="0.710723">
        <ele>2239.4</ele>
        <time>2010-07-02T10:23:08Z</time>
      </trkpt>
      <trkpt lat="42.589753" lon="0.710915">
        <ele>2237.2</ele>
        <time>2010-07-02T10:23:08Z</time>
      </trkpt>
      <trkpt lat="42.589849" lon="0.710923">
        <ele>2235.7</ele>
        <time>2010-07-02T10:23:08Z</time>
      </trkpt>
      <trkpt lat="42.589907" lon="0.711000">
        <ele>2234.0</ele>
        <time>2010-07-02T10:23:08Z</time>
      </trkpt>
      <trkpt lat="42.589933" lon="0.711121">
        <ele>2232.4</ele>
        <time>2010-07-02T10:23:08Z</time>
      </trkpt>
      <trkpt lat="42.590013" lon="0.711136">
        <ele>2230.9</ele>
        <time>2010-07-02T10:23:08Z</time>
      </trkpt>
      <trkpt lat="42.590042" lon="0.711297">
        <ele>2229.2</ele>
        <time>2010-07-02T10:23:08Z</time>
      </trkpt>
      <trkpt lat="42.590112" lon="0.711306">
        <ele>2228.0</ele>
        <time>2010-07-02T10:23:08Z</time>
      </trkpt>
      <trkpt lat="42.590194" lon="0.711386">
        <ele>2226.4</ele>
        <time>2010-07-02T10:23:08Z</time>
      </trkpt>
      <trkpt lat="42.590272" lon="0.711412">
        <ele>2225.1</ele>
        <time>2010-07-02T10:23:08Z</time>
      </trkpt>
      <trkpt lat="42.590335" lon="0.711384">
        <ele>2224.2</ele>
        <time>2010-07-02T10:23:08Z</time>
      </trkpt>
      <trkpt lat="42.590356" lon="0.711379">
        <ele>2223.8</ele>
        <time>2010-07-02T10:23:08Z</time>
      </trkpt>
      <trkpt lat="42.590367" lon="0.711541">
        <ele>2223.4</ele>
        <time>2010-07-02T10:23:08Z</time>
      </trkpt>
      <trkpt lat="42.590339" lon="0.711673">
        <ele>2223.6</ele>
        <time>2010-07-02T10:23:08Z</time>
      </trkpt>
      <trkpt lat="42.590434" lon="0.711697">
        <ele>2222.2</ele>
        <time>2010-07-02T10:23:08Z</time>
      </trkpt>
      <trkpt lat="42.590523" lon="0.711820">
        <ele>2221.0</ele>
        <time>2010-07-02T10:23:08Z</time>
      </trkpt>
      <trkpt lat="42.590614" lon="0.711773">
        <ele>2220.0</ele>
        <time>2010-07-02T10:23:08Z</time>
      </trkpt>
      <trkpt lat="42.590769" lon="0.711825">
        <ele>2218.1</ele>
        <time>2010-07-02T10:23:08Z</time>
      </trkpt>
      <trkpt lat="42.590879" lon="0.711983">
        <ele>2216.9</ele>
        <time>2010-07-02T10:23:08Z</time>
      </trkpt>
      <trkpt lat="42.590933" lon="0.712172">
        <ele>2217.2</ele>
        <time>2010-07-02T10:23:08Z</time>
      </trkpt>
      <trkpt lat="42.590938" lon="0.712419">
        <ele>2219.4</ele>
        <time>2010-07-02T10:23:08Z</time>
      </trkpt>
      <trkpt lat="42.591006" lon="0.712613">
        <ele>2220.2</ele>
        <time>2010-07-02T10:23:08Z</time>
      </trkpt>
      <trkpt lat="42.590949" lon="0.712893">
        <ele>2223.5</ele>
        <time>2010-07-02T10:23:08Z</time>
      </trkpt>
      <trkpt lat="42.590935" lon="0.713132">
        <ele>2224.9</ele>
        <time>2010-07-02T10:23:08Z</time>
      </trkpt>
      <trkpt lat="42.591023" lon="0.713283">
        <ele>2224.2</ele>
        <time>2010-07-02T10:23:08Z</time>
      </trkpt>
      <trkpt lat="42.591106" lon="0.713358">
        <ele>2223.3</ele>
        <time>2010-07-02T10:23:08Z</time>
      </trkpt>
      <trkpt lat="42.591211" lon="0.713367">
        <ele>2221.7</ele>
        <time>2010-07-02T10:23:08Z</time>
      </trkpt>
      <trkpt lat="42.591297" lon="0.713304">
        <ele>2220.3</ele>
        <time>2010-07-02T10:23:08Z</time>
      </trkpt>
      <trkpt lat="42.591390" lon="0.713312">
        <ele>2219.2</ele>
        <time>2010-07-02T10:23:08Z</time>
      </trkpt>
      <trkpt lat="42.591500" lon="0.713369">
        <ele>2218.1</ele>
        <time>2010-07-02T10:23:08Z</time>
      </trkpt>
      <trkpt lat="42.591576" lon="0.713438">
        <ele>2217.4</ele>
        <time>2010-07-02T10:23:08Z</time>
      </trkpt>
      <trkpt lat="42.591591" lon="0.713578">
        <ele>2217.6</ele>
        <time>2010-07-02T10:23:08Z</time>
      </trkpt>
      <trkpt lat="42.591673" lon="0.713629">
        <ele>2216.6</ele>
        <time>2010-07-02T10:23:08Z</time>
      </trkpt>
      <trkpt lat="42.591705" lon="0.713819">
        <ele>2216.9</ele>
        <time>2010-07-02T10:23:08Z</time>
      </trkpt>
      <trkpt lat="42.591724" lon="0.713789">
        <ele>2216.4</ele>
        <time>2010-07-02T10:23:08Z</time>
      </trkpt>
      <trkpt lat="42.591790" lon="0.713906">
        <ele>2216.2</ele>
        <time>2010-07-02T10:23:08Z</time>
      </trkpt>
      <trkpt lat="42.591828" lon="0.714033">
        <ele>2216.4</ele>
        <time>2010-07-02T10:23:08Z</time>
      </trkpt>
      <trkpt lat="42.591923" lon="0.714020">
        <ele>2214.9</ele>
        <time>2010-07-02T10:23:08Z</time>
      </trkpt>
      <trkpt lat="42.591960" lon="0.714029">
        <ele>2214.4</ele>
        <time>2010-07-02T10:23:08Z</time>
      </trkpt>
      <trkpt lat="42.592011" lon="0.714219">
        <ele>2214.9</ele>
        <time>2010-07-02T10:23:08Z</time>
      </trkpt>
      <trkpt lat="42.592173" lon="0.714302">
        <ele>2213.7</ele>
        <time>2010-07-02T10:23:08Z</time>
      </trkpt>
      <trkpt lat="42.592301" lon="0.714434">
        <ele>2213.4</ele>
        <time>2010-07-02T10:23:08Z</time>
      </trkpt>
      <trkpt lat="42.592386" lon="0.714548">
        <ele>2213.0</ele>
        <time>2010-07-02T10:23:08Z</time>
      </trkpt>
      <trkpt lat="42.592356" lon="0.714716">
        <ele>2214.7</ele>
        <time>2010-07-02T10:23:08Z</time>
      </trkpt>
      <trkpt lat="42.592400" lon="0.714867">
        <ele>2215.7</ele>
        <time>2010-07-02T10:23:08Z</time>
      </trkpt>
      <trkpt lat="42.592517" lon="0.714923">
        <ele>2214.6</ele>
        <time>2010-07-02T10:23:08Z</time>
      </trkpt>
      <trkpt lat="42.592625" lon="0.714948">
        <ele>2213.3</ele>
        <time>2010-07-02T10:23:08Z</time>
      </trkpt>
      <trkpt lat="42.592716" lon="0.715064">
        <ele>2212.8</ele>
        <time>2010-07-02T10:23:08Z</time>
      </trkpt>
      <trkpt lat="42.592700" lon="0.715086">
        <ele>2213.1</ele>
        <time>2010-07-02T10:23:08Z</time>
      </trkpt>
      <trkpt lat="42.592678" lon="0.715206">
        <ele>2214.2</ele>
        <time>2010-07-02T10:23:08Z</time>
      </trkpt>
      <trkpt lat="42.592750" lon="0.715311">
        <ele>2213.6</ele>
        <time>2010-07-02T10:23:08Z</time>
      </trkpt>
      <trkpt lat="42.592809" lon="0.715471">
        <ele>2213.6</ele>
        <time>2010-07-02T10:23:08Z</time>
      </trkpt>
      <trkpt lat="42.592783" lon="0.715634">
        <ele>2215.9</ele>
        <time>2010-07-02T10:23:08Z</time>
      </trkpt>
      <trkpt lat="42.592888" lon="0.715688">
        <ele>2214.0</ele>
        <time>2010-07-02T10:23:08Z</time>
      </trkpt>
      <trkpt lat="42.592874" lon="0.715895">
        <ele>2216.2</ele>
        <time>2010-07-02T10:23:08Z</time>
      </trkpt>
      <trkpt lat="42.592940" lon="0.716021">
        <ele>2215.6</ele>
        <time>2010-07-02T10:23:08Z</time>
      </trkpt>
      <trkpt lat="42.592897" lon="0.716194">
        <ele>2218.2</ele>
        <time>2010-07-02T10:23:08Z</time>
      </trkpt>
      <trkpt lat="42.592993" lon="0.716289">
        <ele>2216.6</ele>
        <time>2010-07-02T10:23:08Z</time>
      </trkpt>
      <trkpt lat="42.593006" lon="0.716501">
        <ele>2217.2</ele>
        <time>2010-07-02T10:23:08Z</time>
      </trkpt>
      <trkpt lat="42.593082" lon="0.716624">
        <ele>2216.0</ele>
        <time>2010-07-02T10:23:08Z</time>
      </trkpt>
      <trkpt lat="42.593019" lon="0.716740">
        <ele>2217.9</ele>
        <time>2010-07-02T10:23:08Z</time>
      </trkpt>
      <trkpt lat="42.593083" lon="0.716833">
        <ele>2216.7</ele>
        <time>2010-07-02T10:23:08Z</time>
      </trkpt>
      <trkpt lat="42.593156" lon="0.716928">
        <ele>2215.2</ele>
        <time>2010-07-02T10:23:08Z</time>
      </trkpt>
      <trkpt lat="42.593125" lon="0.716932">
        <ele>2216.0</ele>
        <time>2010-07-02T10:23:08Z</time>
      </trkpt>
      <trkpt lat="42.593087" lon="0.717132">
        <ele>2217.2</ele>
        <time>2010-07-02T10:23:08Z</time>
      </trkpt>
      <trkpt lat="42.593004" lon="0.717417">
        <ele>2217.5</ele>
        <time>2010-07-02T10:23:08Z</time>
      </trkpt>
      <trkpt lat="42.593029" lon="0.717728">
        <ele>2214.8</ele>
        <time>2010-07-02T10:23:08Z</time>
      </trkpt>
      <trkpt lat="42.592938" lon="0.717928">
        <ele>2215.4</ele>
        <time>2010-07-02T10:23:08Z</time>
      </trkpt>
      <trkpt lat="42.592980" lon="0.718145">
        <ele>2212.6</ele>
        <time>2010-07-02T10:23:08Z</time>
      </trkpt>
      <trkpt lat="42.592936" lon="0.718289">
        <ele>2212.4</ele>
        <time>2010-07-02T10:23:08Z</time>
      </trkpt>
      <trkpt lat="42.592957" lon="0.718469">
        <ele>2210.4</ele>
        <time>2010-07-02T10:23:08Z</time>
      </trkpt>
      <trkpt lat="42.593019" lon="0.718427">
        <ele>2209.2</ele>
        <time>2010-07-02T10:23:08Z</time>
      </trkpt>
      <trkpt lat="42.593059" lon="0.718529">
        <ele>2207.3</ele>
        <time>2010-07-02T10:23:08Z</time>
      </trkpt>
      <trkpt lat="42.593068" lon="0.718440">
        <ele>2207.9</ele>
        <time>2010-07-02T10:23:08Z</time>
      </trkpt>
      <trkpt lat="42.593139" lon="0.718474">
        <ele>2205.8</ele>
        <time>2010-07-02T10:23:08Z</time>
      </trkpt>
      <trkpt lat="42.593128" lon="0.718412">
        <ele>2206.7</ele>
        <time>2010-07-02T10:23:08Z</time>
      </trkpt>
      <trkpt lat="42.593188" lon="0.718370">
        <ele>2205.6</ele>
        <time>2010-07-02T10:23:08Z</time>
      </trkpt>
      <trkpt lat="42.593249" lon="0.718429">
        <ele>2203.5</ele>
        <time>2010-07-02T10:23:08Z</time>
      </trkpt>
      <trkpt lat="42.593263" lon="0.718523">
        <ele>2202.2</ele>
        <time>2010-07-02T10:23:08Z</time>
      </trkpt>
      <trkpt lat="42.593217" lon="0.718562">
        <ele>2203.0</ele>
        <time>2010-07-02T10:23:08Z</time>
      </trkpt>
      <trkpt lat="42.593265" lon="0.718609">
        <ele>2201.3</ele>
        <time>2010-07-02T10:23:08Z</time>
      </trkpt>
      <trkpt lat="42.593261" lon="0.718663">
        <ele>2200.8</ele>
        <time>2010-07-02T10:23:08Z</time>
      </trkpt>
      <trkpt lat="42.593230" lon="0.718748">
        <ele>2200.7</ele>
        <time>2010-07-02T10:23:08Z</time>
      </trkpt>
      <trkpt lat="42.593264" lon="0.718811">
        <ele>2199.8</ele>
        <time>2010-07-02T10:23:08Z</time>
      </trkpt>
      <trkpt lat="42.593275" lon="0.718994">
        <ele>2199.3</ele>
        <time>2010-07-02T10:23:08Z</time>
      </trkpt>
      <trkpt lat="42.593238" lon="0.719128">
        <ele>2200.4</ele>
        <time>2010-07-02T10:23:08Z</time>
      </trkpt>
      <trkpt lat="42.593283" lon="0.719246">
        <ele>2198.7</ele>
        <time>2010-07-02T10:23:08Z</time>
      </trkpt>
      <trkpt lat="42.593257" lon="0.719378">
        <ele>2199.6</ele>
        <time>2010-07-02T10:23:08Z</time>
      </trkpt>
      <trkpt lat="42.593314" lon="0.719432">
        <ele>2197.2</ele>
        <time>2010-07-02T10:23:08Z</time>
      </trkpt>
      <trkpt lat="42.593284" lon="0.719545">
        <ele>2198.3</ele>
        <time>2010-07-02T10:23:08Z</time>
      </trkpt>
      <trkpt lat="42.593341" lon="0.719597">
        <ele>2195.8</ele>
        <time>2010-07-02T10:23:08Z</time>
      </trkpt>
      <trkpt lat="42.593298" lon="0.719757">
        <ele>2199.0</ele>
        <time>2010-07-02T10:23:08Z</time>
      </trkpt>
      <trkpt lat="42.593348" lon="0.719820">
        <ele>2197.1</ele>
        <time>2010-07-02T10:23:08Z</time>
      </trkpt>
      <trkpt lat="42.593346" lon="0.719852">
        <ele>2197.5</ele>
        <time>2010-07-02T10:23:08Z</time>
      </trkpt>
      <trkpt lat="42.593297" lon="0.719943">
        <ele>2200.6</ele>
        <time>2010-07-02T10:23:08Z</time>
      </trkpt>
      <trkpt lat="42.593367" lon="0.719974">
        <ele>2197.4</ele>
        <time>2010-07-02T10:23:08Z</time>
      </trkpt>
      <trkpt lat="42.593383" lon="0.720006">
        <ele>2196.8</ele>
        <time>2010-07-02T10:23:08Z</time>
      </trkpt>
      <trkpt lat="42.593362" lon="0.720121">
        <ele>2198.7</ele>
        <time>2010-07-02T10:23:08Z</time>
      </trkpt>
      <trkpt lat="42.593418" lon="0.720120">
        <ele>2195.9</ele>
        <time>2010-07-02T10:23:08Z</time>
      </trkpt>
      <trkpt lat="42.593393" lon="0.720217">
        <ele>2197.9</ele>
        <time>2010-07-02T10:23:08Z</time>
      </trkpt>
      <trkpt lat="42.593436" lon="0.720242">
        <ele>2195.8</ele>
        <time>2010-07-02T10:23:08Z</time>
      </trkpt>
      <trkpt lat="42.593448" lon="0.720331">
        <ele>2195.7</ele>
        <time>2010-07-02T10:23:08Z</time>
      </trkpt>
      <trkpt lat="42.593455" lon="0.720466">
        <ele>2196.0</ele>
        <time>2010-07-02T10:23:08Z</time>
      </trkpt>
      <trkpt lat="42.593537" lon="0.720490">
        <ele>2191.7</ele>
        <time>2010-07-02T10:23:08Z</time>
      </trkpt>
      <trkpt lat="42.593635" lon="0.720634">
        <ele>2186.9</ele>
        <time>2010-07-02T10:23:08Z</time>
      </trkpt>
      <trkpt lat="42.593682" lon="0.720683">
        <ele>2184.8</ele>
        <time>2010-07-02T10:23:08Z</time>
      </trkpt>
      <trkpt lat="42.593685" lon="0.720786">
        <ele>2185.0</ele>
        <time>2010-07-02T10:23:08Z</time>
      </trkpt>
      <trkpt lat="42.593732" lon="0.720832">
        <ele>2182.9</ele>
        <time>2010-07-02T10:23:08Z</time>
      </trkpt>
      <trkpt lat="42.593745" lon="0.720918">
        <ele>2182.6</ele>
        <time>2010-07-02T10:23:08Z</time>
      </trkpt>
      <trkpt lat="42.593769" lon="0.721121">
        <ele>2183.0</ele>
        <time>2010-07-02T10:23:08Z</time>
      </trkpt>
      <trkpt lat="42.593742" lon="0.721282">
        <ele>2183.8</ele>
        <time>2010-07-02T10:23:08Z</time>
      </trkpt>
      <trkpt lat="42.593698" lon="0.721500">
        <ele>2182.0</ele>
        <time>2010-07-02T10:23:08Z</time>
      </trkpt>
      <trkpt lat="42.593607" lon="0.721678">
        <ele>2182.4</ele>
        <time>2010-07-02T10:23:08Z</time>
      </trkpt>
      <trkpt lat="42.593605" lon="0.721806">
        <ele>2180.2</ele>
        <time>2010-07-02T10:23:08Z</time>
      </trkpt>
      <trkpt lat="42.593636" lon="0.721995">
        <ele>2175.6</ele>
        <time>2010-07-02T10:23:08Z</time>
      </trkpt>
      <trkpt lat="42.593602" lon="0.722162">
        <ele>2172.8</ele>
        <time>2010-07-02T10:23:08Z</time>
      </trkpt>
      <trkpt lat="42.593586" lon="0.722278">
        <ele>2169.9</ele>
        <time>2010-07-02T10:23:08Z</time>
      </trkpt>
      <trkpt lat="42.593542" lon="0.722453">
        <ele>2166.2</ele>
        <time>2010-07-02T10:23:08Z</time>
      </trkpt>
      <trkpt lat="42.593611" lon="0.722504">
        <ele>2162.4</ele>
        <time>2010-07-02T10:23:08Z</time>
      </trkpt>
      <trkpt lat="42.593613" lon="0.722594">
        <ele>2159.6</ele>
        <time>2010-07-02T10:23:08Z</time>
      </trkpt>
      <trkpt lat="42.593571" lon="0.722754">
        <ele>2156.2</ele>
        <time>2010-07-02T10:23:08Z</time>
      </trkpt>
      <trkpt lat="42.593611" lon="0.722875">
        <ele>2151.4</ele>
        <time>2010-07-02T10:23:08Z</time>
      </trkpt>
      <trkpt lat="42.593602" lon="0.722987">
        <ele>2148.2</ele>
        <time>2010-07-02T10:23:08Z</time>
      </trkpt>
      <trkpt lat="42.593583" lon="0.723092">
        <ele>2145.4</ele>
        <time>2010-07-02T10:23:08Z</time>
      </trkpt>
      <trkpt lat="42.593555" lon="0.723151">
        <ele>2144.4</ele>
        <time>2010-07-02T10:23:08Z</time>
      </trkpt>
      <trkpt lat="42.593454" lon="0.723266">
        <ele>2143.4</ele>
        <time>2010-07-02T10:23:08Z</time>
      </trkpt>
      <trkpt lat="42.593394" lon="0.723369">
        <ele>2141.5</ele>
        <time>2010-07-02T10:23:08Z</time>
      </trkpt>
      <trkpt lat="42.593376" lon="0.723496">
        <ele>2137.7</ele>
        <time>2010-07-02T10:23:08Z</time>
      </trkpt>
      <trkpt lat="42.593353" lon="0.723565">
        <ele>2135.9</ele>
        <time>2010-07-02T10:23:08Z</time>
      </trkpt>
      <trkpt lat="42.593320" lon="0.723613">
        <ele>2135.0</ele>
        <time>2010-07-02T10:23:08Z</time>
      </trkpt>
      <trkpt lat="42.593244" lon="0.723684">
        <ele>2134.2</ele>
        <time>2010-07-02T10:23:08Z</time>
      </trkpt>
      <trkpt lat="42.593164" lon="0.723842">
        <ele>2130.3</ele>
        <time>2010-07-02T10:23:08Z</time>
      </trkpt>
      <trkpt lat="42.593122" lon="0.723942">
        <ele>2127.5</ele>
        <time>2010-07-02T10:23:08Z</time>
      </trkpt>
      <trkpt lat="42.593123" lon="0.724045">
        <ele>2123.7</ele>
        <time>2010-07-02T10:23:08Z</time>
      </trkpt>
      <trkpt lat="42.593135" lon="0.724128">
        <ele>2120.5</ele>
        <time>2010-07-02T10:23:08Z</time>
      </trkpt>
      <trkpt lat="42.593175" lon="0.724242">
        <ele>2115.5</ele>
        <time>2010-07-02T10:23:08Z</time>
      </trkpt>
      <trkpt lat="42.593128" lon="0.724420">
        <ele>2109.9</ele>
        <time>2010-07-02T10:23:08Z</time>
      </trkpt>
      <trkpt lat="42.593095" lon="0.724478">
        <ele>2108.4</ele>
        <time>2010-07-02T10:23:08Z</time>
      </trkpt>
      <trkpt lat="42.593063" lon="0.724490">
        <ele>2108.6</ele>
        <time>2010-07-02T10:23:08Z</time>
      </trkpt>
      <trkpt lat="42.593017" lon="0.724474">
        <ele>2110.1</ele>
        <time>2010-07-02T10:23:08Z</time>
      </trkpt>
      <trkpt lat="42.592977" lon="0.724576">
        <ele>2107.1</ele>
        <time>2010-07-02T10:23:08Z</time>
      </trkpt>
      <trkpt lat="42.592970" lon="0.724645">
        <ele>2104.6</ele>
        <time>2010-07-02T10:23:08Z</time>
      </trkpt>
      <trkpt lat="42.592943" lon="0.724729">
        <ele>2101.8</ele>
        <time>2010-07-02T10:23:08Z</time>
      </trkpt>
      <trkpt lat="42.592925" lon="0.724872">
        <ele>2096.4</ele>
        <time>2010-07-02T10:23:08Z</time>
      </trkpt>
      <trkpt lat="42.592972" lon="0.725027">
        <ele>2089.6</ele>
        <time>2010-07-02T10:23:08Z</time>
      </trkpt>
      <trkpt lat="42.592985" lon="0.725142">
        <ele>2084.9</ele>
        <time>2010-07-02T10:23:08Z</time>
      </trkpt>
      <trkpt lat="42.592995" lon="0.725242">
        <ele>2080.8</ele>
        <time>2010-07-02T10:23:08Z</time>
      </trkpt>
      <trkpt lat="42.592974" lon="0.725394">
        <ele>2075.2</ele>
        <time>2010-07-02T10:23:08Z</time>
      </trkpt>
      <trkpt lat="42.592931" lon="0.725507">
        <ele>2071.8</ele>
        <time>2010-07-02T10:23:08Z</time>
      </trkpt>
      <trkpt lat="42.592891" lon="0.725617">
        <ele>2069.3</ele>
        <time>2010-07-02T10:23:08Z</time>
      </trkpt>
      <trkpt lat="42.592797" lon="0.725840">
        <ele>2065.9</ele>
        <time>2010-07-02T10:23:08Z</time>
      </trkpt>
      <trkpt lat="42.592649" lon="0.726032">
        <ele>2066.1</ele>
        <time>2010-07-02T10:23:08Z</time>
      </trkpt>
      <trkpt lat="42.592581" lon="0.726187">
        <ele>2064.3</ele>
        <time>2010-07-02T10:23:08Z</time>
      </trkpt>
      <trkpt lat="42.592563" lon="0.726460">
        <ele>2059.3</ele>
        <time>2010-07-02T10:23:08Z</time>
      </trkpt>
      <trkpt lat="42.592646" lon="0.726666">
        <ele>2051.9</ele>
        <time>2010-07-02T10:23:08Z</time>
      </trkpt>
      <trkpt lat="42.592634" lon="0.726741">
        <ele>2051.0</ele>
        <time>2010-07-02T10:23:08Z</time>
      </trkpt>
      <trkpt lat="42.592675" lon="0.726799">
        <ele>2048.1</ele>
        <time>2010-07-02T10:23:08Z</time>
      </trkpt>
      <trkpt lat="42.592665" lon="0.726839">
        <ele>2047.9</ele>
        <time>2010-07-02T10:23:08Z</time>
      </trkpt>
      <trkpt lat="42.592563" lon="0.727046">
        <ele>2048.8</ele>
        <time>2010-07-02T10:23:08Z</time>
      </trkpt>
      <trkpt lat="42.592635" lon="0.727221">
        <ele>2043.7</ele>
        <time>2010-07-02T10:23:08Z</time>
      </trkpt>
      <trkpt lat="42.592584" lon="0.727542">
        <ele>2043.8</ele>
        <time>2010-07-02T10:23:08Z</time>
      </trkpt>
      <trkpt lat="42.592663" lon="0.727689">
        <ele>2038.5</ele>
        <time>2010-07-02T10:23:08Z</time>
      </trkpt>
      <trkpt lat="42.592649" lon="0.727786">
        <ele>2038.5</ele>
        <time>2010-07-02T10:23:08Z</time>
      </trkpt>
      <trkpt lat="42.592580" lon="0.727920">
        <ele>2041.3</ele>
        <time>2010-07-02T10:23:08Z</time>
      </trkpt>
      <trkpt lat="42.592638" lon="0.728035">
        <ele>2036.4</ele>
        <time>2010-07-02T10:23:08Z</time>
      </trkpt>
      <trkpt lat="42.592654" lon="0.728132">
        <ele>2034.2</ele>
        <time>2010-07-02T10:23:08Z</time>
      </trkpt>
      <trkpt lat="42.592581" lon="0.728272">
        <ele>2036.5</ele>
        <time>2010-07-02T10:23:08Z</time>
      </trkpt>
      <trkpt lat="42.592701" lon="0.728238">
        <ele>2030.1</ele>
        <time>2010-07-02T10:23:08Z</time>
      </trkpt>
      <trkpt lat="42.592745" lon="0.728257">
        <ele>2027.3</ele>
        <time>2010-07-02T10:23:08Z</time>
      </trkpt>
      <trkpt lat="42.592753" lon="0.728337">
        <ele>2025.7</ele>
        <time>2010-07-02T10:23:08Z</time>
      </trkpt>
      <trkpt lat="42.592746" lon="0.728539">
        <ele>2023.4</ele>
        <time>2010-07-02T10:23:08Z</time>
      </trkpt>
      <trkpt lat="42.592828" lon="0.728605">
        <ele>2017.9</ele>
        <time>2010-07-02T10:23:08Z</time>
      </trkpt>
      <trkpt lat="42.592855" lon="0.728769">
        <ele>2014.2</ele>
        <time>2010-07-02T10:23:08Z</time>
      </trkpt>
      <trkpt lat="42.592862" lon="0.728999">
        <ele>2010.6</ele>
        <time>2010-07-02T10:23:08Z</time>
      </trkpt>
      <trkpt lat="42.592852" lon="0.729158">
        <ele>2008.9</ele>
        <time>2010-07-02T10:23:08Z</time>
      </trkpt>
      <trkpt lat="42.592849" lon="0.729249">
        <ele>2007.9</ele>
        <time>2010-07-02T10:23:08Z</time>
      </trkpt>
      <trkpt lat="42.592803" lon="0.729351">
        <ele>2009.3</ele>
        <time>2010-07-02T10:23:08Z</time>
      </trkpt>
      <trkpt lat="42.592769" lon="0.729518">
        <ele>2009.1</ele>
        <time>2010-07-02T10:23:08Z</time>
      </trkpt>
      <trkpt lat="42.592732" lon="0.729685">
        <ele>2008.9</ele>
        <time>2010-07-02T10:23:08Z</time>
      </trkpt>
      <trkpt lat="42.592742" lon="0.729886">
        <ele>2005.1</ele>
        <time>2010-07-02T10:23:08Z</time>
      </trkpt>
      <trkpt lat="42.592727" lon="0.729977">
        <ele>2004.5</ele>
        <time>2010-07-02T10:23:08Z</time>
      </trkpt>
      <trkpt lat="42.592685" lon="0.730104">
        <ele>2005.2</ele>
        <time>2010-07-02T10:23:08Z</time>
      </trkpt>
      <trkpt lat="42.592694" lon="0.730298">
        <ele>2001.6</ele>
        <time>2010-07-02T10:23:08Z</time>
      </trkpt>
      <trkpt lat="42.592690" lon="0.730378">
        <ele>2000.6</ele>
        <time>2010-07-02T10:23:08Z</time>
      </trkpt>
      <trkpt lat="42.592675" lon="0.730422">
        <ele>2000.9</ele>
        <time>2010-07-02T10:23:08Z</time>
      </trkpt>
      <trkpt lat="42.592626" lon="0.730474">
        <ele>2003.3</ele>
        <time>2010-07-02T10:23:08Z</time>
      </trkpt>
      <trkpt lat="42.592598" lon="0.730543">
        <ele>2004.0</ele>
        <time>2010-07-02T10:23:08Z</time>
      </trkpt>
      <trkpt lat="42.592592" lon="0.730648">
        <ele>2002.7</ele>
        <time>2010-07-02T10:23:08Z</time>
      </trkpt>
      <trkpt lat="42.592602" lon="0.730774">
        <ele>1999.9</ele>
        <time>2010-07-02T10:23:08Z</time>
      </trkpt>
      <trkpt lat="42.592588" lon="0.730864">
        <ele>1999.5</ele>
        <time>2010-07-02T10:23:08Z</time>
      </trkpt>
      <trkpt lat="42.592588" lon="0.731048">
        <ele>1996.5</ele>
        <time>2010-07-02T10:23:08Z</time>
      </trkpt>
      <trkpt lat="42.592646" lon="0.730848">
        <ele>1995.6</ele>
        <time>2010-07-02T10:23:08Z</time>
      </trkpt>
      <trkpt lat="42.592685" lon="0.730803">
        <ele>1993.5</ele>
        <time>2010-07-02T10:23:08Z</time>
      </trkpt>
      <trkpt lat="42.592764" lon="0.730757">
        <ele>1988.8</ele>
        <time>2010-07-02T10:23:08Z</time>
      </trkpt>
      <trkpt lat="42.592766" lon="0.730962">
        <ele>1984.9</ele>
        <time>2010-07-02T10:23:08Z</time>
      </trkpt>
      <trkpt lat="42.592856" lon="0.730822">
        <ele>1981.1</ele>
        <time>2010-07-02T10:23:08Z</time>
      </trkpt>
      <trkpt lat="42.592936" lon="0.730711">
        <ele>1977.9</ele>
        <time>2010-07-02T10:23:08Z</time>
      </trkpt>
      <trkpt lat="42.592964" lon="0.730751">
        <ele>1975.4</ele>
        <time>2010-07-02T10:23:08Z</time>
      </trkpt>
      <trkpt lat="42.592956" lon="0.730971">
        <ele>1971.3</ele>
        <time>2010-07-02T10:23:08Z</time>
      </trkpt>
      <trkpt lat="42.593073" lon="0.730685">
        <ele>1970.4</ele>
        <time>2010-07-02T10:23:08Z</time>
      </trkpt>
      <trkpt lat="42.593068" lon="0.730836">
        <ele>1967.6</ele>
        <time>2010-07-02T10:23:08Z</time>
      </trkpt>
      <trkpt lat="42.593108" lon="0.730899">
        <ele>1963.9</ele>
        <time>2010-07-02T10:23:08Z</time>
      </trkpt>
      <trkpt lat="42.593083" lon="0.731098">
        <ele>1961.1</ele>
        <time>2010-07-02T10:23:08Z</time>
      </trkpt>
      <trkpt lat="42.593126" lon="0.731010">
        <ele>1960.4</ele>
        <time>2010-07-02T10:23:08Z</time>
      </trkpt>
      <trkpt lat="42.593242" lon="0.730822">
        <ele>1957.6</ele>
        <time>2010-07-02T10:23:08Z</time>
      </trkpt>
      <trkpt lat="42.593286" lon="0.730778">
        <ele>1956.0</ele>
        <time>2010-07-02T10:23:08Z</time>
      </trkpt>
      <trkpt lat="42.593291" lon="0.730777">
        <ele>1955.7</ele>
        <time>2010-07-02T10:23:08Z</time>
      </trkpt>
      <trkpt lat="42.593310" lon="0.730892">
        <ele>1952.1</ele>
        <time>2010-07-02T10:23:08Z</time>
      </trkpt>
      <trkpt lat="42.593329" lon="0.731037">
        <ele>1947.6</ele>
        <time>2010-07-02T10:23:08Z</time>
      </trkpt>
      <trkpt lat="42.593396" lon="0.730957">
        <ele>1945.4</ele>
        <time>2010-07-02T10:23:08Z</time>
      </trkpt>
      <trkpt lat="42.593493" lon="0.730911">
        <ele>1940.8</ele>
        <time>2010-07-02T10:23:08Z</time>
      </trkpt>
      <trkpt lat="42.593506" lon="0.731018">
        <ele>1937.4</ele>
        <time>2010-07-02T10:23:08Z</time>
      </trkpt>
      <trkpt lat="42.593541" lon="0.731038">
        <ele>1934.8</ele>
        <time>2010-07-02T10:23:08Z</time>
      </trkpt>
      <trkpt lat="42.593660" lon="0.730993">
        <ele>1928.8</ele>
        <time>2010-07-02T10:23:08Z</time>
      </trkpt>
      <trkpt lat="42.593668" lon="0.731106">
        <ele>1925.6</ele>
        <time>2010-07-02T10:23:08Z</time>
      </trkpt>
      <trkpt lat="42.593725" lon="0.731272">
        <ele>1918.2</ele>
        <time>2010-07-02T10:23:08Z</time>
      </trkpt>
      <trkpt lat="42.593824" lon="0.731205">
        <ele>1914.4</ele>
        <time>2010-07-02T10:23:08Z</time>
      </trkpt>
      <trkpt lat="42.593887" lon="0.731362">
        <ele>1908.4</ele>
        <time>2010-07-02T10:23:08Z</time>
      </trkpt>
      <trkpt lat="42.593968" lon="0.731361">
        <ele>1904.3</ele>
        <time>2010-07-02T10:23:08Z</time>
      </trkpt>
      <trkpt lat="42.593993" lon="0.731465">
        <ele>1901.4</ele>
        <time>2010-07-02T10:23:08Z</time>
      </trkpt>
      <trkpt lat="42.594066" lon="0.731478">
        <ele>1897.6</ele>
        <time>2010-07-02T10:23:08Z</time>
      </trkpt>
      <trkpt lat="42.594052" lon="0.731645">
        <ele>1895.8</ele>
        <time>2010-07-02T10:23:08Z</time>
      </trkpt>
      <trkpt lat="42.594129" lon="0.731568">
        <ele>1893.1</ele>
        <time>2010-07-02T10:23:08Z</time>
      </trkpt>
      <trkpt lat="42.594284" lon="0.731676">
        <ele>1883.7</ele>
        <time>2010-07-02T10:23:08Z</time>
      </trkpt>
      <trkpt lat="42.594201" lon="0.731706">
        <ele>1887.4</ele>
        <time>2010-07-02T10:23:08Z</time>
      </trkpt>
      <trkpt lat="42.594216" lon="0.731782">
        <ele>1885.6</ele>
        <time>2010-07-02T10:23:08Z</time>
      </trkpt>
      <trkpt lat="42.594182" lon="0.731833">
        <ele>1886.5</ele>
        <time>2010-07-02T10:23:08Z</time>
      </trkpt>
      <trkpt lat="42.594106" lon="0.731988">
        <ele>1887.9</ele>
        <time>2010-07-02T10:23:08Z</time>
      </trkpt>
      <trkpt lat="42.594164" lon="0.731956">
        <ele>1885.6</ele>
        <time>2010-07-02T10:23:08Z</time>
      </trkpt>
      <trkpt lat="42.594191" lon="0.732009">
        <ele>1883.4</ele>
        <time>2010-07-02T10:23:08Z</time>
      </trkpt>
      <trkpt lat="42.594267" lon="0.732075">
        <ele>1878.7</ele>
        <time>2010-07-02T10:23:08Z</time>
      </trkpt>
      <trkpt lat="42.594297" lon="0.732146">
        <ele>1875.9</ele>
        <time>2010-07-02T10:23:08Z</time>
      </trkpt>
      <trkpt lat="42.594267" lon="0.732295">
        <ele>1874.5</ele>
        <time>2010-07-02T10:23:08Z</time>
      </trkpt>
      <trkpt lat="42.594363" lon="0.732215">
        <ele>1871.2</ele>
        <time>2010-07-02T10:23:08Z</time>
      </trkpt>
      <trkpt lat="42.594403" lon="0.732236">
        <ele>1868.8</ele>
        <time>2010-07-02T10:23:08Z</time>
      </trkpt>
      <trkpt lat="42.594399" lon="0.732307">
        <ele>1867.5</ele>
        <time>2010-07-02T10:23:08Z</time>
      </trkpt>
      <trkpt lat="42.594346" lon="0.732425">
        <ele>1867.8</ele>
        <time>2010-07-02T10:23:08Z</time>
      </trkpt>
      <trkpt lat="42.594399" lon="0.732444">
        <ele>1864.7</ele>
        <time>2010-07-02T10:23:08Z</time>
      </trkpt>
      <trkpt lat="42.594370" lon="0.732576">
        <ele>1863.6</ele>
        <time>2010-07-02T10:23:08Z</time>
      </trkpt>
      <trkpt lat="42.594428" lon="0.732566">
        <ele>1860.7</ele>
        <time>2010-07-02T10:23:08Z</time>
      </trkpt>
      <trkpt lat="42.594481" lon="0.732647">
        <ele>1856.3</ele>
        <time>2010-07-02T10:23:08Z</time>
      </trkpt>
      <trkpt lat="42.594530" lon="0.732699">
        <ele>1852.6</ele>
        <time>2010-07-02T10:23:08Z</time>
      </trkpt>
      <trkpt lat="42.594562" lon="0.732741">
        <ele>1849.9</ele>
        <time>2010-07-02T10:23:08Z</time>
      </trkpt>
      <trkpt lat="42.594600" lon="0.732743">
        <ele>1847.8</ele>
        <time>2010-07-02T10:23:08Z</time>
      </trkpt>
      <trkpt lat="42.594605" lon="0.732972">
        <ele>1842.6</ele>
        <time>2010-07-02T10:23:08Z</time>
      </trkpt>
      <trkpt lat="42.594681" lon="0.732956">
        <ele>1838.3</ele>
        <time>2010-07-02T10:23:08Z</time>
      </trkpt>
      <trkpt lat="42.594733" lon="0.733026">
        <ele>1833.8</ele>
        <time>2010-07-02T10:23:08Z</time>
      </trkpt>
      <trkpt lat="42.594710" lon="0.733123">
        <ele>1833.2</ele>
        <time>2010-07-02T10:23:08Z</time>
      </trkpt>
      <trkpt lat="42.594766" lon="0.733097">
        <ele>1830.3</ele>
        <time>2010-07-02T10:23:08Z</time>
      </trkpt>
      <trkpt lat="42.594900" lon="0.733244">
        <ele>1819.0</ele>
        <time>2010-07-02T10:23:08Z</time>
      </trkpt>
      <trkpt lat="42.594947" lon="0.733336">
        <ele>1814.0</ele>
        <time>2010-07-02T10:23:08Z</time>
      </trkpt>
      <trkpt lat="42.595010" lon="0.733301">
        <ele>1810.8</ele>
        <time>2010-07-02T10:23:08Z</time>
      </trkpt>
      <trkpt lat="42.595050" lon="0.733307">
        <ele>1808.2</ele>
        <time>2010-07-02T10:23:08Z</time>
      </trkpt>
      <trkpt lat="42.595081" lon="0.733384">
        <ele>1804.5</ele>
        <time>2010-07-02T10:23:08Z</time>
      </trkpt>
      <trkpt lat="42.595118" lon="0.733369">
        <ele>1802.5</ele>
        <time>2010-07-02T10:23:08Z</time>
      </trkpt>
      <trkpt lat="42.595123" lon="0.733501">
        <ele>1799.2</ele>
        <time>2010-07-02T10:23:08Z</time>
      </trkpt>
      <trkpt lat="42.595167" lon="0.733454">
        <ele>1797.4</ele>
        <time>2010-07-02T10:23:08Z</time>
      </trkpt>
      <trkpt lat="42.595241" lon="0.733554">
        <ele>1790.2</ele>
        <time>2010-07-02T10:23:08Z</time>
      </trkpt>
      <trkpt lat="42.595301" lon="0.733506">
        <ele>1787.5</ele>
        <time>2010-07-02T10:23:08Z</time>
      </trkpt>
      <trkpt lat="42.595385" lon="0.733508">
        <ele>1782.1</ele>
        <time>2010-07-02T10:23:08Z</time>
      </trkpt>
      <trkpt lat="42.595409" lon="0.733578">
        <ele>1778.8</ele>
        <time>2010-07-02T10:23:08Z</time>
      </trkpt>
      <trkpt lat="42.595474" lon="0.733623">
        <ele>1774.5</ele>
        <time>2010-07-02T10:23:08Z</time>
      </trkpt>
      <trkpt lat="42.595570" lon="0.733702">
        <ele>1767.9</ele>
        <time>2010-07-02T10:23:08Z</time>
      </trkpt>
      <trkpt lat="42.595700" lon="0.733622">
        <ele>1764.0</ele>
        <time>2010-07-02T10:23:08Z</time>
      </trkpt>
      <trkpt lat="42.595822" lon="0.733594">
        <ele>1759.1</ele>
        <time>2010-07-02T10:23:08Z</time>
      </trkpt>
      <trkpt lat="42.595943" lon="0.733642">
        <ele>1752.1</ele>
        <time>2010-07-02T10:23:08Z</time>
      </trkpt>
      <trkpt lat="42.595955" lon="0.733690">
        <ele>1750.0</ele>
        <time>2010-07-02T10:23:08Z</time>
      </trkpt>
      <trkpt lat="42.595922" lon="0.733758">
        <ele>1749.6</ele>
        <time>2010-07-02T10:23:08Z</time>
      </trkpt>
      <trkpt lat="42.595985" lon="0.733755">
        <ele>1746.6</ele>
        <time>2010-07-02T10:23:08Z</time>
      </trkpt>
      <trkpt lat="42.596038" lon="0.733797">
        <ele>1743.3</ele>
        <time>2010-07-02T10:23:08Z</time>
      </trkpt>
      <trkpt lat="42.596039" lon="0.733909">
        <ele>1741.2</ele>
        <time>2010-07-02T10:23:08Z</time>
      </trkpt>
      <trkpt lat="42.596102" lon="0.733884">
        <ele>1738.6</ele>
        <time>2010-07-02T10:23:08Z</time>
      </trkpt>
      <trkpt lat="42.596119" lon="0.733980">
        <ele>1735.9</ele>
        <time>2010-07-02T10:23:08Z</time>
      </trkpt>
      <trkpt lat="42.596204" lon="0.733946">
        <ele>1732.3</ele>
        <time>2010-07-02T10:23:08Z</time>
      </trkpt>
      <trkpt lat="42.596172" lon="0.734008">
        <ele>1732.7</ele>
        <time>2010-07-02T10:23:08Z</time>
      </trkpt>
      <trkpt lat="42.596211" lon="0.734050">
        <ele>1729.9</ele>
        <time>2010-07-02T10:23:08Z</time>
      </trkpt>
      <trkpt lat="42.596210" lon="0.734122">
        <ele>1728.5</ele>
        <time>2010-07-02T10:23:08Z</time>
      </trkpt>
      <trkpt lat="42.596145" lon="0.734304">
        <ele>1728.4</ele>
        <time>2010-07-02T10:23:08Z</time>
      </trkpt>
      <trkpt lat="42.596224" lon="0.734549">
        <ele>1719.2</ele>
        <time>2010-07-02T10:23:08Z</time>
      </trkpt>
      <trkpt lat="42.596332" lon="0.734611">
        <ele>1714.2</ele>
        <time>2010-07-02T10:23:08Z</time>
      </trkpt>
      <trkpt lat="42.596382" lon="0.734678">
        <ele>1711.7</ele>
        <time>2010-07-02T10:23:08Z</time>
      </trkpt>
      <trkpt lat="42.596357" lon="0.734820">
        <ele>1710.1</ele>
        <time>2010-07-02T10:23:08Z</time>
      </trkpt>
      <trkpt lat="42.596435" lon="0.735008">
        <ele>1704.6</ele>
        <time>2010-07-02T10:23:08Z</time>
      </trkpt>
      <trkpt lat="42.596516" lon="0.735036">
        <ele>1701.6</ele>
        <time>2010-07-02T10:23:08Z</time>
      </trkpt>
      <trkpt lat="42.596547" lon="0.735150">
        <ele>1698.6</ele>
        <time>2010-07-02T10:23:08Z</time>
      </trkpt>
      <trkpt lat="42.596579" lon="0.735257">
        <ele>1695.7</ele>
        <time>2010-07-02T10:23:08Z</time>
      </trkpt>
      <trkpt lat="42.596557" lon="0.735388">
        <ele>1694.2</ele>
        <time>2010-07-02T10:23:08Z</time>
      </trkpt>
      <trkpt lat="42.596447" lon="0.735456">
        <ele>1696.8</ele>
        <time>2010-07-02T10:23:08Z</time>
      </trkpt>
      <trkpt lat="42.596434" lon="0.735594">
        <ele>1695.5</ele>
        <time>2010-07-02T10:23:08Z</time>
      </trkpt>
      <trkpt lat="42.596296" lon="0.735878">
        <ele>1696.8</ele>
        <time>2010-07-02T10:23:08Z</time>
      </trkpt>
      <trkpt lat="42.596271" lon="0.736137">
        <ele>1694.6</ele>
        <time>2010-07-02T10:23:08Z</time>
      </trkpt>
      <trkpt lat="42.596316" lon="0.736232">
        <ele>1691.7</ele>
        <time>2010-07-02T10:23:08Z</time>
      </trkpt>
      <trkpt lat="42.596294" lon="0.736334">
        <ele>1691.4</ele>
        <time>2010-07-02T10:23:08Z</time>
      </trkpt>
      <trkpt lat="42.596220" lon="0.736478">
        <ele>1693.5</ele>
        <time>2010-07-02T10:23:08Z</time>
      </trkpt>
      <trkpt lat="42.596225" lon="0.736711">
        <ele>1690.7</ele>
        <time>2010-07-02T10:23:08Z</time>
      </trkpt>
      <trkpt lat="42.596251" lon="0.736832">
        <ele>1687.7</ele>
        <time>2010-07-02T10:23:08Z</time>
      </trkpt>
      <trkpt lat="42.596174" lon="0.737056">
        <ele>1690.7</ele>
        <time>2010-07-02T10:23:08Z</time>
      </trkpt>
      <trkpt lat="42.596224" lon="0.737251">
        <ele>1682.8</ele>
        <time>2010-07-02T10:23:08Z</time>
      </trkpt>
      <trkpt lat="42.596194" lon="0.737464">
        <ele>1680.1</ele>
        <time>2010-07-02T10:23:08Z</time>
      </trkpt>
      <trkpt lat="42.596261" lon="0.737614">
        <ele>1671.9</ele>
        <time>2010-07-02T10:23:08Z</time>
      </trkpt>
      <trkpt lat="42.596270" lon="0.737931">
        <ele>1664.2</ele>
        <time>2010-07-02T10:23:08Z</time>
      </trkpt>
      <trkpt lat="42.596399" lon="0.738160">
        <ele>1658.6</ele>
        <time>2010-07-02T10:23:08Z</time>
      </trkpt>
      <trkpt lat="42.596472" lon="0.738565">
        <ele>1654.1</ele>
        <time>2010-07-02T10:23:08Z</time>
      </trkpt>
      <trkpt lat="42.596606" lon="0.738779">
        <ele>1648.6</ele>
        <time>2010-07-02T10:23:08Z</time>
      </trkpt>
      <trkpt lat="42.596633" lon="0.738915">
        <ele>1647.7</ele>
        <time>2010-07-02T10:23:08Z</time>
      </trkpt>
      <trkpt lat="42.596739" lon="0.738940">
        <ele>1643.9</ele>
        <time>2010-07-02T10:23:08Z</time>
      </trkpt>
      <trkpt lat="42.596827" lon="0.738929">
        <ele>1640.8</ele>
        <time>2010-07-02T10:23:08Z</time>
      </trkpt>
      <trkpt lat="42.596899" lon="0.738977">
        <ele>1638.2</ele>
        <time>2010-07-02T10:23:08Z</time>
      </trkpt>
      <trkpt lat="42.596947" lon="0.739065">
        <ele>1636.5</ele>
        <time>2010-07-02T10:23:08Z</time>
      </trkpt>
      <trkpt lat="42.596974" lon="0.739219">
        <ele>1635.4</ele>
        <time>2010-07-02T10:23:08Z</time>
      </trkpt>
      <trkpt lat="42.596962" lon="0.739328">
        <ele>1635.7</ele>
        <time>2010-07-02T10:23:08Z</time>
      </trkpt>
      <trkpt lat="42.596902" lon="0.739547">
        <ele>1637.8</ele>
        <time>2010-07-02T10:23:08Z</time>
      </trkpt>
      <trkpt lat="42.596927" lon="0.739851">
        <ele>1637.6</ele>
        <time>2010-07-02T10:23:08Z</time>
      </trkpt>
      <trkpt lat="42.596880" lon="0.740083">
        <ele>1640.1</ele>
        <time>2010-07-02T10:23:08Z</time>
      </trkpt>
      <trkpt lat="42.596896" lon="0.740324">
        <ele>1640.1</ele>
        <time>2010-07-02T10:23:08Z</time>
      </trkpt>
      <trkpt lat="42.597011" lon="0.740451">
        <ele>1636.0</ele>
        <time>2010-07-02T10:23:08Z</time>
      </trkpt>
      <trkpt lat="42.597118" lon="0.740464">
        <ele>1632.8</ele>
        <time>2010-07-02T10:23:08Z</time>
      </trkpt>
      <trkpt lat="42.597171" lon="0.740476">
        <ele>1632.3</ele>
        <time>2010-07-02T10:23:08Z</time>
      </trkpt>
      <trkpt lat="42.597184" lon="0.740569">
        <ele>1632.4</ele>
        <time>2010-07-02T10:23:08Z</time>
      </trkpt>
      <trkpt lat="42.597203" lon="0.740709">
        <ele>1632.5</ele>
        <time>2010-07-02T10:23:08Z</time>
      </trkpt>
      <trkpt lat="42.597185" lon="0.740883">
        <ele>1633.2</ele>
        <time>2010-07-02T10:23:08Z</time>
      </trkpt>
      <trkpt lat="42.597174" lon="0.741135">
        <ele>1634.1</ele>
        <time>2010-07-02T10:23:08Z</time>
      </trkpt>
      <trkpt lat="42.597116" lon="0.741530">
        <ele>1635.4</ele>
        <time>2010-07-02T10:23:08Z</time>
      </trkpt>
      <trkpt lat="42.597188" lon="0.741740">
        <ele>1633.9</ele>
        <time>2010-07-02T10:23:08Z</time>
      </trkpt>
      <trkpt lat="42.597185" lon="0.741957">
        <ele>1633.9</ele>
        <time>2010-07-02T10:23:08Z</time>
      </trkpt>
      <trkpt lat="42.597265" lon="0.742011">
        <ele>1632.1</ele>
        <time>2010-07-02T10:23:08Z</time>
      </trkpt>
      <trkpt lat="42.597289" lon="0.742300">
        <ele>1633.7</ele>
        <time>2010-07-02T10:23:08Z</time>
      </trkpt>
      <trkpt lat="42.597364" lon="0.742421">
        <ele>1632.5</ele>
        <time>2010-07-02T10:23:08Z</time>
      </trkpt>
      <trkpt lat="42.597350" lon="0.742678">
        <ele>1634.9</ele>
        <time>2010-07-02T10:23:08Z</time>
      </trkpt>
      <trkpt lat="42.597441" lon="0.742808">
        <ele>1632.1</ele>
        <time>2010-07-02T10:23:08Z</time>
      </trkpt>
      <trkpt lat="42.597469" lon="0.742879">
        <ele>1631.2</ele>
        <time>2010-07-02T10:23:08Z</time>
      </trkpt>
      <trkpt lat="42.597481" lon="0.743045">
        <ele>1632.4</ele>
        <time>2010-07-02T10:23:08Z</time>
      </trkpt>
      <trkpt lat="42.597556" lon="0.743131">
        <ele>1629.7</ele>
        <time>2010-07-02T10:23:08Z</time>
      </trkpt>
      <trkpt lat="42.597565" lon="0.743439">
        <ele>1632.5</ele>
        <time>2010-07-02T10:23:08Z</time>
      </trkpt>
      <trkpt lat="42.597639" lon="0.743568">
        <ele>1629.6</ele>
        <time>2010-07-02T10:23:08Z</time>
      </trkpt>
      <trkpt lat="42.597589" lon="0.743769">
        <ele>1634.5</ele>
        <time>2010-07-02T10:23:08Z</time>
      </trkpt>
      <trkpt lat="42.597629" lon="0.743997">
        <ele>1634.3</ele>
        <time>2010-07-02T10:23:08Z</time>
      </trkpt>
      <trkpt lat="42.597600" lon="0.744153">
        <ele>1637.9</ele>
        <time>2010-07-02T10:23:08Z</time>
      </trkpt>
      <trkpt lat="42.597679" lon="0.744229">
        <ele>1633.1</ele>
        <time>2010-07-02T10:23:08Z</time>
      </trkpt>
      <trkpt lat="42.597684" lon="0.744314">
        <ele>1633.4</ele>
        <time>2010-07-02T10:23:08Z</time>
      </trkpt>
      <trkpt lat="42.597742" lon="0.744320">
        <ele>1629.2</ele>
        <time>2010-07-02T10:23:08Z</time>
      </trkpt>
      <trkpt lat="42.597777" lon="0.744559">
        <ele>1628.1</ele>
        <time>2010-07-02T10:23:08Z</time>
      </trkpt>
      <trkpt lat="42.597979" lon="0.744863">
        <ele>1616.6</ele>
        <time>2010-07-02T10:23:08Z</time>
      </trkpt>
      <trkpt lat="42.598093" lon="0.745114">
        <ele>1614.4</ele>
        <time>2010-07-02T10:23:08Z</time>
      </trkpt>
      <trkpt lat="42.598156" lon="0.745249">
        <ele>1612.8</ele>
        <time>2010-07-02T10:23:08Z</time>
      </trkpt>
      <trkpt lat="42.598175" lon="0.745371">
        <ele>1612.2</ele>
        <time>2010-07-02T10:23:08Z</time>
      </trkpt>
      <trkpt lat="42.598164" lon="0.745465">
        <ele>1612.5</ele>
        <time>2010-07-02T10:23:08Z</time>
      </trkpt>
      <trkpt lat="42.598103" lon="0.745631">
        <ele>1614.0</ele>
        <time>2010-07-02T10:23:08Z</time>
      </trkpt>
      <trkpt lat="42.598117" lon="0.745787">
        <ele>1613.2</ele>
        <time>2010-07-02T10:23:08Z</time>
      </trkpt>
      <trkpt lat="42.598050" lon="0.746046">
        <ele>1614.9</ele>
        <time>2010-07-02T10:23:08Z</time>
      </trkpt>
      <trkpt lat="42.598108" lon="0.746302">
        <ele>1613.0</ele>
        <time>2010-07-02T10:23:08Z</time>
      </trkpt>
      <trkpt lat="42.598070" lon="0.746568">
        <ele>1616.6</ele>
        <time>2010-07-02T10:23:08Z</time>
      </trkpt>
      <trkpt lat="42.598138" lon="0.746737">
        <ele>1615.1</ele>
        <time>2010-07-02T10:23:08Z</time>
      </trkpt>
      <trkpt lat="42.598125" lon="0.746909">
        <ele>1616.9</ele>
        <time>2010-07-02T10:23:08Z</time>
      </trkpt>
      <trkpt lat="42.598197" lon="0.747023">
        <ele>1614.2</ele>
        <time>2010-07-02T10:23:08Z</time>
      </trkpt>
      <trkpt lat="42.598220" lon="0.747168">
        <ele>1613.2</ele>
        <time>2010-07-02T10:23:08Z</time>
      </trkpt>
      <trkpt lat="42.598177" lon="0.747334">
        <ele>1615.4</ele>
        <time>2010-07-02T10:23:08Z</time>
      </trkpt>
      <trkpt lat="42.598164" lon="0.747550">
        <ele>1615.9</ele>
        <time>2010-07-02T10:23:08Z</time>
      </trkpt>
      <trkpt lat="42.598259" lon="0.747745">
        <ele>1610.5</ele>
        <time>2010-07-02T10:23:08Z</time>
      </trkpt>
      <trkpt lat="42.598282" lon="0.747987">
        <ele>1608.2</ele>
        <time>2010-07-02T10:23:08Z</time>
      </trkpt>
      <trkpt lat="42.598411" lon="0.748154">
        <ele>1599.2</ele>
        <time>2010-07-02T10:23:08Z</time>
      </trkpt>
      <trkpt lat="42.598483" lon="0.748288">
        <ele>1593.8</ele>
        <time>2010-07-02T10:23:08Z</time>
      </trkpt>
      <trkpt lat="42.598457" lon="0.748434">
        <ele>1593.9</ele>
        <time>2010-07-02T10:23:08Z</time>
      </trkpt>
      <trkpt lat="42.598525" lon="0.748546">
        <ele>1589.1</ele>
        <time>2010-07-02T10:23:08Z</time>
      </trkpt>
      <trkpt lat="42.598499" lon="0.748768">
        <ele>1588.3</ele>
        <time>2010-07-02T10:23:08Z</time>
      </trkpt>
      <trkpt lat="42.598573" lon="0.749044">
        <ele>1581.1</ele>
        <time>2010-07-02T10:23:08Z</time>
      </trkpt>
      <trkpt lat="42.598531" lon="0.749282">
        <ele>1580.6</ele>
        <time>2010-07-02T10:23:08Z</time>
      </trkpt>
      <trkpt lat="42.598588" lon="0.749494">
        <ele>1575.0</ele>
        <time>2010-07-02T10:23:08Z</time>
      </trkpt>
      <trkpt lat="42.598553" lon="0.749637">
        <ele>1575.8</ele>
        <time>2010-07-02T10:23:08Z</time>
      </trkpt>
      <trkpt lat="42.598616" lon="0.749699">
        <ele>1572.2</ele>
        <time>2010-07-02T10:23:08Z</time>
      </trkpt>
      <trkpt lat="42.598570" lon="0.749898">
        <ele>1574.7</ele>
        <time>2010-07-02T10:23:08Z</time>
      </trkpt>
      <trkpt lat="42.598623" lon="0.750078">
        <ele>1571.3</ele>
        <time>2010-07-02T10:23:08Z</time>
      </trkpt>
      <trkpt lat="42.598593" lon="0.750473">
        <ele>1571.9</ele>
        <time>2010-07-02T10:23:08Z</time>
      </trkpt>
      <trkpt lat="42.598629" lon="0.750665">
        <ele>1566.6</ele>
        <time>2010-07-02T10:23:08Z</time>
      </trkpt>
      <trkpt lat="42.598543" lon="0.750826">
        <ele>1570.0</ele>
        <time>2010-07-02T10:23:08Z</time>
      </trkpt>
      <trkpt lat="42.598567" lon="0.751002">
        <ele>1565.7</ele>
        <time>2010-07-02T10:23:08Z</time>
      </trkpt>
      <trkpt lat="42.598502" lon="0.751216">
        <ele>1567.5</ele>
        <time>2010-07-02T10:23:08Z</time>
      </trkpt>
      <trkpt lat="42.598549" lon="0.751492">
        <ele>1561.9</ele>
        <time>2010-07-02T10:23:08Z</time>
      </trkpt>
      <trkpt lat="42.598518" lon="0.751735">
        <ele>1562.5</ele>
        <time>2010-07-02T10:23:08Z</time>
      </trkpt>
      <trkpt lat="42.598578" lon="0.752012">
        <ele>1556.4</ele>
        <time>2010-07-02T10:23:08Z</time>
      </trkpt>
      <trkpt lat="42.598545" lon="0.752343">
        <ele>1556.1</ele>
        <time>2010-07-02T10:23:08Z</time>
      </trkpt>
      <trkpt lat="42.598602" lon="0.752668">
        <ele>1548.3</ele>
        <time>2010-07-02T10:23:08Z</time>
      </trkpt>
      <trkpt lat="42.598542" lon="0.752935">
        <ele>1551.7</ele>
        <time>2010-07-02T10:23:08Z</time>
      </trkpt>
      <trkpt lat="42.598573" lon="0.753147">
        <ele>1547.9</ele>
        <time>2010-07-02T10:23:08Z</time>
      </trkpt>
      <trkpt lat="42.598699" lon="0.753366">
        <ele>1533.4</ele>
        <time>2010-07-02T10:23:08Z</time>
      </trkpt>
      <trkpt lat="42.598719" lon="0.753546">
        <ele>1530.0</ele>
        <time>2010-07-02T10:23:08Z</time>
      </trkpt>
      <trkpt lat="42.598666" lon="0.753863">
        <ele>1534.5</ele>
        <time>2010-07-02T10:23:08Z</time>
      </trkpt>
      <trkpt lat="42.598731" lon="0.754336">
        <ele>1525.5</ele>
        <time>2010-07-02T10:23:08Z</time>
      </trkpt>
      <trkpt lat="42.598707" lon="0.754769">
        <ele>1522.8</ele>
        <time>2010-07-02T10:23:08Z</time>
      </trkpt>
      <trkpt lat="42.598772" lon="0.755052">
        <ele>1512.6</ele>
        <time>2010-07-02T10:23:08Z</time>
      </trkpt>
      <trkpt lat="42.598742" lon="0.755225">
        <ele>1509.7</ele>
        <time>2010-07-02T10:23:08Z</time>
      </trkpt>
      <trkpt lat="42.598727" lon="0.755463">
        <ele>1505.2</ele>
        <time>2010-07-02T10:23:08Z</time>
      </trkpt>
      <trkpt lat="42.598590" lon="0.755615">
        <ele>1508.7</ele>
        <time>2010-07-02T10:23:08Z</time>
      </trkpt>
      <trkpt lat="42.598435" lon="0.756067">
        <ele>1502.0</ele>
        <time>2010-07-02T10:23:08Z</time>
      </trkpt>
      <trkpt lat="42.598313" lon="0.756403">
        <ele>1496.1</ele>
        <time>2010-07-02T10:23:08Z</time>
      </trkpt>
      <trkpt lat="42.598129" lon="0.756542">
        <ele>1497.7</ele>
        <time>2010-07-02T10:23:08Z</time>
      </trkpt>
      <trkpt lat="42.597959" lon="0.756915">
        <ele>1490.0</ele>
        <time>2010-07-02T10:23:08Z</time>
      </trkpt>
      <trkpt lat="42.597646" lon="0.757153">
        <ele>1487.7</ele>
        <time>2010-07-02T10:23:08Z</time>
      </trkpt>
      <trkpt lat="42.597471" lon="0.757544">
        <ele>1477.6</ele>
        <time>2010-07-02T10:23:08Z</time>
      </trkpt>
      <trkpt lat="42.597287" lon="0.757661">
        <ele>1475.3</ele>
        <time>2010-07-02T10:23:08Z</time>
      </trkpt>
      <trkpt lat="42.597124" lon="0.757903">
        <ele>1467.3</ele>
        <time>2010-07-02T10:23:08Z</time>
      </trkpt>
      <trkpt lat="42.596915" lon="0.758102">
        <ele>1461.7</ele>
        <time>2010-07-02T10:23:08Z</time>
      </trkpt>
      <trkpt lat="42.596719" lon="0.758236">
        <ele>1457.0</ele>
        <time>2010-07-02T10:23:08Z</time>
      </trkpt>
      <trkpt lat="42.596600" lon="0.758282">
        <ele>1454.8</ele>
        <time>2010-07-02T10:23:08Z</time>
      </trkpt>
      <trkpt lat="42.596469" lon="0.758307">
        <ele>1454.4</ele>
        <time>2010-07-02T10:23:08Z</time>
      </trkpt>
      <trkpt lat="42.596361" lon="0.758373">
        <ele>1450.3</ele>
        <time>2010-07-02T10:23:08Z</time>
      </trkpt>
      <trkpt lat="42.596228" lon="0.758619">
        <ele>1441.8</ele>
        <time>2010-07-02T10:23:08Z</time>
      </trkpt>
      <trkpt lat="42.595979" lon="0.758326">
        <ele>1450.1</ele>
        <time>2010-07-02T10:23:08Z</time>
      </trkpt>
      <trkpt lat="42.596012" lon="0.758241">
        <ele>1452.9</ele>
        <time>2010-07-02T10:23:08Z</time>
      </trkpt>
      <trkpt lat="42.596415" lon="0.758635">
        <ele>1443.3</ele>
        <time>2010-07-02T10:23:08Z</time>
      </trkpt>
      <trkpt lat="42.596532" lon="0.758942">
        <ele>1440.5</ele>
        <time>2010-07-02T10:23:08Z</time>
      </trkpt>
      <trkpt lat="42.596614" lon="0.759324">
        <ele>1440.0</ele>
        <time>2010-07-02T10:23:08Z</time>
      </trkpt>
      <trkpt lat="42.596603" lon="0.759789">
        <ele>1438.5</ele>
        <time>2010-07-02T10:23:08Z</time>
      </trkpt>
      <trkpt lat="42.596632" lon="0.760199">
        <ele>1438.5</ele>
        <time>2010-07-02T10:23:08Z</time>
      </trkpt>
      <trkpt lat="42.596723" lon="0.760555">
        <ele>1439.2</ele>
        <time>2010-07-02T10:23:08Z</time>
      </trkpt>
      <trkpt lat="42.596823" lon="0.760902">
        <ele>1438.5</ele>
        <time>2010-07-02T10:23:08Z</time>
      </trkpt>
      <trkpt lat="42.596983" lon="0.761240">
        <ele>1438.4</ele>
        <time>2010-07-02T10:23:08Z</time>
      </trkpt>
      <trkpt lat="42.597143" lon="0.761564">
        <ele>1438.6</ele>
        <time>2010-07-02T10:23:08Z</time>
      </trkpt>
      <trkpt lat="42.597363" lon="0.761936">
        <ele>1439.2</ele>
        <time>2010-07-02T10:23:08Z</time>
      </trkpt>
      <trkpt lat="42.597530" lon="0.762293">
        <ele>1440.9</ele>
        <time>2010-07-02T10:23:08Z</time>
      </trkpt>
      <trkpt lat="42.597758" lon="0.762655">
        <ele>1445.6</ele>
        <time>2010-07-02T10:23:08Z</time>
      </trkpt>
      <trkpt lat="42.597976" lon="0.762963">
        <ele>1450.5</ele>
        <time>2010-07-02T10:23:08Z</time>
      </trkpt>
      <trkpt lat="42.598236" lon="0.763240">
        <ele>1456.5</ele>
        <time>2010-07-02T10:23:08Z</time>
      </trkpt>
      <trkpt lat="42.598433" lon="0.763272">
        <ele>1458.4</ele>
        <time>2010-07-02T10:23:08Z</time>
      </trkpt>
      <trkpt lat="42.598727" lon="0.763370">
        <ele>1460.8</ele>
        <time>2010-07-02T10:23:08Z</time>
      </trkpt>
      <trkpt lat="42.598660" lon="0.763668">
        <ele>1460.9</ele>
        <time>2010-07-02T10:23:08Z</time>
      </trkpt>
      <trkpt lat="42.598576" lon="0.763858">
        <ele>1464.4</ele>
        <time>2010-07-02T10:23:08Z</time>
      </trkpt>
      <trkpt lat="42.598586" lon="0.763996">
        <ele>1468.7</ele>
        <time>2010-07-02T10:23:08Z</time>
      </trkpt>
      <trkpt lat="42.598721" lon="0.764070">
        <ele>1470.4</ele>
        <time>2010-07-02T10:23:08Z</time>
      </trkpt>
      <trkpt lat="42.598811" lon="0.764172">
        <ele>1473.0</ele>
        <time>2010-07-02T10:23:08Z</time>
      </trkpt>
      <trkpt lat="42.598932" lon="0.764295">
        <ele>1475.7</ele>
        <time>2010-07-02T10:23:08Z</time>
      </trkpt>
      <trkpt lat="42.599238" lon="0.764482">
        <ele>1477.3</ele>
        <time>2010-07-02T10:23:08Z</time>
      </trkpt>
      <trkpt lat="42.599478" lon="0.764642">
        <ele>1478.6</ele>
        <time>2010-07-02T10:23:08Z</time>
      </trkpt>
      <trkpt lat="42.599774" lon="0.764785">
        <ele>1480.1</ele>
        <time>2010-07-02T10:23:08Z</time>
      </trkpt>
      <trkpt lat="42.599887" lon="0.764845">
        <ele>1480.3</ele>
        <time>2010-07-02T10:23:08Z</time>
      </trkpt>
      <trkpt lat="42.600031" lon="0.764930">
        <ele>1480.2</ele>
        <time>2010-07-02T10:23:08Z</time>
      </trkpt>
      <trkpt lat="42.600172" lon="0.765004">
        <ele>1479.2</ele>
        <time>2010-07-02T10:23:08Z</time>
      </trkpt>
      <trkpt lat="42.600293" lon="0.764938">
        <ele>1475.4</ele>
        <time>2010-07-02T10:23:08Z</time>
      </trkpt>
      <trkpt lat="42.600348" lon="0.764907">
        <ele>1473.7</ele>
        <time>2010-07-02T10:23:08Z</time>
      </trkpt>
      <trkpt lat="42.600407" lon="0.764850">
        <ele>1471.6</ele>
        <time>2010-07-02T10:23:08Z</time>
      </trkpt>
      <trkpt lat="42.600479" lon="0.764769">
        <ele>1470.2</ele>
        <time>2010-07-02T10:23:08Z</time>
      </trkpt>
      <trkpt lat="42.600546" lon="0.764731">
        <ele>1469.7</ele>
        <time>2010-07-02T10:23:08Z</time>
      </trkpt>
      <trkpt lat="42.600656" lon="0.764722">
        <ele>1469.8</ele>
        <time>2010-07-02T10:23:08Z</time>
      </trkpt>
      <trkpt lat="42.600774" lon="0.764729">
        <ele>1470.1</ele>
        <time>2010-07-02T10:23:08Z</time>
      </trkpt>
      <trkpt lat="42.600839" lon="0.764759">
        <ele>1470.5</ele>
        <time>2010-07-02T10:23:08Z</time>
      </trkpt>
      <trkpt lat="42.600937" lon="0.764819">
        <ele>1471.2</ele>
        <time>2010-07-02T10:23:08Z</time>
      </trkpt>
      <trkpt lat="42.601009" lon="0.764889">
        <ele>1471.9</ele>
        <time>2010-07-02T10:23:08Z</time>
      </trkpt>
      <trkpt lat="42.601076" lon="0.764910">
        <ele>1472.1</ele>
        <time>2010-07-02T10:23:08Z</time>
      </trkpt>
      <trkpt lat="42.601134" lon="0.764923">
        <ele>1472.1</ele>
        <time>2010-07-02T10:23:08Z</time>
      </trkpt>
      <trkpt lat="42.601265" lon="0.764924">
        <ele>1472.1</ele>
        <time>2010-07-02T10:23:08Z</time>
      </trkpt>
      <trkpt lat="42.601366" lon="0.764932">
        <ele>1472.4</ele>
        <time>2010-07-02T10:23:08Z</time>
      </trkpt>
      <trkpt lat="42.601429" lon="0.764950">
        <ele>1472.7</ele>
        <time>2010-07-02T10:23:08Z</time>
      </trkpt>
      <trkpt lat="42.601470" lon="0.764957">
        <ele>1472.8</ele>
        <time>2010-07-02T10:23:08Z</time>
      </trkpt>
      <trkpt lat="42.601481" lon="0.764962">
        <ele>1472.9</ele>
        <time>2010-07-02T10:23:08Z</time>
      </trkpt>
      <trkpt lat="42.601512" lon="0.764999">
        <ele>1473.1</ele>
        <time>2010-07-02T10:23:08Z</time>
      </trkpt>
      <trkpt lat="42.601573" lon="0.765061">
        <ele>1473.6</ele>
        <time>2010-07-02T10:23:08Z</time>
      </trkpt>
      <trkpt lat="42.601677" lon="0.765127">
        <ele>1474.1</ele>
        <time>2010-07-02T10:23:08Z</time>
      </trkpt>
      <trkpt lat="42.601747" lon="0.765177">
        <ele>1474.5</ele>
        <time>2010-07-02T10:23:08Z</time>
      </trkpt>
      <trkpt lat="42.601933" lon="0.765249">
        <ele>1475.1</ele>
        <time>2010-07-02T10:23:08Z</time>
      </trkpt>
      <trkpt lat="42.602150" lon="0.765346">
        <ele>1475.8</ele>
        <time>2010-07-02T10:23:08Z</time>
      </trkpt>
      <trkpt lat="42.602258" lon="0.765417">
        <ele>1476.0</ele>
        <time>2010-07-02T10:23:08Z</time>
      </trkpt>
      <trkpt lat="42.602366" lon="0.765530">
        <ele>1478.0</ele>
        <time>2010-07-02T10:23:08Z</time>
      </trkpt>
      <trkpt lat="42.602523" lon="0.765646">
        <ele>1479.7</ele>
        <time>2010-07-02T10:23:08Z</time>
      </trkpt>
      <trkpt lat="42.602715" lon="0.765793">
        <ele>1481.3</ele>
        <time>2010-07-02T10:23:08Z</time>
      </trkpt>
      <trkpt lat="42.602989" lon="0.765981">
        <ele>1482.6</ele>
        <time>2010-07-02T10:23:08Z</time>
      </trkpt>
      <trkpt lat="42.603131" lon="0.766119">
        <ele>1483.6</ele>
        <time>2010-07-02T10:23:08Z</time>
      </trkpt>
      <trkpt lat="42.603282" lon="0.766267">
        <ele>1484.4</ele>
        <time>2010-07-02T10:23:08Z</time>
      </trkpt>
      <trkpt lat="42.603340" lon="0.766294">
        <ele>1484.3</ele>
        <time>2010-07-02T10:23:08Z</time>
      </trkpt>
      <trkpt lat="42.603448" lon="0.766308">
        <ele>1483.9</ele>
        <time>2010-07-02T10:23:08Z</time>
      </trkpt>
      <trkpt lat="42.603588" lon="0.766314">
        <ele>1483.2</ele>
        <time>2010-07-02T10:23:08Z</time>
      </trkpt>
      <trkpt lat="42.603665" lon="0.766326">
        <ele>1482.8</ele>
        <time>2010-07-02T10:23:08Z</time>
      </trkpt>
      <trkpt lat="42.603713" lon="0.766342">
        <ele>1482.6</ele>
        <time>2010-07-02T10:23:08Z</time>
      </trkpt>
      <trkpt lat="42.603731" lon="0.766376">
        <ele>1482.7</ele>
        <time>2010-07-02T10:23:08Z</time>
      </trkpt>
      <trkpt lat="42.603762" lon="0.766419">
        <ele>1482.9</ele>
        <time>2010-07-02T10:23:08Z</time>
      </trkpt>
      <trkpt lat="42.603820" lon="0.766448">
        <ele>1483.4</ele>
        <time>2010-07-02T10:23:08Z</time>
      </trkpt>
      <trkpt lat="42.603932" lon="0.766459">
        <ele>1484.2</ele>
        <time>2010-07-02T10:23:08Z</time>
      </trkpt>
      <trkpt lat="42.604146" lon="0.766521">
        <ele>1485.7</ele>
        <time>2010-07-02T10:23:08Z</time>
      </trkpt>
      <trkpt lat="42.604455" lon="0.766620">
        <ele>1487.7</ele>
        <time>2010-07-02T10:23:08Z</time>
      </trkpt>
      <trkpt lat="42.604604" lon="0.766676">
        <ele>1488.7</ele>
        <time>2010-07-02T10:23:08Z</time>
      </trkpt>
      <trkpt lat="42.604842" lon="0.766767">
        <ele>1490.8</ele>
        <time>2010-07-02T10:23:08Z</time>
      </trkpt>
      <trkpt lat="42.604953" lon="0.766841">
        <ele>1491.6</ele>
        <time>2010-07-02T10:23:08Z</time>
      </trkpt>
      <trkpt lat="42.605060" lon="0.766913">
        <ele>1492.2</ele>
        <time>2010-07-02T10:23:08Z</time>
      </trkpt>
      <trkpt lat="42.605093" lon="0.766967">
        <ele>1492.3</ele>
        <time>2010-07-02T10:23:08Z</time>
      </trkpt>
      <trkpt lat="42.605148" lon="0.767064">
        <ele>1492.4</ele>
        <time>2010-07-02T10:23:08Z</time>
      </trkpt>
      <trkpt lat="42.605228" lon="0.767168">
        <ele>1493.6</ele>
        <time>2010-07-02T10:23:08Z</time>
      </trkpt>
      <trkpt lat="42.605273" lon="0.767178">
        <ele>1493.9</ele>
        <time>2010-07-02T10:23:08Z</time>
      </trkpt>
      <trkpt lat="42.605299" lon="0.767198">
        <ele>1494.2</ele>
        <time>2010-07-02T10:23:08Z</time>
      </trkpt>
      <trkpt lat="42.605324" lon="0.767232">
        <ele>1494.7</ele>
        <time>2010-07-02T10:23:08Z</time>
      </trkpt>
      <trkpt lat="42.605361" lon="0.767291">
        <ele>1495.4</ele>
        <time>2010-07-02T10:23:08Z</time>
      </trkpt>
      <trkpt lat="42.605398" lon="0.767398">
        <ele>1496.5</ele>
        <time>2010-07-02T10:23:08Z</time>
      </trkpt>
      <trkpt lat="42.605407" lon="0.767456">
        <ele>1497.1</ele>
        <time>2010-07-02T10:23:08Z</time>
      </trkpt>
      <trkpt lat="42.605409" lon="0.767537">
        <ele>1497.8</ele>
        <time>2010-07-02T10:23:08Z</time>
      </trkpt>
      <trkpt lat="42.605406" lon="0.767604">
        <ele>1498.3</ele>
        <time>2010-07-02T10:23:08Z</time>
      </trkpt>
      <trkpt lat="42.605399" lon="0.767677">
        <ele>1498.9</ele>
        <time>2010-07-02T10:23:08Z</time>
      </trkpt>
      <trkpt lat="42.605374" lon="0.767742">
        <ele>1499.2</ele>
        <time>2010-07-02T10:23:08Z</time>
      </trkpt>
      <trkpt lat="42.605260" lon="0.767782">
        <ele>1498.8</ele>
        <time>2010-07-02T10:23:08Z</time>
      </trkpt>
      <trkpt lat="42.605291" lon="0.767909">
        <ele>1500.0</ele>
        <time>2010-07-02T10:23:08Z</time>
      </trkpt>
      <trkpt lat="42.605345" lon="0.768035">
        <ele>1501.8</ele>
        <time>2010-07-02T10:23:08Z</time>
      </trkpt>
      <trkpt lat="42.605456" lon="0.767963">
        <ele>1501.4</ele>
        <time>2010-07-02T10:23:08Z</time>
      </trkpt>
      <trkpt lat="42.605642" lon="0.768044">
        <ele>1501.8</ele>
        <time>2010-07-02T10:23:08Z</time>
      </trkpt>
      <trkpt lat="42.605682" lon="0.767902">
        <ele>1499.9</ele>
        <time>2010-07-02T10:23:08Z</time>
      </trkpt>
      <trkpt lat="42.605886" lon="0.767849">
        <ele>1498.9</ele>
        <time>2010-07-02T10:23:08Z</time>
      </trkpt>
      <trkpt lat="42.605974" lon="0.767656">
        <ele>1497.6</ele>
        <time>2010-07-02T10:23:08Z</time>
      </trkpt>
      <trkpt lat="42.605973" lon="0.767462">
        <ele>1496.6</ele>
        <time>2010-07-02T10:23:08Z</time>
      </trkpt>
      <trkpt lat="42.606051" lon="0.767514">
        <ele>1496.8</ele>
        <time>2010-07-02T10:23:08Z</time>
      </trkpt>
      <trkpt lat="42.606125" lon="0.767273">
        <ele>1495.7</ele>
        <time>2010-07-02T10:23:08Z</time>
      </trkpt>
      <trkpt lat="42.606178" lon="0.767129">
        <ele>1495.1</ele>
        <time>2010-07-02T10:23:08Z</time>
      </trkpt>
      <trkpt lat="42.606395" lon="0.767162">
        <ele>1495.5</ele>
        <time>2010-07-02T10:23:08Z</time>
      </trkpt>
      <trkpt lat="42.606593" lon="0.767053">
        <ele>1495.9</ele>
        <time>2010-07-02T10:23:08Z</time>
      </trkpt>
      <trkpt lat="42.606688" lon="0.767078">
        <ele>1495.6</ele>
        <time>2010-07-02T10:23:08Z</time>
      </trkpt>
      <trkpt lat="42.606771" lon="0.767110">
        <ele>1495.7</ele>
        <time>2010-07-02T10:23:08Z</time>
      </trkpt>
      <trkpt lat="42.606843" lon="0.767192">
        <ele>1496.2</ele>
        <time>2010-07-02T10:23:08Z</time>
      </trkpt>
      <trkpt lat="42.606915" lon="0.767271">
        <ele>1496.7</ele>
        <time>2010-07-02T10:23:08Z</time>
      </trkpt>
      <trkpt lat="42.607080" lon="0.767370">
        <ele>1497.4</ele>
        <time>2010-07-02T10:23:08Z</time>
      </trkpt>
      <trkpt lat="42.607306" lon="0.767501">
        <ele>1499.6</ele>
        <time>2010-07-02T10:23:08Z</time>
      </trkpt>
      <trkpt lat="42.607355" lon="0.767552">
        <ele>1500.2</ele>
        <time>2010-07-02T10:23:08Z</time>
      </trkpt>
      <trkpt lat="42.607418" lon="0.767695">
        <ele>1501.2</ele>
        <time>2010-07-02T10:23:08Z</time>
      </trkpt>
      <trkpt lat="42.607489" lon="0.767814">
        <ele>1502.1</ele>
        <time>2010-07-02T10:23:08Z</time>
      </trkpt>
      <trkpt lat="42.607563" lon="0.767870">
        <ele>1502.7</ele>
        <time>2010-07-02T10:23:08Z</time>
      </trkpt>
      <trkpt lat="42.607714" lon="0.768098">
        <ele>1505.6</ele>
        <time>2010-07-02T10:23:08Z</time>
      </trkpt>
      <trkpt lat="42.608029" lon="0.768091">
        <ele>1507.1</ele>
        <time>2010-07-02T10:23:08Z</time>
      </trkpt>
      <trkpt lat="42.608437" lon="0.768328">
        <ele>1511.6</ele>
        <time>2010-07-02T10:23:08Z</time>
      </trkpt>
      <trkpt lat="42.608505" lon="0.768281">
        <ele>1511.6</ele>
        <time>2010-07-02T10:23:08Z</time>
      </trkpt>
      <trkpt lat="42.608688" lon="0.768344">
        <ele>1513.2</ele>
        <time>2010-07-02T10:23:08Z</time>
      </trkpt>
      <trkpt lat="42.608977" lon="0.768476">
        <ele>1515.9</ele>
        <time>2010-07-02T10:23:08Z</time>
      </trkpt>
      <trkpt lat="42.609291" lon="0.768407">
        <ele>1517.0</ele>
        <time>2010-07-02T10:23:08Z</time>
      </trkpt>
      <trkpt lat="42.609562" lon="0.768441">
        <ele>1518.7</ele>
        <time>2010-07-02T10:23:08Z</time>
      </trkpt>
      <trkpt lat="42.609657" lon="0.768443">
        <ele>1519.5</ele>
        <time>2010-07-02T10:23:08Z</time>
      </trkpt>
      <trkpt lat="42.609715" lon="0.768450">
        <ele>1520.1</ele>
        <time>2010-07-02T10:23:08Z</time>
      </trkpt>
      <trkpt lat="42.609799" lon="0.768470">
        <ele>1521.1</ele>
        <time>2010-07-02T10:23:08Z</time>
      </trkpt>
      <trkpt lat="42.609853" lon="0.768497">
        <ele>1521.8</ele>
        <time>2010-07-02T10:23:08Z</time>
      </trkpt>
      <trkpt lat="42.609910" lon="0.768630">
        <ele>1523.3</ele>
        <time>2010-07-02T10:23:08Z</time>
      </trkpt>
      <trkpt lat="42.610019" lon="0.768613">
        <ele>1524.2</ele>
        <time>2010-07-02T10:23:08Z</time>
      </trkpt>
      <trkpt lat="42.610119" lon="0.768677">
        <ele>1525.6</ele>
        <time>2010-07-02T10:23:08Z</time>
      </trkpt>
      <trkpt lat="42.610272" lon="0.768744">
        <ele>1527.6</ele>
        <time>2010-07-02T10:23:08Z</time>
      </trkpt>
      <trkpt lat="42.610371" lon="0.768740">
        <ele>1528.5</ele>
        <time>2010-07-02T10:23:08Z</time>
      </trkpt>
      <trkpt lat="42.610493" lon="0.768721">
        <ele>1529.6</ele>
        <time>2010-07-02T10:23:08Z</time>
      </trkpt>
      <trkpt lat="42.610653" lon="0.768681">
        <ele>1530.9</ele>
        <time>2010-07-02T10:23:08Z</time>
      </trkpt>
      <trkpt lat="42.610815" lon="0.768594">
        <ele>1531.7</ele>
        <time>2010-07-02T10:23:08Z</time>
      </trkpt>
      <trkpt lat="42.610899" lon="0.768509">
        <ele>1531.6</ele>
        <time>2010-07-02T10:23:08Z</time>
      </trkpt>
      <trkpt lat="42.610988" lon="0.768439">
        <ele>1531.7</ele>
        <time>2010-07-02T10:23:08Z</time>
      </trkpt>
      <trkpt lat="42.611109" lon="0.768377">
        <ele>1531.9</ele>
        <time>2010-07-02T10:23:08Z</time>
      </trkpt>
      <trkpt lat="42.611223" lon="0.768373">
        <ele>1532.8</ele>
        <time>2010-07-02T10:23:08Z</time>
      </trkpt>
      <trkpt lat="42.611257" lon="0.768383">
        <ele>1533.2</ele>
        <time>2010-07-02T10:23:08Z</time>
      </trkpt>
      <trkpt lat="42.611313" lon="0.768370">
        <ele>1533.7</ele>
        <time>2010-07-02T10:23:08Z</time>
      </trkpt>
      <trkpt lat="42.611472" lon="0.768393">
        <ele>1535.9</ele>
        <time>2010-07-02T10:23:08Z</time>
      </trkpt>
      <trkpt lat="42.611657" lon="0.768412">
        <ele>1538.3</ele>
        <time>2010-07-02T10:23:08Z</time>
      </trkpt>
      <trkpt lat="42.611912" lon="0.768392">
        <ele>1541.0</ele>
        <time>2010-07-02T10:23:08Z</time>
      </trkpt>
      <trkpt lat="42.612075" lon="0.768374">
        <ele>1542.6</ele>
        <time>2010-07-02T10:23:08Z</time>
      </trkpt>
      <trkpt lat="42.612261" lon="0.768327">
        <ele>1543.9</ele>
        <time>2010-07-02T10:23:08Z</time>
      </trkpt>
      <trkpt lat="42.612568" lon="0.768322">
        <ele>1547.4</ele>
        <time>2010-07-02T10:23:08Z</time>
      </trkpt>
      <trkpt lat="42.612813" lon="0.768325">
        <ele>1550.2</ele>
        <time>2010-07-02T10:23:08Z</time>
      </trkpt>
      <trkpt lat="42.612927" lon="0.768326">
        <ele>1551.5</ele>
        <time>2010-07-02T10:23:08Z</time>
      </trkpt>
      <trkpt lat="42.613035" lon="0.768372">
        <ele>1552.6</ele>
        <time>2010-07-02T10:23:08Z</time>
      </trkpt>
      <trkpt lat="42.613207" lon="0.768479">
        <ele>1554.7</ele>
        <time>2010-07-02T10:23:08Z</time>
      </trkpt>
      <trkpt lat="42.613317" lon="0.768510">
        <ele>1555.5</ele>
        <time>2010-07-02T10:23:08Z</time>
      </trkpt>
      <trkpt lat="42.613431" lon="0.768521">
        <ele>1556.1</ele>
        <time>2010-07-02T10:23:08Z</time>
      </trkpt>
      <trkpt lat="42.613547" lon="0.768522">
        <ele>1556.5</ele>
        <time>2010-07-02T10:23:08Z</time>
      </trkpt>
      <trkpt lat="42.613624" lon="0.768528">
        <ele>1556.9</ele>
        <time>2010-07-02T10:23:08Z</time>
      </trkpt>
      <trkpt lat="42.613693" lon="0.768537">
        <ele>1557.2</ele>
        <time>2010-07-02T10:23:08Z</time>
      </trkpt>
      <trkpt lat="42.613750" lon="0.768573">
        <ele>1557.7</ele>
        <time>2010-07-02T10:23:08Z</time>
      </trkpt>
      <trkpt lat="42.613857" lon="0.768694">
        <ele>1558.1</ele>
        <time>2010-07-02T10:23:08Z</time>
      </trkpt>
      <trkpt lat="42.614060" lon="0.768844">
        <ele>1559.1</ele>
        <time>2010-07-02T10:23:08Z</time>
      </trkpt>
      <trkpt lat="42.614174" lon="0.768881">
        <ele>1559.1</ele>
        <time>2010-07-02T10:23:08Z</time>
      </trkpt>
      <trkpt lat="42.614306" lon="0.768885">
        <ele>1558.4</ele>
        <time>2010-07-02T10:23:08Z</time>
      </trkpt>
      <trkpt lat="42.614685" lon="0.768857">
        <ele>1557.6</ele>
        <time>2010-07-02T10:23:08Z</time>
      </trkpt>
      <trkpt lat="42.614934" lon="0.768833">
        <ele>1560.0</ele>
        <time>2010-07-02T10:23:08Z</time>
      </trkpt>
      <trkpt lat="42.615486" lon="0.768761">
        <ele>1564.9</ele>
        <time>2010-07-02T10:23:08Z</time>
      </trkpt>
      <trkpt lat="42.615668" lon="0.768728">
        <ele>1566.5</ele>
        <time>2010-07-02T10:23:08Z</time>
      </trkpt>
      <trkpt lat="42.616044" lon="0.768616">
        <ele>1569.4</ele>
        <time>2010-07-02T10:23:08Z</time>
      </trkpt>
      <trkpt lat="42.616174" lon="0.768591">
        <ele>1570.6</ele>
        <time>2010-07-02T10:23:08Z</time>
      </trkpt>
      <trkpt lat="42.616589" lon="0.768486">
        <ele>1571.8</ele>
        <time>2010-07-02T10:23:08Z</time>
      </trkpt>
      <trkpt lat="42.617511" lon="0.768448">
        <ele>1576.4</ele>
        <time>2010-07-02T10:23:08Z</time>
      </trkpt>
      <trkpt lat="42.617698" lon="0.768438">
        <ele>1577.6</ele>
        <time>2010-07-02T10:23:08Z</time>
      </trkpt>
      <trkpt lat="42.617771" lon="0.768418">
        <ele>1577.8</ele>
        <time>2010-07-02T10:23:08Z</time>
      </trkpt>
      <trkpt lat="42.617854" lon="0.768383">
        <ele>1577.8</ele>
        <time>2010-07-02T10:23:08Z</time>
      </trkpt>
      <trkpt lat="42.618094" lon="0.768241">
        <ele>1578.8</ele>
        <time>2010-07-02T10:23:08Z</time>
      </trkpt>
      <trkpt lat="42.618192" lon="0.768199">
        <ele>1579.7</ele>
        <time>2010-07-02T10:23:08Z</time>
      </trkpt>
      <trkpt lat="42.618641" lon="0.768218">
        <ele>1586.9</ele>
        <time>2010-07-02T10:23:08Z</time>
      </trkpt>
      <trkpt lat="42.618922" lon="0.768243">
        <ele>1590.2</ele>
        <time>2010-07-02T10:23:08Z</time>
      </trkpt>
      <trkpt lat="42.619073" lon="0.768249">
        <ele>1591.5</ele>
        <time>2010-07-02T10:23:08Z</time>
      </trkpt>
      <trkpt lat="42.619236" lon="0.768264">
        <ele>1592.9</ele>
        <time>2010-07-02T10:23:08Z</time>
      </trkpt>
      <trkpt lat="42.619405" lon="0.768298">
        <ele>1594.4</ele>
        <time>2010-07-02T10:23:08Z</time>
      </trkpt>
      <trkpt lat="42.619623" lon="0.768392">
        <ele>1596.5</ele>
        <time>2010-07-02T10:23:08Z</time>
      </trkpt>
      <trkpt lat="42.619885" lon="0.768494">
        <ele>1597.6</ele>
        <time>2010-07-02T10:23:08Z</time>
      </trkpt>
      <trkpt lat="42.620051" lon="0.768537">
        <ele>1598.0</ele>
        <time>2010-07-02T10:23:08Z</time>
      </trkpt>
      <trkpt lat="42.620193" lon="0.768558">
        <ele>1598.3</ele>
        <time>2010-07-02T10:23:08Z</time>
      </trkpt>
      <trkpt lat="42.620350" lon="0.768558">
        <ele>1598.5</ele>
        <time>2010-07-02T10:23:08Z</time>
      </trkpt>
      <trkpt lat="42.620443" lon="0.768584">
        <ele>1598.6</ele>
        <time>2010-07-02T10:23:08Z</time>
      </trkpt>
      <trkpt lat="42.620497" lon="0.768617">
        <ele>1598.7</ele>
        <time>2010-07-02T10:23:08Z</time>
      </trkpt>
      <trkpt lat="42.620560" lon="0.768749">
        <ele>1599.0</ele>
        <time>2010-07-02T10:23:08Z</time>
      </trkpt>
      <trkpt lat="42.620686" lon="0.768924">
        <ele>1601.2</ele>
        <time>2010-07-02T10:23:08Z</time>
      </trkpt>
      <trkpt lat="42.620851" lon="0.769029">
        <ele>1602.5</ele>
        <time>2010-07-02T10:23:08Z</time>
      </trkpt>
      <trkpt lat="42.621059" lon="0.769120">
        <ele>1603.5</ele>
        <time>2010-07-02T10:23:08Z</time>
      </trkpt>
      <trkpt lat="42.621257" lon="0.769142">
        <ele>1603.7</ele>
        <time>2010-07-02T10:23:08Z</time>
      </trkpt>
      <trkpt lat="42.621394" lon="0.769140">
        <ele>1603.7</ele>
        <time>2010-07-02T10:23:08Z</time>
      </trkpt>
      <trkpt lat="42.622230" lon="0.769145">
        <ele>1603.3</ele>
        <time>2010-07-02T10:23:08Z</time>
      </trkpt>
      <trkpt lat="42.622322" lon="0.769136">
        <ele>1602.8</ele>
        <time>2010-07-02T10:23:08Z</time>
      </trkpt>
      <trkpt lat="42.622600" lon="0.768996">
        <ele>1600.0</ele>
        <time>2010-07-02T10:23:08Z</time>
      </trkpt>
      <trkpt lat="42.622781" lon="0.769001">
        <ele>1599.2</ele>
        <time>2010-07-02T10:23:08Z</time>
      </trkpt>
      <trkpt lat="42.623103" lon="0.769009">
        <ele>1599.7</ele>
        <time>2010-07-02T10:23:08Z</time>
      </trkpt>
      <trkpt lat="42.623167" lon="0.768955">
        <ele>1599.3</ele>
        <time>2010-07-02T10:23:08Z</time>
      </trkpt>
      <trkpt lat="42.623302" lon="0.768735">
        <ele>1597.3</ele>
        <time>2010-07-02T10:23:08Z</time>
      </trkpt>
      <trkpt lat="42.623368" lon="0.768491">
        <ele>1596.9</ele>
        <time>2010-07-02T10:23:08Z</time>
      </trkpt>
      <trkpt lat="42.623350" lon="0.767881">
        <ele>1595.2</ele>
        <time>2010-07-02T10:23:08Z</time>
      </trkpt>
      <trkpt lat="42.623307" lon="0.767566">
        <ele>1595.2</ele>
        <time>2010-07-02T10:23:08Z</time>
      </trkpt>
      <trkpt lat="42.623421" lon="0.767585">
        <ele>1596.1</ele>
        <time>2010-07-02T10:23:08Z</time>
      </trkpt>
      <trkpt lat="42.623503" lon="0.767617">
        <ele>1596.7</ele>
        <time>2010-07-02T10:23:08Z</time>
      </trkpt>
      <trkpt lat="42.623571" lon="0.767690">
        <ele>1597.1</ele>
        <time>2010-07-02T10:23:08Z</time>
      </trkpt>
      <trkpt lat="42.623821" lon="0.767835">
        <ele>1599.4</ele>
        <time>2010-07-02T10:23:08Z</time>
      </trkpt>
      <trkpt lat="42.624009" lon="0.767890">
        <ele>1602.4</ele>
        <time>2010-07-02T10:23:08Z</time>
      </trkpt>
      <trkpt lat="42.624143" lon="0.767946">
        <ele>1604.6</ele>
        <time>2010-07-02T10:23:08Z</time>
      </trkpt>
      <trkpt lat="42.624413" lon="0.767933">
        <ele>1609.1</ele>
        <time>2010-07-02T10:23:08Z</time>
      </trkpt>
      <trkpt lat="42.624620" lon="0.767862">
        <ele>1612.7</ele>
        <time>2010-07-02T10:23:08Z</time>
      </trkpt>
      <trkpt lat="42.624721" lon="0.767824">
        <ele>1614.4</ele>
        <time>2010-07-02T10:23:08Z</time>
      </trkpt>
      <trkpt lat="42.624946" lon="0.767632">
        <ele>1618.5</ele>
        <time>2010-07-02T10:23:08Z</time>
      </trkpt>
      <trkpt lat="42.625176" lon="0.767493">
        <ele>1622.6</ele>
        <time>2010-07-02T10:23:08Z</time>
      </trkpt>
      <trkpt lat="42.625329" lon="0.767403">
        <ele>1625.4</ele>
        <time>2010-07-02T10:23:08Z</time>
      </trkpt>
      <trkpt lat="42.625536" lon="0.767277">
        <ele>1629.4</ele>
        <time>2010-07-02T10:23:08Z</time>
      </trkpt>
      <trkpt lat="42.625689" lon="0.767172">
        <ele>1632.5</ele>
        <time>2010-07-02T10:23:08Z</time>
      </trkpt>
      <trkpt lat="42.625811" lon="0.767154">
        <ele>1634.8</ele>
        <time>2010-07-02T10:23:08Z</time>
      </trkpt>
      <trkpt lat="42.625960" lon="0.767084">
        <ele>1637.8</ele>
        <time>2010-07-02T10:23:08Z</time>
      </trkpt>
      <trkpt lat="42.626145" lon="0.766897">
        <ele>1638.2</ele>
        <time>2010-07-02T10:23:08Z</time>
      </trkpt>
      <trkpt lat="42.626321" lon="0.766905">
        <ele>1641.9</ele>
        <time>2010-07-02T10:23:08Z</time>
      </trkpt>
      <trkpt lat="42.626501" lon="0.766850">
        <ele>1645.6</ele>
        <time>2010-07-02T10:23:08Z</time>
      </trkpt>
      <trkpt lat="42.626338" lon="0.766655">
        <ele>1638.7</ele>
        <time>2010-07-02T10:23:08Z</time>
      </trkpt>
      <trkpt lat="42.626214" lon="0.766566">
        <ele>1634.3</ele>
        <time>2010-07-02T10:23:08Z</time>
      </trkpt>
      <trkpt lat="42.626108" lon="0.766413">
        <ele>1630.0</ele>
        <time>2010-07-02T10:23:08Z</time>
      </trkpt>
      <trkpt lat="42.626107" lon="0.766233">
        <ele>1627.1</ele>
        <time>2010-07-02T10:23:08Z</time>
      </trkpt>
      <trkpt lat="42.626123" lon="0.766104">
        <ele>1625.1</ele>
        <time>2010-07-02T10:23:08Z</time>
      </trkpt>
      <trkpt lat="42.626170" lon="0.765954">
        <ele>1623.1</ele>
        <time>2010-07-02T10:23:08Z</time>
      </trkpt>
      <trkpt lat="42.626233" lon="0.765877">
        <ele>1622.6</ele>
        <time>2010-07-02T10:23:08Z</time>
      </trkpt>
      <trkpt lat="42.626308" lon="0.765775">
        <ele>1622.5</ele>
        <time>2010-07-02T10:23:08Z</time>
      </trkpt>
      <trkpt lat="42.626354" lon="0.765698">
        <ele>1622.2</ele>
        <time>2010-07-02T10:23:08Z</time>
      </trkpt>
      <trkpt lat="42.626393" lon="0.765606">
        <ele>1621.4</ele>
        <time>2010-07-02T10:23:08Z</time>
      </trkpt>
      <trkpt lat="42.626419" lon="0.765515">
        <ele>1620.3</ele>
        <time>2010-07-02T10:23:08Z</time>
      </trkpt>
      <trkpt lat="42.626437" lon="0.765439">
        <ele>1619.2</ele>
        <time>2010-07-02T10:23:08Z</time>
      </trkpt>
      <trkpt lat="42.626439" lon="0.765355">
        <ele>1617.9</ele>
        <time>2010-07-02T10:23:08Z</time>
      </trkpt>
      <trkpt lat="42.626467" lon="0.765214">
        <ele>1616.7</ele>
        <time>2010-07-02T10:23:08Z</time>
      </trkpt>
      <trkpt lat="42.626599" lon="0.764945">
        <ele>1615.9</ele>
        <time>2010-07-02T10:23:08Z</time>
      </trkpt>
      <trkpt lat="42.626737" lon="0.764739">
        <ele>1615.8</ele>
        <time>2010-07-02T10:23:08Z</time>
      </trkpt>
      <trkpt lat="42.626883" lon="0.764522">
        <ele>1615.7</ele>
        <time>2010-07-02T10:23:08Z</time>
      </trkpt>
      <trkpt lat="42.627009" lon="0.764261">
        <ele>1615.8</ele>
        <time>2010-07-02T10:23:08Z</time>
      </trkpt>
      <trkpt lat="42.627049" lon="0.764117">
        <ele>1615.1</ele>
        <time>2010-07-02T10:23:08Z</time>
      </trkpt>
      <trkpt lat="42.627161" lon="0.763692">
        <ele>1612.9</ele>
        <time>2010-07-02T10:23:08Z</time>
      </trkpt>
      <trkpt lat="42.627280" lon="0.763309">
        <ele>1613.2</ele>
        <time>2010-07-02T10:23:08Z</time>
      </trkpt>
      <trkpt lat="42.627351" lon="0.763001">
        <ele>1612.6</ele>
        <time>2010-07-02T10:23:08Z</time>
      </trkpt>
      <trkpt lat="42.627487" lon="0.762819">
        <ele>1612.8</ele>
        <time>2010-07-02T10:23:08Z</time>
      </trkpt>
      <trkpt lat="42.627624" lon="0.762689">
        <ele>1613.0</ele>
        <time>2010-07-02T10:23:08Z</time>
      </trkpt>
      <trkpt lat="42.627769" lon="0.762612">
        <ele>1613.5</ele>
        <time>2010-07-02T10:23:08Z</time>
      </trkpt>
      <trkpt lat="42.627995" lon="0.762606">
        <ele>1615.9</ele>
        <time>2010-07-02T10:23:08Z</time>
      </trkpt>
      <trkpt lat="42.628208" lon="0.762445">
        <ele>1618.2</ele>
        <time>2010-07-02T10:23:08Z</time>
      </trkpt>
      <trkpt lat="42.628393" lon="0.762371">
        <ele>1620.6</ele>
        <time>2010-07-02T10:23:08Z</time>
      </trkpt>
      <trkpt lat="42.628496" lon="0.762225">
        <ele>1620.7</ele>
        <time>2010-07-02T10:23:08Z</time>
      </trkpt>
      <trkpt lat="42.628562" lon="0.761898">
        <ele>1618.9</ele>
        <time>2010-07-02T10:23:08Z</time>
      </trkpt>
      <trkpt lat="42.628770" lon="0.761772">
        <ele>1621.3</ele>
        <time>2010-07-02T10:23:08Z</time>
      </trkpt>
      <trkpt lat="42.628775" lon="0.761569">
        <ele>1619.9</ele>
        <time>2010-07-02T10:23:08Z</time>
      </trkpt>
      <trkpt lat="42.628973" lon="0.761391">
        <ele>1622.8</ele>
        <time>2010-07-02T10:23:08Z</time>
      </trkpt>
      <trkpt lat="42.629124" lon="0.761080">
        <ele>1622.7</ele>
        <time>2010-07-02T10:23:08Z</time>
      </trkpt>
      <trkpt lat="42.629299" lon="0.760931">
        <ele>1624.2</ele>
        <time>2010-07-02T10:23:08Z</time>
      </trkpt>
      <trkpt lat="42.629509" lon="0.760709">
        <ele>1624.8</ele>
        <time>2010-07-02T10:23:08Z</time>
      </trkpt>
      <trkpt lat="42.629610" lon="0.760600">
        <ele>1625.4</ele>
        <time>2010-07-02T10:23:08Z</time>
      </trkpt>
      <trkpt lat="42.629755" lon="0.760528">
        <ele>1629.4</ele>
        <time>2010-07-02T10:23:08Z</time>
      </trkpt>
      <trkpt lat="42.629898" lon="0.760394">
        <ele>1632.5</ele>
        <time>2010-07-02T10:23:08Z</time>
      </trkpt>
      <trkpt lat="42.629893" lon="0.760099">
        <ele>1630.9</ele>
        <time>2010-07-02T10:23:08Z</time>
      </trkpt>
      <trkpt lat="42.630061" lon="0.759709">
        <ele>1633.9</ele>
        <time>2010-07-02T10:23:08Z</time>
      </trkpt>
      <trkpt lat="42.630153" lon="0.759293">
        <ele>1634.0</ele>
        <time>2010-07-02T10:23:08Z</time>
      </trkpt>
      <trkpt lat="42.630301" lon="0.759118">
        <ele>1636.4</ele>
        <time>2010-07-02T10:23:08Z</time>
      </trkpt>
      <trkpt lat="42.630394" lon="0.759066">
        <ele>1638.1</ele>
        <time>2010-07-02T10:23:08Z</time>
      </trkpt>
      <trkpt lat="42.630604" lon="0.759023">
        <ele>1644.2</ele>
        <time>2010-07-02T10:23:08Z</time>
      </trkpt>
      <trkpt lat="42.630713" lon="0.759028">
        <ele>1647.7</ele>
        <time>2010-07-02T10:23:08Z</time>
      </trkpt>
      <trkpt lat="42.630800" lon="0.758973">
        <ele>1649.8</ele>
        <time>2010-07-02T10:23:08Z</time>
      </trkpt>
      <trkpt lat="42.630923" lon="0.758855">
        <ele>1652.0</ele>
        <time>2010-07-02T10:23:08Z</time>
      </trkpt>
      <trkpt lat="42.631071" lon="0.758655">
        <ele>1654.1</ele>
        <time>2010-07-02T10:23:08Z</time>
      </trkpt>
      <trkpt lat="42.631192" lon="0.758577">
        <ele>1656.9</ele>
        <time>2010-07-02T10:23:08Z</time>
      </trkpt>
      <trkpt lat="42.631180" lon="0.758386">
        <ele>1655.0</ele>
        <time>2010-07-02T10:23:08Z</time>
      </trkpt>
      <trkpt lat="42.631148" lon="0.758186">
        <ele>1652.5</ele>
        <time>2010-07-02T10:23:08Z</time>
      </trkpt>
      <trkpt lat="42.631237" lon="0.758015">
        <ele>1653.5</ele>
        <time>2010-07-02T10:23:08Z</time>
      </trkpt>
      <trkpt lat="42.631361" lon="0.757903">
        <ele>1657.2</ele>
        <time>2010-07-02T10:23:08Z</time>
      </trkpt>
      <trkpt lat="42.631343" lon="0.757714">
        <ele>1656.2</ele>
        <time>2010-07-02T10:23:08Z</time>
      </trkpt>
      <trkpt lat="42.631438" lon="0.757428">
        <ele>1659.1</ele>
        <time>2010-07-02T10:23:08Z</time>
      </trkpt>
      <trkpt lat="42.631558" lon="0.757329">
        <ele>1663.1</ele>
        <time>2010-07-02T10:23:08Z</time>
      </trkpt>
      <trkpt lat="42.631707" lon="0.757054">
        <ele>1667.1</ele>
        <time>2010-07-02T10:23:08Z</time>
      </trkpt>
      <trkpt lat="42.631723" lon="0.756651">
        <ele>1663.8</ele>
        <time>2010-07-02T10:23:08Z</time>
      </trkpt>
      <trkpt lat="42.631834" lon="0.756459">
        <ele>1665.2</ele>
        <time>2010-07-02T10:23:08Z</time>
      </trkpt>
      <trkpt lat="42.631826" lon="0.756290">
        <ele>1663.3</ele>
        <time>2010-07-02T10:23:08Z</time>
      </trkpt>
      <trkpt lat="42.631863" lon="0.756085">
        <ele>1662.4</ele>
        <time>2010-07-02T10:23:08Z</time>
      </trkpt>
      <trkpt lat="42.631956" lon="0.756026">
        <ele>1664.3</ele>
        <time>2010-07-02T10:23:08Z</time>
      </trkpt>
      <trkpt lat="42.631971" lon="0.756005">
        <ele>1664.5</ele>
        <time>2010-07-02T10:23:08Z</time>
      </trkpt>
      <trkpt lat="42.631988" lon="0.756013">
        <ele>1665.0</ele>
        <time>2010-07-02T10:23:08Z</time>
      </trkpt>
      <trkpt lat="42.631987" lon="0.756074">
        <ele>1665.6</ele>
        <time>2010-07-02T10:23:08Z</time>
      </trkpt>
      <trkpt lat="42.631977" lon="0.756235">
        <ele>1666.9</ele>
        <time>2010-07-02T10:23:08Z</time>
      </trkpt>
      <trkpt lat="42.631949" lon="0.756426">
        <ele>1668.2</ele>
        <time>2010-07-02T10:23:08Z</time>
      </trkpt>
      <trkpt lat="42.632008" lon="0.756370">
        <ele>1669.3</ele>
        <time>2010-07-02T10:23:08Z</time>
      </trkpt>
      <trkpt lat="42.632069" lon="0.756441">
        <ele>1671.9</ele>
        <time>2010-07-02T10:23:08Z</time>
      </trkpt>
      <trkpt lat="42.632099" lon="0.756437">
        <ele>1672.9</ele>
        <time>2010-07-02T10:23:08Z</time>
      </trkpt>
      <trkpt lat="42.632131" lon="0.756421">
        <ele>1674.0</ele>
        <time>2010-07-02T10:23:08Z</time>
      </trkpt>
      <trkpt lat="42.632197" lon="0.756387">
        <ele>1676.4</ele>
        <time>2010-07-02T10:23:08Z</time>
      </trkpt>
      <trkpt lat="42.632294" lon="0.756236">
        <ele>1678.7</ele>
        <time>2010-07-02T10:23:08Z</time>
      </trkpt>
      <trkpt lat="42.632243" lon="0.756417">
        <ele>1678.6</ele>
        <time>2010-07-02T10:23:08Z</time>
      </trkpt>
      <trkpt lat="42.632294" lon="0.756401">
        <ele>1680.5</ele>
        <time>2010-07-02T10:23:08Z</time>
      </trkpt>
      <trkpt lat="42.632305" lon="0.756418">
        <ele>1681.2</ele>
        <time>2010-07-02T10:23:08Z</time>
      </trkpt>
      <trkpt lat="42.632313" lon="0.756496">
        <ele>1682.4</ele>
        <time>2010-07-02T10:23:08Z</time>
      </trkpt>
      <trkpt lat="42.632335" lon="0.756550">
        <ele>1683.9</ele>
        <time>2010-07-02T10:23:08Z</time>
      </trkpt>
      <trkpt lat="42.632351" lon="0.756579">
        <ele>1684.8</ele>
        <time>2010-07-02T10:23:08Z</time>
      </trkpt>
      <trkpt lat="42.632356" lon="0.756614">
        <ele>1685.4</ele>
        <time>2010-07-02T10:23:08Z</time>
      </trkpt>
      <trkpt lat="42.632397" lon="0.756641">
        <ele>1687.4</ele>
        <time>2010-07-02T10:23:08Z</time>
      </trkpt>
      <trkpt lat="42.632414" lon="0.756629">
        <ele>1687.9</ele>
        <time>2010-07-02T10:23:08Z</time>
      </trkpt>
      <trkpt lat="42.632461" lon="0.756598">
        <ele>1689.5</ele>
        <time>2010-07-02T10:23:08Z</time>
      </trkpt>
      <trkpt lat="42.632495" lon="0.756533">
        <ele>1690.2</ele>
        <time>2010-07-02T10:23:08Z</time>
      </trkpt>
      <trkpt lat="42.632589" lon="0.756452">
        <ele>1693.2</ele>
        <time>2010-07-02T10:23:08Z</time>
      </trkpt>
      <trkpt lat="42.632559" lon="0.756551">
        <ele>1693.0</ele>
        <time>2010-07-02T10:23:08Z</time>
      </trkpt>
      <trkpt lat="42.632520" lon="0.756639">
        <ele>1692.3</ele>
        <time>2010-07-02T10:23:08Z</time>
      </trkpt>
      <trkpt lat="42.632541" lon="0.756695">
        <ele>1693.7</ele>
        <time>2010-07-02T10:23:08Z</time>
      </trkpt>
      <trkpt lat="42.632598" lon="0.756712">
        <ele>1696.1</ele>
        <time>2010-07-02T10:23:08Z</time>
      </trkpt>
      <trkpt lat="42.632643" lon="0.756664">
        <ele>1697.5</ele>
        <time>2010-07-02T10:23:08Z</time>
      </trkpt>
      <trkpt lat="42.632674" lon="0.756651">
        <ele>1698.6</ele>
        <time>2010-07-02T10:23:08Z</time>
      </trkpt>
      <trkpt lat="42.632656" lon="0.756585">
        <ele>1697.3</ele>
        <time>2010-07-02T10:23:08Z</time>
      </trkpt>
      <trkpt lat="42.632687" lon="0.756555">
        <ele>1698.2</ele>
        <time>2010-07-02T10:23:08Z</time>
      </trkpt>
      <trkpt lat="42.632753" lon="0.756543">
        <ele>1700.8</ele>
        <time>2010-07-02T10:23:08Z</time>
      </trkpt>
      <trkpt lat="42.632764" lon="0.756636">
        <ele>1702.1</ele>
        <time>2010-07-02T10:23:08Z</time>
      </trkpt>
      <trkpt lat="42.632817" lon="0.756650">
        <ele>1704.3</ele>
        <time>2010-07-02T10:23:08Z</time>
      </trkpt>
      <trkpt lat="42.632855" lon="0.756539">
        <ele>1704.9</ele>
        <time>2010-07-02T10:23:08Z</time>
      </trkpt>
      <trkpt lat="42.632909" lon="0.756646">
        <ele>1708.0</ele>
        <time>2010-07-02T10:23:08Z</time>
      </trkpt>
      <trkpt lat="42.632987" lon="0.756781">
        <ele>1713.0</ele>
        <time>2010-07-02T10:23:08Z</time>
      </trkpt>
      <trkpt lat="42.633083" lon="0.756848">
        <ele>1718.3</ele>
        <time>2010-07-02T10:23:08Z</time>
      </trkpt>
      <trkpt lat="42.633159" lon="0.756830">
        <ele>1721.9</ele>
        <time>2010-07-02T10:23:08Z</time>
      </trkpt>
      <trkpt lat="42.633205" lon="0.756787">
        <ele>1723.8</ele>
        <time>2010-07-02T10:23:08Z</time>
      </trkpt>
      <trkpt lat="42.633274" lon="0.756656">
        <ele>1726.2</ele>
        <time>2010-07-02T10:23:08Z</time>
      </trkpt>
      <trkpt lat="42.633330" lon="0.756529">
        <ele>1728.0</ele>
        <time>2010-07-02T10:23:08Z</time>
      </trkpt>
      <trkpt lat="42.633401" lon="0.756497">
        <ele>1731.3</ele>
        <time>2010-07-02T10:23:08Z</time>
      </trkpt>
      <trkpt lat="42.633431" lon="0.756592">
        <ele>1733.6</ele>
        <time>2010-07-02T10:23:08Z</time>
      </trkpt>
      <trkpt lat="42.633529" lon="0.756763">
        <ele>1739.7</ele>
        <time>2010-07-02T10:23:08Z</time>
      </trkpt>
      <trkpt lat="42.633613" lon="0.756932">
        <ele>1745.1</ele>
        <time>2010-07-02T10:23:08Z</time>
      </trkpt>
      <trkpt lat="42.633779" lon="0.757109">
        <ele>1755.0</ele>
        <time>2010-07-02T10:23:08Z</time>
      </trkpt>
      <trkpt lat="42.633849" lon="0.757063">
        <ele>1758.1</ele>
        <time>2010-07-02T10:23:08Z</time>
      </trkpt>
      <trkpt lat="42.633893" lon="0.757021">
        <ele>1760.1</ele>
        <time>2010-07-02T10:23:08Z</time>
      </trkpt>
      <trkpt lat="42.633948" lon="0.756879">
        <ele>1762.1</ele>
        <time>2010-07-02T10:23:08Z</time>
      </trkpt>
      <trkpt lat="42.633979" lon="0.756727">
        <ele>1762.7</ele>
        <time>2010-07-02T10:23:08Z</time>
      </trkpt>
      <trkpt lat="42.633957" lon="0.756503">
        <ele>1759.9</ele>
        <time>2010-07-02T10:23:08Z</time>
      </trkpt>
      <trkpt lat="42.633991" lon="0.756451">
        <ele>1761.4</ele>
        <time>2010-07-02T10:23:08Z</time>
      </trkpt>
      <trkpt lat="42.634048" lon="0.756502">
        <ele>1764.8</ele>
        <time>2010-07-02T10:23:08Z</time>
      </trkpt>
      <trkpt lat="42.634081" lon="0.756438">
        <ele>1766.2</ele>
        <time>2010-07-02T10:23:08Z</time>
      </trkpt>
      <trkpt lat="42.634155" lon="0.756470">
        <ele>1770.3</ele>
        <time>2010-07-02T10:23:08Z</time>
      </trkpt>
      <trkpt lat="42.634180" lon="0.756425">
        <ele>1771.4</ele>
        <time>2010-07-02T10:23:08Z</time>
      </trkpt>
      <trkpt lat="42.634169" lon="0.756345">
        <ele>1770.3</ele>
        <time>2010-07-02T10:23:08Z</time>
      </trkpt>
      <trkpt lat="42.634145" lon="0.756203">
        <ele>1767.5</ele>
        <time>2010-07-02T10:23:08Z</time>
      </trkpt>
      <trkpt lat="42.634136" lon="0.756106">
        <ele>1765.4</ele>
        <time>2010-07-02T10:23:08Z</time>
      </trkpt>
      <trkpt lat="42.634184" lon="0.755998">
        <ele>1766.0</ele>
        <time>2010-07-02T10:23:08Z</time>
      </trkpt>
      <trkpt lat="42.634250" lon="0.755980">
        <ele>1769.3</ele>
        <time>2010-07-02T10:23:08Z</time>
      </trkpt>
      <trkpt lat="42.634302" lon="0.756006">
        <ele>1772.5</ele>
        <time>2010-07-02T10:23:08Z</time>
      </trkpt>
      <trkpt lat="42.634310" lon="0.756081">
        <ele>1774.3</ele>
        <time>2010-07-02T10:23:08Z</time>
      </trkpt>
      <trkpt lat="42.634318" lon="0.756340">
        <ele>1778.3</ele>
        <time>2010-07-02T10:23:08Z</time>
      </trkpt>
      <trkpt lat="42.634313" lon="0.756434">
        <ele>1778.6</ele>
        <time>2010-07-02T10:23:08Z</time>
      </trkpt>
      <trkpt lat="42.634333" lon="0.756499">
        <ele>1780.1</ele>
        <time>2010-07-02T10:23:08Z</time>
      </trkpt>
      <trkpt lat="42.634391" lon="0.756493">
        <ele>1783.1</ele>
        <time>2010-07-02T10:23:08Z</time>
      </trkpt>
      <trkpt lat="42.634403" lon="0.756406">
        <ele>1783.2</ele>
        <time>2010-07-02T10:23:08Z</time>
      </trkpt>
      <trkpt lat="42.634382" lon="0.756353">
        <ele>1781.8</ele>
        <time>2010-07-02T10:23:08Z</time>
      </trkpt>
      <trkpt lat="42.634428" lon="0.756275">
        <ele>1783.8</ele>
        <time>2010-07-02T10:23:08Z</time>
      </trkpt>
      <trkpt lat="42.634461" lon="0.756313">
        <ele>1785.8</ele>
        <time>2010-07-02T10:23:08Z</time>
      </trkpt>
      <trkpt lat="42.634465" lon="0.756413">
        <ele>1786.6</ele>
        <time>2010-07-02T10:23:08Z</time>
      </trkpt>
      <trkpt lat="42.634490" lon="0.756464">
        <ele>1788.3</ele>
        <time>2010-07-02T10:23:08Z</time>
      </trkpt>
      <trkpt lat="42.634544" lon="0.756506">
        <ele>1791.4</ele>
        <time>2010-07-02T10:23:08Z</time>
      </trkpt>
      <trkpt lat="42.634570" lon="0.756635">
        <ele>1793.6</ele>
        <time>2010-07-02T10:23:08Z</time>
      </trkpt>
      <trkpt lat="42.634628" lon="0.756697">
        <ele>1797.3</ele>
        <time>2010-07-02T10:23:08Z</time>
      </trkpt>
      <trkpt lat="42.634637" lon="0.756642">
        <ele>1797.4</ele>
        <time>2010-07-02T10:23:08Z</time>
      </trkpt>
      <trkpt lat="42.634672" lon="0.756557">
        <ele>1798.8</ele>
        <time>2010-07-02T10:23:08Z</time>
      </trkpt>
      <trkpt lat="42.634709" lon="0.756559">
        <ele>1800.9</ele>
        <time>2010-07-02T10:23:08Z</time>
      </trkpt>
      <trkpt lat="42.634727" lon="0.756610">
        <ele>1802.3</ele>
        <time>2010-07-02T10:23:08Z</time>
      </trkpt>
      <trkpt lat="42.634740" lon="0.756722">
        <ele>1803.9</ele>
        <time>2010-07-02T10:23:08Z</time>
      </trkpt>
      <trkpt lat="42.634743" lon="0.756789">
        <ele>1804.7</ele>
        <time>2010-07-02T10:23:08Z</time>
      </trkpt>
      <trkpt lat="42.634768" lon="0.756820">
        <ele>1806.4</ele>
        <time>2010-07-02T10:23:08Z</time>
      </trkpt>
      <trkpt lat="42.634824" lon="0.756679">
        <ele>1808.5</ele>
        <time>2010-07-02T10:23:08Z</time>
      </trkpt>
      <trkpt lat="42.634847" lon="0.756521">
        <ele>1808.4</ele>
        <time>2010-07-02T10:23:08Z</time>
      </trkpt>
      <trkpt lat="42.634932" lon="0.756395">
        <ele>1811.9</ele>
        <time>2010-07-02T10:23:08Z</time>
      </trkpt>
      <trkpt lat="42.634979" lon="0.756430">
        <ele>1814.8</ele>
        <time>2010-07-02T10:23:08Z</time>
      </trkpt>
      <trkpt lat="42.634995" lon="0.756501">
        <ele>1816.4</ele>
        <time>2010-07-02T10:23:08Z</time>
      </trkpt>
      <trkpt lat="42.635005" lon="0.756600">
        <ele>1818.1</ele>
        <time>2010-07-02T10:23:08Z</time>
      </trkpt>
      <trkpt lat="42.635034" lon="0.756660">
        <ele>1820.4</ele>
        <time>2010-07-02T10:23:08Z</time>
      </trkpt>
      <trkpt lat="42.635093" lon="0.756621">
        <ele>1823.4</ele>
        <time>2010-07-02T10:23:08Z</time>
      </trkpt>
      <trkpt lat="42.635129" lon="0.756535">
        <ele>1824.3</ele>
        <time>2010-07-02T10:23:08Z</time>
      </trkpt>
      <trkpt lat="42.635159" lon="0.756434">
        <ele>1824.7</ele>
        <time>2010-07-02T10:23:08Z</time>
      </trkpt>
      <trkpt lat="42.635256" lon="0.756385">
        <ele>1829.4</ele>
        <time>2010-07-02T10:23:08Z</time>
      </trkpt>
      <trkpt lat="42.635289" lon="0.756279">
        <ele>1829.7</ele>
        <time>2010-07-02T10:23:08Z</time>
      </trkpt>
      <trkpt lat="42.635412" lon="0.756256">
        <ele>1835.9</ele>
        <time>2010-07-02T10:23:08Z</time>
      </trkpt>
      <trkpt lat="42.635516" lon="0.756127">
        <ele>1839.2</ele>
        <time>2010-07-02T10:23:08Z</time>
      </trkpt>
      <trkpt lat="42.635591" lon="0.756125">
        <ele>1842.6</ele>
        <time>2010-07-02T10:23:08Z</time>
      </trkpt>
      <trkpt lat="42.635674" lon="0.756080">
        <ele>1845.8</ele>
        <time>2010-07-02T10:23:08Z</time>
      </trkpt>
      <trkpt lat="42.635730" lon="0.755992">
        <ele>1847.4</ele>
        <time>2010-07-02T10:23:08Z</time>
      </trkpt>
      <trkpt lat="42.635796" lon="0.755925">
        <ele>1849.6</ele>
        <time>2010-07-02T10:23:08Z</time>
      </trkpt>
      <trkpt lat="42.635901" lon="0.755937">
        <ele>1854.5</ele>
        <time>2010-07-02T10:23:08Z</time>
      </trkpt>
      <trkpt lat="42.635986" lon="0.755972">
        <ele>1858.8</ele>
        <time>2010-07-02T10:23:08Z</time>
      </trkpt>
      <trkpt lat="42.636014" lon="0.755892">
        <ele>1859.1</ele>
        <time>2010-07-02T10:23:08Z</time>
      </trkpt>
      <trkpt lat="42.636103" lon="0.755747">
        <ele>1861.4</ele>
        <time>2010-07-02T10:23:08Z</time>
      </trkpt>
      <trkpt lat="42.636112" lon="0.755593">
        <ele>1859.9</ele>
        <time>2010-07-02T10:23:08Z</time>
      </trkpt>
      <trkpt lat="42.636215" lon="0.755446">
        <ele>1862.8</ele>
        <time>2010-07-02T10:23:08Z</time>
      </trkpt>
      <trkpt lat="42.636321" lon="0.755197">
        <ele>1863.3</ele>
        <time>2010-07-02T10:23:08Z</time>
      </trkpt>
      <trkpt lat="42.636433" lon="0.755150">
        <ele>1866.5</ele>
        <time>2010-07-02T10:23:08Z</time>
      </trkpt>
      <trkpt lat="42.636552" lon="0.755090">
        <ele>1869.6</ele>
        <time>2010-07-02T10:23:08Z</time>
      </trkpt>
      <trkpt lat="42.636676" lon="0.755060">
        <ele>1873.3</ele>
        <time>2010-07-02T10:23:08Z</time>
      </trkpt>
      <trkpt lat="42.636823" lon="0.755110">
        <ele>1879.2</ele>
        <time>2010-07-02T10:23:08Z</time>
      </trkpt>
      <trkpt lat="42.636915" lon="0.755096">
        <ele>1882.1</ele>
        <time>2010-07-02T10:23:08Z</time>
      </trkpt>
      <trkpt lat="42.637019" lon="0.755137">
        <ele>1886.4</ele>
        <time>2010-07-02T10:23:08Z</time>
      </trkpt>
      <trkpt lat="42.637107" lon="0.755169">
        <ele>1889.6</ele>
        <time>2010-07-02T10:23:08Z</time>
      </trkpt>
      <trkpt lat="42.637250" lon="0.755139">
        <ele>1891.1</ele>
        <time>2010-07-02T10:23:08Z</time>
      </trkpt>
      <trkpt lat="42.637286" lon="0.755041">
        <ele>1889.7</ele>
        <time>2010-07-02T10:23:08Z</time>
      </trkpt>
      <trkpt lat="42.637384" lon="0.754960">
        <ele>1889.3</ele>
        <time>2010-07-02T10:23:08Z</time>
      </trkpt>
      <trkpt lat="42.637445" lon="0.754982">
        <ele>1890.6</ele>
        <time>2010-07-02T10:23:08Z</time>
      </trkpt>
      <trkpt lat="42.637547" lon="0.755061">
        <ele>1893.8</ele>
        <time>2010-07-02T10:23:08Z</time>
      </trkpt>
      <trkpt lat="42.637525" lon="0.754985">
        <ele>1891.8</ele>
        <time>2010-07-02T10:23:08Z</time>
      </trkpt>
      <trkpt lat="42.637574" lon="0.754995">
        <ele>1892.7</ele>
        <time>2010-07-02T10:23:08Z</time>
      </trkpt>
      <trkpt lat="42.637663" lon="0.754928">
        <ele>1892.3</ele>
        <time>2010-07-02T10:23:08Z</time>
      </trkpt>
      <trkpt lat="42.637698" lon="0.755003">
        <ele>1894.6</ele>
        <time>2010-07-02T10:23:08Z</time>
      </trkpt>
      <trkpt lat="42.637776" lon="0.754921">
        <ele>1893.7</ele>
        <time>2010-07-02T10:23:08Z</time>
      </trkpt>
      <trkpt lat="42.637808" lon="0.754972">
        <ele>1895.3</ele>
        <time>2010-07-02T10:23:08Z</time>
      </trkpt>
      <trkpt lat="42.637849" lon="0.754980">
        <ele>1896.1</ele>
        <time>2010-07-02T10:23:08Z</time>
      </trkpt>
      <trkpt lat="42.637856" lon="0.755043">
        <ele>1897.7</ele>
        <time>2010-07-02T10:23:08Z</time>
      </trkpt>
      <trkpt lat="42.637858" lon="0.755119">
        <ele>1899.6</ele>
        <time>2010-07-02T10:23:08Z</time>
      </trkpt>
      <trkpt lat="42.637839" lon="0.755243">
        <ele>1902.4</ele>
        <time>2010-07-02T10:23:08Z</time>
      </trkpt>
      <trkpt lat="42.637857" lon="0.755299">
        <ele>1904.1</ele>
        <time>2010-07-02T10:23:08Z</time>
      </trkpt>
      <trkpt lat="42.637908" lon="0.755346">
        <ele>1906.1</ele>
        <time>2010-07-02T10:23:08Z</time>
      </trkpt>
      <trkpt lat="42.637907" lon="0.755294">
        <ele>1904.8</ele>
        <time>2010-07-02T10:23:08Z</time>
      </trkpt>
      <trkpt lat="42.637945" lon="0.755276">
        <ele>1905.3</ele>
        <time>2010-07-02T10:23:08Z</time>
      </trkpt>
      <trkpt lat="42.638027" lon="0.755206">
        <ele>1906.0</ele>
        <time>2010-07-02T10:23:08Z</time>
      </trkpt>
      <trkpt lat="42.638078" lon="0.755169">
        <ele>1906.6</ele>
        <time>2010-07-02T10:23:08Z</time>
      </trkpt>
      <trkpt lat="42.638174" lon="0.755157">
        <ele>1909.2</ele>
        <time>2010-07-02T10:23:08Z</time>
      </trkpt>
      <trkpt lat="42.638241" lon="0.755134">
        <ele>1910.7</ele>
        <time>2010-07-02T10:23:08Z</time>
      </trkpt>
      <trkpt lat="42.638414" lon="0.755006">
        <ele>1913.4</ele>
        <time>2010-07-02T10:23:08Z</time>
      </trkpt>
      <trkpt lat="42.638535" lon="0.754935">
        <ele>1915.9</ele>
        <time>2010-07-02T10:23:08Z</time>
      </trkpt>
      <trkpt lat="42.638579" lon="0.754875">
        <ele>1916.3</ele>
        <time>2010-07-02T10:23:08Z</time>
      </trkpt>
      <trkpt lat="42.638632" lon="0.754850">
        <ele>1917.6</ele>
        <time>2010-07-02T10:23:08Z</time>
      </trkpt>
      <trkpt lat="42.638690" lon="0.754833">
        <ele>1919.2</ele>
        <time>2010-07-02T10:23:08Z</time>
      </trkpt>
      <trkpt lat="42.638756" lon="0.754808">
        <ele>1921.1</ele>
        <time>2010-07-02T10:23:08Z</time>
      </trkpt>
      <trkpt lat="42.638790" lon="0.754818">
        <ele>1923.1</ele>
        <time>2010-07-02T10:23:08Z</time>
      </trkpt>
      <trkpt lat="42.638794" lon="0.754879">
        <ele>1924.3</ele>
        <time>2010-07-02T10:23:08Z</time>
      </trkpt>
      <trkpt lat="42.638787" lon="0.754961">
        <ele>1925.2</ele>
        <time>2010-07-02T10:23:08Z</time>
      </trkpt>
      <trkpt lat="42.638741" lon="0.755048">
        <ele>1924.5</ele>
        <time>2010-07-02T10:23:08Z</time>
      </trkpt>
      <trkpt lat="42.638739" lon="0.755159">
        <ele>1926.4</ele>
        <time>2010-07-02T10:23:08Z</time>
      </trkpt>
      <trkpt lat="42.638817" lon="0.755093">
        <ele>1928.7</ele>
        <time>2010-07-02T10:23:08Z</time>
      </trkpt>
      <trkpt lat="42.638854" lon="0.755080">
        <ele>1930.3</ele>
        <time>2010-07-02T10:23:08Z</time>
      </trkpt>
      <trkpt lat="42.638928" lon="0.755034">
        <ele>1933.2</ele>
        <time>2010-07-02T10:23:08Z</time>
      </trkpt>
      <trkpt lat="42.638929" lon="0.755075">
        <ele>1933.7</ele>
        <time>2010-07-02T10:23:08Z</time>
      </trkpt>
      <trkpt lat="42.638919" lon="0.755133">
        <ele>1934.0</ele>
        <time>2010-07-02T10:23:08Z</time>
      </trkpt>
      <trkpt lat="42.638876" lon="0.755228">
        <ele>1933.4</ele>
        <time>2010-07-02T10:23:08Z</time>
      </trkpt>
      <trkpt lat="42.638856" lon="0.755312">
        <ele>1933.7</ele>
        <time>2010-07-02T10:23:08Z</time>
      </trkpt>
      <trkpt lat="42.638899" lon="0.755326">
        <ele>1935.7</ele>
        <time>2010-07-02T10:23:08Z</time>
      </trkpt>
      <trkpt lat="42.638951" lon="0.755257">
        <ele>1937.0</ele>
        <time>2010-07-02T10:23:08Z</time>
      </trkpt>
      <trkpt lat="42.639037" lon="0.755228">
        <ele>1940.4</ele>
        <time>2010-07-02T10:23:08Z</time>
      </trkpt>
      <trkpt lat="42.639175" lon="0.755153">
        <ele>1946.0</ele>
        <time>2010-07-02T10:23:08Z</time>
      </trkpt>
      <trkpt lat="42.639254" lon="0.755138">
        <ele>1949.5</ele>
        <time>2010-07-02T10:23:08Z</time>
      </trkpt>
      <trkpt lat="42.639353" lon="0.755126">
        <ele>1954.0</ele>
        <time>2010-07-02T10:23:08Z</time>
      </trkpt>
      <trkpt lat="42.639449" lon="0.755126">
        <ele>1958.5</ele>
        <time>2010-07-02T10:23:08Z</time>
      </trkpt>
      <trkpt lat="42.639528" lon="0.755117">
        <ele>1962.2</ele>
        <time>2010-07-02T10:23:08Z</time>
      </trkpt>
      <trkpt lat="42.639577" lon="0.755063">
        <ele>1964.5</ele>
        <time>2010-07-02T10:23:08Z</time>
      </trkpt>
      <trkpt lat="42.639596" lon="0.754963">
        <ele>1966.0</ele>
        <time>2010-07-02T10:23:08Z</time>
      </trkpt>
      <trkpt lat="42.639539" lon="0.754791">
        <ele>1963.1</ele>
        <time>2010-07-02T10:23:08Z</time>
      </trkpt>
      <trkpt lat="42.639587" lon="0.754622">
        <ele>1966.2</ele>
        <time>2010-07-02T10:23:08Z</time>
      </trkpt>
      <trkpt lat="42.639579" lon="0.754440">
        <ele>1968.5</ele>
        <time>2010-07-02T10:23:08Z</time>
      </trkpt>
      <trkpt lat="42.639623" lon="0.754384">
        <ele>1973.1</ele>
        <time>2010-07-02T10:23:08Z</time>
      </trkpt>
      <trkpt lat="42.639680" lon="0.754413">
        <ele>1977.1</ele>
        <time>2010-07-02T10:23:08Z</time>
      </trkpt>
      <trkpt lat="42.639706" lon="0.754523">
        <ele>1977.2</ele>
        <time>2010-07-02T10:23:08Z</time>
      </trkpt>
      <trkpt lat="42.639724" lon="0.754581">
        <ele>1977.6</ele>
        <time>2010-07-02T10:23:08Z</time>
      </trkpt>
      <trkpt lat="42.639751" lon="0.754661">
        <ele>1979.1</ele>
        <time>2010-07-02T10:23:08Z</time>
      </trkpt>
      <trkpt lat="42.639773" lon="0.754771">
        <ele>1979.9</ele>
        <time>2010-07-02T10:23:08Z</time>
      </trkpt>
      <trkpt lat="42.639773" lon="0.754888">
        <ele>1978.9</ele>
        <time>2010-07-02T10:23:08Z</time>
      </trkpt>
      <trkpt lat="42.639805" lon="0.754935">
        <ele>1980.8</ele>
        <time>2010-07-02T10:23:08Z</time>
      </trkpt>
      <trkpt lat="42.639843" lon="0.754867">
        <ele>1984.2</ele>
        <time>2010-07-02T10:23:08Z</time>
      </trkpt>
      <trkpt lat="42.639884" lon="0.754785">
        <ele>1988.2</ele>
        <time>2010-07-02T10:23:08Z</time>
      </trkpt>
      <trkpt lat="42.639916" lon="0.754812">
        <ele>1990.2</ele>
        <time>2010-07-02T10:23:08Z</time>
      </trkpt>
      <trkpt lat="42.639933" lon="0.754955">
        <ele>1989.5</ele>
        <time>2010-07-02T10:23:08Z</time>
      </trkpt>
      <trkpt lat="42.639991" lon="0.755008">
        <ele>1992.7</ele>
        <time>2010-07-02T10:23:08Z</time>
      </trkpt>
      <trkpt lat="42.640030" lon="0.754831">
        <ele>1998.3</ele>
        <time>2010-07-02T10:23:08Z</time>
      </trkpt>
      <trkpt lat="42.640069" lon="0.754788">
        <ele>2002.0</ele>
        <time>2010-07-02T10:23:08Z</time>
      </trkpt>
      <trkpt lat="42.640073" lon="0.754892">
        <ele>2000.5</ele>
        <time>2010-07-02T10:23:08Z</time>
      </trkpt>
      <trkpt lat="42.640113" lon="0.754905">
        <ele>2003.1</ele>
        <time>2010-07-02T10:23:08Z</time>
      </trkpt>
      <trkpt lat="42.640134" lon="0.754974">
        <ele>2003.2</ele>
        <time>2010-07-02T10:23:08Z</time>
      </trkpt>
      <trkpt lat="42.640151" lon="0.754906">
        <ele>2005.8</ele>
        <time>2010-07-02T10:23:08Z</time>
      </trkpt>
      <trkpt lat="42.640193" lon="0.754847">
        <ele>2010.0</ele>
        <time>2010-07-02T10:23:08Z</time>
      </trkpt>
      <trkpt lat="42.640186" lon="0.754910">
        <ele>2008.2</ele>
        <time>2010-07-02T10:23:08Z</time>
      </trkpt>
      <trkpt lat="42.640220" lon="0.754909">
        <ele>2010.6</ele>
        <time>2010-07-02T10:23:08Z</time>
      </trkpt>
      <trkpt lat="42.640251" lon="0.754937">
        <ele>2012.1</ele>
        <time>2010-07-02T10:23:08Z</time>
      </trkpt>
      <trkpt lat="42.640281" lon="0.754933">
        <ele>2014.3</ele>
        <time>2010-07-02T10:23:08Z</time>
      </trkpt>
      <trkpt lat="42.640304" lon="0.754909">
        <ele>2016.6</ele>
        <time>2010-07-02T10:23:08Z</time>
      </trkpt>
      <trkpt lat="42.640299" lon="0.754834">
        <ele>2018.2</ele>
        <time>2010-07-02T10:23:08Z</time>
      </trkpt>
      <trkpt lat="42.640344" lon="0.754823">
        <ele>2021.8</ele>
        <time>2010-07-02T10:23:08Z</time>
      </trkpt>
      <trkpt lat="42.640377" lon="0.754903">
        <ele>2021.9</ele>
        <time>2010-07-02T10:23:08Z</time>
      </trkpt>
      <trkpt lat="42.640456" lon="0.754903">
        <ele>2027.1</ele>
        <time>2010-07-02T10:23:08Z</time>
      </trkpt>
      <trkpt lat="42.640527" lon="0.754892">
        <ele>2031.5</ele>
        <time>2010-07-02T10:23:08Z</time>
      </trkpt>
      <trkpt lat="42.640584" lon="0.754861">
        <ele>2035.7</ele>
        <time>2010-07-02T10:23:08Z</time>
      </trkpt>
      <trkpt lat="42.640519" lon="0.754816">
        <ele>2033.2</ele>
        <time>2010-07-02T10:23:08Z</time>
      </trkpt>
      <trkpt lat="42.640537" lon="0.754772">
        <ele>2035.5</ele>
        <time>2010-07-02T10:23:08Z</time>
      </trkpt>
      <trkpt lat="42.640598" lon="0.754808">
        <ele>2038.0</ele>
        <time>2010-07-02T10:23:08Z</time>
      </trkpt>
      <trkpt lat="42.640643" lon="0.754818">
        <ele>2040.3</ele>
        <time>2010-07-02T10:23:08Z</time>
      </trkpt>
      <trkpt lat="42.640684" lon="0.754868">
        <ele>2041.3</ele>
        <time>2010-07-02T10:23:08Z</time>
      </trkpt>
      <trkpt lat="42.640715" lon="0.754850">
        <ele>2043.6</ele>
        <time>2010-07-02T10:23:08Z</time>
      </trkpt>
      <trkpt lat="42.640747" lon="0.754841">
        <ele>2045.7</ele>
        <time>2010-07-02T10:23:08Z</time>
      </trkpt>
      <trkpt lat="42.640752" lon="0.754734">
        <ele>2048.9</ele>
        <time>2010-07-02T10:23:08Z</time>
      </trkpt>
      <trkpt lat="42.640787" lon="0.754790">
        <ele>2049.4</ele>
        <time>2010-07-02T10:23:08Z</time>
      </trkpt>
      <trkpt lat="42.640809" lon="0.754806">
        <ele>2050.2</ele>
        <time>2010-07-02T10:23:08Z</time>
      </trkpt>
      <trkpt lat="42.640841" lon="0.754805">
        <ele>2052.1</ele>
        <time>2010-07-02T10:23:08Z</time>
      </trkpt>
      <trkpt lat="42.640849" lon="0.754790">
        <ele>2053.0</ele>
        <time>2010-07-02T10:23:08Z</time>
      </trkpt>
      <trkpt lat="42.640867" lon="0.754705">
        <ele>2056.2</ele>
        <time>2010-07-02T10:23:08Z</time>
      </trkpt>
      <trkpt lat="42.640900" lon="0.754768">
        <ele>2056.5</ele>
        <time>2010-07-02T10:23:08Z</time>
      </trkpt>
      <trkpt lat="42.640954" lon="0.754792">
        <ele>2059.0</ele>
        <time>2010-07-02T10:23:08Z</time>
      </trkpt>
      <trkpt lat="42.640974" lon="0.754789">
        <ele>2060.2</ele>
        <time>2010-07-02T10:23:08Z</time>
      </trkpt>
      <trkpt lat="42.641004" lon="0.754796">
        <ele>2061.7</ele>
        <time>2010-07-02T10:23:08Z</time>
      </trkpt>
      <trkpt lat="42.641022" lon="0.754848">
        <ele>2061.4</ele>
        <time>2010-07-02T10:23:08Z</time>
      </trkpt>
      <trkpt lat="42.641070" lon="0.754875">
        <ele>2063.5</ele>
        <time>2010-07-02T10:23:08Z</time>
      </trkpt>
      <trkpt lat="42.641104" lon="0.754969">
        <ele>2063.2</ele>
        <time>2010-07-02T10:23:08Z</time>
      </trkpt>
      <trkpt lat="42.641117" lon="0.754879">
        <ele>2066.2</ele>
        <time>2010-07-02T10:23:08Z</time>
      </trkpt>
      <trkpt lat="42.641112" lon="0.754822">
        <ele>2067.3</ele>
        <time>2010-07-02T10:23:08Z</time>
      </trkpt>
      <trkpt lat="42.641124" lon="0.754780">
        <ele>2069.0</ele>
        <time>2010-07-02T10:23:08Z</time>
      </trkpt>
      <trkpt lat="42.641167" lon="0.754799">
        <ele>2071.1</ele>
        <time>2010-07-02T10:23:08Z</time>
      </trkpt>
      <trkpt lat="42.641221" lon="0.754823">
        <ele>2073.6</ele>
        <time>2010-07-02T10:23:08Z</time>
      </trkpt>
      <trkpt lat="42.641400" lon="0.754954">
        <ele>2079.4</ele>
        <time>2010-07-02T10:23:08Z</time>
      </trkpt>
      <trkpt lat="42.641434" lon="0.754964">
        <ele>2080.9</ele>
        <time>2010-07-02T10:23:08Z</time>
      </trkpt>
      <trkpt lat="42.641486" lon="0.754959">
        <ele>2083.5</ele>
        <time>2010-07-02T10:23:08Z</time>
      </trkpt>
      <trkpt lat="42.641541" lon="0.754934">
        <ele>2086.9</ele>
        <time>2010-07-02T10:23:08Z</time>
      </trkpt>
      <trkpt lat="42.641610" lon="0.754943">
        <ele>2090.0</ele>
        <time>2010-07-02T10:23:08Z</time>
      </trkpt>
      <trkpt lat="42.641633" lon="0.755027">
        <ele>2088.9</ele>
        <time>2010-07-02T10:23:08Z</time>
      </trkpt>
      <trkpt lat="42.641676" lon="0.755022">
        <ele>2091.1</ele>
        <time>2010-07-02T10:23:08Z</time>
      </trkpt>
      <trkpt lat="42.641717" lon="0.754963">
        <ele>2094.7</ele>
        <time>2010-07-02T10:23:08Z</time>
      </trkpt>
      <trkpt lat="42.641690" lon="0.754958">
        <ele>2093.5</ele>
        <time>2010-07-02T10:23:08Z</time>
      </trkpt>
      <trkpt lat="42.641674" lon="0.754894">
        <ele>2094.4</ele>
        <time>2010-07-02T10:23:08Z</time>
      </trkpt>
      <trkpt lat="42.641625" lon="0.754844">
        <ele>2093.4</ele>
        <time>2010-07-02T10:23:08Z</time>
      </trkpt>
      <trkpt lat="42.641683" lon="0.754830">
        <ele>2096.7</ele>
        <time>2010-07-02T10:23:08Z</time>
      </trkpt>
      <trkpt lat="42.641724" lon="0.754861">
        <ele>2097.9</ele>
        <time>2010-07-02T10:23:08Z</time>
      </trkpt>
      <trkpt lat="42.641779" lon="0.754911">
        <ele>2099.2</ele>
        <time>2010-07-02T10:23:08Z</time>
      </trkpt>
      <trkpt lat="42.641820" lon="0.754924">
        <ele>2100.8</ele>
        <time>2010-07-02T10:23:08Z</time>
      </trkpt>
      <trkpt lat="42.641842" lon="0.754920">
        <ele>2102.0</ele>
        <time>2010-07-02T10:23:08Z</time>
      </trkpt>
      <trkpt lat="42.641830" lon="0.754868">
        <ele>2102.9</ele>
        <time>2010-07-02T10:23:08Z</time>
      </trkpt>
      <trkpt lat="42.641761" lon="0.754762">
        <ele>2102.4</ele>
        <time>2010-07-02T10:23:08Z</time>
      </trkpt>
      <trkpt lat="42.641894" lon="0.754767">
        <ele>2109.0</ele>
        <time>2010-07-02T10:23:08Z</time>
      </trkpt>
      <trkpt lat="42.641913" lon="0.754749">
        <ele>2110.5</ele>
        <time>2010-07-02T10:23:08Z</time>
      </trkpt>
      <trkpt lat="42.641915" lon="0.754729">
        <ele>2111.1</ele>
        <time>2010-07-02T10:23:08Z</time>
      </trkpt>
      <trkpt lat="42.641910" lon="0.754676">
        <ele>2112.4</ele>
        <time>2010-07-02T10:23:08Z</time>
      </trkpt>
      <trkpt lat="42.641864" lon="0.754621">
        <ele>2111.6</ele>
        <time>2010-07-02T10:23:08Z</time>
      </trkpt>
      <trkpt lat="42.641981" lon="0.754546">
        <ele>2119.9</ele>
        <time>2010-07-02T10:23:08Z</time>
      </trkpt>
      <trkpt lat="42.641951" lon="0.754483">
        <ele>2120.4</ele>
        <time>2010-07-02T10:23:08Z</time>
      </trkpt>
      <trkpt lat="42.641877" lon="0.754428">
        <ele>2118.4</ele>
        <time>2010-07-02T10:23:08Z</time>
      </trkpt>
      <trkpt lat="42.642081" lon="0.754334">
        <ele>2132.0</ele>
        <time>2010-07-02T10:23:08Z</time>
      </trkpt>
      <trkpt lat="42.642044" lon="0.754182">
        <ele>2134.9</ele>
        <time>2010-07-02T10:23:08Z</time>
      </trkpt>
      <trkpt lat="42.642131" lon="0.754105">
        <ele>2139.7</ele>
        <time>2010-07-02T10:23:08Z</time>
      </trkpt>
      <trkpt lat="42.642208" lon="0.754122">
        <ele>2139.5</ele>
        <time>2010-07-02T10:23:08Z</time>
      </trkpt>
      <trkpt lat="42.642264" lon="0.754038">
        <ele>2142.3</ele>
        <time>2010-07-02T10:23:08Z</time>
      </trkpt>
      <trkpt lat="42.642305" lon="0.754022">
        <ele>2142.9</ele>
        <time>2010-07-02T10:23:08Z</time>
      </trkpt>
      <trkpt lat="42.642385" lon="0.754028">
        <ele>2142.9</ele>
        <time>2010-07-02T10:23:08Z</time>
      </trkpt>
      <trkpt lat="42.642408" lon="0.753957">
        <ele>2145.0</ele>
        <time>2010-07-02T10:23:08Z</time>
      </trkpt>
      <trkpt lat="42.642353" lon="0.753868">
        <ele>2147.4</ele>
        <time>2010-07-02T10:23:08Z</time>
      </trkpt>
      <trkpt lat="42.642404" lon="0.753681">
        <ele>2151.6</ele>
        <time>2010-07-02T10:23:08Z</time>
      </trkpt>
      <trkpt lat="42.642524" lon="0.753607">
        <ele>2152.7</ele>
        <time>2010-07-02T10:23:08Z</time>
      </trkpt>
      <trkpt lat="42.642562" lon="0.753574">
        <ele>2153.3</ele>
        <time>2010-07-02T10:23:08Z</time>
      </trkpt>
      <trkpt lat="42.642555" lon="0.753504">
        <ele>2154.5</ele>
        <time>2010-07-02T10:23:08Z</time>
      </trkpt>
      <trkpt lat="42.642538" lon="0.753450">
        <ele>2155.3</ele>
        <time>2010-07-02T10:23:08Z</time>
      </trkpt>
      <trkpt lat="42.642498" lon="0.753358">
        <ele>2156.6</ele>
        <time>2010-07-02T10:23:08Z</time>
      </trkpt>
      <trkpt lat="42.642480" lon="0.753330">
        <ele>2157.0</ele>
        <time>2010-07-02T10:23:08Z</time>
      </trkpt>
      <trkpt lat="42.642444" lon="0.753317">
        <ele>2157.0</ele>
        <time>2010-07-02T10:23:08Z</time>
      </trkpt>
      <trkpt lat="42.642370" lon="0.753378">
        <ele>2155.8</ele>
        <time>2010-07-02T10:23:08Z</time>
      </trkpt>
      <trkpt lat="42.642331" lon="0.753293">
        <ele>2156.7</ele>
        <time>2010-07-02T10:23:08Z</time>
      </trkpt>
      <trkpt lat="42.642413" lon="0.753162">
        <ele>2159.0</ele>
        <time>2010-07-02T10:23:08Z</time>
      </trkpt>
      <trkpt lat="42.642660" lon="0.753033">
        <ele>2163.2</ele>
        <time>2010-07-02T10:23:08Z</time>
      </trkpt>
      <trkpt lat="42.643010" lon="0.753034">
        <ele>2166.4</ele>
        <time>2010-07-02T10:23:08Z</time>
      </trkpt>
      <trkpt lat="42.643236" lon="0.753059">
        <ele>2168.1</ele>
        <time>2010-07-02T10:23:08Z</time>
      </trkpt>
      <trkpt lat="42.643514" lon="0.752954">
        <ele>2171.9</ele>
        <time>2010-07-02T10:23:08Z</time>
      </trkpt>
      <trkpt lat="42.643364" lon="0.752418">
        <ele>2178.8</ele>
        <time>2010-07-02T10:23:08Z</time>
      </trkpt>
      <trkpt lat="42.643278" lon="0.752116">
        <ele>2183.6</ele>
        <time>2010-07-02T10:23:08Z</time>
      </trkpt>
      <trkpt lat="42.643239" lon="0.751797">
        <ele>2189.0</ele>
        <time>2010-07-02T10:23:08Z</time>
      </trkpt>
      <trkpt lat="42.643337" lon="0.751789">
        <ele>2188.7</ele>
        <time>2010-07-02T10:23:08Z</time>
      </trkpt>
      <trkpt lat="42.643427" lon="0.751766">
        <ele>2188.8</ele>
        <time>2010-07-02T10:23:08Z</time>
      </trkpt>
      <trkpt lat="42.643477" lon="0.751720">
        <ele>2189.3</ele>
        <time>2010-07-02T10:23:08Z</time>
      </trkpt>
      <trkpt lat="42.643504" lon="0.751647">
        <ele>2190.3</ele>
        <time>2010-07-02T10:23:08Z</time>
      </trkpt>
      <trkpt lat="42.643497" lon="0.751522">
        <ele>2192.3</ele>
        <time>2010-07-02T10:23:08Z</time>
      </trkpt>
      <trkpt lat="42.643559" lon="0.751421">
        <ele>2193.5</ele>
        <time>2010-07-02T10:23:08Z</time>
      </trkpt>
      <trkpt lat="42.643660" lon="0.751312">
        <ele>2194.6</ele>
        <time>2010-07-02T10:23:08Z</time>
      </trkpt>
      <trkpt lat="42.643735" lon="0.751177">
        <ele>2196.6</ele>
        <time>2010-07-02T10:23:08Z</time>
      </trkpt>
      <trkpt lat="42.643829" lon="0.751056">
        <ele>2199.6</ele>
        <time>2010-07-02T10:23:08Z</time>
      </trkpt>
      <trkpt lat="42.643880" lon="0.750910">
        <ele>2203.0</ele>
        <time>2010-07-02T10:23:08Z</time>
      </trkpt>
      <trkpt lat="42.643974" lon="0.750894">
        <ele>2204.1</ele>
        <time>2010-07-02T10:23:08Z</time>
      </trkpt>
      <trkpt lat="42.644001" lon="0.750835">
        <ele>2205.4</ele>
        <time>2010-07-02T10:23:08Z</time>
      </trkpt>
      <trkpt lat="42.643965" lon="0.750708">
        <ele>2207.6</ele>
        <time>2010-07-02T10:23:08Z</time>
      </trkpt>
      <trkpt lat="42.643973" lon="0.750604">
        <ele>2209.7</ele>
        <time>2010-07-02T10:23:08Z</time>
      </trkpt>
      <trkpt lat="42.644053" lon="0.750545">
        <ele>2211.4</ele>
        <time>2010-07-02T10:23:08Z</time>
      </trkpt>
      <trkpt lat="42.644140" lon="0.750565">
        <ele>2211.6</ele>
        <time>2010-07-02T10:23:08Z</time>
      </trkpt>
      <trkpt lat="42.644204" lon="0.750509">
        <ele>2213.0</ele>
        <time>2010-07-02T10:23:08Z</time>
      </trkpt>
      <trkpt lat="42.644207" lon="0.750411">
        <ele>2214.8</ele>
        <time>2010-07-02T10:23:08Z</time>
      </trkpt>
      <trkpt lat="42.644198" lon="0.750391">
        <ele>2215.1</ele>
        <time>2010-07-02T10:23:08Z</time>
      </trkpt>
      <trkpt lat="42.644150" lon="0.750329">
        <ele>2215.7</ele>
        <time>2010-07-02T10:23:08Z</time>
      </trkpt>
      <trkpt lat="42.644108" lon="0.750275">
        <ele>2216.3</ele>
        <time>2010-07-02T10:23:08Z</time>
      </trkpt>
      <trkpt lat="42.644030" lon="0.750241">
        <ele>2216.3</ele>
        <time>2010-07-02T10:23:08Z</time>
      </trkpt>
      <trkpt lat="42.643952" lon="0.750160">
        <ele>2217.0</ele>
        <time>2010-07-02T10:23:08Z</time>
      </trkpt>
      <trkpt lat="42.644028" lon="0.750112">
        <ele>2218.2</ele>
        <time>2010-07-02T10:23:08Z</time>
      </trkpt>
      <trkpt lat="42.644111" lon="0.750098">
        <ele>2218.9</ele>
        <time>2010-07-02T10:23:08Z</time>
      </trkpt>
      <trkpt lat="42.644164" lon="0.750052">
        <ele>2219.9</ele>
        <time>2010-07-02T10:23:08Z</time>
      </trkpt>
      <trkpt lat="42.644187" lon="0.750034">
        <ele>2220.4</ele>
        <time>2010-07-02T10:23:08Z</time>
      </trkpt>
      <trkpt lat="42.644212" lon="0.749998">
        <ele>2221.1</ele>
        <time>2010-07-02T10:23:08Z</time>
      </trkpt>
      <trkpt lat="42.644212" lon="0.749975">
        <ele>2221.4</ele>
        <time>2010-07-02T10:23:08Z</time>
      </trkpt>
      <trkpt lat="42.644194" lon="0.749949">
        <ele>2221.7</ele>
        <time>2010-07-02T10:23:08Z</time>
      </trkpt>
      <trkpt lat="42.644148" lon="0.749902">
        <ele>2222.1</ele>
        <time>2010-07-02T10:23:08Z</time>
      </trkpt>
      <trkpt lat="42.644080" lon="0.749834">
        <ele>2222.6</ele>
        <time>2010-07-02T10:23:08Z</time>
      </trkpt>
      <trkpt lat="42.643991" lon="0.749823">
        <ele>2222.2</ele>
        <time>2010-07-02T10:23:08Z</time>
      </trkpt>
      <trkpt lat="42.643944" lon="0.749762">
        <ele>2222.8</ele>
        <time>2010-07-02T10:23:08Z</time>
      </trkpt>
      <trkpt lat="42.643994" lon="0.749730">
        <ele>2223.6</ele>
        <time>2010-07-02T10:23:08Z</time>
      </trkpt>
      <trkpt lat="42.644018" lon="0.749723">
        <ele>2223.9</ele>
        <time>2010-07-02T10:23:08Z</time>
      </trkpt>
      <trkpt lat="42.644041" lon="0.749708">
        <ele>2224.3</ele>
        <time>2010-07-02T10:23:08Z</time>
      </trkpt>
      <trkpt lat="42.644058" lon="0.749698">
        <ele>2224.5</ele>
        <time>2010-07-02T10:23:08Z</time>
      </trkpt>
      <trkpt lat="42.644079" lon="0.749660">
        <ele>2225.2</ele>
        <time>2010-07-02T10:23:08Z</time>
      </trkpt>
      <trkpt lat="42.644101" lon="0.749615">
        <ele>2226.1</ele>
        <time>2010-07-02T10:23:08Z</time>
      </trkpt>
      <trkpt lat="42.644133" lon="0.749591">
        <ele>2226.6</ele>
        <time>2010-07-02T10:23:08Z</time>
      </trkpt>
      <trkpt lat="42.644137" lon="0.749573">
        <ele>2226.9</ele>
        <time>2010-07-02T10:23:08Z</time>
      </trkpt>
      <trkpt lat="42.644109" lon="0.749566">
        <ele>2226.7</ele>
        <time>2010-07-02T10:23:08Z</time>
      </trkpt>
      <trkpt lat="42.644083" lon="0.749552">
        <ele>2226.6</ele>
        <time>2010-07-02T10:23:08Z</time>
      </trkpt>
      <trkpt lat="42.644055" lon="0.749530">
        <ele>2226.5</ele>
        <time>2010-07-02T10:23:08Z</time>
      </trkpt>
      <trkpt lat="42.644019" lon="0.749548">
        <ele>2226.2</ele>
        <time>2010-07-02T10:23:08Z</time>
      </trkpt>
      <trkpt lat="42.643982" lon="0.749507">
        <ele>2226.1</ele>
        <time>2010-07-02T10:23:08Z</time>
      </trkpt>
      <trkpt lat="42.643971" lon="0.749450">
        <ele>2226.3</ele>
        <time>2010-07-02T10:23:08Z</time>
      </trkpt>
      <trkpt lat="42.644010" lon="0.749424">
        <ele>2226.8</ele>
        <time>2010-07-02T10:23:08Z</time>
      </trkpt>
      <trkpt lat="42.644039" lon="0.749373">
        <ele>2227.4</ele>
        <time>2010-07-02T10:23:08Z</time>
      </trkpt>
      <trkpt lat="42.644055" lon="0.749326">
        <ele>2227.8</ele>
        <time>2010-07-02T10:23:08Z</time>
      </trkpt>
      <trkpt lat="42.644074" lon="0.749288">
        <ele>2228.2</ele>
        <time>2010-07-02T10:23:08Z</time>
      </trkpt>
      <trkpt lat="42.644088" lon="0.749232">
        <ele>2228.7</ele>
        <time>2010-07-02T10:23:08Z</time>
      </trkpt>
      <trkpt lat="42.644087" lon="0.749185">
        <ele>2229.0</ele>
        <time>2010-07-02T10:23:08Z</time>
      </trkpt>
      <trkpt lat="42.644080" lon="0.749174">
        <ele>2229.0</ele>
        <time>2010-07-02T10:23:08Z</time>
      </trkpt>
      <trkpt lat="42.644011" lon="0.749149">
        <ele>2228.4</ele>
        <time>2010-07-02T10:23:08Z</time>
      </trkpt>
      <trkpt lat="42.644088" lon="0.749148">
        <ele>2229.3</ele>
        <time>2010-07-02T10:23:08Z</time>
      </trkpt>
      <trkpt lat="42.644159" lon="0.749148">
        <ele>2230.1</ele>
        <time>2010-07-02T10:23:08Z</time>
      </trkpt>
      <trkpt lat="42.644241" lon="0.749124">
        <ele>2231.1</ele>
        <time>2010-07-02T10:23:08Z</time>
      </trkpt>
      <trkpt lat="42.644324" lon="0.749125">
        <ele>2232.1</ele>
        <time>2010-07-02T10:23:08Z</time>
      </trkpt>
      <trkpt lat="42.644409" lon="0.749185">
        <ele>2232.4</ele>
        <time>2010-07-02T10:23:08Z</time>
      </trkpt>
      <trkpt lat="42.644443" lon="0.749202">
        <ele>2232.7</ele>
        <time>2010-07-02T10:23:08Z</time>
      </trkpt>
      <trkpt lat="42.644462" lon="0.749163">
        <ele>2233.2</ele>
        <time>2010-07-02T10:23:08Z</time>
      </trkpt>
      <trkpt lat="42.644447" lon="0.749071">
        <ele>2234.0</ele>
        <time>2010-07-02T10:23:08Z</time>
      </trkpt>
      <trkpt lat="42.644395" lon="0.748978">
        <ele>2234.2</ele>
        <time>2010-07-02T10:23:08Z</time>
      </trkpt>
      <trkpt lat="42.644378" lon="0.748895">
        <ele>2234.7</ele>
        <time>2010-07-02T10:23:08Z</time>
      </trkpt>
      <trkpt lat="42.644446" lon="0.748890">
        <ele>2235.7</ele>
        <time>2010-07-02T10:23:08Z</time>
      </trkpt>
      <trkpt lat="42.644509" lon="0.748908">
        <ele>2236.3</ele>
        <time>2010-07-02T10:23:08Z</time>
      </trkpt>
      <trkpt lat="42.644619" lon="0.748939">
        <ele>2237.7</ele>
        <time>2010-07-02T10:23:08Z</time>
      </trkpt>
      <trkpt lat="42.644695" lon="0.748971">
        <ele>2239.0</ele>
        <time>2010-07-02T10:23:08Z</time>
      </trkpt>
      <trkpt lat="42.644725" lon="0.748903">
        <ele>2240.5</ele>
        <time>2010-07-02T10:23:08Z</time>
      </trkpt>
      <trkpt lat="42.644754" lon="0.748838">
        <ele>2241.9</ele>
        <time>2010-07-02T10:23:08Z</time>
      </trkpt>
      <trkpt lat="42.644716" lon="0.748625">
        <ele>2244.1</ele>
        <time>2010-07-02T10:23:08Z</time>
      </trkpt>
      <trkpt lat="42.644635" lon="0.748421">
        <ele>2245.4</ele>
        <time>2010-07-02T10:23:08Z</time>
      </trkpt>
      <trkpt lat="42.644639" lon="0.748313">
        <ele>2247.2</ele>
        <time>2010-07-02T10:23:08Z</time>
      </trkpt>
      <trkpt lat="42.644681" lon="0.748245">
        <ele>2249.4</ele>
        <time>2010-07-02T10:23:08Z</time>
      </trkpt>
      <trkpt lat="42.644807" lon="0.748257">
        <ele>2252.4</ele>
        <time>2010-07-02T10:23:08Z</time>
      </trkpt>
      <trkpt lat="42.644909" lon="0.748318">
        <ele>2254.0</ele>
        <time>2010-07-02T10:23:08Z</time>
      </trkpt>
      <trkpt lat="42.645132" lon="0.748409">
        <ele>2257.9</ele>
        <time>2010-07-02T10:23:08Z</time>
      </trkpt>
      <trkpt lat="42.645308" lon="0.748539">
        <ele>2259.7</ele>
        <time>2010-07-02T10:23:08Z</time>
      </trkpt>
      <trkpt lat="42.645437" lon="0.748683">
        <ele>2259.9</ele>
        <time>2010-07-02T10:23:08Z</time>
      </trkpt>
      <trkpt lat="42.645507" lon="0.748950">
        <ele>2257.3</ele>
        <time>2010-07-02T10:23:08Z</time>
      </trkpt>
      <trkpt lat="42.645651" lon="0.749161">
        <ele>2258.3</ele>
        <time>2010-07-02T10:23:08Z</time>
      </trkpt>
      <trkpt lat="42.645715" lon="0.749395">
        <ele>2257.3</ele>
        <time>2010-07-02T10:23:08Z</time>
      </trkpt>
      <trkpt lat="42.645901" lon="0.749641">
        <ele>2261.1</ele>
        <time>2010-07-02T10:23:08Z</time>
      </trkpt>
      <trkpt lat="42.646011" lon="0.749792">
        <ele>2264.7</ele>
        <time>2010-07-02T10:23:08Z</time>
      </trkpt>
      <trkpt lat="42.645986" lon="0.749917">
        <ele>2263.4</ele>
        <time>2010-07-02T10:23:08Z</time>
      </trkpt>
      <trkpt lat="42.646058" lon="0.749969">
        <ele>2266.5</ele>
        <time>2010-07-02T10:23:08Z</time>
      </trkpt>
      <trkpt lat="42.646031" lon="0.750019">
        <ele>2265.2</ele>
        <time>2010-07-02T10:23:08Z</time>
      </trkpt>
      <trkpt lat="42.646098" lon="0.750006">
        <ele>2268.2</ele>
        <time>2010-07-02T10:23:08Z</time>
      </trkpt>
      <trkpt lat="42.646101" lon="0.750049">
        <ele>2268.4</ele>
        <time>2010-07-02T10:23:08Z</time>
      </trkpt>
      <trkpt lat="42.646057" lon="0.750118">
        <ele>2266.4</ele>
        <time>2010-07-02T10:23:08Z</time>
      </trkpt>
      <trkpt lat="42.646031" lon="0.750215">
        <ele>2265.1</ele>
        <time>2010-07-02T10:23:08Z</time>
      </trkpt>
      <trkpt lat="42.646066" lon="0.750288">
        <ele>2266.9</ele>
        <time>2010-07-02T10:23:08Z</time>
      </trkpt>
      <trkpt lat="42.646139" lon="0.750252">
        <ele>2270.6</ele>
        <time>2010-07-02T10:23:08Z</time>
      </trkpt>
      <trkpt lat="42.646236" lon="0.750146">
        <ele>2275.0</ele>
        <time>2010-07-02T10:23:08Z</time>
      </trkpt>
      <trkpt lat="42.646280" lon="0.750118">
        <ele>2276.4</ele>
        <time>2010-07-02T10:23:08Z</time>
      </trkpt>
      <trkpt lat="42.646287" lon="0.750136">
        <ele>2276.7</ele>
        <time>2010-07-02T10:23:08Z</time>
      </trkpt>
      <trkpt lat="42.646195" lon="0.750296">
        <ele>2273.6</ele>
        <time>2010-07-02T10:23:08Z</time>
      </trkpt>
      <trkpt lat="42.646179" lon="0.750384">
        <ele>2273.0</ele>
        <time>2010-07-02T10:23:08Z</time>
      </trkpt>
      <trkpt lat="42.646241" lon="0.750338">
        <ele>2276.2</ele>
        <time>2010-07-02T10:23:08Z</time>
      </trkpt>
      <trkpt lat="42.646306" lon="0.750327">
        <ele>2278.2</ele>
        <time>2010-07-02T10:23:08Z</time>
      </trkpt>
      <trkpt lat="42.646357" lon="0.750299">
        <ele>2279.5</ele>
        <time>2010-07-02T10:23:08Z</time>
      </trkpt>
      <trkpt lat="42.646348" lon="0.750423">
        <ele>2280.1</ele>
        <time>2010-07-02T10:23:08Z</time>
      </trkpt>
      <trkpt lat="42.646173" lon="0.750663">
        <ele>2277.7</ele>
        <time>2010-07-02T10:23:08Z</time>
      </trkpt>
      <trkpt lat="42.646069" lon="0.750827">
        <ele>2274.3</ele>
        <time>2010-07-02T10:23:08Z</time>
      </trkpt>
      <trkpt lat="42.645999" lon="0.750905">
        <ele>2271.0</ele>
        <time>2010-07-02T10:23:08Z</time>
      </trkpt>
      <trkpt lat="42.645997" lon="0.750992">
        <ele>2272.4</ele>
        <time>2010-07-02T10:23:08Z</time>
      </trkpt>
      <trkpt lat="42.646005" lon="0.751079">
        <ele>2274.3</ele>
        <time>2010-07-02T10:23:08Z</time>
      </trkpt>
      <trkpt lat="42.646041" lon="0.751037">
        <ele>2276.1</ele>
        <time>2010-07-02T10:23:08Z</time>
      </trkpt>
      <trkpt lat="42.646052" lon="0.751094">
        <ele>2277.8</ele>
        <time>2010-07-02T10:23:08Z</time>
      </trkpt>
      <trkpt lat="42.646095" lon="0.751059">
        <ele>2280.1</ele>
        <time>2010-07-02T10:23:08Z</time>
      </trkpt>
      <trkpt lat="42.646112" lon="0.751073">
        <ele>2281.6</ele>
        <time>2010-07-02T10:23:08Z</time>
      </trkpt>
      <trkpt lat="42.646127" lon="0.751090">
        <ele>2283.0</ele>
        <time>2010-07-02T10:23:08Z</time>
      </trkpt>
      <trkpt lat="42.646136" lon="0.751110">
        <ele>2284.0</ele>
        <time>2010-07-02T10:23:08Z</time>
      </trkpt>
      <trkpt lat="42.646111" lon="0.751250">
        <ele>2284.9</ele>
        <time>2010-07-02T10:23:08Z</time>
      </trkpt>
      <trkpt lat="42.646054" lon="0.751412">
        <ele>2283.5</ele>
        <time>2010-07-02T10:23:08Z</time>
      </trkpt>
      <trkpt lat="42.645990" lon="0.751541">
        <ele>2281.1</ele>
        <time>2010-07-02T10:23:08Z</time>
      </trkpt>
      <trkpt lat="42.645984" lon="0.751711">
        <ele>2283.6</ele>
        <time>2010-07-02T10:23:08Z</time>
      </trkpt>
      <trkpt lat="42.646030" lon="0.751797">
        <ele>2288.4</ele>
        <time>2010-07-02T10:23:08Z</time>
      </trkpt>
      <trkpt lat="42.646002" lon="0.752163">
        <ele>2292.1</ele>
        <time>2010-07-02T10:23:08Z</time>
      </trkpt>
      <trkpt lat="42.646061" lon="0.752430">
        <ele>2298.2</ele>
        <time>2010-07-02T10:23:08Z</time>
      </trkpt>
      <trkpt lat="42.646029" lon="0.752769">
        <ele>2298.6</ele>
        <time>2010-07-02T10:23:08Z</time>
      </trkpt>
      <trkpt lat="42.646092" lon="0.752909">
        <ele>2303.7</ele>
        <time>2010-07-02T10:23:08Z</time>
      </trkpt>
      <trkpt lat="42.646121" lon="0.753093">
        <ele>2306.9</ele>
        <time>2010-07-02T10:23:08Z</time>
      </trkpt>
      <trkpt lat="42.646177" lon="0.753278">
        <ele>2311.6</ele>
        <time>2010-07-02T10:23:08Z</time>
      </trkpt>
      <trkpt lat="42.646143" lon="0.753429">
        <ele>2310.6</ele>
        <time>2010-07-02T10:23:08Z</time>
      </trkpt>
      <trkpt lat="42.646219" lon="0.753573">
        <ele>2316.1</ele>
        <time>2010-07-02T10:23:08Z</time>
      </trkpt>
      <trkpt lat="42.646186" lon="0.753747">
        <ele>2315.2</ele>
        <time>2010-07-02T10:23:08Z</time>
      </trkpt>
      <trkpt lat="42.646228" lon="0.753910">
        <ele>2317.7</ele>
        <time>2010-07-02T10:23:08Z</time>
      </trkpt>
      <trkpt lat="42.646181" lon="0.754117">
        <ele>2315.2</ele>
        <time>2010-07-02T10:23:08Z</time>
      </trkpt>
      <trkpt lat="42.646211" lon="0.754277">
        <ele>2316.9</ele>
        <time>2010-07-02T10:23:08Z</time>
      </trkpt>
      <trkpt lat="42.646230" lon="0.754435">
        <ele>2318.0</ele>
        <time>2010-07-02T10:23:08Z</time>
      </trkpt>
      <trkpt lat="42.646184" lon="0.754543">
        <ele>2315.6</ele>
        <time>2010-07-02T10:23:08Z</time>
      </trkpt>
      <trkpt lat="42.646162" lon="0.754582">
        <ele>2314.4</ele>
        <time>2010-07-02T10:23:08Z</time>
      </trkpt>
      <trkpt lat="42.646100" lon="0.754656">
        <ele>2312.7</ele>
        <time>2010-07-02T10:23:08Z</time>
      </trkpt>
      <trkpt lat="42.646049" lon="0.754716">
        <ele>2311.2</ele>
        <time>2010-07-02T10:23:08Z</time>
      </trkpt>
      <trkpt lat="42.646053" lon="0.754794">
        <ele>2313.0</ele>
        <time>2010-07-02T10:23:08Z</time>
      </trkpt>
      <trkpt lat="42.646076" lon="0.754864">
        <ele>2315.6</ele>
        <time>2010-07-02T10:23:08Z</time>
      </trkpt>
      <trkpt lat="42.646123" lon="0.754908">
        <ele>2319.1</ele>
        <time>2010-07-02T10:23:08Z</time>
      </trkpt>
      <trkpt lat="42.646184" lon="0.754909">
        <ele>2322.4</ele>
        <time>2010-07-02T10:23:08Z</time>
      </trkpt>
      <trkpt lat="42.646215" lon="0.754932">
        <ele>2324.6</ele>
        <time>2010-07-02T10:23:08Z</time>
      </trkpt>
      <trkpt lat="42.646247" lon="0.754979">
        <ele>2327.4</ele>
        <time>2010-07-02T10:23:08Z</time>
      </trkpt>
      <trkpt lat="42.646277" lon="0.755033">
        <ele>2330.5</ele>
        <time>2010-07-02T10:23:08Z</time>
      </trkpt>
      <trkpt lat="42.646321" lon="0.755116">
        <ele>2335.1</ele>
        <time>2010-07-02T10:23:08Z</time>
      </trkpt>
      <trkpt lat="42.646346" lon="0.755256">
        <ele>2339.4</ele>
        <time>2010-07-02T10:23:08Z</time>
      </trkpt>
      <trkpt lat="42.646342" lon="0.755375">
        <ele>2341.5</ele>
        <time>2010-07-02T10:23:08Z</time>
      </trkpt>
      <trkpt lat="42.646295" lon="0.755456">
        <ele>2340.8</ele>
        <time>2010-07-02T10:23:08Z</time>
      </trkpt>
      <trkpt lat="42.646222" lon="0.755560">
        <ele>2339.8</ele>
        <time>2010-07-02T10:23:08Z</time>
      </trkpt>
      <trkpt lat="42.646122" lon="0.755572">
        <ele>2334.1</ele>
        <time>2010-07-02T10:23:08Z</time>
      </trkpt>
      <trkpt lat="42.646031" lon="0.755566">
        <ele>2328.4</ele>
        <time>2010-07-02T10:23:08Z</time>
      </trkpt>
      <trkpt lat="42.645965" lon="0.755529">
        <ele>2323.3</ele>
        <time>2010-07-02T10:23:08Z</time>
      </trkpt>
      <trkpt lat="42.645851" lon="0.755574">
        <ele>2317.8</ele>
        <time>2010-07-02T10:23:08Z</time>
      </trkpt>
      <trkpt lat="42.645733" lon="0.755686">
        <ele>2314.0</ele>
        <time>2010-07-02T10:23:08Z</time>
      </trkpt>
      <trkpt lat="42.645663" lon="0.755837">
        <ele>2314.2</ele>
        <time>2010-07-02T10:23:08Z</time>
      </trkpt>
      <trkpt lat="42.645639" lon="0.755971">
        <ele>2316.6</ele>
        <time>2010-07-02T10:23:08Z</time>
      </trkpt>
      <trkpt lat="42.645563" lon="0.756195">
        <ele>2318.5</ele>
        <time>2010-07-02T10:23:08Z</time>
      </trkpt>
      <trkpt lat="42.645590" lon="0.756473">
        <ele>2328.8</ele>
        <time>2010-07-02T10:23:08Z</time>
      </trkpt>
      <trkpt lat="42.645550" lon="0.756802">
        <ele>2336.7</ele>
        <time>2010-07-02T10:23:08Z</time>
      </trkpt>
      <trkpt lat="42.645592" lon="0.757101">
        <ele>2348.2</ele>
        <time>2010-07-02T10:23:08Z</time>
      </trkpt>
      <trkpt lat="42.645573" lon="0.757245">
        <ele>2350.0</ele>
        <time>2010-07-02T10:23:08Z</time>
      </trkpt>
      <trkpt lat="42.645502" lon="0.757322">
        <ele>2347.7</ele>
        <time>2010-07-02T10:23:08Z</time>
      </trkpt>
      <trkpt lat="42.645490" lon="0.757547">
        <ele>2351.7</ele>
        <time>2010-07-02T10:23:08Z</time>
      </trkpt>
      <trkpt lat="42.645381" lon="0.757871">
        <ele>2353.1</ele>
        <time>2010-07-02T10:23:08Z</time>
      </trkpt>
      <trkpt lat="42.645389" lon="0.758354">
        <ele>2363.6</ele>
        <time>2010-07-02T10:23:08Z</time>
      </trkpt>
      <trkpt lat="42.645327" lon="0.758595">
        <ele>2365.7</ele>
        <time>2010-07-02T10:23:08Z</time>
      </trkpt>
      <trkpt lat="42.645316" lon="0.758865">
        <ele>2371.7</ele>
        <time>2010-07-02T10:23:08Z</time>
      </trkpt>
      <trkpt lat="42.645234" lon="0.759163">
        <ele>2376.4</ele>
        <time>2010-07-02T10:23:08Z</time>
      </trkpt>
      <trkpt lat="42.645180" lon="0.759342">
        <ele>2378.9</ele>
        <time>2010-07-02T10:23:08Z</time>
      </trkpt>
      <trkpt lat="42.645106" lon="0.759491">
        <ele>2379.5</ele>
        <time>2010-07-02T10:23:08Z</time>
      </trkpt>
      <trkpt lat="42.645017" lon="0.759572">
        <ele>2377.5</ele>
        <time>2010-07-02T10:23:08Z</time>
      </trkpt>
      <trkpt lat="42.644858" lon="0.759683">
        <ele>2373.8</ele>
        <time>2010-07-02T10:23:08Z</time>
      </trkpt>
      <trkpt lat="42.644756" lon="0.759796">
        <ele>2373.3</ele>
        <time>2010-07-02T10:23:08Z</time>
      </trkpt>
      <trkpt lat="42.644722" lon="0.759887">
        <ele>2375.1</ele>
        <time>2010-07-02T10:23:08Z</time>
      </trkpt>
      <trkpt lat="42.644688" lon="0.760072">
        <ele>2380.5</ele>
        <time>2010-07-02T10:23:08Z</time>
      </trkpt>
      <trkpt lat="42.644720" lon="0.760272">
        <ele>2389.5</ele>
        <time>2010-07-02T10:23:08Z</time>
      </trkpt>
      <trkpt lat="42.644696" lon="0.760516">
        <ele>2397.3</ele>
        <time>2010-07-02T10:23:08Z</time>
      </trkpt>
      <trkpt lat="42.644731" lon="0.760690">
        <ele>2404.6</ele>
        <time>2010-07-02T10:23:08Z</time>
      </trkpt>
      <trkpt lat="42.644720" lon="0.760829">
        <ele>2408.9</ele>
        <time>2010-07-02T10:23:08Z</time>
      </trkpt>
      <trkpt lat="42.644718" lon="0.760947">
        <ele>2412.8</ele>
        <time>2010-07-02T10:23:08Z</time>
      </trkpt>
      <trkpt lat="42.644695" lon="0.761064">
        <ele>2415.8</ele>
        <time>2010-07-02T10:23:08Z</time>
      </trkpt>
      <trkpt lat="42.644688" lon="0.761189">
        <ele>2419.8</ele>
        <time>2010-07-02T10:23:08Z</time>
      </trkpt>
      <trkpt lat="42.644733" lon="0.761283">
        <ele>2424.5</ele>
        <time>2010-07-02T10:23:08Z</time>
      </trkpt>
      <trkpt lat="42.644764" lon="0.761423">
        <ele>2429.3</ele>
        <time>2010-07-02T10:23:08Z</time>
      </trkpt>
      <trkpt lat="42.644721" lon="0.761599">
        <ele>2433.0</ele>
        <time>2010-07-02T10:23:08Z</time>
      </trkpt>
      <trkpt lat="42.644818" lon="0.761720">
        <ele>2438.0</ele>
        <time>2010-07-02T10:23:08Z</time>
      </trkpt>
      <trkpt lat="42.644883" lon="0.761776">
        <ele>2440.2</ele>
        <time>2010-07-02T10:23:08Z</time>
      </trkpt>
      <trkpt lat="42.644950" lon="0.761771">
        <ele>2441.0</ele>
        <time>2010-07-02T10:23:08Z</time>
      </trkpt>
      <trkpt lat="42.645021" lon="0.761791">
        <ele>2442.2</ele>
        <time>2010-07-02T10:23:08Z</time>
      </trkpt>
      <trkpt lat="42.645113" lon="0.761816">
        <ele>2443.6</ele>
        <time>2010-07-02T10:23:08Z</time>
      </trkpt>
      <trkpt lat="42.645170" lon="0.761843">
        <ele>2444.4</ele>
        <time>2010-07-02T10:23:08Z</time>
      </trkpt>
      <trkpt lat="42.645180" lon="0.761863">
        <ele>2444.7</ele>
        <time>2010-07-02T10:23:08Z</time>
      </trkpt>
      <trkpt lat="42.645166" lon="0.761919">
        <ele>2445.0</ele>
        <time>2010-07-02T10:23:08Z</time>
      </trkpt>
      <trkpt lat="42.645085" lon="0.761969">
        <ele>2445.1</ele>
        <time>2010-07-02T10:23:08Z</time>
      </trkpt>
      <trkpt lat="42.645100" lon="0.762123">
        <ele>2445.5</ele>
        <time>2010-07-02T10:23:08Z</time>
      </trkpt>
      <trkpt lat="42.645215" lon="0.762155">
        <ele>2444.1</ele>
        <time>2010-07-02T10:23:08Z</time>
      </trkpt>
      <trkpt lat="42.645202" lon="0.762254">
        <ele>2441.3</ele>
        <time>2010-07-02T10:23:08Z</time>
      </trkpt>
      <trkpt lat="42.645291" lon="0.762253">
        <ele>2440.3</ele>
        <time>2010-07-02T10:23:08Z</time>
      </trkpt>
      <trkpt lat="42.645299" lon="0.762272">
        <ele>2439.5</ele>
        <time>2010-07-02T10:23:08Z</time>
      </trkpt>
      <trkpt lat="42.645312" lon="0.762354">
        <ele>2436.4</ele>
        <time>2010-07-02T10:23:08Z</time>
      </trkpt>
      <trkpt lat="42.645243" lon="0.762358">
        <ele>2437.5</ele>
        <time>2010-07-02T10:23:08Z</time>
      </trkpt>
      <trkpt lat="42.645246" lon="0.762374">
        <ele>2436.9</ele>
        <time>2010-07-02T10:23:08Z</time>
      </trkpt>
      <trkpt lat="42.645272" lon="0.762426">
        <ele>2434.7</ele>
        <time>2010-07-02T10:23:08Z</time>
      </trkpt>
      <trkpt lat="42.645228" lon="0.762483">
        <ele>2433.9</ele>
        <time>2010-07-02T10:23:08Z</time>
      </trkpt>
      <trkpt lat="42.645287" lon="0.762499">
        <ele>2431.9</ele>
        <time>2010-07-02T10:23:08Z</time>
      </trkpt>
      <trkpt lat="42.645307" lon="0.762561">
        <ele>2429.2</ele>
        <time>2010-07-02T10:23:08Z</time>
      </trkpt>
      <trkpt lat="42.645226" lon="0.762613">
        <ele>2429.9</ele>
        <time>2010-07-02T10:23:08Z</time>
      </trkpt>
      <trkpt lat="42.645128" lon="0.762680">
        <ele>2431.4</ele>
        <time>2010-07-02T10:23:08Z</time>
      </trkpt>
      <trkpt lat="42.645185" lon="0.762741">
        <ele>2427.7</ele>
        <time>2010-07-02T10:23:08Z</time>
      </trkpt>
      <trkpt lat="42.645113" lon="0.762796">
        <ele>2429.2</ele>
        <time>2010-07-02T10:23:08Z</time>
      </trkpt>
      <trkpt lat="42.645171" lon="0.762820">
        <ele>2426.0</ele>
        <time>2010-07-02T10:23:08Z</time>
      </trkpt>
      <trkpt lat="42.645102" lon="0.762853">
        <ele>2428.4</ele>
        <time>2010-07-02T10:23:08Z</time>
      </trkpt>
      <trkpt lat="42.645122" lon="0.762898">
        <ele>2426.3</ele>
        <time>2010-07-02T10:23:08Z</time>
      </trkpt>
      <trkpt lat="42.645038" lon="0.762954">
        <ele>2429.1</ele>
        <time>2010-07-02T10:23:08Z</time>
      </trkpt>
      <trkpt lat="42.645040" lon="0.763049">
        <ele>2426.3</ele>
        <time>2010-07-02T10:23:08Z</time>
      </trkpt>
      <trkpt lat="42.645099" lon="0.763106">
        <ele>2421.5</ele>
        <time>2010-07-02T10:23:08Z</time>
      </trkpt>
      <trkpt lat="42.645129" lon="0.763216">
        <ele>2416.6</ele>
        <time>2010-07-02T10:23:08Z</time>
      </trkpt>
      <trkpt lat="42.645204" lon="0.763257">
        <ele>2410.9</ele>
        <time>2010-07-02T10:23:08Z</time>
      </trkpt>
      <trkpt lat="42.645202" lon="0.763362">
        <ele>2407.7</ele>
        <time>2010-07-02T10:23:08Z</time>
      </trkpt>
      <trkpt lat="42.645283" lon="0.763422">
        <ele>2400.7</ele>
        <time>2010-07-02T10:23:08Z</time>
      </trkpt>
      <trkpt lat="42.645262" lon="0.763501">
        <ele>2399.4</ele>
        <time>2010-07-02T10:23:08Z</time>
      </trkpt>
      <trkpt lat="42.645312" lon="0.763647">
        <ele>2391.1</ele>
        <time>2010-07-02T10:23:08Z</time>
      </trkpt>
      <trkpt lat="42.645406" lon="0.763629">
        <ele>2385.2</ele>
        <time>2010-07-02T10:23:08Z</time>
      </trkpt>
      <trkpt lat="42.645439" lon="0.763718">
        <ele>2381.1</ele>
        <time>2010-07-02T10:23:08Z</time>
      </trkpt>
      <trkpt lat="42.645513" lon="0.763691">
        <ele>2382.0</ele>
        <time>2010-07-02T10:23:08Z</time>
      </trkpt>
      <trkpt lat="42.645556" lon="0.763718">
        <ele>2380.8</ele>
        <time>2010-07-02T10:23:08Z</time>
      </trkpt>
      <trkpt lat="42.645504" lon="0.763792">
        <ele>2379.3</ele>
        <time>2010-07-02T10:23:08Z</time>
      </trkpt>
      <trkpt lat="42.645547" lon="0.763799">
        <ele>2378.9</ele>
        <time>2010-07-02T10:23:08Z</time>
      </trkpt>
      <trkpt lat="42.645495" lon="0.763871">
        <ele>2378.5</ele>
        <time>2010-07-02T10:23:08Z</time>
      </trkpt>
      <trkpt lat="42.645534" lon="0.763878">
        <ele>2378.1</ele>
        <time>2010-07-02T10:23:08Z</time>
      </trkpt>
      <trkpt lat="42.645539" lon="0.763971">
        <ele>2376.9</ele>
        <time>2010-07-02T10:23:08Z</time>
      </trkpt>
      <trkpt lat="42.645586" lon="0.763940">
        <ele>2376.6</ele>
        <time>2010-07-02T10:23:08Z</time>
      </trkpt>
      <trkpt lat="42.645608" lon="0.764013">
        <ele>2375.2</ele>
        <time>2010-07-02T10:23:08Z</time>
      </trkpt>
      <trkpt lat="42.645614" lon="0.764097">
        <ele>2373.8</ele>
        <time>2010-07-02T10:23:08Z</time>
      </trkpt>
      <trkpt lat="42.645657" lon="0.764042">
        <ele>2373.8</ele>
        <time>2010-07-02T10:23:08Z</time>
      </trkpt>
      <trkpt lat="42.645708" lon="0.764058">
        <ele>2372.6</ele>
        <time>2010-07-02T10:23:08Z</time>
      </trkpt>
      <trkpt lat="42.645784" lon="0.764130">
        <ele>2369.3</ele>
        <time>2010-07-02T10:23:08Z</time>
      </trkpt>
      <trkpt lat="42.645875" lon="0.764126">
        <ele>2367.4</ele>
        <time>2010-07-02T10:23:08Z</time>
      </trkpt>
      <trkpt lat="42.645922" lon="0.764214">
        <ele>2363.6</ele>
        <time>2010-07-02T10:23:08Z</time>
      </trkpt>
      <trkpt lat="42.646005" lon="0.764254">
        <ele>2359.9</ele>
        <time>2010-07-02T10:23:08Z</time>
      </trkpt>
      <trkpt lat="42.646085" lon="0.764292">
        <ele>2356.1</ele>
        <time>2010-07-02T10:23:08Z</time>
      </trkpt>
      <trkpt lat="42.646129" lon="0.764332">
        <ele>2353.0</ele>
        <time>2010-07-02T10:23:08Z</time>
      </trkpt>
      <trkpt lat="42.646131" lon="0.764356">
        <ele>2352.0</ele>
        <time>2010-07-02T10:23:08Z</time>
      </trkpt>
      <trkpt lat="42.646091" lon="0.764392">
        <ele>2351.9</ele>
        <time>2010-07-02T10:23:08Z</time>
      </trkpt>
      <trkpt lat="42.646109" lon="0.764448">
        <ele>2348.9</ele>
        <time>2010-07-02T10:23:08Z</time>
      </trkpt>
      <trkpt lat="42.646037" lon="0.764519">
        <ele>2349.1</ele>
        <time>2010-07-02T10:23:08Z</time>
      </trkpt>
      <trkpt lat="42.646089" lon="0.764577">
        <ele>2344.6</ele>
        <time>2010-07-02T10:23:08Z</time>
      </trkpt>
      <trkpt lat="42.646166" lon="0.764573">
        <ele>2341.3</ele>
        <time>2010-07-02T10:23:08Z</time>
      </trkpt>
      <trkpt lat="42.646251" lon="0.764641">
        <ele>2336.0</ele>
        <time>2010-07-02T10:23:08Z</time>
      </trkpt>
      <trkpt lat="42.646297" lon="0.764776">
        <ele>2333.1</ele>
        <time>2010-07-02T10:23:08Z</time>
      </trkpt>
      <trkpt lat="42.646388" lon="0.764817">
        <ele>2331.1</ele>
        <time>2010-07-02T10:23:08Z</time>
      </trkpt>
      <trkpt lat="42.646382" lon="0.764895">
        <ele>2329.6</ele>
        <time>2010-07-02T10:23:08Z</time>
      </trkpt>
      <trkpt lat="42.646442" lon="0.764872">
        <ele>2329.2</ele>
        <time>2010-07-02T10:23:08Z</time>
      </trkpt>
      <trkpt lat="42.646438" lon="0.765005">
        <ele>2326.4</ele>
        <time>2010-07-02T10:23:08Z</time>
      </trkpt>
      <trkpt lat="42.646500" lon="0.765035">
        <ele>2324.6</ele>
        <time>2010-07-02T10:23:08Z</time>
      </trkpt>
      <trkpt lat="42.646530" lon="0.765143">
        <ele>2321.4</ele>
        <time>2010-07-02T10:23:08Z</time>
      </trkpt>
      <trkpt lat="42.646583" lon="0.765121">
        <ele>2320.8</ele>
        <time>2010-07-02T10:23:08Z</time>
      </trkpt>
      <trkpt lat="42.646556" lon="0.765218">
        <ele>2319.0</ele>
        <time>2010-07-02T10:23:08Z</time>
      </trkpt>
      <trkpt lat="42.646615" lon="0.765233">
        <ele>2317.2</ele>
        <time>2010-07-02T10:23:08Z</time>
      </trkpt>
      <trkpt lat="42.646598" lon="0.765400">
        <ele>2313.4</ele>
        <time>2010-07-02T10:23:08Z</time>
      </trkpt>
      <trkpt lat="42.646642" lon="0.765477">
        <ele>2309.6</ele>
        <time>2010-07-02T10:23:08Z</time>
      </trkpt>
      <trkpt lat="42.646621" lon="0.765584">
        <ele>2306.5</ele>
        <time>2010-07-02T10:23:08Z</time>
      </trkpt>
      <trkpt lat="42.646678" lon="0.765590">
        <ele>2304.6</ele>
        <time>2010-07-02T10:23:08Z</time>
      </trkpt>
      <trkpt lat="42.646690" lon="0.765746">
        <ele>2298.9</ele>
        <time>2010-07-02T10:23:08Z</time>
      </trkpt>
      <trkpt lat="42.646764" lon="0.765777">
        <ele>2295.7</ele>
        <time>2010-07-02T10:23:08Z</time>
      </trkpt>
      <trkpt lat="42.646801" lon="0.765869">
        <ele>2291.4</ele>
        <time>2010-07-02T10:23:08Z</time>
      </trkpt>
      <trkpt lat="42.646833" lon="0.765987">
        <ele>2286.4</ele>
        <time>2010-07-02T10:23:08Z</time>
      </trkpt>
      <trkpt lat="42.646926" lon="0.765998">
        <ele>2283.3</ele>
        <time>2010-07-02T10:23:08Z</time>
      </trkpt>
      <trkpt lat="42.646993" lon="0.766136">
        <ele>2276.6</ele>
        <time>2010-07-02T10:23:08Z</time>
      </trkpt>
      <trkpt lat="42.647021" lon="0.766253">
        <ele>2271.7</ele>
        <time>2010-07-02T10:23:08Z</time>
      </trkpt>
      <trkpt lat="42.647047" lon="0.766394">
        <ele>2267.5</ele>
        <time>2010-07-02T10:23:08Z</time>
      </trkpt>
      <trkpt lat="42.647129" lon="0.766393">
        <ele>2267.4</ele>
        <time>2010-07-02T10:23:08Z</time>
      </trkpt>
      <trkpt lat="42.647161" lon="0.766426">
        <ele>2267.4</ele>
        <time>2010-07-02T10:23:08Z</time>
      </trkpt>
      <trkpt lat="42.647147" lon="0.766558">
        <ele>2263.7</ele>
        <time>2010-07-02T10:23:08Z</time>
      </trkpt>
      <trkpt lat="42.647207" lon="0.766670">
        <ele>2262.1</ele>
        <time>2010-07-02T10:23:08Z</time>
      </trkpt>
      <trkpt lat="42.647184" lon="0.766833">
        <ele>2257.4</ele>
        <time>2010-07-02T10:23:08Z</time>
      </trkpt>
      <trkpt lat="42.647225" lon="0.766990">
        <ele>2254.1</ele>
        <time>2010-07-02T10:23:08Z</time>
      </trkpt>
      <trkpt lat="42.647191" lon="0.767185">
        <ele>2250.2</ele>
        <time>2010-07-02T10:23:08Z</time>
      </trkpt>
      <trkpt lat="42.647234" lon="0.767340">
        <ele>2249.5</ele>
        <time>2010-07-02T10:23:08Z</time>
      </trkpt>
      <trkpt lat="42.647190" lon="0.767510">
        <ele>2247.5</ele>
        <time>2010-07-02T10:23:08Z</time>
      </trkpt>
      <trkpt lat="42.647211" lon="0.767626">
        <ele>2246.7</ele>
        <time>2010-07-02T10:23:08Z</time>
      </trkpt>
      <trkpt lat="42.647150" lon="0.767814">
        <ele>2244.8</ele>
        <time>2010-07-02T10:23:08Z</time>
      </trkpt>
      <trkpt lat="42.647165" lon="0.767916">
        <ele>2244.1</ele>
        <time>2010-07-02T10:23:08Z</time>
      </trkpt>
      <trkpt lat="42.647158" lon="0.767978">
        <ele>2243.4</ele>
        <time>2010-07-02T10:23:08Z</time>
      </trkpt>
      <trkpt lat="42.647134" lon="0.768024">
        <ele>2242.9</ele>
        <time>2010-07-02T10:23:08Z</time>
      </trkpt>
      <trkpt lat="42.647068" lon="0.768137">
        <ele>2242.6</ele>
        <time>2010-07-02T10:23:08Z</time>
      </trkpt>
      <trkpt lat="42.647102" lon="0.768276">
        <ele>2240.4</ele>
        <time>2010-07-02T10:23:08Z</time>
      </trkpt>
      <trkpt lat="42.647192" lon="0.768294">
        <ele>2239.6</ele>
        <time>2010-07-02T10:23:08Z</time>
      </trkpt>
      <trkpt lat="42.647239" lon="0.768427">
        <ele>2237.6</ele>
        <time>2010-07-02T10:23:08Z</time>
      </trkpt>
      <trkpt lat="42.647311" lon="0.768428">
        <ele>2236.8</ele>
        <time>2010-07-02T10:23:08Z</time>
      </trkpt>
      <trkpt lat="42.647353" lon="0.768511">
        <ele>2235.1</ele>
        <time>2010-07-02T10:23:08Z</time>
      </trkpt>
      <trkpt lat="42.647423" lon="0.768488">
        <ele>2234.7</ele>
        <time>2010-07-02T10:23:08Z</time>
      </trkpt>
      <trkpt lat="42.647525" lon="0.768458">
        <ele>2234.2</ele>
        <time>2010-07-02T10:23:08Z</time>
      </trkpt>
      <trkpt lat="42.647585" lon="0.768518">
        <ele>2232.3</ele>
        <time>2010-07-02T10:23:08Z</time>
      </trkpt>
      <trkpt lat="42.647565" lon="0.768550">
        <ele>2231.9</ele>
        <time>2010-07-02T10:23:08Z</time>
      </trkpt>
      <trkpt lat="42.647587" lon="0.768630">
        <ele>2230.0</ele>
        <time>2010-07-02T10:23:08Z</time>
      </trkpt>
      <trkpt lat="42.647520" lon="0.768715">
        <ele>2229.3</ele>
        <time>2010-07-02T10:23:08Z</time>
      </trkpt>
      <trkpt lat="42.647505" lon="0.768812">
        <ele>2227.7</ele>
        <time>2010-07-02T10:23:08Z</time>
      </trkpt>
      <trkpt lat="42.647552" lon="0.768867">
        <ele>2225.9</ele>
        <time>2010-07-02T10:23:08Z</time>
      </trkpt>
      <trkpt lat="42.647615" lon="0.768841">
        <ele>2225.3</ele>
        <time>2010-07-02T10:23:08Z</time>
      </trkpt>
      <trkpt lat="42.647664" lon="0.768897">
        <ele>2223.3</ele>
        <time>2010-07-02T10:23:08Z</time>
      </trkpt>
      <trkpt lat="42.647669" lon="0.768912">
        <ele>2223.0</ele>
        <time>2010-07-02T10:23:08Z</time>
      </trkpt>
      <trkpt lat="42.647670" lon="0.768951">
        <ele>2222.2</ele>
        <time>2010-07-02T10:23:08Z</time>
      </trkpt>
      <trkpt lat="42.647603" lon="0.769068">
        <ele>2221.1</ele>
        <time>2010-07-02T10:23:08Z</time>
      </trkpt>
      <trkpt lat="42.647678" lon="0.769083">
        <ele>2219.4</ele>
        <time>2010-07-02T10:23:08Z</time>
      </trkpt>
      <trkpt lat="42.647743" lon="0.769063">
        <ele>2218.7</ele>
        <time>2010-07-02T10:23:08Z</time>
      </trkpt>
      <trkpt lat="42.647734" lon="0.769185">
        <ele>2216.4</ele>
        <time>2010-07-02T10:23:08Z</time>
      </trkpt>
      <trkpt lat="42.647805" lon="0.769237">
        <ele>2214.1</ele>
        <time>2010-07-02T10:23:08Z</time>
      </trkpt>
      <trkpt lat="42.647858" lon="0.769375">
        <ele>2210.3</ele>
        <time>2010-07-02T10:23:08Z</time>
      </trkpt>
      <trkpt lat="42.647918" lon="0.769462">
        <ele>2207.5</ele>
        <time>2010-07-02T10:23:08Z</time>
      </trkpt>
      <trkpt lat="42.647901" lon="0.769589">
        <ele>2205.2</ele>
        <time>2010-07-02T10:23:08Z</time>
      </trkpt>
      <trkpt lat="42.647961" lon="0.769610">
        <ele>2205.5</ele>
        <time>2010-07-02T10:23:08Z</time>
      </trkpt>
      <trkpt lat="42.647950" lon="0.769774">
        <ele>2203.2</ele>
        <time>2010-07-02T10:23:08Z</time>
      </trkpt>
      <trkpt lat="42.648045" lon="0.769832">
        <ele>2203.9</ele>
        <time>2010-07-02T10:23:08Z</time>
      </trkpt>
      <trkpt lat="42.648046" lon="0.769939">
        <ele>2202.4</ele>
        <time>2010-07-02T10:23:08Z</time>
      </trkpt>
      <trkpt lat="42.648090" lon="0.770005">
        <ele>2202.0</ele>
        <time>2010-07-02T10:23:08Z</time>
      </trkpt>
      <trkpt lat="42.648073" lon="0.770167">
        <ele>2199.4</ele>
        <time>2010-07-02T10:23:08Z</time>
      </trkpt>
      <trkpt lat="42.648129" lon="0.770204">
        <ele>2199.3</ele>
        <time>2010-07-02T10:23:08Z</time>
      </trkpt>
      <trkpt lat="42.648178" lon="0.770275">
        <ele>2198.6</ele>
        <time>2010-07-02T10:23:08Z</time>
      </trkpt>
      <trkpt lat="42.648157" lon="0.770444">
        <ele>2195.7</ele>
        <time>2010-07-02T10:23:08Z</time>
      </trkpt>
      <trkpt lat="42.648217" lon="0.770531">
        <ele>2194.5</ele>
        <time>2010-07-02T10:23:08Z</time>
      </trkpt>
      <trkpt lat="42.648253" lon="0.770623">
        <ele>2193.2</ele>
        <time>2010-07-02T10:23:08Z</time>
      </trkpt>
      <trkpt lat="42.648287" lon="0.770742">
        <ele>2191.6</ele>
        <time>2010-07-02T10:23:08Z</time>
      </trkpt>
      <trkpt lat="42.648258" lon="0.770900">
        <ele>2188.8</ele>
        <time>2010-07-02T10:23:08Z</time>
      </trkpt>
      <trkpt lat="42.648239" lon="0.771014">
        <ele>2186.7</ele>
        <time>2010-07-02T10:23:08Z</time>
      </trkpt>
      <trkpt lat="42.648301" lon="0.771079">
        <ele>2186.3</ele>
        <time>2010-07-02T10:23:08Z</time>
      </trkpt>
      <trkpt lat="42.648370" lon="0.771318">
        <ele>2182.9</ele>
        <time>2010-07-02T10:23:08Z</time>
      </trkpt>
      <trkpt lat="42.648387" lon="0.771562">
        <ele>2177.6</ele>
        <time>2010-07-02T10:23:08Z</time>
      </trkpt>
      <trkpt lat="42.648526" lon="0.771725">
        <ele>2176.0</ele>
        <time>2010-07-02T10:23:08Z</time>
      </trkpt>
      <trkpt lat="42.648561" lon="0.771919">
        <ele>2172.4</ele>
        <time>2010-07-02T10:23:08Z</time>
      </trkpt>
      <trkpt lat="42.648616" lon="0.771988">
        <ele>2171.8</ele>
        <time>2010-07-02T10:23:08Z</time>
      </trkpt>
      <trkpt lat="42.648603" lon="0.772135">
        <ele>2168.9</ele>
        <time>2010-07-02T10:23:08Z</time>
      </trkpt>
      <trkpt lat="42.648643" lon="0.772188">
        <ele>2168.9</ele>
        <time>2010-07-02T10:23:08Z</time>
      </trkpt>
      <trkpt lat="42.648619" lon="0.772340">
        <ele>2166.7</ele>
        <time>2010-07-02T10:23:08Z</time>
      </trkpt>
      <trkpt lat="42.648654" lon="0.772435">
        <ele>2166.0</ele>
        <time>2010-07-02T10:23:08Z</time>
      </trkpt>
      <trkpt lat="42.648656" lon="0.772510">
        <ele>2165.1</ele>
        <time>2010-07-02T10:23:08Z</time>
      </trkpt>
      <trkpt lat="42.648657" lon="0.772611">
        <ele>2163.9</ele>
        <time>2010-07-02T10:23:08Z</time>
      </trkpt>
      <trkpt lat="42.648707" lon="0.772613">
        <ele>2164.5</ele>
        <time>2010-07-02T10:23:08Z</time>
      </trkpt>
      <trkpt lat="42.648749" lon="0.772659">
        <ele>2164.4</ele>
        <time>2010-07-02T10:23:08Z</time>
      </trkpt>
      <trkpt lat="42.648720" lon="0.772738">
        <ele>2163.0</ele>
        <time>2010-07-02T10:23:08Z</time>
      </trkpt>
      <trkpt lat="42.648751" lon="0.772797">
        <ele>2162.6</ele>
        <time>2010-07-02T10:23:08Z</time>
      </trkpt>
      <trkpt lat="42.648735" lon="0.772912">
        <ele>2160.9</ele>
        <time>2010-07-02T10:23:08Z</time>
      </trkpt>
      <trkpt lat="42.648793" lon="0.772966">
        <ele>2161.8</ele>
        <time>2010-07-02T10:23:08Z</time>
      </trkpt>
      <trkpt lat="42.648806" lon="0.773086">
        <ele>2161.2</ele>
        <time>2010-07-02T10:23:08Z</time>
      </trkpt>
      <trkpt lat="42.648868" lon="0.773087">
        <ele>2162.6</ele>
        <time>2010-07-02T10:23:08Z</time>
      </trkpt>
      <trkpt lat="42.648960" lon="0.773132">
        <ele>2164.0</ele>
        <time>2010-07-02T10:23:08Z</time>
      </trkpt>
      <trkpt lat="42.649006" lon="0.773211">
        <ele>2163.9</ele>
        <time>2010-07-02T10:23:08Z</time>
      </trkpt>
      <trkpt lat="42.649060" lon="0.773273">
        <ele>2164.0</ele>
        <time>2010-07-02T10:23:08Z</time>
      </trkpt>
      <trkpt lat="42.649011" lon="0.773415">
        <ele>2161.3</ele>
        <time>2010-07-02T10:23:08Z</time>
      </trkpt>
      <trkpt lat="42.649072" lon="0.773443">
        <ele>2161.7</ele>
        <time>2010-07-02T10:23:08Z</time>
      </trkpt>
      <trkpt lat="42.649068" lon="0.773582">
        <ele>2159.6</ele>
        <time>2010-07-02T10:23:08Z</time>
      </trkpt>
      <trkpt lat="42.649132" lon="0.773569">
        <ele>2160.4</ele>
        <time>2010-07-02T10:23:08Z</time>
      </trkpt>
      <trkpt lat="42.649182" lon="0.773636">
        <ele>2159.6</ele>
        <time>2010-07-02T10:23:08Z</time>
      </trkpt>
      <trkpt lat="42.649207" lon="0.773718">
        <ele>2158.2</ele>
        <time>2010-07-02T10:23:08Z</time>
      </trkpt>
      <trkpt lat="42.649175" lon="0.773861">
        <ele>2155.7</ele>
        <time>2010-07-02T10:23:08Z</time>
      </trkpt>
      <trkpt lat="42.649205" lon="0.773915">
        <ele>2154.8</ele>
        <time>2010-07-02T10:23:08Z</time>
      </trkpt>
      <trkpt lat="42.649190" lon="0.774040">
        <ele>2152.7</ele>
        <time>2010-07-02T10:23:08Z</time>
      </trkpt>
      <trkpt lat="42.649257" lon="0.774121">
        <ele>2150.9</ele>
        <time>2010-07-02T10:23:08Z</time>
      </trkpt>
      <trkpt lat="42.649309" lon="0.774277">
        <ele>2147.4</ele>
        <time>2010-07-02T10:23:08Z</time>
      </trkpt>
      <trkpt lat="42.649399" lon="0.774243">
        <ele>2147.2</ele>
        <time>2010-07-02T10:23:08Z</time>
      </trkpt>
      <trkpt lat="42.649427" lon="0.774250">
        <ele>2146.8</ele>
        <time>2010-07-02T10:23:08Z</time>
      </trkpt>
      <trkpt lat="42.649427" lon="0.774397">
        <ele>2143.3</ele>
        <time>2010-07-02T10:23:08Z</time>
      </trkpt>
      <trkpt lat="42.649476" lon="0.774398">
        <ele>2142.6</ele>
        <time>2010-07-02T10:23:08Z</time>
      </trkpt>
      <trkpt lat="42.649505" lon="0.774503">
        <ele>2139.5</ele>
        <time>2010-07-02T10:23:08Z</time>
      </trkpt>
      <trkpt lat="42.649548" lon="0.774519">
        <ele>2138.4</ele>
        <time>2010-07-02T10:23:08Z</time>
      </trkpt>
      <trkpt lat="42.649573" lon="0.774550">
        <ele>2137.1</ele>
        <time>2010-07-02T10:23:08Z</time>
      </trkpt>
      <trkpt lat="42.649590" lon="0.774625">
        <ele>2135.7</ele>
        <time>2010-07-02T10:23:08Z</time>
      </trkpt>
      <trkpt lat="42.649596" lon="0.774712">
        <ele>2134.7</ele>
        <time>2010-07-02T10:23:08Z</time>
      </trkpt>
      <trkpt lat="42.649593" lon="0.774730">
        <ele>2134.5</ele>
        <time>2010-07-02T10:23:08Z</time>
      </trkpt>
      <trkpt lat="42.649560" lon="0.774833">
        <ele>2133.5</ele>
        <time>2010-07-02T10:23:08Z</time>
      </trkpt>
      <trkpt lat="42.649556" lon="0.774955">
        <ele>2132.2</ele>
        <time>2010-07-02T10:23:08Z</time>
      </trkpt>
      <trkpt lat="42.649607" lon="0.774993">
        <ele>2131.3</ele>
        <time>2010-07-02T10:23:08Z</time>
      </trkpt>
      <trkpt lat="42.649663" lon="0.774975">
        <ele>2132.1</ele>
        <time>2010-07-02T10:23:08Z</time>
      </trkpt>
      <trkpt lat="42.649724" lon="0.775017">
        <ele>2131.9</ele>
        <time>2010-07-02T10:23:08Z</time>
      </trkpt>
      <trkpt lat="42.649838" lon="0.775143">
        <ele>2129.8</ele>
        <time>2010-07-02T10:23:08Z</time>
      </trkpt>
      <trkpt lat="42.649883" lon="0.775317">
        <ele>2125.3</ele>
        <time>2010-07-02T10:23:08Z</time>
      </trkpt>
      <trkpt lat="42.649909" lon="0.775466">
        <ele>2121.4</ele>
        <time>2010-07-02T10:23:08Z</time>
      </trkpt>
      <trkpt lat="42.649870" lon="0.775614">
        <ele>2118.7</ele>
        <time>2010-07-02T10:23:08Z</time>
      </trkpt>
      <trkpt lat="42.649884" lon="0.775753">
        <ele>2115.5</ele>
        <time>2010-07-02T10:23:08Z</time>
      </trkpt>
      <trkpt lat="42.649966" lon="0.775760">
        <ele>2114.0</ele>
        <time>2010-07-02T10:23:08Z</time>
      </trkpt>
      <trkpt lat="42.650024" lon="0.775769">
        <ele>2112.9</ele>
        <time>2010-07-02T10:23:08Z</time>
      </trkpt>
      <trkpt lat="42.650055" lon="0.775906">
        <ele>2109.0</ele>
        <time>2010-07-02T10:23:08Z</time>
      </trkpt>
      <trkpt lat="42.650167" lon="0.775916">
        <ele>2106.7</ele>
        <time>2010-07-02T10:23:08Z</time>
      </trkpt>
      <trkpt lat="42.650225" lon="0.775967">
        <ele>2104.2</ele>
        <time>2010-07-02T10:23:08Z</time>
      </trkpt>
      <trkpt lat="42.650289" lon="0.775957">
        <ele>2103.3</ele>
        <time>2010-07-02T10:23:08Z</time>
      </trkpt>
      <trkpt lat="42.650325" lon="0.776002">
        <ele>2101.3</ele>
        <time>2010-07-02T10:23:08Z</time>
      </trkpt>
      <trkpt lat="42.650369" lon="0.776094">
        <ele>2097.7</ele>
        <time>2010-07-02T10:23:08Z</time>
      </trkpt>
      <trkpt lat="42.650444" lon="0.776131">
        <ele>2095.5</ele>
        <time>2010-07-02T10:23:08Z</time>
      </trkpt>
      <trkpt lat="42.650525" lon="0.776133">
        <ele>2095.2</ele>
        <time>2010-07-02T10:23:08Z</time>
      </trkpt>
      <trkpt lat="42.650594" lon="0.776154">
        <ele>2094.2</ele>
        <time>2010-07-02T10:23:08Z</time>
      </trkpt>
      <trkpt lat="42.650601" lon="0.776211">
        <ele>2092.0</ele>
        <time>2010-07-02T10:23:08Z</time>
      </trkpt>
      <trkpt lat="42.650590" lon="0.776301">
        <ele>2089.8</ele>
        <time>2010-07-02T10:23:08Z</time>
      </trkpt>
      <trkpt lat="42.650573" lon="0.776448">
        <ele>2087.8</ele>
        <time>2010-07-02T10:23:08Z</time>
      </trkpt>
      <trkpt lat="42.650615" lon="0.776540">
        <ele>2085.6</ele>
        <time>2010-07-02T10:23:08Z</time>
      </trkpt>
      <trkpt lat="42.650669" lon="0.776586">
        <ele>2083.8</ele>
        <time>2010-07-02T10:23:08Z</time>
      </trkpt>
      <trkpt lat="42.650782" lon="0.776557">
        <ele>2082.3</ele>
        <time>2010-07-02T10:23:08Z</time>
      </trkpt>
      <trkpt lat="42.650892" lon="0.776571">
        <ele>2079.9</ele>
        <time>2010-07-02T10:23:08Z</time>
      </trkpt>
      <trkpt lat="42.650953" lon="0.776662">
        <ele>2076.2</ele>
        <time>2010-07-02T10:23:08Z</time>
      </trkpt>
      <trkpt lat="42.651091" lon="0.776660">
        <ele>2073.2</ele>
        <time>2010-07-02T10:23:08Z</time>
      </trkpt>
      <trkpt lat="42.651253" lon="0.776807">
        <ele>2064.3</ele>
        <time>2010-07-02T10:23:08Z</time>
      </trkpt>
      <trkpt lat="42.651401" lon="0.776862">
        <ele>2062.4</ele>
        <time>2010-07-02T10:23:08Z</time>
      </trkpt>
      <trkpt lat="42.651485" lon="0.776985">
        <ele>2057.7</ele>
        <time>2010-07-02T10:23:08Z</time>
      </trkpt>
      <trkpt lat="42.651579" lon="0.777045">
        <ele>2055.2</ele>
        <time>2010-07-02T10:23:08Z</time>
      </trkpt>
      <trkpt lat="42.651800" lon="0.777016">
        <ele>2056.3</ele>
        <time>2010-07-02T10:23:08Z</time>
      </trkpt>
      <trkpt lat="42.651913" lon="0.777089">
        <ele>2052.9</ele>
        <time>2010-07-02T10:23:08Z</time>
      </trkpt>
      <trkpt lat="42.652022" lon="0.776993">
        <ele>2057.2</ele>
        <time>2010-07-02T10:23:08Z</time>
      </trkpt>
      <trkpt lat="42.652121" lon="0.777028">
        <ele>2054.0</ele>
        <time>2010-07-02T10:23:08Z</time>
      </trkpt>
      <trkpt lat="42.652174" lon="0.777018">
        <ele>2052.1</ele>
        <time>2010-07-02T10:23:08Z</time>
      </trkpt>
      <trkpt lat="42.652222" lon="0.777054">
        <ele>2048.5</ele>
        <time>2010-07-02T10:23:08Z</time>
      </trkpt>
      <trkpt lat="42.652216" lon="0.777067">
        <ele>2048.2</ele>
        <time>2010-07-02T10:23:08Z</time>
      </trkpt>
      <trkpt lat="42.652150" lon="0.777113">
        <ele>2048.9</ele>
        <time>2010-07-02T10:23:08Z</time>
      </trkpt>
      <trkpt lat="42.652045" lon="0.777186">
        <ele>2048.1</ele>
        <time>2010-07-02T10:23:08Z</time>
      </trkpt>
      <trkpt lat="42.652062" lon="0.777282">
        <ele>2043.3</ele>
        <time>2010-07-02T10:23:08Z</time>
      </trkpt>
      <trkpt lat="42.652134" lon="0.777286">
        <ele>2041.3</ele>
        <time>2010-07-02T10:23:08Z</time>
      </trkpt>
      <trkpt lat="42.652237" lon="0.777286">
        <ele>2037.9</ele>
        <time>2010-07-02T10:23:08Z</time>
      </trkpt>
      <trkpt lat="42.652237" lon="0.777387">
        <ele>2033.5</ele>
        <time>2010-07-02T10:23:08Z</time>
      </trkpt>
      <trkpt lat="42.652317" lon="0.777393">
        <ele>2030.9</ele>
        <time>2010-07-02T10:23:08Z</time>
      </trkpt>
      <trkpt lat="42.652339" lon="0.777519">
        <ele>2025.3</ele>
        <time>2010-07-02T10:23:08Z</time>
      </trkpt>
      <trkpt lat="42.652415" lon="0.777592">
        <ele>2020.8</ele>
        <time>2010-07-02T10:23:08Z</time>
      </trkpt>
      <trkpt lat="42.652501" lon="0.777597">
        <ele>2018.7</ele>
        <time>2010-07-02T10:23:08Z</time>
      </trkpt>
      <trkpt lat="42.652526" lon="0.777510">
        <ele>2021.0</ele>
        <time>2010-07-02T10:23:08Z</time>
      </trkpt>
      <trkpt lat="42.652541" lon="0.777382">
        <ele>2024.7</ele>
        <time>2010-07-02T10:23:08Z</time>
      </trkpt>
      <trkpt lat="42.652583" lon="0.777312">
        <ele>2025.6</ele>
        <time>2010-07-02T10:23:08Z</time>
      </trkpt>
      <trkpt lat="42.652643" lon="0.777279">
        <ele>2024.6</ele>
        <time>2010-07-02T10:23:08Z</time>
      </trkpt>
      <trkpt lat="42.652700" lon="0.777365">
        <ele>2020.5</ele>
        <time>2010-07-02T10:23:08Z</time>
      </trkpt>
      <trkpt lat="42.652776" lon="0.777479">
        <ele>2015.5</ele>
        <time>2010-07-02T10:23:08Z</time>
      </trkpt>
      <trkpt lat="42.652760" lon="0.777618">
        <ele>2012.6</ele>
        <time>2010-07-02T10:23:08Z</time>
      </trkpt>
      <trkpt lat="42.652818" lon="0.777598">
        <ele>2011.9</ele>
        <time>2010-07-02T10:23:08Z</time>
      </trkpt>
      <trkpt lat="42.652802" lon="0.777847">
        <ele>2006.7</ele>
        <time>2010-07-02T10:23:08Z</time>
      </trkpt>
      <trkpt lat="42.652855" lon="0.777766">
        <ele>2007.6</ele>
        <time>2010-07-02T10:23:08Z</time>
      </trkpt>
      <trkpt lat="42.652919" lon="0.777669">
        <ele>2008.3</ele>
        <time>2010-07-02T10:23:08Z</time>
      </trkpt>
      <trkpt lat="42.652989" lon="0.777577">
        <ele>2005.9</ele>
        <time>2010-07-02T10:23:08Z</time>
      </trkpt>
      <trkpt lat="42.653043" lon="0.777626">
        <ele>2002.1</ele>
        <time>2010-07-02T10:23:08Z</time>
      </trkpt>
      <trkpt lat="42.653060" lon="0.777730">
        <ele>1999.7</ele>
        <time>2010-07-02T10:23:08Z</time>
      </trkpt>
      <trkpt lat="42.653062" lon="0.777806">
        <ele>1998.6</ele>
        <time>2010-07-02T10:23:08Z</time>
      </trkpt>
      <trkpt lat="42.653055" lon="0.777936">
        <ele>1996.6</ele>
        <time>2010-07-02T10:23:08Z</time>
      </trkpt>
      <trkpt lat="42.653110" lon="0.778039">
        <ele>1990.3</ele>
        <time>2010-07-02T10:23:08Z</time>
      </trkpt>
      <trkpt lat="42.653173" lon="0.778057">
        <ele>1986.9</ele>
        <time>2010-07-02T10:23:08Z</time>
      </trkpt>
      <trkpt lat="42.653255" lon="0.777990">
        <ele>1985.4</ele>
        <time>2010-07-02T10:23:08Z</time>
      </trkpt>
      <trkpt lat="42.653277" lon="0.777805">
        <ele>1987.5</ele>
        <time>2010-07-02T10:23:08Z</time>
      </trkpt>
      <trkpt lat="42.653248" lon="0.777631">
        <ele>1990.5</ele>
        <time>2010-07-02T10:23:08Z</time>
      </trkpt>
      <trkpt lat="42.653193" lon="0.777467">
        <ele>1995.2</ele>
        <time>2010-07-02T10:23:08Z</time>
      </trkpt>
      <trkpt lat="42.653204" lon="0.777306">
        <ele>1996.1</ele>
        <time>2010-07-02T10:23:08Z</time>
      </trkpt>
      <trkpt lat="42.653119" lon="0.777242">
        <ele>2002.5</ele>
        <time>2010-07-02T10:23:08Z</time>
      </trkpt>
      <trkpt lat="42.653104" lon="0.777142">
        <ele>2004.8</ele>
        <time>2010-07-02T10:23:08Z</time>
      </trkpt>
      <trkpt lat="42.653083" lon="0.777061">
        <ele>2007.2</ele>
        <time>2010-07-02T10:23:08Z</time>
      </trkpt>
      <trkpt lat="42.653147" lon="0.777014">
        <ele>2003.2</ele>
        <time>2010-07-02T10:23:08Z</time>
      </trkpt>
      <trkpt lat="42.653147" lon="0.776928">
        <ele>2004.2</ele>
        <time>2010-07-02T10:23:08Z</time>
      </trkpt>
      <trkpt lat="42.653195" lon="0.776995">
        <ele>1999.9</ele>
        <time>2010-07-02T10:23:08Z</time>
      </trkpt>
      <trkpt lat="42.653268" lon="0.777122">
        <ele>1993.4</ele>
        <time>2010-07-02T10:23:08Z</time>
      </trkpt>
      <trkpt lat="42.653277" lon="0.777131">
        <ele>1992.7</ele>
        <time>2010-07-02T10:23:08Z</time>
      </trkpt>
      <trkpt lat="42.653308" lon="0.777027">
        <ele>1991.5</ele>
        <time>2010-07-02T10:23:08Z</time>
      </trkpt>
      <trkpt lat="42.653355" lon="0.777087">
        <ele>1987.4</ele>
        <time>2010-07-02T10:23:08Z</time>
      </trkpt>
      <trkpt lat="42.653348" lon="0.777177">
        <ele>1987.4</ele>
        <time>2010-07-02T10:23:08Z</time>
      </trkpt>
      <trkpt lat="42.653382" lon="0.777114">
        <ele>1985.4</ele>
        <time>2010-07-02T10:23:08Z</time>
      </trkpt>
      <trkpt lat="42.653404" lon="0.777206">
        <ele>1983.4</ele>
        <time>2010-07-02T10:23:08Z</time>
      </trkpt>
      <trkpt lat="42.653432" lon="0.777148">
        <ele>1981.7</ele>
        <time>2010-07-02T10:23:08Z</time>
      </trkpt>
      <trkpt lat="42.653527" lon="0.777140">
        <ele>1975.0</ele>
        <time>2010-07-02T10:23:08Z</time>
      </trkpt>
      <trkpt lat="42.653568" lon="0.777212">
        <ele>1972.2</ele>
        <time>2010-07-02T10:23:08Z</time>
      </trkpt>
      <trkpt lat="42.653709" lon="0.777223">
        <ele>1962.6</ele>
        <time>2010-07-02T10:23:08Z</time>
      </trkpt>
      <trkpt lat="42.653773" lon="0.777316">
        <ele>1959.1</ele>
        <time>2010-07-02T10:23:08Z</time>
      </trkpt>
      <trkpt lat="42.653846" lon="0.777306">
        <ele>1955.0</ele>
        <time>2010-07-02T10:23:08Z</time>
      </trkpt>
      <trkpt lat="42.653885" lon="0.777366">
        <ele>1953.2</ele>
        <time>2010-07-02T10:23:08Z</time>
      </trkpt>
      <trkpt lat="42.653959" lon="0.777368">
        <ele>1949.1</ele>
        <time>2010-07-02T10:23:08Z</time>
      </trkpt>
      <trkpt lat="42.654048" lon="0.777339">
        <ele>1944.2</ele>
        <time>2010-07-02T10:23:08Z</time>
      </trkpt>
      <trkpt lat="42.654114" lon="0.777395">
        <ele>1940.7</ele>
        <time>2010-07-02T10:23:08Z</time>
      </trkpt>
      <trkpt lat="42.654146" lon="0.777437">
        <ele>1939.0</ele>
        <time>2010-07-02T10:23:08Z</time>
      </trkpt>
      <trkpt lat="42.654167" lon="0.777538">
        <ele>1938.1</ele>
        <time>2010-07-02T10:23:08Z</time>
      </trkpt>
      <trkpt lat="42.654203" lon="0.777441">
        <ele>1935.8</ele>
        <time>2010-07-02T10:23:08Z</time>
      </trkpt>
      <trkpt lat="42.654263" lon="0.777531">
        <ele>1932.6</ele>
        <time>2010-07-02T10:23:08Z</time>
      </trkpt>
      <trkpt lat="42.654385" lon="0.777498">
        <ele>1925.7</ele>
        <time>2010-07-02T10:23:08Z</time>
      </trkpt>
      <trkpt lat="42.654395" lon="0.777619">
        <ele>1925.1</ele>
        <time>2010-07-02T10:23:08Z</time>
      </trkpt>
      <trkpt lat="42.654451" lon="0.777561">
        <ele>1922.0</ele>
        <time>2010-07-02T10:23:08Z</time>
      </trkpt>
      <trkpt lat="42.654469" lon="0.777716">
        <ele>1920.9</ele>
        <time>2010-07-02T10:23:08Z</time>
      </trkpt>
      <trkpt lat="42.654537" lon="0.777686">
        <ele>1916.9</ele>
        <time>2010-07-02T10:23:08Z</time>
      </trkpt>
      <trkpt lat="42.654540" lon="0.777759">
        <ele>1916.7</ele>
        <time>2010-07-02T10:23:08Z</time>
      </trkpt>
      <trkpt lat="42.654605" lon="0.777760">
        <ele>1913.5</ele>
        <time>2010-07-02T10:23:08Z</time>
      </trkpt>
      <trkpt lat="42.654616" lon="0.777766">
        <ele>1913.1</ele>
        <time>2010-07-02T10:23:08Z</time>
      </trkpt>
      <trkpt lat="42.654613" lon="0.777824">
        <ele>1913.1</ele>
        <time>2010-07-02T10:23:08Z</time>
      </trkpt>
      <trkpt lat="42.654668" lon="0.777859">
        <ele>1911.3</ele>
        <time>2010-07-02T10:23:08Z</time>
      </trkpt>
      <trkpt lat="42.654639" lon="0.777928">
        <ele>1912.1</ele>
        <time>2010-07-02T10:23:08Z</time>
      </trkpt>
      <trkpt lat="42.654644" lon="0.778008">
        <ele>1911.2</ele>
        <time>2010-07-02T10:23:08Z</time>
      </trkpt>
      <trkpt lat="42.654688" lon="0.778101">
        <ele>1909.0</ele>
        <time>2010-07-02T10:23:08Z</time>
      </trkpt>
      <trkpt lat="42.654736" lon="0.778130">
        <ele>1907.2</ele>
        <time>2010-07-02T10:23:08Z</time>
      </trkpt>
      <trkpt lat="42.654821" lon="0.778060">
        <ele>1905.0</ele>
        <time>2010-07-02T10:23:08Z</time>
      </trkpt>
      <trkpt lat="42.654868" lon="0.777997">
        <ele>1904.0</ele>
        <time>2010-07-02T10:23:08Z</time>
      </trkpt>
      <trkpt lat="42.654934" lon="0.778004">
        <ele>1901.8</ele>
        <time>2010-07-02T10:23:08Z</time>
      </trkpt>
      <trkpt lat="42.654970" lon="0.778006">
        <ele>1900.6</ele>
        <time>2010-07-02T10:23:08Z</time>
      </trkpt>
      <trkpt lat="42.654951" lon="0.778081">
        <ele>1900.5</ele>
        <time>2010-07-02T10:23:08Z</time>
      </trkpt>
      <trkpt lat="42.654916" lon="0.778157">
        <ele>1901.0</ele>
        <time>2010-07-02T10:23:08Z</time>
      </trkpt>
      <trkpt lat="42.654836" lon="0.778221">
        <ele>1903.0</ele>
        <time>2010-07-02T10:23:08Z</time>
      </trkpt>
      <trkpt lat="42.654785" lon="0.778312">
        <ele>1903.9</ele>
        <time>2010-07-02T10:23:08Z</time>
      </trkpt>
      <trkpt lat="42.654864" lon="0.778387">
        <ele>1900.6</ele>
        <time>2010-07-02T10:23:08Z</time>
      </trkpt>
      <trkpt lat="42.654910" lon="0.778387">
        <ele>1899.0</ele>
        <time>2010-07-02T10:23:08Z</time>
      </trkpt>
      <trkpt lat="42.655005" lon="0.778355">
        <ele>1896.1</ele>
        <time>2010-07-02T10:23:08Z</time>
      </trkpt>
      <trkpt lat="42.655096" lon="0.778317">
        <ele>1893.4</ele>
        <time>2010-07-02T10:23:08Z</time>
      </trkpt>
      <trkpt lat="42.655242" lon="0.778273">
        <ele>1889.0</ele>
        <time>2010-07-02T10:23:08Z</time>
      </trkpt>
      <trkpt lat="42.655325" lon="0.778185">
        <ele>1887.2</ele>
        <time>2010-07-02T10:23:08Z</time>
      </trkpt>
      <trkpt lat="42.655354" lon="0.778095">
        <ele>1887.1</ele>
        <time>2010-07-02T10:23:08Z</time>
      </trkpt>
      <trkpt lat="42.655398" lon="0.778034">
        <ele>1886.3</ele>
        <time>2010-07-02T10:23:08Z</time>
      </trkpt>
      <trkpt lat="42.655461" lon="0.778076">
        <ele>1883.2</ele>
        <time>2010-07-02T10:23:08Z</time>
      </trkpt>
      <trkpt lat="42.655446" lon="0.778166">
        <ele>1882.9</ele>
        <time>2010-07-02T10:23:08Z</time>
      </trkpt>
      <trkpt lat="42.655410" lon="0.778215">
        <ele>1884.0</ele>
        <time>2010-07-02T10:23:08Z</time>
      </trkpt>
      <trkpt lat="42.655383" lon="0.778309">
        <ele>1883.9</ele>
        <time>2010-07-02T10:23:08Z</time>
      </trkpt>
      <trkpt lat="42.655432" lon="0.778316">
        <ele>1881.9</ele>
        <time>2010-07-02T10:23:08Z</time>
      </trkpt>
      <trkpt lat="42.655503" lon="0.778266">
        <ele>1879.0</ele>
        <time>2010-07-02T10:23:08Z</time>
      </trkpt>
      <trkpt lat="42.655546" lon="0.778359">
        <ele>1875.8</ele>
        <time>2010-07-02T10:23:08Z</time>
      </trkpt>
      <trkpt lat="42.655612" lon="0.778369">
        <ele>1872.4</ele>
        <time>2010-07-02T10:23:08Z</time>
      </trkpt>
      <trkpt lat="42.655664" lon="0.778268">
        <ele>1871.2</ele>
        <time>2010-07-02T10:23:08Z</time>
      </trkpt>
      <trkpt lat="42.655725" lon="0.778125">
        <ele>1870.3</ele>
        <time>2010-07-02T10:23:08Z</time>
      </trkpt>
      <trkpt lat="42.655772" lon="0.778095">
        <ele>1868.6</ele>
        <time>2010-07-02T10:23:08Z</time>
      </trkpt>
      <trkpt lat="42.655775" lon="0.778163">
        <ele>1867.4</ele>
        <time>2010-07-02T10:23:08Z</time>
      </trkpt>
      <trkpt lat="42.655777" lon="0.778255">
        <ele>1865.9</ele>
        <time>2010-07-02T10:23:08Z</time>
      </trkpt>
      <trkpt lat="42.655771" lon="0.778377">
        <ele>1864.4</ele>
        <time>2010-07-02T10:23:08Z</time>
      </trkpt>
      <trkpt lat="42.655791" lon="0.778410">
        <ele>1862.9</ele>
        <time>2010-07-02T10:23:08Z</time>
      </trkpt>
      <trkpt lat="42.655878" lon="0.778281">
        <ele>1860.7</ele>
        <time>2010-07-02T10:23:08Z</time>
      </trkpt>
      <trkpt lat="42.655919" lon="0.778159">
        <ele>1860.7</ele>
        <time>2010-07-02T10:23:08Z</time>
      </trkpt>
      <trkpt lat="42.656005" lon="0.778151">
        <ele>1856.7</ele>
        <time>2010-07-02T10:23:08Z</time>
      </trkpt>
      <trkpt lat="42.656028" lon="0.778240">
        <ele>1854.1</ele>
        <time>2010-07-02T10:23:08Z</time>
      </trkpt>
      <trkpt lat="42.656025" lon="0.778353">
        <ele>1852.2</ele>
        <time>2010-07-02T10:23:08Z</time>
      </trkpt>
      <trkpt lat="42.656059" lon="0.778457">
        <ele>1848.6</ele>
        <time>2010-07-02T10:23:08Z</time>
      </trkpt>
      <trkpt lat="42.656119" lon="0.778488">
        <ele>1845.0</ele>
        <time>2010-07-02T10:23:08Z</time>
      </trkpt>
      <trkpt lat="42.656288" lon="0.778495">
        <ele>1836.5</ele>
        <time>2010-07-02T10:23:08Z</time>
      </trkpt>
      <trkpt lat="42.656382" lon="0.778421">
        <ele>1833.8</ele>
        <time>2010-07-02T10:23:08Z</time>
      </trkpt>
      <trkpt lat="42.656451" lon="0.778289">
        <ele>1833.0</ele>
        <time>2010-07-02T10:23:08Z</time>
      </trkpt>
      <trkpt lat="42.656520" lon="0.778299">
        <ele>1829.6</ele>
        <time>2010-07-02T10:23:08Z</time>
      </trkpt>
      <trkpt lat="42.656592" lon="0.778241">
        <ele>1827.2</ele>
        <time>2010-07-02T10:23:08Z</time>
      </trkpt>
      <trkpt lat="42.656640" lon="0.778254">
        <ele>1824.7</ele>
        <time>2010-07-02T10:23:08Z</time>
      </trkpt>
      <trkpt lat="42.656672" lon="0.778290">
        <ele>1822.7</ele>
        <time>2010-07-02T10:23:08Z</time>
      </trkpt>
      <trkpt lat="42.656720" lon="0.778423">
        <ele>1818.5</ele>
        <time>2010-07-02T10:23:08Z</time>
      </trkpt>
      <trkpt lat="42.656767" lon="0.778431">
        <ele>1816.3</ele>
        <time>2010-07-02T10:23:08Z</time>
      </trkpt>
      <trkpt lat="42.656799" lon="0.778421">
        <ele>1815.0</ele>
        <time>2010-07-02T10:23:08Z</time>
      </trkpt>
      <trkpt lat="42.656831" lon="0.778390">
        <ele>1813.9</ele>
        <time>2010-07-02T10:23:08Z</time>
      </trkpt>
      <trkpt lat="42.656852" lon="0.778303">
        <ele>1814.1</ele>
        <time>2010-07-02T10:23:08Z</time>
      </trkpt>
      <trkpt lat="42.656904" lon="0.778242">
        <ele>1812.4</ele>
        <time>2010-07-02T10:23:08Z</time>
      </trkpt>
      <trkpt lat="42.656956" lon="0.778310">
        <ele>1809.1</ele>
        <time>2010-07-02T10:23:08Z</time>
      </trkpt>
      <trkpt lat="42.657009" lon="0.778418">
        <ele>1805.5</ele>
        <time>2010-07-02T10:23:08Z</time>
      </trkpt>
      <trkpt lat="42.657075" lon="0.778383">
        <ele>1802.9</ele>
        <time>2010-07-02T10:23:08Z</time>
      </trkpt>
      <trkpt lat="42.657129" lon="0.778155">
        <ele>1803.6</ele>
        <time>2010-07-02T10:23:08Z</time>
      </trkpt>
      <trkpt lat="42.657199" lon="0.778252">
        <ele>1800.9</ele>
        <time>2010-07-02T10:23:08Z</time>
      </trkpt>
      <trkpt lat="42.657226" lon="0.778342">
        <ele>1799.3</ele>
        <time>2010-07-02T10:23:08Z</time>
      </trkpt>
      <trkpt lat="42.657281" lon="0.778449">
        <ele>1796.7</ele>
        <time>2010-07-02T10:23:08Z</time>
      </trkpt>
      <trkpt lat="42.657296" lon="0.778446">
        <ele>1796.3</ele>
        <time>2010-07-02T10:23:08Z</time>
      </trkpt>
      <trkpt lat="42.657335" lon="0.778435">
        <ele>1795.5</ele>
        <time>2010-07-02T10:23:08Z</time>
      </trkpt>
      <trkpt lat="42.657365" lon="0.778357">
        <ele>1795.6</ele>
        <time>2010-07-02T10:23:08Z</time>
      </trkpt>
      <trkpt lat="42.657432" lon="0.778385">
        <ele>1793.6</ele>
        <time>2010-07-02T10:23:08Z</time>
      </trkpt>
      <trkpt lat="42.657514" lon="0.778413">
        <ele>1791.1</ele>
        <time>2010-07-02T10:23:08Z</time>
      </trkpt>
      <trkpt lat="42.657575" lon="0.778562">
        <ele>1787.4</ele>
        <time>2010-07-02T10:23:08Z</time>
      </trkpt>
      <trkpt lat="42.657693" lon="0.778655">
        <ele>1782.9</ele>
        <time>2010-07-02T10:23:08Z</time>
      </trkpt>
      <trkpt lat="42.657771" lon="0.778581">
        <ele>1781.8</ele>
        <time>2010-07-02T10:23:08Z</time>
      </trkpt>
      <trkpt lat="42.657820" lon="0.778649">
        <ele>1779.4</ele>
        <time>2010-07-02T10:23:08Z</time>
      </trkpt>
      <trkpt lat="42.657893" lon="0.778730">
        <ele>1776.0</ele>
        <time>2010-07-02T10:23:08Z</time>
      </trkpt>
      <trkpt lat="42.657988" lon="0.778744">
        <ele>1773.1</ele>
        <time>2010-07-02T10:23:08Z</time>
      </trkpt>
      <trkpt lat="42.658097" lon="0.778774">
        <ele>1769.6</ele>
        <time>2010-07-02T10:23:08Z</time>
      </trkpt>
      <trkpt lat="42.658218" lon="0.778745">
        <ele>1766.8</ele>
        <time>2010-07-02T10:23:08Z</time>
      </trkpt>
      <trkpt lat="42.658309" lon="0.778664">
        <ele>1765.8</ele>
        <time>2010-07-02T10:23:08Z</time>
      </trkpt>
      <trkpt lat="42.658317" lon="0.778546">
        <ele>1767.9</ele>
        <time>2010-07-02T10:23:08Z</time>
      </trkpt>
      <trkpt lat="42.658367" lon="0.778447">
        <ele>1768.4</ele>
        <time>2010-07-02T10:23:08Z</time>
      </trkpt>
      <trkpt lat="42.658426" lon="0.778487">
        <ele>1766.1</ele>
        <time>2010-07-02T10:23:08Z</time>
      </trkpt>
      <trkpt lat="42.658579" lon="0.778609">
        <ele>1759.6</ele>
        <time>2010-07-02T10:23:08Z</time>
      </trkpt>
      <trkpt lat="42.658669" lon="0.778622">
        <ele>1756.9</ele>
        <time>2010-07-02T10:23:08Z</time>
      </trkpt>
      <trkpt lat="42.658742" lon="0.778672">
        <ele>1753.9</ele>
        <time>2010-07-02T10:23:08Z</time>
      </trkpt>
      <trkpt lat="42.658796" lon="0.778725">
        <ele>1751.6</ele>
        <time>2010-07-02T10:23:08Z</time>
      </trkpt>
      <trkpt lat="42.658878" lon="0.778757">
        <ele>1749.3</ele>
        <time>2010-07-02T10:23:08Z</time>
      </trkpt>
      <trkpt lat="42.658965" lon="0.778760">
        <ele>1747.5</ele>
        <time>2010-07-02T10:23:08Z</time>
      </trkpt>
      <trkpt lat="42.659023" lon="0.778733">
        <ele>1746.8</ele>
        <time>2010-07-02T10:23:08Z</time>
      </trkpt>
      <trkpt lat="42.659193" lon="0.778679">
        <ele>1744.3</ele>
        <time>2010-07-02T10:23:08Z</time>
      </trkpt>
      <trkpt lat="42.659371" lon="0.778646">
        <ele>1741.1</ele>
        <time>2010-07-02T10:23:08Z</time>
      </trkpt>
      <trkpt lat="42.659449" lon="0.778645">
        <ele>1739.5</ele>
        <time>2010-07-02T10:23:08Z</time>
      </trkpt>
      <trkpt lat="42.659531" lon="0.778653">
        <ele>1737.6</ele>
        <time>2010-07-02T10:23:08Z</time>
      </trkpt>
      <trkpt lat="42.659596" lon="0.778653">
        <ele>1736.2</ele>
        <time>2010-07-02T10:23:08Z</time>
      </trkpt>
      <trkpt lat="42.659650" lon="0.778681">
        <ele>1734.2</ele>
        <time>2010-07-02T10:23:08Z</time>
      </trkpt>
      <trkpt lat="42.659669" lon="0.778697">
        <ele>1733.5</ele>
        <time>2010-07-02T10:23:08Z</time>
      </trkpt>
      <trkpt lat="42.659653" lon="0.778750">
        <ele>1733.1</ele>
        <time>2010-07-02T10:23:08Z</time>
      </trkpt>
      <trkpt lat="42.659607" lon="0.778881">
        <ele>1732.4</ele>
        <time>2010-07-02T10:23:08Z</time>
      </trkpt>
      <trkpt lat="42.659575" lon="0.778933">
        <ele>1732.5</ele>
        <time>2010-07-02T10:23:08Z</time>
      </trkpt>
      <trkpt lat="42.659464" lon="0.779110">
        <ele>1732.3</ele>
        <time>2010-07-02T10:23:08Z</time>
      </trkpt>
      <trkpt lat="42.659368" lon="0.779265">
        <ele>1732.0</ele>
        <time>2010-07-02T10:23:08Z</time>
      </trkpt>
      <trkpt lat="42.659331" lon="0.779351">
        <ele>1731.5</ele>
        <time>2010-07-02T10:23:08Z</time>
      </trkpt>
      <trkpt lat="42.659260" lon="0.779452">
        <ele>1731.5</ele>
        <time>2010-07-02T10:23:08Z</time>
      </trkpt>
      <trkpt lat="42.659289" lon="0.779526">
        <ele>1729.8</ele>
        <time>2010-07-02T10:23:08Z</time>
      </trkpt>
      <trkpt lat="42.659348" lon="0.779571">
        <ele>1728.0</ele>
        <time>2010-07-02T10:23:08Z</time>
      </trkpt>
      <trkpt lat="42.659389" lon="0.779691">
        <ele>1724.6</ele>
        <time>2010-07-02T10:23:08Z</time>
      </trkpt>
      <trkpt lat="42.659476" lon="0.779632">
        <ele>1724.1</ele>
        <time>2010-07-02T10:23:08Z</time>
      </trkpt>
      <trkpt lat="42.659555" lon="0.779631">
        <ele>1722.5</ele>
        <time>2010-07-02T10:23:08Z</time>
      </trkpt>
      <trkpt lat="42.659720" lon="0.779629">
        <ele>1717.3</ele>
        <time>2010-07-02T10:23:08Z</time>
      </trkpt>
      <trkpt lat="42.659824" lon="0.779564">
        <ele>1714.9</ele>
        <time>2010-07-02T10:23:08Z</time>
      </trkpt>
      <trkpt lat="42.659916" lon="0.779404">
        <ele>1714.5</ele>
        <time>2010-07-02T10:23:08Z</time>
      </trkpt>
      <trkpt lat="42.659963" lon="0.779546">
        <ele>1710.4</ele>
        <time>2010-07-02T10:23:08Z</time>
      </trkpt>
      <trkpt lat="42.660075" lon="0.779536">
        <ele>1706.8</ele>
        <time>2010-07-02T10:23:08Z</time>
      </trkpt>
      <trkpt lat="42.660029" lon="0.779652">
        <ele>1706.2</ele>
        <time>2010-07-02T10:23:08Z</time>
      </trkpt>
      <trkpt lat="42.659993" lon="0.779775">
        <ele>1705.2</ele>
        <time>2010-07-02T10:23:08Z</time>
      </trkpt>
      <trkpt lat="42.660064" lon="0.779799">
        <ele>1702.4</ele>
        <time>2010-07-02T10:23:08Z</time>
      </trkpt>
      <trkpt lat="42.660082" lon="0.779909">
        <ele>1699.8</ele>
        <time>2010-07-02T10:23:08Z</time>
      </trkpt>
      <trkpt lat="42.660091" lon="0.779837">
        <ele>1700.8</ele>
        <time>2010-07-02T10:23:08Z</time>
      </trkpt>
      <trkpt lat="42.660113" lon="0.779831">
        <ele>1700.2</ele>
        <time>2010-07-02T10:23:08Z</time>
      </trkpt>
      <trkpt lat="42.660154" lon="0.779811">
        <ele>1699.2</ele>
        <time>2010-07-02T10:23:08Z</time>
      </trkpt>
      <trkpt lat="42.660204" lon="0.779833">
        <ele>1697.1</ele>
        <time>2010-07-02T10:23:08Z</time>
      </trkpt>
      <trkpt lat="42.660255" lon="0.779785">
        <ele>1696.3</ele>
        <time>2010-07-02T10:23:08Z</time>
      </trkpt>
      <trkpt lat="42.660211" lon="0.779902">
        <ele>1695.7</ele>
        <time>2010-07-02T10:23:08Z</time>
      </trkpt>
      <trkpt lat="42.660222" lon="0.779988">
        <ele>1693.9</ele>
        <time>2010-07-02T10:23:08Z</time>
      </trkpt>
      <trkpt lat="42.660242" lon="0.780018">
        <ele>1692.7</ele>
        <time>2010-07-02T10:23:08Z</time>
      </trkpt>
      <trkpt lat="42.660273" lon="0.780011">
        <ele>1691.9</ele>
        <time>2010-07-02T10:23:08Z</time>
      </trkpt>
      <trkpt lat="42.660374" lon="0.779987">
        <ele>1689.1</ele>
        <time>2010-07-02T10:23:08Z</time>
      </trkpt>
      <trkpt lat="42.660409" lon="0.779987">
        <ele>1687.9</ele>
        <time>2010-07-02T10:23:08Z</time>
      </trkpt>
      <trkpt lat="42.660398" lon="0.780055">
        <ele>1687.2</ele>
        <time>2010-07-02T10:23:08Z</time>
      </trkpt>
      <trkpt lat="42.660344" lon="0.780188">
        <ele>1686.8</ele>
        <time>2010-07-02T10:23:08Z</time>
      </trkpt>
      <trkpt lat="42.660289" lon="0.780363">
        <ele>1685.6</ele>
        <time>2010-07-02T10:23:08Z</time>
      </trkpt>
      <trkpt lat="42.660265" lon="0.780469">
        <ele>1684.7</ele>
        <time>2010-07-02T10:23:08Z</time>
      </trkpt>
      <trkpt lat="42.660304" lon="0.780530">
        <ele>1682.8</ele>
        <time>2010-07-02T10:23:08Z</time>
      </trkpt>
      <trkpt lat="42.660294" lon="0.780636">
        <ele>1681.8</ele>
        <time>2010-07-02T10:23:08Z</time>
      </trkpt>
      <trkpt lat="42.660333" lon="0.780682">
        <ele>1680.1</ele>
        <time>2010-07-02T10:23:08Z</time>
      </trkpt>
      <trkpt lat="42.660393" lon="0.780727">
        <ele>1677.9</ele>
        <time>2010-07-02T10:23:08Z</time>
      </trkpt>
      <trkpt lat="42.660375" lon="0.780930">
        <ele>1676.0</ele>
        <time>2010-07-02T10:23:08Z</time>
      </trkpt>
      <trkpt lat="42.660371" lon="0.781095">
        <ele>1674.0</ele>
        <time>2010-07-02T10:23:08Z</time>
      </trkpt>
      <trkpt lat="42.660327" lon="0.781258">
        <ele>1673.3</ele>
        <time>2010-07-02T10:23:08Z</time>
      </trkpt>
      <trkpt lat="42.660327" lon="0.781380">
        <ele>1674.3</ele>
        <time>2010-07-02T10:23:08Z</time>
      </trkpt>
      <trkpt lat="42.660396" lon="0.781428">
        <ele>1673.0</ele>
        <time>2010-07-02T10:23:08Z</time>
      </trkpt>
      <trkpt lat="42.660478" lon="0.781427">
        <ele>1671.3</ele>
        <time>2010-07-02T10:23:08Z</time>
      </trkpt>
      <trkpt lat="42.660677" lon="0.781443">
        <ele>1667.6</ele>
        <time>2010-07-02T10:23:08Z</time>
      </trkpt>
      <trkpt lat="42.661062" lon="0.781466">
        <ele>1660.5</ele>
        <time>2010-07-02T10:23:08Z</time>
      </trkpt>
      <trkpt lat="42.661225" lon="0.781528">
        <ele>1658.2</ele>
        <time>2010-07-02T10:23:08Z</time>
      </trkpt>
      <trkpt lat="42.661441" lon="0.781584">
        <ele>1654.0</ele>
        <time>2010-07-02T10:23:08Z</time>
      </trkpt>
      <trkpt lat="42.661925" lon="0.781585">
        <ele>1643.0</ele>
        <time>2010-07-02T10:23:08Z</time>
      </trkpt>
      <trkpt lat="42.661970" lon="0.781534">
        <ele>1641.6</ele>
        <time>2010-07-02T10:23:08Z</time>
      </trkpt>
      <trkpt lat="42.662136" lon="0.781436">
        <ele>1637.4</ele>
        <time>2010-07-02T10:23:08Z</time>
      </trkpt>
      <trkpt lat="42.662326" lon="0.781351">
        <ele>1633.1</ele>
        <time>2010-07-02T10:23:08Z</time>
      </trkpt>
      <trkpt lat="42.662633" lon="0.781353">
        <ele>1627.2</ele>
        <time>2010-07-02T10:23:08Z</time>
      </trkpt>
      <trkpt lat="42.662889" lon="0.781300">
        <ele>1621.4</ele>
        <time>2010-07-02T10:23:08Z</time>
      </trkpt>
      <trkpt lat="42.663158" lon="0.781313">
        <ele>1618.1</ele>
        <time>2010-07-02T10:23:08Z</time>
      </trkpt>
      <trkpt lat="42.663277" lon="0.781323">
        <ele>1616.8</ele>
        <time>2010-07-02T10:23:08Z</time>
      </trkpt>
      <trkpt lat="42.663398" lon="0.781309">
        <ele>1615.1</ele>
        <time>2010-07-02T10:23:08Z</time>
      </trkpt>
      <trkpt lat="42.663528" lon="0.781241">
        <ele>1612.7</ele>
        <time>2010-07-02T10:23:08Z</time>
      </trkpt>
      <trkpt lat="42.663904" lon="0.780990">
        <ele>1608.9</ele>
        <time>2010-07-02T10:23:08Z</time>
      </trkpt>
      <trkpt lat="42.664184" lon="0.780834">
        <ele>1605.6</ele>
        <time>2010-07-02T10:23:08Z</time>
      </trkpt>
      <trkpt lat="42.664284" lon="0.780677">
        <ele>1603.5</ele>
        <time>2010-07-02T10:23:08Z</time>
      </trkpt>
      <trkpt lat="42.664403" lon="0.780835">
        <ele>1603.1</ele>
        <time>2010-07-02T10:23:08Z</time>
      </trkpt>
      <trkpt lat="42.664622" lon="0.780703">
        <ele>1599.3</ele>
        <time>2010-07-02T10:23:08Z</time>
      </trkpt>
      <trkpt lat="42.664789" lon="0.780739">
        <ele>1597.7</ele>
        <time>2010-07-02T10:23:08Z</time>
      </trkpt>
      <trkpt lat="42.665557" lon="0.780726">
        <ele>1587.8</ele>
        <time>2010-07-02T10:23:08Z</time>
      </trkpt>
      <trkpt lat="42.665752" lon="0.780554">
        <ele>1580.9</ele>
        <time>2010-07-02T10:23:08Z</time>
      </trkpt>
      <trkpt lat="42.666231" lon="0.780556">
        <ele>1571.9</ele>
        <time>2010-07-02T10:23:08Z</time>
      </trkpt>
      <trkpt lat="42.666310" lon="0.780607">
        <ele>1571.5</ele>
        <time>2010-07-02T10:23:08Z</time>
      </trkpt>
      <trkpt lat="42.666361" lon="0.780647">
        <ele>1571.4</ele>
        <time>2010-07-02T10:23:08Z</time>
      </trkpt>
      <trkpt lat="42.666521" lon="0.780723">
        <ele>1569.8</ele>
        <time>2010-07-02T10:23:08Z</time>
      </trkpt>
      <trkpt lat="42.666603" lon="0.780766">
        <ele>1569.1</ele>
        <time>2010-07-02T10:23:08Z</time>
      </trkpt>
      <trkpt lat="42.666671" lon="0.780818">
        <ele>1568.8</ele>
        <time>2010-07-02T10:23:08Z</time>
      </trkpt>
      <trkpt lat="42.666850" lon="0.781214">
        <ele>1573.8</ele>
        <time>2010-07-02T10:23:08Z</time>
      </trkpt>
      <trkpt lat="42.666912" lon="0.781271">
        <ele>1573.7</ele>
        <time>2010-07-02T10:23:08Z</time>
      </trkpt>
      <trkpt lat="42.667023" lon="0.781276">
        <ele>1571.1</ele>
        <time>2010-07-02T10:23:08Z</time>
      </trkpt>
      <trkpt lat="42.667293" lon="0.781249">
        <ele>1563.4</ele>
        <time>2010-07-02T10:23:08Z</time>
      </trkpt>
      <trkpt lat="42.667488" lon="0.781214">
        <ele>1557.6</ele>
        <time>2010-07-02T10:23:08Z</time>
      </trkpt>
      <trkpt lat="42.667782" lon="0.781094">
        <ele>1547.7</ele>
        <time>2010-07-02T10:23:08Z</time>
      </trkpt>
      <trkpt lat="42.667882" lon="0.781068">
        <ele>1544.6</ele>
        <time>2010-07-02T10:23:08Z</time>
      </trkpt>
      <trkpt lat="42.668045" lon="0.781094">
        <ele>1542.7</ele>
        <time>2010-07-02T10:23:08Z</time>
      </trkpt>
      <trkpt lat="42.668095" lon="0.781092">
        <ele>1542.1</ele>
        <time>2010-07-02T10:23:08Z</time>
      </trkpt>
      <trkpt lat="42.668182" lon="0.781025">
        <ele>1539.7</ele>
        <time>2010-07-02T10:23:08Z</time>
      </trkpt>
      <trkpt lat="42.668288" lon="0.780975">
        <ele>1537.5</ele>
        <time>2010-07-02T10:23:08Z</time>
      </trkpt>
      <trkpt lat="42.668587" lon="0.780928">
        <ele>1532.7</ele>
        <time>2010-07-02T10:23:08Z</time>
      </trkpt>
      <trkpt lat="42.668683" lon="0.780960">
        <ele>1532.2</ele>
        <time>2010-07-02T10:23:08Z</time>
      </trkpt>
      <trkpt lat="42.668921" lon="0.781044">
        <ele>1528.8</ele>
        <time>2010-07-02T10:23:08Z</time>
      </trkpt>
      <trkpt lat="42.669018" lon="0.781162">
        <ele>1528.5</ele>
        <time>2010-07-02T10:23:08Z</time>
      </trkpt>
      <trkpt lat="42.669069" lon="0.781338">
        <ele>1529.7</ele>
        <time>2010-07-02T10:23:08Z</time>
      </trkpt>
      <trkpt lat="42.669177" lon="0.781498">
        <ele>1528.1</ele>
        <time>2010-07-02T10:23:08Z</time>
      </trkpt>
      <trkpt lat="42.669251" lon="0.781496">
        <ele>1525.8</ele>
        <time>2010-07-02T10:23:08Z</time>
      </trkpt>
      <trkpt lat="42.669383" lon="0.781226">
        <ele>1519.4</ele>
        <time>2010-07-02T10:23:08Z</time>
      </trkpt>
      <trkpt lat="42.669543" lon="0.781343">
        <ele>1515.9</ele>
        <time>2010-07-02T10:23:08Z</time>
      </trkpt>
      <trkpt lat="42.669676" lon="0.781438">
        <ele>1512.6</ele>
        <time>2010-07-02T10:23:08Z</time>
      </trkpt>
      <trkpt lat="42.669823" lon="0.781440">
        <ele>1508.2</ele>
        <time>2010-07-02T10:23:08Z</time>
      </trkpt>
      <trkpt lat="42.670126" lon="0.781343">
        <ele>1498.4</ele>
        <time>2010-07-02T10:23:08Z</time>
      </trkpt>
      <trkpt lat="42.670392" lon="0.781491">
        <ele>1491.5</ele>
        <time>2010-07-02T10:23:08Z</time>
      </trkpt>
      <trkpt lat="42.670485" lon="0.781637">
        <ele>1489.0</ele>
        <time>2010-07-02T10:23:08Z</time>
      </trkpt>
      <trkpt lat="42.670600" lon="0.781868">
        <ele>1485.6</ele>
        <time>2010-07-02T10:23:08Z</time>
      </trkpt>
      <trkpt lat="42.670650" lon="0.782042">
        <ele>1484.4</ele>
        <time>2010-07-02T10:23:08Z</time>
      </trkpt>
      <trkpt lat="42.670733" lon="0.781992">
        <ele>1480.5</ele>
        <time>2010-07-02T10:23:08Z</time>
      </trkpt>
      <trkpt lat="42.670863" lon="0.781880">
        <ele>1474.4</ele>
        <time>2010-07-02T10:23:08Z</time>
      </trkpt>
      <trkpt lat="42.670996" lon="0.781709">
        <ele>1468.1</ele>
        <time>2010-07-02T10:23:08Z</time>
      </trkpt>
      <trkpt lat="42.671100" lon="0.781641">
        <ele>1463.6</ele>
        <time>2010-07-02T10:23:08Z</time>
      </trkpt>
      <trkpt lat="42.671133" lon="0.781714">
        <ele>1462.4</ele>
        <time>2010-07-02T10:23:08Z</time>
      </trkpt>
      <trkpt lat="42.671171" lon="0.781741">
        <ele>1460.9</ele>
        <time>2010-07-02T10:23:08Z</time>
      </trkpt>
      <trkpt lat="42.671244" lon="0.781466">
        <ele>1457.5</ele>
        <time>2010-07-02T10:23:08Z</time>
      </trkpt>
      <trkpt lat="42.671286" lon="0.781473">
        <ele>1454.7</ele>
        <time>2010-07-02T10:23:08Z</time>
      </trkpt>
      <trkpt lat="42.671373" lon="0.781620">
        <ele>1448.9</ele>
        <time>2010-07-02T10:23:08Z</time>
      </trkpt>
      <trkpt lat="42.671471" lon="0.781795">
        <ele>1442.9</ele>
        <time>2010-07-02T10:23:08Z</time>
      </trkpt>
      <trkpt lat="42.671527" lon="0.781664">
        <ele>1438.6</ele>
        <time>2010-07-02T10:23:08Z</time>
      </trkpt>
      <trkpt lat="42.671565" lon="0.781456">
        <ele>1434.8</ele>
        <time>2010-07-02T10:23:08Z</time>
      </trkpt>
      <trkpt lat="42.671566" lon="0.781264">
        <ele>1433.5</ele>
        <time>2010-07-02T10:23:08Z</time>
      </trkpt>
      <trkpt lat="42.671703" lon="0.780995">
        <ele>1420.6</ele>
        <time>2010-07-02T10:23:08Z</time>
      </trkpt>
      <trkpt lat="42.671716" lon="0.780824">
        <ele>1418.0</ele>
        <time>2010-07-02T10:23:08Z</time>
      </trkpt>
      <trkpt lat="42.671762" lon="0.780353">
        <ele>1409.5</ele>
        <time>2010-07-02T10:23:08Z</time>
      </trkpt>
      <trkpt lat="42.671845" lon="0.780463">
        <ele>1405.8</ele>
        <time>2010-07-02T10:23:08Z</time>
      </trkpt>
      <trkpt lat="42.671938" lon="0.780652">
        <ele>1401.2</ele>
        <time>2010-07-02T10:23:08Z</time>
      </trkpt>
      <trkpt lat="42.672013" lon="0.780797">
        <ele>1397.1</ele>
        <time>2010-07-02T10:23:08Z</time>
      </trkpt>
      <trkpt lat="42.672084" lon="0.780818">
        <ele>1392.4</ele>
        <time>2010-07-02T10:23:08Z</time>
      </trkpt>
      <trkpt lat="42.672162" lon="0.780779">
        <ele>1387.8</ele>
        <time>2010-07-02T10:23:08Z</time>
      </trkpt>
      <trkpt lat="42.672391" lon="0.780956">
        <ele>1375.5</ele>
        <time>2010-07-02T10:23:08Z</time>
      </trkpt>
      <trkpt lat="42.672596" lon="0.781184">
        <ele>1364.2</ele>
        <time>2010-07-02T10:23:08Z</time>
      </trkpt>
      <trkpt lat="42.672687" lon="0.781302">
        <ele>1359.1</ele>
        <time>2010-07-02T10:23:08Z</time>
      </trkpt>
      <trkpt lat="42.672772" lon="0.781321">
        <ele>1354.0</ele>
        <time>2010-07-02T10:23:08Z</time>
      </trkpt>
      <trkpt lat="42.672860" lon="0.781268">
        <ele>1348.4</ele>
        <time>2010-07-02T10:23:08Z</time>
      </trkpt>
      <trkpt lat="42.672984" lon="0.781384">
        <ele>1342.8</ele>
        <time>2010-07-02T10:23:08Z</time>
      </trkpt>
      <trkpt lat="42.673082" lon="0.781573">
        <ele>1339.3</ele>
        <time>2010-07-02T10:23:08Z</time>
      </trkpt>
      <trkpt lat="42.673153" lon="0.781693">
        <ele>1336.6</ele>
        <time>2010-07-02T10:23:08Z</time>
      </trkpt>
      <trkpt lat="42.673340" lon="0.781329">
        <ele>1328.3</ele>
        <time>2010-07-02T10:23:08Z</time>
      </trkpt>
      <trkpt lat="42.673480" lon="0.781292">
        <ele>1322.7</ele>
        <time>2010-07-02T10:23:08Z</time>
      </trkpt>
      <trkpt lat="42.673774" lon="0.781470">
        <ele>1311.1</ele>
        <time>2010-07-02T10:23:08Z</time>
      </trkpt>
      <trkpt lat="42.673915" lon="0.781610">
        <ele>1307.1</ele>
        <time>2010-07-02T10:23:08Z</time>
      </trkpt>
      <trkpt lat="42.674241" lon="0.782231">
        <ele>1295.6</ele>
        <time>2010-07-02T10:23:08Z</time>
      </trkpt>
      <trkpt lat="42.674414" lon="0.782709">
        <ele>1287.8</ele>
        <time>2010-07-02T10:23:08Z</time>
      </trkpt>
      <trkpt lat="42.674755" lon="0.783524">
        <ele>1274.7</ele>
        <time>2010-07-02T10:23:08Z</time>
      </trkpt>
      <trkpt lat="42.674808" lon="0.783814">
        <ele>1272.5</ele>
        <time>2010-07-02T10:23:08Z</time>
      </trkpt>
      <trkpt lat="42.674906" lon="0.783975">
        <ele>1270.4</ele>
        <time>2010-07-02T10:23:08Z</time>
      </trkpt>
      <trkpt lat="42.675034" lon="0.784077">
        <ele>1267.8</ele>
        <time>2010-07-02T10:23:08Z</time>
      </trkpt>
      <trkpt lat="42.675184" lon="0.784200">
        <ele>1264.8</ele>
        <time>2010-07-02T10:23:08Z</time>
      </trkpt>
      <trkpt lat="42.675471" lon="0.784368">
        <ele>1259.6</ele>
        <time>2010-07-02T10:23:08Z</time>
      </trkpt>
      <trkpt lat="42.675615" lon="0.784698">
        <ele>1258.4</ele>
        <time>2010-07-02T10:23:08Z</time>
      </trkpt>
      <trkpt lat="42.675949" lon="0.785107">
        <ele>1256.4</ele>
        <time>2010-07-02T10:23:08Z</time>
      </trkpt>
      <trkpt lat="42.676304" lon="0.785445">
        <ele>1253.6</ele>
        <time>2010-07-02T10:23:08Z</time>
      </trkpt>
      <trkpt lat="42.676768" lon="0.785684">
        <ele>1249.5</ele>
        <time>2010-07-02T10:23:08Z</time>
      </trkpt>
      <trkpt lat="42.676877" lon="0.785792">
        <ele>1248.8</ele>
        <time>2010-07-02T10:23:08Z</time>
      </trkpt>
      <trkpt lat="42.677393" lon="0.786574">
        <ele>1247.6</ele>
        <time>2010-07-02T10:23:08Z</time>
      </trkpt>
      <trkpt lat="42.678023" lon="0.787353">
        <ele>1238.2</ele>
        <time>2010-07-02T10:23:08Z</time>
      </trkpt>
      <trkpt lat="42.678789" lon="0.787893">
        <ele>1223.9</ele>
        <time>2010-07-02T10:23:08Z</time>
      </trkpt>
      <trkpt lat="42.679452" lon="0.788626">
        <ele>1219.7</ele>
        <time>2010-07-02T10:23:08Z</time>
      </trkpt>
      <trkpt lat="42.680133" lon="0.789470">
        <ele>1212.9</ele>
        <time>2010-07-02T10:23:08Z</time>
      </trkpt>
      <trkpt lat="42.680878" lon="0.789982">
        <ele>1210.2</ele>
        <time>2010-07-02T10:23:08Z</time>
      </trkpt>
      <trkpt lat="42.680967" lon="0.790034">
        <ele>1210.0</ele>
        <time>2010-07-02T10:23:08Z</time>
      </trkpt>
      <trkpt lat="42.681041" lon="0.790075">
        <ele>1209.8</ele>
        <time>2010-07-02T10:23:08Z</time>
      </trkpt>
      <trkpt lat="42.681150" lon="0.790125">
        <ele>1209.2</ele>
        <time>2010-07-02T10:23:08Z</time>
      </trkpt>
      <trkpt lat="42.681465" lon="0.790271">
        <ele>1206.7</ele>
        <time>2010-07-02T10:23:08Z</time>
      </trkpt>
      <trkpt lat="42.682056" lon="0.790513">
        <ele>1200.3</ele>
        <time>2010-07-02T10:23:08Z</time>
      </trkpt>
      <trkpt lat="42.682067" lon="0.790513">
        <ele>1200.1</ele>
        <time>2010-07-02T10:23:08Z</time>
      </trkpt>
      <trkpt lat="42.682517" lon="0.790585">
        <ele>1195.9</ele>
        <time>2010-07-02T10:23:08Z</time>
      </trkpt>
      <trkpt lat="42.682626" lon="0.790603">
        <ele>1194.8</ele>
        <time>2010-07-02T10:23:08Z</time>
      </trkpt>
      <trkpt lat="42.683206" lon="0.790701">
        <ele>1192.2</ele>
        <time>2010-07-02T10:23:08Z</time>
      </trkpt>
      <trkpt lat="42.683354" lon="0.790687">
        <ele>1191.2</ele>
        <time>2010-07-02T10:23:08Z</time>
      </trkpt>
      <trkpt lat="42.683917" lon="0.790639">
        <ele>1186.3</ele>
        <time>2010-07-02T10:23:08Z</time>
      </trkpt>
      <trkpt lat="42.684378" lon="0.790578">
        <ele>1178.8</ele>
        <time>2010-07-02T10:23:08Z</time>
      </trkpt>
      <trkpt lat="42.684462" lon="0.790555">
        <ele>1177.2</ele>
        <time>2010-07-02T10:23:08Z</time>
      </trkpt>
      <trkpt lat="42.684968" lon="0.790420">
        <ele>1167.5</ele>
        <time>2010-07-02T10:23:08Z</time>
      </trkpt>
      <trkpt lat="42.685449" lon="0.790344">
        <ele>1162.2</ele>
        <time>2010-07-02T10:23:08Z</time>
      </trkpt>
      <trkpt lat="42.685741" lon="0.790303">
        <ele>1161.4</ele>
        <time>2010-07-02T10:23:08Z</time>
      </trkpt>
      <trkpt lat="42.686159" lon="0.790162">
        <ele>1160.0</ele>
        <time>2010-07-02T10:23:08Z</time>
      </trkpt>
      <trkpt lat="42.686373" lon="0.790050">
        <ele>1159.5</ele>
        <time>2010-07-02T10:23:08Z</time>
      </trkpt>
      <trkpt lat="42.686701" lon="0.789879">
        <ele>1158.7</ele>
        <time>2010-07-02T10:23:08Z</time>
      </trkpt>
      <trkpt lat="42.686942" lon="0.789798">
        <ele>1157.8</ele>
        <time>2010-07-02T10:23:08Z</time>
      </trkpt>
      <trkpt lat="42.687085" lon="0.789790">
        <ele>1157.5</ele>
        <time>2010-07-02T10:23:08Z</time>
      </trkpt>
      <trkpt lat="42.687109" lon="0.789794">
        <ele>1157.3</ele>
        <time>2010-07-02T10:23:08Z</time>
      </trkpt>
      <trkpt lat="42.687263" lon="0.789859">
        <ele>1156.4</ele>
        <time>2010-07-02T10:23:08Z</time>
      </trkpt>
      <trkpt lat="42.687350" lon="0.789914">
        <ele>1156.0</ele>
        <time>2010-07-02T10:23:08Z</time>
      </trkpt>
      <trkpt lat="42.687606" lon="0.790003">
        <ele>1154.3</ele>
        <time>2010-07-02T10:23:08Z</time>
      </trkpt>
      <trkpt lat="42.687624" lon="0.789997">
        <ele>1154.1</ele>
        <time>2010-07-02T10:23:08Z</time>
      </trkpt>
      <trkpt lat="42.687857" lon="0.790017">
        <ele>1152.1</ele>
        <time>2010-07-02T10:23:08Z</time>
      </trkpt>
      <trkpt lat="42.687957" lon="0.790001">
        <ele>1151.1</ele>
        <time>2010-07-02T10:23:08Z</time>
      </trkpt>
      <trkpt lat="42.688613" lon="0.789933">
        <ele>1144.3</ele>
        <time>2010-07-02T10:23:08Z</time>
      </trkpt>
      <trkpt lat="42.688931" lon="0.789918">
        <ele>1141.1</ele>
        <time>2010-07-02T10:23:08Z</time>
      </trkpt>
      <trkpt lat="42.689064" lon="0.789957">
        <ele>1140.3</ele>
        <time>2010-07-02T10:23:08Z</time>
      </trkpt>
      <trkpt lat="42.689250" lon="0.790127">
        <ele>1140.3</ele>
        <time>2010-07-02T10:23:08Z</time>
      </trkpt>
      <trkpt lat="42.689646" lon="0.790290">
        <ele>1138.4</ele>
        <time>2010-07-02T10:23:08Z</time>
      </trkpt>
      <trkpt lat="42.690013" lon="0.790344">
        <ele>1132.5</ele>
        <time>2010-07-02T10:23:08Z</time>
      </trkpt>
      <trkpt lat="42.690143" lon="0.790400">
        <ele>1130.2</ele>
        <time>2010-07-02T10:23:08Z</time>
      </trkpt>
      <trkpt lat="42.690354" lon="0.790550">
        <ele>1129.9</ele>
        <time>2010-07-02T10:23:08Z</time>
      </trkpt>
      <trkpt lat="42.690600" lon="0.790627">
        <ele>1128.3</ele>
        <time>2010-07-02T10:23:08Z</time>
      </trkpt>
      <trkpt lat="42.691083" lon="0.790798">
        <ele>1124.7</ele>
        <time>2010-07-02T10:23:08Z</time>
      </trkpt>
      <trkpt lat="42.691306" lon="0.790863">
        <ele>1121.9</ele>
        <time>2010-07-02T10:23:08Z</time>
      </trkpt>
      <trkpt lat="42.691797" lon="0.790930">
        <ele>1113.8</ele>
        <time>2010-07-02T10:23:08Z</time>
      </trkpt>
      <trkpt lat="42.692007" lon="0.790898">
        <ele>1109.6</ele>
        <time>2010-07-02T10:23:08Z</time>
      </trkpt>
      <trkpt lat="42.692411" lon="0.790672">
        <ele>1100.8</ele>
        <time>2010-07-02T10:23:08Z</time>
      </trkpt>
      <trkpt lat="42.692510" lon="0.790621">
        <ele>1098.4</ele>
        <time>2010-07-02T10:23:08Z</time>
      </trkpt>
      <trkpt lat="42.692621" lon="0.790608">
        <ele>1096.4</ele>
        <time>2010-07-02T10:23:08Z</time>
      </trkpt>
      <trkpt lat="42.693038" lon="0.790646">
        <ele>1091.0</ele>
        <time>2010-07-02T10:23:08Z</time>
      </trkpt>
      <trkpt lat="42.693580" lon="0.790723">
        <ele>1086.0</ele>
        <time>2010-07-02T10:23:08Z</time>
      </trkpt>
      <trkpt lat="42.693709" lon="0.790745">
        <ele>1084.8</ele>
        <time>2010-07-02T10:23:08Z</time>
      </trkpt>
      <trkpt lat="42.694162" lon="0.790834">
        <ele>1079.8</ele>
        <time>2010-07-02T10:23:08Z</time>
      </trkpt>
      <trkpt lat="42.694428" lon="0.790885">
        <ele>1076.0</ele>
        <time>2010-07-02T10:23:08Z</time>
      </trkpt>
      <trkpt lat="42.694654" lon="0.790946">
        <ele>1072.9</ele>
        <time>2010-07-02T10:23:08Z</time>
      </trkpt>
      <trkpt lat="42.694831" lon="0.790948">
        <ele>1071.7</ele>
        <time>2010-07-02T10:23:08Z</time>
      </trkpt>
      <trkpt lat="42.695045" lon="0.790932">
        <ele>1070.3</ele>
        <time>2010-07-02T10:23:08Z</time>
      </trkpt>
      <trkpt lat="42.695277" lon="0.790958">
        <ele>1068.5</ele>
        <time>2010-07-02T10:23:08Z</time>
      </trkpt>
      <trkpt lat="42.695409" lon="0.791010">
        <ele>1066.9</ele>
        <time>2010-07-02T10:23:08Z</time>
      </trkpt>
      <trkpt lat="42.695539" lon="0.791106">
        <ele>1064.4</ele>
        <time>2010-07-02T10:23:08Z</time>
      </trkpt>
      <trkpt lat="42.695655" lon="0.791242">
        <ele>1060.7</ele>
        <time>2010-07-02T10:23:08Z</time>
      </trkpt>
      <trkpt lat="42.695878" lon="0.791543">
        <ele>1062.3</ele>
        <time>2010-07-02T10:23:08Z</time>
      </trkpt>
      <trkpt lat="42.696121" lon="0.792103">
        <ele>1060.6</ele>
        <time>2010-07-02T10:23:08Z</time>
      </trkpt>
      <trkpt lat="42.696360" lon="0.792522">
        <ele>1061.4</ele>
        <time>2010-07-02T10:23:08Z</time>
      </trkpt>
      <trkpt lat="42.696427" lon="0.792628">
        <ele>1061.0</ele>
        <time>2010-07-02T10:23:08Z</time>
      </trkpt>
      <trkpt lat="42.696613" lon="0.792929">
        <ele>1056.6</ele>
        <time>2010-07-02T10:23:08Z</time>
      </trkpt>
      <trkpt lat="42.696645" lon="0.792958">
        <ele>1055.6</ele>
        <time>2010-07-02T10:23:08Z</time>
      </trkpt>
      <trkpt lat="42.696828" lon="0.793124">
        <ele>1049.9</ele>
        <time>2010-07-02T10:23:08Z</time>
      </trkpt>
      <trkpt lat="42.697004" lon="0.793250">
        <ele>1043.1</ele>
        <time>2010-07-02T10:23:08Z</time>
      </trkpt>
      <trkpt lat="42.697171" lon="0.793318">
        <ele>1039.2</ele>
        <time>2010-07-02T10:23:08Z</time>
      </trkpt>
      <trkpt lat="42.697464" lon="0.793470">
        <ele>1036.9</ele>
        <time>2010-07-02T10:23:08Z</time>
      </trkpt>
      <trkpt lat="42.697536" lon="0.793529">
        <ele>1036.0</ele>
        <time>2010-07-02T10:23:08Z</time>
      </trkpt>
      <trkpt lat="42.697720" lon="0.793678">
        <ele>1032.3</ele>
        <time>2010-07-02T10:23:08Z</time>
      </trkpt>
      <trkpt lat="42.697953" lon="0.793856">
        <ele>1029.3</ele>
        <time>2010-07-02T10:23:08Z</time>
      </trkpt>
      <trkpt lat="42.697992" lon="0.793882">
        <ele>1029.4</ele>
        <time>2010-07-02T10:23:08Z</time>
      </trkpt>
      <trkpt lat="42.698253" lon="0.794038">
        <ele>1027.6</ele>
        <time>2010-07-02T10:23:08Z</time>
      </trkpt>
      <trkpt lat="42.698539" lon="0.794125">
        <ele>1021.8</ele>
        <time>2010-07-02T10:23:08Z</time>
      </trkpt>
      <trkpt lat="42.698553" lon="0.794125">
        <ele>1021.5</ele>
        <time>2010-07-02T10:23:08Z</time>
      </trkpt>
      <trkpt lat="42.698864" lon="0.794163">
        <ele>1015.3</ele>
        <time>2010-07-02T10:23:08Z</time>
      </trkpt>
      <trkpt lat="42.699093" lon="0.794254">
        <ele>1012.0</ele>
        <time>2010-07-02T10:23:08Z</time>
      </trkpt>
      <trkpt lat="42.699152" lon="0.794256">
        <ele>1011.2</ele>
        <time>2010-07-02T10:23:08Z</time>
      </trkpt>
      <trkpt lat="42.699283" lon="0.794260">
        <ele>1009.5</ele>
        <time>2010-07-02T10:23:08Z</time>
      </trkpt>
      <trkpt lat="42.699648" lon="0.794213">
        <ele>1005.7</ele>
        <time>2010-07-02T10:23:08Z</time>
      </trkpt>
      <trkpt lat="42.699768" lon="0.794213">
        <ele>1004.1</ele>
        <time>2010-07-02T10:23:08Z</time>
      </trkpt>
      <trkpt lat="42.699933" lon="0.794241">
        <ele>1001.3</ele>
        <time>2010-07-02T10:23:08Z</time>
      </trkpt>
      <trkpt lat="42.699997" lon="0.794252">
        <ele>1000.3</ele>
        <time>2010-07-02T10:23:08Z</time>
      </trkpt>
      <trkpt lat="42.700095" lon="0.794246">
        <ele>999.1</ele>
        <time>2010-07-02T10:23:08Z</time>
      </trkpt>
      <trkpt lat="42.700108" lon="0.794164">
        <ele>1000.3</ele>
        <time>2010-07-02T10:23:08Z</time>
      </trkpt>
      <trkpt lat="42.700135" lon="0.793988">
        <ele>1002.8</ele>
        <time>2010-07-02T10:23:08Z</time>
      </trkpt>
      <trkpt lat="42.700504" lon="0.794096">
        <ele>996.3</ele>
        <time>2010-07-02T10:23:08Z</time>
      </trkpt>
      <trkpt lat="42.700720" lon="0.794160">
        <ele>993.7</ele>
        <time>2010-07-02T10:23:08Z</time>
      </trkpt>
      <trkpt lat="42.700791" lon="0.794204">
        <ele>992.6</ele>
        <time>2010-07-02T10:23:08Z</time>
      </trkpt>
      <trkpt lat="42.701050" lon="0.794366">
        <ele>988.7</ele>
        <time>2010-07-02T10:23:08Z</time>
      </trkpt>
      <trkpt lat="42.701303" lon="0.794616">
        <ele>984.6</ele>
        <time>2010-07-02T10:23:08Z</time>
      </trkpt>
      <trkpt lat="42.701511" lon="0.794823">
        <ele>982.7</ele>
        <time>2010-07-02T10:23:08Z</time>
      </trkpt>
      <trkpt lat="42.701640" lon="0.794979">
        <ele>981.5</ele>
        <time>2010-07-02T10:23:08Z</time>
      </trkpt>
      <trkpt lat="42.701861" lon="0.795184">
        <ele>979.4</ele>
        <time>2010-07-02T10:23:08Z</time>
      </trkpt>
      <trkpt lat="42.702046" lon="0.795357">
        <ele>977.4</ele>
        <time>2010-07-02T10:23:08Z</time>
      </trkpt>
      <trkpt lat="42.702091" lon="0.795370">
        <ele>977.1</ele>
        <time>2010-07-02T10:23:08Z</time>
      </trkpt>
      <trkpt lat="42.702283" lon="0.795475">
        <ele>976.4</ele>
        <time>2010-07-02T10:23:08Z</time>
      </trkpt>
      <trkpt lat="42.702245" lon="0.795608">
        <ele>976.2</ele>
        <time>2010-07-02T10:23:08Z</time>
      </trkpt>
      <trkpt lat="42.702495" lon="0.795910">
        <ele>974.5</ele>
        <time>2010-07-02T10:23:08Z</time>
      </trkpt>
      <trkpt lat="42.702625" lon="0.796058">
        <ele>973.4</ele>
        <time>2010-07-02T10:23:08Z</time>
      </trkpt>
      <trkpt lat="42.702725" lon="0.796161">
        <ele>972.5</ele>
        <time>2010-07-02T10:23:08Z</time>
      </trkpt>
      <trkpt lat="42.702839" lon="0.796302">
        <ele>971.4</ele>
        <time>2010-07-02T10:23:08Z</time>
      </trkpt>
      <trkpt lat="42.703132" lon="0.796364">
        <ele>970.8</ele>
        <time>2010-07-02T10:23:08Z</time>
      </trkpt>
      <trkpt lat="42.703211" lon="0.796405">
        <ele>970.6</ele>
        <time>2010-07-02T10:23:08Z</time>
      </trkpt>
      <trkpt lat="42.703248" lon="0.796180">
        <ele>971.2</ele>
        <time>2010-07-02T10:23:08Z</time>
      </trkpt>
      <trkpt lat="42.703289" lon="0.795958">
        <ele>971.9</ele>
        <time>2010-07-02T10:23:08Z</time>
      </trkpt>
      <trkpt lat="42.703313" lon="0.795721">
        <ele>972.6</ele>
        <time>2010-07-02T10:23:08Z</time>
      </trkpt>
      <trkpt lat="42.703290" lon="0.795659">
        <ele>972.9</ele>
        <time>2010-07-02T10:23:08Z</time>
      </trkpt>
      <trkpt lat="42.703156" lon="0.795603">
        <ele>973.4</ele>
        <time>2010-07-02T10:23:08Z</time>
      </trkpt>
      <trkpt lat="42.703142" lon="0.795517">
        <ele>973.8</ele>
        <time>2010-07-02T10:23:08Z</time>
      </trkpt>
      <trkpt lat="42.703397" lon="0.795111">
        <ele>973.6</ele>
        <time>2010-07-02T10:23:08Z</time>
      </trkpt>
      <trkpt lat="42.703682" lon="0.794658">
        <ele>972.4</ele>
        <time>2010-07-02T10:23:08Z</time>
      </trkpt>
      <trkpt lat="42.703908" lon="0.794299">
        <ele>973.7</ele>
        <time>2010-07-02T10:23:08Z</time>
      </trkpt>
      <trkpt lat="42.704176" lon="0.793896">
        <ele>976.9</ele>
        <time>2010-07-02T10:23:08Z</time>
      </trkpt>
      <trkpt lat="42.704464" lon="0.793413">
        <ele>981.6</ele>
        <time>2010-07-02T10:23:08Z</time>
      </trkpt>
      <trkpt lat="42.704947" lon="0.792566">
        <ele>989.1</ele>
        <time>2010-07-02T10:23:08Z</time>
      </trkpt>
      <trkpt lat="42.705102" lon="0.792307">
        <ele>991.7</ele>
        <time>2010-07-02T10:23:08Z</time>
      </trkpt>
      <trkpt lat="42.705143" lon="0.792159">
        <ele>993.2</ele>
        <time>2010-07-02T10:23:08Z</time>
      </trkpt>
      <trkpt lat="42.705176" lon="0.792087">
        <ele>994.0</ele>
        <time>2010-07-02T10:23:08Z</time>
      </trkpt>
      <trkpt lat="42.705595" lon="0.792029">
        <ele>993.9</ele>
        <time>2010-07-02T10:23:08Z</time>
      </trkpt>
      <trkpt lat="42.705732" lon="0.791974">
        <ele>994.0</ele>
        <time>2010-07-02T10:23:08Z</time>
      </trkpt>
      <trkpt lat="42.705974" lon="0.791899">
        <ele>994.0</ele>
        <time>2010-07-02T10:23:08Z</time>
      </trkpt>
      <trkpt lat="42.706269" lon="0.791745">
        <ele>995.1</ele>
        <time>2010-07-02T10:23:08Z</time>
      </trkpt>
      <trkpt lat="42.706504" lon="0.791680">
        <ele>994.5</ele>
        <time>2010-07-02T10:23:08Z</time>
      </trkpt>
      <trkpt lat="42.706835" lon="0.791645">
        <ele>992.5</ele>
        <time>2010-07-02T10:23:08Z</time>
      </trkpt>
      <trkpt lat="42.707001" lon="0.791696">
        <ele>990.8</ele>
        <time>2010-07-02T10:23:08Z</time>
      </trkpt>
      <trkpt lat="42.707421" lon="0.791928">
        <ele>992.7</ele>
        <time>2010-07-02T10:23:08Z</time>
      </trkpt>
      <trkpt lat="42.707518" lon="0.791966">
        <ele>993.5</ele>
        <time>2010-07-02T10:23:08Z</time>
      </trkpt>
      <trkpt lat="42.707550" lon="0.791877">
        <ele>994.9</ele>
        <time>2010-07-02T10:23:08Z</time>
      </trkpt>
      <trkpt lat="42.707525" lon="0.791741">
        <ele>996.1</ele>
        <time>2010-07-02T10:23:08Z</time>
      </trkpt>
      <trkpt lat="42.707519" lon="0.791661">
        <ele>996.8</ele>
        <time>2010-07-02T10:23:08Z</time>
      </trkpt>
      <trkpt lat="42.707546" lon="0.791563">
        <ele>998.3</ele>
        <time>2010-07-02T10:23:08Z</time>
      </trkpt>
      <trkpt lat="42.707642" lon="0.791387">
        <ele>1001.8</ele>
        <time>2010-07-02T10:23:08Z</time>
      </trkpt>
      <trkpt lat="42.707742" lon="0.791270">
        <ele>1004.8</ele>
        <time>2010-07-02T10:23:08Z</time>
      </trkpt>
      <trkpt lat="42.707788" lon="0.791118">
        <ele>1008.0</ele>
        <time>2010-07-02T10:23:08Z</time>
      </trkpt>
      <trkpt lat="42.707822" lon="0.790967">
        <ele>1011.1</ele>
        <time>2010-07-02T10:23:08Z</time>
      </trkpt>
      <trkpt lat="42.707868" lon="0.790878">
        <ele>1013.4</ele>
        <time>2010-07-02T10:23:08Z</time>
      </trkpt>
      <trkpt lat="42.707893" lon="0.790814">
        <ele>1014.9</ele>
        <time>2010-07-02T10:23:08Z</time>
      </trkpt>
      <trkpt lat="42.707961" lon="0.790595">
        <ele>1020.0</ele>
        <time>2010-07-02T10:23:08Z</time>
      </trkpt>
      <trkpt lat="42.708010" lon="0.790353">
        <ele>1025.3</ele>
        <time>2010-07-02T10:23:08Z</time>
      </trkpt>
      <trkpt lat="42.707994" lon="0.790027">
        <ele>1031.7</ele>
        <time>2010-07-02T10:23:08Z</time>
      </trkpt>
      <trkpt lat="42.707958" lon="0.789812">
        <ele>1035.3</ele>
        <time>2010-07-02T10:23:08Z</time>
      </trkpt>
      <trkpt lat="42.707903" lon="0.789677">
        <ele>1036.9</ele>
        <time>2010-07-02T10:23:08Z</time>
      </trkpt>
      <trkpt lat="42.707865" lon="0.789595">
        <ele>1037.9</ele>
        <time>2010-07-02T10:23:08Z</time>
      </trkpt>
      <trkpt lat="42.707854" lon="0.789512">
        <ele>1040.6</ele>
        <time>2010-07-02T10:23:08Z</time>
      </trkpt>
      <trkpt lat="42.707864" lon="0.789302">
        <ele>1048.8</ele>
        <time>2010-07-02T10:23:08Z</time>
      </trkpt>
      <trkpt lat="42.707825" lon="0.789183">
        <ele>1052.5</ele>
        <time>2010-07-02T10:23:08Z</time>
      </trkpt>
      <trkpt lat="42.707725" lon="0.788970">
        <ele>1058.3</ele>
        <time>2010-07-02T10:23:08Z</time>
      </trkpt>
      <trkpt lat="42.707676" lon="0.788868">
        <ele>1060.9</ele>
        <time>2010-07-02T10:23:08Z</time>
      </trkpt>
      <trkpt lat="42.707640" lon="0.788769">
        <ele>1063.7</ele>
        <time>2010-07-02T10:23:08Z</time>
      </trkpt>
      <trkpt lat="42.707872" lon="0.788781">
        <ele>1068.7</ele>
        <time>2010-07-02T10:23:08Z</time>
      </trkpt>
      <trkpt lat="42.708072" lon="0.788821">
        <ele>1072.7</ele>
        <time>2010-07-02T10:23:08Z</time>
      </trkpt>
      <trkpt lat="42.708162" lon="0.788774">
        <ele>1077.1</ele>
        <time>2010-07-02T10:23:08Z</time>
      </trkpt>
      <trkpt lat="42.708241" lon="0.788711">
        <ele>1081.9</ele>
        <time>2010-07-02T10:23:08Z</time>
      </trkpt>
      <trkpt lat="42.708315" lon="0.788709">
        <ele>1084.1</ele>
        <time>2010-07-02T10:23:08Z</time>
      </trkpt>
      <trkpt lat="42.708369" lon="0.788707">
        <ele>1085.8</ele>
        <time>2010-07-02T10:23:08Z</time>
      </trkpt>
      <trkpt lat="42.708404" lon="0.788705">
        <ele>1086.8</ele>
        <time>2010-07-02T10:23:08Z</time>
      </trkpt>
      <trkpt lat="42.708439" lon="0.788685">
        <ele>1088.7</ele>
        <time>2010-07-02T10:23:08Z</time>
      </trkpt>
      <trkpt lat="42.708411" lon="0.788592">
        <ele>1091.6</ele>
        <time>2010-07-02T10:23:08Z</time>
      </trkpt>
      <trkpt lat="42.708409" lon="0.788582">
        <ele>1092.0</ele>
        <time>2010-07-02T10:23:08Z</time>
      </trkpt>
      <trkpt lat="42.708410" lon="0.788538">
        <ele>1093.8</ele>
        <time>2010-07-02T10:23:08Z</time>
      </trkpt>
      <trkpt lat="42.708444" lon="0.788474">
        <ele>1097.4</ele>
        <time>2010-07-02T10:23:08Z</time>
      </trkpt>
      <trkpt lat="42.708500" lon="0.788462">
        <ele>1099.6</ele>
        <time>2010-07-02T10:23:08Z</time>
      </trkpt>
      <trkpt lat="42.708566" lon="0.788460">
        <ele>1101.7</ele>
        <time>2010-07-02T10:23:08Z</time>
      </trkpt>
      <trkpt lat="42.709023" lon="0.788540">
        <ele>1110.3</ele>
        <time>2010-07-02T10:23:08Z</time>
      </trkpt>
      <trkpt lat="42.709194" lon="0.788601">
        <ele>1111.9</ele>
        <time>2010-07-02T10:23:08Z</time>
      </trkpt>
      <trkpt lat="42.709320" lon="0.788676">
        <ele>1111.8</ele>
        <time>2010-07-02T10:23:08Z</time>
      </trkpt>
      <trkpt lat="42.709554" lon="0.788772">
        <ele>1113.6</ele>
        <time>2010-07-02T10:23:08Z</time>
      </trkpt>
      <trkpt lat="42.709735" lon="0.788719">
        <ele>1122.3</ele>
        <time>2010-07-02T10:23:08Z</time>
      </trkpt>
      <trkpt lat="42.709816" lon="0.788759">
        <ele>1123.9</ele>
        <time>2010-07-02T10:23:08Z</time>
      </trkpt>
      <trkpt lat="42.709881" lon="0.788810">
        <ele>1124.8</ele>
        <time>2010-07-02T10:23:08Z</time>
      </trkpt>
      <trkpt lat="42.709981" lon="0.788906">
        <ele>1125.4</ele>
        <time>2010-07-02T10:23:08Z</time>
      </trkpt>
      <trkpt lat="42.710070" lon="0.789037">
        <ele>1124.4</ele>
        <time>2010-07-02T10:23:08Z</time>
      </trkpt>
      <trkpt lat="42.710135" lon="0.789111">
        <ele>1124.4</ele>
        <time>2010-07-02T10:23:08Z</time>
      </trkpt>
      <trkpt lat="42.710220" lon="0.789161">
        <ele>1126.0</ele>
        <time>2010-07-02T10:23:08Z</time>
      </trkpt>
      <trkpt lat="42.710529" lon="0.789230">
        <ele>1135.1</ele>
        <time>2010-07-02T10:23:08Z</time>
      </trkpt>
      <trkpt lat="42.710654" lon="0.789239">
        <ele>1139.0</ele>
        <time>2010-07-02T10:23:08Z</time>
      </trkpt>
      <trkpt lat="42.710764" lon="0.789205">
        <ele>1144.0</ele>
        <time>2010-07-02T10:23:08Z</time>
      </trkpt>
      <trkpt lat="42.710845" lon="0.789162">
        <ele>1148.3</ele>
        <time>2010-07-02T10:23:08Z</time>
      </trkpt>
      <trkpt lat="42.711038" lon="0.789012">
        <ele>1160.5</ele>
        <time>2010-07-02T10:23:08Z</time>
      </trkpt>
      <trkpt lat="42.711278" lon="0.788830">
        <ele>1175.5</ele>
        <time>2010-07-02T10:23:08Z</time>
      </trkpt>
      <trkpt lat="42.711410" lon="0.788772">
        <ele>1180.4</ele>
        <time>2010-07-02T10:23:08Z</time>
      </trkpt>
      <trkpt lat="42.711528" lon="0.788765">
        <ele>1183.1</ele>
        <time>2010-07-02T10:23:08Z</time>
      </trkpt>
      <trkpt lat="42.711668" lon="0.788763">
        <ele>1186.0</ele>
        <time>2010-07-02T10:23:08Z</time>
      </trkpt>
      <trkpt lat="42.711774" lon="0.788790">
        <ele>1187.1</ele>
        <time>2010-07-02T10:23:08Z</time>
      </trkpt>
      <trkpt lat="42.711982" lon="0.788869">
        <ele>1188.0</ele>
        <time>2010-07-02T10:23:08Z</time>
      </trkpt>
      <trkpt lat="42.712032" lon="0.788883">
        <ele>1188.4</ele>
        <time>2010-07-02T10:23:08Z</time>
      </trkpt>
      <trkpt lat="42.712155" lon="0.789023">
        <ele>1185.6</ele>
        <time>2010-07-02T10:23:08Z</time>
      </trkpt>
      <trkpt lat="42.712366" lon="0.789128">
        <ele>1187.5</ele>
        <time>2010-07-02T10:23:08Z</time>
      </trkpt>
      <trkpt lat="42.712637" lon="0.789299">
        <ele>1189.2</ele>
        <time>2010-07-02T10:23:08Z</time>
      </trkpt>
      <trkpt lat="42.712814" lon="0.789289">
        <ele>1195.0</ele>
        <time>2010-07-02T10:23:08Z</time>
      </trkpt>
      <trkpt lat="42.713043" lon="0.789191">
        <ele>1203.7</ele>
        <time>2010-07-02T10:23:08Z</time>
      </trkpt>
      <trkpt lat="42.713163" lon="0.789124">
        <ele>1207.8</ele>
        <time>2010-07-02T10:23:08Z</time>
      </trkpt>
      <trkpt lat="42.713241" lon="0.789082">
        <ele>1210.3</ele>
        <time>2010-07-02T10:23:08Z</time>
      </trkpt>
      <trkpt lat="42.713196" lon="0.788978">
        <ele>1212.8</ele>
        <time>2010-07-02T10:23:08Z</time>
      </trkpt>
      <trkpt lat="42.713145" lon="0.788868">
        <ele>1215.5</ele>
        <time>2010-07-02T10:23:08Z</time>
      </trkpt>
      <trkpt lat="42.713112" lon="0.788812">
        <ele>1216.9</ele>
        <time>2010-07-02T10:23:08Z</time>
      </trkpt>
      <trkpt lat="42.713069" lon="0.788760">
        <ele>1218.1</ele>
        <time>2010-07-02T10:23:08Z</time>
      </trkpt>
      <trkpt lat="42.713039" lon="0.788734">
        <ele>1218.9</ele>
        <time>2010-07-02T10:23:08Z</time>
      </trkpt>
      <trkpt lat="42.712963" lon="0.788693">
        <ele>1220.0</ele>
        <time>2010-07-02T10:23:08Z</time>
      </trkpt>
      <trkpt lat="42.712993" lon="0.788610">
        <ele>1224.0</ele>
        <time>2010-07-02T10:23:08Z</time>
      </trkpt>
      <trkpt lat="42.713110" lon="0.788465">
        <ele>1231.7</ele>
        <time>2010-07-02T10:23:08Z</time>
      </trkpt>
      <trkpt lat="42.713199" lon="0.788344">
        <ele>1238.1</ele>
        <time>2010-07-02T10:23:08Z</time>
      </trkpt>
      <trkpt lat="42.713318" lon="0.788265">
        <ele>1243.0</ele>
        <time>2010-07-02T10:23:08Z</time>
      </trkpt>
      <trkpt lat="42.713448" lon="0.788237">
        <ele>1245.7</ele>
        <time>2010-07-02T10:23:08Z</time>
      </trkpt>
      <trkpt lat="42.713638" lon="0.788266">
        <ele>1246.4</ele>
        <time>2010-07-02T10:23:08Z</time>
      </trkpt>
      <trkpt lat="42.713848" lon="0.788216">
        <ele>1252.4</ele>
        <time>2010-07-02T10:23:08Z</time>
      </trkpt>
      <trkpt lat="42.714018" lon="0.788220">
        <ele>1256.4</ele>
        <time>2010-07-02T10:23:08Z</time>
      </trkpt>
      <trkpt lat="42.714371" lon="0.788147">
        <ele>1267.6</ele>
        <time>2010-07-02T10:23:08Z</time>
      </trkpt>
      <trkpt lat="42.714684" lon="0.788079">
        <ele>1275.5</ele>
        <time>2010-07-02T10:23:08Z</time>
      </trkpt>
      <trkpt lat="42.714822" lon="0.787993">
        <ele>1279.3</ele>
        <time>2010-07-02T10:23:08Z</time>
      </trkpt>
      <trkpt lat="42.714922" lon="0.787919">
        <ele>1282.4</ele>
        <time>2010-07-02T10:23:08Z</time>
      </trkpt>
      <trkpt lat="42.714976" lon="0.787789">
        <ele>1286.4</ele>
        <time>2010-07-02T10:23:08Z</time>
      </trkpt>
      <trkpt lat="42.715006" lon="0.787678">
        <ele>1289.8</ele>
        <time>2010-07-02T10:23:08Z</time>
      </trkpt>
      <trkpt lat="42.715007" lon="0.787607">
        <ele>1291.8</ele>
        <time>2010-07-02T10:23:08Z</time>
      </trkpt>
      <trkpt lat="42.714998" lon="0.787538">
        <ele>1293.7</ele>
        <time>2010-07-02T10:23:08Z</time>
      </trkpt>
      <trkpt lat="42.715024" lon="0.787480">
        <ele>1295.4</ele>
        <time>2010-07-02T10:23:08Z</time>
      </trkpt>
      <trkpt lat="42.715073" lon="0.787435">
        <ele>1296.9</ele>
        <time>2010-07-02T10:23:08Z</time>
      </trkpt>
      <trkpt lat="42.715156" lon="0.787309">
        <ele>1300.8</ele>
        <time>2010-07-02T10:23:08Z</time>
      </trkpt>
      <trkpt lat="42.715162" lon="0.787212">
        <ele>1303.5</ele>
        <time>2010-07-02T10:23:08Z</time>
      </trkpt>
      <trkpt lat="42.715205" lon="0.787037">
        <ele>1308.3</ele>
        <time>2010-07-02T10:23:08Z</time>
      </trkpt>
      <trkpt lat="42.715207" lon="0.786763">
        <ele>1314.5</ele>
        <time>2010-07-02T10:23:08Z</time>
      </trkpt>
      <trkpt lat="42.715218" lon="0.786511">
        <ele>1320.3</ele>
        <time>2010-07-02T10:23:08Z</time>
      </trkpt>
      <trkpt lat="42.715358" lon="0.786213">
        <ele>1326.4</ele>
        <time>2010-07-02T10:23:08Z</time>
      </trkpt>
      <trkpt lat="42.715328" lon="0.785759">
        <ele>1339.4</ele>
        <time>2010-07-02T10:23:08Z</time>
      </trkpt>
      <trkpt lat="42.715308" lon="0.785303">
        <ele>1353.3</ele>
        <time>2010-07-02T10:23:08Z</time>
      </trkpt>
      <trkpt lat="42.715194" lon="0.785014">
        <ele>1364.8</ele>
        <time>2010-07-02T10:23:08Z</time>
      </trkpt>
      <trkpt lat="42.715176" lon="0.784654">
        <ele>1377.7</ele>
        <time>2010-07-02T10:23:08Z</time>
      </trkpt>
      <trkpt lat="42.715143" lon="0.784462">
        <ele>1384.3</ele>
        <time>2010-07-02T10:23:08Z</time>
      </trkpt>
      <trkpt lat="42.715121" lon="0.784336">
        <ele>1388.4</ele>
        <time>2010-07-02T10:23:08Z</time>
      </trkpt>
      <trkpt lat="42.715011" lon="0.784373">
        <ele>1388.8</ele>
        <time>2010-07-02T10:23:08Z</time>
      </trkpt>
      <trkpt lat="42.714954" lon="0.784348">
        <ele>1390.3</ele>
        <time>2010-07-02T10:23:08Z</time>
      </trkpt>
      <trkpt lat="42.714910" lon="0.784361">
        <ele>1390.5</ele>
        <time>2010-07-02T10:23:08Z</time>
      </trkpt>
      <trkpt lat="42.714904" lon="0.784297">
        <ele>1392.6</ele>
        <time>2010-07-02T10:23:08Z</time>
      </trkpt>
      <trkpt lat="42.714913" lon="0.784263">
        <ele>1393.5</ele>
        <time>2010-07-02T10:23:08Z</time>
      </trkpt>
      <trkpt lat="42.714945" lon="0.784191">
        <ele>1395.3</ele>
        <time>2010-07-02T10:23:08Z</time>
      </trkpt>
      <trkpt lat="42.714970" lon="0.784161">
        <ele>1395.8</ele>
        <time>2010-07-02T10:23:08Z</time>
      </trkpt>
      <trkpt lat="42.714993" lon="0.784090">
        <ele>1397.7</ele>
        <time>2010-07-02T10:23:08Z</time>
      </trkpt>
      <trkpt lat="42.715027" lon="0.784056">
        <ele>1398.3</ele>
        <time>2010-07-02T10:23:08Z</time>
      </trkpt>
      <trkpt lat="42.715066" lon="0.783934">
        <ele>1401.4</ele>
        <time>2010-07-02T10:23:08Z</time>
      </trkpt>
      <trkpt lat="42.715062" lon="0.783834">
        <ele>1404.5</ele>
        <time>2010-07-02T10:23:08Z</time>
      </trkpt>
      <trkpt lat="42.715030" lon="0.783695">
        <ele>1409.3</ele>
        <time>2010-07-02T10:23:08Z</time>
      </trkpt>
      <trkpt lat="42.714983" lon="0.783594">
        <ele>1413.3</ele>
        <time>2010-07-02T10:23:08Z</time>
      </trkpt>
      <trkpt lat="42.714943" lon="0.783511">
        <ele>1416.5</ele>
        <time>2010-07-02T10:23:08Z</time>
      </trkpt>
      <trkpt lat="42.714911" lon="0.783416">
        <ele>1420.0</ele>
        <time>2010-07-02T10:23:08Z</time>
      </trkpt>
      <trkpt lat="42.714955" lon="0.783332">
        <ele>1422.1</ele>
        <time>2010-07-02T10:23:08Z</time>
      </trkpt>
      <trkpt lat="42.714908" lon="0.783193">
        <ele>1427.2</ele>
        <time>2010-07-02T10:23:08Z</time>
      </trkpt>
      <trkpt lat="42.715000" lon="0.783072">
        <ele>1430.0</ele>
        <time>2010-07-02T10:23:08Z</time>
      </trkpt>
      <trkpt lat="42.715065" lon="0.782995">
        <ele>1431.7</ele>
        <time>2010-07-02T10:23:08Z</time>
      </trkpt>
      <trkpt lat="42.714916" lon="0.782892">
        <ele>1436.8</ele>
        <time>2010-07-02T10:23:08Z</time>
      </trkpt>
      <trkpt lat="42.714906" lon="0.782876">
        <ele>1437.4</ele>
        <time>2010-07-02T10:23:08Z</time>
      </trkpt>
      <trkpt lat="42.714937" lon="0.782821">
        <ele>1438.9</ele>
        <time>2010-07-02T10:23:08Z</time>
      </trkpt>
      <trkpt lat="42.715036" lon="0.782615">
        <ele>1444.8</ele>
        <time>2010-07-02T10:23:08Z</time>
      </trkpt>
      <trkpt lat="42.714983" lon="0.782573">
        <ele>1446.7</ele>
        <time>2010-07-02T10:23:08Z</time>
      </trkpt>
      <trkpt lat="42.714837" lon="0.782518">
        <ele>1449.6</ele>
        <time>2010-07-02T10:23:08Z</time>
      </trkpt>
      <trkpt lat="42.714641" lon="0.782485">
        <ele>1452.0</ele>
        <time>2010-07-02T10:23:08Z</time>
      </trkpt>
      <trkpt lat="42.714488" lon="0.782524">
        <ele>1452.0</ele>
        <time>2010-07-02T10:23:08Z</time>
      </trkpt>
      <trkpt lat="42.714274" lon="0.782508">
        <ele>1454.0</ele>
        <time>2010-07-02T10:23:08Z</time>
      </trkpt>
      <trkpt lat="42.714090" lon="0.782388">
        <ele>1458.8</ele>
        <time>2010-07-02T10:23:08Z</time>
      </trkpt>
      <trkpt lat="42.714013" lon="0.782358">
        <ele>1460.2</ele>
        <time>2010-07-02T10:23:08Z</time>
      </trkpt>
      <trkpt lat="42.713987" lon="0.782305">
        <ele>1461.9</ele>
        <time>2010-07-02T10:23:08Z</time>
      </trkpt>
      <trkpt lat="42.713981" lon="0.782219">
        <ele>1464.4</ele>
        <time>2010-07-02T10:23:08Z</time>
      </trkpt>
      <trkpt lat="42.713985" lon="0.782078">
        <ele>1468.4</ele>
        <time>2010-07-02T10:23:08Z</time>
      </trkpt>
      <trkpt lat="42.713968" lon="0.781936">
        <ele>1471.3</ele>
        <time>2010-07-02T10:23:08Z</time>
      </trkpt>
      <trkpt lat="42.713926" lon="0.781817">
        <ele>1473.9</ele>
        <time>2010-07-02T10:23:08Z</time>
      </trkpt>
      <trkpt lat="42.713901" lon="0.781651">
        <ele>1477.2</ele>
        <time>2010-07-02T10:23:08Z</time>
      </trkpt>
      <trkpt lat="42.713912" lon="0.781347">
        <ele>1482.9</ele>
        <time>2010-07-02T10:23:08Z</time>
      </trkpt>
      <trkpt lat="42.713939" lon="0.781203">
        <ele>1485.8</ele>
        <time>2010-07-02T10:23:08Z</time>
      </trkpt>
      <trkpt lat="42.713962" lon="0.781132">
        <ele>1487.3</ele>
        <time>2010-07-02T10:23:08Z</time>
      </trkpt>
      <trkpt lat="42.714011" lon="0.781124">
        <ele>1487.5</ele>
        <time>2010-07-02T10:23:08Z</time>
      </trkpt>
      <trkpt lat="42.714105" lon="0.781157">
        <ele>1486.7</ele>
        <time>2010-07-02T10:23:08Z</time>
      </trkpt>
      <trkpt lat="42.714172" lon="0.781151">
        <ele>1486.8</ele>
        <time>2010-07-02T10:23:08Z</time>
      </trkpt>
      <trkpt lat="42.714250" lon="0.781135">
        <ele>1487.1</ele>
        <time>2010-07-02T10:23:08Z</time>
      </trkpt>
      <trkpt lat="42.714345" lon="0.781058">
        <ele>1489.0</ele>
        <time>2010-07-02T10:23:08Z</time>
      </trkpt>
      <trkpt lat="42.714338" lon="0.780934">
        <ele>1492.1</ele>
        <time>2010-07-02T10:23:08Z</time>
      </trkpt>
      <trkpt lat="42.714318" lon="0.780783">
        <ele>1495.8</ele>
        <time>2010-07-02T10:23:08Z</time>
      </trkpt>
      <trkpt lat="42.714241" lon="0.780649">
        <ele>1498.8</ele>
        <time>2010-07-02T10:23:08Z</time>
      </trkpt>
      <trkpt lat="42.714132" lon="0.780403">
        <ele>1504.2</ele>
        <time>2010-07-02T10:23:08Z</time>
      </trkpt>
      <trkpt lat="42.713971" lon="0.780041">
        <ele>1512.6</ele>
        <time>2010-07-02T10:23:08Z</time>
      </trkpt>
      <trkpt lat="42.713902" lon="0.779774">
        <ele>1519.1</ele>
        <time>2010-07-02T10:23:08Z</time>
      </trkpt>
      <trkpt lat="42.713828" lon="0.779474">
        <ele>1525.5</ele>
        <time>2010-07-02T10:23:08Z</time>
      </trkpt>
      <trkpt lat="42.713829" lon="0.779165">
        <ele>1531.2</ele>
        <time>2010-07-02T10:23:08Z</time>
      </trkpt>
      <trkpt lat="42.713913" lon="0.778868">
        <ele>1536.7</ele>
        <time>2010-07-02T10:23:08Z</time>
      </trkpt>
      <trkpt lat="42.713895" lon="0.778583">
        <ele>1542.9</ele>
        <time>2010-07-02T10:23:08Z</time>
      </trkpt>
      <trkpt lat="42.714095" lon="0.778377">
        <ele>1546.1</ele>
        <time>2010-07-02T10:23:08Z</time>
      </trkpt>
      <trkpt lat="42.714295" lon="0.777998">
        <ele>1550.2</ele>
        <time>2010-07-02T10:23:08Z</time>
      </trkpt>
      <trkpt lat="42.714401" lon="0.777750">
        <ele>1552.8</ele>
        <time>2010-07-02T10:23:08Z</time>
      </trkpt>
      <trkpt lat="42.714403" lon="0.777611">
        <ele>1555.6</ele>
        <time>2010-07-02T10:23:08Z</time>
      </trkpt>
      <trkpt lat="42.714338" lon="0.777459">
        <ele>1560.0</ele>
        <time>2010-07-02T10:23:08Z</time>
      </trkpt>
      <trkpt lat="42.714362" lon="0.777286">
        <ele>1563.0</ele>
        <time>2010-07-02T10:23:08Z</time>
      </trkpt>
      <trkpt lat="42.714329" lon="0.777123">
        <ele>1567.0</ele>
        <time>2010-07-02T10:23:08Z</time>
      </trkpt>
      <trkpt lat="42.714471" lon="0.776790">
        <ele>1571.1</ele>
        <time>2010-07-02T10:23:08Z</time>
      </trkpt>
      <trkpt lat="42.714579" lon="0.776458">
        <ele>1574.9</ele>
        <time>2010-07-02T10:23:08Z</time>
      </trkpt>
      <trkpt lat="42.714756" lon="0.776367">
        <ele>1578.0</ele>
        <time>2010-07-02T10:23:08Z</time>
      </trkpt>
      <trkpt lat="42.714932" lon="0.776136">
        <ele>1584.0</ele>
        <time>2010-07-02T10:23:08Z</time>
      </trkpt>
      <trkpt lat="42.714979" lon="0.776036">
        <ele>1586.5</ele>
        <time>2010-07-02T10:23:08Z</time>
      </trkpt>
      <trkpt lat="42.714980" lon="0.775901">
        <ele>1589.4</ele>
        <time>2010-07-02T10:23:08Z</time>
      </trkpt>
      <trkpt lat="42.714909" lon="0.775759">
        <ele>1592.3</ele>
        <time>2010-07-02T10:23:08Z</time>
      </trkpt>
      <trkpt lat="42.714872" lon="0.775636">
        <ele>1595.0</ele>
        <time>2010-07-02T10:23:08Z</time>
      </trkpt>
      <trkpt lat="42.714827" lon="0.775456">
        <ele>1599.1</ele>
        <time>2010-07-02T10:23:08Z</time>
      </trkpt>
      <trkpt lat="42.714806" lon="0.775198">
        <ele>1603.9</ele>
        <time>2010-07-02T10:23:08Z</time>
      </trkpt>
      <trkpt lat="42.714870" lon="0.774916">
        <ele>1608.3</ele>
        <time>2010-07-02T10:23:08Z</time>
      </trkpt>
      <trkpt lat="42.714911" lon="0.774692">
        <ele>1611.4</ele>
        <time>2010-07-02T10:23:08Z</time>
      </trkpt>
      <trkpt lat="42.714948" lon="0.774411">
        <ele>1615.7</ele>
        <time>2010-07-02T10:23:08Z</time>
      </trkpt>
      <trkpt lat="42.715025" lon="0.774224">
        <ele>1617.4</ele>
        <time>2010-07-02T10:23:08Z</time>
      </trkpt>
      <trkpt lat="42.715088" lon="0.774020">
        <ele>1619.3</ele>
        <time>2010-07-02T10:23:08Z</time>
      </trkpt>
      <trkpt lat="42.714925" lon="0.774013">
        <ele>1623.7</ele>
        <time>2010-07-02T10:23:08Z</time>
      </trkpt>
      <trkpt lat="42.714831" lon="0.774130">
        <ele>1623.8</ele>
        <time>2010-07-02T10:23:08Z</time>
      </trkpt>
      <trkpt lat="42.714649" lon="0.774173">
        <ele>1627.3</ele>
        <time>2010-07-02T10:23:08Z</time>
      </trkpt>
      <trkpt lat="42.714513" lon="0.774093">
        <ele>1632.2</ele>
        <time>2010-07-02T10:23:08Z</time>
      </trkpt>
      <trkpt lat="42.714461" lon="0.773873">
        <ele>1638.1</ele>
        <time>2010-07-02T10:23:08Z</time>
      </trkpt>
      <trkpt lat="42.714508" lon="0.773558">
        <ele>1641.9</ele>
        <time>2010-07-02T10:23:08Z</time>
      </trkpt>
      <trkpt lat="42.714690" lon="0.773125">
        <ele>1642.7</ele>
        <time>2010-07-02T10:23:08Z</time>
      </trkpt>
      <trkpt lat="42.714843" lon="0.772373">
        <ele>1642.1</ele>
        <time>2010-07-02T10:23:08Z</time>
      </trkpt>
      <trkpt lat="42.714934" lon="0.772137">
        <ele>1641.1</ele>
        <time>2010-07-02T10:23:08Z</time>
      </trkpt>
      <trkpt lat="42.714965" lon="0.771960">
        <ele>1641.3</ele>
        <time>2010-07-02T10:23:08Z</time>
      </trkpt>
      <trkpt lat="42.714969" lon="0.771784">
        <ele>1641.8</ele>
        <time>2010-07-02T10:23:08Z</time>
      </trkpt>
      <trkpt lat="42.714874" lon="0.771585">
        <ele>1643.6</ele>
        <time>2010-07-02T10:23:08Z</time>
      </trkpt>
      <trkpt lat="42.714764" lon="0.771460">
        <ele>1645.5</ele>
        <time>2010-07-02T10:23:08Z</time>
      </trkpt>
      <trkpt lat="42.714595" lon="0.771403">
        <ele>1648.1</ele>
        <time>2010-07-02T10:23:08Z</time>
      </trkpt>
      <trkpt lat="42.714498" lon="0.771324">
        <ele>1651.1</ele>
        <time>2010-07-02T10:23:08Z</time>
      </trkpt>
      <trkpt lat="42.714431" lon="0.771223">
        <ele>1653.9</ele>
        <time>2010-07-02T10:23:08Z</time>
      </trkpt>
      <trkpt lat="42.714370" lon="0.771002">
        <ele>1658.9</ele>
        <time>2010-07-02T10:23:08Z</time>
      </trkpt>
      <trkpt lat="42.714394" lon="0.770871">
        <ele>1660.0</ele>
        <time>2010-07-02T10:23:08Z</time>
      </trkpt>
      <trkpt lat="42.714493" lon="0.770500">
        <ele>1661.9</ele>
        <time>2010-07-02T10:23:08Z</time>
      </trkpt>
      <trkpt lat="42.714529" lon="0.770195">
        <ele>1666.0</ele>
        <time>2010-07-02T10:23:08Z</time>
      </trkpt>
      <trkpt lat="42.714574" lon="0.769954">
        <ele>1669.1</ele>
        <time>2010-07-02T10:23:08Z</time>
      </trkpt>
      <trkpt lat="42.714574" lon="0.769751">
        <ele>1673.0</ele>
        <time>2010-07-02T10:23:08Z</time>
      </trkpt>
      <trkpt lat="42.714643" lon="0.769563">
        <ele>1674.5</ele>
        <time>2010-07-02T10:23:08Z</time>
      </trkpt>
      <trkpt lat="42.714708" lon="0.769363">
        <ele>1676.3</ele>
        <time>2010-07-02T10:23:08Z</time>
      </trkpt>
      <trkpt lat="42.714736" lon="0.769217">
        <ele>1678.2</ele>
        <time>2010-07-02T10:23:08Z</time>
      </trkpt>
      <trkpt lat="42.714742" lon="0.769109">
        <ele>1680.1</ele>
        <time>2010-07-02T10:23:08Z</time>
      </trkpt>
      <trkpt lat="42.714674" lon="0.768981">
        <ele>1684.4</ele>
        <time>2010-07-02T10:23:08Z</time>
      </trkpt>
      <trkpt lat="42.714541" lon="0.768836">
        <ele>1690.4</ele>
        <time>2010-07-02T10:23:08Z</time>
      </trkpt>
      <trkpt lat="42.714439" lon="0.768740">
        <ele>1694.5</ele>
        <time>2010-07-02T10:23:08Z</time>
      </trkpt>
      <trkpt lat="42.714449" lon="0.768541">
        <ele>1698.6</ele>
        <time>2010-07-02T10:23:08Z</time>
      </trkpt>
      <trkpt lat="42.714535" lon="0.768419">
        <ele>1699.5</ele>
        <time>2010-07-02T10:23:08Z</time>
      </trkpt>
      <trkpt lat="42.714588" lon="0.768285">
        <ele>1701.5</ele>
        <time>2010-07-02T10:23:08Z</time>
      </trkpt>
      <trkpt lat="42.714566" lon="0.768156">
        <ele>1704.8</ele>
        <time>2010-07-02T10:23:08Z</time>
      </trkpt>
      <trkpt lat="42.714566" lon="0.767928">
        <ele>1710.0</ele>
        <time>2010-07-02T10:23:08Z</time>
      </trkpt>
      <trkpt lat="42.714586" lon="0.767824">
        <ele>1711.8</ele>
        <time>2010-07-02T10:23:08Z</time>
      </trkpt>
      <trkpt lat="42.714724" lon="0.767633">
        <ele>1713.0</ele>
        <time>2010-07-02T10:23:08Z</time>
      </trkpt>
      <trkpt lat="42.714787" lon="0.767532">
        <ele>1713.9</ele>
        <time>2010-07-02T10:23:08Z</time>
      </trkpt>
      <trkpt lat="42.714876" lon="0.767425">
        <ele>1714.5</ele>
        <time>2010-07-02T10:23:08Z</time>
      </trkpt>
      <trkpt lat="42.714831" lon="0.767242">
        <ele>1719.2</ele>
        <time>2010-07-02T10:23:08Z</time>
      </trkpt>
      <trkpt lat="42.714874" lon="0.767088">
        <ele>1721.6</ele>
        <time>2010-07-02T10:23:08Z</time>
      </trkpt>
      <trkpt lat="42.714951" lon="0.766925">
        <ele>1722.8</ele>
        <time>2010-07-02T10:23:08Z</time>
      </trkpt>
      <trkpt lat="42.715039" lon="0.766736">
        <ele>1724.3</ele>
        <time>2010-07-02T10:23:08Z</time>
      </trkpt>
      <trkpt lat="42.715043" lon="0.766575">
        <ele>1726.7</ele>
        <time>2010-07-02T10:23:08Z</time>
      </trkpt>
      <trkpt lat="42.715014" lon="0.766254">
        <ele>1732.2</ele>
        <time>2010-07-02T10:23:08Z</time>
      </trkpt>
      <trkpt lat="42.715046" lon="0.765902">
        <ele>1737.2</ele>
        <time>2010-07-02T10:23:08Z</time>
      </trkpt>
      <trkpt lat="42.715271" lon="0.765510">
        <ele>1739.2</ele>
        <time>2010-07-02T10:23:08Z</time>
      </trkpt>
      <trkpt lat="42.715454" lon="0.765089">
        <ele>1743.2</ele>
        <time>2010-07-02T10:23:08Z</time>
      </trkpt>
      <trkpt lat="42.715609" lon="0.764612">
        <ele>1749.0</ele>
        <time>2010-07-02T10:23:08Z</time>
      </trkpt>
      <trkpt lat="42.715711" lon="0.764157">
        <ele>1756.9</ele>
        <time>2010-07-02T10:23:08Z</time>
      </trkpt>
      <trkpt lat="42.715814" lon="0.763574">
        <ele>1766.0</ele>
        <time>2010-07-02T10:23:08Z</time>
      </trkpt>
      <trkpt lat="42.715869" lon="0.763245">
        <ele>1769.4</ele>
        <time>2010-07-02T10:23:08Z</time>
      </trkpt>
      <trkpt lat="42.715906" lon="0.762788">
        <ele>1774.8</ele>
        <time>2010-07-02T10:23:08Z</time>
      </trkpt>
      <trkpt lat="42.715950" lon="0.762538">
        <ele>1776.9</ele>
        <time>2010-07-02T10:23:08Z</time>
      </trkpt>
      <trkpt lat="42.716018" lon="0.762297">
        <ele>1778.2</ele>
        <time>2010-07-02T10:23:08Z</time>
      </trkpt>
      <trkpt lat="42.716120" lon="0.762050">
        <ele>1778.2</ele>
        <time>2010-07-02T10:23:08Z</time>
      </trkpt>
      <trkpt lat="42.716198" lon="0.761529">
        <ele>1780.6</ele>
        <time>2010-07-02T10:23:08Z</time>
      </trkpt>
      <trkpt lat="42.716261" lon="0.761019">
        <ele>1784.1</ele>
        <time>2010-07-02T10:23:08Z</time>
      </trkpt>
      <trkpt lat="42.716380" lon="0.760647">
        <ele>1786.9</ele>
        <time>2010-07-02T10:23:08Z</time>
      </trkpt>
      <trkpt lat="42.716620" lon="0.760245">
        <ele>1786.5</ele>
        <time>2010-07-02T10:23:08Z</time>
      </trkpt>
      <trkpt lat="42.716808" lon="0.759870">
        <ele>1786.8</ele>
        <time>2010-07-02T10:23:08Z</time>
      </trkpt>
      <trkpt lat="42.716668" lon="0.759677">
        <ele>1791.9</ele>
        <time>2010-07-02T10:23:08Z</time>
      </trkpt>
      <trkpt lat="42.716840" lon="0.759369">
        <ele>1795.3</ele>
        <time>2010-07-02T10:23:08Z</time>
      </trkpt>
      <trkpt lat="42.717003" lon="0.759527">
        <ele>1788.0</ele>
        <time>2010-07-02T10:23:08Z</time>
      </trkpt>
      <trkpt lat="42.717178" lon="0.759297">
        <ele>1791.2</ele>
        <time>2010-07-02T10:23:08Z</time>
      </trkpt>
      <trkpt lat="42.717509" lon="0.758850">
        <ele>1796.1</ele>
        <time>2010-07-02T10:23:08Z</time>
      </trkpt>
      <trkpt lat="42.717688" lon="0.758616">
        <ele>1796.6</ele>
        <time>2010-07-02T10:23:08Z</time>
      </trkpt>
      <trkpt lat="42.717762" lon="0.758266">
        <ele>1800.0</ele>
        <time>2010-07-02T10:23:08Z</time>
      </trkpt>
      <trkpt lat="42.717797" lon="0.757928">
        <ele>1803.8</ele>
        <time>2010-07-02T10:23:08Z</time>
      </trkpt>
      <trkpt lat="42.717795" lon="0.757229">
        <ele>1812.2</ele>
        <time>2010-07-02T10:23:08Z</time>
      </trkpt>
      <trkpt lat="42.717801" lon="0.756965">
        <ele>1814.6</ele>
        <time>2010-07-02T10:23:08Z</time>
      </trkpt>
      <trkpt lat="42.717876" lon="0.756708">
        <ele>1814.7</ele>
        <time>2010-07-02T10:23:08Z</time>
      </trkpt>
      <trkpt lat="42.717957" lon="0.756322">
        <ele>1814.5</ele>
        <time>2010-07-02T10:23:08Z</time>
      </trkpt>
      <trkpt lat="42.717977" lon="0.756000">
        <ele>1810.0</ele>
        <time>2010-07-02T10:23:08Z</time>
      </trkpt>
      <trkpt lat="42.717953" lon="0.755918">
        <ele>1810.0</ele>
        <time>2010-07-02T10:23:08Z</time>
      </trkpt>
      <trkpt lat="42.717867" lon="0.755843">
        <ele>1812.3</ele>
        <time>2010-07-02T10:23:08Z</time>
      </trkpt>
      <trkpt lat="42.717804" lon="0.755737">
        <ele>1813.0</ele>
        <time>2010-07-02T10:23:08Z</time>
      </trkpt>
      <trkpt lat="42.717778" lon="0.755598">
        <ele>1812.1</ele>
        <time>2010-07-02T10:23:08Z</time>
      </trkpt>
      <trkpt lat="42.717740" lon="0.755381">
        <ele>1811.5</ele>
        <time>2010-07-02T10:23:08Z</time>
      </trkpt>
      <trkpt lat="42.717734" lon="0.755092">
        <ele>1812.1</ele>
        <time>2010-07-02T10:23:08Z</time>
      </trkpt>
      <trkpt lat="42.717716" lon="0.754574">
        <ele>1813.3</ele>
        <time>2010-07-02T10:23:08Z</time>
      </trkpt>
      <trkpt lat="42.717727" lon="0.754159">
        <ele>1814.5</ele>
        <time>2010-07-02T10:23:08Z</time>
      </trkpt>
      <trkpt lat="42.717860" lon="0.753725">
        <ele>1813.7</ele>
        <time>2010-07-02T10:23:08Z</time>
      </trkpt>
      <trkpt lat="42.717911" lon="0.753391">
        <ele>1810.5</ele>
        <time>2010-07-02T10:23:08Z</time>
      </trkpt>
      <trkpt lat="42.717958" lon="0.753110">
        <ele>1806.7</ele>
        <time>2010-07-02T10:23:08Z</time>
      </trkpt>
      <trkpt lat="42.718032" lon="0.752589">
        <ele>1795.4</ele>
        <time>2010-07-02T10:23:08Z</time>
      </trkpt>
      <trkpt lat="42.718134" lon="0.752312">
        <ele>1787.4</ele>
        <time>2010-07-02T10:23:08Z</time>
      </trkpt>
      <trkpt lat="42.718186" lon="0.751987">
        <ele>1779.1</ele>
        <time>2010-07-02T10:23:08Z</time>
      </trkpt>
      <trkpt lat="42.718130" lon="0.751676">
        <ele>1768.1</ele>
        <time>2010-07-02T10:23:08Z</time>
      </trkpt>
      <trkpt lat="42.717968" lon="0.751422">
        <ele>1756.4</ele>
        <time>2010-07-02T10:23:08Z</time>
      </trkpt>
      <trkpt lat="42.717807" lon="0.751288">
        <ele>1746.6</ele>
        <time>2010-07-02T10:23:08Z</time>
      </trkpt>
      <trkpt lat="42.717589" lon="0.751235">
        <ele>1738.3</ele>
        <time>2010-07-02T10:23:08Z</time>
      </trkpt>
      <trkpt lat="42.717205" lon="0.751313">
        <ele>1731.1</ele>
        <time>2010-07-02T10:23:08Z</time>
      </trkpt>
      <trkpt lat="42.716893" lon="0.751558">
        <ele>1733.4</ele>
        <time>2010-07-02T10:23:08Z</time>
      </trkpt>
      <trkpt lat="42.716704" lon="0.751694">
        <ele>1735.4</ele>
        <time>2010-07-02T10:23:08Z</time>
      </trkpt>
      <trkpt lat="42.716557" lon="0.751746">
        <ele>1734.7</ele>
        <time>2010-07-02T10:23:08Z</time>
      </trkpt>
      <trkpt lat="42.716329" lon="0.751822">
        <ele>1733.8</ele>
        <time>2010-07-02T10:23:08Z</time>
      </trkpt>
      <trkpt lat="42.716117" lon="0.751902">
        <ele>1733.4</ele>
        <time>2010-07-02T10:23:08Z</time>
      </trkpt>
      <trkpt lat="42.715834" lon="0.752119">
        <ele>1737.0</ele>
        <time>2010-07-02T10:23:08Z</time>
      </trkpt>
      <trkpt lat="42.715649" lon="0.752219">
        <ele>1736.3</ele>
        <time>2010-07-02T10:23:08Z</time>
      </trkpt>
      <trkpt lat="42.715547" lon="0.752259">
        <ele>1735.4</ele>
        <time>2010-07-02T10:23:08Z</time>
      </trkpt>
      <trkpt lat="42.715420" lon="0.752233">
        <ele>1731.2</ele>
        <time>2010-07-02T10:23:08Z</time>
      </trkpt>
      <trkpt lat="42.715309" lon="0.752226">
        <ele>1733.3</ele>
        <time>2010-07-02T10:23:08Z</time>
      </trkpt>
      <trkpt lat="42.715199" lon="0.752241">
        <ele>1736.5</ele>
        <time>2010-07-02T10:23:08Z</time>
      </trkpt>
      <trkpt lat="42.715025" lon="0.752330">
        <ele>1743.7</ele>
        <time>2010-07-02T10:23:08Z</time>
      </trkpt>
      <trkpt lat="42.714849" lon="0.752502">
        <ele>1753.3</ele>
        <time>2010-07-02T10:23:08Z</time>
      </trkpt>
      <trkpt lat="42.714729" lon="0.752630">
        <ele>1759.8</ele>
        <time>2010-07-02T10:23:08Z</time>
      </trkpt>
      <trkpt lat="42.714669" lon="0.752674">
        <ele>1762.2</ele>
        <time>2010-07-02T10:23:08Z</time>
      </trkpt>
      <trkpt lat="42.714611" lon="0.752676">
        <ele>1763.3</ele>
        <time>2010-07-02T10:23:08Z</time>
      </trkpt>
      <trkpt lat="42.714554" lon="0.752673">
        <ele>1764.6</ele>
        <time>2010-07-02T10:23:08Z</time>
      </trkpt>
      <trkpt lat="42.714530" lon="0.752632">
        <ele>1764.0</ele>
        <time>2010-07-02T10:23:08Z</time>
      </trkpt>
      <trkpt lat="42.714474" lon="0.752505">
        <ele>1761.5</ele>
        <time>2010-07-02T10:23:08Z</time>
      </trkpt>
      <trkpt lat="42.714435" lon="0.752470">
        <ele>1761.3</ele>
        <time>2010-07-02T10:23:08Z</time>
      </trkpt>
      <trkpt lat="42.714351" lon="0.752468">
        <ele>1763.4</ele>
        <time>2010-07-02T10:23:08Z</time>
      </trkpt>
      <trkpt lat="42.714244" lon="0.752472">
        <ele>1766.2</ele>
        <time>2010-07-02T10:23:08Z</time>
      </trkpt>
      <trkpt lat="42.714214" lon="0.752447">
        <ele>1766.0</ele>
        <time>2010-07-02T10:23:08Z</time>
      </trkpt>
      <trkpt lat="42.714192" lon="0.752355">
        <ele>1763.0</ele>
        <time>2010-07-02T10:23:08Z</time>
      </trkpt>
      <trkpt lat="42.714099" lon="0.752078">
        <ele>1754.0</ele>
        <time>2010-07-02T10:23:08Z</time>
      </trkpt>
      <trkpt lat="42.714039" lon="0.751935">
        <ele>1750.5</ele>
        <time>2010-07-02T10:23:08Z</time>
      </trkpt>
      <trkpt lat="42.713830" lon="0.751772">
        <ele>1749.2</ele>
        <time>2010-07-02T10:23:08Z</time>
      </trkpt>
      <trkpt lat="42.713694" lon="0.751652">
        <ele>1747.7</ele>
        <time>2010-07-02T10:23:08Z</time>
      </trkpt>
      <trkpt lat="42.713441" lon="0.751429">
        <ele>1743.3</ele>
        <time>2010-07-02T10:23:08Z</time>
      </trkpt>
      <trkpt lat="42.713250" lon="0.751249">
        <ele>1739.2</ele>
        <time>2010-07-02T10:23:08Z</time>
      </trkpt>
      <trkpt lat="42.713097" lon="0.751135">
        <ele>1737.4</ele>
        <time>2010-07-02T10:23:08Z</time>
      </trkpt>
      <trkpt lat="42.712895" lon="0.751093">
        <ele>1738.5</ele>
        <time>2010-07-02T10:23:08Z</time>
      </trkpt>
      <trkpt lat="42.712701" lon="0.751118">
        <ele>1743.5</ele>
        <time>2010-07-02T10:23:08Z</time>
      </trkpt>
      <trkpt lat="42.712355" lon="0.751162">
        <ele>1752.3</ele>
        <time>2010-07-02T10:23:08Z</time>
      </trkpt>
      <trkpt lat="42.712186" lon="0.751095">
        <ele>1754.7</ele>
        <time>2010-07-02T10:23:08Z</time>
      </trkpt>
      <trkpt lat="42.712151" lon="0.751010">
        <ele>1753.8</ele>
        <time>2010-07-02T10:23:08Z</time>
      </trkpt>
      <trkpt lat="42.712155" lon="0.750916">
        <ele>1751.9</ele>
        <time>2010-07-02T10:23:08Z</time>
      </trkpt>
      <trkpt lat="42.712224" lon="0.750763">
        <ele>1747.1</ele>
        <time>2010-07-02T10:23:08Z</time>
      </trkpt>
      <trkpt lat="42.712226" lon="0.750664">
        <ele>1745.1</ele>
        <time>2010-07-02T10:23:08Z</time>
      </trkpt>
      <trkpt lat="42.712250" lon="0.750513">
        <ele>1741.4</ele>
        <time>2010-07-02T10:23:08Z</time>
      </trkpt>
      <trkpt lat="42.712271" lon="0.750398">
        <ele>1738.8</ele>
        <time>2010-07-02T10:23:08Z</time>
      </trkpt>
      <trkpt lat="42.712295" lon="0.750253">
        <ele>1737.7</ele>
        <time>2010-07-02T10:23:08Z</time>
      </trkpt>
      <trkpt lat="42.712320" lon="0.749806">
        <ele>1735.9</ele>
        <time>2010-07-02T10:23:08Z</time>
      </trkpt>
      <trkpt lat="42.712322" lon="0.749521">
        <ele>1735.6</ele>
        <time>2010-07-02T10:23:08Z</time>
      </trkpt>
      <trkpt lat="42.712381" lon="0.749208">
        <ele>1735.7</ele>
        <time>2010-07-02T10:23:08Z</time>
      </trkpt>
      <trkpt lat="42.712491" lon="0.748986">
        <ele>1733.7</ele>
        <time>2010-07-02T10:23:08Z</time>
      </trkpt>
      <trkpt lat="42.712592" lon="0.748848">
        <ele>1731.4</ele>
        <time>2010-07-02T10:23:08Z</time>
      </trkpt>
      <trkpt lat="42.712703" lon="0.748653">
        <ele>1726.7</ele>
        <time>2010-07-02T10:23:08Z</time>
      </trkpt>
      <trkpt lat="42.712831" lon="0.748404">
        <ele>1718.8</ele>
        <time>2010-07-02T10:23:08Z</time>
      </trkpt>
      <trkpt lat="42.712838" lon="0.748130">
        <ele>1714.1</ele>
        <time>2010-07-02T10:23:08Z</time>
      </trkpt>
      <trkpt lat="42.712787" lon="0.747876">
        <ele>1710.0</ele>
        <time>2010-07-02T10:23:08Z</time>
      </trkpt>
      <trkpt lat="42.712652" lon="0.747639">
        <ele>1703.2</ele>
        <time>2010-07-02T10:23:08Z</time>
      </trkpt>
      <trkpt lat="42.712448" lon="0.747439">
        <ele>1698.6</ele>
        <time>2010-07-02T10:23:08Z</time>
      </trkpt>
      <trkpt lat="42.712318" lon="0.747164">
        <ele>1689.1</ele>
        <time>2010-07-02T10:23:08Z</time>
      </trkpt>
      <trkpt lat="42.712085" lon="0.747040">
        <ele>1686.9</ele>
        <time>2010-07-02T10:23:08Z</time>
      </trkpt>
      <trkpt lat="42.711847" lon="0.746698">
        <ele>1675.3</ele>
        <time>2010-07-02T10:23:08Z</time>
      </trkpt>
      <trkpt lat="42.711632" lon="0.746612">
        <ele>1675.9</ele>
        <time>2010-07-02T10:23:08Z</time>
      </trkpt>
      <trkpt lat="42.711534" lon="0.746499">
        <ele>1672.6</ele>
        <time>2010-07-02T10:23:08Z</time>
      </trkpt>
      <trkpt lat="42.711395" lon="0.746486">
        <ele>1675.1</ele>
        <time>2010-07-02T10:23:08Z</time>
      </trkpt>
      <trkpt lat="42.711207" lon="0.746386">
        <ele>1674.6</ele>
        <time>2010-07-02T10:23:08Z</time>
      </trkpt>
      <trkpt lat="42.711064" lon="0.746176">
        <ele>1669.1</ele>
        <time>2010-07-02T10:23:08Z</time>
      </trkpt>
      <trkpt lat="42.710844" lon="0.746026">
        <ele>1669.3</ele>
        <time>2010-07-02T10:23:08Z</time>
      </trkpt>
      <trkpt lat="42.710764" lon="0.745869">
        <ele>1665.7</ele>
        <time>2010-07-02T10:23:08Z</time>
      </trkpt>
      <trkpt lat="42.710566" lon="0.745798">
        <ele>1668.1</ele>
        <time>2010-07-02T10:23:08Z</time>
      </trkpt>
      <trkpt lat="42.710451" lon="0.745652">
        <ele>1665.6</ele>
        <time>2010-07-02T10:23:08Z</time>
      </trkpt>
      <trkpt lat="42.710294" lon="0.745576">
        <ele>1666.3</ele>
        <time>2010-07-02T10:23:08Z</time>
      </trkpt>
      <trkpt lat="42.710164" lon="0.745434">
        <ele>1664.1</ele>
        <time>2010-07-02T10:23:08Z</time>
      </trkpt>
      <trkpt lat="42.709962" lon="0.745359">
        <ele>1666.5</ele>
        <time>2010-07-02T10:23:08Z</time>
      </trkpt>
      <trkpt lat="42.709785" lon="0.745088">
        <ele>1664.2</ele>
        <time>2010-07-02T10:23:08Z</time>
      </trkpt>
      <trkpt lat="42.709494" lon="0.744940">
        <ele>1668.0</ele>
        <time>2010-07-02T10:23:08Z</time>
      </trkpt>
      <trkpt lat="42.709289" lon="0.744601">
        <ele>1667.6</ele>
        <time>2010-07-02T10:23:08Z</time>
      </trkpt>
      <trkpt lat="42.709739" lon="0.744425">
        <ele>1653.5</ele>
        <time>2010-07-02T10:23:08Z</time>
      </trkpt>
      <trkpt lat="42.709174" lon="0.744442">
        <ele>1671.6</ele>
        <time>2010-07-02T10:23:08Z</time>
      </trkpt>
      <trkpt lat="42.709036" lon="0.744284">
        <ele>1677.5</ele>
        <time>2010-07-02T10:23:08Z</time>
      </trkpt>
      <trkpt lat="42.708942" lon="0.743899">
        <ele>1683.4</ele>
        <time>2010-07-02T10:23:08Z</time>
      </trkpt>
      <trkpt lat="42.708959" lon="0.743639">
        <ele>1685.5</ele>
        <time>2010-07-02T10:23:08Z</time>
      </trkpt>
      <trkpt lat="42.709006" lon="0.743435">
        <ele>1687.2</ele>
        <time>2010-07-02T10:23:08Z</time>
      </trkpt>
      <trkpt lat="42.709050" lon="0.743196">
        <ele>1689.7</ele>
        <time>2010-07-02T10:23:08Z</time>
      </trkpt>
      <trkpt lat="42.709171" lon="0.742888">
        <ele>1690.7</ele>
        <time>2010-07-02T10:23:08Z</time>
      </trkpt>
      <trkpt lat="42.709373" lon="0.742712">
        <ele>1688.6</ele>
        <time>2010-07-02T10:23:08Z</time>
      </trkpt>
      <trkpt lat="42.709605" lon="0.742466">
        <ele>1690.6</ele>
        <time>2010-07-02T10:23:08Z</time>
      </trkpt>
      <trkpt lat="42.709828" lon="0.742323">
        <ele>1692.3</ele>
        <time>2010-07-02T10:23:08Z</time>
      </trkpt>
      <trkpt lat="42.710012" lon="0.742192">
        <ele>1693.4</ele>
        <time>2010-07-02T10:23:08Z</time>
      </trkpt>
      <trkpt lat="42.710261" lon="0.741903">
        <ele>1697.2</ele>
        <time>2010-07-02T10:23:08Z</time>
      </trkpt>
      <trkpt lat="42.710434" lon="0.741514">
        <ele>1705.4</ele>
        <time>2010-07-02T10:23:08Z</time>
      </trkpt>
      <trkpt lat="42.710603" lon="0.741161">
        <ele>1713.1</ele>
        <time>2010-07-02T10:23:08Z</time>
      </trkpt>
      <trkpt lat="42.710737" lon="0.740964">
        <ele>1717.2</ele>
        <time>2010-07-02T10:23:08Z</time>
      </trkpt>
      <trkpt lat="42.710917" lon="0.740787">
        <ele>1718.9</ele>
        <time>2010-07-02T10:23:08Z</time>
      </trkpt>
      <trkpt lat="42.711016" lon="0.740586">
        <ele>1723.2</ele>
        <time>2010-07-02T10:23:08Z</time>
      </trkpt>
      <trkpt lat="42.711244" lon="0.740334">
        <ele>1725.3</ele>
        <time>2010-07-02T10:23:08Z</time>
      </trkpt>
      <trkpt lat="42.711550" lon="0.740168">
        <ele>1723.8</ele>
        <time>2010-07-02T10:23:08Z</time>
      </trkpt>
      <trkpt lat="42.712123" lon="0.739769">
        <ele>1723.6</ele>
        <time>2010-07-02T10:23:08Z</time>
      </trkpt>
      <trkpt lat="42.712368" lon="0.739610">
        <ele>1723.3</ele>
        <time>2010-07-02T10:23:08Z</time>
      </trkpt>
      <trkpt lat="42.712606" lon="0.739295">
        <ele>1727.8</ele>
        <time>2010-07-02T10:23:08Z</time>
      </trkpt>
      <trkpt lat="42.712715" lon="0.739007">
        <ele>1733.6</ele>
        <time>2010-07-02T10:23:08Z</time>
      </trkpt>
      <trkpt lat="42.712759" lon="0.738715">
        <ele>1740.5</ele>
        <time>2010-07-02T10:23:08Z</time>
      </trkpt>
      <trkpt lat="42.712783" lon="0.738180">
        <ele>1749.4</ele>
        <time>2010-07-02T10:23:08Z</time>
      </trkpt>
      <trkpt lat="42.712762" lon="0.737734">
        <ele>1758.3</ele>
        <time>2010-07-02T10:23:08Z</time>
      </trkpt>
      <trkpt lat="42.712800" lon="0.737315">
        <ele>1762.8</ele>
        <time>2010-07-02T10:23:08Z</time>
      </trkpt>
      <trkpt lat="42.712877" lon="0.736913">
        <ele>1764.4</ele>
        <time>2010-07-02T10:23:08Z</time>
      </trkpt>
      <trkpt lat="42.712990" lon="0.736490">
        <ele>1764.6</ele>
        <time>2010-07-02T10:23:08Z</time>
      </trkpt>
      <trkpt lat="42.713151" lon="0.736106">
        <ele>1759.6</ele>
        <time>2010-07-02T10:23:08Z</time>
      </trkpt>
      <trkpt lat="42.713309" lon="0.735799">
        <ele>1752.6</ele>
        <time>2010-07-02T10:23:08Z</time>
      </trkpt>
      <trkpt lat="42.713383" lon="0.735471">
        <ele>1751.3</ele>
        <time>2010-07-02T10:23:08Z</time>
      </trkpt>
      <trkpt lat="42.713389" lon="0.735014">
        <ele>1740.8</ele>
        <time>2010-07-02T10:23:08Z</time>
      </trkpt>
      <trkpt lat="42.713327" lon="0.734576">
        <ele>1730.3</ele>
        <time>2010-07-02T10:23:08Z</time>
      </trkpt>
      <trkpt lat="42.713254" lon="0.734366">
        <ele>1722.1</ele>
        <time>2010-07-02T10:23:08Z</time>
      </trkpt>
      <trkpt lat="42.713019" lon="0.734090">
        <ele>1713.9</ele>
        <time>2010-07-02T10:23:08Z</time>
      </trkpt>
      <trkpt lat="42.712788" lon="0.733815">
        <ele>1702.7</ele>
        <time>2010-07-02T10:23:08Z</time>
      </trkpt>
      <trkpt lat="42.712569" lon="0.733703">
        <ele>1696.7</ele>
        <time>2010-07-02T10:23:08Z</time>
      </trkpt>
      <trkpt lat="42.712380" lon="0.733663">
        <ele>1694.6</ele>
        <time>2010-07-02T10:23:08Z</time>
      </trkpt>
      <trkpt lat="42.712105" lon="0.733637">
        <ele>1693.5</ele>
        <time>2010-07-02T10:23:08Z</time>
      </trkpt>
      <trkpt lat="42.711830" lon="0.733604">
        <ele>1704.8</ele>
        <time>2010-07-02T10:23:08Z</time>
      </trkpt>
      <trkpt lat="42.711530" lon="0.733464">
        <ele>1714.2</ele>
        <time>2010-07-02T10:23:08Z</time>
      </trkpt>
      <trkpt lat="42.711341" lon="0.733250">
        <ele>1715.3</ele>
        <time>2010-07-02T10:23:08Z</time>
      </trkpt>
      <trkpt lat="42.711285" lon="0.733128">
        <ele>1713.3</ele>
        <time>2010-07-02T10:23:08Z</time>
      </trkpt>
      <trkpt lat="42.711135" lon="0.732684">
        <ele>1704.8</ele>
        <time>2010-07-02T10:23:08Z</time>
      </trkpt>
      <trkpt lat="42.710902" lon="0.732272">
        <ele>1704.6</ele>
        <time>2010-07-02T10:23:08Z</time>
      </trkpt>
      <trkpt lat="42.710725" lon="0.732050">
        <ele>1709.4</ele>
        <time>2010-07-02T10:23:08Z</time>
      </trkpt>
      <trkpt lat="42.710642" lon="0.731928">
        <ele>1713.5</ele>
        <time>2010-07-02T10:23:08Z</time>
      </trkpt>
      <trkpt lat="42.710609" lon="0.731785">
        <ele>1714.3</ele>
        <time>2010-07-02T10:23:08Z</time>
      </trkpt>
      <trkpt lat="42.710565" lon="0.731522">
        <ele>1715.0</ele>
        <time>2010-07-02T10:23:08Z</time>
      </trkpt>
      <trkpt lat="42.710578" lon="0.731351">
        <ele>1712.7</ele>
        <time>2010-07-02T10:23:08Z</time>
      </trkpt>
      <trkpt lat="42.710544" lon="0.731066">
        <ele>1712.1</ele>
        <time>2010-07-02T10:23:08Z</time>
      </trkpt>
      <trkpt lat="42.710440" lon="0.730786">
        <ele>1715.8</ele>
        <time>2010-07-02T10:23:08Z</time>
      </trkpt>
      <trkpt lat="42.710396" lon="0.730410">
        <ele>1713.7</ele>
        <time>2010-07-02T10:23:08Z</time>
      </trkpt>
      <trkpt lat="42.710475" lon="0.729996">
        <ele>1699.8</ele>
        <time>2010-07-02T10:23:08Z</time>
      </trkpt>
      <trkpt lat="42.710405" lon="0.729807">
        <ele>1698.5</ele>
        <time>2010-07-02T10:23:08Z</time>
      </trkpt>
      <trkpt lat="42.710281" lon="0.729640">
        <ele>1695.3</ele>
        <time>2010-07-02T10:23:08Z</time>
      </trkpt>
      <trkpt lat="42.710142" lon="0.729453">
        <ele>1687.4</ele>
        <time>2010-07-02T10:23:08Z</time>
      </trkpt>
      <trkpt lat="42.709964" lon="0.729306">
        <ele>1680.0</ele>
        <time>2010-07-02T10:23:08Z</time>
      </trkpt>
      <trkpt lat="42.709786" lon="0.729220">
        <ele>1675.4</ele>
        <time>2010-07-02T10:23:08Z</time>
      </trkpt>
      <trkpt lat="42.709644" lon="0.729168">
        <ele>1672.5</ele>
        <time>2010-07-02T10:23:08Z</time>
      </trkpt>
      <trkpt lat="42.709433" lon="0.729108">
        <ele>1666.3</ele>
        <time>2010-07-02T10:23:08Z</time>
      </trkpt>
      <trkpt lat="42.709248" lon="0.729011">
        <ele>1657.5</ele>
        <time>2010-07-02T10:23:08Z</time>
      </trkpt>
      <trkpt lat="42.709080" lon="0.729007">
        <ele>1654.3</ele>
        <time>2010-07-02T10:23:08Z</time>
      </trkpt>
      <trkpt lat="42.708923" lon="0.729008">
        <ele>1651.6</ele>
        <time>2010-07-02T10:23:08Z</time>
      </trkpt>
      <trkpt lat="42.708814" lon="0.729104">
        <ele>1654.9</ele>
        <time>2010-07-02T10:23:08Z</time>
      </trkpt>
      <trkpt lat="42.708695" lon="0.729099">
        <ele>1654.8</ele>
        <time>2010-07-02T10:23:08Z</time>
      </trkpt>
      <trkpt lat="42.708582" lon="0.729160">
        <ele>1660.6</ele>
        <time>2010-07-02T10:23:08Z</time>
      </trkpt>
      <trkpt lat="42.708424" lon="0.729083">
        <ele>1660.9</ele>
        <time>2010-07-02T10:23:08Z</time>
      </trkpt>
      <trkpt lat="42.708170" lon="0.729185">
        <ele>1671.3</ele>
        <time>2010-07-02T10:23:08Z</time>
      </trkpt>
      <trkpt lat="42.707969" lon="0.729142">
        <ele>1674.4</ele>
        <time>2010-07-02T10:23:08Z</time>
      </trkpt>
      <trkpt lat="42.707827" lon="0.729316">
        <ele>1685.0</ele>
        <time>2010-07-02T10:23:08Z</time>
      </trkpt>
      <trkpt lat="42.707724" lon="0.729362">
        <ele>1690.7</ele>
        <time>2010-07-02T10:23:08Z</time>
      </trkpt>
      <trkpt lat="42.707548" lon="0.729382">
        <ele>1698.5</ele>
        <time>2010-07-02T10:23:08Z</time>
      </trkpt>
      <trkpt lat="42.707491" lon="0.729227">
        <ele>1695.5</ele>
        <time>2010-07-02T10:23:08Z</time>
      </trkpt>
      <trkpt lat="42.707499" lon="0.729039">
        <ele>1688.6</ele>
        <time>2010-07-02T10:23:08Z</time>
      </trkpt>
      <trkpt lat="42.707367" lon="0.728910">
        <ele>1689.1</ele>
        <time>2010-07-02T10:23:08Z</time>
      </trkpt>
      <trkpt lat="42.707367" lon="0.728562">
        <ele>1674.2</ele>
        <time>2010-07-02T10:23:08Z</time>
      </trkpt>
      <trkpt lat="42.707242" lon="0.728324">
        <ele>1666.7</ele>
        <time>2010-07-02T10:23:08Z</time>
      </trkpt>
      <trkpt lat="42.707250" lon="0.728069">
        <ele>1653.6</ele>
        <time>2010-07-02T10:23:08Z</time>
      </trkpt>
      <trkpt lat="42.707091" lon="0.727864">
        <ele>1647.3</ele>
        <time>2010-07-02T10:23:08Z</time>
      </trkpt>
      <trkpt lat="42.707060" lon="0.727632">
        <ele>1631.6</ele>
        <time>2010-07-02T10:23:08Z</time>
      </trkpt>
      <trkpt lat="42.706972" lon="0.727450">
        <ele>1617.8</ele>
        <time>2010-07-02T10:23:08Z</time>
      </trkpt>
      <trkpt lat="42.706882" lon="0.727468">
        <ele>1616.3</ele>
        <time>2010-07-02T10:23:08Z</time>
      </trkpt>
      <trkpt lat="42.706880" lon="0.727326">
        <ele>1607.4</ele>
        <time>2010-07-02T10:23:08Z</time>
      </trkpt>
      <trkpt lat="42.706790" lon="0.727350">
        <ele>1606.7</ele>
        <time>2010-07-02T10:23:08Z</time>
      </trkpt>
      <trkpt lat="42.706744" lon="0.727250">
        <ele>1597.8</ele>
        <time>2010-07-02T10:23:08Z</time>
      </trkpt>
      <trkpt lat="42.706611" lon="0.727269">
        <ele>1597.8</ele>
        <time>2010-07-02T10:23:08Z</time>
      </trkpt>
      <trkpt lat="42.706654" lon="0.727123">
        <ele>1590.1</ele>
        <time>2010-07-02T10:23:08Z</time>
      </trkpt>
      <trkpt lat="42.706722" lon="0.727032">
        <ele>1586.6</ele>
        <time>2010-07-02T10:23:08Z</time>
      </trkpt>
      <trkpt lat="42.706729" lon="0.726948">
        <ele>1582.8</ele>
        <time>2010-07-02T10:23:08Z</time>
      </trkpt>
      <trkpt lat="42.706665" lon="0.726908">
        <ele>1579.4</ele>
        <time>2010-07-02T10:23:08Z</time>
      </trkpt>
      <trkpt lat="42.706552" lon="0.726970">
        <ele>1580.0</ele>
        <time>2010-07-02T10:23:08Z</time>
      </trkpt>
      <trkpt lat="42.706446" lon="0.726979">
        <ele>1578.2</ele>
        <time>2010-07-02T10:23:08Z</time>
      </trkpt>
      <trkpt lat="42.706360" lon="0.727013">
        <ele>1580.9</ele>
        <time>2010-07-02T10:23:08Z</time>
      </trkpt>
      <trkpt lat="42.706286" lon="0.727099">
        <ele>1581.5</ele>
        <time>2010-07-02T10:23:08Z</time>
      </trkpt>
      <trkpt lat="42.706192" lon="0.727092">
        <ele>1580.3</ele>
        <time>2010-07-02T10:23:08Z</time>
      </trkpt>
      <trkpt lat="42.706125" lon="0.727145">
        <ele>1582.9</ele>
        <time>2010-07-02T10:23:08Z</time>
      </trkpt>
      <trkpt lat="42.706060" lon="0.727115">
        <ele>1578.6</ele>
        <time>2010-07-02T10:23:08Z</time>
      </trkpt>
      <trkpt lat="42.705942" lon="0.727233">
        <ele>1587.1</ele>
        <time>2010-07-02T10:23:08Z</time>
      </trkpt>
      <trkpt lat="42.705822" lon="0.727251">
        <ele>1584.2</ele>
        <time>2010-07-02T10:23:08Z</time>
      </trkpt>
      <trkpt lat="42.705688" lon="0.727301">
        <ele>1585.7</ele>
        <time>2010-07-02T10:23:08Z</time>
      </trkpt>
      <trkpt lat="42.705519" lon="0.727392">
        <ele>1592.0</ele>
        <time>2010-07-02T10:23:08Z</time>
      </trkpt>
      <trkpt lat="42.705460" lon="0.727437">
        <ele>1593.6</ele>
        <time>2010-07-02T10:23:08Z</time>
      </trkpt>
      <trkpt lat="42.705372" lon="0.727443">
        <ele>1595.7</ele>
        <time>2010-07-02T10:23:08Z</time>
      </trkpt>
      <trkpt lat="42.705243" lon="0.727400">
        <ele>1605.7</ele>
        <time>2010-07-02T10:23:08Z</time>
      </trkpt>
      <trkpt lat="42.704992" lon="0.727435">
        <ele>1623.7</ele>
        <time>2010-07-02T10:23:08Z</time>
      </trkpt>
      <trkpt lat="42.704913" lon="0.727384">
        <ele>1626.3</ele>
        <time>2010-07-02T10:23:08Z</time>
      </trkpt>
      <trkpt lat="42.704930" lon="0.727242">
        <ele>1618.0</ele>
        <time>2010-07-02T10:23:08Z</time>
      </trkpt>
      <trkpt lat="42.704798" lon="0.726910">
        <ele>1608.1</ele>
        <time>2010-07-02T10:23:08Z</time>
      </trkpt>
      <trkpt lat="42.704602" lon="0.726725">
        <ele>1608.6</ele>
        <time>2010-07-02T10:23:08Z</time>
      </trkpt>
      <trkpt lat="42.704560" lon="0.726508">
        <ele>1592.6</ele>
        <time>2010-07-02T10:23:08Z</time>
      </trkpt>
      <trkpt lat="42.704441" lon="0.726210">
        <ele>1586.0</ele>
        <time>2010-07-02T10:23:08Z</time>
      </trkpt>
      <trkpt lat="42.704305" lon="0.726200">
        <ele>1576.5</ele>
        <time>2010-07-02T10:23:08Z</time>
      </trkpt>
      <trkpt lat="42.704154" lon="0.726142">
        <ele>1574.9</ele>
        <time>2010-07-02T10:23:08Z</time>
      </trkpt>
      <trkpt lat="42.703975" lon="0.726172">
        <ele>1575.4</ele>
        <time>2010-07-02T10:23:08Z</time>
      </trkpt>
      <trkpt lat="42.703880" lon="0.726099">
        <ele>1571.6</ele>
        <time>2010-07-02T10:23:08Z</time>
      </trkpt>
      <trkpt lat="42.703807" lon="0.726107">
        <ele>1572.2</ele>
        <time>2010-07-02T10:23:08Z</time>
      </trkpt>
      <trkpt lat="42.703755" lon="0.726140">
        <ele>1574.1</ele>
        <time>2010-07-02T10:23:08Z</time>
      </trkpt>
      <trkpt lat="42.703532" lon="0.726389">
        <ele>1590.3</ele>
        <time>2010-07-02T10:23:08Z</time>
      </trkpt>
      <trkpt lat="42.703303" lon="0.726452">
        <ele>1596.0</ele>
        <time>2010-07-02T10:23:08Z</time>
      </trkpt>
      <trkpt lat="42.703183" lon="0.726494">
        <ele>1596.4</ele>
        <time>2010-07-02T10:23:08Z</time>
      </trkpt>
      <trkpt lat="42.702975" lon="0.726453">
        <ele>1601.7</ele>
        <time>2010-07-02T10:23:08Z</time>
      </trkpt>
      <trkpt lat="42.702867" lon="0.726450">
        <ele>1601.1</ele>
        <time>2010-07-02T10:23:08Z</time>
      </trkpt>
      <trkpt lat="42.702773" lon="0.726457">
        <ele>1597.8</ele>
        <time>2010-07-02T10:23:08Z</time>
      </trkpt>
      <trkpt lat="42.702592" lon="0.726314">
        <ele>1588.9</ele>
        <time>2010-07-02T10:23:08Z</time>
      </trkpt>
      <trkpt lat="42.702444" lon="0.726115">
        <ele>1578.0</ele>
        <time>2010-07-02T10:23:08Z</time>
      </trkpt>
      <trkpt lat="42.702328" lon="0.726016">
        <ele>1571.7</ele>
        <time>2010-07-02T10:23:08Z</time>
      </trkpt>
      <trkpt lat="42.702143" lon="0.725976">
        <ele>1567.1</ele>
        <time>2010-07-02T10:23:08Z</time>
      </trkpt>
      <trkpt lat="42.702066" lon="0.726079">
        <ele>1570.2</ele>
        <time>2010-07-02T10:23:08Z</time>
      </trkpt>
      <trkpt lat="42.701944" lon="0.726086">
        <ele>1555.8</ele>
        <time>2010-07-02T10:23:08Z</time>
      </trkpt>
      <trkpt lat="42.701822" lon="0.726211">
        <ele>1557.6</ele>
        <time>2010-07-02T10:23:08Z</time>
      </trkpt>
      <trkpt lat="42.701650" lon="0.726510">
        <ele>1563.6</ele>
        <time>2010-07-02T10:23:08Z</time>
      </trkpt>
      <trkpt lat="42.701450" lon="0.726842">
        <ele>1572.8</ele>
        <time>2010-07-02T10:23:08Z</time>
      </trkpt>
      <trkpt lat="42.701288" lon="0.727186">
        <ele>1579.7</ele>
        <time>2010-07-02T10:23:08Z</time>
      </trkpt>
      <trkpt lat="42.701164" lon="0.727334">
        <ele>1580.8</ele>
        <time>2010-07-02T10:23:08Z</time>
      </trkpt>
      <trkpt lat="42.701017" lon="0.727345">
        <ele>1577.8</ele>
        <time>2010-07-02T10:23:08Z</time>
      </trkpt>
      <trkpt lat="42.700929" lon="0.727285">
        <ele>1573.7</ele>
        <time>2010-07-02T10:23:08Z</time>
      </trkpt>
      <trkpt lat="42.700830" lon="0.727294">
        <ele>1571.6</ele>
        <time>2010-07-02T10:23:08Z</time>
      </trkpt>
      <trkpt lat="42.700690" lon="0.727246">
        <ele>1566.5</ele>
        <time>2010-07-02T10:23:08Z</time>
      </trkpt>
      <trkpt lat="42.700615" lon="0.727305">
        <ele>1567.0</ele>
        <time>2010-07-02T10:23:08Z</time>
      </trkpt>
      <trkpt lat="42.700594" lon="0.727420">
        <ele>1571.1</ele>
        <time>2010-07-02T10:23:08Z</time>
      </trkpt>
      <trkpt lat="42.700511" lon="0.727518">
        <ele>1573.2</ele>
        <time>2010-07-02T10:23:08Z</time>
      </trkpt>
      <trkpt lat="42.700409" lon="0.727548">
        <ele>1569.9</ele>
        <time>2010-07-02T10:23:08Z</time>
      </trkpt>
      <trkpt lat="42.700344" lon="0.727521">
        <ele>1570.7</ele>
        <time>2010-07-02T10:23:08Z</time>
      </trkpt>
      <trkpt lat="42.700282" lon="0.727589">
        <ele>1573.1</ele>
        <time>2010-07-02T10:23:08Z</time>
      </trkpt>
      <trkpt lat="42.700229" lon="0.727546">
        <ele>1569.2</ele>
        <time>2010-07-02T10:23:08Z</time>
      </trkpt>
      <trkpt lat="42.700182" lon="0.727572">
        <ele>1569.9</ele>
        <time>2010-07-02T10:23:08Z</time>
      </trkpt>
      <trkpt lat="42.700082" lon="0.727605">
        <ele>1572.1</ele>
        <time>2010-07-02T10:23:08Z</time>
      </trkpt>
      <trkpt lat="42.700023" lon="0.727557">
        <ele>1566.5</ele>
        <time>2010-07-02T10:23:08Z</time>
      </trkpt>
      <trkpt lat="42.699928" lon="0.727488">
        <ele>1565.6</ele>
        <time>2010-07-02T10:23:08Z</time>
      </trkpt>
      <trkpt lat="42.699939" lon="0.727389">
        <ele>1559.9</ele>
        <time>2010-07-02T10:23:08Z</time>
      </trkpt>
      <trkpt lat="42.699902" lon="0.727325">
        <ele>1556.1</ele>
        <time>2010-07-02T10:23:08Z</time>
      </trkpt>
      <trkpt lat="42.699828" lon="0.727245">
        <ele>1553.8</ele>
        <time>2010-07-02T10:23:08Z</time>
      </trkpt>
      <trkpt lat="42.699790" lon="0.727146">
        <ele>1549.0</ele>
        <time>2010-07-02T10:23:08Z</time>
      </trkpt>
      <trkpt lat="42.699726" lon="0.727114">
        <ele>1546.9</ele>
        <time>2010-07-02T10:23:08Z</time>
      </trkpt>
      <trkpt lat="42.699682" lon="0.727030">
        <ele>1543.0</ele>
        <time>2010-07-02T10:23:08Z</time>
      </trkpt>
      <trkpt lat="42.699617" lon="0.726958">
        <ele>1539.5</ele>
        <time>2010-07-02T10:23:08Z</time>
      </trkpt>
      <trkpt lat="42.699724" lon="0.726914">
        <ele>1539.0</ele>
        <time>2010-07-02T10:23:08Z</time>
      </trkpt>
      <trkpt lat="42.699777" lon="0.726789">
        <ele>1534.7</ele>
        <time>2010-07-02T10:23:08Z</time>
      </trkpt>
      <trkpt lat="42.699886" lon="0.726767">
        <ele>1535.0</ele>
        <time>2010-07-02T10:23:08Z</time>
      </trkpt>
      <trkpt lat="42.699945" lon="0.726672">
        <ele>1529.9</ele>
        <time>2010-07-02T10:23:08Z</time>
      </trkpt>
      <trkpt lat="42.700021" lon="0.726668">
        <ele>1532.5</ele>
        <time>2010-07-02T10:23:08Z</time>
      </trkpt>
      <trkpt lat="42.700040" lon="0.726580">
        <ele>1525.0</ele>
        <time>2010-07-02T10:23:08Z</time>
      </trkpt>
      <trkpt lat="42.700121" lon="0.726501">
        <ele>1527.0</ele>
        <time>2010-07-02T10:23:08Z</time>
      </trkpt>
      <trkpt lat="42.700121" lon="0.726396">
        <ele>1520.5</ele>
        <time>2010-07-02T10:23:08Z</time>
      </trkpt>
      <trkpt lat="42.700125" lon="0.726314">
        <ele>1519.7</ele>
        <time>2010-07-02T10:23:08Z</time>
      </trkpt>
      <trkpt lat="42.700058" lon="0.726289">
        <ele>1518.1</ele>
        <time>2010-07-02T10:23:08Z</time>
      </trkpt>
      <trkpt lat="42.700103" lon="0.726219">
        <ele>1515.6</ele>
        <time>2010-07-02T10:23:08Z</time>
      </trkpt>
      <trkpt lat="42.700061" lon="0.726128">
        <ele>1512.7</ele>
        <time>2010-07-02T10:23:08Z</time>
      </trkpt>
      <trkpt lat="42.700085" lon="0.726055">
        <ele>1510.1</ele>
        <time>2010-07-02T10:23:08Z</time>
      </trkpt>
      <trkpt lat="42.700059" lon="0.725994">
        <ele>1508.4</ele>
        <time>2010-07-02T10:23:08Z</time>
      </trkpt>
      <trkpt lat="42.700088" lon="0.725940">
        <ele>1506.3</ele>
        <time>2010-07-02T10:23:08Z</time>
      </trkpt>
      <trkpt lat="42.700113" lon="0.725866">
        <ele>1504.7</ele>
        <time>2010-07-02T10:23:08Z</time>
      </trkpt>
      <trkpt lat="42.700075" lon="0.725799">
        <ele>1501.7</ele>
        <time>2010-07-02T10:23:08Z</time>
      </trkpt>
      <trkpt lat="42.700044" lon="0.725703">
        <ele>1498.9</ele>
        <time>2010-07-02T10:23:08Z</time>
      </trkpt>
      <trkpt lat="42.700087" lon="0.725651">
        <ele>1498.8</ele>
        <time>2010-07-02T10:23:08Z</time>
      </trkpt>
      <trkpt lat="42.700077" lon="0.725544">
        <ele>1494.1</ele>
        <time>2010-07-02T10:23:08Z</time>
      </trkpt>
      <trkpt lat="42.700142" lon="0.725511">
        <ele>1493.6</ele>
        <time>2010-07-02T10:23:08Z</time>
      </trkpt>
      <trkpt lat="42.700142" lon="0.725378">
        <ele>1489.3</ele>
        <time>2010-07-02T10:23:08Z</time>
      </trkpt>
      <trkpt lat="42.700182" lon="0.725292">
        <ele>1487.2</ele>
        <time>2010-07-02T10:23:08Z</time>
      </trkpt>
      <trkpt lat="42.700123" lon="0.725196">
        <ele>1484.0</ele>
        <time>2010-07-02T10:23:08Z</time>
      </trkpt>
      <trkpt lat="42.700123" lon="0.725044">
        <ele>1479.9</ele>
        <time>2010-07-02T10:23:08Z</time>
      </trkpt>
      <trkpt lat="42.700095" lon="0.724782">
        <ele>1472.1</ele>
        <time>2010-07-02T10:23:08Z</time>
      </trkpt>
      <trkpt lat="42.699992" lon="0.724573">
        <ele>1465.6</ele>
        <time>2010-07-02T10:23:08Z</time>
      </trkpt>
      <trkpt lat="42.699859" lon="0.724533">
        <ele>1463.6</ele>
        <time>2010-07-02T10:23:08Z</time>
      </trkpt>
      <trkpt lat="42.699804" lon="0.724378">
        <ele>1458.2</ele>
        <time>2010-07-02T10:23:08Z</time>
      </trkpt>
      <trkpt lat="42.699723" lon="0.724280">
        <ele>1454.7</ele>
        <time>2010-07-02T10:23:08Z</time>
      </trkpt>
      <trkpt lat="42.699753" lon="0.724199">
        <ele>1452.1</ele>
        <time>2010-07-02T10:23:08Z</time>
      </trkpt>
      <trkpt lat="42.699739" lon="0.724028">
        <ele>1446.4</ele>
        <time>2010-07-02T10:23:08Z</time>
      </trkpt>
      <trkpt lat="42.699795" lon="0.723971">
        <ele>1444.6</ele>
        <time>2010-07-02T10:23:08Z</time>
      </trkpt>
      <trkpt lat="42.699790" lon="0.723866">
        <ele>1441.1</ele>
        <time>2010-07-02T10:23:08Z</time>
      </trkpt>
      <trkpt lat="42.699853" lon="0.723794">
        <ele>1438.8</ele>
        <time>2010-07-02T10:23:08Z</time>
      </trkpt>
      <trkpt lat="42.699843" lon="0.723667">
        <ele>1434.4</ele>
        <time>2010-07-02T10:23:08Z</time>
      </trkpt>
      <trkpt lat="42.699939" lon="0.723657">
        <ele>1434.2</ele>
        <time>2010-07-02T10:23:08Z</time>
      </trkpt>
      <trkpt lat="42.699960" lon="0.723544">
        <ele>1432.3</ele>
        <time>2010-07-02T10:23:08Z</time>
      </trkpt>
      <trkpt lat="42.700074" lon="0.723446">
        <ele>1427.0</ele>
        <time>2010-07-02T10:23:08Z</time>
      </trkpt>
      <trkpt lat="42.700100" lon="0.723298">
        <ele>1421.9</ele>
        <time>2010-07-02T10:23:08Z</time>
      </trkpt>
      <trkpt lat="42.700355" lon="0.722907">
        <ele>1408.6</ele>
        <time>2010-07-02T10:23:08Z</time>
      </trkpt>
      <trkpt lat="42.700400" lon="0.722778">
        <ele>1403.3</ele>
        <time>2010-07-02T10:23:08Z</time>
      </trkpt>
      <trkpt lat="42.700469" lon="0.722718">
        <ele>1400.8</ele>
        <time>2010-07-02T10:23:08Z</time>
      </trkpt>
      <trkpt lat="42.700509" lon="0.722603">
        <ele>1396.2</ele>
        <time>2010-07-02T10:23:08Z</time>
      </trkpt>
      <trkpt lat="42.700506" lon="0.722412">
        <ele>1388.3</ele>
        <time>2010-07-02T10:23:08Z</time>
      </trkpt>
      <trkpt lat="42.700466" lon="0.722333">
        <ele>1384.8</ele>
        <time>2010-07-02T10:23:08Z</time>
      </trkpt>
      <trkpt lat="42.700338" lon="0.722294">
        <ele>1384.7</ele>
        <time>2010-07-02T10:23:08Z</time>
      </trkpt>
      <trkpt lat="42.700271" lon="0.722124">
        <ele>1380.2</ele>
        <time>2010-07-02T10:23:08Z</time>
      </trkpt>
      <trkpt lat="42.700134" lon="0.721983">
        <ele>1380.7</ele>
        <time>2010-07-02T10:23:08Z</time>
      </trkpt>
      <trkpt lat="42.700311" lon="0.721733">
        <ele>1365.7</ele>
        <time>2010-07-02T10:23:08Z</time>
      </trkpt>
      <trkpt lat="42.700492" lon="0.721516">
        <ele>1352.6</ele>
        <time>2010-07-02T10:23:08Z</time>
      </trkpt>
      <trkpt lat="42.700666" lon="0.721349">
        <ele>1347.1</ele>
        <time>2010-07-02T10:23:08Z</time>
      </trkpt>
      <trkpt lat="42.700825" lon="0.721071">
        <ele>1339.0</ele>
        <time>2010-07-02T10:23:08Z</time>
      </trkpt>
      <trkpt lat="42.701062" lon="0.720888">
        <ele>1334.4</ele>
        <time>2010-07-02T10:23:08Z</time>
      </trkpt>
      <trkpt lat="42.701155" lon="0.720682">
        <ele>1328.3</ele>
        <time>2010-07-02T10:23:08Z</time>
      </trkpt>
      <trkpt lat="42.701075" lon="0.720578">
        <ele>1325.2</ele>
        <time>2010-07-02T10:23:08Z</time>
      </trkpt>
      <trkpt lat="42.701091" lon="0.720432">
        <ele>1320.9</ele>
        <time>2010-07-02T10:23:08Z</time>
      </trkpt>
      <trkpt lat="42.701089" lon="0.720343">
        <ele>1319.0</ele>
        <time>2010-07-02T10:23:08Z</time>
      </trkpt>
      <trkpt lat="42.701156" lon="0.720359">
        <ele>1319.2</ele>
        <time>2010-07-02T10:23:08Z</time>
      </trkpt>
      <trkpt lat="42.701180" lon="0.720242">
        <ele>1316.9</ele>
        <time>2010-07-02T10:23:08Z</time>
      </trkpt>
      <trkpt lat="42.701320" lon="0.720140">
        <ele>1314.9</ele>
        <time>2010-07-02T10:23:08Z</time>
      </trkpt>
      <trkpt lat="42.701430" lon="0.719964">
        <ele>1311.3</ele>
        <time>2010-07-02T10:23:08Z</time>
      </trkpt>
      <trkpt lat="42.701645" lon="0.719864">
        <ele>1308.6</ele>
        <time>2010-07-02T10:23:08Z</time>
      </trkpt>
      <trkpt lat="42.701817" lon="0.719611">
        <ele>1300.7</ele>
        <time>2010-07-02T10:23:08Z</time>
      </trkpt>
      <trkpt lat="42.701857" lon="0.719336">
        <ele>1292.4</ele>
        <time>2010-07-02T10:23:08Z</time>
      </trkpt>
      <trkpt lat="42.702072" lon="0.718826">
        <ele>1274.5</ele>
        <time>2010-07-02T10:23:08Z</time>
      </trkpt>
      <trkpt lat="42.702137" lon="0.718647">
        <ele>1268.6</ele>
        <time>2010-07-02T10:23:08Z</time>
      </trkpt>
      <trkpt lat="42.702125" lon="0.718484">
        <ele>1264.9</ele>
        <time>2010-07-02T10:23:08Z</time>
      </trkpt>
      <trkpt lat="42.702046" lon="0.718455">
        <ele>1265.5</ele>
        <time>2010-07-02T10:23:08Z</time>
      </trkpt>
      <trkpt lat="42.701954" lon="0.718458">
        <ele>1266.9</ele>
        <time>2010-07-02T10:23:08Z</time>
      </trkpt>
      <trkpt lat="42.701816" lon="0.718536">
        <ele>1270.7</ele>
        <time>2010-07-02T10:23:08Z</time>
      </trkpt>
      <trkpt lat="42.701594" lon="0.718507">
        <ele>1273.2</ele>
        <time>2010-07-02T10:23:08Z</time>
      </trkpt>
      <trkpt lat="42.701479" lon="0.718585">
        <ele>1276.7</ele>
        <time>2010-07-02T10:23:08Z</time>
      </trkpt>
      <trkpt lat="42.701389" lon="0.718449">
        <ele>1274.8</ele>
        <time>2010-07-02T10:23:08Z</time>
      </trkpt>
      <trkpt lat="42.701291" lon="0.718480">
        <ele>1276.9</ele>
        <time>2010-07-02T10:23:08Z</time>
      </trkpt>
      <trkpt lat="42.701145" lon="0.718453">
        <ele>1278.5</ele>
        <time>2010-07-02T10:23:08Z</time>
      </trkpt>
      <trkpt lat="42.701201" lon="0.718138">
        <ele>1270.2</ele>
        <time>2010-07-02T10:23:08Z</time>
      </trkpt>
      <trkpt lat="42.701207" lon="0.717696">
        <ele>1260.5</ele>
        <time>2010-07-02T10:23:08Z</time>
      </trkpt>
      <trkpt lat="42.701171" lon="0.717349">
        <ele>1254.3</ele>
        <time>2010-07-02T10:23:08Z</time>
      </trkpt>
      <trkpt lat="42.701040" lon="0.717104">
        <ele>1251.0</ele>
        <time>2010-07-02T10:23:08Z</time>
      </trkpt>
      <trkpt lat="42.701087" lon="0.716894">
        <ele>1245.8</ele>
        <time>2010-07-02T10:23:08Z</time>
      </trkpt>
      <trkpt lat="42.701042" lon="0.716665">
        <ele>1241.0</ele>
        <time>2010-07-02T10:23:08Z</time>
      </trkpt>
      <trkpt lat="42.700898" lon="0.716529">
        <ele>1238.7</ele>
        <time>2010-07-02T10:23:08Z</time>
      </trkpt>
      <trkpt lat="42.700746" lon="0.716453">
        <ele>1237.5</ele>
        <time>2010-07-02T10:23:08Z</time>
      </trkpt>
      <trkpt lat="42.700577" lon="0.716440">
        <ele>1238.0</ele>
        <time>2010-07-02T10:23:08Z</time>
      </trkpt>
      <trkpt lat="42.700504" lon="0.716519">
        <ele>1240.6</ele>
        <time>2010-07-02T10:23:08Z</time>
      </trkpt>
      <trkpt lat="42.700392" lon="0.716439">
        <ele>1240.5</ele>
        <time>2010-07-02T10:23:08Z</time>
      </trkpt>
      <trkpt lat="42.700285" lon="0.716519">
        <ele>1250.8</ele>
        <time>2010-07-02T10:23:08Z</time>
      </trkpt>
      <trkpt lat="42.700092" lon="0.716509">
        <ele>1264.7</ele>
        <time>2010-07-02T10:23:08Z</time>
      </trkpt>
      <trkpt lat="42.700035" lon="0.716279">
        <ele>1261.8</ele>
        <time>2010-07-02T10:23:08Z</time>
      </trkpt>
      <trkpt lat="42.699989" lon="0.715974">
        <ele>1253.1</ele>
        <time>2010-07-02T10:23:08Z</time>
      </trkpt>
      <trkpt lat="42.699869" lon="0.715661">
        <ele>1246.4</ele>
        <time>2010-07-02T10:23:08Z</time>
      </trkpt>
      <trkpt lat="42.699734" lon="0.715294">
        <ele>1237.1</ele>
        <time>2010-07-02T10:23:08Z</time>
      </trkpt>
      <trkpt lat="42.699584" lon="0.715027">
        <ele>1233.4</ele>
        <time>2010-07-02T10:23:08Z</time>
      </trkpt>
      <trkpt lat="42.699322" lon="0.714745">
        <ele>1233.4</ele>
        <time>2010-07-02T10:23:08Z</time>
      </trkpt>
      <trkpt lat="42.699125" lon="0.714556">
        <ele>1234.2</ele>
        <time>2010-07-02T10:23:08Z</time>
      </trkpt>
      <trkpt lat="42.699026" lon="0.714399">
        <ele>1232.9</ele>
        <time>2010-07-02T10:23:08Z</time>
      </trkpt>
      <trkpt lat="42.698983" lon="0.714124">
        <ele>1225.6</ele>
        <time>2010-07-02T10:23:08Z</time>
      </trkpt>
      <trkpt lat="42.698934" lon="0.713904">
        <ele>1219.9</ele>
        <time>2010-07-02T10:23:08Z</time>
      </trkpt>
      <trkpt lat="42.698588" lon="0.713846">
        <ele>1228.4</ele>
        <time>2010-07-02T10:23:08Z</time>
      </trkpt>
      <trkpt lat="42.698523" lon="0.713753">
        <ele>1226.9</ele>
        <time>2010-07-02T10:23:08Z</time>
      </trkpt>
      <trkpt lat="42.698444" lon="0.713529">
        <ele>1222.9</ele>
        <time>2010-07-02T10:23:08Z</time>
      </trkpt>
      <trkpt lat="42.698288" lon="0.713359">
        <ele>1222.2</ele>
        <time>2010-07-02T10:23:08Z</time>
      </trkpt>
      <trkpt lat="42.698119" lon="0.713234">
        <ele>1223.0</ele>
        <time>2010-07-02T10:23:08Z</time>
      </trkpt>
      <trkpt lat="42.697842" lon="0.713109">
        <ele>1228.7</ele>
        <time>2010-07-02T10:23:08Z</time>
      </trkpt>
      <trkpt lat="42.697683" lon="0.712979">
        <ele>1234.2</ele>
        <time>2010-07-02T10:23:08Z</time>
      </trkpt>
      <trkpt lat="42.697525" lon="0.712864">
        <ele>1240.1</ele>
        <time>2010-07-02T10:23:08Z</time>
      </trkpt>
      <trkpt lat="42.697437" lon="0.712746">
        <ele>1241.1</ele>
        <time>2010-07-02T10:23:08Z</time>
      </trkpt>
      <trkpt lat="42.697336" lon="0.712498">
        <ele>1237.9</ele>
        <time>2010-07-02T10:23:08Z</time>
      </trkpt>
      <trkpt lat="42.697300" lon="0.712389">
        <ele>1235.8</ele>
        <time>2010-07-02T10:23:08Z</time>
      </trkpt>
      <trkpt lat="42.697275" lon="0.712219">
        <ele>1230.8</ele>
        <time>2010-07-02T10:23:08Z</time>
      </trkpt>
      <trkpt lat="42.697236" lon="0.712129">
        <ele>1229.5</ele>
        <time>2010-07-02T10:23:08Z</time>
      </trkpt>
      <trkpt lat="42.697032" lon="0.711785">
        <ele>1221.9</ele>
        <time>2010-07-02T10:23:08Z</time>
      </trkpt>
      <trkpt lat="42.696799" lon="0.711456">
        <ele>1216.3</ele>
        <time>2010-07-02T10:23:08Z</time>
      </trkpt>
      <trkpt lat="42.696696" lon="0.711289">
        <ele>1212.2</ele>
        <time>2010-07-02T10:23:08Z</time>
      </trkpt>
      <trkpt lat="42.696522" lon="0.711149">
        <ele>1215.3</ele>
        <time>2010-07-02T10:23:08Z</time>
      </trkpt>
      <trkpt lat="42.696397" lon="0.711013">
        <ele>1214.7</ele>
        <time>2010-07-02T10:23:08Z</time>
      </trkpt>
      <trkpt lat="42.696271" lon="0.710821">
        <ele>1209.1</ele>
        <time>2010-07-02T10:23:08Z</time>
      </trkpt>
      <trkpt lat="42.696178" lon="0.710624">
        <ele>1199.9</ele>
        <time>2010-07-02T10:23:08Z</time>
      </trkpt>
      <trkpt lat="42.696048" lon="0.710452">
        <ele>1192.9</ele>
        <time>2010-07-02T10:23:08Z</time>
      </trkpt>
      <trkpt lat="42.695920" lon="0.710371">
        <ele>1193.7</ele>
        <time>2010-07-02T10:23:08Z</time>
      </trkpt>
      <trkpt lat="42.695845" lon="0.710329">
        <ele>1195.0</ele>
        <time>2010-07-02T10:23:08Z</time>
      </trkpt>
      <trkpt lat="42.695725" lon="0.710288">
        <ele>1197.0</ele>
        <time>2010-07-02T10:23:08Z</time>
      </trkpt>
      <trkpt lat="42.695590" lon="0.710197">
        <ele>1198.1</ele>
        <time>2010-07-02T10:23:08Z</time>
      </trkpt>
      <trkpt lat="42.695462" lon="0.710101">
        <ele>1198.2</ele>
        <time>2010-07-02T10:23:08Z</time>
      </trkpt>
      <trkpt lat="42.695256" lon="0.710013">
        <ele>1198.3</ele>
        <time>2010-07-02T10:23:08Z</time>
      </trkpt>
      <trkpt lat="42.695071" lon="0.709879">
        <ele>1196.8</ele>
        <time>2010-07-02T10:23:08Z</time>
      </trkpt>
      <trkpt lat="42.694954" lon="0.709848">
        <ele>1197.1</ele>
        <time>2010-07-02T10:23:08Z</time>
      </trkpt>
      <trkpt lat="42.694579" lon="0.709849">
        <ele>1200.4</ele>
        <time>2010-07-02T10:23:08Z</time>
      </trkpt>
      <trkpt lat="42.694449" lon="0.709817">
        <ele>1200.8</ele>
        <time>2010-07-02T10:23:08Z</time>
      </trkpt>
      <trkpt lat="42.694332" lon="0.709746">
        <ele>1200.1</ele>
        <time>2010-07-02T10:23:08Z</time>
      </trkpt>
      <trkpt lat="42.694216" lon="0.709698">
        <ele>1199.9</ele>
        <time>2010-07-02T10:23:08Z</time>
      </trkpt>
      <trkpt lat="42.694079" lon="0.709646">
        <ele>1199.8</ele>
        <time>2010-07-02T10:23:08Z</time>
      </trkpt>
      <trkpt lat="42.693965" lon="0.709594">
        <ele>1199.5</ele>
        <time>2010-07-02T10:23:08Z</time>
      </trkpt>
      <trkpt lat="42.693933" lon="0.709484">
        <ele>1202.1</ele>
        <time>2010-07-02T10:23:08Z</time>
      </trkpt>
      <trkpt lat="42.694071" lon="0.709454">
        <ele>1201.5</ele>
        <time>2010-07-02T10:23:08Z</time>
      </trkpt>
      <trkpt lat="42.694257" lon="0.709532">
        <ele>1197.8</ele>
        <time>2010-07-02T10:23:08Z</time>
      </trkpt>
      <trkpt lat="42.694434" lon="0.709534">
        <ele>1196.1</ele>
        <time>2010-07-02T10:23:08Z</time>
      </trkpt>
      <trkpt lat="42.694600" lon="0.709497">
        <ele>1195.2</ele>
        <time>2010-07-02T10:23:08Z</time>
      </trkpt>
      <trkpt lat="42.694779" lon="0.709390">
        <ele>1195.6</ele>
        <time>2010-07-02T10:23:08Z</time>
      </trkpt>
      <trkpt lat="42.694862" lon="0.709387">
        <ele>1195.1</ele>
        <time>2010-07-02T10:23:08Z</time>
      </trkpt>
      <trkpt lat="42.694952" lon="0.709497">
        <ele>1192.5</ele>
        <time>2010-07-02T10:23:08Z</time>
      </trkpt>
      <trkpt lat="42.695377" lon="0.709775">
        <ele>1191.7</ele>
        <time>2010-07-02T10:23:08Z</time>
      </trkpt>
      <trkpt lat="42.695834" lon="0.709847">
        <ele>1191.2</ele>
        <time>2010-07-02T10:23:08Z</time>
      </trkpt>
      <trkpt lat="42.696053" lon="0.709896">
        <ele>1190.3</ele>
        <time>2010-07-02T10:23:08Z</time>
      </trkpt>
      <trkpt lat="42.696491" lon="0.710250">
        <ele>1185.7</ele>
        <time>2010-07-02T10:23:08Z</time>
      </trkpt>
      <trkpt lat="42.696785" lon="0.710384">
        <ele>1181.5</ele>
        <time>2010-07-02T10:23:08Z</time>
      </trkpt>
      <trkpt lat="42.696917" lon="0.710473">
        <ele>1180.8</ele>
        <time>2010-07-02T10:23:08Z</time>
      </trkpt>
      <trkpt lat="42.697042" lon="0.710701">
        <ele>1182.5</ele>
        <time>2010-07-02T10:23:08Z</time>
      </trkpt>
      <trkpt lat="42.697156" lon="0.710879">
        <ele>1182.5</ele>
        <time>2010-07-02T10:23:08Z</time>
      </trkpt>
      <trkpt lat="42.697292" lon="0.710949">
        <ele>1181.0</ele>
        <time>2010-07-02T10:23:08Z</time>
      </trkpt>
      <trkpt lat="42.697516" lon="0.710998">
        <ele>1177.5</ele>
        <time>2010-07-02T10:23:08Z</time>
      </trkpt>
      <trkpt lat="42.697834" lon="0.711149">
        <ele>1171.3</ele>
        <time>2010-07-02T10:23:08Z</time>
      </trkpt>
      <trkpt lat="42.698057" lon="0.711228">
        <ele>1167.6</ele>
        <time>2010-07-02T10:23:08Z</time>
      </trkpt>
      <trkpt lat="42.698197" lon="0.711236">
        <ele>1166.1</ele>
        <time>2010-07-02T10:23:08Z</time>
      </trkpt>
      <trkpt lat="42.698309" lon="0.711314">
        <ele>1166.1</ele>
        <time>2010-07-02T10:23:08Z</time>
      </trkpt>
      <trkpt lat="42.698431" lon="0.711385">
        <ele>1166.1</ele>
        <time>2010-07-02T10:23:08Z</time>
      </trkpt>
      <trkpt lat="42.698565" lon="0.711373">
        <ele>1164.2</ele>
        <time>2010-07-02T10:23:08Z</time>
      </trkpt>
      <trkpt lat="42.699283" lon="0.711378">
        <ele>1157.9</ele>
        <time>2010-07-02T10:23:08Z</time>
      </trkpt>
      <trkpt lat="42.699404" lon="0.711179">
        <ele>1158.1</ele>
        <time>2010-07-02T10:23:08Z</time>
      </trkpt>
      <trkpt lat="42.699485" lon="0.711057">
        <ele>1161.4</ele>
        <time>2010-07-02T10:23:08Z</time>
      </trkpt>
      <trkpt lat="42.699730" lon="0.711017">
        <ele>1164.4</ele>
        <time>2010-07-02T10:23:08Z</time>
      </trkpt>
      <trkpt lat="42.700068" lon="0.711055">
        <ele>1167.4</ele>
        <time>2010-07-02T10:23:08Z</time>
      </trkpt>
      <trkpt lat="42.700613" lon="0.711179">
        <ele>1170.7</ele>
        <time>2010-07-02T10:23:08Z</time>
      </trkpt>
      <trkpt lat="42.701073" lon="0.711269">
        <ele>1176.1</ele>
        <time>2010-07-02T10:23:08Z</time>
      </trkpt>
      <trkpt lat="42.701257" lon="0.711293">
        <ele>1178.8</ele>
        <time>2010-07-02T10:23:08Z</time>
      </trkpt>
      <trkpt lat="42.701286" lon="0.711221">
        <ele>1182.6</ele>
        <time>2010-07-02T10:23:08Z</time>
      </trkpt>
      <trkpt lat="42.700877" lon="0.710923">
        <ele>1187.5</ele>
        <time>2010-07-02T10:23:08Z</time>
      </trkpt>
      <trkpt lat="42.700591" lon="0.710708">
        <ele>1189.9</ele>
        <time>2010-07-02T10:23:08Z</time>
      </trkpt>
      <trkpt lat="42.700349" lon="0.710493">
        <ele>1192.8</ele>
        <time>2010-07-02T10:23:08Z</time>
      </trkpt>
      <trkpt lat="42.700104" lon="0.710150">
        <ele>1200.7</ele>
        <time>2010-07-02T10:23:08Z</time>
      </trkpt>
      <trkpt lat="42.699934" lon="0.709950">
        <ele>1204.5</ele>
        <time>2010-07-02T10:23:08Z</time>
      </trkpt>
      <trkpt lat="42.699795" lon="0.709858">
        <ele>1204.9</ele>
        <time>2010-07-02T10:23:08Z</time>
      </trkpt>
      <trkpt lat="42.699578" lon="0.709817">
        <ele>1202.1</ele>
        <time>2010-07-02T10:23:08Z</time>
      </trkpt>
      <trkpt lat="42.699411" lon="0.709754">
        <ele>1202.2</ele>
        <time>2010-07-02T10:23:08Z</time>
      </trkpt>
      <trkpt lat="42.699059" lon="0.709455">
        <ele>1208.1</ele>
        <time>2010-07-02T10:23:08Z</time>
      </trkpt>
      <trkpt lat="42.698655" lon="0.709108">
        <ele>1214.4</ele>
        <time>2010-07-02T10:23:08Z</time>
      </trkpt>
      <trkpt lat="42.698462" lon="0.708842">
        <ele>1221.0</ele>
        <time>2010-07-02T10:23:08Z</time>
      </trkpt>
      <trkpt lat="42.698253" lon="0.708554">
        <ele>1229.2</ele>
        <time>2010-07-02T10:23:08Z</time>
      </trkpt>
      <trkpt lat="42.698094" lon="0.708379">
        <ele>1233.5</ele>
        <time>2010-07-02T10:23:08Z</time>
      </trkpt>
      <trkpt lat="42.697951" lon="0.708279">
        <ele>1234.8</ele>
        <time>2010-07-02T10:23:08Z</time>
      </trkpt>
      <trkpt lat="42.697762" lon="0.708251">
        <ele>1234.3</ele>
        <time>2010-07-02T10:23:08Z</time>
      </trkpt>
      <trkpt lat="42.697550" lon="0.708184">
        <ele>1235.1</ele>
        <time>2010-07-02T10:23:08Z</time>
      </trkpt>
      <trkpt lat="42.697257" lon="0.708154">
        <ele>1234.0</ele>
        <time>2010-07-02T10:23:08Z</time>
      </trkpt>
      <trkpt lat="42.697086" lon="0.708120">
        <ele>1233.6</ele>
        <time>2010-07-02T10:23:08Z</time>
      </trkpt>
      <trkpt lat="42.697003" lon="0.708028">
        <ele>1235.4</ele>
        <time>2010-07-02T10:23:08Z</time>
      </trkpt>
      <trkpt lat="42.696975" lon="0.707909">
        <ele>1238.0</ele>
        <time>2010-07-02T10:23:08Z</time>
      </trkpt>
      <trkpt lat="42.697044" lon="0.707831">
        <ele>1240.9</ele>
        <time>2010-07-02T10:23:08Z</time>
      </trkpt>
      <trkpt lat="42.697370" lon="0.707674">
        <ele>1251.2</ele>
        <time>2010-07-02T10:23:08Z</time>
      </trkpt>
      <trkpt lat="42.697464" lon="0.707575">
        <ele>1257.3</ele>
        <time>2010-07-02T10:23:08Z</time>
      </trkpt>
      <trkpt lat="42.697476" lon="0.707474">
        <ele>1262.2</ele>
        <time>2010-07-02T10:23:08Z</time>
      </trkpt>
      <trkpt lat="42.697449" lon="0.707405">
        <ele>1264.7</ele>
        <time>2010-07-02T10:23:08Z</time>
      </trkpt>
      <trkpt lat="42.697329" lon="0.707309">
        <ele>1265.8</ele>
        <time>2010-07-02T10:23:08Z</time>
      </trkpt>
      <trkpt lat="42.697192" lon="0.707284">
        <ele>1263.0</ele>
        <time>2010-07-02T10:23:08Z</time>
      </trkpt>
      <trkpt lat="42.696863" lon="0.707276">
        <ele>1259.3</ele>
        <time>2010-07-02T10:23:08Z</time>
      </trkpt>
      <trkpt lat="42.696718" lon="0.707267">
        <ele>1259.1</ele>
        <time>2010-07-02T10:23:08Z</time>
      </trkpt>
      <trkpt lat="42.696665" lon="0.707178">
        <ele>1261.8</ele>
        <time>2010-07-02T10:23:08Z</time>
      </trkpt>
      <trkpt lat="42.696606" lon="0.707015">
        <ele>1267.2</ele>
        <time>2010-07-02T10:23:08Z</time>
      </trkpt>
      <trkpt lat="42.696549" lon="0.706942">
        <ele>1269.5</ele>
        <time>2010-07-02T10:23:08Z</time>
      </trkpt>
      <trkpt lat="42.696515" lon="0.706908">
        <ele>1270.5</ele>
        <time>2010-07-02T10:23:08Z</time>
      </trkpt>
      <trkpt lat="42.696471" lon="0.706915">
        <ele>1270.0</ele>
        <time>2010-07-02T10:23:08Z</time>
      </trkpt>
      <trkpt lat="42.696439" lon="0.707006">
        <ele>1266.6</ele>
        <time>2010-07-02T10:23:08Z</time>
      </trkpt>
      <trkpt lat="42.696424" lon="0.707157">
        <ele>1261.4</ele>
        <time>2010-07-02T10:23:08Z</time>
      </trkpt>
      <trkpt lat="42.696389" lon="0.707284">
        <ele>1257.1</ele>
        <time>2010-07-02T10:23:08Z</time>
      </trkpt>
      <trkpt lat="42.696372" lon="0.707349">
        <ele>1254.9</ele>
        <time>2010-07-02T10:23:08Z</time>
      </trkpt>
      <trkpt lat="42.696281" lon="0.707398">
        <ele>1252.9</ele>
        <time>2010-07-02T10:23:08Z</time>
      </trkpt>
      <trkpt lat="42.696144" lon="0.707393">
        <ele>1252.9</ele>
        <time>2010-07-02T10:23:08Z</time>
      </trkpt>
      <trkpt lat="42.696016" lon="0.707312">
        <ele>1255.6</ele>
        <time>2010-07-02T10:23:08Z</time>
      </trkpt>
      <trkpt lat="42.695886" lon="0.707277">
        <ele>1256.9</ele>
        <time>2010-07-02T10:23:08Z</time>
      </trkpt>
      <trkpt lat="42.695693" lon="0.707249">
        <ele>1257.9</ele>
        <time>2010-07-02T10:23:08Z</time>
      </trkpt>
      <trkpt lat="42.695412" lon="0.707249">
        <ele>1258.1</ele>
        <time>2010-07-02T10:23:08Z</time>
      </trkpt>
      <trkpt lat="42.695263" lon="0.707200">
        <ele>1263.0</ele>
        <time>2010-07-02T10:23:08Z</time>
      </trkpt>
      <trkpt lat="42.695119" lon="0.707034">
        <ele>1272.5</ele>
        <time>2010-07-02T10:23:08Z</time>
      </trkpt>
      <trkpt lat="42.695023" lon="0.706873">
        <ele>1280.6</ele>
        <time>2010-07-02T10:23:08Z</time>
      </trkpt>
      <trkpt lat="42.694964" lon="0.706844">
        <ele>1283.1</ele>
        <time>2010-07-02T10:23:08Z</time>
      </trkpt>
      <trkpt lat="42.694881" lon="0.706963">
        <ele>1280.8</ele>
        <time>2010-07-02T10:23:08Z</time>
      </trkpt>
      <trkpt lat="42.694762" lon="0.707103">
        <ele>1278.0</ele>
        <time>2010-07-02T10:23:08Z</time>
      </trkpt>
      <trkpt lat="42.694674" lon="0.707151">
        <ele>1277.7</ele>
        <time>2010-07-02T10:23:08Z</time>
      </trkpt>
      <trkpt lat="42.694485" lon="0.707163">
        <ele>1281.1</ele>
        <time>2010-07-02T10:23:08Z</time>
      </trkpt>
      <trkpt lat="42.694426" lon="0.707155">
        <ele>1282.7</ele>
        <time>2010-07-02T10:23:08Z</time>
      </trkpt>
      <trkpt lat="42.694223" lon="0.707193">
        <ele>1285.2</ele>
        <time>2010-07-02T10:23:08Z</time>
      </trkpt>
      <trkpt lat="42.694032" lon="0.707265">
        <ele>1286.0</ele>
        <time>2010-07-02T10:23:08Z</time>
      </trkpt>
      <trkpt lat="42.693860" lon="0.707341">
        <ele>1286.4</ele>
        <time>2010-07-02T10:23:08Z</time>
      </trkpt>
      <trkpt lat="42.693706" lon="0.707392">
        <ele>1287.3</ele>
        <time>2010-07-02T10:23:08Z</time>
      </trkpt>
      <trkpt lat="42.693554" lon="0.707398">
        <ele>1289.5</ele>
        <time>2010-07-02T10:23:08Z</time>
      </trkpt>
      <trkpt lat="42.693402" lon="0.707353">
        <ele>1293.7</ele>
        <time>2010-07-02T10:23:08Z</time>
      </trkpt>
      <trkpt lat="42.693202" lon="0.707360">
        <ele>1296.6</ele>
        <time>2010-07-02T10:23:08Z</time>
      </trkpt>
      <trkpt lat="42.692995" lon="0.707383">
        <ele>1299.0</ele>
        <time>2010-07-02T10:23:08Z</time>
      </trkpt>
      <trkpt lat="42.692823" lon="0.707455">
        <ele>1297.8</ele>
        <time>2010-07-02T10:23:08Z</time>
      </trkpt>
      <trkpt lat="42.692679" lon="0.707480">
        <ele>1297.2</ele>
        <time>2010-07-02T10:23:08Z</time>
      </trkpt>
      <trkpt lat="42.692468" lon="0.707468">
        <ele>1298.0</ele>
        <time>2010-07-02T10:23:08Z</time>
      </trkpt>
      <trkpt lat="42.692324" lon="0.707478">
        <ele>1297.9</ele>
        <time>2010-07-02T10:23:08Z</time>
      </trkpt>
      <trkpt lat="42.692223" lon="0.707426">
        <ele>1300.1</ele>
        <time>2010-07-02T10:23:08Z</time>
      </trkpt>
      <trkpt lat="42.692062" lon="0.707312">
        <ele>1305.2</ele>
        <time>2010-07-02T10:23:08Z</time>
      </trkpt>
      <trkpt lat="42.691911" lon="0.707193">
        <ele>1311.9</ele>
        <time>2010-07-02T10:23:08Z</time>
      </trkpt>
      <trkpt lat="42.691833" lon="0.707175">
        <ele>1313.6</ele>
        <time>2010-07-02T10:23:08Z</time>
      </trkpt>
      <trkpt lat="42.691745" lon="0.707203">
        <ele>1313.6</ele>
        <time>2010-07-02T10:23:08Z</time>
      </trkpt>
      <trkpt lat="42.691498" lon="0.707223">
        <ele>1316.1</ele>
        <time>2010-07-02T10:23:08Z</time>
      </trkpt>
      <trkpt lat="42.691313" lon="0.707225">
        <ele>1318.4</ele>
        <time>2010-07-02T10:23:08Z</time>
      </trkpt>
      <trkpt lat="42.691155" lon="0.707291">
        <ele>1317.9</ele>
        <time>2010-07-02T10:23:08Z</time>
      </trkpt>
      <trkpt lat="42.690852" lon="0.707497">
        <ele>1313.8</ele>
        <time>2010-07-02T10:23:08Z</time>
      </trkpt>
      <trkpt lat="42.690630" lon="0.707666">
        <ele>1310.1</ele>
        <time>2010-07-02T10:23:08Z</time>
      </trkpt>
      <trkpt lat="42.690471" lon="0.707667">
        <ele>1312.4</ele>
        <time>2010-07-02T10:23:08Z</time>
      </trkpt>
      <trkpt lat="42.690308" lon="0.707653">
        <ele>1316.1</ele>
        <time>2010-07-02T10:23:08Z</time>
      </trkpt>
      <trkpt lat="42.690140" lon="0.707578">
        <ele>1323.1</ele>
        <time>2010-07-02T10:23:08Z</time>
      </trkpt>
      <trkpt lat="42.690002" lon="0.707513">
        <ele>1329.5</ele>
        <time>2010-07-02T10:23:08Z</time>
      </trkpt>
      <trkpt lat="42.689916" lon="0.707487">
        <ele>1333.0</ele>
        <time>2010-07-02T10:23:08Z</time>
      </trkpt>
      <trkpt lat="42.689842" lon="0.707484">
        <ele>1335.0</ele>
        <time>2010-07-02T10:23:08Z</time>
      </trkpt>
      <trkpt lat="42.689695" lon="0.707509">
        <ele>1337.2</ele>
        <time>2010-07-02T10:23:08Z</time>
      </trkpt>
      <trkpt lat="42.689390" lon="0.707646">
        <ele>1336.7</ele>
        <time>2010-07-02T10:23:08Z</time>
      </trkpt>
      <trkpt lat="42.689151" lon="0.707720">
        <ele>1338.4</ele>
        <time>2010-07-02T10:23:08Z</time>
      </trkpt>
      <trkpt lat="42.688753" lon="0.707770">
        <ele>1345.8</ele>
        <time>2010-07-02T10:23:08Z</time>
      </trkpt>
      <trkpt lat="42.688514" lon="0.707849">
        <ele>1347.1</ele>
        <time>2010-07-02T10:23:08Z</time>
      </trkpt>
      <trkpt lat="42.688279" lon="0.708088">
        <ele>1344.0</ele>
        <time>2010-07-02T10:23:08Z</time>
      </trkpt>
      <trkpt lat="42.687984" lon="0.708540">
        <ele>1337.0</ele>
        <time>2010-07-02T10:23:08Z</time>
      </trkpt>
      <trkpt lat="42.687817" lon="0.708662">
        <ele>1336.1</ele>
        <time>2010-07-02T10:23:08Z</time>
      </trkpt>
      <trkpt lat="42.687684" lon="0.708692">
        <ele>1336.9</ele>
        <time>2010-07-02T10:23:08Z</time>
      </trkpt>
      <trkpt lat="42.687503" lon="0.708728">
        <ele>1338.1</ele>
        <time>2010-07-02T10:23:08Z</time>
      </trkpt>
      <trkpt lat="42.687248" lon="0.708697">
        <ele>1342.5</ele>
        <time>2010-07-02T10:23:08Z</time>
      </trkpt>
      <trkpt lat="42.686750" lon="0.708611">
        <ele>1347.1</ele>
        <time>2010-07-02T10:23:08Z</time>
      </trkpt>
      <trkpt lat="42.685990" lon="0.708508">
        <ele>1350.4</ele>
        <time>2010-07-02T10:23:08Z</time>
      </trkpt>
      <trkpt lat="42.685586" lon="0.708463">
        <ele>1352.4</ele>
        <time>2010-07-02T10:23:08Z</time>
      </trkpt>
      <trkpt lat="42.685350" lon="0.708361">
        <ele>1357.0</ele>
        <time>2010-07-02T10:23:08Z</time>
      </trkpt>
      <trkpt lat="42.685046" lon="0.708277">
        <ele>1363.9</ele>
        <time>2010-07-02T10:23:08Z</time>
      </trkpt>
      <trkpt lat="42.684760" lon="0.708233">
        <ele>1369.2</ele>
        <time>2010-07-02T10:23:08Z</time>
      </trkpt>
      <trkpt lat="42.684512" lon="0.708237">
        <ele>1373.6</ele>
        <time>2010-07-02T10:23:08Z</time>
      </trkpt>
      <trkpt lat="42.684236" lon="0.708317">
        <ele>1379.8</ele>
        <time>2010-07-02T10:23:08Z</time>
      </trkpt>
      <trkpt lat="42.684116" lon="0.708382">
        <ele>1381.8</ele>
        <time>2010-07-02T10:23:08Z</time>
      </trkpt>
      <trkpt lat="42.683991" lon="0.708420">
        <ele>1384.7</ele>
        <time>2010-07-02T10:23:08Z</time>
      </trkpt>
      <trkpt lat="42.683931" lon="0.708278">
        <ele>1390.3</ele>
        <time>2010-07-02T10:23:08Z</time>
      </trkpt>
      <trkpt lat="42.684040" lon="0.708104">
        <ele>1391.6</ele>
        <time>2010-07-02T10:23:08Z</time>
      </trkpt>
      <trkpt lat="42.684286" lon="0.707844">
        <ele>1392.3</ele>
        <time>2010-07-02T10:23:08Z</time>
      </trkpt>
      <trkpt lat="42.684913" lon="0.707374">
        <ele>1398.4</ele>
        <time>2010-07-02T10:23:08Z</time>
      </trkpt>
      <trkpt lat="42.685263" lon="0.707320">
        <ele>1398.4</ele>
        <time>2010-07-02T10:23:08Z</time>
      </trkpt>
      <trkpt lat="42.685357" lon="0.707212">
        <ele>1402.6</ele>
        <time>2010-07-02T10:23:08Z</time>
      </trkpt>
      <trkpt lat="42.685329" lon="0.707084">
        <ele>1408.3</ele>
        <time>2010-07-02T10:23:08Z</time>
      </trkpt>
      <trkpt lat="42.685223" lon="0.707001">
        <ele>1413.8</ele>
        <time>2010-07-02T10:23:08Z</time>
      </trkpt>
      <trkpt lat="42.684998" lon="0.707015">
        <ele>1413.6</ele>
        <time>2010-07-02T10:23:08Z</time>
      </trkpt>
      <trkpt lat="42.684111" lon="0.707033">
        <ele>1429.1</ele>
        <time>2010-07-02T10:23:08Z</time>
      </trkpt>
      <trkpt lat="42.683703" lon="0.707168">
        <ele>1434.8</ele>
        <time>2010-07-02T10:23:08Z</time>
      </trkpt>
      <trkpt lat="42.683422" lon="0.707359">
        <ele>1428.5</ele>
        <time>2010-07-02T10:23:08Z</time>
      </trkpt>
      <trkpt lat="42.683264" lon="0.707565">
        <ele>1421.3</ele>
        <time>2010-07-02T10:23:08Z</time>
      </trkpt>
      <trkpt lat="42.683178" lon="0.707850">
        <ele>1411.0</ele>
        <time>2010-07-02T10:23:08Z</time>
      </trkpt>
      <trkpt lat="42.683128" lon="0.707976">
        <ele>1406.8</ele>
        <time>2010-07-02T10:23:08Z</time>
      </trkpt>
      <trkpt lat="42.683071" lon="0.708002">
        <ele>1406.3</ele>
        <time>2010-07-02T10:23:08Z</time>
      </trkpt>
      <trkpt lat="42.683014" lon="0.708012">
        <ele>1406.3</ele>
        <time>2010-07-02T10:23:08Z</time>
      </trkpt>
      <trkpt lat="42.682933" lon="0.707999">
        <ele>1407.1</ele>
        <time>2010-07-02T10:23:08Z</time>
      </trkpt>
      <trkpt lat="42.682804" lon="0.707871">
        <ele>1412.8</ele>
        <time>2010-07-02T10:23:08Z</time>
      </trkpt>
      <trkpt lat="42.682620" lon="0.707605">
        <ele>1421.0</ele>
        <time>2010-07-02T10:23:08Z</time>
      </trkpt>
      <trkpt lat="42.682477" lon="0.707352">
        <ele>1425.2</ele>
        <time>2010-07-02T10:23:08Z</time>
      </trkpt>
      <trkpt lat="42.682288" lon="0.707110">
        <ele>1424.9</ele>
        <time>2010-07-02T10:23:08Z</time>
      </trkpt>
      <trkpt lat="42.682151" lon="0.706888">
        <ele>1428.7</ele>
        <time>2010-07-02T10:23:08Z</time>
      </trkpt>
      <trkpt lat="42.681995" lon="0.706582">
        <ele>1437.2</ele>
        <time>2010-07-02T10:23:08Z</time>
      </trkpt>
      <trkpt lat="42.681905" lon="0.706406">
        <ele>1441.9</ele>
        <time>2010-07-02T10:23:08Z</time>
      </trkpt>
      <trkpt lat="42.681651" lon="0.705955">
        <ele>1454.7</ele>
        <time>2010-07-02T10:23:08Z</time>
      </trkpt>
      <trkpt lat="42.681502" lon="0.705720">
        <ele>1461.1</ele>
        <time>2010-07-02T10:23:08Z</time>
      </trkpt>
      <trkpt lat="42.681318" lon="0.705532">
        <ele>1463.7</ele>
        <time>2010-07-02T10:23:08Z</time>
      </trkpt>
      <trkpt lat="42.680914" lon="0.705307">
        <ele>1469.4</ele>
        <time>2010-07-02T10:23:08Z</time>
      </trkpt>
      <trkpt lat="42.680811" lon="0.705271">
        <ele>1470.3</ele>
        <time>2010-07-02T10:23:08Z</time>
      </trkpt>
      <trkpt lat="42.680649" lon="0.705307">
        <ele>1469.4</ele>
        <time>2010-07-02T10:23:08Z</time>
      </trkpt>
      <trkpt lat="42.680511" lon="0.705447">
        <ele>1466.2</ele>
        <time>2010-07-02T10:23:08Z</time>
      </trkpt>
      <trkpt lat="42.680396" lon="0.705601">
        <ele>1463.3</ele>
        <time>2010-07-02T10:23:08Z</time>
      </trkpt>
      <trkpt lat="42.680247" lon="0.705682">
        <ele>1462.4</ele>
        <time>2010-07-02T10:23:08Z</time>
      </trkpt>
      <trkpt lat="42.680081" lon="0.705728">
        <ele>1462.6</ele>
        <time>2010-07-02T10:23:08Z</time>
      </trkpt>
      <trkpt lat="42.679939" lon="0.705808">
        <ele>1462.5</ele>
        <time>2010-07-02T10:23:08Z</time>
      </trkpt>
      <trkpt lat="42.679873" lon="0.705820">
        <ele>1462.9</ele>
        <time>2010-07-02T10:23:08Z</time>
      </trkpt>
      <trkpt lat="42.679773" lon="0.705784">
        <ele>1463.9</ele>
        <time>2010-07-02T10:23:08Z</time>
      </trkpt>
      <trkpt lat="42.679608" lon="0.705675">
        <ele>1465.6</ele>
        <time>2010-07-02T10:23:08Z</time>
      </trkpt>
      <trkpt lat="42.679479" lon="0.705470">
        <ele>1466.5</ele>
        <time>2010-07-02T10:23:08Z</time>
      </trkpt>
      <trkpt lat="42.679440" lon="0.705371">
        <ele>1467.6</ele>
        <time>2010-07-02T10:23:08Z</time>
      </trkpt>
      <trkpt lat="42.679351" lon="0.705364">
        <ele>1467.5</ele>
        <time>2010-07-02T10:23:08Z</time>
      </trkpt>
      <trkpt lat="42.679289" lon="0.705422">
        <ele>1466.3</ele>
        <time>2010-07-02T10:23:08Z</time>
      </trkpt>
      <trkpt lat="42.679111" lon="0.705558">
        <ele>1465.8</ele>
        <time>2010-07-02T10:23:08Z</time>
      </trkpt>
      <trkpt lat="42.678983" lon="0.705578">
        <ele>1465.6</ele>
        <time>2010-07-02T10:23:08Z</time>
      </trkpt>
      <trkpt lat="42.678812" lon="0.705549">
        <ele>1465.4</ele>
        <time>2010-07-02T10:23:08Z</time>
      </trkpt>
      <trkpt lat="42.678589" lon="0.705477">
        <ele>1467.3</ele>
        <time>2010-07-02T10:23:08Z</time>
      </trkpt>
      <trkpt lat="42.678463" lon="0.705427">
        <ele>1468.8</ele>
        <time>2010-07-02T10:23:08Z</time>
      </trkpt>
      <trkpt lat="42.678467" lon="0.705087">
        <ele>1472.8</ele>
        <time>2010-07-02T10:23:08Z</time>
      </trkpt>
      <trkpt lat="42.678489" lon="0.704881">
        <ele>1475.2</ele>
        <time>2010-07-02T10:23:08Z</time>
      </trkpt>
      <trkpt lat="42.678451" lon="0.704662">
        <ele>1478.2</ele>
        <time>2010-07-02T10:23:08Z</time>
      </trkpt>
      <trkpt lat="42.678405" lon="0.704364">
        <ele>1485.1</ele>
        <time>2010-07-02T10:23:08Z</time>
      </trkpt>
      <trkpt lat="42.678374" lon="0.704125">
        <ele>1491.0</ele>
        <time>2010-07-02T10:23:08Z</time>
      </trkpt>
      <trkpt lat="42.678306" lon="0.703872">
        <ele>1496.2</ele>
        <time>2010-07-02T10:23:08Z</time>
      </trkpt>
      <trkpt lat="42.678240" lon="0.703694">
        <ele>1499.8</ele>
        <time>2010-07-02T10:23:08Z</time>
      </trkpt>
      <trkpt lat="42.678132" lon="0.703449">
        <ele>1506.9</ele>
        <time>2010-07-02T10:23:08Z</time>
      </trkpt>
      <trkpt lat="42.678074" lon="0.703346">
        <ele>1509.7</ele>
        <time>2010-07-02T10:23:08Z</time>
      </trkpt>
      <trkpt lat="42.678018" lon="0.703288">
        <ele>1510.9</ele>
        <time>2010-07-02T10:23:08Z</time>
      </trkpt>
      <trkpt lat="42.677950" lon="0.703195">
        <ele>1513.2</ele>
        <time>2010-07-02T10:23:08Z</time>
      </trkpt>
      <trkpt lat="42.677938" lon="0.703087">
        <ele>1517.0</ele>
        <time>2010-07-02T10:23:08Z</time>
      </trkpt>
      <trkpt lat="42.678021" lon="0.703088">
        <ele>1518.3</ele>
        <time>2010-07-02T10:23:08Z</time>
      </trkpt>
      <trkpt lat="42.678105" lon="0.703059">
        <ele>1520.7</ele>
        <time>2010-07-02T10:23:08Z</time>
      </trkpt>
      <trkpt lat="42.678257" lon="0.703044">
        <ele>1523.7</ele>
        <time>2010-07-02T10:23:08Z</time>
      </trkpt>
      <trkpt lat="42.678337" lon="0.703036">
        <ele>1525.3</ele>
        <time>2010-07-02T10:23:08Z</time>
      </trkpt>
      <trkpt lat="42.678415" lon="0.703043">
        <ele>1526.3</ele>
        <time>2010-07-02T10:23:08Z</time>
      </trkpt>
      <trkpt lat="42.678485" lon="0.703031">
        <ele>1527.8</ele>
        <time>2010-07-02T10:23:08Z</time>
      </trkpt>
      <trkpt lat="42.678547" lon="0.702988">
        <ele>1530.3</ele>
        <time>2010-07-02T10:23:08Z</time>
      </trkpt>
      <trkpt lat="42.678586" lon="0.702922">
        <ele>1533.3</ele>
        <time>2010-07-02T10:23:08Z</time>
      </trkpt>
      <trkpt lat="42.678632" lon="0.702820">
        <ele>1538.3</ele>
        <time>2010-07-02T10:23:08Z</time>
      </trkpt>
      <trkpt lat="42.678656" lon="0.702729">
        <ele>1542.7</ele>
        <time>2010-07-02T10:23:08Z</time>
      </trkpt>
      <trkpt lat="42.678599" lon="0.702661">
        <ele>1544.7</ele>
        <time>2010-07-02T10:23:08Z</time>
      </trkpt>
      <trkpt lat="42.678521" lon="0.702644">
        <ele>1544.3</ele>
        <time>2010-07-02T10:23:08Z</time>
      </trkpt>
      <trkpt lat="42.678487" lon="0.702570">
        <ele>1547.0</ele>
        <time>2010-07-02T10:23:08Z</time>
      </trkpt>
      <trkpt lat="42.678421" lon="0.702527">
        <ele>1547.9</ele>
        <time>2010-07-02T10:23:08Z</time>
      </trkpt>
      <trkpt lat="42.678406" lon="0.702418">
        <ele>1552.4</ele>
        <time>2010-07-02T10:23:08Z</time>
      </trkpt>
      <trkpt lat="42.678345" lon="0.702387">
        <ele>1552.9</ele>
        <time>2010-07-02T10:23:08Z</time>
      </trkpt>
      <trkpt lat="42.678321" lon="0.702300">
        <ele>1556.3</ele>
        <time>2010-07-02T10:23:08Z</time>
      </trkpt>
      <trkpt lat="42.678377" lon="0.702224">
        <ele>1560.5</ele>
        <time>2010-07-02T10:23:08Z</time>
      </trkpt>
      <trkpt lat="42.678422" lon="0.702182">
        <ele>1563.0</ele>
        <time>2010-07-02T10:23:08Z</time>
      </trkpt>
      <trkpt lat="42.678510" lon="0.702204">
        <ele>1563.3</ele>
        <time>2010-07-02T10:23:08Z</time>
      </trkpt>
      <trkpt lat="42.678537" lon="0.702138">
        <ele>1566.5</ele>
        <time>2010-07-02T10:23:08Z</time>
      </trkpt>
      <trkpt lat="42.678529" lon="0.702022">
        <ele>1572.1</ele>
        <time>2010-07-02T10:23:08Z</time>
      </trkpt>
      <trkpt lat="42.678627" lon="0.702020">
        <ele>1573.7</ele>
        <time>2010-07-02T10:23:08Z</time>
      </trkpt>
      <trkpt lat="42.678689" lon="0.702012">
        <ele>1575.0</ele>
        <time>2010-07-02T10:23:08Z</time>
      </trkpt>
      <trkpt lat="42.678774" lon="0.702030">
        <ele>1575.2</ele>
        <time>2010-07-02T10:23:08Z</time>
      </trkpt>
      <trkpt lat="42.678851" lon="0.701956">
        <ele>1580.0</ele>
        <time>2010-07-02T10:23:08Z</time>
      </trkpt>
      <trkpt lat="42.678953" lon="0.701868">
        <ele>1585.9</ele>
        <time>2010-07-02T10:23:08Z</time>
      </trkpt>
      <trkpt lat="42.679110" lon="0.701807">
        <ele>1590.7</ele>
        <time>2010-07-02T10:23:08Z</time>
      </trkpt>
      <trkpt lat="42.679384" lon="0.701851">
        <ele>1591.0</ele>
        <time>2010-07-02T10:23:08Z</time>
      </trkpt>
      <trkpt lat="42.679479" lon="0.701776">
        <ele>1595.9</ele>
        <time>2010-07-02T10:23:08Z</time>
      </trkpt>
      <trkpt lat="42.679558" lon="0.701825">
        <ele>1594.1</ele>
        <time>2010-07-02T10:23:08Z</time>
      </trkpt>
      <trkpt lat="42.679631" lon="0.701803">
        <ele>1596.0</ele>
        <time>2010-07-02T10:23:08Z</time>
      </trkpt>
      <trkpt lat="42.679673" lon="0.701741">
        <ele>1599.6</ele>
        <time>2010-07-02T10:23:08Z</time>
      </trkpt>
      <trkpt lat="42.679736" lon="0.701744">
        <ele>1600.1</ele>
        <time>2010-07-02T10:23:08Z</time>
      </trkpt>
      <trkpt lat="42.679796" lon="0.701787">
        <ele>1598.6</ele>
        <time>2010-07-02T10:23:08Z</time>
      </trkpt>
      <trkpt lat="42.679876" lon="0.701802">
        <ele>1598.8</ele>
        <time>2010-07-02T10:23:08Z</time>
      </trkpt>
      <trkpt lat="42.679910" lon="0.701851">
        <ele>1596.8</ele>
        <time>2010-07-02T10:23:08Z</time>
      </trkpt>
      <trkpt lat="42.679985" lon="0.701818">
        <ele>1599.3</ele>
        <time>2010-07-02T10:23:08Z</time>
      </trkpt>
      <trkpt lat="42.680073" lon="0.701698">
        <ele>1605.8</ele>
        <time>2010-07-02T10:23:08Z</time>
      </trkpt>
      <trkpt lat="42.680184" lon="0.701573">
        <ele>1612.4</ele>
        <time>2010-07-02T10:23:08Z</time>
      </trkpt>
      <trkpt lat="42.680313" lon="0.701538">
        <ele>1615.1</ele>
        <time>2010-07-02T10:23:08Z</time>
      </trkpt>
      <trkpt lat="42.680419" lon="0.701422">
        <ele>1620.8</ele>
        <time>2010-07-02T10:23:08Z</time>
      </trkpt>
      <trkpt lat="42.680510" lon="0.701401">
        <ele>1622.4</ele>
        <time>2010-07-02T10:23:08Z</time>
      </trkpt>
      <trkpt lat="42.680541" lon="0.701275">
        <ele>1628.0</ele>
        <time>2010-07-02T10:23:08Z</time>
      </trkpt>
      <trkpt lat="42.680610" lon="0.701225">
        <ele>1631.0</ele>
        <time>2010-07-02T10:23:08Z</time>
      </trkpt>
      <trkpt lat="42.680644" lon="0.701129">
        <ele>1636.7</ele>
        <time>2010-07-02T10:23:08Z</time>
      </trkpt>
      <trkpt lat="42.680712" lon="0.701098">
        <ele>1638.8</ele>
        <time>2010-07-02T10:23:08Z</time>
      </trkpt>
      <trkpt lat="42.680834" lon="0.701078">
        <ele>1640.8</ele>
        <time>2010-07-02T10:23:08Z</time>
      </trkpt>
      <trkpt lat="42.681007" lon="0.701098">
        <ele>1640.9</ele>
        <time>2010-07-02T10:23:08Z</time>
      </trkpt>
      <trkpt lat="42.681131" lon="0.701113">
        <ele>1641.0</ele>
        <time>2010-07-02T10:23:08Z</time>
      </trkpt>
      <trkpt lat="42.681269" lon="0.701057">
        <ele>1644.7</ele>
        <time>2010-07-02T10:23:08Z</time>
      </trkpt>
      <trkpt lat="42.681328" lon="0.701071">
        <ele>1643.8</ele>
        <time>2010-07-02T10:23:08Z</time>
      </trkpt>
      <trkpt lat="42.681369" lon="0.701137">
        <ele>1640.7</ele>
        <time>2010-07-02T10:23:08Z</time>
      </trkpt>
      <trkpt lat="42.681429" lon="0.701292">
        <ele>1634.1</ele>
        <time>2010-07-02T10:23:08Z</time>
      </trkpt>
      <trkpt lat="42.681457" lon="0.701406">
        <ele>1630.3</ele>
        <time>2010-07-02T10:23:08Z</time>
      </trkpt>
      <trkpt lat="42.681488" lon="0.701519">
        <ele>1626.7</ele>
        <time>2010-07-02T10:23:08Z</time>
      </trkpt>
      <trkpt lat="42.681501" lon="0.701596">
        <ele>1624.3</ele>
        <time>2010-07-02T10:23:08Z</time>
      </trkpt>
      <trkpt lat="42.681531" lon="0.701633">
        <ele>1623.5</ele>
        <time>2010-07-02T10:23:08Z</time>
      </trkpt>
      <trkpt lat="42.681574" lon="0.701684">
        <ele>1622.6</ele>
        <time>2010-07-02T10:23:08Z</time>
      </trkpt>
      <trkpt lat="42.681596" lon="0.701740">
        <ele>1621.3</ele>
        <time>2010-07-02T10:23:08Z</time>
      </trkpt>
      <trkpt lat="42.681640" lon="0.701727">
        <ele>1622.5</ele>
        <time>2010-07-02T10:23:08Z</time>
      </trkpt>
      <trkpt lat="42.681665" lon="0.701658">
        <ele>1625.0</ele>
        <time>2010-07-02T10:23:08Z</time>
      </trkpt>
      <trkpt lat="42.681707" lon="0.701546">
        <ele>1628.7</ele>
        <time>2010-07-02T10:23:08Z</time>
      </trkpt>
      <trkpt lat="42.681819" lon="0.701427">
        <ele>1632.9</ele>
        <time>2010-07-02T10:23:08Z</time>
      </trkpt>
      <trkpt lat="42.682084" lon="0.701247">
        <ele>1638.1</ele>
        <time>2010-07-02T10:23:08Z</time>
      </trkpt>
      <trkpt lat="42.682251" lon="0.701086">
        <ele>1647.5</ele>
        <time>2010-07-02T10:23:08Z</time>
      </trkpt>
      <trkpt lat="42.682375" lon="0.701017">
        <ele>1653.0</ele>
        <time>2010-07-02T10:23:08Z</time>
      </trkpt>
      <trkpt lat="42.682409" lon="0.700865">
        <ele>1657.1</ele>
        <time>2010-07-02T10:23:08Z</time>
      </trkpt>
      <trkpt lat="42.682445" lon="0.700649">
        <ele>1662.5</ele>
        <time>2010-07-02T10:23:08Z</time>
      </trkpt>
      <trkpt lat="42.682512" lon="0.700585">
        <ele>1665.6</ele>
        <time>2010-07-02T10:23:08Z</time>
      </trkpt>
      <trkpt lat="42.682526" lon="0.700451">
        <ele>1668.5</ele>
        <time>2010-07-02T10:23:08Z</time>
      </trkpt>
      <trkpt lat="42.682494" lon="0.700181">
        <ele>1673.6</ele>
        <time>2010-07-02T10:23:08Z</time>
      </trkpt>
      <trkpt lat="42.682488" lon="0.699801">
        <ele>1682.0</ele>
        <time>2010-07-02T10:23:08Z</time>
      </trkpt>
      <trkpt lat="42.682566" lon="0.699461">
        <ele>1690.7</ele>
        <time>2010-07-02T10:23:08Z</time>
      </trkpt>
      <trkpt lat="42.682549" lon="0.699215">
        <ele>1696.1</ele>
        <time>2010-07-02T10:23:08Z</time>
      </trkpt>
      <trkpt lat="42.682581" lon="0.698983">
        <ele>1701.6</ele>
        <time>2010-07-02T10:23:08Z</time>
      </trkpt>
      <trkpt lat="42.682560" lon="0.698786">
        <ele>1705.9</ele>
        <time>2010-07-02T10:23:08Z</time>
      </trkpt>
      <trkpt lat="42.682599" lon="0.698582">
        <ele>1711.2</ele>
        <time>2010-07-02T10:23:08Z</time>
      </trkpt>
      <trkpt lat="42.682576" lon="0.698467">
        <ele>1714.2</ele>
        <time>2010-07-02T10:23:08Z</time>
      </trkpt>
      <trkpt lat="42.682598" lon="0.698342">
        <ele>1717.4</ele>
        <time>2010-07-02T10:23:08Z</time>
      </trkpt>
      <trkpt lat="42.682551" lon="0.698240">
        <ele>1720.3</ele>
        <time>2010-07-02T10:23:08Z</time>
      </trkpt>
      <trkpt lat="42.682571" lon="0.698093">
        <ele>1724.1</ele>
        <time>2010-07-02T10:23:08Z</time>
      </trkpt>
      <trkpt lat="42.682547" lon="0.697954">
        <ele>1728.0</ele>
        <time>2010-07-02T10:23:08Z</time>
      </trkpt>
      <trkpt lat="42.682593" lon="0.697876">
        <ele>1729.6</ele>
        <time>2010-07-02T10:23:08Z</time>
      </trkpt>
      <trkpt lat="42.682650" lon="0.697778">
        <ele>1731.6</ele>
        <time>2010-07-02T10:23:08Z</time>
      </trkpt>
      <trkpt lat="42.682748" lon="0.697706">
        <ele>1732.5</ele>
        <time>2010-07-02T10:23:08Z</time>
      </trkpt>
      <trkpt lat="42.682813" lon="0.697551">
        <ele>1736.0</ele>
        <time>2010-07-02T10:23:08Z</time>
      </trkpt>
      <trkpt lat="42.682778" lon="0.697449">
        <ele>1739.1</ele>
        <time>2010-07-02T10:23:08Z</time>
      </trkpt>
      <trkpt lat="42.682834" lon="0.697310">
        <ele>1742.4</ele>
        <time>2010-07-02T10:23:08Z</time>
      </trkpt>
      <trkpt lat="42.682810" lon="0.697149">
        <ele>1747.0</ele>
        <time>2010-07-02T10:23:08Z</time>
      </trkpt>
      <trkpt lat="42.682830" lon="0.697032">
        <ele>1750.0</ele>
        <time>2010-07-02T10:23:08Z</time>
      </trkpt>
      <trkpt lat="42.682892" lon="0.696997">
        <ele>1750.5</ele>
        <time>2010-07-02T10:23:08Z</time>
      </trkpt>
      <trkpt lat="42.682914" lon="0.696874">
        <ele>1753.8</ele>
        <time>2010-07-02T10:23:08Z</time>
      </trkpt>
      <trkpt lat="42.682876" lon="0.696696">
        <ele>1758.9</ele>
        <time>2010-07-02T10:23:08Z</time>
      </trkpt>
      <trkpt lat="42.682977" lon="0.696502">
        <ele>1765.0</ele>
        <time>2010-07-02T10:23:08Z</time>
      </trkpt>
      <trkpt lat="42.683057" lon="0.696235">
        <ele>1773.2</ele>
        <time>2010-07-02T10:23:08Z</time>
      </trkpt>
      <trkpt lat="42.683219" lon="0.696126">
        <ele>1777.7</ele>
        <time>2010-07-02T10:23:08Z</time>
      </trkpt>
      <trkpt lat="42.683282" lon="0.695981">
        <ele>1781.3</ele>
        <time>2010-07-02T10:23:08Z</time>
      </trkpt>
      <trkpt lat="42.683298" lon="0.695875">
        <ele>1783.5</ele>
        <time>2010-07-02T10:23:08Z</time>
      </trkpt>
      <trkpt lat="42.683264" lon="0.695749">
        <ele>1786.0</ele>
        <time>2010-07-02T10:23:08Z</time>
      </trkpt>
      <trkpt lat="42.683221" lon="0.695632">
        <ele>1788.5</ele>
        <time>2010-07-02T10:23:08Z</time>
      </trkpt>
      <trkpt lat="42.683301" lon="0.695490">
        <ele>1791.2</ele>
        <time>2010-07-02T10:23:08Z</time>
      </trkpt>
      <trkpt lat="42.683315" lon="0.695319">
        <ele>1794.7</ele>
        <time>2010-07-02T10:23:08Z</time>
      </trkpt>
      <trkpt lat="42.683410" lon="0.695195">
        <ele>1796.5</ele>
        <time>2010-07-02T10:23:08Z</time>
      </trkpt>
      <trkpt lat="42.683397" lon="0.695023">
        <ele>1800.1</ele>
        <time>2010-07-02T10:23:08Z</time>
      </trkpt>
      <trkpt lat="42.683497" lon="0.694783">
        <ele>1803.5</ele>
        <time>2010-07-02T10:23:08Z</time>
      </trkpt>
      <trkpt lat="42.683554" lon="0.694460">
        <ele>1808.0</ele>
        <time>2010-07-02T10:23:08Z</time>
      </trkpt>
      <trkpt lat="42.683651" lon="0.694182">
        <ele>1809.6</ele>
        <time>2010-07-02T10:23:08Z</time>
      </trkpt>
      <trkpt lat="42.683675" lon="0.693920">
        <ele>1812.2</ele>
        <time>2010-07-02T10:23:08Z</time>
      </trkpt>
      <trkpt lat="42.683675" lon="0.693659">
        <ele>1815.4</ele>
        <time>2010-07-02T10:23:08Z</time>
      </trkpt>
      <trkpt lat="42.683641" lon="0.693368">
        <ele>1820.3</ele>
        <time>2010-07-02T10:23:08Z</time>
      </trkpt>
      <trkpt lat="42.683590" lon="0.693178">
        <ele>1824.3</ele>
        <time>2010-07-02T10:23:08Z</time>
      </trkpt>
      <trkpt lat="42.683610" lon="0.692993">
        <ele>1826.2</ele>
        <time>2010-07-02T10:23:08Z</time>
      </trkpt>
      <trkpt lat="42.683667" lon="0.692780">
        <ele>1828.6</ele>
        <time>2010-07-02T10:23:08Z</time>
      </trkpt>
      <trkpt lat="42.683639" lon="0.692596">
        <ele>1833.7</ele>
        <time>2010-07-02T10:23:08Z</time>
      </trkpt>
      <trkpt lat="42.683672" lon="0.692399">
        <ele>1837.4</ele>
        <time>2010-07-02T10:23:08Z</time>
      </trkpt>
      <trkpt lat="42.683711" lon="0.692192">
        <ele>1841.3</ele>
        <time>2010-07-02T10:23:08Z</time>
      </trkpt>
      <trkpt lat="42.683816" lon="0.692002">
        <ele>1845.0</ele>
        <time>2010-07-02T10:23:08Z</time>
      </trkpt>
      <trkpt lat="42.683856" lon="0.691713">
        <ele>1851.0</ele>
        <time>2010-07-02T10:23:08Z</time>
      </trkpt>
      <trkpt lat="42.683933" lon="0.691510">
        <ele>1854.5</ele>
        <time>2010-07-02T10:23:08Z</time>
      </trkpt>
      <trkpt lat="42.684201" lon="0.691188">
        <ele>1857.0</ele>
        <time>2010-07-02T10:23:08Z</time>
      </trkpt>
      <trkpt lat="42.684323" lon="0.690943">
        <ele>1860.4</ele>
        <time>2010-07-02T10:23:08Z</time>
      </trkpt>
      <trkpt lat="42.684545" lon="0.690662">
        <ele>1860.9</ele>
        <time>2010-07-02T10:23:08Z</time>
      </trkpt>
      <trkpt lat="42.684594" lon="0.690420">
        <ele>1864.1</ele>
        <time>2010-07-02T10:23:08Z</time>
      </trkpt>
      <trkpt lat="42.684718" lon="0.690218">
        <ele>1869.9</ele>
        <time>2010-07-02T10:23:08Z</time>
      </trkpt>
      <trkpt lat="42.684759" lon="0.690005">
        <ele>1874.1</ele>
        <time>2010-07-02T10:23:08Z</time>
      </trkpt>
      <trkpt lat="42.684875" lon="0.689915">
        <ele>1876.6</ele>
        <time>2010-07-02T10:23:08Z</time>
      </trkpt>
      <trkpt lat="42.684891" lon="0.689755">
        <ele>1879.2</ele>
        <time>2010-07-02T10:23:08Z</time>
      </trkpt>
      <trkpt lat="42.684836" lon="0.689552">
        <ele>1882.1</ele>
        <time>2010-07-02T10:23:08Z</time>
      </trkpt>
      <trkpt lat="42.684873" lon="0.689353">
        <ele>1885.5</ele>
        <time>2010-07-02T10:23:08Z</time>
      </trkpt>
      <trkpt lat="42.684946" lon="0.689196">
        <ele>1887.9</ele>
        <time>2010-07-02T10:23:08Z</time>
      </trkpt>
      <trkpt lat="42.685121" lon="0.688755">
        <ele>1893.4</ele>
        <time>2010-07-02T10:23:08Z</time>
      </trkpt>
      <trkpt lat="42.685320" lon="0.688375">
        <ele>1897.6</ele>
        <time>2010-07-02T10:23:08Z</time>
      </trkpt>
      <trkpt lat="42.685411" lon="0.688086">
        <ele>1899.9</ele>
        <time>2010-07-02T10:23:08Z</time>
      </trkpt>
      <trkpt lat="42.685528" lon="0.687889">
        <ele>1904.7</ele>
        <time>2010-07-02T10:23:08Z</time>
      </trkpt>
      <trkpt lat="42.685524" lon="0.687710">
        <ele>1908.4</ele>
        <time>2010-07-02T10:23:08Z</time>
      </trkpt>
      <trkpt lat="42.685515" lon="0.687597">
        <ele>1910.7</ele>
        <time>2010-07-02T10:23:08Z</time>
      </trkpt>
      <trkpt lat="42.685594" lon="0.687472">
        <ele>1914.3</ele>
        <time>2010-07-02T10:23:08Z</time>
      </trkpt>
      <trkpt lat="42.685623" lon="0.687335">
        <ele>1917.3</ele>
        <time>2010-07-02T10:23:08Z</time>
      </trkpt>
      <trkpt lat="42.685700" lon="0.687247">
        <ele>1919.7</ele>
        <time>2010-07-02T10:23:08Z</time>
      </trkpt>
      <trkpt lat="42.685720" lon="0.687091">
        <ele>1922.7</ele>
        <time>2010-07-02T10:23:08Z</time>
      </trkpt>
      <trkpt lat="42.685787" lon="0.686994">
        <ele>1925.0</ele>
        <time>2010-07-02T10:23:08Z</time>
      </trkpt>
      <trkpt lat="42.685810" lon="0.686672">
        <ele>1931.4</ele>
        <time>2010-07-02T10:23:08Z</time>
      </trkpt>
      <trkpt lat="42.685937" lon="0.686208">
        <ele>1939.4</ele>
        <time>2010-07-02T10:23:08Z</time>
      </trkpt>
      <trkpt lat="42.686039" lon="0.685944">
        <ele>1943.5</ele>
        <time>2010-07-02T10:23:08Z</time>
      </trkpt>
      <trkpt lat="42.686198" lon="0.685583">
        <ele>1949.2</ele>
        <time>2010-07-02T10:23:08Z</time>
      </trkpt>
      <trkpt lat="42.686257" lon="0.685250">
        <ele>1957.5</ele>
        <time>2010-07-02T10:23:08Z</time>
      </trkpt>
      <trkpt lat="42.686366" lon="0.684957">
        <ele>1970.4</ele>
        <time>2010-07-02T10:23:08Z</time>
      </trkpt>
      <trkpt lat="42.686384" lon="0.684686">
        <ele>1978.9</ele>
        <time>2010-07-02T10:23:08Z</time>
      </trkpt>
      <trkpt lat="42.686429" lon="0.684409">
        <ele>1989.2</ele>
        <time>2010-07-02T10:23:08Z</time>
      </trkpt>
      <trkpt lat="42.686402" lon="0.684235">
        <ele>1994.6</ele>
        <time>2010-07-02T10:23:08Z</time>
      </trkpt>
      <trkpt lat="42.686480" lon="0.684047">
        <ele>2002.8</ele>
        <time>2010-07-02T10:23:08Z</time>
      </trkpt>
      <trkpt lat="42.686460" lon="0.683829">
        <ele>2009.8</ele>
        <time>2010-07-02T10:23:08Z</time>
      </trkpt>
      <trkpt lat="42.686525" lon="0.683695">
        <ele>2015.7</ele>
        <time>2010-07-02T10:23:08Z</time>
      </trkpt>
      <trkpt lat="42.686436" lon="0.683523">
        <ele>2020.9</ele>
        <time>2010-07-02T10:23:08Z</time>
      </trkpt>
      <trkpt lat="42.686373" lon="0.683338">
        <ele>2027.7</ele>
        <time>2010-07-02T10:23:08Z</time>
      </trkpt>
      <trkpt lat="42.686384" lon="0.683120">
        <ele>2036.5</ele>
        <time>2010-07-02T10:23:08Z</time>
      </trkpt>
      <trkpt lat="42.686316" lon="0.682964">
        <ele>2042.9</ele>
        <time>2010-07-02T10:23:08Z</time>
      </trkpt>
      <trkpt lat="42.686367" lon="0.682811">
        <ele>2050.2</ele>
        <time>2010-07-02T10:23:08Z</time>
      </trkpt>
      <trkpt lat="42.686354" lon="0.682648">
        <ele>2058.8</ele>
        <time>2010-07-02T10:23:08Z</time>
      </trkpt>
      <trkpt lat="42.686462" lon="0.682612">
        <ele>2059.5</ele>
        <time>2010-07-02T10:23:08Z</time>
      </trkpt>
      <trkpt lat="42.686521" lon="0.682602">
        <ele>2059.4</ele>
        <time>2010-07-02T10:23:08Z</time>
      </trkpt>
      <trkpt lat="42.686516" lon="0.682515">
        <ele>2063.6</ele>
        <time>2010-07-02T10:23:08Z</time>
      </trkpt>
      <trkpt lat="42.686480" lon="0.682392">
        <ele>2070.1</ele>
        <time>2010-07-02T10:23:08Z</time>
      </trkpt>
      <trkpt lat="42.686510" lon="0.682255">
        <ele>2076.2</ele>
        <time>2010-07-02T10:23:08Z</time>
      </trkpt>
      <trkpt lat="42.686487" lon="0.682188">
        <ele>2079.9</ele>
        <time>2010-07-02T10:23:08Z</time>
      </trkpt>
      <trkpt lat="42.686523" lon="0.682135">
        <ele>2081.7</ele>
        <time>2010-07-02T10:23:08Z</time>
      </trkpt>
      <trkpt lat="42.686593" lon="0.682112">
        <ele>2081.0</ele>
        <time>2010-07-02T10:23:08Z</time>
      </trkpt>
      <trkpt lat="42.686665" lon="0.682162">
        <ele>2077.1</ele>
        <time>2010-07-02T10:23:08Z</time>
      </trkpt>
      <trkpt lat="42.686703" lon="0.682121">
        <ele>2077.9</ele>
        <time>2010-07-02T10:23:08Z</time>
      </trkpt>
      <trkpt lat="42.686655" lon="0.682057">
        <ele>2081.8</ele>
        <time>2010-07-02T10:23:08Z</time>
      </trkpt>
      <trkpt lat="42.686668" lon="0.681994">
        <ele>2083.8</ele>
        <time>2010-07-02T10:23:08Z</time>
      </trkpt>
      <trkpt lat="42.686768" lon="0.682016">
        <ele>2080.4</ele>
        <time>2010-07-02T10:23:08Z</time>
      </trkpt>
      <trkpt lat="42.686766" lon="0.681936">
        <ele>2083.2</ele>
        <time>2010-07-02T10:23:08Z</time>
      </trkpt>
      <trkpt lat="42.686727" lon="0.681842">
        <ele>2087.8</ele>
        <time>2010-07-02T10:23:08Z</time>
      </trkpt>
      <trkpt lat="42.686687" lon="0.681774">
        <ele>2091.5</ele>
        <time>2010-07-02T10:23:08Z</time>
      </trkpt>
      <trkpt lat="42.686740" lon="0.681736">
        <ele>2091.2</ele>
        <time>2010-07-02T10:23:08Z</time>
      </trkpt>
      <trkpt lat="42.686818" lon="0.681749">
        <ele>2088.2</ele>
        <time>2010-07-02T10:23:08Z</time>
      </trkpt>
      <trkpt lat="42.686798" lon="0.681689">
        <ele>2091.0</ele>
        <time>2010-07-02T10:23:08Z</time>
      </trkpt>
      <trkpt lat="42.686737" lon="0.681613">
        <ele>2095.8</ele>
        <time>2010-07-02T10:23:08Z</time>
      </trkpt>
      <trkpt lat="42.686799" lon="0.681548">
        <ele>2095.9</ele>
        <time>2010-07-02T10:23:08Z</time>
      </trkpt>
      <trkpt lat="42.686765" lon="0.681495">
        <ele>2099.0</ele>
        <time>2010-07-02T10:23:08Z</time>
      </trkpt>
      <trkpt lat="42.686735" lon="0.681337">
        <ele>2105.9</ele>
        <time>2010-07-02T10:23:08Z</time>
      </trkpt>
      <trkpt lat="42.686766" lon="0.681025">
        <ele>2113.9</ele>
        <time>2010-07-02T10:23:08Z</time>
      </trkpt>
      <trkpt lat="42.686787" lon="0.680835">
        <ele>2118.3</ele>
        <time>2010-07-02T10:23:08Z</time>
      </trkpt>
      <trkpt lat="42.686874" lon="0.680681">
        <ele>2118.8</ele>
        <time>2010-07-02T10:23:08Z</time>
      </trkpt>
      <trkpt lat="42.686917" lon="0.680509">
        <ele>2121.6</ele>
        <time>2010-07-02T10:23:08Z</time>
      </trkpt>
      <trkpt lat="42.686995" lon="0.680316">
        <ele>2123.3</ele>
        <time>2010-07-02T10:23:08Z</time>
      </trkpt>
      <trkpt lat="42.686968" lon="0.680148">
        <ele>2128.7</ele>
        <time>2010-07-02T10:23:08Z</time>
      </trkpt>
      <trkpt lat="42.687018" lon="0.679985">
        <ele>2130.9</ele>
        <time>2010-07-02T10:23:08Z</time>
      </trkpt>
      <trkpt lat="42.687002" lon="0.679870">
        <ele>2134.4</ele>
        <time>2010-07-02T10:23:08Z</time>
      </trkpt>
      <trkpt lat="42.687051" lon="0.679779">
        <ele>2135.0</ele>
        <time>2010-07-02T10:23:08Z</time>
      </trkpt>
      <trkpt lat="42.687044" lon="0.679650">
        <ele>2138.6</ele>
        <time>2010-07-02T10:23:08Z</time>
      </trkpt>
      <trkpt lat="42.687123" lon="0.679516">
        <ele>2141.8</ele>
        <time>2010-07-02T10:23:08Z</time>
      </trkpt>
      <trkpt lat="42.687172" lon="0.679308">
        <ele>2149.1</ele>
        <time>2010-07-02T10:23:08Z</time>
      </trkpt>
      <trkpt lat="42.687250" lon="0.679246">
        <ele>2151.6</ele>
        <time>2010-07-02T10:23:08Z</time>
      </trkpt>
      <trkpt lat="42.687279" lon="0.679015">
        <ele>2158.6</ele>
        <time>2010-07-02T10:23:08Z</time>
      </trkpt>
      <trkpt lat="42.687435" lon="0.678864">
        <ele>2162.8</ele>
        <time>2010-07-02T10:23:08Z</time>
      </trkpt>
      <trkpt lat="42.687501" lon="0.678581">
        <ele>2168.6</ele>
        <time>2010-07-02T10:23:08Z</time>
      </trkpt>
      <trkpt lat="42.687469" lon="0.678378">
        <ele>2173.0</ele>
        <time>2010-07-02T10:23:08Z</time>
      </trkpt>
      <trkpt lat="42.687364" lon="0.678310">
        <ele>2176.5</ele>
        <time>2010-07-02T10:23:08Z</time>
      </trkpt>
      <trkpt lat="42.687414" lon="0.678134">
        <ele>2179.3</ele>
        <time>2010-07-02T10:23:08Z</time>
      </trkpt>
      <trkpt lat="42.687375" lon="0.678007">
        <ele>2183.4</ele>
        <time>2010-07-02T10:23:08Z</time>
      </trkpt>
      <trkpt lat="42.687478" lon="0.677917">
        <ele>2181.8</ele>
        <time>2010-07-02T10:23:08Z</time>
      </trkpt>
      <trkpt lat="42.687434" lon="0.677747">
        <ele>2187.5</ele>
        <time>2010-07-02T10:23:08Z</time>
      </trkpt>
      <trkpt lat="42.687533" lon="0.677621">
        <ele>2186.0</ele>
        <time>2010-07-02T10:23:08Z</time>
      </trkpt>
      <trkpt lat="42.687500" lon="0.677465">
        <ele>2191.0</ele>
        <time>2010-07-02T10:23:08Z</time>
      </trkpt>
      <trkpt lat="42.687446" lon="0.677326">
        <ele>2197.0</ele>
        <time>2010-07-02T10:23:08Z</time>
      </trkpt>
      <trkpt lat="42.687443" lon="0.677085">
        <ele>2202.9</ele>
        <time>2010-07-02T10:23:08Z</time>
      </trkpt>
      <trkpt lat="42.687582" lon="0.676846">
        <ele>2203.3</ele>
        <time>2010-07-02T10:23:08Z</time>
      </trkpt>
      <trkpt lat="42.687618" lon="0.676510">
        <ele>2213.7</ele>
        <time>2010-07-02T10:23:08Z</time>
      </trkpt>
      <trkpt lat="42.687756" lon="0.676308">
        <ele>2213.6</ele>
        <time>2010-07-02T10:23:08Z</time>
      </trkpt>
      <trkpt lat="42.687726" lon="0.675981">
        <ele>2228.2</ele>
        <time>2010-07-02T10:23:08Z</time>
      </trkpt>
      <trkpt lat="42.687809" lon="0.675802">
        <ele>2231.6</ele>
        <time>2010-07-02T10:23:08Z</time>
      </trkpt>
      <trkpt lat="42.687789" lon="0.675613">
        <ele>2240.2</ele>
        <time>2010-07-02T10:23:08Z</time>
      </trkpt>
      <trkpt lat="42.687895" lon="0.675440">
        <ele>2243.7</ele>
        <time>2010-07-02T10:23:08Z</time>
      </trkpt>
      <trkpt lat="42.687911" lon="0.675240">
        <ele>2252.6</ele>
        <time>2010-07-02T10:23:08Z</time>
      </trkpt>
      <trkpt lat="42.687929" lon="0.675101">
        <ele>2259.0</ele>
        <time>2010-07-02T10:23:08Z</time>
      </trkpt>
      <trkpt lat="42.688018" lon="0.675041">
        <ele>2260.5</ele>
        <time>2010-07-02T10:23:08Z</time>
      </trkpt>
      <trkpt lat="42.688097" lon="0.674932">
        <ele>2263.5</ele>
        <time>2010-07-02T10:23:08Z</time>
      </trkpt>
      <trkpt lat="42.688100" lon="0.674727">
        <ele>2271.5</ele>
        <time>2010-07-02T10:23:08Z</time>
      </trkpt>
      <trkpt lat="42.688112" lon="0.674602">
        <ele>2276.0</ele>
        <time>2010-07-02T10:23:08Z</time>
      </trkpt>
      <trkpt lat="42.688135" lon="0.674456">
        <ele>2279.4</ele>
        <time>2010-07-02T10:23:08Z</time>
      </trkpt>
      <trkpt lat="42.688171" lon="0.674246">
        <ele>2283.7</ele>
        <time>2010-07-02T10:23:08Z</time>
      </trkpt>
      <trkpt lat="42.688258" lon="0.674074">
        <ele>2284.6</ele>
        <time>2010-07-02T10:23:08Z</time>
      </trkpt>
      <trkpt lat="42.688386" lon="0.673981">
        <ele>2281.3</ele>
        <time>2010-07-02T10:23:08Z</time>
      </trkpt>
      <trkpt lat="42.688424" lon="0.673822">
        <ele>2283.5</ele>
        <time>2010-07-02T10:23:08Z</time>
      </trkpt>
      <trkpt lat="42.688381" lon="0.673501">
        <ele>2291.6</ele>
        <time>2010-07-02T10:23:08Z</time>
      </trkpt>
      <trkpt lat="42.688359" lon="0.673246">
        <ele>2296.8</ele>
        <time>2010-07-02T10:23:08Z</time>
      </trkpt>
      <trkpt lat="42.688433" lon="0.673098">
        <ele>2297.4</ele>
        <time>2010-07-02T10:23:08Z</time>
      </trkpt>
      <trkpt lat="42.688395" lon="0.672939">
        <ele>2301.3</ele>
        <time>2010-07-02T10:23:08Z</time>
      </trkpt>
      <trkpt lat="42.688479" lon="0.672846">
        <ele>2302.1</ele>
        <time>2010-07-02T10:23:08Z</time>
      </trkpt>
      <trkpt lat="42.688560" lon="0.672774">
        <ele>2302.8</ele>
        <time>2010-07-02T10:23:08Z</time>
      </trkpt>
      <trkpt lat="42.688567" lon="0.672654">
        <ele>2306.6</ele>
        <time>2010-07-02T10:23:08Z</time>
      </trkpt>
      <trkpt lat="42.688567" lon="0.672449">
        <ele>2313.4</ele>
        <time>2010-07-02T10:23:08Z</time>
      </trkpt>
      <trkpt lat="42.688560" lon="0.672194">
        <ele>2321.9</ele>
        <time>2010-07-02T10:23:08Z</time>
      </trkpt>
      <trkpt lat="42.688506" lon="0.672044">
        <ele>2327.2</ele>
        <time>2010-07-02T10:23:08Z</time>
      </trkpt>
      <trkpt lat="42.688509" lon="0.671762">
        <ele>2333.8</ele>
        <time>2010-07-02T10:23:08Z</time>
      </trkpt>
      <trkpt lat="42.688585" lon="0.671568">
        <ele>2338.4</ele>
        <time>2010-07-02T10:23:08Z</time>
      </trkpt>
      <trkpt lat="42.688504" lon="0.671507">
        <ele>2339.9</ele>
        <time>2010-07-02T10:23:08Z</time>
      </trkpt>
      <trkpt lat="42.688518" lon="0.671395">
        <ele>2342.6</ele>
        <time>2010-07-02T10:23:08Z</time>
      </trkpt>
      <trkpt lat="42.688461" lon="0.671320">
        <ele>2344.0</ele>
        <time>2010-07-02T10:23:08Z</time>
      </trkpt>
      <trkpt lat="42.688510" lon="0.671217">
        <ele>2346.6</ele>
        <time>2010-07-02T10:23:08Z</time>
      </trkpt>
      <trkpt lat="42.688473" lon="0.671109">
        <ele>2348.3</ele>
        <time>2010-07-02T10:23:08Z</time>
      </trkpt>
      <trkpt lat="42.688549" lon="0.671036">
        <ele>2350.6</ele>
        <time>2010-07-02T10:23:08Z</time>
      </trkpt>
      <trkpt lat="42.688535" lon="0.670946">
        <ele>2352.3</ele>
        <time>2010-07-02T10:23:08Z</time>
      </trkpt>
      <trkpt lat="42.688588" lon="0.670871">
        <ele>2354.6</ele>
        <time>2010-07-02T10:23:08Z</time>
      </trkpt>
      <trkpt lat="42.688563" lon="0.670769">
        <ele>2356.3</ele>
        <time>2010-07-02T10:23:08Z</time>
      </trkpt>
      <trkpt lat="42.688665" lon="0.670726">
        <ele>2359.0</ele>
        <time>2010-07-02T10:23:08Z</time>
      </trkpt>
      <trkpt lat="42.688641" lon="0.670601">
        <ele>2361.3</ele>
        <time>2010-07-02T10:23:08Z</time>
      </trkpt>
      <trkpt lat="42.688628" lon="0.670472">
        <ele>2363.9</ele>
        <time>2010-07-02T10:23:08Z</time>
      </trkpt>
      <trkpt lat="42.688685" lon="0.670414">
        <ele>2366.5</ele>
        <time>2010-07-02T10:23:08Z</time>
      </trkpt>
      <trkpt lat="42.688673" lon="0.670308">
        <ele>2367.8</ele>
        <time>2010-07-02T10:23:08Z</time>
      </trkpt>
      <trkpt lat="42.688742" lon="0.670229">
        <ele>2370.7</ele>
        <time>2010-07-02T10:23:08Z</time>
      </trkpt>
      <trkpt lat="42.688737" lon="0.670141">
        <ele>2372.0</ele>
        <time>2010-07-02T10:23:08Z</time>
      </trkpt>
      <trkpt lat="42.688772" lon="0.670084">
        <ele>2373.7</ele>
        <time>2010-07-02T10:23:08Z</time>
      </trkpt>
      <trkpt lat="42.688746" lon="0.669971">
        <ele>2374.9</ele>
        <time>2010-07-02T10:23:08Z</time>
      </trkpt>
      <trkpt lat="42.688809" lon="0.669904">
        <ele>2377.1</ele>
        <time>2010-07-02T10:23:08Z</time>
      </trkpt>
      <trkpt lat="42.688802" lon="0.669815">
        <ele>2378.3</ele>
        <time>2010-07-02T10:23:08Z</time>
      </trkpt>
      <trkpt lat="42.688844" lon="0.669756">
        <ele>2379.8</ele>
        <time>2010-07-02T10:23:08Z</time>
      </trkpt>
      <trkpt lat="42.688844" lon="0.669666">
        <ele>2381.1</ele>
        <time>2010-07-02T10:23:08Z</time>
      </trkpt>
      <trkpt lat="42.688768" lon="0.669605">
        <ele>2380.9</ele>
        <time>2010-07-02T10:23:08Z</time>
      </trkpt>
      <trkpt lat="42.688783" lon="0.669444">
        <ele>2382.9</ele>
        <time>2010-07-02T10:23:08Z</time>
      </trkpt>
      <trkpt lat="42.688713" lon="0.669344">
        <ele>2382.7</ele>
        <time>2010-07-02T10:23:08Z</time>
      </trkpt>
      <trkpt lat="42.688777" lon="0.669144">
        <ele>2386.0</ele>
        <time>2010-07-02T10:23:08Z</time>
      </trkpt>
      <trkpt lat="42.688804" lon="0.669004">
        <ele>2387.8</ele>
        <time>2010-07-02T10:23:08Z</time>
      </trkpt>
      <trkpt lat="42.688810" lon="0.668775">
        <ele>2390.3</ele>
        <time>2010-07-02T10:23:08Z</time>
      </trkpt>
      <trkpt lat="42.688814" lon="0.668596">
        <ele>2391.7</ele>
        <time>2010-07-02T10:23:08Z</time>
      </trkpt>
      <trkpt lat="42.688778" lon="0.668439">
        <ele>2392.5</ele>
        <time>2010-07-02T10:23:08Z</time>
      </trkpt>
      <trkpt lat="42.688781" lon="0.668235">
        <ele>2394.0</ele>
        <time>2010-07-02T10:23:08Z</time>
      </trkpt>
      <trkpt lat="42.688791" lon="0.668045">
        <ele>2395.4</ele>
        <time>2010-07-02T10:23:08Z</time>
      </trkpt>
      <trkpt lat="42.688807" lon="0.667707">
        <ele>2395.1</ele>
        <time>2010-07-02T10:23:08Z</time>
      </trkpt>
      <trkpt lat="42.688846" lon="0.667571">
        <ele>2394.8</ele>
        <time>2010-07-02T10:23:08Z</time>
      </trkpt>
      <trkpt lat="42.688877" lon="0.667382">
        <ele>2394.2</ele>
        <time>2010-07-02T10:23:08Z</time>
      </trkpt>
      <trkpt lat="42.688918" lon="0.667193">
        <ele>2394.0</ele>
        <time>2010-07-02T10:23:08Z</time>
      </trkpt>
      <trkpt lat="42.688984" lon="0.667044">
        <ele>2394.5</ele>
        <time>2010-07-02T10:23:08Z</time>
      </trkpt>
      <trkpt lat="42.688989" lon="0.666970">
        <ele>2394.1</ele>
        <time>2010-07-02T10:23:08Z</time>
      </trkpt>
      <trkpt lat="42.689002" lon="0.666880">
        <ele>2393.8</ele>
        <time>2010-07-02T10:23:08Z</time>
      </trkpt>
      <trkpt lat="42.689017" lon="0.666694">
        <ele>2392.9</ele>
        <time>2010-07-02T10:23:08Z</time>
      </trkpt>
      <trkpt lat="42.688918" lon="0.666393">
        <ele>2388.5</ele>
        <time>2010-07-02T10:23:08Z</time>
      </trkpt>
      <trkpt lat="42.688986" lon="0.666100">
        <ele>2390.0</ele>
        <time>2010-07-02T10:23:08Z</time>
      </trkpt>
      <trkpt lat="42.688978" lon="0.665765">
        <ele>2391.4</ele>
        <time>2010-07-02T10:23:08Z</time>
      </trkpt>
      <trkpt lat="42.689162" lon="0.665379">
        <ele>2397.7</ele>
        <time>2010-07-02T10:23:08Z</time>
      </trkpt>
      <trkpt lat="42.689254" lon="0.665022">
        <ele>2401.6</ele>
        <time>2010-07-02T10:23:08Z</time>
      </trkpt>
      <trkpt lat="42.689363" lon="0.664621">
        <ele>2404.8</ele>
        <time>2010-07-02T10:23:08Z</time>
      </trkpt>
      <trkpt lat="42.689438" lon="0.664136">
        <ele>2406.8</ele>
        <time>2010-07-02T10:23:08Z</time>
      </trkpt>
      <trkpt lat="42.689486" lon="0.663643">
        <ele>2409.8</ele>
        <time>2010-07-02T10:23:08Z</time>
      </trkpt>
      <trkpt lat="42.689540" lon="0.663228">
        <ele>2417.3</ele>
        <time>2010-07-02T10:23:08Z</time>
      </trkpt>
      <trkpt lat="42.689564" lon="0.662987">
        <ele>2421.7</ele>
        <time>2010-07-02T10:23:08Z</time>
      </trkpt>
      <trkpt lat="42.689569" lon="0.662797">
        <ele>2426.0</ele>
        <time>2010-07-02T10:23:08Z</time>
      </trkpt>
      <trkpt lat="42.689561" lon="0.662543">
        <ele>2432.4</ele>
        <time>2010-07-02T10:23:08Z</time>
      </trkpt>
      <trkpt lat="42.689542" lon="0.662327">
        <ele>2437.8</ele>
        <time>2010-07-02T10:23:08Z</time>
      </trkpt>
      <trkpt lat="42.689524" lon="0.662141">
        <ele>2442.5</ele>
        <time>2010-07-02T10:23:08Z</time>
      </trkpt>
      <trkpt lat="42.689512" lon="0.661995">
        <ele>2446.8</ele>
        <time>2010-07-02T10:23:08Z</time>
      </trkpt>
      <trkpt lat="42.689463" lon="0.661878">
        <ele>2450.5</ele>
        <time>2010-07-02T10:23:08Z</time>
      </trkpt>
      <trkpt lat="42.689447" lon="0.661824">
        <ele>2452.3</ele>
        <time>2010-07-02T10:23:08Z</time>
      </trkpt>
      <trkpt lat="42.689441" lon="0.661713">
        <ele>2455.9</ele>
        <time>2010-07-02T10:23:08Z</time>
      </trkpt>
      <trkpt lat="42.689441" lon="0.661400">
        <ele>2465.9</ele>
        <time>2010-07-02T10:23:08Z</time>
      </trkpt>
      <trkpt lat="42.689412" lon="0.661246">
        <ele>2470.9</ele>
        <time>2010-07-02T10:23:08Z</time>
      </trkpt>
      <trkpt lat="42.689374" lon="0.661110">
        <ele>2472.6</ele>
        <time>2010-07-02T10:23:08Z</time>
      </trkpt>
      <trkpt lat="42.689368" lon="0.660975">
        <ele>2474.2</ele>
        <time>2010-07-02T10:23:08Z</time>
      </trkpt>
      <trkpt lat="42.689376" lon="0.660805">
        <ele>2476.1</ele>
        <time>2010-07-02T10:23:08Z</time>
      </trkpt>
      <trkpt lat="42.689345" lon="0.660671">
        <ele>2478.1</ele>
        <time>2010-07-02T10:23:08Z</time>
      </trkpt>
      <trkpt lat="42.689326" lon="0.660502">
        <ele>2480.5</ele>
        <time>2010-07-02T10:23:08Z</time>
      </trkpt>
      <trkpt lat="42.689318" lon="0.660359">
        <ele>2480.7</ele>
        <time>2010-07-02T10:23:08Z</time>
      </trkpt>
      <trkpt lat="42.689323" lon="0.660205">
        <ele>2477.8</ele>
        <time>2010-07-02T10:23:08Z</time>
      </trkpt>
      <trkpt lat="42.689319" lon="0.660126">
        <ele>2476.5</ele>
        <time>2010-07-02T10:23:08Z</time>
      </trkpt>
      <trkpt lat="42.689324" lon="0.660081">
        <ele>2475.6</ele>
        <time>2010-07-02T10:23:08Z</time>
      </trkpt>
      <trkpt lat="42.689358" lon="0.659955">
        <ele>2472.6</ele>
        <time>2010-07-02T10:23:08Z</time>
      </trkpt>
      <trkpt lat="42.689350" lon="0.659746">
        <ele>2469.1</ele>
        <time>2010-07-02T10:23:08Z</time>
      </trkpt>
      <trkpt lat="42.689286" lon="0.659586">
        <ele>2467.4</ele>
        <time>2010-07-02T10:23:08Z</time>
      </trkpt>
      <trkpt lat="42.689215" lon="0.659400">
        <ele>2462.7</ele>
        <time>2010-07-02T10:23:08Z</time>
      </trkpt>
      <trkpt lat="42.689180" lon="0.659178">
        <ele>2456.0</ele>
        <time>2010-07-02T10:23:08Z</time>
      </trkpt>
      <trkpt lat="42.689215" lon="0.658856">
        <ele>2445.1</ele>
        <time>2010-07-02T10:23:08Z</time>
      </trkpt>
      <trkpt lat="42.689280" lon="0.658604">
        <ele>2436.1</ele>
        <time>2010-07-02T10:23:08Z</time>
      </trkpt>
      <trkpt lat="42.689290" lon="0.658415">
        <ele>2429.4</ele>
        <time>2010-07-02T10:23:08Z</time>
      </trkpt>
      <trkpt lat="42.689193" lon="0.658442">
        <ele>2431.0</ele>
        <time>2010-07-02T10:23:08Z</time>
      </trkpt>
      <trkpt lat="42.689073" lon="0.658466">
        <ele>2432.5</ele>
        <time>2010-07-02T10:23:08Z</time>
      </trkpt>
      <trkpt lat="42.689062" lon="0.658456">
        <ele>2432.2</ele>
        <time>2010-07-02T10:23:08Z</time>
      </trkpt>
      <trkpt lat="42.689057" lon="0.658413">
        <ele>2430.7</ele>
        <time>2010-07-02T10:23:08Z</time>
      </trkpt>
      <trkpt lat="42.689087" lon="0.658307">
        <ele>2426.7</ele>
        <time>2010-07-02T10:23:08Z</time>
      </trkpt>
      <trkpt lat="42.689143" lon="0.658242">
        <ele>2424.1</ele>
        <time>2010-07-02T10:23:08Z</time>
      </trkpt>
      <trkpt lat="42.689210" lon="0.658081">
        <ele>2418.1</ele>
        <time>2010-07-02T10:23:08Z</time>
      </trkpt>
      <trkpt lat="42.689230" lon="0.658017">
        <ele>2415.8</ele>
        <time>2010-07-02T10:23:08Z</time>
      </trkpt>
      <trkpt lat="42.689210" lon="0.657952">
        <ele>2413.6</ele>
        <time>2010-07-02T10:23:08Z</time>
      </trkpt>
      <trkpt lat="42.689170" lon="0.657941">
        <ele>2413.4</ele>
        <time>2010-07-02T10:23:08Z</time>
      </trkpt>
      <trkpt lat="42.689160" lon="0.657896">
        <ele>2411.8</ele>
        <time>2010-07-02T10:23:08Z</time>
      </trkpt>
      <trkpt lat="42.689094" lon="0.657910">
        <ele>2412.5</ele>
        <time>2010-07-02T10:23:08Z</time>
      </trkpt>
      <trkpt lat="42.689067" lon="0.657817">
        <ele>2409.5</ele>
        <time>2010-07-02T10:23:08Z</time>
      </trkpt>
      <trkpt lat="42.689024" lon="0.657790">
        <ele>2408.7</ele>
        <time>2010-07-02T10:23:08Z</time>
      </trkpt>
      <trkpt lat="42.689058" lon="0.657722">
        <ele>2406.3</ele>
        <time>2010-07-02T10:23:08Z</time>
      </trkpt>
      <trkpt lat="42.689030" lon="0.657616">
        <ele>2402.7</ele>
        <time>2010-07-02T10:23:08Z</time>
      </trkpt>
      <trkpt lat="42.689112" lon="0.657603">
        <ele>2402.2</ele>
        <time>2010-07-02T10:23:08Z</time>
      </trkpt>
      <trkpt lat="42.689123" lon="0.657445">
        <ele>2396.9</ele>
        <time>2010-07-02T10:23:08Z</time>
      </trkpt>
      <trkpt lat="42.689080" lon="0.657442">
        <ele>2396.7</ele>
        <time>2010-07-02T10:23:08Z</time>
      </trkpt>
      <trkpt lat="42.689008" lon="0.657467">
        <ele>2397.5</ele>
        <time>2010-07-02T10:23:08Z</time>
      </trkpt>
      <trkpt lat="42.689014" lon="0.657353">
        <ele>2393.6</ele>
        <time>2010-07-02T10:23:08Z</time>
      </trkpt>
      <trkpt lat="42.688984" lon="0.657306">
        <ele>2391.9</ele>
        <time>2010-07-02T10:23:08Z</time>
      </trkpt>
      <trkpt lat="42.689004" lon="0.657205">
        <ele>2388.4</ele>
        <time>2010-07-02T10:23:08Z</time>
      </trkpt>
      <trkpt lat="42.688989" lon="0.657068">
        <ele>2383.8</ele>
        <time>2010-07-02T10:23:08Z</time>
      </trkpt>
      <trkpt lat="42.689047" lon="0.656876">
        <ele>2379.3</ele>
        <time>2010-07-02T10:23:08Z</time>
      </trkpt>
      <trkpt lat="42.689097" lon="0.656783">
        <ele>2377.4</ele>
        <time>2010-07-02T10:23:08Z</time>
      </trkpt>
      <trkpt lat="42.689102" lon="0.656624">
        <ele>2373.7</ele>
        <time>2010-07-02T10:23:08Z</time>
      </trkpt>
      <trkpt lat="42.689072" lon="0.656534">
        <ele>2371.2</ele>
        <time>2010-07-02T10:23:08Z</time>
      </trkpt>
      <trkpt lat="42.689009" lon="0.656354">
        <ele>2366.0</ele>
        <time>2010-07-02T10:23:08Z</time>
      </trkpt>
      <trkpt lat="42.689018" lon="0.656118">
        <ele>2360.2</ele>
        <time>2010-07-02T10:23:08Z</time>
      </trkpt>
      <trkpt lat="42.688938" lon="0.655992">
        <ele>2355.8</ele>
        <time>2010-07-02T10:23:08Z</time>
      </trkpt>
      <trkpt lat="42.688912" lon="0.655819">
        <ele>2350.9</ele>
        <time>2010-07-02T10:23:08Z</time>
      </trkpt>
      <trkpt lat="42.688900" lon="0.655611">
        <ele>2345.2</ele>
        <time>2010-07-02T10:23:08Z</time>
      </trkpt>
      <trkpt lat="42.688848" lon="0.655471">
        <ele>2340.5</ele>
        <time>2010-07-02T10:23:08Z</time>
      </trkpt>
      <trkpt lat="42.688912" lon="0.655286">
        <ele>2337.1</ele>
        <time>2010-07-02T10:23:08Z</time>
      </trkpt>
      <trkpt lat="42.689061" lon="0.655116">
        <ele>2336.0</ele>
        <time>2010-07-02T10:23:08Z</time>
      </trkpt>
      <trkpt lat="42.689090" lon="0.654867">
        <ele>2330.5</ele>
        <time>2010-07-02T10:23:08Z</time>
      </trkpt>
      <trkpt lat="42.689192" lon="0.654593">
        <ele>2325.7</ele>
        <time>2010-07-02T10:23:08Z</time>
      </trkpt>
      <trkpt lat="42.689244" lon="0.654396">
        <ele>2324.3</ele>
        <time>2010-07-02T10:23:08Z</time>
      </trkpt>
      <trkpt lat="42.689266" lon="0.654210">
        <ele>2322.5</ele>
        <time>2010-07-02T10:23:08Z</time>
      </trkpt>
      <trkpt lat="42.689258" lon="0.654196">
        <ele>2322.2</ele>
        <time>2010-07-02T10:23:08Z</time>
      </trkpt>
      <trkpt lat="42.689188" lon="0.654218">
        <ele>2321.1</ele>
        <time>2010-07-02T10:23:08Z</time>
      </trkpt>
      <trkpt lat="42.689121" lon="0.654310">
        <ele>2320.8</ele>
        <time>2010-07-02T10:23:08Z</time>
      </trkpt>
      <trkpt lat="42.689018" lon="0.654368">
        <ele>2319.5</ele>
        <time>2010-07-02T10:23:08Z</time>
      </trkpt>
      <trkpt lat="42.688966" lon="0.654326">
        <ele>2317.9</ele>
        <time>2010-07-02T10:23:08Z</time>
      </trkpt>
      <trkpt lat="42.688920" lon="0.654103">
        <ele>2314.2</ele>
        <time>2010-07-02T10:23:08Z</time>
      </trkpt>
      <trkpt lat="42.688834" lon="0.653909">
        <ele>2309.9</ele>
        <time>2010-07-02T10:23:08Z</time>
      </trkpt>
      <trkpt lat="42.688778" lon="0.653758">
        <ele>2306.7</ele>
        <time>2010-07-02T10:23:08Z</time>
      </trkpt>
      <trkpt lat="42.688733" lon="0.653689">
        <ele>2305.4</ele>
        <time>2010-07-02T10:23:08Z</time>
      </trkpt>
      <trkpt lat="42.688657" lon="0.653733">
        <ele>2303.8</ele>
        <time>2010-07-02T10:23:08Z</time>
      </trkpt>
      <trkpt lat="42.688423" lon="0.653874">
        <ele>2299.9</ele>
        <time>2010-07-02T10:23:08Z</time>
      </trkpt>
      <trkpt lat="42.688326" lon="0.654076">
        <ele>2299.6</ele>
        <time>2010-07-02T10:23:08Z</time>
      </trkpt>
      <trkpt lat="42.688221" lon="0.654245">
        <ele>2298.6</ele>
        <time>2010-07-02T10:23:08Z</time>
      </trkpt>
      <trkpt lat="42.688121" lon="0.654341">
        <ele>2296.8</ele>
        <time>2010-07-02T10:23:08Z</time>
      </trkpt>
      <trkpt lat="42.688050" lon="0.654394">
        <ele>2295.3</ele>
        <time>2010-07-02T10:23:08Z</time>
      </trkpt>
      <trkpt lat="42.687978" lon="0.654380">
        <ele>2293.2</ele>
        <time>2010-07-02T10:23:08Z</time>
      </trkpt>
      <trkpt lat="42.687919" lon="0.654379">
        <ele>2291.6</ele>
        <time>2010-07-02T10:23:08Z</time>
      </trkpt>
      <trkpt lat="42.687854" lon="0.654324">
        <ele>2289.4</ele>
        <time>2010-07-02T10:23:08Z</time>
      </trkpt>
      <trkpt lat="42.687790" lon="0.654179">
        <ele>2286.5</ele>
        <time>2010-07-02T10:23:08Z</time>
      </trkpt>
      <trkpt lat="42.687727" lon="0.654196">
        <ele>2284.9</ele>
        <time>2010-07-02T10:23:08Z</time>
      </trkpt>
      <trkpt lat="42.687580" lon="0.654298">
        <ele>2281.4</ele>
        <time>2010-07-02T10:23:08Z</time>
      </trkpt>
      <trkpt lat="42.687335" lon="0.654568">
        <ele>2276.2</ele>
        <time>2010-07-02T10:23:08Z</time>
      </trkpt>
      <trkpt lat="42.687169" lon="0.654645">
        <ele>2272.5</ele>
        <time>2010-07-02T10:23:08Z</time>
      </trkpt>
      <trkpt lat="42.687114" lon="0.654617">
        <ele>2270.4</ele>
        <time>2010-07-02T10:23:08Z</time>
      </trkpt>
      <trkpt lat="42.687091" lon="0.654483">
        <ele>2268.6</ele>
        <time>2010-07-02T10:23:08Z</time>
      </trkpt>
      <trkpt lat="42.687130" lon="0.654348">
        <ele>2268.9</ele>
        <time>2010-07-02T10:23:08Z</time>
      </trkpt>
      <trkpt lat="42.687118" lon="0.654104">
        <ele>2267.1</ele>
        <time>2010-07-02T10:23:08Z</time>
      </trkpt>
      <trkpt lat="42.687160" lon="0.653862">
        <ele>2266.8</ele>
        <time>2010-07-02T10:23:08Z</time>
      </trkpt>
      <trkpt lat="42.687136" lon="0.653743">
        <ele>2265.4</ele>
        <time>2010-07-02T10:23:08Z</time>
      </trkpt>
      <trkpt lat="42.687079" lon="0.653528">
        <ele>2262.7</ele>
        <time>2010-07-02T10:23:08Z</time>
      </trkpt>
      <trkpt lat="42.686991" lon="0.653224">
        <ele>2257.4</ele>
        <time>2010-07-02T10:23:08Z</time>
      </trkpt>
      <trkpt lat="42.686932" lon="0.653111">
        <ele>2254.2</ele>
        <time>2010-07-02T10:23:08Z</time>
      </trkpt>
      <trkpt lat="42.686905" lon="0.652994">
        <ele>2252.3</ele>
        <time>2010-07-02T10:23:08Z</time>
      </trkpt>
      <trkpt lat="42.686827" lon="0.652929">
        <ele>2248.4</ele>
        <time>2010-07-02T10:23:08Z</time>
      </trkpt>
      <trkpt lat="42.686682" lon="0.653390">
        <ele>2244.8</ele>
        <time>2010-07-02T10:23:08Z</time>
      </trkpt>
      <trkpt lat="42.686631" lon="0.653493">
        <ele>2243.3</ele>
        <time>2010-07-02T10:23:08Z</time>
      </trkpt>
      <trkpt lat="42.686582" lon="0.653513">
        <ele>2241.3</ele>
        <time>2010-07-02T10:23:08Z</time>
      </trkpt>
      <trkpt lat="42.686524" lon="0.653571">
        <ele>2239.2</ele>
        <time>2010-07-02T10:23:08Z</time>
      </trkpt>
      <trkpt lat="42.686464" lon="0.653559">
        <ele>2236.6</ele>
        <time>2010-07-02T10:23:08Z</time>
      </trkpt>
      <trkpt lat="42.686426" lon="0.653511">
        <ele>2234.6</ele>
        <time>2010-07-02T10:23:08Z</time>
      </trkpt>
      <trkpt lat="42.686438" lon="0.653413">
        <ele>2234.3</ele>
        <time>2010-07-02T10:23:08Z</time>
      </trkpt>
      <trkpt lat="42.686426" lon="0.653351">
        <ele>2233.4</ele>
        <time>2010-07-02T10:23:08Z</time>
      </trkpt>
      <trkpt lat="42.686388" lon="0.653233">
        <ele>2230.8</ele>
        <time>2010-07-02T10:23:08Z</time>
      </trkpt>
      <trkpt lat="42.686345" lon="0.653028">
        <ele>2227.2</ele>
        <time>2010-07-02T10:23:08Z</time>
      </trkpt>
      <trkpt lat="42.686314" lon="0.652918">
        <ele>2225.0</ele>
        <time>2010-07-02T10:23:08Z</time>
      </trkpt>
      <trkpt lat="42.686306" lon="0.652866">
        <ele>2224.0</ele>
        <time>2010-07-02T10:23:08Z</time>
      </trkpt>
      <trkpt lat="42.686305" lon="0.652794">
        <ele>2223.2</ele>
        <time>2010-07-02T10:23:08Z</time>
      </trkpt>
      <trkpt lat="42.686302" lon="0.652654">
        <ele>2221.7</ele>
        <time>2010-07-02T10:23:08Z</time>
      </trkpt>
      <trkpt lat="42.686229" lon="0.652393">
        <ele>2215.0</ele>
        <time>2010-07-02T10:23:08Z</time>
      </trkpt>
      <trkpt lat="42.686198" lon="0.652264">
        <ele>2211.7</ele>
        <time>2010-07-02T10:23:08Z</time>
      </trkpt>
      <trkpt lat="42.686176" lon="0.652231">
        <ele>2209.9</ele>
        <time>2010-07-02T10:23:08Z</time>
      </trkpt>
      <trkpt lat="42.686130" lon="0.652223">
        <ele>2206.9</ele>
        <time>2010-07-02T10:23:08Z</time>
      </trkpt>
      <trkpt lat="42.686077" lon="0.652230">
        <ele>2203.6</ele>
        <time>2010-07-02T10:23:08Z</time>
      </trkpt>
      <trkpt lat="42.686017" lon="0.652261">
        <ele>2200.2</ele>
        <time>2010-07-02T10:23:08Z</time>
      </trkpt>
      <trkpt lat="42.685936" lon="0.652377">
        <ele>2196.1</ele>
        <time>2010-07-02T10:23:08Z</time>
      </trkpt>
      <trkpt lat="42.685844" lon="0.652444">
        <ele>2190.7</ele>
        <time>2010-07-02T10:23:08Z</time>
      </trkpt>
      <trkpt lat="42.685907" lon="0.652246">
        <ele>2193.0</ele>
        <time>2010-07-02T10:23:08Z</time>
      </trkpt>
      <trkpt lat="42.685914" lon="0.652078">
        <ele>2192.0</ele>
        <time>2010-07-02T10:23:08Z</time>
      </trkpt>
      <trkpt lat="42.685832" lon="0.652123">
        <ele>2187.3</ele>
        <time>2010-07-02T10:23:08Z</time>
      </trkpt>
      <trkpt lat="42.685777" lon="0.652299">
        <ele>2185.2</ele>
        <time>2010-07-02T10:23:08Z</time>
      </trkpt>
      <trkpt lat="42.685707" lon="0.652369">
        <ele>2181.4</ele>
        <time>2010-07-02T10:23:08Z</time>
      </trkpt>
      <trkpt lat="42.685626" lon="0.652412">
        <ele>2176.4</ele>
        <time>2010-07-02T10:23:08Z</time>
      </trkpt>
      <trkpt lat="42.685695" lon="0.652162">
        <ele>2179.0</ele>
        <time>2010-07-02T10:23:08Z</time>
      </trkpt>
      <trkpt lat="42.685746" lon="0.651829">
        <ele>2176.7</ele>
        <time>2010-07-02T10:23:08Z</time>
      </trkpt>
      <trkpt lat="42.685744" lon="0.651719">
        <ele>2174.4</ele>
        <time>2010-07-02T10:23:08Z</time>
      </trkpt>
      <trkpt lat="42.685704" lon="0.651656">
        <ele>2170.7</ele>
        <time>2010-07-02T10:23:08Z</time>
      </trkpt>
      <trkpt lat="42.685621" lon="0.651799">
        <ele>2168.3</ele>
        <time>2010-07-02T10:23:08Z</time>
      </trkpt>
      <trkpt lat="42.685503" lon="0.651861">
        <ele>2162.1</ele>
        <time>2010-07-02T10:23:08Z</time>
      </trkpt>
      <trkpt lat="42.685282" lon="0.652390">
        <ele>2153.8</ele>
        <time>2010-07-02T10:23:08Z</time>
      </trkpt>
      <trkpt lat="42.685177" lon="0.652581">
        <ele>2148.1</ele>
        <time>2010-07-02T10:23:08Z</time>
      </trkpt>
      <trkpt lat="42.685121" lon="0.652602">
        <ele>2144.6</ele>
        <time>2010-07-02T10:23:08Z</time>
      </trkpt>
      <trkpt lat="42.685198" lon="0.652268">
        <ele>2147.2</ele>
        <time>2010-07-02T10:23:08Z</time>
      </trkpt>
      <trkpt lat="42.685213" lon="0.651941">
        <ele>2144.2</ele>
        <time>2010-07-02T10:23:08Z</time>
      </trkpt>
      <trkpt lat="42.685201" lon="0.651730">
        <ele>2139.6</ele>
        <time>2010-07-02T10:23:08Z</time>
      </trkpt>
      <trkpt lat="42.685100" lon="0.651725">
        <ele>2132.6</ele>
        <time>2010-07-02T10:23:08Z</time>
      </trkpt>
      <trkpt lat="42.684975" lon="0.651897">
        <ele>2127.1</ele>
        <time>2010-07-02T10:23:08Z</time>
      </trkpt>
      <trkpt lat="42.684897" lon="0.652265">
        <ele>2126.6</ele>
        <time>2010-07-02T10:23:08Z</time>
      </trkpt>
      <trkpt lat="42.684835" lon="0.652378">
        <ele>2123.6</ele>
        <time>2010-07-02T10:23:08Z</time>
      </trkpt>
      <trkpt lat="42.684759" lon="0.652528">
        <ele>2120.0</ele>
        <time>2010-07-02T10:23:08Z</time>
      </trkpt>
      <trkpt lat="42.684753" lon="0.652354">
        <ele>2117.7</ele>
        <time>2010-07-02T10:23:08Z</time>
      </trkpt>
      <trkpt lat="42.684772" lon="0.652068">
        <ele>2115.9</ele>
        <time>2010-07-02T10:23:08Z</time>
      </trkpt>
      <trkpt lat="42.684706" lon="0.651590">
        <ele>2103.6</ele>
        <time>2010-07-02T10:23:08Z</time>
      </trkpt>
      <trkpt lat="42.684650" lon="0.651457">
        <ele>2097.7</ele>
        <time>2010-07-02T10:23:08Z</time>
      </trkpt>
      <trkpt lat="42.684620" lon="0.651382">
        <ele>2094.5</ele>
        <time>2010-07-02T10:23:08Z</time>
      </trkpt>
      <trkpt lat="42.684571" lon="0.651340">
        <ele>2090.7</ele>
        <time>2010-07-02T10:23:08Z</time>
      </trkpt>
      <trkpt lat="42.684574" lon="0.651710">
        <ele>2096.6</ele>
        <time>2010-07-02T10:23:08Z</time>
      </trkpt>
      <trkpt lat="42.684509" lon="0.651932">
        <ele>2096.2</ele>
        <time>2010-07-02T10:23:08Z</time>
      </trkpt>
      <trkpt lat="42.684402" lon="0.652010">
        <ele>2091.2</ele>
        <time>2010-07-02T10:23:08Z</time>
      </trkpt>
      <trkpt lat="42.684328" lon="0.652162">
        <ele>2088.9</ele>
        <time>2010-07-02T10:23:08Z</time>
      </trkpt>
      <trkpt lat="42.684259" lon="0.652249">
        <ele>2085.8</ele>
        <time>2010-07-02T10:23:08Z</time>
      </trkpt>
      <trkpt lat="42.684276" lon="0.652058">
        <ele>2084.5</ele>
        <time>2010-07-02T10:23:08Z</time>
      </trkpt>
      <trkpt lat="42.684266" lon="0.651928">
        <ele>2081.7</ele>
        <time>2010-07-02T10:23:08Z</time>
      </trkpt>
      <trkpt lat="42.684267" lon="0.651611">
        <ele>2076.4</ele>
        <time>2010-07-02T10:23:08Z</time>
      </trkpt>
      <trkpt lat="42.684246" lon="0.651473">
        <ele>2072.8</ele>
        <time>2010-07-02T10:23:08Z</time>
      </trkpt>
      <trkpt lat="42.684226" lon="0.651368">
        <ele>2069.8</ele>
        <time>2010-07-02T10:23:08Z</time>
      </trkpt>
      <trkpt lat="42.684162" lon="0.651248">
        <ele>2063.6</ele>
        <time>2010-07-02T10:23:08Z</time>
      </trkpt>
      <trkpt lat="42.684171" lon="0.651101">
        <ele>2060.1</ele>
        <time>2010-07-02T10:23:08Z</time>
      </trkpt>
      <trkpt lat="42.684096" lon="0.651073">
        <ele>2054.6</ele>
        <time>2010-07-02T10:23:08Z</time>
      </trkpt>
      <trkpt lat="42.684208" lon="0.650979">
        <ele>2058.9</ele>
        <time>2010-07-02T10:23:08Z</time>
      </trkpt>
      <trkpt lat="42.684241" lon="0.650891">
        <ele>2058.5</ele>
        <time>2010-07-02T10:23:08Z</time>
      </trkpt>
      <trkpt lat="42.684269" lon="0.650712">
        <ele>2055.2</ele>
        <time>2010-07-02T10:23:08Z</time>
      </trkpt>
      <trkpt lat="42.684191" lon="0.650758">
        <ele>2051.6</ele>
        <time>2010-07-02T10:23:08Z</time>
      </trkpt>
      <trkpt lat="42.684113" lon="0.650791">
        <ele>2047.7</ele>
        <time>2010-07-02T10:23:08Z</time>
      </trkpt>
      <trkpt lat="42.684131" lon="0.650708">
        <ele>2046.5</ele>
        <time>2010-07-02T10:23:08Z</time>
      </trkpt>
      <trkpt lat="42.684201" lon="0.650638">
        <ele>2048.9</ele>
        <time>2010-07-02T10:23:08Z</time>
      </trkpt>
      <trkpt lat="42.684231" lon="0.650579">
        <ele>2049.1</ele>
        <time>2010-07-02T10:23:08Z</time>
      </trkpt>
      <trkpt lat="42.684208" lon="0.650503">
        <ele>2045.5</ele>
        <time>2010-07-02T10:23:08Z</time>
      </trkpt>
      <trkpt lat="42.684156" lon="0.650515">
        <ele>2042.6</ele>
        <time>2010-07-02T10:23:08Z</time>
      </trkpt>
      <trkpt lat="42.683992" lon="0.650578">
        <ele>2034.3</ele>
        <time>2010-07-02T10:23:08Z</time>
      </trkpt>
      <trkpt lat="42.684010" lon="0.650525">
        <ele>2034.0</ele>
        <time>2010-07-02T10:23:08Z</time>
      </trkpt>
      <trkpt lat="42.684104" lon="0.650440">
        <ele>2037.4</ele>
        <time>2010-07-02T10:23:08Z</time>
      </trkpt>
      <trkpt lat="42.684162" lon="0.650332">
        <ele>2038.7</ele>
        <time>2010-07-02T10:23:08Z</time>
      </trkpt>
      <trkpt lat="42.684074" lon="0.650321">
        <ele>2033.1</ele>
        <time>2010-07-02T10:23:08Z</time>
      </trkpt>
      <trkpt lat="42.683985" lon="0.650317">
        <ele>2027.6</ele>
        <time>2010-07-02T10:23:08Z</time>
      </trkpt>
      <trkpt lat="42.684016" lon="0.650285">
        <ele>2029.0</ele>
        <time>2010-07-02T10:23:08Z</time>
      </trkpt>
      <trkpt lat="42.684068" lon="0.650201">
        <ele>2030.6</ele>
        <time>2010-07-02T10:23:08Z</time>
      </trkpt>
      <trkpt lat="42.684087" lon="0.650114">
        <ele>2030.3</ele>
        <time>2010-07-02T10:23:08Z</time>
      </trkpt>
      <trkpt lat="42.684114" lon="0.650026">
        <ele>2030.3</ele>
        <time>2010-07-02T10:23:08Z</time>
      </trkpt>
      <trkpt lat="42.684137" lon="0.649968">
        <ele>2030.7</ele>
        <time>2010-07-02T10:23:08Z</time>
      </trkpt>
      <trkpt lat="42.684132" lon="0.649713">
        <ele>2025.8</ele>
        <time>2010-07-02T10:23:08Z</time>
      </trkpt>
      <trkpt lat="42.684147" lon="0.649578">
        <ele>2024.3</ele>
        <time>2010-07-02T10:23:08Z</time>
      </trkpt>
      <trkpt lat="42.684115" lon="0.649397">
        <ele>2020.2</ele>
        <time>2010-07-02T10:23:08Z</time>
      </trkpt>
      <trkpt lat="42.684104" lon="0.649219">
        <ele>2017.4</ele>
        <time>2010-07-02T10:23:08Z</time>
      </trkpt>
      <trkpt lat="42.684082" lon="0.648831">
        <ele>2011.3</ele>
        <time>2010-07-02T10:23:08Z</time>
      </trkpt>
      <trkpt lat="42.684103" lon="0.648624">
        <ele>2009.3</ele>
        <time>2010-07-02T10:23:08Z</time>
      </trkpt>
      <trkpt lat="42.684128" lon="0.648459">
        <ele>2007.9</ele>
        <time>2010-07-02T10:23:08Z</time>
      </trkpt>
      <trkpt lat="42.684144" lon="0.648312">
        <ele>2006.2</ele>
        <time>2010-07-02T10:23:08Z</time>
      </trkpt>
      <trkpt lat="42.684042" lon="0.648406">
        <ele>2001.7</ele>
        <time>2010-07-02T10:23:08Z</time>
      </trkpt>
      <trkpt lat="42.683876" lon="0.648810">
        <ele>1998.5</ele>
        <time>2010-07-02T10:23:08Z</time>
      </trkpt>
      <trkpt lat="42.683661" lon="0.649375">
        <ele>1994.6</ele>
        <time>2010-07-02T10:23:08Z</time>
      </trkpt>
      <trkpt lat="42.683616" lon="0.649473">
        <ele>1994.1</ele>
        <time>2010-07-02T10:23:08Z</time>
      </trkpt>
      <trkpt lat="42.683581" lon="0.649479">
        <ele>1992.7</ele>
        <time>2010-07-02T10:23:08Z</time>
      </trkpt>
      <trkpt lat="42.683554" lon="0.649365">
        <ele>1990.1</ele>
        <time>2010-07-02T10:23:08Z</time>
      </trkpt>
      <trkpt lat="42.683549" lon="0.649293">
        <ele>1988.9</ele>
        <time>2010-07-02T10:23:08Z</time>
      </trkpt>
      <trkpt lat="42.683554" lon="0.649206">
        <ele>1987.9</ele>
        <time>2010-07-02T10:23:08Z</time>
      </trkpt>
      <trkpt lat="42.683562" lon="0.649067">
        <ele>1986.4</ele>
        <time>2010-07-02T10:23:08Z</time>
      </trkpt>
      <trkpt lat="42.683558" lon="0.648856">
        <ele>1983.4</ele>
        <time>2010-07-02T10:23:08Z</time>
      </trkpt>
      <trkpt lat="42.683574" lon="0.648601">
        <ele>1979.7</ele>
        <time>2010-07-02T10:23:08Z</time>
      </trkpt>
      <trkpt lat="42.683566" lon="0.648384">
        <ele>1975.1</ele>
        <time>2010-07-02T10:23:08Z</time>
      </trkpt>
      <trkpt lat="42.683550" lon="0.648308">
        <ele>1972.9</ele>
        <time>2010-07-02T10:23:08Z</time>
      </trkpt>
      <trkpt lat="42.683484" lon="0.648310">
        <ele>1969.9</ele>
        <time>2010-07-02T10:23:08Z</time>
      </trkpt>
      <trkpt lat="42.683204" lon="0.648739">
        <ele>1966.9</ele>
        <time>2010-07-02T10:23:08Z</time>
      </trkpt>
      <trkpt lat="42.683068" lon="0.648994">
        <ele>1964.8</ele>
        <time>2010-07-02T10:23:08Z</time>
      </trkpt>
      <trkpt lat="42.682922" lon="0.649197">
        <ele>1961.6</ele>
        <time>2010-07-02T10:23:08Z</time>
      </trkpt>
      <trkpt lat="42.682757" lon="0.649477">
        <ele>1959.0</ele>
        <time>2010-07-02T10:23:08Z</time>
      </trkpt>
      <trkpt lat="42.682739" lon="0.649131">
        <ele>1952.9</ele>
        <time>2010-07-02T10:23:08Z</time>
      </trkpt>
      <trkpt lat="42.682756" lon="0.648819">
        <ele>1948.7</ele>
        <time>2010-07-02T10:23:08Z</time>
      </trkpt>
      <trkpt lat="42.682867" lon="0.648581">
        <ele>1948.5</ele>
        <time>2010-07-02T10:23:08Z</time>
      </trkpt>
      <trkpt lat="42.683047" lon="0.648317">
        <ele>1950.1</ele>
        <time>2010-07-02T10:23:08Z</time>
      </trkpt>
      <trkpt lat="42.683064" lon="0.648115">
        <ele>1946.0</ele>
        <time>2010-07-02T10:23:08Z</time>
      </trkpt>
      <trkpt lat="42.683067" lon="0.647903">
        <ele>1941.3</ele>
        <time>2010-07-02T10:23:08Z</time>
      </trkpt>
      <trkpt lat="42.683028" lon="0.647527">
        <ele>1935.2</ele>
        <time>2010-07-02T10:23:08Z</time>
      </trkpt>
      <trkpt lat="42.683114" lon="0.647305">
        <ele>1936.8</ele>
        <time>2010-07-02T10:23:08Z</time>
      </trkpt>
      <trkpt lat="42.683218" lon="0.646981">
        <ele>1938.7</ele>
        <time>2010-07-02T10:23:08Z</time>
      </trkpt>
      <trkpt lat="42.683275" lon="0.646787">
        <ele>1940.5</ele>
        <time>2010-07-02T10:23:08Z</time>
      </trkpt>
      <trkpt lat="42.683267" lon="0.646609">
        <ele>1939.3</ele>
        <time>2010-07-02T10:23:08Z</time>
      </trkpt>
      <trkpt lat="42.683206" lon="0.646227">
        <ele>1934.6</ele>
        <time>2010-07-02T10:23:08Z</time>
      </trkpt>
      <trkpt lat="42.683180" lon="0.646077">
        <ele>1933.5</ele>
        <time>2010-07-02T10:23:08Z</time>
      </trkpt>
      <trkpt lat="42.683087" lon="0.645711">
        <ele>1929.7</ele>
        <time>2010-07-02T10:23:08Z</time>
      </trkpt>
      <trkpt lat="42.682982" lon="0.645371">
        <ele>1925.7</ele>
        <time>2010-07-02T10:23:08Z</time>
      </trkpt>
      <trkpt lat="42.682922" lon="0.645247">
        <ele>1923.0</ele>
        <time>2010-07-02T10:23:08Z</time>
      </trkpt>
      <trkpt lat="42.682885" lon="0.645020">
        <ele>1921.4</ele>
        <time>2010-07-02T10:23:08Z</time>
      </trkpt>
      <trkpt lat="42.682919" lon="0.644862">
        <ele>1922.4</ele>
        <time>2010-07-02T10:23:08Z</time>
      </trkpt>
      <trkpt lat="42.682979" lon="0.644824">
        <ele>1924.5</ele>
        <time>2010-07-02T10:23:08Z</time>
      </trkpt>
      <trkpt lat="42.683044" lon="0.644739">
        <ele>1926.5</ele>
        <time>2010-07-02T10:23:08Z</time>
      </trkpt>
      <trkpt lat="42.683081" lon="0.644609">
        <ele>1927.2</ele>
        <time>2010-07-02T10:23:08Z</time>
      </trkpt>
      <trkpt lat="42.683092" lon="0.644465">
        <ele>1927.0</ele>
        <time>2010-07-02T10:23:08Z</time>
      </trkpt>
      <trkpt lat="42.683162" lon="0.644240">
        <ele>1927.7</ele>
        <time>2010-07-02T10:23:08Z</time>
      </trkpt>
      <trkpt lat="42.683187" lon="0.644081">
        <ele>1927.1</ele>
        <time>2010-07-02T10:23:08Z</time>
      </trkpt>
      <trkpt lat="42.683297" lon="0.643741">
        <ele>1925.6</ele>
        <time>2010-07-02T10:23:08Z</time>
      </trkpt>
      <trkpt lat="42.683454" lon="0.643283">
        <ele>1916.2</ele>
        <time>2010-07-02T10:23:08Z</time>
      </trkpt>
      <trkpt lat="42.683616" lon="0.642892">
        <ele>1906.1</ele>
        <time>2010-07-02T10:23:08Z</time>
      </trkpt>
      <trkpt lat="42.683617" lon="0.642688">
        <ele>1900.6</ele>
        <time>2010-07-02T10:23:08Z</time>
      </trkpt>
      <trkpt lat="42.683633" lon="0.642363">
        <ele>1891.7</ele>
        <time>2010-07-02T10:23:08Z</time>
      </trkpt>
      <trkpt lat="42.683627" lon="0.642227">
        <ele>1888.1</ele>
        <time>2010-07-02T10:23:08Z</time>
      </trkpt>
      <trkpt lat="42.683654" lon="0.642155">
        <ele>1886.0</ele>
        <time>2010-07-02T10:23:08Z</time>
      </trkpt>
      <trkpt lat="42.683716" lon="0.642139">
        <ele>1885.5</ele>
        <time>2010-07-02T10:23:08Z</time>
      </trkpt>
      <trkpt lat="42.683723" lon="0.642027">
        <ele>1882.9</ele>
        <time>2010-07-02T10:23:08Z</time>
      </trkpt>
      <trkpt lat="42.683700" lon="0.641866">
        <ele>1879.4</ele>
        <time>2010-07-02T10:23:08Z</time>
      </trkpt>
      <trkpt lat="42.683580" lon="0.641542">
        <ele>1870.8</ele>
        <time>2010-07-02T10:23:08Z</time>
      </trkpt>
      <trkpt lat="42.683564" lon="0.641449">
        <ele>1868.2</ele>
        <time>2010-07-02T10:23:08Z</time>
      </trkpt>
      <trkpt lat="42.683634" lon="0.641193">
        <ele>1863.8</ele>
        <time>2010-07-02T10:23:08Z</time>
      </trkpt>
      <trkpt lat="42.683637" lon="0.641058">
        <ele>1862.0</ele>
        <time>2010-07-02T10:23:08Z</time>
      </trkpt>
      <trkpt lat="42.683615" lon="0.640840">
        <ele>1858.4</ele>
        <time>2010-07-02T10:23:08Z</time>
      </trkpt>
      <trkpt lat="42.683559" lon="0.640529">
        <ele>1852.9</ele>
        <time>2010-07-02T10:23:08Z</time>
      </trkpt>
      <trkpt lat="42.683555" lon="0.640336">
        <ele>1850.9</ele>
        <time>2010-07-02T10:23:08Z</time>
      </trkpt>
      <trkpt lat="42.683579" lon="0.640136">
        <ele>1850.4</ele>
        <time>2010-07-02T10:23:08Z</time>
      </trkpt>
      <trkpt lat="42.683558" lon="0.639567">
        <ele>1847.6</ele>
        <time>2010-07-02T10:23:08Z</time>
      </trkpt>
      <trkpt lat="42.683538" lon="0.639390">
        <ele>1847.6</ele>
        <time>2010-07-02T10:23:08Z</time>
      </trkpt>
      <trkpt lat="42.683475" lon="0.639306">
        <ele>1846.6</ele>
        <time>2010-07-02T10:23:08Z</time>
      </trkpt>
      <trkpt lat="42.683445" lon="0.639217">
        <ele>1846.2</ele>
        <time>2010-07-02T10:23:08Z</time>
      </trkpt>
      <trkpt lat="42.683535" lon="0.638685">
        <ele>1848.9</ele>
        <time>2010-07-02T10:23:08Z</time>
      </trkpt>
      <trkpt lat="42.683565" lon="0.638269">
        <ele>1849.8</ele>
        <time>2010-07-02T10:23:08Z</time>
      </trkpt>
      <trkpt lat="42.683516" lon="0.637796">
        <ele>1849.4</ele>
        <time>2010-07-02T10:23:08Z</time>
      </trkpt>
      <trkpt lat="42.683501" lon="0.637317">
        <ele>1848.7</ele>
        <time>2010-07-02T10:23:08Z</time>
      </trkpt>
      <trkpt lat="42.683514" lon="0.636856">
        <ele>1850.7</ele>
        <time>2010-07-02T10:23:08Z</time>
      </trkpt>
      <trkpt lat="42.683523" lon="0.636622">
        <ele>1853.0</ele>
        <time>2010-07-02T10:23:08Z</time>
      </trkpt>
      <trkpt lat="42.683396" lon="0.636140">
        <ele>1856.8</ele>
        <time>2010-07-02T10:23:08Z</time>
      </trkpt>
      <trkpt lat="42.683137" lon="0.635705">
        <ele>1860.1</ele>
        <time>2010-07-02T10:23:08Z</time>
      </trkpt>
      <trkpt lat="42.683080" lon="0.635398">
        <ele>1863.2</ele>
        <time>2010-07-02T10:23:08Z</time>
      </trkpt>
      <trkpt lat="42.683123" lon="0.635057">
        <ele>1863.1</ele>
        <time>2010-07-02T10:23:08Z</time>
      </trkpt>
      <trkpt lat="42.683199" lon="0.634661">
        <ele>1862.8</ele>
        <time>2010-07-02T10:23:08Z</time>
      </trkpt>
      <trkpt lat="42.683315" lon="0.634231">
        <ele>1864.0</ele>
        <time>2010-07-02T10:23:08Z</time>
      </trkpt>
      <trkpt lat="42.683324" lon="0.634012">
        <ele>1864.7</ele>
        <time>2010-07-02T10:23:08Z</time>
      </trkpt>
      <trkpt lat="42.683323" lon="0.633548">
        <ele>1866.8</ele>
        <time>2010-07-02T10:23:08Z</time>
      </trkpt>
      <trkpt lat="42.683349" lon="0.633181">
        <ele>1869.2</ele>
        <time>2010-07-02T10:23:08Z</time>
      </trkpt>
      <trkpt lat="42.683442" lon="0.632853">
        <ele>1870.7</ele>
        <time>2010-07-02T10:23:08Z</time>
      </trkpt>
      <trkpt lat="42.683756" lon="0.632162">
        <ele>1873.6</ele>
        <time>2010-07-02T10:23:08Z</time>
      </trkpt>
      <trkpt lat="42.683836" lon="0.631816">
        <ele>1874.0</ele>
        <time>2010-07-02T10:23:08Z</time>
      </trkpt>
      <trkpt lat="42.683832" lon="0.631631">
        <ele>1873.6</ele>
        <time>2010-07-02T10:23:08Z</time>
      </trkpt>
      <trkpt lat="42.683733" lon="0.631314">
        <ele>1873.0</ele>
        <time>2010-07-02T10:23:08Z</time>
      </trkpt>
      <trkpt lat="42.683663" lon="0.630861">
        <ele>1872.9</ele>
        <time>2010-07-02T10:23:08Z</time>
      </trkpt>
      <trkpt lat="42.683585" lon="0.630313">
        <ele>1871.7</ele>
        <time>2010-07-02T10:23:08Z</time>
      </trkpt>
      <trkpt lat="42.683596" lon="0.629928">
        <ele>1869.2</ele>
        <time>2010-07-02T10:23:08Z</time>
      </trkpt>
      <trkpt lat="42.683620" lon="0.629742">
        <ele>1868.2</ele>
        <time>2010-07-02T10:23:08Z</time>
      </trkpt>
      <trkpt lat="42.683634" lon="0.629485">
        <ele>1867.0</ele>
        <time>2010-07-02T10:23:08Z</time>
      </trkpt>
      <trkpt lat="42.683625" lon="0.629047">
        <ele>1866.4</ele>
        <time>2010-07-02T10:23:08Z</time>
      </trkpt>
      <trkpt lat="42.683637" lon="0.628689">
        <ele>1865.8</ele>
        <time>2010-07-02T10:23:08Z</time>
      </trkpt>
      <trkpt lat="42.683728" lon="0.628218">
        <ele>1865.4</ele>
        <time>2010-07-02T10:23:08Z</time>
      </trkpt>
      <trkpt lat="42.683825" lon="0.627810">
        <ele>1864.7</ele>
        <time>2010-07-02T10:23:08Z</time>
      </trkpt>
      <trkpt lat="42.683900" lon="0.627381">
        <ele>1861.9</ele>
        <time>2010-07-02T10:23:08Z</time>
      </trkpt>
      <trkpt lat="42.683934" lon="0.627025">
        <ele>1859.3</ele>
        <time>2010-07-02T10:23:08Z</time>
      </trkpt>
      <trkpt lat="42.683963" lon="0.626790">
        <ele>1856.9</ele>
        <time>2010-07-02T10:23:08Z</time>
      </trkpt>
      <trkpt lat="42.684005" lon="0.625883">
        <ele>1847.5</ele>
        <time>2010-07-02T10:23:08Z</time>
      </trkpt>
      <trkpt lat="42.684047" lon="0.624803">
        <ele>1835.9</ele>
        <time>2010-07-02T10:23:08Z</time>
      </trkpt>
      <trkpt lat="42.684125" lon="0.624302">
        <ele>1833.1</ele>
        <time>2010-07-02T10:23:08Z</time>
      </trkpt>
      <trkpt lat="42.684192" lon="0.624152">
        <ele>1833.0</ele>
        <time>2010-07-02T10:23:08Z</time>
      </trkpt>
      <trkpt lat="42.684267" lon="0.623999">
        <ele>1832.8</ele>
        <time>2010-07-02T10:23:08Z</time>
      </trkpt>
      <trkpt lat="42.684287" lon="0.623613">
        <ele>1832.5</ele>
        <time>2010-07-02T10:23:08Z</time>
      </trkpt>
      <trkpt lat="42.684277" lon="0.623052">
        <ele>1833.3</ele>
        <time>2010-07-02T10:23:08Z</time>
      </trkpt>
      <trkpt lat="42.684309" lon="0.622795">
        <ele>1832.7</ele>
        <time>2010-07-02T10:23:08Z</time>
      </trkpt>
      <trkpt lat="42.684297" lon="0.622618">
        <ele>1832.0</ele>
        <time>2010-07-02T10:23:08Z</time>
      </trkpt>
      <trkpt lat="42.684279" lon="0.622343">
        <ele>1830.8</ele>
        <time>2010-07-02T10:23:08Z</time>
      </trkpt>
      <trkpt lat="42.684292" lon="0.622155">
        <ele>1829.8</ele>
        <time>2010-07-02T10:23:08Z</time>
      </trkpt>
      <trkpt lat="42.684430" lon="0.621486">
        <ele>1823.1</ele>
        <time>2010-07-02T10:23:08Z</time>
      </trkpt>
      <trkpt lat="42.684438" lon="0.621245">
        <ele>1820.9</ele>
        <time>2010-07-02T10:23:08Z</time>
      </trkpt>
      <trkpt lat="42.684368" lon="0.621007">
        <ele>1820.0</ele>
        <time>2010-07-02T10:23:08Z</time>
      </trkpt>
      <trkpt lat="42.684363" lon="0.620795">
        <ele>1818.6</ele>
        <time>2010-07-02T10:23:08Z</time>
      </trkpt>
      <trkpt lat="42.684565" lon="0.620077">
        <ele>1807.7</ele>
        <time>2010-07-02T10:23:08Z</time>
      </trkpt>
      <trkpt lat="42.684663" lon="0.619768">
        <ele>1804.1</ele>
        <time>2010-07-02T10:23:08Z</time>
      </trkpt>
      <trkpt lat="42.684668" lon="0.619586">
        <ele>1802.3</ele>
        <time>2010-07-02T10:23:08Z</time>
      </trkpt>
      <trkpt lat="42.684657" lon="0.619474">
        <ele>1801.9</ele>
        <time>2010-07-02T10:23:08Z</time>
      </trkpt>
      <trkpt lat="42.684628" lon="0.619346">
        <ele>1801.8</ele>
        <time>2010-07-02T10:23:08Z</time>
      </trkpt>
      <trkpt lat="42.684585" lon="0.619178">
        <ele>1802.0</ele>
        <time>2010-07-02T10:23:08Z</time>
      </trkpt>
      <trkpt lat="42.684556" lon="0.619026">
        <ele>1802.8</ele>
        <time>2010-07-02T10:23:08Z</time>
      </trkpt>
      <trkpt lat="42.684537" lon="0.618927">
        <ele>1803.3</ele>
        <time>2010-07-02T10:23:08Z</time>
      </trkpt>
      <trkpt lat="42.684610" lon="0.618918">
        <ele>1800.7</ele>
        <time>2010-07-02T10:23:08Z</time>
      </trkpt>
      <trkpt lat="42.684650" lon="0.618952">
        <ele>1799.8</ele>
        <time>2010-07-02T10:23:08Z</time>
      </trkpt>
      <trkpt lat="42.684708" lon="0.619044">
        <ele>1798.8</ele>
        <time>2010-07-02T10:23:08Z</time>
      </trkpt>
      <trkpt lat="42.684736" lon="0.619101">
        <ele>1798.6</ele>
        <time>2010-07-02T10:23:08Z</time>
      </trkpt>
      <trkpt lat="42.684758" lon="0.619136">
        <ele>1798.3</ele>
        <time>2010-07-02T10:23:08Z</time>
      </trkpt>
      <trkpt lat="42.684778" lon="0.619082">
        <ele>1797.5</ele>
        <time>2010-07-02T10:23:08Z</time>
      </trkpt>
      <trkpt lat="42.684777" lon="0.619017">
        <ele>1797.0</ele>
        <time>2010-07-02T10:23:08Z</time>
      </trkpt>
      <trkpt lat="42.684749" lon="0.618936">
        <ele>1797.1</ele>
        <time>2010-07-02T10:23:08Z</time>
      </trkpt>
      <trkpt lat="42.684717" lon="0.618855">
        <ele>1797.5</ele>
        <time>2010-07-02T10:23:08Z</time>
      </trkpt>
      <trkpt lat="42.684712" lon="0.618791">
        <ele>1797.2</ele>
        <time>2010-07-02T10:23:08Z</time>
      </trkpt>
      <trkpt lat="42.684714" lon="0.618679">
        <ele>1796.6</ele>
        <time>2010-07-02T10:23:08Z</time>
      </trkpt>
      <trkpt lat="42.684725" lon="0.618597">
        <ele>1795.9</ele>
        <time>2010-07-02T10:23:08Z</time>
      </trkpt>
      <trkpt lat="42.684742" lon="0.618567">
        <ele>1795.2</ele>
        <time>2010-07-02T10:23:08Z</time>
      </trkpt>
      <trkpt lat="42.684812" lon="0.618605">
        <ele>1793.0</ele>
        <time>2010-07-02T10:23:08Z</time>
      </trkpt>
      <trkpt lat="42.684857" lon="0.618680">
        <ele>1792.0</ele>
        <time>2010-07-02T10:23:08Z</time>
      </trkpt>
      <trkpt lat="42.684902" lon="0.618784">
        <ele>1791.4</ele>
        <time>2010-07-02T10:23:08Z</time>
      </trkpt>
      <trkpt lat="42.684943" lon="0.618853">
        <ele>1791.0</ele>
        <time>2010-07-02T10:23:08Z</time>
      </trkpt>
      <trkpt lat="42.684996" lon="0.618892">
        <ele>1790.1</ele>
        <time>2010-07-02T10:23:08Z</time>
      </trkpt>
      <trkpt lat="42.685070" lon="0.618918">
        <ele>1788.5</ele>
        <time>2010-07-02T10:23:08Z</time>
      </trkpt>
      <trkpt lat="42.685109" lon="0.618911">
        <ele>1787.3</ele>
        <time>2010-07-02T10:23:08Z</time>
      </trkpt>
      <trkpt lat="42.685079" lon="0.618753">
        <ele>1785.6</ele>
        <time>2010-07-02T10:23:08Z</time>
      </trkpt>
      <trkpt lat="42.685064" lon="0.618625">
        <ele>1784.8</ele>
        <time>2010-07-02T10:23:08Z</time>
      </trkpt>
      <trkpt lat="42.685060" lon="0.618443">
        <ele>1783.3</ele>
        <time>2010-07-02T10:23:08Z</time>
      </trkpt>
      <trkpt lat="42.685099" lon="0.618242">
        <ele>1779.9</ele>
        <time>2010-07-02T10:23:08Z</time>
      </trkpt>
      <trkpt lat="42.685243" lon="0.617843">
        <ele>1770.5</ele>
        <time>2010-07-02T10:23:08Z</time>
      </trkpt>
      <trkpt lat="42.685363" lon="0.617409">
        <ele>1766.1</ele>
        <time>2010-07-02T10:23:08Z</time>
      </trkpt>
      <trkpt lat="42.685407" lon="0.617185">
        <ele>1765.1</ele>
        <time>2010-07-02T10:23:08Z</time>
      </trkpt>
      <trkpt lat="42.685494" lon="0.617228">
        <ele>1764.1</ele>
        <time>2010-07-02T10:23:08Z</time>
      </trkpt>
      <trkpt lat="42.685537" lon="0.617232">
        <ele>1763.8</ele>
        <time>2010-07-02T10:23:08Z</time>
      </trkpt>
      <trkpt lat="42.685577" lon="0.617243">
        <ele>1763.6</ele>
        <time>2010-07-02T10:23:08Z</time>
      </trkpt>
      <trkpt lat="42.685590" lon="0.617242">
        <ele>1763.5</ele>
        <time>2010-07-02T10:23:08Z</time>
      </trkpt>
      <trkpt lat="42.685601" lon="0.617153">
        <ele>1763.4</ele>
        <time>2010-07-02T10:23:08Z</time>
      </trkpt>
      <trkpt lat="42.685600" lon="0.616895">
        <ele>1763.2</ele>
        <time>2010-07-02T10:23:08Z</time>
      </trkpt>
      <trkpt lat="42.685636" lon="0.616541">
        <ele>1762.1</ele>
        <time>2010-07-02T10:23:08Z</time>
      </trkpt>
      <trkpt lat="42.685651" lon="0.616235">
        <ele>1761.3</ele>
        <time>2010-07-02T10:23:08Z</time>
      </trkpt>
      <trkpt lat="42.685601" lon="0.615515">
        <ele>1759.8</ele>
        <time>2010-07-02T10:23:08Z</time>
      </trkpt>
      <trkpt lat="42.685537" lon="0.614930">
        <ele>1755.7</ele>
        <time>2010-07-02T10:23:08Z</time>
      </trkpt>
      <trkpt lat="42.685433" lon="0.614076">
        <ele>1749.3</ele>
        <time>2010-07-02T10:23:08Z</time>
      </trkpt>
      <trkpt lat="42.685376" lon="0.613661">
        <ele>1748.2</ele>
        <time>2010-07-02T10:23:08Z</time>
      </trkpt>
      <trkpt lat="42.685293" lon="0.613195">
        <ele>1749.5</ele>
        <time>2010-07-02T10:23:08Z</time>
      </trkpt>
      <trkpt lat="42.685172" lon="0.612800">
        <ele>1749.5</ele>
        <time>2010-07-02T10:23:08Z</time>
      </trkpt>
      <trkpt lat="42.685035" lon="0.612435">
        <ele>1748.5</ele>
        <time>2010-07-02T10:23:08Z</time>
      </trkpt>
      <trkpt lat="42.684944" lon="0.612233">
        <ele>1747.5</ele>
        <time>2010-07-02T10:23:08Z</time>
      </trkpt>
      <trkpt lat="42.684930" lon="0.611999">
        <ele>1746.7</ele>
        <time>2010-07-02T10:23:08Z</time>
      </trkpt>
      <trkpt lat="42.684911" lon="0.611905">
        <ele>1746.8</ele>
        <time>2010-07-02T10:23:08Z</time>
      </trkpt>
      <trkpt lat="42.684849" lon="0.611843">
        <ele>1747.1</ele>
        <time>2010-07-02T10:23:08Z</time>
      </trkpt>
      <trkpt lat="42.684792" lon="0.611810">
        <ele>1747.4</ele>
        <time>2010-07-02T10:23:08Z</time>
      </trkpt>
      <trkpt lat="42.684649" lon="0.611816">
        <ele>1748.0</ele>
        <time>2010-07-02T10:23:08Z</time>
      </trkpt>
      <trkpt lat="42.684620" lon="0.611670">
        <ele>1748.8</ele>
        <time>2010-07-02T10:23:08Z</time>
      </trkpt>
      <trkpt lat="42.684605" lon="0.611383">
        <ele>1750.2</ele>
        <time>2010-07-02T10:23:08Z</time>
      </trkpt>
      <trkpt lat="42.684641" lon="0.611029">
        <ele>1749.9</ele>
        <time>2010-07-02T10:23:08Z</time>
      </trkpt>
      <trkpt lat="42.684713" lon="0.610738">
        <ele>1748.8</ele>
        <time>2010-07-02T10:23:08Z</time>
      </trkpt>
      <trkpt lat="42.684846" lon="0.610475">
        <ele>1747.5</ele>
        <time>2010-07-02T10:23:08Z</time>
      </trkpt>
      <trkpt lat="42.685041" lon="0.610256">
        <ele>1746.2</ele>
        <time>2010-07-02T10:23:08Z</time>
      </trkpt>
      <trkpt lat="42.685065" lon="0.610167">
        <ele>1746.1</ele>
        <time>2010-07-02T10:23:08Z</time>
      </trkpt>
      <trkpt lat="42.685074" lon="0.609973">
        <ele>1746.0</ele>
        <time>2010-07-02T10:23:08Z</time>
      </trkpt>
      <trkpt lat="42.684975" lon="0.609577">
        <ele>1746.0</ele>
        <time>2010-07-02T10:23:08Z</time>
      </trkpt>
      <trkpt lat="42.684822" lon="0.608913">
        <ele>1746.2</ele>
        <time>2010-07-02T10:23:08Z</time>
      </trkpt>
      <trkpt lat="42.684661" lon="0.608461">
        <ele>1744.7</ele>
        <time>2010-07-02T10:23:08Z</time>
      </trkpt>
      <trkpt lat="42.684479" lon="0.608233">
        <ele>1743.1</ele>
        <time>2010-07-02T10:23:08Z</time>
      </trkpt>
      <trkpt lat="42.684243" lon="0.608131">
        <ele>1741.7</ele>
        <time>2010-07-02T10:23:08Z</time>
      </trkpt>
      <trkpt lat="42.684127" lon="0.607953">
        <ele>1740.5</ele>
        <time>2010-07-02T10:23:08Z</time>
      </trkpt>
      <trkpt lat="42.684068" lon="0.607644">
        <ele>1741.0</ele>
        <time>2010-07-02T10:23:08Z</time>
      </trkpt>
      <trkpt lat="42.684009" lon="0.607535">
        <ele>1741.2</ele>
        <time>2010-07-02T10:23:08Z</time>
      </trkpt>
      <trkpt lat="42.683894" lon="0.607422">
        <ele>1741.2</ele>
        <time>2010-07-02T10:23:08Z</time>
      </trkpt>
      <trkpt lat="42.683867" lon="0.607340">
        <ele>1741.4</ele>
        <time>2010-07-02T10:23:08Z</time>
      </trkpt>
      <trkpt lat="42.683816" lon="0.607008">
        <ele>1742.7</ele>
        <time>2010-07-02T10:23:08Z</time>
      </trkpt>
      <trkpt lat="42.683781" lon="0.606563">
        <ele>1745.8</ele>
        <time>2010-07-02T10:23:08Z</time>
      </trkpt>
      <trkpt lat="42.683721" lon="0.606177">
        <ele>1748.2</ele>
        <time>2010-07-02T10:23:08Z</time>
      </trkpt>
      <trkpt lat="42.683692" lon="0.606055">
        <ele>1748.7</ele>
        <time>2010-07-02T10:23:08Z</time>
      </trkpt>
      <trkpt lat="42.683606" lon="0.606064">
        <ele>1748.0</ele>
        <time>2010-07-02T10:23:08Z</time>
      </trkpt>
      <trkpt lat="42.683414" lon="0.605983">
        <ele>1746.8</ele>
        <time>2010-07-02T10:23:08Z</time>
      </trkpt>
      <trkpt lat="42.683285" lon="0.605859">
        <ele>1746.2</ele>
        <time>2010-07-02T10:23:08Z</time>
      </trkpt>
      <trkpt lat="42.683205" lon="0.605745">
        <ele>1745.9</ele>
        <time>2010-07-02T10:23:08Z</time>
      </trkpt>
      <trkpt lat="42.683124" lon="0.605613">
        <ele>1745.6</ele>
        <time>2010-07-02T10:23:08Z</time>
      </trkpt>
      <trkpt lat="42.683117" lon="0.605472">
        <ele>1746.0</ele>
        <time>2010-07-02T10:23:08Z</time>
      </trkpt>
      <trkpt lat="42.683147" lon="0.605271">
        <ele>1749.1</ele>
        <time>2010-07-02T10:23:08Z</time>
      </trkpt>
      <trkpt lat="42.683130" lon="0.605072">
        <ele>1752.4</ele>
        <time>2010-07-02T10:23:08Z</time>
      </trkpt>
      <trkpt lat="42.682953" lon="0.604903">
        <ele>1753.6</ele>
        <time>2010-07-02T10:23:08Z</time>
      </trkpt>
      <trkpt lat="42.682684" lon="0.604661">
        <ele>1751.9</ele>
        <time>2010-07-02T10:23:08Z</time>
      </trkpt>
      <trkpt lat="42.682454" lon="0.604429">
        <ele>1750.9</ele>
        <time>2010-07-02T10:23:08Z</time>
      </trkpt>
      <trkpt lat="42.682322" lon="0.604346">
        <ele>1749.7</ele>
        <time>2010-07-02T10:23:08Z</time>
      </trkpt>
      <trkpt lat="42.682079" lon="0.604338">
        <ele>1743.7</ele>
        <time>2010-07-02T10:23:08Z</time>
      </trkpt>
      <trkpt lat="42.681697" lon="0.604299">
        <ele>1740.3</ele>
        <time>2010-07-02T10:23:08Z</time>
      </trkpt>
      <trkpt lat="42.681582" lon="0.604180">
        <ele>1741.0</ele>
        <time>2010-07-02T10:23:08Z</time>
      </trkpt>
      <trkpt lat="42.681105" lon="0.604187">
        <ele>1738.0</ele>
        <time>2010-07-02T10:23:08Z</time>
      </trkpt>
      <trkpt lat="42.681540" lon="0.605980">
        <ele>1751.0</ele>
        <time>2010-07-02T10:23:08Z</time>
      </trkpt>
      <trkpt lat="42.682212" lon="0.607325">
        <ele>1753.6</ele>
        <time>2010-07-02T10:23:08Z</time>
      </trkpt>
      <trkpt lat="42.681925" lon="0.607336">
        <ele>1767.3</ele>
        <time>2010-07-02T10:23:08Z</time>
      </trkpt>
      <trkpt lat="42.681632" lon="0.607215">
        <ele>1779.2</ele>
        <time>2010-07-02T10:23:08Z</time>
      </trkpt>
      <trkpt lat="42.681259" lon="0.606789">
        <ele>1785.5</ele>
        <time>2010-07-02T10:23:08Z</time>
      </trkpt>
      <trkpt lat="42.680851" lon="0.606317">
        <ele>1791.0</ele>
        <time>2010-07-02T10:23:08Z</time>
      </trkpt>
      <trkpt lat="42.680605" lon="0.606138">
        <ele>1800.5</ele>
        <time>2010-07-02T10:23:08Z</time>
      </trkpt>
      <trkpt lat="42.680406" lon="0.605970">
        <ele>1805.9</ele>
        <time>2010-07-02T10:23:08Z</time>
      </trkpt>
      <trkpt lat="42.680322" lon="0.605891">
        <ele>1805.8</ele>
        <time>2010-07-02T10:23:08Z</time>
      </trkpt>
      <trkpt lat="42.680210" lon="0.605948">
        <ele>1811.4</ele>
        <time>2010-07-02T10:23:08Z</time>
      </trkpt>
      <trkpt lat="42.680115" lon="0.605946">
        <ele>1814.4</ele>
        <time>2010-07-02T10:23:08Z</time>
      </trkpt>
      <trkpt lat="42.680028" lon="0.605925">
        <ele>1816.6</ele>
        <time>2010-07-02T10:23:08Z</time>
      </trkpt>
      <trkpt lat="42.679954" lon="0.605881">
        <ele>1817.6</ele>
        <time>2010-07-02T10:23:08Z</time>
      </trkpt>
      <trkpt lat="42.679875" lon="0.605855">
        <ele>1819.4</ele>
        <time>2010-07-02T10:23:08Z</time>
      </trkpt>
      <trkpt lat="42.679810" lon="0.605852">
        <ele>1821.4</ele>
        <time>2010-07-02T10:23:08Z</time>
      </trkpt>
      <trkpt lat="42.679662" lon="0.605840">
        <ele>1826.0</ele>
        <time>2010-07-02T10:23:08Z</time>
      </trkpt>
      <trkpt lat="42.679593" lon="0.605831">
        <ele>1828.1</ele>
        <time>2010-07-02T10:23:08Z</time>
      </trkpt>
      <trkpt lat="42.679428" lon="0.605661">
        <ele>1828.3</ele>
        <time>2010-07-02T10:23:08Z</time>
      </trkpt>
      <trkpt lat="42.679256" lon="0.605401">
        <ele>1825.7</ele>
        <time>2010-07-02T10:23:08Z</time>
      </trkpt>
      <trkpt lat="42.679099" lon="0.605211">
        <ele>1826.3</ele>
        <time>2010-07-02T10:23:08Z</time>
      </trkpt>
      <trkpt lat="42.679003" lon="0.605099">
        <ele>1826.8</ele>
        <time>2010-07-02T10:23:08Z</time>
      </trkpt>
      <trkpt lat="42.678878" lon="0.604873">
        <ele>1825.9</ele>
        <time>2010-07-02T10:23:08Z</time>
      </trkpt>
      <trkpt lat="42.678771" lon="0.604813">
        <ele>1827.8</ele>
        <time>2010-07-02T10:23:08Z</time>
      </trkpt>
      <trkpt lat="42.678578" lon="0.604768">
        <ele>1835.1</ele>
        <time>2010-07-02T10:23:08Z</time>
      </trkpt>
      <trkpt lat="42.678393" lon="0.604706">
        <ele>1842.0</ele>
        <time>2010-07-02T10:23:08Z</time>
      </trkpt>
      <trkpt lat="42.678203" lon="0.604604">
        <ele>1848.0</ele>
        <time>2010-07-02T10:23:08Z</time>
      </trkpt>
      <trkpt lat="42.678087" lon="0.604354">
        <ele>1846.2</ele>
        <time>2010-07-02T10:23:08Z</time>
      </trkpt>
      <trkpt lat="42.677900" lon="0.603968">
        <ele>1842.8</ele>
        <time>2010-07-02T10:23:08Z</time>
      </trkpt>
      <trkpt lat="42.677697" lon="0.603635">
        <ele>1839.5</ele>
        <time>2010-07-02T10:23:08Z</time>
      </trkpt>
      <trkpt lat="42.677498" lon="0.603302">
        <ele>1837.8</ele>
        <time>2010-07-02T10:23:08Z</time>
      </trkpt>
      <trkpt lat="42.676628" lon="0.602283">
        <ele>1841.0</ele>
        <time>2010-07-02T10:23:08Z</time>
      </trkpt>
      <trkpt lat="42.676488" lon="0.602092">
        <ele>1841.1</ele>
        <time>2010-07-02T10:23:08Z</time>
      </trkpt>
      <trkpt lat="42.676346" lon="0.602028">
        <ele>1842.6</ele>
        <time>2010-07-02T10:23:08Z</time>
      </trkpt>
      <trkpt lat="42.676196" lon="0.602011">
        <ele>1844.5</ele>
        <time>2010-07-02T10:23:08Z</time>
      </trkpt>
      <trkpt lat="42.676076" lon="0.601992">
        <ele>1845.2</ele>
        <time>2010-07-02T10:23:08Z</time>
      </trkpt>
      <trkpt lat="42.675843" lon="0.601822">
        <ele>1845.4</ele>
        <time>2010-07-02T10:23:08Z</time>
      </trkpt>
      <trkpt lat="42.675615" lon="0.601559">
        <ele>1845.2</ele>
        <time>2010-07-02T10:23:08Z</time>
      </trkpt>
      <trkpt lat="42.675517" lon="0.601326">
        <ele>1844.4</ele>
        <time>2010-07-02T10:23:08Z</time>
      </trkpt>
      <trkpt lat="42.675453" lon="0.601155">
        <ele>1842.9</ele>
        <time>2010-07-02T10:23:08Z</time>
      </trkpt>
      <trkpt lat="42.675382" lon="0.600990">
        <ele>1841.5</ele>
        <time>2010-07-02T10:23:08Z</time>
      </trkpt>
      <trkpt lat="42.675296" lon="0.600757">
        <ele>1839.2</ele>
        <time>2010-07-02T10:23:08Z</time>
      </trkpt>
      <trkpt lat="42.675230" lon="0.600655">
        <ele>1838.4</ele>
        <time>2010-07-02T10:23:08Z</time>
      </trkpt>
      <trkpt lat="42.675172" lon="0.600565">
        <ele>1837.5</ele>
        <time>2010-07-02T10:23:08Z</time>
      </trkpt>
      <trkpt lat="42.675122" lon="0.600428">
        <ele>1835.2</ele>
        <time>2010-07-02T10:23:08Z</time>
      </trkpt>
      <trkpt lat="42.675061" lon="0.600362">
        <ele>1834.3</ele>
        <time>2010-07-02T10:23:08Z</time>
      </trkpt>
      <trkpt lat="42.674952" lon="0.600210">
        <ele>1831.8</ele>
        <time>2010-07-02T10:23:08Z</time>
      </trkpt>
      <trkpt lat="42.674861" lon="0.600167">
        <ele>1831.5</ele>
        <time>2010-07-02T10:23:08Z</time>
      </trkpt>
      <trkpt lat="42.674778" lon="0.600078">
        <ele>1829.8</ele>
        <time>2010-07-02T10:23:08Z</time>
      </trkpt>
      <trkpt lat="42.674756" lon="0.599836">
        <ele>1823.0</ele>
        <time>2010-07-02T10:23:08Z</time>
      </trkpt>
      <trkpt lat="42.674748" lon="0.599466">
        <ele>1812.7</ele>
        <time>2010-07-02T10:23:08Z</time>
      </trkpt>
      <trkpt lat="42.674692" lon="0.599225">
        <ele>1806.2</ele>
        <time>2010-07-02T10:23:08Z</time>
      </trkpt>
      <trkpt lat="42.674482" lon="0.598742">
        <ele>1794.0</ele>
        <time>2010-07-02T10:23:08Z</time>
      </trkpt>
      <trkpt lat="42.674422" lon="0.598554">
        <ele>1790.0</ele>
        <time>2010-07-02T10:23:08Z</time>
      </trkpt>
      <trkpt lat="42.674399" lon="0.598451">
        <ele>1787.6</ele>
        <time>2010-07-02T10:23:08Z</time>
      </trkpt>
      <trkpt lat="42.674062" lon="0.598053">
        <ele>1779.4</ele>
        <time>2010-07-02T10:23:08Z</time>
      </trkpt>
      <trkpt lat="42.673741" lon="0.597794">
        <ele>1774.1</ele>
        <time>2010-07-02T10:23:08Z</time>
      </trkpt>
      <trkpt lat="42.673400" lon="0.597571">
        <ele>1780.1</ele>
        <time>2010-07-02T10:23:08Z</time>
      </trkpt>
      <trkpt lat="42.673080" lon="0.597346">
        <ele>1783.8</ele>
        <time>2010-07-02T10:23:08Z</time>
      </trkpt>
      <trkpt lat="42.672759" lon="0.596925">
        <ele>1783.6</ele>
        <time>2010-07-02T10:23:08Z</time>
      </trkpt>
      <trkpt lat="42.672601" lon="0.596683">
        <ele>1782.9</ele>
        <time>2010-07-02T10:23:08Z</time>
      </trkpt>
      <trkpt lat="42.672383" lon="0.596471">
        <ele>1783.0</ele>
        <time>2010-07-02T10:23:08Z</time>
      </trkpt>
      <trkpt lat="42.672060" lon="0.596102">
        <ele>1778.8</ele>
        <time>2010-07-02T10:23:08Z</time>
      </trkpt>
      <trkpt lat="42.671868" lon="0.595890">
        <ele>1781.1</ele>
        <time>2010-07-02T10:23:08Z</time>
      </trkpt>
      <trkpt lat="42.671615" lon="0.595640">
        <ele>1782.4</ele>
        <time>2010-07-02T10:23:08Z</time>
      </trkpt>
      <trkpt lat="42.671432" lon="0.595468">
        <ele>1781.9</ele>
        <time>2010-07-02T10:23:08Z</time>
      </trkpt>
      <trkpt lat="42.671309" lon="0.595288">
        <ele>1778.0</ele>
        <time>2010-07-02T10:23:08Z</time>
      </trkpt>
      <trkpt lat="42.671113" lon="0.595070">
        <ele>1775.8</ele>
        <time>2010-07-02T10:23:08Z</time>
      </trkpt>
      <trkpt lat="42.670904" lon="0.594876">
        <ele>1774.5</ele>
        <time>2010-07-02T10:23:08Z</time>
      </trkpt>
      <trkpt lat="42.670835" lon="0.594809">
        <ele>1773.6</ele>
        <time>2010-07-02T10:23:08Z</time>
      </trkpt>
      <trkpt lat="42.670774" lon="0.594748">
        <ele>1772.4</ele>
        <time>2010-07-02T10:23:08Z</time>
      </trkpt>
      <trkpt lat="42.670697" lon="0.594751">
        <ele>1775.6</ele>
        <time>2010-07-02T10:23:08Z</time>
      </trkpt>
      <trkpt lat="42.670610" lon="0.594708">
        <ele>1776.2</ele>
        <time>2010-07-02T10:23:08Z</time>
      </trkpt>
      <trkpt lat="42.670580" lon="0.594686">
        <ele>1775.9</ele>
        <time>2010-07-02T10:23:08Z</time>
      </trkpt>
      <trkpt lat="42.670566" lon="0.594623">
        <ele>1772.4</ele>
        <time>2010-07-02T10:23:08Z</time>
      </trkpt>
      <trkpt lat="42.670556" lon="0.594566">
        <ele>1769.3</ele>
        <time>2010-07-02T10:23:08Z</time>
      </trkpt>
      <trkpt lat="42.670499" lon="0.594481">
        <ele>1767.5</ele>
        <time>2010-07-02T10:23:08Z</time>
      </trkpt>
      <trkpt lat="42.670408" lon="0.594398">
        <ele>1767.1</ele>
        <time>2010-07-02T10:23:08Z</time>
      </trkpt>
      <trkpt lat="42.670348" lon="0.594377">
        <ele>1771.2</ele>
        <time>2010-07-02T10:23:08Z</time>
      </trkpt>
      <trkpt lat="42.670248" lon="0.594288">
        <ele>1775.5</ele>
        <time>2010-07-02T10:23:08Z</time>
      </trkpt>
      <trkpt lat="42.670126" lon="0.594183">
        <ele>1780.5</ele>
        <time>2010-07-02T10:23:08Z</time>
      </trkpt>
      <trkpt lat="42.669952" lon="0.593988">
        <ele>1785.1</ele>
        <time>2010-07-02T10:23:08Z</time>
      </trkpt>
      <trkpt lat="42.669786" lon="0.593804">
        <ele>1788.8</ele>
        <time>2010-07-02T10:23:08Z</time>
      </trkpt>
      <trkpt lat="42.669424" lon="0.593251">
        <ele>1789.7</ele>
        <time>2010-07-02T10:23:08Z</time>
      </trkpt>
      <trkpt lat="42.669058" lon="0.592676">
        <ele>1791.0</ele>
        <time>2010-07-02T10:23:08Z</time>
      </trkpt>
      <trkpt lat="42.668863" lon="0.592290">
        <ele>1788.6</ele>
        <time>2010-07-02T10:23:08Z</time>
      </trkpt>
      <trkpt lat="42.668730" lon="0.592076">
        <ele>1787.9</ele>
        <time>2010-07-02T10:23:08Z</time>
      </trkpt>
      <trkpt lat="42.668652" lon="0.591987">
        <ele>1788.7</ele>
        <time>2010-07-02T10:23:08Z</time>
      </trkpt>
      <trkpt lat="42.668602" lon="0.591850">
        <ele>1785.5</ele>
        <time>2010-07-02T10:23:08Z</time>
      </trkpt>
      <trkpt lat="42.668573" lon="0.591718">
        <ele>1781.1</ele>
        <time>2010-07-02T10:23:08Z</time>
      </trkpt>
      <trkpt lat="42.668541" lon="0.591598">
        <ele>1777.1</ele>
        <time>2010-07-02T10:23:08Z</time>
      </trkpt>
      <trkpt lat="42.668479" lon="0.591485">
        <ele>1774.6</ele>
        <time>2010-07-02T10:23:08Z</time>
      </trkpt>
      <trkpt lat="42.668395" lon="0.591355">
        <ele>1771.6</ele>
        <time>2010-07-02T10:23:08Z</time>
      </trkpt>
      <trkpt lat="42.668294" lon="0.591215">
        <ele>1768.6</ele>
        <time>2010-07-02T10:23:08Z</time>
      </trkpt>
      <trkpt lat="42.668098" lon="0.590991">
        <ele>1767.9</ele>
        <time>2010-07-02T10:23:08Z</time>
      </trkpt>
      <trkpt lat="42.667673" lon="0.590476">
        <ele>1765.5</ele>
        <time>2010-07-02T10:23:08Z</time>
      </trkpt>
      <trkpt lat="42.667593" lon="0.590323">
        <ele>1761.8</ele>
        <time>2010-07-02T10:23:08Z</time>
      </trkpt>
      <trkpt lat="42.667367" lon="0.589921">
        <ele>1751.3</ele>
        <time>2010-07-02T10:23:08Z</time>
      </trkpt>
      <trkpt lat="42.667319" lon="0.589860">
        <ele>1749.6</ele>
        <time>2010-07-02T10:23:08Z</time>
      </trkpt>
      <trkpt lat="42.667250" lon="0.589839">
        <ele>1750.1</ele>
        <time>2010-07-02T10:23:08Z</time>
      </trkpt>
      <trkpt lat="42.667220" lon="0.589823">
        <ele>1750.0</ele>
        <time>2010-07-02T10:23:08Z</time>
      </trkpt>
      <trkpt lat="42.667222" lon="0.589713">
        <ele>1744.9</ele>
        <time>2010-07-02T10:23:08Z</time>
      </trkpt>
      <trkpt lat="42.667221" lon="0.589638">
        <ele>1741.4</ele>
        <time>2010-07-02T10:23:08Z</time>
      </trkpt>
      <trkpt lat="42.667181" lon="0.589582">
        <ele>1739.4</ele>
        <time>2010-07-02T10:23:08Z</time>
      </trkpt>
      <trkpt lat="42.667103" lon="0.589516">
        <ele>1738.2</ele>
        <time>2010-07-02T10:23:08Z</time>
      </trkpt>
      <trkpt lat="42.667016" lon="0.589444">
        <ele>1737.4</ele>
        <time>2010-07-02T10:23:08Z</time>
      </trkpt>
      <trkpt lat="42.666947" lon="0.589383">
        <ele>1736.5</ele>
        <time>2010-07-02T10:23:08Z</time>
      </trkpt>
      <trkpt lat="42.666865" lon="0.589369">
        <ele>1737.5</ele>
        <time>2010-07-02T10:23:08Z</time>
      </trkpt>
      <trkpt lat="42.666783" lon="0.589320">
        <ele>1737.0</ele>
        <time>2010-07-02T10:23:08Z</time>
      </trkpt>
      <trkpt lat="42.666731" lon="0.589270">
        <ele>1735.8</ele>
        <time>2010-07-02T10:23:08Z</time>
      </trkpt>
      <trkpt lat="42.666704" lon="0.589213">
        <ele>1733.7</ele>
        <time>2010-07-02T10:23:08Z</time>
      </trkpt>
      <trkpt lat="42.666749" lon="0.589084">
        <ele>1727.5</ele>
        <time>2010-07-02T10:23:08Z</time>
      </trkpt>
      <trkpt lat="42.666781" lon="0.589020">
        <ele>1724.3</ele>
        <time>2010-07-02T10:23:08Z</time>
      </trkpt>
      <trkpt lat="42.666750" lon="0.588957">
        <ele>1722.0</ele>
        <time>2010-07-02T10:23:08Z</time>
      </trkpt>
      <trkpt lat="42.666677" lon="0.588920">
        <ele>1721.0</ele>
        <time>2010-07-02T10:23:08Z</time>
      </trkpt>
      <trkpt lat="42.666580" lon="0.588796">
        <ele>1716.2</ele>
        <time>2010-07-02T10:23:08Z</time>
      </trkpt>
      <trkpt lat="42.666514" lon="0.588695">
        <ele>1712.4</ele>
        <time>2010-07-02T10:23:08Z</time>
      </trkpt>
      <trkpt lat="42.666402" lon="0.588607">
        <ele>1710.0</ele>
        <time>2010-07-02T10:23:08Z</time>
      </trkpt>
      <trkpt lat="42.666229" lon="0.588504">
        <ele>1707.7</ele>
        <time>2010-07-02T10:23:08Z</time>
      </trkpt>
      <trkpt lat="42.666087" lon="0.588474">
        <ele>1706.7</ele>
        <time>2010-07-02T10:23:08Z</time>
      </trkpt>
      <trkpt lat="42.665949" lon="0.588376">
        <ele>1703.1</ele>
        <time>2010-07-02T10:23:08Z</time>
      </trkpt>
      <trkpt lat="42.665819" lon="0.588271">
        <ele>1699.2</ele>
        <time>2010-07-02T10:23:08Z</time>
      </trkpt>
      <trkpt lat="42.665673" lon="0.588213">
        <ele>1696.9</ele>
        <time>2010-07-02T10:23:08Z</time>
      </trkpt>
      <trkpt lat="42.665569" lon="0.588154">
        <ele>1694.4</ele>
        <time>2010-07-02T10:23:08Z</time>
      </trkpt>
      <trkpt lat="42.665458" lon="0.588123">
        <ele>1693.0</ele>
        <time>2010-07-02T10:23:08Z</time>
      </trkpt>
      <trkpt lat="42.665411" lon="0.588119">
        <ele>1692.8</ele>
        <time>2010-07-02T10:23:08Z</time>
      </trkpt>
      <trkpt lat="42.665304" lon="0.588141">
        <ele>1693.7</ele>
        <time>2010-07-02T10:23:08Z</time>
      </trkpt>
      <trkpt lat="42.665181" lon="0.588163">
        <ele>1694.6</ele>
        <time>2010-07-02T10:23:08Z</time>
      </trkpt>
      <trkpt lat="42.665034" lon="0.588272">
        <ele>1699.1</ele>
        <time>2010-07-02T10:23:08Z</time>
      </trkpt>
      <trkpt lat="42.664951" lon="0.588380">
        <ele>1703.4</ele>
        <time>2010-07-02T10:23:08Z</time>
      </trkpt>
      <trkpt lat="42.664876" lon="0.588452">
        <ele>1706.4</ele>
        <time>2010-07-02T10:23:08Z</time>
      </trkpt>
      <trkpt lat="42.664792" lon="0.588495">
        <ele>1708.3</ele>
        <time>2010-07-02T10:23:08Z</time>
      </trkpt>
      <trkpt lat="42.664739" lon="0.588434">
        <ele>1705.9</ele>
        <time>2010-07-02T10:23:08Z</time>
      </trkpt>
      <trkpt lat="42.664669" lon="0.588350">
        <ele>1702.6</ele>
        <time>2010-07-02T10:23:08Z</time>
      </trkpt>
      <trkpt lat="42.664591" lon="0.588289">
        <ele>1700.2</ele>
        <time>2010-07-02T10:23:08Z</time>
      </trkpt>
      <trkpt lat="42.664496" lon="0.588241">
        <ele>1699.4</ele>
        <time>2010-07-02T10:23:08Z</time>
      </trkpt>
      <trkpt lat="42.664362" lon="0.588154">
        <ele>1697.6</ele>
        <time>2010-07-02T10:23:08Z</time>
      </trkpt>
      <trkpt lat="42.664111" lon="0.588049">
        <ele>1696.4</ele>
        <time>2010-07-02T10:23:08Z</time>
      </trkpt>
      <trkpt lat="42.663827" lon="0.587937">
        <ele>1695.0</ele>
        <time>2010-07-02T10:23:08Z</time>
      </trkpt>
      <trkpt lat="42.663592" lon="0.587789">
        <ele>1692.2</ele>
        <time>2010-07-02T10:23:08Z</time>
      </trkpt>
      <trkpt lat="42.663287" lon="0.587486">
        <ele>1685.5</ele>
        <time>2010-07-02T10:23:08Z</time>
      </trkpt>
      <trkpt lat="42.662985" lon="0.587284">
        <ele>1683.6</ele>
        <time>2010-07-02T10:23:08Z</time>
      </trkpt>
      <trkpt lat="42.662835" lon="0.587268">
        <ele>1687.0</ele>
        <time>2010-07-02T10:23:08Z</time>
      </trkpt>
      <trkpt lat="42.662578" lon="0.587278">
        <ele>1696.0</ele>
        <time>2010-07-02T10:23:08Z</time>
      </trkpt>
      <trkpt lat="42.662471" lon="0.587293">
        <ele>1700.1</ele>
        <time>2010-07-02T10:23:08Z</time>
      </trkpt>
      <trkpt lat="42.662340" lon="0.586962">
        <ele>1694.3</ele>
        <time>2010-07-02T10:23:08Z</time>
      </trkpt>
      <trkpt lat="42.662225" lon="0.586640">
        <ele>1688.3</ele>
        <time>2010-07-02T10:23:08Z</time>
      </trkpt>
      <trkpt lat="42.661963" lon="0.586370">
        <ele>1688.1</ele>
        <time>2010-07-02T10:23:08Z</time>
      </trkpt>
      <trkpt lat="42.661665" lon="0.586000">
        <ele>1687.8</ele>
        <time>2010-07-02T10:23:08Z</time>
      </trkpt>
      <trkpt lat="42.661597" lon="0.585890">
        <ele>1687.1</ele>
        <time>2010-07-02T10:23:08Z</time>
      </trkpt>
      <trkpt lat="42.661602" lon="0.585755">
        <ele>1684.0</ele>
        <time>2010-07-02T10:23:08Z</time>
      </trkpt>
      <trkpt lat="42.661641" lon="0.585664">
        <ele>1681.2</ele>
        <time>2010-07-02T10:23:08Z</time>
      </trkpt>
      <trkpt lat="42.661870" lon="0.585868">
        <ele>1680.4</ele>
        <time>2010-07-02T10:23:08Z</time>
      </trkpt>
      <trkpt lat="42.662124" lon="0.586017">
        <ele>1676.1</ele>
        <time>2010-07-02T10:23:08Z</time>
      </trkpt>
      <trkpt lat="42.662262" lon="0.586098">
        <ele>1672.5</ele>
        <time>2010-07-02T10:23:08Z</time>
      </trkpt>
      <trkpt lat="42.662405" lon="0.586214">
        <ele>1669.5</ele>
        <time>2010-07-02T10:23:08Z</time>
      </trkpt>
      <trkpt lat="42.662487" lon="0.586262">
        <ele>1667.8</ele>
        <time>2010-07-02T10:23:08Z</time>
      </trkpt>
      <trkpt lat="42.662525" lon="0.586284">
        <ele>1667.2</ele>
        <time>2010-07-02T10:23:08Z</time>
      </trkpt>
      <trkpt lat="42.662554" lon="0.586260">
        <ele>1665.5</ele>
        <time>2010-07-02T10:23:08Z</time>
      </trkpt>
      <trkpt lat="42.662549" lon="0.586202">
        <ele>1664.4</ele>
        <time>2010-07-02T10:23:08Z</time>
      </trkpt>
      <trkpt lat="42.662466" lon="0.586096">
        <ele>1665.2</ele>
        <time>2010-07-02T10:23:08Z</time>
      </trkpt>
      <trkpt lat="42.662357" lon="0.585997">
        <ele>1667.2</ele>
        <time>2010-07-02T10:23:08Z</time>
      </trkpt>
      <trkpt lat="42.662262" lon="0.585885">
        <ele>1668.9</ele>
        <time>2010-07-02T10:23:08Z</time>
      </trkpt>
      <trkpt lat="42.662200" lon="0.585778">
        <ele>1669.6</ele>
        <time>2010-07-02T10:23:08Z</time>
      </trkpt>
      <trkpt lat="42.662178" lon="0.585722">
        <ele>1669.6</ele>
        <time>2010-07-02T10:23:08Z</time>
      </trkpt>
      <trkpt lat="42.662159" lon="0.585653">
        <ele>1669.3</ele>
        <time>2010-07-02T10:23:08Z</time>
      </trkpt>
      <trkpt lat="42.662192" lon="0.585589">
        <ele>1666.9</ele>
        <time>2010-07-02T10:23:08Z</time>
      </trkpt>
      <trkpt lat="42.662264" lon="0.585563">
        <ele>1663.4</ele>
        <time>2010-07-02T10:23:08Z</time>
      </trkpt>
      <trkpt lat="42.662353" lon="0.585588">
        <ele>1660.1</ele>
        <time>2010-07-02T10:23:08Z</time>
      </trkpt>
      <trkpt lat="42.662470" lon="0.585687">
        <ele>1657.1</ele>
        <time>2010-07-02T10:23:08Z</time>
      </trkpt>
      <trkpt lat="42.662566" lon="0.585805">
        <ele>1655.6</ele>
        <time>2010-07-02T10:23:08Z</time>
      </trkpt>
      <trkpt lat="42.662697" lon="0.585943">
        <ele>1653.5</ele>
        <time>2010-07-02T10:23:08Z</time>
      </trkpt>
      <trkpt lat="42.662826" lon="0.586042">
        <ele>1651.0</ele>
        <time>2010-07-02T10:23:08Z</time>
      </trkpt>
      <trkpt lat="42.662951" lon="0.586118">
        <ele>1648.5</ele>
        <time>2010-07-02T10:23:08Z</time>
      </trkpt>
      <trkpt lat="42.663071" lon="0.586153">
        <ele>1645.5</ele>
        <time>2010-07-02T10:23:08Z</time>
      </trkpt>
      <trkpt lat="42.663219" lon="0.586159">
        <ele>1640.7</ele>
        <time>2010-07-02T10:23:08Z</time>
      </trkpt>
      <trkpt lat="42.663449" lon="0.586156">
        <ele>1633.0</ele>
        <time>2010-07-02T10:23:08Z</time>
      </trkpt>
      <trkpt lat="42.663577" lon="0.586191">
        <ele>1629.8</ele>
        <time>2010-07-02T10:23:08Z</time>
      </trkpt>
      <trkpt lat="42.663748" lon="0.586248">
        <ele>1626.0</ele>
        <time>2010-07-02T10:23:08Z</time>
      </trkpt>
      <trkpt lat="42.664129" lon="0.586377">
        <ele>1623.8</ele>
        <time>2010-07-02T10:23:08Z</time>
      </trkpt>
      <trkpt lat="42.664466" lon="0.586215">
        <ele>1610.4</ele>
        <time>2010-07-02T10:23:08Z</time>
      </trkpt>
      <trkpt lat="42.664745" lon="0.586181">
        <ele>1607.4</ele>
        <time>2010-07-02T10:23:08Z</time>
      </trkpt>
      <trkpt lat="42.665013" lon="0.586188">
        <ele>1607.9</ele>
        <time>2010-07-02T10:23:08Z</time>
      </trkpt>
      <trkpt lat="42.665132" lon="0.586166">
        <ele>1607.4</ele>
        <time>2010-07-02T10:23:08Z</time>
      </trkpt>
      <trkpt lat="42.665144" lon="0.586131">
        <ele>1606.5</ele>
        <time>2010-07-02T10:23:08Z</time>
      </trkpt>
      <trkpt lat="42.665133" lon="0.586027">
        <ele>1603.8</ele>
        <time>2010-07-02T10:23:08Z</time>
      </trkpt>
      <trkpt lat="42.665089" lon="0.585954">
        <ele>1601.8</ele>
        <time>2010-07-02T10:23:08Z</time>
      </trkpt>
      <trkpt lat="42.664869" lon="0.585813">
        <ele>1597.8</ele>
        <time>2010-07-02T10:23:08Z</time>
      </trkpt>
      <trkpt lat="42.664271" lon="0.585641">
        <ele>1598.2</ele>
        <time>2010-07-02T10:23:08Z</time>
      </trkpt>
      <trkpt lat="42.664089" lon="0.585463">
        <ele>1596.1</ele>
        <time>2010-07-02T10:23:08Z</time>
      </trkpt>
      <trkpt lat="42.664022" lon="0.585328">
        <ele>1593.2</ele>
        <time>2010-07-02T10:23:08Z</time>
      </trkpt>
      <trkpt lat="42.663950" lon="0.585135">
        <ele>1588.7</ele>
        <time>2010-07-02T10:23:08Z</time>
      </trkpt>
      <trkpt lat="42.663881" lon="0.584878">
        <ele>1582.2</ele>
        <time>2010-07-02T10:23:08Z</time>
      </trkpt>
      <trkpt lat="42.663832" lon="0.584776">
        <ele>1579.8</ele>
        <time>2010-07-02T10:23:08Z</time>
      </trkpt>
      <trkpt lat="42.663780" lon="0.584715">
        <ele>1578.6</ele>
        <time>2010-07-02T10:23:08Z</time>
      </trkpt>
      <trkpt lat="42.663707" lon="0.584672">
        <ele>1578.9</ele>
        <time>2010-07-02T10:23:08Z</time>
      </trkpt>
      <trkpt lat="42.663621" lon="0.584641">
        <ele>1580.2</ele>
        <time>2010-07-02T10:23:08Z</time>
      </trkpt>
      <trkpt lat="42.663539" lon="0.584598">
        <ele>1581.0</ele>
        <time>2010-07-02T10:23:08Z</time>
      </trkpt>
      <trkpt lat="42.663500" lon="0.584565">
        <ele>1581.0</ele>
        <time>2010-07-02T10:23:08Z</time>
      </trkpt>
      <trkpt lat="42.663490" lon="0.584473">
        <ele>1578.1</ele>
        <time>2010-07-02T10:23:08Z</time>
      </trkpt>
      <trkpt lat="42.663472" lon="0.584411">
        <ele>1576.3</ele>
        <time>2010-07-02T10:23:08Z</time>
      </trkpt>
      <trkpt lat="42.663363" lon="0.584299">
        <ele>1574.9</ele>
        <time>2010-07-02T10:23:08Z</time>
      </trkpt>
      <trkpt lat="42.663240" lon="0.584120">
        <ele>1570.9</ele>
        <time>2010-07-02T10:23:08Z</time>
      </trkpt>
      <trkpt lat="42.663105" lon="0.583947">
        <ele>1566.9</ele>
        <time>2010-07-02T10:23:08Z</time>
      </trkpt>
      <trkpt lat="42.663062" lon="0.583908">
        <ele>1566.1</ele>
        <time>2010-07-02T10:23:08Z</time>
      </trkpt>
      <trkpt lat="42.662960" lon="0.583918">
        <ele>1568.3</ele>
        <time>2010-07-02T10:23:08Z</time>
      </trkpt>
      <trkpt lat="42.662861" lon="0.583893">
        <ele>1570.3</ele>
        <time>2010-07-02T10:23:08Z</time>
      </trkpt>
      <trkpt lat="42.662754" lon="0.583839">
        <ele>1572.2</ele>
        <time>2010-07-02T10:23:08Z</time>
      </trkpt>
      <trkpt lat="42.662603" lon="0.583719">
        <ele>1572.2</ele>
        <time>2010-07-02T10:23:08Z</time>
      </trkpt>
      <trkpt lat="42.662399" lon="0.583496">
        <ele>1567.6</ele>
        <time>2010-07-02T10:23:08Z</time>
      </trkpt>
      <trkpt lat="42.662217" lon="0.583135">
        <ele>1551.4</ele>
        <time>2010-07-02T10:23:08Z</time>
      </trkpt>
      <trkpt lat="42.662070" lon="0.582818">
        <ele>1539.7</ele>
        <time>2010-07-02T10:23:08Z</time>
      </trkpt>
      <trkpt lat="42.661907" lon="0.582571">
        <ele>1545.2</ele>
        <time>2010-07-02T10:23:08Z</time>
      </trkpt>
      <trkpt lat="42.661753" lon="0.582301">
        <ele>1543.1</ele>
        <time>2010-07-02T10:23:08Z</time>
      </trkpt>
      <trkpt lat="42.661583" lon="0.582117">
        <ele>1539.2</ele>
        <time>2010-07-02T10:23:08Z</time>
      </trkpt>
      <trkpt lat="42.661498" lon="0.581919">
        <ele>1538.6</ele>
        <time>2010-07-02T10:23:08Z</time>
      </trkpt>
      <trkpt lat="42.661438" lon="0.581875">
        <ele>1539.3</ele>
        <time>2010-07-02T10:23:08Z</time>
      </trkpt>
      <trkpt lat="42.661399" lon="0.581819">
        <ele>1539.7</ele>
        <time>2010-07-02T10:23:08Z</time>
      </trkpt>
      <trkpt lat="42.661380" lon="0.581751">
        <ele>1539.8</ele>
        <time>2010-07-02T10:23:08Z</time>
      </trkpt>
      <trkpt lat="42.661381" lon="0.581578">
        <ele>1539.2</ele>
        <time>2010-07-02T10:23:08Z</time>
      </trkpt>
      <trkpt lat="42.661380" lon="0.581538">
        <ele>1539.1</ele>
        <time>2010-07-02T10:23:08Z</time>
      </trkpt>
      <trkpt lat="42.661365" lon="0.581429">
        <ele>1538.9</ele>
        <time>2010-07-02T10:23:08Z</time>
      </trkpt>
      <trkpt lat="42.661302" lon="0.581264">
        <ele>1538.7</ele>
        <time>2010-07-02T10:23:08Z</time>
      </trkpt>
      <trkpt lat="42.661239" lon="0.581105">
        <ele>1542.8</ele>
        <time>2010-07-02T10:23:08Z</time>
      </trkpt>
      <trkpt lat="42.661178" lon="0.581027">
        <ele>1544.0</ele>
        <time>2010-07-02T10:23:08Z</time>
      </trkpt>
      <trkpt lat="42.660997" lon="0.580902">
        <ele>1544.4</ele>
        <time>2010-07-02T10:23:08Z</time>
      </trkpt>
      <trkpt lat="42.660791" lon="0.580841">
        <ele>1542.3</ele>
        <time>2010-07-02T10:23:08Z</time>
      </trkpt>
      <trkpt lat="42.660536" lon="0.580811">
        <ele>1538.5</ele>
        <time>2010-07-02T10:23:08Z</time>
      </trkpt>
      <trkpt lat="42.660182" lon="0.580744">
        <ele>1531.8</ele>
        <time>2010-07-02T10:23:08Z</time>
      </trkpt>
      <trkpt lat="42.659908" lon="0.580668">
        <ele>1524.7</ele>
        <time>2010-07-02T10:23:08Z</time>
      </trkpt>
      <trkpt lat="42.659704" lon="0.580533">
        <ele>1517.3</ele>
        <time>2010-07-02T10:23:08Z</time>
      </trkpt>
      <trkpt lat="42.659530" lon="0.580370">
        <ele>1509.7</ele>
        <time>2010-07-02T10:23:08Z</time>
      </trkpt>
      <trkpt lat="42.659401" lon="0.580214">
        <ele>1506.4</ele>
        <time>2010-07-02T10:23:08Z</time>
      </trkpt>
      <trkpt lat="42.659283" lon="0.579977">
        <ele>1502.9</ele>
        <time>2010-07-02T10:23:08Z</time>
      </trkpt>
      <trkpt lat="42.659238" lon="0.579684">
        <ele>1500.7</ele>
        <time>2010-07-02T10:23:08Z</time>
      </trkpt>
      <trkpt lat="42.659240" lon="0.579469">
        <ele>1501.3</ele>
        <time>2010-07-02T10:23:08Z</time>
      </trkpt>
      <trkpt lat="42.659286" lon="0.579145">
        <ele>1505.3</ele>
        <time>2010-07-02T10:23:08Z</time>
      </trkpt>
      <trkpt lat="42.659281" lon="0.578931">
        <ele>1507.1</ele>
        <time>2010-07-02T10:23:08Z</time>
      </trkpt>
      <trkpt lat="42.659244" lon="0.578753">
        <ele>1507.6</ele>
        <time>2010-07-02T10:23:08Z</time>
      </trkpt>
      <trkpt lat="42.659182" lon="0.578612">
        <ele>1509.6</ele>
        <time>2010-07-02T10:23:08Z</time>
      </trkpt>
      <trkpt lat="42.659060" lon="0.578447">
        <ele>1510.3</ele>
        <time>2010-07-02T10:23:08Z</time>
      </trkpt>
      <trkpt lat="42.658784" lon="0.578198">
        <ele>1507.7</ele>
        <time>2010-07-02T10:23:08Z</time>
      </trkpt>
      <trkpt lat="42.658543" lon="0.578038">
        <ele>1504.9</ele>
        <time>2010-07-02T10:23:08Z</time>
      </trkpt>
      <trkpt lat="42.658357" lon="0.577974">
        <ele>1501.4</ele>
        <time>2010-07-02T10:23:08Z</time>
      </trkpt>
      <trkpt lat="42.658205" lon="0.577980">
        <ele>1497.4</ele>
        <time>2010-07-02T10:23:08Z</time>
      </trkpt>
      <trkpt lat="42.658086" lon="0.577966">
        <ele>1494.5</ele>
        <time>2010-07-02T10:23:08Z</time>
      </trkpt>
      <trkpt lat="42.657576" lon="0.577566">
        <ele>1496.3</ele>
        <time>2010-07-02T10:23:08Z</time>
      </trkpt>
      <trkpt lat="42.657239" lon="0.577283">
        <ele>1497.3</ele>
        <time>2010-07-02T10:23:08Z</time>
      </trkpt>
      <trkpt lat="42.656959" lon="0.577134">
        <ele>1495.1</ele>
        <time>2010-07-02T10:23:08Z</time>
      </trkpt>
      <trkpt lat="42.656701" lon="0.577099">
        <ele>1490.4</ele>
        <time>2010-07-02T10:23:08Z</time>
      </trkpt>
      <trkpt lat="42.656365" lon="0.577148">
        <ele>1482.6</ele>
        <time>2010-07-02T10:23:08Z</time>
      </trkpt>
      <trkpt lat="42.655952" lon="0.577280">
        <ele>1482.3</ele>
        <time>2010-07-02T10:23:08Z</time>
      </trkpt>
      <trkpt lat="42.655671" lon="0.577329">
        <ele>1485.0</ele>
        <time>2010-07-02T10:23:08Z</time>
      </trkpt>
      <trkpt lat="42.655405" lon="0.577345">
        <ele>1487.7</ele>
        <time>2010-07-02T10:23:08Z</time>
      </trkpt>
      <trkpt lat="42.655166" lon="0.577274">
        <ele>1486.4</ele>
        <time>2010-07-02T10:23:08Z</time>
      </trkpt>
      <trkpt lat="42.655029" lon="0.577188">
        <ele>1486.4</ele>
        <time>2010-07-02T10:23:08Z</time>
      </trkpt>
      <trkpt lat="42.654958" lon="0.577191">
        <ele>1485.8</ele>
        <time>2010-07-02T10:23:08Z</time>
      </trkpt>
      <trkpt lat="42.654900" lon="0.577279">
        <ele>1484.2</ele>
        <time>2010-07-02T10:23:08Z</time>
      </trkpt>
      <trkpt lat="42.654847" lon="0.577384">
        <ele>1482.3</ele>
        <time>2010-07-02T10:23:08Z</time>
      </trkpt>
      <trkpt lat="42.654846" lon="0.577539">
        <ele>1480.1</ele>
        <time>2010-07-02T10:23:08Z</time>
      </trkpt>
      <trkpt lat="42.654853" lon="0.577670">
        <ele>1478.4</ele>
        <time>2010-07-02T10:23:08Z</time>
      </trkpt>
      <trkpt lat="42.654843" lon="0.577785">
        <ele>1476.6</ele>
        <time>2010-07-02T10:23:08Z</time>
      </trkpt>
      <trkpt lat="42.654802" lon="0.577856">
        <ele>1475.0</ele>
        <time>2010-07-02T10:23:08Z</time>
      </trkpt>
      <trkpt lat="42.654765" lon="0.577903">
        <ele>1473.8</ele>
        <time>2010-07-02T10:23:08Z</time>
      </trkpt>
      <trkpt lat="42.654685" lon="0.577929">
        <ele>1472.9</ele>
        <time>2010-07-02T10:23:08Z</time>
      </trkpt>
      <trkpt lat="42.654622" lon="0.577943">
        <ele>1472.5</ele>
        <time>2010-07-02T10:23:08Z</time>
      </trkpt>
      <trkpt lat="42.654563" lon="0.577940">
        <ele>1472.0</ele>
        <time>2010-07-02T10:23:08Z</time>
      </trkpt>
      <trkpt lat="42.654511" lon="0.577896">
        <ele>1471.6</ele>
        <time>2010-07-02T10:23:08Z</time>
      </trkpt>
      <trkpt lat="42.654464" lon="0.577835">
        <ele>1472.5</ele>
        <time>2010-07-02T10:23:08Z</time>
      </trkpt>
      <trkpt lat="42.654394" lon="0.577745">
        <ele>1473.1</ele>
        <time>2010-07-02T10:23:08Z</time>
      </trkpt>
      <trkpt lat="42.654325" lon="0.577685">
        <ele>1473.1</ele>
        <time>2010-07-02T10:23:08Z</time>
      </trkpt>
      <trkpt lat="42.654257" lon="0.577654">
        <ele>1472.7</ele>
        <time>2010-07-02T10:23:08Z</time>
      </trkpt>
      <trkpt lat="42.654158" lon="0.577600">
        <ele>1471.6</ele>
        <time>2010-07-02T10:23:08Z</time>
      </trkpt>
      <trkpt lat="42.654068" lon="0.577552">
        <ele>1470.1</ele>
        <time>2010-07-02T10:23:08Z</time>
      </trkpt>
      <trkpt lat="42.653983" lon="0.577509">
        <ele>1468.4</ele>
        <time>2010-07-02T10:23:08Z</time>
      </trkpt>
      <trkpt lat="42.653787" lon="0.577477">
        <ele>1464.6</ele>
        <time>2010-07-02T10:23:08Z</time>
      </trkpt>
      <trkpt lat="42.653495" lon="0.577448">
        <ele>1465.6</ele>
        <time>2010-07-02T10:23:08Z</time>
      </trkpt>
      <trkpt lat="42.653158" lon="0.577323">
        <ele>1464.0</ele>
        <time>2010-07-02T10:23:08Z</time>
      </trkpt>
      <trkpt lat="42.653069" lon="0.577148">
        <ele>1457.5</ele>
        <time>2010-07-02T10:23:08Z</time>
      </trkpt>
      <trkpt lat="42.652855" lon="0.576969">
        <ele>1454.3</ele>
        <time>2010-07-02T10:23:08Z</time>
      </trkpt>
      <trkpt lat="42.652561" lon="0.576784">
        <ele>1452.3</ele>
        <time>2010-07-02T10:23:08Z</time>
      </trkpt>
      <trkpt lat="42.652362" lon="0.576703">
        <ele>1450.3</ele>
        <time>2010-07-02T10:23:08Z</time>
      </trkpt>
      <trkpt lat="42.652013" lon="0.576707">
        <ele>1450.5</ele>
        <time>2010-07-02T10:23:08Z</time>
      </trkpt>
      <trkpt lat="42.651773" lon="0.576609">
        <ele>1448.5</ele>
        <time>2010-07-02T10:23:08Z</time>
      </trkpt>
      <trkpt lat="42.651465" lon="0.576363">
        <ele>1439.7</ele>
        <time>2010-07-02T10:23:08Z</time>
      </trkpt>
      <trkpt lat="42.651219" lon="0.576256">
        <ele>1436.0</ele>
        <time>2010-07-02T10:23:08Z</time>
      </trkpt>
      <trkpt lat="42.650987" lon="0.576185">
        <ele>1439.9</ele>
        <time>2010-07-02T10:23:08Z</time>
      </trkpt>
      <trkpt lat="42.650781" lon="0.576068">
        <ele>1442.0</ele>
        <time>2010-07-02T10:23:08Z</time>
      </trkpt>
      <trkpt lat="42.650238" lon="0.575348">
        <ele>1431.0</ele>
        <time>2010-07-02T10:23:08Z</time>
      </trkpt>
      <trkpt lat="42.650080" lon="0.575024">
        <ele>1425.7</ele>
        <time>2010-07-02T10:23:08Z</time>
      </trkpt>
      <trkpt lat="42.649922" lon="0.574709">
        <ele>1419.7</ele>
        <time>2010-07-02T10:23:08Z</time>
      </trkpt>
      <trkpt lat="42.649773" lon="0.574516">
        <ele>1417.5</ele>
        <time>2010-07-02T10:23:08Z</time>
      </trkpt>
      <trkpt lat="42.649635" lon="0.574464">
        <ele>1417.7</ele>
        <time>2010-07-02T10:23:08Z</time>
      </trkpt>
      <trkpt lat="42.649387" lon="0.574466">
        <ele>1416.3</ele>
        <time>2010-07-02T10:23:08Z</time>
      </trkpt>
      <trkpt lat="42.648967" lon="0.574519">
        <ele>1413.8</ele>
        <time>2010-07-02T10:23:08Z</time>
      </trkpt>
      <trkpt lat="42.648790" lon="0.574625">
        <ele>1414.4</ele>
        <time>2010-07-02T10:23:08Z</time>
      </trkpt>
      <trkpt lat="42.648670" lon="0.574694">
        <ele>1419.1</ele>
        <time>2010-07-02T10:23:08Z</time>
      </trkpt>
      <trkpt lat="42.648613" lon="0.574740">
        <ele>1422.5</ele>
        <time>2010-07-02T10:23:08Z</time>
      </trkpt>
      <trkpt lat="42.648476" lon="0.574738">
        <ele>1427.2</ele>
        <time>2010-07-02T10:23:08Z</time>
      </trkpt>
      <trkpt lat="42.648381" lon="0.574734">
        <ele>1430.5</ele>
        <time>2010-07-02T10:23:08Z</time>
      </trkpt>
      <trkpt lat="42.648284" lon="0.574645">
        <ele>1431.1</ele>
        <time>2010-07-02T10:23:08Z</time>
      </trkpt>
      <trkpt lat="42.648121" lon="0.574402">
        <ele>1429.5</ele>
        <time>2010-07-02T10:23:08Z</time>
      </trkpt>
      <trkpt lat="42.647752" lon="0.573909">
        <ele>1419.2</ele>
        <time>2010-07-02T10:23:08Z</time>
      </trkpt>
      <trkpt lat="42.647520" lon="0.573696">
        <ele>1415.5</ele>
        <time>2010-07-02T10:23:08Z</time>
      </trkpt>
      <trkpt lat="42.647173" lon="0.573451">
        <ele>1414.9</ele>
        <time>2010-07-02T10:23:08Z</time>
      </trkpt>
      <trkpt lat="42.646849" lon="0.573322">
        <ele>1416.8</ele>
        <time>2010-07-02T10:23:08Z</time>
      </trkpt>
      <trkpt lat="42.646678" lon="0.573266">
        <ele>1418.3</ele>
        <time>2010-07-02T10:23:08Z</time>
      </trkpt>
      <trkpt lat="42.646495" lon="0.573265">
        <ele>1421.4</ele>
        <time>2010-07-02T10:23:08Z</time>
      </trkpt>
      <trkpt lat="42.646402" lon="0.573215">
        <ele>1421.5</ele>
        <time>2010-07-02T10:23:08Z</time>
      </trkpt>
      <trkpt lat="42.646340" lon="0.573093">
        <ele>1418.9</ele>
        <time>2010-07-02T10:23:08Z</time>
      </trkpt>
      <trkpt lat="42.646103" lon="0.572694">
        <ele>1419.9</ele>
        <time>2010-07-02T10:23:08Z</time>
      </trkpt>
      <trkpt lat="42.645914" lon="0.572462">
        <ele>1425.1</ele>
        <time>2010-07-02T10:23:08Z</time>
      </trkpt>
      <trkpt lat="42.645700" lon="0.572249">
        <ele>1430.1</ele>
        <time>2010-07-02T10:23:08Z</time>
      </trkpt>
      <trkpt lat="42.645599" lon="0.572111">
        <ele>1431.0</ele>
        <time>2010-07-02T10:23:08Z</time>
      </trkpt>
      <trkpt lat="42.645522" lon="0.571847">
        <ele>1428.1</ele>
        <time>2010-07-02T10:23:08Z</time>
      </trkpt>
      <trkpt lat="42.645470" lon="0.571601">
        <ele>1424.1</ele>
        <time>2010-07-02T10:23:08Z</time>
      </trkpt>
      <trkpt lat="42.645421" lon="0.571435">
        <ele>1421.3</ele>
        <time>2010-07-02T10:23:08Z</time>
      </trkpt>
      <trkpt lat="42.645312" lon="0.571253">
        <ele>1420.3</ele>
        <time>2010-07-02T10:23:08Z</time>
      </trkpt>
      <trkpt lat="42.645205" lon="0.571124">
        <ele>1421.4</ele>
        <time>2010-07-02T10:23:08Z</time>
      </trkpt>
      <trkpt lat="42.644925" lon="0.570895">
        <ele>1424.5</ele>
        <time>2010-07-02T10:23:08Z</time>
      </trkpt>
      <trkpt lat="42.644769" lon="0.570653">
        <ele>1422.5</ele>
        <time>2010-07-02T10:23:08Z</time>
      </trkpt>
      <trkpt lat="42.644692" lon="0.570434">
        <ele>1418.5</ele>
        <time>2010-07-02T10:23:08Z</time>
      </trkpt>
      <trkpt lat="42.644587" lon="0.570074">
        <ele>1410.5</ele>
        <time>2010-07-02T10:23:08Z</time>
      </trkpt>
      <trkpt lat="42.644344" lon="0.569738">
        <ele>1404.3</ele>
        <time>2010-07-02T10:23:08Z</time>
      </trkpt>
      <trkpt lat="42.644145" lon="0.569604">
        <ele>1403.3</ele>
        <time>2010-07-02T10:23:08Z</time>
      </trkpt>
      <trkpt lat="42.644005" lon="0.569503">
        <ele>1403.0</ele>
        <time>2010-07-02T10:23:08Z</time>
      </trkpt>
      <trkpt lat="42.643747" lon="0.569380">
        <ele>1403.4</ele>
        <time>2010-07-02T10:23:08Z</time>
      </trkpt>
      <trkpt lat="42.643519" lon="0.569149">
        <ele>1399.9</ele>
        <time>2010-07-02T10:23:08Z</time>
      </trkpt>
      <trkpt lat="42.642685" lon="0.568436">
        <ele>1387.8</ele>
        <time>2010-07-02T10:23:08Z</time>
      </trkpt>
      <trkpt lat="42.642337" lon="0.568042">
        <ele>1382.6</ele>
        <time>2010-07-02T10:23:08Z</time>
      </trkpt>
      <trkpt lat="42.642066" lon="0.567618">
        <ele>1379.3</ele>
        <time>2010-07-02T10:23:08Z</time>
      </trkpt>
      <trkpt lat="42.641670" lon="0.567190">
        <ele>1375.8</ele>
        <time>2010-07-02T10:23:08Z</time>
      </trkpt>
      <trkpt lat="42.641181" lon="0.566685">
        <ele>1373.3</ele>
        <time>2010-07-02T10:23:08Z</time>
      </trkpt>
      <trkpt lat="42.640583" lon="0.566084">
        <ele>1375.9</ele>
        <time>2010-07-02T10:23:08Z</time>
      </trkpt>
      <trkpt lat="42.640308" lon="0.565697">
        <ele>1378.6</ele>
        <time>2010-07-02T10:23:08Z</time>
      </trkpt>
      <trkpt lat="42.639968" lon="0.565234">
        <ele>1386.7</ele>
        <time>2010-07-02T10:23:08Z</time>
      </trkpt>
      <trkpt lat="42.639818" lon="0.565098">
        <ele>1390.7</ele>
        <time>2010-07-02T10:23:08Z</time>
      </trkpt>
      <trkpt lat="42.639728" lon="0.565045">
        <ele>1393.1</ele>
        <time>2010-07-02T10:23:08Z</time>
      </trkpt>
      <trkpt lat="42.639684" lon="0.564926">
        <ele>1394.3</ele>
        <time>2010-07-02T10:23:08Z</time>
      </trkpt>
      <trkpt lat="42.639650" lon="0.564806">
        <ele>1395.2</ele>
        <time>2010-07-02T10:23:08Z</time>
      </trkpt>
      <trkpt lat="42.639606" lon="0.564510">
        <ele>1395.9</ele>
        <time>2010-07-02T10:23:08Z</time>
      </trkpt>
      <trkpt lat="42.639513" lon="0.564286">
        <ele>1394.9</ele>
        <time>2010-07-02T10:23:08Z</time>
      </trkpt>
      <trkpt lat="42.639310" lon="0.563882">
        <ele>1390.0</ele>
        <time>2010-07-02T10:23:08Z</time>
      </trkpt>
      <trkpt lat="42.639205" lon="0.563865">
        <ele>1388.8</ele>
        <time>2010-07-02T10:23:08Z</time>
      </trkpt>
      <trkpt lat="42.639132" lon="0.563890">
        <ele>1388.3</ele>
        <time>2010-07-02T10:23:08Z</time>
      </trkpt>
      <trkpt lat="42.639074" lon="0.563863">
        <ele>1387.4</ele>
        <time>2010-07-02T10:23:08Z</time>
      </trkpt>
      <trkpt lat="42.639063" lon="0.563828">
        <ele>1386.8</ele>
        <time>2010-07-02T10:23:08Z</time>
      </trkpt>
      <trkpt lat="42.639069" lon="0.563771">
        <ele>1386.1</ele>
        <time>2010-07-02T10:23:08Z</time>
      </trkpt>
      <trkpt lat="42.639093" lon="0.563656">
        <ele>1385.5</ele>
        <time>2010-07-02T10:23:08Z</time>
      </trkpt>
      <trkpt lat="42.639120" lon="0.563559">
        <ele>1385.1</ele>
        <time>2010-07-02T10:23:08Z</time>
      </trkpt>
      <trkpt lat="42.639139" lon="0.563497">
        <ele>1385.0</ele>
        <time>2010-07-02T10:23:08Z</time>
      </trkpt>
      <trkpt lat="42.639148" lon="0.563458">
        <ele>1384.8</ele>
        <time>2010-07-02T10:23:08Z</time>
      </trkpt>
      <trkpt lat="42.639149" lon="0.563398">
        <ele>1384.4</ele>
        <time>2010-07-02T10:23:08Z</time>
      </trkpt>
      <trkpt lat="42.639133" lon="0.563346">
        <ele>1383.9</ele>
        <time>2010-07-02T10:23:08Z</time>
      </trkpt>
      <trkpt lat="42.639083" lon="0.563249">
        <ele>1382.5</ele>
        <time>2010-07-02T10:23:08Z</time>
      </trkpt>
      <trkpt lat="42.638981" lon="0.563055">
        <ele>1379.6</ele>
        <time>2010-07-02T10:23:08Z</time>
      </trkpt>
      <trkpt lat="42.638882" lon="0.562884">
        <ele>1376.7</ele>
        <time>2010-07-02T10:23:08Z</time>
      </trkpt>
      <trkpt lat="42.638778" lon="0.562683">
        <ele>1372.9</ele>
        <time>2010-07-02T10:23:08Z</time>
      </trkpt>
      <trkpt lat="42.638754" lon="0.562659">
        <ele>1372.3</ele>
        <time>2010-07-02T10:23:08Z</time>
      </trkpt>
      <trkpt lat="42.638638" lon="0.562596">
        <ele>1373.7</ele>
        <time>2010-07-02T10:23:08Z</time>
      </trkpt>
      <trkpt lat="42.638583" lon="0.562582">
        <ele>1374.5</ele>
        <time>2010-07-02T10:23:08Z</time>
      </trkpt>
      <trkpt lat="42.638486" lon="0.562612">
        <ele>1376.8</ele>
        <time>2010-07-02T10:23:08Z</time>
      </trkpt>
      <trkpt lat="42.638376" lon="0.562697">
        <ele>1380.6</ele>
        <time>2010-07-02T10:23:08Z</time>
      </trkpt>
      <trkpt lat="42.638237" lon="0.562816">
        <ele>1386.3</ele>
        <time>2010-07-02T10:23:08Z</time>
      </trkpt>
      <trkpt lat="42.638202" lon="0.562830">
        <ele>1387.4</ele>
        <time>2010-07-02T10:23:08Z</time>
      </trkpt>
      <trkpt lat="42.638174" lon="0.562834">
        <ele>1388.2</ele>
        <time>2010-07-02T10:23:08Z</time>
      </trkpt>
      <trkpt lat="42.638043" lon="0.562825">
        <ele>1391.2</ele>
        <time>2010-07-02T10:23:08Z</time>
      </trkpt>
      <trkpt lat="42.638005" lon="0.562809">
        <ele>1391.7</ele>
        <time>2010-07-02T10:23:08Z</time>
      </trkpt>
      <trkpt lat="42.637974" lon="0.562768">
        <ele>1391.2</ele>
        <time>2010-07-02T10:23:08Z</time>
      </trkpt>
      <trkpt lat="42.637933" lon="0.562720">
        <ele>1390.8</ele>
        <time>2010-07-02T10:23:08Z</time>
      </trkpt>
      <trkpt lat="42.637896" lon="0.562630">
        <ele>1389.5</ele>
        <time>2010-07-02T10:23:08Z</time>
      </trkpt>
      <trkpt lat="42.637885" lon="0.562555">
        <ele>1387.7</ele>
        <time>2010-07-02T10:23:08Z</time>
      </trkpt>
      <trkpt lat="42.637874" lon="0.562401">
        <ele>1383.3</ele>
        <time>2010-07-02T10:23:08Z</time>
      </trkpt>
      <trkpt lat="42.637863" lon="0.562244">
        <ele>1378.7</ele>
        <time>2010-07-02T10:23:08Z</time>
      </trkpt>
      <trkpt lat="42.637858" lon="0.562124">
        <ele>1374.8</ele>
        <time>2010-07-02T10:23:08Z</time>
      </trkpt>
      <trkpt lat="42.637847" lon="0.562033">
        <ele>1373.1</ele>
        <time>2010-07-02T10:23:08Z</time>
      </trkpt>
      <trkpt lat="42.637834" lon="0.561988">
        <ele>1372.9</ele>
        <time>2010-07-02T10:23:08Z</time>
      </trkpt>
      <trkpt lat="42.637824" lon="0.561951">
        <ele>1372.6</ele>
        <time>2010-07-02T10:23:08Z</time>
      </trkpt>
      <trkpt lat="42.637801" lon="0.561914">
        <ele>1372.6</ele>
        <time>2010-07-02T10:23:08Z</time>
      </trkpt>
      <trkpt lat="42.637768" lon="0.561881">
        <ele>1372.8</ele>
        <time>2010-07-02T10:23:08Z</time>
      </trkpt>
      <trkpt lat="42.637732" lon="0.561852">
        <ele>1373.1</ele>
        <time>2010-07-02T10:23:08Z</time>
      </trkpt>
      <trkpt lat="42.637695" lon="0.561833">
        <ele>1373.5</ele>
        <time>2010-07-02T10:23:08Z</time>
      </trkpt>
      <trkpt lat="42.637627" lon="0.561805">
        <ele>1374.3</ele>
        <time>2010-07-02T10:23:08Z</time>
      </trkpt>
      <trkpt lat="42.637545" lon="0.561824">
        <ele>1376.2</ele>
        <time>2010-07-02T10:23:08Z</time>
      </trkpt>
      <trkpt lat="42.637443" lon="0.561871">
        <ele>1379.2</ele>
        <time>2010-07-02T10:23:08Z</time>
      </trkpt>
      <trkpt lat="42.637374" lon="0.561921">
        <ele>1381.8</ele>
        <time>2010-07-02T10:23:08Z</time>
      </trkpt>
      <trkpt lat="42.637333" lon="0.561928">
        <ele>1382.8</ele>
        <time>2010-07-02T10:23:08Z</time>
      </trkpt>
      <trkpt lat="42.637292" lon="0.561931">
        <ele>1383.8</ele>
        <time>2010-07-02T10:23:08Z</time>
      </trkpt>
      <trkpt lat="42.637248" lon="0.561923">
        <ele>1384.5</ele>
        <time>2010-07-02T10:23:08Z</time>
      </trkpt>
      <trkpt lat="42.637184" lon="0.561895">
        <ele>1385.0</ele>
        <time>2010-07-02T10:23:08Z</time>
      </trkpt>
      <trkpt lat="42.637137" lon="0.561869">
        <ele>1385.2</ele>
        <time>2010-07-02T10:23:08Z</time>
      </trkpt>
      <trkpt lat="42.637060" lon="0.561816">
        <ele>1385.4</ele>
        <time>2010-07-02T10:23:08Z</time>
      </trkpt>
      <trkpt lat="42.636966" lon="0.561763">
        <ele>1386.7</ele>
        <time>2010-07-02T10:23:08Z</time>
      </trkpt>
      <trkpt lat="42.636903" lon="0.561682">
        <ele>1385.7</ele>
        <time>2010-07-02T10:23:08Z</time>
      </trkpt>
      <trkpt lat="42.636804" lon="0.561572">
        <ele>1383.9</ele>
        <time>2010-07-02T10:23:08Z</time>
      </trkpt>
      <trkpt lat="42.636745" lon="0.561508">
        <ele>1382.7</ele>
        <time>2010-07-02T10:23:08Z</time>
      </trkpt>
      <trkpt lat="42.636615" lon="0.561370">
        <ele>1379.0</ele>
        <time>2010-07-02T10:23:08Z</time>
      </trkpt>
      <trkpt lat="42.636392" lon="0.561199">
        <ele>1375.0</ele>
        <time>2010-07-02T10:23:08Z</time>
      </trkpt>
      <trkpt lat="42.636236" lon="0.561096">
        <ele>1374.1</ele>
        <time>2010-07-02T10:23:08Z</time>
      </trkpt>
      <trkpt lat="42.636136" lon="0.561028">
        <ele>1372.2</ele>
        <time>2010-07-02T10:23:08Z</time>
      </trkpt>
      <trkpt lat="42.635941" lon="0.560933">
        <ele>1369.7</ele>
        <time>2010-07-02T10:23:08Z</time>
      </trkpt>
      <trkpt lat="42.635733" lon="0.560867">
        <ele>1368.0</ele>
        <time>2010-07-02T10:23:08Z</time>
      </trkpt>
      <trkpt lat="42.635590" lon="0.560825">
        <ele>1366.9</ele>
        <time>2010-07-02T10:23:08Z</time>
      </trkpt>
      <trkpt lat="42.635327" lon="0.560748">
        <ele>1366.4</ele>
        <time>2010-07-02T10:23:08Z</time>
      </trkpt>
      <trkpt lat="42.635196" lon="0.560729">
        <ele>1368.0</ele>
        <time>2010-07-02T10:23:08Z</time>
      </trkpt>
      <trkpt lat="42.635049" lon="0.560726">
        <ele>1370.0</ele>
        <time>2010-07-02T10:23:08Z</time>
      </trkpt>
      <trkpt lat="42.634779" lon="0.560718">
        <ele>1373.8</ele>
        <time>2010-07-02T10:23:08Z</time>
      </trkpt>
      <trkpt lat="42.634506" lon="0.560725">
        <ele>1378.7</ele>
        <time>2010-07-02T10:23:08Z</time>
      </trkpt>
      <trkpt lat="42.634436" lon="0.560723">
        <ele>1380.3</ele>
        <time>2010-07-02T10:23:08Z</time>
      </trkpt>
      <trkpt lat="42.634312" lon="0.560660">
        <ele>1382.5</ele>
        <time>2010-07-02T10:23:08Z</time>
      </trkpt>
      <trkpt lat="42.634163" lon="0.560551">
        <ele>1385.0</ele>
        <time>2010-07-02T10:23:08Z</time>
      </trkpt>
      <trkpt lat="42.634000" lon="0.560428">
        <ele>1388.2</ele>
        <time>2010-07-02T10:23:08Z</time>
      </trkpt>
      <trkpt lat="42.633956" lon="0.560383">
        <ele>1389.0</ele>
        <time>2010-07-02T10:23:08Z</time>
      </trkpt>
      <trkpt lat="42.633692" lon="0.559985">
        <ele>1390.4</ele>
        <time>2010-07-02T10:23:08Z</time>
      </trkpt>
      <trkpt lat="42.633647" lon="0.559959">
        <ele>1390.1</ele>
        <time>2010-07-02T10:23:08Z</time>
      </trkpt>
      <trkpt lat="42.633612" lon="0.559952">
        <ele>1390.0</ele>
        <time>2010-07-02T10:23:08Z</time>
      </trkpt>
      <trkpt lat="42.633563" lon="0.559938">
        <ele>1389.8</ele>
        <time>2010-07-02T10:23:08Z</time>
      </trkpt>
      <trkpt lat="42.633480" lon="0.559935">
        <ele>1389.8</ele>
        <time>2010-07-02T10:23:08Z</time>
      </trkpt>
      <trkpt lat="42.633369" lon="0.559959">
        <ele>1390.1</ele>
        <time>2010-07-02T10:23:08Z</time>
      </trkpt>
      <trkpt lat="42.633257" lon="0.560048">
        <ele>1391.6</ele>
        <time>2010-07-02T10:23:08Z</time>
      </trkpt>
      <trkpt lat="42.633090" lon="0.560210">
        <ele>1394.6</ele>
        <time>2010-07-02T10:23:08Z</time>
      </trkpt>
      <trkpt lat="42.632985" lon="0.560293">
        <ele>1396.4</ele>
        <time>2010-07-02T10:23:08Z</time>
      </trkpt>
      <trkpt lat="42.632900" lon="0.560354">
        <ele>1397.5</ele>
        <time>2010-07-02T10:23:08Z</time>
      </trkpt>
      <trkpt lat="42.632628" lon="0.560541">
        <ele>1395.4</ele>
        <time>2010-07-02T10:23:08Z</time>
      </trkpt>
      <trkpt lat="42.632442" lon="0.560687">
        <ele>1394.4</ele>
        <time>2010-07-02T10:23:08Z</time>
      </trkpt>
      <trkpt lat="42.632357" lon="0.560754">
        <ele>1394.1</ele>
        <time>2010-07-02T10:23:08Z</time>
      </trkpt>
      <trkpt lat="42.632270" lon="0.560795">
        <ele>1393.5</ele>
        <time>2010-07-02T10:23:08Z</time>
      </trkpt>
      <trkpt lat="42.632226" lon="0.560801">
        <ele>1392.9</ele>
        <time>2010-07-02T10:23:08Z</time>
      </trkpt>
      <trkpt lat="42.632170" lon="0.560799">
        <ele>1392.1</ele>
        <time>2010-07-02T10:23:08Z</time>
      </trkpt>
      <trkpt lat="42.632106" lon="0.560789">
        <ele>1391.0</ele>
        <time>2010-07-02T10:23:08Z</time>
      </trkpt>
      <trkpt lat="42.632018" lon="0.560737">
        <ele>1391.1</ele>
        <time>2010-07-02T10:23:08Z</time>
      </trkpt>
      <trkpt lat="42.631866" lon="0.560674">
        <ele>1393.3</ele>
        <time>2010-07-02T10:23:08Z</time>
      </trkpt>
      <trkpt lat="42.631747" lon="0.560627">
        <ele>1395.0</ele>
        <time>2010-07-02T10:23:08Z</time>
      </trkpt>
      <trkpt lat="42.631611" lon="0.560574">
        <ele>1397.2</ele>
        <time>2010-07-02T10:23:08Z</time>
      </trkpt>
      <trkpt lat="42.631518" lon="0.560520">
        <ele>1398.4</ele>
        <time>2010-07-02T10:23:08Z</time>
      </trkpt>
      <trkpt lat="42.631484" lon="0.560484">
        <ele>1398.6</ele>
        <time>2010-07-02T10:23:08Z</time>
      </trkpt>
      <trkpt lat="42.631471" lon="0.560458">
        <ele>1398.5</ele>
        <time>2010-07-02T10:23:08Z</time>
      </trkpt>
      <trkpt lat="42.631471" lon="0.560392">
        <ele>1397.9</ele>
        <time>2010-07-02T10:23:08Z</time>
      </trkpt>
      <trkpt lat="42.631458" lon="0.560285">
        <ele>1397.9</ele>
        <time>2010-07-02T10:23:08Z</time>
      </trkpt>
      <trkpt lat="42.631435" lon="0.560206">
        <ele>1398.2</ele>
        <time>2010-07-02T10:23:08Z</time>
      </trkpt>
      <trkpt lat="42.631397" lon="0.560050">
        <ele>1398.9</ele>
        <time>2010-07-02T10:23:08Z</time>
      </trkpt>
      <trkpt lat="42.631378" lon="0.559888">
        <ele>1399.1</ele>
        <time>2010-07-02T10:23:08Z</time>
      </trkpt>
      <trkpt lat="42.631371" lon="0.559735">
        <ele>1399.0</ele>
        <time>2010-07-02T10:23:08Z</time>
      </trkpt>
      <trkpt lat="42.631383" lon="0.559618">
        <ele>1398.4</ele>
        <time>2010-07-02T10:23:08Z</time>
      </trkpt>
      <trkpt lat="42.631421" lon="0.559509">
        <ele>1396.6</ele>
        <time>2010-07-02T10:23:08Z</time>
      </trkpt>
      <trkpt lat="42.631492" lon="0.559272">
        <ele>1392.8</ele>
        <time>2010-07-02T10:23:08Z</time>
      </trkpt>
      <trkpt lat="42.631550" lon="0.559002">
        <ele>1389.4</ele>
        <time>2010-07-02T10:23:08Z</time>
      </trkpt>
      <trkpt lat="42.631583" lon="0.558885">
        <ele>1387.7</ele>
        <time>2010-07-02T10:23:08Z</time>
      </trkpt>
      <trkpt lat="42.631695" lon="0.558440">
        <ele>1380.5</ele>
        <time>2010-07-02T10:23:08Z</time>
      </trkpt>
      <trkpt lat="42.631743" lon="0.558170">
        <ele>1376.5</ele>
        <time>2010-07-02T10:23:08Z</time>
      </trkpt>
      <trkpt lat="42.631769" lon="0.557993">
        <ele>1374.1</ele>
        <time>2010-07-02T10:23:08Z</time>
      </trkpt>
      <trkpt lat="42.631768" lon="0.557878">
        <ele>1372.7</ele>
        <time>2010-07-02T10:23:08Z</time>
      </trkpt>
      <trkpt lat="42.631751" lon="0.557763">
        <ele>1371.2</ele>
        <time>2010-07-02T10:23:08Z</time>
      </trkpt>
      <trkpt lat="42.631710" lon="0.557623">
        <ele>1370.1</ele>
        <time>2010-07-02T10:23:08Z</time>
      </trkpt>
      <trkpt lat="42.631680" lon="0.557513">
        <ele>1369.3</ele>
        <time>2010-07-02T10:23:08Z</time>
      </trkpt>
      <trkpt lat="42.631670" lon="0.557363">
        <ele>1367.2</ele>
        <time>2010-07-02T10:23:08Z</time>
      </trkpt>
      <trkpt lat="42.631656" lon="0.557183">
        <ele>1364.9</ele>
        <time>2010-07-02T10:23:08Z</time>
      </trkpt>
      <trkpt lat="42.631637" lon="0.557103">
        <ele>1364.3</ele>
        <time>2010-07-02T10:23:08Z</time>
      </trkpt>
      <trkpt lat="42.631605" lon="0.557017">
        <ele>1363.7</ele>
        <time>2010-07-02T10:23:08Z</time>
      </trkpt>
      <trkpt lat="42.631564" lon="0.556930">
        <ele>1363.3</ele>
        <time>2010-07-02T10:23:08Z</time>
      </trkpt>
      <trkpt lat="42.631497" lon="0.556817">
        <ele>1363.3</ele>
        <time>2010-07-02T10:23:08Z</time>
      </trkpt>
      <trkpt lat="42.631427" lon="0.556720">
        <ele>1363.8</ele>
        <time>2010-07-02T10:23:08Z</time>
      </trkpt>
      <trkpt lat="42.631363" lon="0.556621">
        <ele>1364.2</ele>
        <time>2010-07-02T10:23:08Z</time>
      </trkpt>
      <trkpt lat="42.631245" lon="0.556439">
        <ele>1365.0</ele>
        <time>2010-07-02T10:23:08Z</time>
      </trkpt>
      <trkpt lat="42.631233" lon="0.556397">
        <ele>1364.4</ele>
        <time>2010-07-02T10:23:08Z</time>
      </trkpt>
      <trkpt lat="42.631233" lon="0.556326">
        <ele>1362.9</ele>
        <time>2010-07-02T10:23:08Z</time>
      </trkpt>
      <trkpt lat="42.631247" lon="0.556283">
        <ele>1361.7</ele>
        <time>2010-07-02T10:23:08Z</time>
      </trkpt>
      <trkpt lat="42.631273" lon="0.556261">
        <ele>1360.3</ele>
        <time>2010-07-02T10:23:08Z</time>
      </trkpt>
      <trkpt lat="42.631299" lon="0.556255">
        <ele>1359.1</ele>
        <time>2010-07-02T10:23:08Z</time>
      </trkpt>
      <trkpt lat="42.631327" lon="0.556266">
        <ele>1358.2</ele>
        <time>2010-07-02T10:23:08Z</time>
      </trkpt>
      <trkpt lat="42.631355" lon="0.556290">
        <ele>1357.5</ele>
        <time>2010-07-02T10:23:08Z</time>
      </trkpt>
      <trkpt lat="42.631389" lon="0.556339">
        <ele>1357.2</ele>
        <time>2010-07-02T10:23:08Z</time>
      </trkpt>
      <trkpt lat="42.631433" lon="0.556405">
        <ele>1356.9</ele>
        <time>2010-07-02T10:23:08Z</time>
      </trkpt>
      <trkpt lat="42.631482" lon="0.556470">
        <ele>1356.3</ele>
        <time>2010-07-02T10:23:08Z</time>
      </trkpt>
      <trkpt lat="42.631522" lon="0.556511">
        <ele>1355.6</ele>
        <time>2010-07-02T10:23:08Z</time>
      </trkpt>
      <trkpt lat="42.631577" lon="0.556555">
        <ele>1354.4</ele>
        <time>2010-07-02T10:23:08Z</time>
      </trkpt>
      <trkpt lat="42.631697" lon="0.556601">
        <ele>1350.8</ele>
        <time>2010-07-02T10:23:08Z</time>
      </trkpt>
      <trkpt lat="42.631794" lon="0.556634">
        <ele>1347.8</ele>
        <time>2010-07-02T10:23:08Z</time>
      </trkpt>
      <trkpt lat="42.631879" lon="0.556654">
        <ele>1345.0</ele>
        <time>2010-07-02T10:23:08Z</time>
      </trkpt>
      <trkpt lat="42.632001" lon="0.556723">
        <ele>1342.0</ele>
        <time>2010-07-02T10:23:08Z</time>
      </trkpt>
      <trkpt lat="42.632100" lon="0.556856">
        <ele>1341.8</ele>
        <time>2010-07-02T10:23:08Z</time>
      </trkpt>
      <trkpt lat="42.632237" lon="0.557071">
        <ele>1343.3</ele>
        <time>2010-07-02T10:23:08Z</time>
      </trkpt>
      <trkpt lat="42.632269" lon="0.557126">
        <ele>1343.7</ele>
        <time>2010-07-02T10:23:08Z</time>
      </trkpt>
      <trkpt lat="42.632326" lon="0.557170">
        <ele>1343.3</ele>
        <time>2010-07-02T10:23:08Z</time>
      </trkpt>
      <trkpt lat="42.632430" lon="0.557185">
        <ele>1340.9</ele>
        <time>2010-07-02T10:23:08Z</time>
      </trkpt>
      <trkpt lat="42.632514" lon="0.557151">
        <ele>1337.7</ele>
        <time>2010-07-02T10:23:08Z</time>
      </trkpt>
      <trkpt lat="42.632548" lon="0.557090">
        <ele>1334.8</ele>
        <time>2010-07-02T10:23:08Z</time>
      </trkpt>
      <trkpt lat="42.632555" lon="0.557032">
        <ele>1333.3</ele>
        <time>2010-07-02T10:23:08Z</time>
      </trkpt>
      <trkpt lat="42.632529" lon="0.556947">
        <ele>1332.2</ele>
        <time>2010-07-02T10:23:08Z</time>
      </trkpt>
      <trkpt lat="42.632464" lon="0.556866">
        <ele>1332.1</ele>
        <time>2010-07-02T10:23:08Z</time>
      </trkpt>
      <trkpt lat="42.632171" lon="0.556506">
        <ele>1331.3</ele>
        <time>2010-07-02T10:23:08Z</time>
      </trkpt>
      <trkpt lat="42.632031" lon="0.556318">
        <ele>1330.8</ele>
        <time>2010-07-02T10:23:08Z</time>
      </trkpt>
      <trkpt lat="42.631825" lon="0.556018">
        <ele>1333.9</ele>
        <time>2010-07-02T10:23:08Z</time>
      </trkpt>
      <trkpt lat="42.631725" lon="0.555789">
        <ele>1334.0</ele>
        <time>2010-07-02T10:23:08Z</time>
      </trkpt>
      <trkpt lat="42.631597" lon="0.555466">
        <ele>1333.4</ele>
        <time>2010-07-02T10:23:08Z</time>
      </trkpt>
      <trkpt lat="42.631521" lon="0.555263">
        <ele>1330.4</ele>
        <time>2010-07-02T10:23:08Z</time>
      </trkpt>
      <trkpt lat="42.631493" lon="0.555112">
        <ele>1326.6</ele>
        <time>2010-07-02T10:23:08Z</time>
      </trkpt>
      <trkpt lat="42.631488" lon="0.555044">
        <ele>1324.6</ele>
        <time>2010-07-02T10:23:08Z</time>
      </trkpt>
      <trkpt lat="42.631470" lon="0.554628">
        <ele>1311.7</ele>
        <time>2010-07-02T10:23:08Z</time>
      </trkpt>
      <trkpt lat="42.631474" lon="0.554458">
        <ele>1307.6</ele>
        <time>2010-07-02T10:23:08Z</time>
      </trkpt>
      <trkpt lat="42.631494" lon="0.554323">
        <ele>1304.5</ele>
        <time>2010-07-02T10:23:08Z</time>
      </trkpt>
      <trkpt lat="42.631511" lon="0.554216">
        <ele>1302.1</ele>
        <time>2010-07-02T10:23:08Z</time>
      </trkpt>
      <trkpt lat="42.631519" lon="0.554158">
        <ele>1300.8</ele>
        <time>2010-07-02T10:23:08Z</time>
      </trkpt>
      <trkpt lat="42.631524" lon="0.554058">
        <ele>1298.8</ele>
        <time>2010-07-02T10:23:08Z</time>
      </trkpt>
      <trkpt lat="42.631513" lon="0.553972">
        <ele>1297.2</ele>
        <time>2010-07-02T10:23:08Z</time>
      </trkpt>
      <trkpt lat="42.631490" lon="0.553921">
        <ele>1296.5</ele>
        <time>2010-07-02T10:23:08Z</time>
      </trkpt>
      <trkpt lat="42.631460" lon="0.553887">
        <ele>1296.3</ele>
        <time>2010-07-02T10:23:08Z</time>
      </trkpt>
      <trkpt lat="42.631422" lon="0.553863">
        <ele>1296.3</ele>
        <time>2010-07-02T10:23:08Z</time>
      </trkpt>
      <trkpt lat="42.631364" lon="0.553846">
        <ele>1296.7</ele>
        <time>2010-07-02T10:23:08Z</time>
      </trkpt>
      <trkpt lat="42.631283" lon="0.553846">
        <ele>1297.8</ele>
        <time>2010-07-02T10:23:08Z</time>
      </trkpt>
      <trkpt lat="42.631225" lon="0.553839">
        <ele>1299.4</ele>
        <time>2010-07-02T10:23:08Z</time>
      </trkpt>
      <trkpt lat="42.631147" lon="0.553789">
        <ele>1302.7</ele>
        <time>2010-07-02T10:23:08Z</time>
      </trkpt>
      <trkpt lat="42.631073" lon="0.553705">
        <ele>1306.1</ele>
        <time>2010-07-02T10:23:08Z</time>
      </trkpt>
      <trkpt lat="42.630988" lon="0.553586">
        <ele>1311.1</ele>
        <time>2010-07-02T10:23:08Z</time>
      </trkpt>
      <trkpt lat="42.630917" lon="0.553415">
        <ele>1315.7</ele>
        <time>2010-07-02T10:23:08Z</time>
      </trkpt>
      <trkpt lat="42.630871" lon="0.553286">
        <ele>1319.1</ele>
        <time>2010-07-02T10:23:08Z</time>
      </trkpt>
      <trkpt lat="42.630849" lon="0.553192">
        <ele>1320.9</ele>
        <time>2010-07-02T10:23:08Z</time>
      </trkpt>
      <trkpt lat="42.630814" lon="0.553045">
        <ele>1323.9</ele>
        <time>2010-07-02T10:23:08Z</time>
      </trkpt>
      <trkpt lat="42.630792" lon="0.552843">
        <ele>1325.7</ele>
        <time>2010-07-02T10:23:08Z</time>
      </trkpt>
      <trkpt lat="42.630788" lon="0.552657">
        <ele>1324.7</ele>
        <time>2010-07-02T10:23:08Z</time>
      </trkpt>
      <trkpt lat="42.630797" lon="0.552573">
        <ele>1323.5</ele>
        <time>2010-07-02T10:23:08Z</time>
      </trkpt>
      <trkpt lat="42.630815" lon="0.552435">
        <ele>1321.2</ele>
        <time>2010-07-02T10:23:08Z</time>
      </trkpt>
      <trkpt lat="42.630818" lon="0.552386">
        <ele>1320.6</ele>
        <time>2010-07-02T10:23:08Z</time>
      </trkpt>
      <trkpt lat="42.630822" lon="0.552337">
        <ele>1320.0</ele>
        <time>2010-07-02T10:23:08Z</time>
      </trkpt>
      <trkpt lat="42.630822" lon="0.552046">
        <ele>1317.4</ele>
        <time>2010-07-02T10:23:08Z</time>
      </trkpt>
      <trkpt lat="42.630813" lon="0.551898">
        <ele>1314.3</ele>
        <time>2010-07-02T10:23:08Z</time>
      </trkpt>
      <trkpt lat="42.630792" lon="0.551768">
        <ele>1312.2</ele>
        <time>2010-07-02T10:23:08Z</time>
      </trkpt>
      <trkpt lat="42.630745" lon="0.551668">
        <ele>1311.6</ele>
        <time>2010-07-02T10:23:08Z</time>
      </trkpt>
      <trkpt lat="42.630693" lon="0.551582">
        <ele>1311.3</ele>
        <time>2010-07-02T10:23:08Z</time>
      </trkpt>
      <trkpt lat="42.630531" lon="0.551330">
        <ele>1307.1</ele>
        <time>2010-07-02T10:23:08Z</time>
      </trkpt>
      <trkpt lat="42.630479" lon="0.551202">
        <ele>1303.8</ele>
        <time>2010-07-02T10:23:08Z</time>
      </trkpt>
      <trkpt lat="42.630399" lon="0.550982">
        <ele>1301.0</ele>
        <time>2010-07-02T10:23:08Z</time>
      </trkpt>
      <trkpt lat="42.630335" lon="0.550780">
        <ele>1299.2</ele>
        <time>2010-07-02T10:23:08Z</time>
      </trkpt>
      <trkpt lat="42.630285" lon="0.550602">
        <ele>1296.7</ele>
        <time>2010-07-02T10:23:08Z</time>
      </trkpt>
      <trkpt lat="42.630255" lon="0.550498">
        <ele>1295.1</ele>
        <time>2010-07-02T10:23:08Z</time>
      </trkpt>
      <trkpt lat="42.630230" lon="0.550235">
        <ele>1291.2</ele>
        <time>2010-07-02T10:23:08Z</time>
      </trkpt>
      <trkpt lat="42.630229" lon="0.550104">
        <ele>1289.3</ele>
        <time>2010-07-02T10:23:08Z</time>
      </trkpt>
      <trkpt lat="42.630207" lon="0.549683">
        <ele>1283.3</ele>
        <time>2010-07-02T10:23:08Z</time>
      </trkpt>
      <trkpt lat="42.630204" lon="0.549470">
        <ele>1282.5</ele>
        <time>2010-07-02T10:23:08Z</time>
      </trkpt>
      <trkpt lat="42.630197" lon="0.549079">
        <ele>1284.9</ele>
        <time>2010-07-02T10:23:08Z</time>
      </trkpt>
      <trkpt lat="42.630172" lon="0.548970">
        <ele>1285.2</ele>
        <time>2010-07-02T10:23:08Z</time>
      </trkpt>
      <trkpt lat="42.630135" lon="0.548890">
        <ele>1284.9</ele>
        <time>2010-07-02T10:23:08Z</time>
      </trkpt>
      <trkpt lat="42.630097" lon="0.548817">
        <ele>1284.5</ele>
        <time>2010-07-02T10:23:08Z</time>
      </trkpt>
      <trkpt lat="42.630048" lon="0.548758">
        <ele>1283.6</ele>
        <time>2010-07-02T10:23:08Z</time>
      </trkpt>
      <trkpt lat="42.630014" lon="0.548729">
        <ele>1283.5</ele>
        <time>2010-07-02T10:23:08Z</time>
      </trkpt>
      <trkpt lat="42.629976" lon="0.548719">
        <ele>1282.9</ele>
        <time>2010-07-02T10:23:08Z</time>
      </trkpt>
      <trkpt lat="42.629812" lon="0.548685">
        <ele>1280.2</ele>
        <time>2010-07-02T10:23:08Z</time>
      </trkpt>
      <trkpt lat="42.629715" lon="0.548671">
        <ele>1278.4</ele>
        <time>2010-07-02T10:23:08Z</time>
      </trkpt>
      <trkpt lat="42.629607" lon="0.548661">
        <ele>1276.2</ele>
        <time>2010-07-02T10:23:08Z</time>
      </trkpt>
      <trkpt lat="42.629500" lon="0.548668">
        <ele>1274.2</ele>
        <time>2010-07-02T10:23:08Z</time>
      </trkpt>
      <trkpt lat="42.629422" lon="0.548682">
        <ele>1272.6</ele>
        <time>2010-07-02T10:23:08Z</time>
      </trkpt>
      <trkpt lat="42.629340" lon="0.548700">
        <ele>1270.9</ele>
        <time>2010-07-02T10:23:08Z</time>
      </trkpt>
      <trkpt lat="42.629199" lon="0.548767">
        <ele>1268.1</ele>
        <time>2010-07-02T10:23:08Z</time>
      </trkpt>
      <trkpt lat="42.629085" lon="0.548842">
        <ele>1267.7</ele>
        <time>2010-07-02T10:23:08Z</time>
      </trkpt>
      <trkpt lat="42.628961" lon="0.548936">
        <ele>1267.6</ele>
        <time>2010-07-02T10:23:08Z</time>
      </trkpt>
      <trkpt lat="42.628896" lon="0.548964">
        <ele>1267.2</ele>
        <time>2010-07-02T10:23:08Z</time>
      </trkpt>
      <trkpt lat="42.628820" lon="0.548969">
        <ele>1266.5</ele>
        <time>2010-07-02T10:23:08Z</time>
      </trkpt>
      <trkpt lat="42.628734" lon="0.548960">
        <ele>1265.6</ele>
        <time>2010-07-02T10:23:08Z</time>
      </trkpt>
      <trkpt lat="42.628659" lon="0.548926">
        <ele>1265.3</ele>
        <time>2010-07-02T10:23:08Z</time>
      </trkpt>
      <trkpt lat="42.628621" lon="0.548894">
        <ele>1265.0</ele>
        <time>2010-07-02T10:23:08Z</time>
      </trkpt>
      <trkpt lat="42.628532" lon="0.548787">
        <ele>1263.6</ele>
        <time>2010-07-02T10:23:08Z</time>
      </trkpt>
      <trkpt lat="42.628457" lon="0.548741">
        <ele>1263.4</ele>
        <time>2010-07-02T10:23:08Z</time>
      </trkpt>
      <trkpt lat="42.628410" lon="0.548699">
        <ele>1263.6</ele>
        <time>2010-07-02T10:23:08Z</time>
      </trkpt>
      <trkpt lat="42.628341" lon="0.548670">
        <ele>1263.9</ele>
        <time>2010-07-02T10:23:08Z</time>
      </trkpt>
      <trkpt lat="42.628294" lon="0.548654">
        <ele>1264.0</ele>
        <time>2010-07-02T10:23:08Z</time>
      </trkpt>
      <trkpt lat="42.628262" lon="0.548648">
        <ele>1264.1</ele>
        <time>2010-07-02T10:23:08Z</time>
      </trkpt>
      <trkpt lat="42.628228" lon="0.548635">
        <ele>1264.2</ele>
        <time>2010-07-02T10:23:08Z</time>
      </trkpt>
      <trkpt lat="42.628194" lon="0.548621">
        <ele>1264.2</ele>
        <time>2010-07-02T10:23:08Z</time>
      </trkpt>
      <trkpt lat="42.628099" lon="0.548597">
        <ele>1264.3</ele>
        <time>2010-07-02T10:23:08Z</time>
      </trkpt>
      <trkpt lat="42.627999" lon="0.548565">
        <ele>1264.3</ele>
        <time>2010-07-02T10:23:08Z</time>
      </trkpt>
      <trkpt lat="42.627923" lon="0.548553">
        <ele>1264.3</ele>
        <time>2010-07-02T10:23:08Z</time>
      </trkpt>
      <trkpt lat="42.627860" lon="0.548522">
        <ele>1264.7</ele>
        <time>2010-07-02T10:23:08Z</time>
      </trkpt>
      <trkpt lat="42.627798" lon="0.548483">
        <ele>1265.0</ele>
        <time>2010-07-02T10:23:08Z</time>
      </trkpt>
      <trkpt lat="42.627764" lon="0.548439">
        <ele>1265.0</ele>
        <time>2010-07-02T10:23:08Z</time>
      </trkpt>
      <trkpt lat="42.627669" lon="0.548346">
        <ele>1265.1</ele>
        <time>2010-07-02T10:23:08Z</time>
      </trkpt>
      <trkpt lat="42.627606" lon="0.548289">
        <ele>1265.2</ele>
        <time>2010-07-02T10:23:08Z</time>
      </trkpt>
      <trkpt lat="42.627553" lon="0.548236">
        <ele>1265.2</ele>
        <time>2010-07-02T10:23:08Z</time>
      </trkpt>
      <trkpt lat="42.627498" lon="0.548208">
        <ele>1265.5</ele>
        <time>2010-07-02T10:23:08Z</time>
      </trkpt>
      <trkpt lat="42.627374" lon="0.548169">
        <ele>1266.3</ele>
        <time>2010-07-02T10:23:08Z</time>
      </trkpt>
      <trkpt lat="42.627237" lon="0.548155">
        <ele>1267.4</ele>
        <time>2010-07-02T10:23:08Z</time>
      </trkpt>
      <trkpt lat="42.627064" lon="0.548135">
        <ele>1268.9</ele>
        <time>2010-07-02T10:23:08Z</time>
      </trkpt>
      <trkpt lat="42.626913" lon="0.548101">
        <ele>1270.6</ele>
        <time>2010-07-02T10:23:08Z</time>
      </trkpt>
      <trkpt lat="42.626786" lon="0.548050">
        <ele>1271.8</ele>
        <time>2010-07-02T10:23:08Z</time>
      </trkpt>
      <trkpt lat="42.626713" lon="0.548016">
        <ele>1272.5</ele>
        <time>2010-07-02T10:23:08Z</time>
      </trkpt>
      <trkpt lat="42.626655" lon="0.547946">
        <ele>1272.5</ele>
        <time>2010-07-02T10:23:08Z</time>
      </trkpt>
      <trkpt lat="42.626623" lon="0.547803">
        <ele>1271.1</ele>
        <time>2010-07-02T10:23:08Z</time>
      </trkpt>
      <trkpt lat="42.626597" lon="0.547624">
        <ele>1269.0</ele>
        <time>2010-07-02T10:23:08Z</time>
      </trkpt>
      <trkpt lat="42.626575" lon="0.547433">
        <ele>1266.6</ele>
        <time>2010-07-02T10:23:08Z</time>
      </trkpt>
      <trkpt lat="42.626536" lon="0.547312">
        <ele>1265.2</ele>
        <time>2010-07-02T10:23:08Z</time>
      </trkpt>
      <trkpt lat="42.626497" lon="0.547274">
        <ele>1265.0</ele>
        <time>2010-07-02T10:23:08Z</time>
      </trkpt>
      <trkpt lat="42.626463" lon="0.547270">
        <ele>1265.3</ele>
        <time>2010-07-02T10:23:08Z</time>
      </trkpt>
      <trkpt lat="42.626432" lon="0.547286">
        <ele>1265.8</ele>
        <time>2010-07-02T10:23:08Z</time>
      </trkpt>
      <trkpt lat="42.626398" lon="0.547317">
        <ele>1266.6</ele>
        <time>2010-07-02T10:23:08Z</time>
      </trkpt>
      <trkpt lat="42.626358" lon="0.547370">
        <ele>1267.8</ele>
        <time>2010-07-02T10:23:08Z</time>
      </trkpt>
      <trkpt lat="42.626318" lon="0.547396">
        <ele>1268.6</ele>
        <time>2010-07-02T10:23:08Z</time>
      </trkpt>
      <trkpt lat="42.626282" lon="0.547408">
        <ele>1269.1</ele>
        <time>2010-07-02T10:23:08Z</time>
      </trkpt>
      <trkpt lat="42.626247" lon="0.547397">
        <ele>1269.4</ele>
        <time>2010-07-02T10:23:08Z</time>
      </trkpt>
      <trkpt lat="42.626210" lon="0.547366">
        <ele>1270.2</ele>
        <time>2010-07-02T10:23:08Z</time>
      </trkpt>
      <trkpt lat="42.626191" lon="0.547325">
        <ele>1270.2</ele>
        <time>2010-07-02T10:23:08Z</time>
      </trkpt>
      <trkpt lat="42.626171" lon="0.547220">
        <ele>1269.2</ele>
        <time>2010-07-02T10:23:08Z</time>
      </trkpt>
      <trkpt lat="42.626162" lon="0.547130">
        <ele>1268.1</ele>
        <time>2010-07-02T10:23:08Z</time>
      </trkpt>
      <trkpt lat="42.626151" lon="0.546997">
        <ele>1266.1</ele>
        <time>2010-07-02T10:23:08Z</time>
      </trkpt>
      <trkpt lat="42.626114" lon="0.546849">
        <ele>1264.7</ele>
        <time>2010-07-02T10:23:08Z</time>
      </trkpt>
      <trkpt lat="42.626064" lon="0.546725">
        <ele>1263.9</ele>
        <time>2010-07-02T10:23:08Z</time>
      </trkpt>
      <trkpt lat="42.625982" lon="0.546556">
        <ele>1263.1</ele>
        <time>2010-07-02T10:23:08Z</time>
      </trkpt>
      <trkpt lat="42.625969" lon="0.546439">
        <ele>1261.0</ele>
        <time>2010-07-02T10:23:08Z</time>
      </trkpt>
      <trkpt lat="42.625960" lon="0.546289">
        <ele>1258.1</ele>
        <time>2010-07-02T10:23:08Z</time>
      </trkpt>
      <trkpt lat="42.625937" lon="0.546128">
        <ele>1256.6</ele>
        <time>2010-07-02T10:23:08Z</time>
      </trkpt>
      <trkpt lat="42.625900" lon="0.546026">
        <ele>1256.1</ele>
        <time>2010-07-02T10:23:08Z</time>
      </trkpt>
      <trkpt lat="42.625796" lon="0.545845">
        <ele>1254.7</ele>
        <time>2010-07-02T10:23:08Z</time>
      </trkpt>
      <trkpt lat="42.625493" lon="0.545419">
        <ele>1244.8</ele>
        <time>2010-07-02T10:23:08Z</time>
      </trkpt>
      <trkpt lat="42.625323" lon="0.545202">
        <ele>1244.3</ele>
        <time>2010-07-02T10:23:08Z</time>
      </trkpt>
      <trkpt lat="42.625297" lon="0.545161">
        <ele>1244.3</ele>
        <time>2010-07-02T10:23:08Z</time>
      </trkpt>
      <trkpt lat="42.625285" lon="0.545125">
        <ele>1244.2</ele>
        <time>2010-07-02T10:23:08Z</time>
      </trkpt>
      <trkpt lat="42.625273" lon="0.545076">
        <ele>1244.1</ele>
        <time>2010-07-02T10:23:08Z</time>
      </trkpt>
      <trkpt lat="42.625152" lon="0.544865">
        <ele>1242.9</ele>
        <time>2010-07-02T10:23:08Z</time>
      </trkpt>
      <trkpt lat="42.624943" lon="0.544588">
        <ele>1238.9</ele>
        <time>2010-07-02T10:23:08Z</time>
      </trkpt>
      <trkpt lat="42.624664" lon="0.544176">
        <ele>1234.6</ele>
        <time>2010-07-02T10:23:08Z</time>
      </trkpt>
      <trkpt lat="42.624467" lon="0.543896">
        <ele>1232.4</ele>
        <time>2010-07-02T10:23:08Z</time>
      </trkpt>
      <trkpt lat="42.624388" lon="0.543778">
        <ele>1232.1</ele>
        <time>2010-07-02T10:23:08Z</time>
      </trkpt>
      <trkpt lat="42.624312" lon="0.543641">
        <ele>1232.1</ele>
        <time>2010-07-02T10:23:08Z</time>
      </trkpt>
      <trkpt lat="42.624234" lon="0.543550">
        <ele>1232.1</ele>
        <time>2010-07-02T10:23:08Z</time>
      </trkpt>
      <trkpt lat="42.624108" lon="0.543450">
        <ele>1231.7</ele>
        <time>2010-07-02T10:23:08Z</time>
      </trkpt>
      <trkpt lat="42.623860" lon="0.543219">
        <ele>1229.2</ele>
        <time>2010-07-02T10:23:08Z</time>
      </trkpt>
      <trkpt lat="42.623684" lon="0.543046">
        <ele>1227.3</ele>
        <time>2010-07-02T10:23:08Z</time>
      </trkpt>
      <trkpt lat="42.623427" lon="0.542741">
        <ele>1227.9</ele>
        <time>2010-07-02T10:23:08Z</time>
      </trkpt>
      <trkpt lat="42.623236" lon="0.542473">
        <ele>1228.3</ele>
        <time>2010-07-02T10:23:08Z</time>
      </trkpt>
      <trkpt lat="42.623138" lon="0.542327">
        <ele>1228.1</ele>
        <time>2010-07-02T10:23:08Z</time>
      </trkpt>
      <trkpt lat="42.623049" lon="0.542173">
        <ele>1227.7</ele>
        <time>2010-07-02T10:23:08Z</time>
      </trkpt>
      <trkpt lat="42.623004" lon="0.542069">
        <ele>1227.3</ele>
        <time>2010-07-02T10:23:08Z</time>
      </trkpt>
      <trkpt lat="42.622958" lon="0.541906">
        <ele>1226.9</ele>
        <time>2010-07-02T10:23:08Z</time>
      </trkpt>
      <trkpt lat="42.622936" lon="0.541794">
        <ele>1226.5</ele>
        <time>2010-07-02T10:23:08Z</time>
      </trkpt>
      <trkpt lat="42.622891" lon="0.541582">
        <ele>1225.9</ele>
        <time>2010-07-02T10:23:08Z</time>
      </trkpt>
      <trkpt lat="42.622867" lon="0.541364">
        <ele>1225.2</ele>
        <time>2010-07-02T10:23:08Z</time>
      </trkpt>
      <trkpt lat="42.622839" lon="0.541193">
        <ele>1224.4</ele>
        <time>2010-07-02T10:23:08Z</time>
      </trkpt>
      <trkpt lat="42.622822" lon="0.541036">
        <ele>1223.3</ele>
        <time>2010-07-02T10:23:08Z</time>
      </trkpt>
      <trkpt lat="42.622766" lon="0.540920">
        <ele>1223.0</ele>
        <time>2010-07-02T10:23:08Z</time>
      </trkpt>
      <trkpt lat="42.622706" lon="0.540836">
        <ele>1222.9</ele>
        <time>2010-07-02T10:23:08Z</time>
      </trkpt>
      <trkpt lat="42.622628" lon="0.540744">
        <ele>1223.0</ele>
        <time>2010-07-02T10:23:08Z</time>
      </trkpt>
      <trkpt lat="42.622555" lon="0.540631">
        <ele>1222.8</ele>
        <time>2010-07-02T10:23:08Z</time>
      </trkpt>
      <trkpt lat="42.622492" lon="0.540476">
        <ele>1222.1</ele>
        <time>2010-07-02T10:23:08Z</time>
      </trkpt>
      <trkpt lat="42.622439" lon="0.540306">
        <ele>1221.6</ele>
        <time>2010-07-02T10:23:08Z</time>
      </trkpt>
      <trkpt lat="42.622385" lon="0.540092">
        <ele>1221.0</ele>
        <time>2010-07-02T10:23:08Z</time>
      </trkpt>
      <trkpt lat="42.622354" lon="0.539896">
        <ele>1220.1</ele>
        <time>2010-07-02T10:23:08Z</time>
      </trkpt>
      <trkpt lat="42.622351" lon="0.539749">
        <ele>1219.3</ele>
        <time>2010-07-02T10:23:08Z</time>
      </trkpt>
      <trkpt lat="42.622347" lon="0.539500">
        <ele>1217.8</ele>
        <time>2010-07-02T10:23:08Z</time>
      </trkpt>
      <trkpt lat="42.622326" lon="0.539346">
        <ele>1216.8</ele>
        <time>2010-07-02T10:23:08Z</time>
      </trkpt>
      <trkpt lat="42.622289" lon="0.539178">
        <ele>1215.7</ele>
        <time>2010-07-02T10:23:08Z</time>
      </trkpt>
      <trkpt lat="42.622253" lon="0.539079">
        <ele>1215.0</ele>
        <time>2010-07-02T10:23:08Z</time>
      </trkpt>
      <trkpt lat="42.622164" lon="0.538900">
        <ele>1213.5</ele>
        <time>2010-07-02T10:23:08Z</time>
      </trkpt>
      <trkpt lat="42.622068" lon="0.538678">
        <ele>1211.4</ele>
        <time>2010-07-02T10:23:08Z</time>
      </trkpt>
      <trkpt lat="42.621999" lon="0.538407">
        <ele>1209.2</ele>
        <time>2010-07-02T10:23:08Z</time>
      </trkpt>
      <trkpt lat="42.621905" lon="0.538111">
        <ele>1206.6</ele>
        <time>2010-07-02T10:23:08Z</time>
      </trkpt>
      <trkpt lat="42.621831" lon="0.537971">
        <ele>1205.2</ele>
        <time>2010-07-02T10:23:08Z</time>
      </trkpt>
      <trkpt lat="42.621748" lon="0.537886">
        <ele>1205.1</ele>
        <time>2010-07-02T10:23:08Z</time>
      </trkpt>
      <trkpt lat="42.621617" lon="0.537803">
        <ele>1206.2</ele>
        <time>2010-07-02T10:23:08Z</time>
      </trkpt>
      <trkpt lat="42.621447" lon="0.537745">
        <ele>1206.5</ele>
        <time>2010-07-02T10:23:08Z</time>
      </trkpt>
      <trkpt lat="42.621275" lon="0.537708">
        <ele>1206.2</ele>
        <time>2010-07-02T10:23:08Z</time>
      </trkpt>
      <trkpt lat="42.620824" lon="0.537573">
        <ele>1205.5</ele>
        <time>2010-07-02T10:23:08Z</time>
      </trkpt>
      <trkpt lat="42.620584" lon="0.537497">
        <ele>1204.0</ele>
        <time>2010-07-02T10:23:08Z</time>
      </trkpt>
      <trkpt lat="42.620293" lon="0.537370">
        <ele>1201.5</ele>
        <time>2010-07-02T10:23:08Z</time>
      </trkpt>
      <trkpt lat="42.620111" lon="0.537314">
        <ele>1200.1</ele>
        <time>2010-07-02T10:23:08Z</time>
      </trkpt>
      <trkpt lat="42.619983" lon="0.537265">
        <ele>1199.0</ele>
        <time>2010-07-02T10:23:08Z</time>
      </trkpt>
      <trkpt lat="42.619720" lon="0.537098">
        <ele>1196.2</ele>
        <time>2010-07-02T10:23:08Z</time>
      </trkpt>
      <trkpt lat="42.619464" lon="0.536921">
        <ele>1195.0</ele>
        <time>2010-07-02T10:23:08Z</time>
      </trkpt>
      <trkpt lat="42.619312" lon="0.536809">
        <ele>1194.8</ele>
        <time>2010-07-02T10:23:08Z</time>
      </trkpt>
      <trkpt lat="42.619074" lon="0.536617">
        <ele>1193.6</ele>
        <time>2010-07-02T10:23:08Z</time>
      </trkpt>
      <trkpt lat="42.618736" lon="0.536278">
        <ele>1189.7</ele>
        <time>2010-07-02T10:23:08Z</time>
      </trkpt>
      <trkpt lat="42.618528" lon="0.536046">
        <ele>1192.6</ele>
        <time>2010-07-02T10:23:08Z</time>
      </trkpt>
      <trkpt lat="42.618412" lon="0.535890">
        <ele>1193.0</ele>
        <time>2010-07-02T10:23:08Z</time>
      </trkpt>
      <trkpt lat="42.618045" lon="0.535474">
        <ele>1190.5</ele>
        <time>2010-07-02T10:23:08Z</time>
      </trkpt>
      <trkpt lat="42.617789" lon="0.535212">
        <ele>1191.1</ele>
        <time>2010-07-02T10:23:08Z</time>
      </trkpt>
      <trkpt lat="42.617533" lon="0.534986">
        <ele>1191.2</ele>
        <time>2010-07-02T10:23:08Z</time>
      </trkpt>
      <trkpt lat="42.617374" lon="0.534871">
        <ele>1190.3</ele>
        <time>2010-07-02T10:23:08Z</time>
      </trkpt>
      <trkpt lat="42.617207" lon="0.534760">
        <ele>1188.8</ele>
        <time>2010-07-02T10:23:08Z</time>
      </trkpt>
      <trkpt lat="42.617038" lon="0.534680">
        <ele>1187.3</ele>
        <time>2010-07-02T10:23:08Z</time>
      </trkpt>
      <trkpt lat="42.616749" lon="0.534586">
        <ele>1186.0</ele>
        <time>2010-07-02T10:23:08Z</time>
      </trkpt>
      <trkpt lat="42.616434" lon="0.534485">
        <ele>1185.6</ele>
        <time>2010-07-02T10:23:08Z</time>
      </trkpt>
      <trkpt lat="42.616321" lon="0.534455">
        <ele>1185.4</ele>
        <time>2010-07-02T10:23:08Z</time>
      </trkpt>
      <trkpt lat="42.616214" lon="0.534438">
        <ele>1185.4</ele>
        <time>2010-07-02T10:23:08Z</time>
      </trkpt>
      <trkpt lat="42.616009" lon="0.534389">
        <ele>1185.8</ele>
        <time>2010-07-02T10:23:08Z</time>
      </trkpt>
      <trkpt lat="42.615860" lon="0.534309">
        <ele>1185.8</ele>
        <time>2010-07-02T10:23:08Z</time>
      </trkpt>
      <trkpt lat="42.615736" lon="0.534211">
        <ele>1185.5</ele>
        <time>2010-07-02T10:23:08Z</time>
      </trkpt>
      <trkpt lat="42.615580" lon="0.534054">
        <ele>1184.9</ele>
        <time>2010-07-02T10:23:08Z</time>
      </trkpt>
      <trkpt lat="42.615487" lon="0.533918">
        <ele>1184.1</ele>
        <time>2010-07-02T10:23:08Z</time>
      </trkpt>
      <trkpt lat="42.615448" lon="0.533826">
        <ele>1183.5</ele>
        <time>2010-07-02T10:23:08Z</time>
      </trkpt>
      <trkpt lat="42.615350" lon="0.533621">
        <ele>1182.6</ele>
        <time>2010-07-02T10:23:08Z</time>
      </trkpt>
      <trkpt lat="42.615111" lon="0.532907">
        <ele>1177.7</ele>
        <time>2010-07-02T10:23:08Z</time>
      </trkpt>
      <trkpt lat="42.614809" lon="0.531795">
        <ele>1177.5</ele>
        <time>2010-07-02T10:23:08Z</time>
      </trkpt>
      <trkpt lat="42.614720" lon="0.531472">
        <ele>1177.7</ele>
        <time>2010-07-02T10:23:08Z</time>
      </trkpt>
      <trkpt lat="42.614190" lon="0.529725">
        <ele>1181.9</ele>
        <time>2010-07-02T10:23:08Z</time>
      </trkpt>
      <trkpt lat="42.614044" lon="0.529172">
        <ele>1179.2</ele>
        <time>2010-07-02T10:23:08Z</time>
      </trkpt>
      <trkpt lat="42.613865" lon="0.528469">
        <ele>1173.0</ele>
        <time>2010-07-02T10:23:08Z</time>
      </trkpt>
      <trkpt lat="42.613860" lon="0.528378">
        <ele>1172.0</ele>
        <time>2010-07-02T10:23:08Z</time>
      </trkpt>
      <trkpt lat="42.613882" lon="0.528247">
        <ele>1170.5</ele>
        <time>2010-07-02T10:23:08Z</time>
      </trkpt>
      <trkpt lat="42.613898" lon="0.528054">
        <ele>1168.4</ele>
        <time>2010-07-02T10:23:08Z</time>
      </trkpt>
      <trkpt lat="42.613891" lon="0.527912">
        <ele>1167.0</ele>
        <time>2010-07-02T10:23:08Z</time>
      </trkpt>
      <trkpt lat="42.613876" lon="0.527804">
        <ele>1166.6</ele>
        <time>2010-07-02T10:23:08Z</time>
      </trkpt>
      <trkpt lat="42.613833" lon="0.527720">
        <ele>1166.2</ele>
        <time>2010-07-02T10:23:08Z</time>
      </trkpt>
      <trkpt lat="42.613536" lon="0.527508">
        <ele>1165.9</ele>
        <time>2010-07-02T10:23:08Z</time>
      </trkpt>
      <trkpt lat="42.613146" lon="0.527204">
        <ele>1164.8</ele>
        <time>2010-07-02T10:23:08Z</time>
      </trkpt>
      <trkpt lat="42.613037" lon="0.527115">
        <ele>1164.2</ele>
        <time>2010-07-02T10:23:08Z</time>
      </trkpt>
      <trkpt lat="42.612568" lon="0.526767">
        <ele>1162.5</ele>
        <time>2010-07-02T10:23:08Z</time>
      </trkpt>
      <trkpt lat="42.612031" lon="0.526402">
        <ele>1160.7</ele>
        <time>2010-07-02T10:23:08Z</time>
      </trkpt>
      <trkpt lat="42.611854" lon="0.526269">
        <ele>1160.1</ele>
        <time>2010-07-02T10:23:08Z</time>
      </trkpt>
      <trkpt lat="42.611264" lon="0.525864">
        <ele>1157.7</ele>
        <time>2010-07-02T10:23:08Z</time>
      </trkpt>
      <trkpt lat="42.610613" lon="0.525312">
        <ele>1156.0</ele>
        <time>2010-07-02T10:23:08Z</time>
      </trkpt>
      <trkpt lat="42.610377" lon="0.525066">
        <ele>1154.8</ele>
        <time>2010-07-02T10:23:08Z</time>
      </trkpt>
      <trkpt lat="42.610052" lon="0.524656">
        <ele>1151.2</ele>
        <time>2010-07-02T10:23:08Z</time>
      </trkpt>
      <trkpt lat="42.609642" lon="0.524163">
        <ele>1148.7</ele>
        <time>2010-07-02T10:23:08Z</time>
      </trkpt>
      <trkpt lat="42.609310" lon="0.523852">
        <ele>1150.7</ele>
        <time>2010-07-02T10:23:08Z</time>
      </trkpt>
      <trkpt lat="42.608949" lon="0.523536">
        <ele>1151.9</ele>
        <time>2010-07-02T10:23:08Z</time>
      </trkpt>
      <trkpt lat="42.608533" lon="0.523295">
        <ele>1149.9</ele>
        <time>2010-07-02T10:23:08Z</time>
      </trkpt>
      <trkpt lat="42.608228" lon="0.523103">
        <ele>1146.6</ele>
        <time>2010-07-02T10:23:08Z</time>
      </trkpt>
      <trkpt lat="42.607961" lon="0.522949">
        <ele>1143.6</ele>
        <time>2010-07-02T10:23:08Z</time>
      </trkpt>
      <trkpt lat="42.607879" lon="0.522930">
        <ele>1143.1</ele>
        <time>2010-07-02T10:23:08Z</time>
      </trkpt>
      <trkpt lat="42.607806" lon="0.522928">
        <ele>1143.0</ele>
        <time>2010-07-02T10:23:08Z</time>
      </trkpt>
      <trkpt lat="42.607768" lon="0.522927">
        <ele>1142.9</ele>
        <time>2010-07-02T10:23:08Z</time>
      </trkpt>
      <trkpt lat="42.607719" lon="0.522904">
        <ele>1142.7</ele>
        <time>2010-07-02T10:23:08Z</time>
      </trkpt>
      <trkpt lat="42.607648" lon="0.522917">
        <ele>1142.7</ele>
        <time>2010-07-02T10:23:08Z</time>
      </trkpt>
      <trkpt lat="42.607586" lon="0.522922">
        <ele>1142.6</ele>
        <time>2010-07-02T10:23:08Z</time>
      </trkpt>
      <trkpt lat="42.607540" lon="0.522884">
        <ele>1142.5</ele>
        <time>2010-07-02T10:23:08Z</time>
      </trkpt>
      <trkpt lat="42.607217" lon="0.522629">
        <ele>1140.7</ele>
        <time>2010-07-02T10:23:08Z</time>
      </trkpt>
      <trkpt lat="42.607029" lon="0.522504">
        <ele>1139.5</ele>
        <time>2010-07-02T10:23:08Z</time>
      </trkpt>
      <trkpt lat="42.606970" lon="0.522469">
        <ele>1139.3</ele>
        <time>2010-07-02T10:23:08Z</time>
      </trkpt>
      <trkpt lat="42.606461" lon="0.522305">
        <ele>1138.7</ele>
        <time>2010-07-02T10:23:08Z</time>
      </trkpt>
      <trkpt lat="42.606028" lon="0.522184">
        <ele>1138.1</ele>
        <time>2010-07-02T10:23:08Z</time>
      </trkpt>
      <trkpt lat="42.605548" lon="0.522002">
        <ele>1137.5</ele>
        <time>2010-07-02T10:23:08Z</time>
      </trkpt>
      <trkpt lat="42.605259" lon="0.521878">
        <ele>1137.2</ele>
        <time>2010-07-02T10:23:08Z</time>
      </trkpt>
      <trkpt lat="42.605107" lon="0.521832">
        <ele>1136.8</ele>
        <time>2010-07-02T10:23:08Z</time>
      </trkpt>
      <trkpt lat="42.605036" lon="0.521820">
        <ele>1136.6</ele>
        <time>2010-07-02T10:23:08Z</time>
      </trkpt>
      <trkpt lat="42.604515" lon="0.521760">
        <ele>1135.3</ele>
        <time>2010-07-02T10:23:08Z</time>
      </trkpt>
      <trkpt lat="42.604392" lon="0.521758">
        <ele>1135.7</ele>
        <time>2010-07-02T10:23:08Z</time>
      </trkpt>
      <trkpt lat="42.604083" lon="0.521777">
        <ele>1136.5</ele>
        <time>2010-07-02T10:23:08Z</time>
      </trkpt>
      <trkpt lat="42.603780" lon="0.521848">
        <ele>1137.2</ele>
        <time>2010-07-02T10:23:08Z</time>
      </trkpt>
    </trkseg>
  </trk>
</gpx>
